<?xml version='1.0' encoding='UTF-8'?><gpx version="1.1" creator="JPX - https://github.com/jenetics/jpx" xmlns="http://www.topografix.com/GPX/1/1"><trk><trkseg><trkpt lat="39.2658674" lon="16.7084749"><ele>986.0</ele><time>2026-03-28T11:11:35.382Z</time></trkpt><trkpt lat="39.2658705" lon="16.7085698"><ele>986.0</ele><time>2026-03-28T11:16:52.382Z</time></trkpt><trkpt lat="39.2659153" lon="16.7086327"><ele>986.0</ele><time>2026-03-28T11:16:59.382Z</time></trkpt><trkpt lat="39.2659077" lon="16.708726"><ele>986.0</ele><time>2026-03-28T11:17:11.383Z</time></trkpt><trkpt lat="39.2659522" lon="16.7088028"><ele>986.0</ele><time>2026-03-28T11:17:16.382Z</time></trkpt><trkpt lat="39.2659958" lon="16.708872"><ele>986.0</ele><time>2026-03-28T11:17:20.382Z</time></trkpt><trkpt lat="39.2659905" lon="16.7089846"><ele>986.0</ele><time>2026-03-28T11:17:22.382Z</time></trkpt><trkpt lat="39.2659673" lon="16.7090897"><ele>986.5</ele><time>2026-03-28T11:17:23.382Z</time></trkpt><trkpt lat="39.2659401" lon="16.709223"><ele>987.0</ele><time>2026-03-28T11:17:24.382Z</time></trkpt><trkpt lat="39.2659051" lon="16.7093788"><ele>987.5</ele><time>2026-03-28T11:17:25.383Z</time></trkpt><trkpt lat="39.2658522" lon="16.7095269"><ele>988.0</ele><time>2026-03-28T11:17:26.382Z</time></trkpt><trkpt lat="39.2657716" lon="16.7096299"><ele>988.4</ele><time>2026-03-28T11:17:27.382Z</time></trkpt><trkpt lat="39.2656784" lon="16.7097192"><ele>988.8</ele><time>2026-03-28T11:17:28.382Z</time></trkpt><trkpt lat="39.265592" lon="16.7098029"><ele>989.2</ele><time>2026-03-28T11:17:29.383Z</time></trkpt><trkpt lat="39.265518" lon="16.7098951"><ele>989.6</ele><time>2026-03-28T11:17:30.382Z</time></trkpt><trkpt lat="39.2654601" lon="16.710002"><ele>990.0</ele><time>2026-03-28T11:17:31.382Z</time></trkpt><trkpt lat="39.2654115" lon="16.7101177"><ele>987.6</ele><time>2026-03-28T11:17:32.382Z</time></trkpt><trkpt lat="39.2653731" lon="16.7102386"><ele>985.2</ele><time>2026-03-28T11:17:33.383Z</time></trkpt><trkpt lat="39.2653511" lon="16.710363"><ele>982.8</ele><time>2026-03-28T11:17:34.382Z</time></trkpt><trkpt lat="39.2653588" lon="16.7104907"><ele>980.4</ele><time>2026-03-28T11:17:35.382Z</time></trkpt><trkpt lat="39.2653808" lon="16.7106165"><ele>978.0</ele><time>2026-03-28T11:17:36.382Z</time></trkpt><trkpt lat="39.2654058" lon="16.710731"><ele>978.0</ele><time>2026-03-28T11:17:37.382Z</time></trkpt><trkpt lat="39.2654232" lon="16.710835"><ele>978.0</ele><time>2026-03-28T11:17:38.382Z</time></trkpt><trkpt lat="39.2654273" lon="16.7109281"><ele>978.0</ele><time>2026-03-28T11:17:39.382Z</time></trkpt><trkpt lat="39.2654148" lon="16.7110186"><ele>978.0</ele><time>2026-03-28T11:17:40.382Z</time></trkpt><trkpt lat="39.2653876" lon="16.7111133"><ele>978.0</ele><time>2026-03-28T11:17:41.382Z</time></trkpt><trkpt lat="39.2653513" lon="16.7112078"><ele>978.0</ele><time>2026-03-28T11:17:42.382Z</time></trkpt><trkpt lat="39.2653033" lon="16.7113008"><ele>978.0</ele><time>2026-03-28T11:17:43.382Z</time></trkpt><trkpt lat="39.265251" lon="16.7113881"><ele>978.0</ele><time>2026-03-28T11:17:44.382Z</time></trkpt><trkpt lat="39.2651957" lon="16.7114722"><ele>978.0</ele><time>2026-03-28T11:17:45.383Z</time></trkpt><trkpt lat="39.2651579" lon="16.7115689"><ele>978.0</ele><time>2026-03-28T11:17:46.382Z</time></trkpt><trkpt lat="39.2651388" lon="16.7116802"><ele>978.0</ele><time>2026-03-28T11:17:47.382Z</time></trkpt><trkpt lat="39.2651399" lon="16.7117927"><ele>978.0</ele><time>2026-03-28T11:17:48.382Z</time></trkpt><trkpt lat="39.2651641" lon="16.711901"><ele>976.5999999999999</ele><time>2026-03-28T11:17:49.382Z</time></trkpt><trkpt lat="39.2652142" lon="16.7120097"><ele>975.1999999999999</ele><time>2026-03-28T11:17:50.382Z</time></trkpt><trkpt lat="39.265283" lon="16.7121202"><ele>973.8</ele><time>2026-03-28T11:17:51.382Z</time></trkpt><trkpt lat="39.2653504" lon="16.7122338"><ele>972.4</ele><time>2026-03-28T11:17:52.382Z</time></trkpt><trkpt lat="39.2653963" lon="16.7123513"><ele>971.0</ele><time>2026-03-28T11:17:53.383Z</time></trkpt><trkpt lat="39.2654137" lon="16.7124748"><ele>971.0</ele><time>2026-03-28T11:17:54.382Z</time></trkpt><trkpt lat="39.2653915" lon="16.7126056"><ele>970.9999999999999</ele><time>2026-03-28T11:17:55.382Z</time></trkpt><trkpt lat="39.2653459" lon="16.7127214"><ele>970.9999999999999</ele><time>2026-03-28T11:17:56.382Z</time></trkpt><trkpt lat="39.2652897" lon="16.7128413"><ele>971.0</ele><time>2026-03-28T11:17:57.382Z</time></trkpt><trkpt lat="39.2652274" lon="16.7129631"><ele>971.0</ele><time>2026-03-28T11:17:58.382Z</time></trkpt><trkpt lat="39.2651674" lon="16.7130805"><ele>971.5999999999999</ele><time>2026-03-28T11:17:59.382Z</time></trkpt><trkpt lat="39.2651106" lon="16.7131934"><ele>972.1999999999999</ele><time>2026-03-28T11:18:00.383Z</time></trkpt><trkpt lat="39.2650529" lon="16.7133091"><ele>972.8000000000001</ele><time>2026-03-28T11:18:01.382Z</time></trkpt><trkpt lat="39.2649989" lon="16.713426"><ele>973.4000000000001</ele><time>2026-03-28T11:18:02.382Z</time></trkpt><trkpt lat="39.264956" lon="16.7135333"><ele>974.0</ele><time>2026-03-28T11:18:03.382Z</time></trkpt><trkpt lat="39.2649167" lon="16.7136355"><ele>972.8000000000001</ele><time>2026-03-28T11:18:04.382Z</time></trkpt><trkpt lat="39.2648754" lon="16.7137364"><ele>971.6000000000001</ele><time>2026-03-28T11:18:05.383Z</time></trkpt><trkpt lat="39.2648297" lon="16.7138464"><ele>970.4</ele><time>2026-03-28T11:18:06.382Z</time></trkpt><trkpt lat="39.2647826" lon="16.7139631"><ele>969.2</ele><time>2026-03-28T11:18:07.382Z</time></trkpt><trkpt lat="39.2647288" lon="16.7141"><ele>968.0</ele><time>2026-03-28T11:18:08.382Z</time></trkpt><trkpt lat="39.2646702" lon="16.7142435"><ele>968.0</ele><time>2026-03-28T11:18:09.382Z</time></trkpt><trkpt lat="39.2646017" lon="16.7143977"><ele>968.0</ele><time>2026-03-28T11:18:10.382Z</time></trkpt><trkpt lat="39.2645326" lon="16.71456"><ele>968.0</ele><time>2026-03-28T11:18:11.382Z</time></trkpt><trkpt lat="39.2644595" lon="16.714732"><ele>968.0</ele><time>2026-03-28T11:18:12.382Z</time></trkpt><trkpt lat="39.2643791" lon="16.7149087"><ele>970.6666666666667</ele><time>2026-03-28T11:18:13.382Z</time></trkpt><trkpt lat="39.2642971" lon="16.7150988"><ele>973.3333333333333</ele><time>2026-03-28T11:18:14.382Z</time></trkpt><trkpt lat="39.2642112" lon="16.7152916"><ele>976.0</ele><time>2026-03-28T11:18:15.383Z</time></trkpt><trkpt lat="39.2641234" lon="16.7154831"><ele>976.0</ele><time>2026-03-28T11:18:16.382Z</time></trkpt><trkpt lat="39.2640386" lon="16.7156792"><ele>976.0</ele><time>2026-03-28T11:18:17.382Z</time></trkpt><trkpt lat="39.2639532" lon="16.7158742"><ele>976.0</ele><time>2026-03-28T11:18:18.382Z</time></trkpt><trkpt lat="39.2638678" lon="16.7160699"><ele>976.0</ele><time>2026-03-28T11:18:19.382Z</time></trkpt><trkpt lat="39.2637854" lon="16.7162731"><ele>976.0</ele><time>2026-03-28T11:18:20.382Z</time></trkpt><trkpt lat="39.2637086" lon="16.7164819"><ele>976.0</ele><time>2026-03-28T11:18:21.383Z</time></trkpt><trkpt lat="39.2636296" lon="16.7166888"><ele>976.0</ele><time>2026-03-28T11:18:22.382Z</time></trkpt><trkpt lat="39.2635515" lon="16.7168815"><ele>976.0</ele><time>2026-03-28T11:18:23.382Z</time></trkpt><trkpt lat="39.2634696" lon="16.7170544"><ele>976.0</ele><time>2026-03-28T11:18:24.382Z</time></trkpt><trkpt lat="39.2633907" lon="16.7172033"><ele>975.5</ele><time>2026-03-28T11:18:25.382Z</time></trkpt><trkpt lat="39.2633063" lon="16.7173167"><ele>975.0</ele><time>2026-03-28T11:18:26.382Z</time></trkpt><trkpt lat="39.2632095" lon="16.7174185"><ele>974.5</ele><time>2026-03-28T11:18:27.382Z</time></trkpt><trkpt lat="39.2631139" lon="16.7175032"><ele>974.0</ele><time>2026-03-28T11:18:28.382Z</time></trkpt><trkpt lat="39.2630002" lon="16.7175706"><ele>973.75</ele><time>2026-03-28T11:18:29.382Z</time></trkpt><trkpt lat="39.2628701" lon="16.7176392"><ele>973.5</ele><time>2026-03-28T11:18:30.382Z</time></trkpt><trkpt lat="39.2627458" lon="16.7177008"><ele>973.25</ele><time>2026-03-28T11:18:31.382Z</time></trkpt><trkpt lat="39.2626302" lon="16.7177569"><ele>973.0</ele><time>2026-03-28T11:18:32.383Z</time></trkpt><trkpt lat="39.2625195" lon="16.7178112"><ele>972.8</ele><time>2026-03-28T11:18:33.382Z</time></trkpt><trkpt lat="39.2624131" lon="16.7178693"><ele>972.5999999999999</ele><time>2026-03-28T11:18:34.383Z</time></trkpt><trkpt lat="39.262302" lon="16.7179248"><ele>972.4000000000001</ele><time>2026-03-28T11:18:35.382Z</time></trkpt><trkpt lat="39.2622021" lon="16.717976"><ele>972.2</ele><time>2026-03-28T11:18:36.382Z</time></trkpt><trkpt lat="39.2621091" lon="16.7180267"><ele>972.0</ele><time>2026-03-28T11:18:37.382Z</time></trkpt><trkpt lat="39.2620183" lon="16.7180728"><ele>973.3333333333334</ele><time>2026-03-28T11:18:38.382Z</time></trkpt><trkpt lat="39.2619318" lon="16.7181204"><ele>974.6666666666667</ele><time>2026-03-28T11:18:39.382Z</time></trkpt><trkpt lat="39.2618528" lon="16.7181812"><ele>976.0</ele><time>2026-03-28T11:18:40.382Z</time></trkpt><trkpt lat="39.2617738" lon="16.71825"><ele>977.3333333333334</ele><time>2026-03-28T11:18:41.382Z</time></trkpt><trkpt lat="39.261705" lon="16.7183255"><ele>978.6666666666667</ele><time>2026-03-28T11:18:42.382Z</time></trkpt><trkpt lat="39.2616559" lon="16.7183966"><ele>980.0</ele><time>2026-03-28T11:18:43.382Z</time></trkpt><trkpt lat="39.2616231" lon="16.7185213"><ele>979.2</ele><time>2026-03-28T11:18:45.382Z</time></trkpt><trkpt lat="39.2615792" lon="16.7186192"><ele>978.4</ele><time>2026-03-28T11:18:47.382Z</time></trkpt><trkpt lat="39.2615311" lon="16.7186899"><ele>977.5999999999999</ele><time>2026-03-28T11:18:49.382Z</time></trkpt><trkpt lat="39.2614439" lon="16.7187497"><ele>976.8</ele><time>2026-03-28T11:18:52.382Z</time></trkpt><trkpt lat="39.261328" lon="16.7188483"><ele>976.0</ele><time>2026-03-28T11:18:54.382Z</time></trkpt><trkpt lat="39.2612607" lon="16.7189142"><ele>979.1666666666666</ele><time>2026-03-28T11:18:55.383Z</time></trkpt><trkpt lat="39.2611886" lon="16.7189789"><ele>982.3333333333333</ele><time>2026-03-28T11:18:56.383Z</time></trkpt><trkpt lat="39.2611221" lon="16.7190268"><ele>985.5</ele><time>2026-03-28T11:18:57.382Z</time></trkpt><trkpt lat="39.2610158" lon="16.7190706"><ele>988.6666666666667</ele><time>2026-03-28T11:18:59.383Z</time></trkpt><trkpt lat="39.2609417" lon="16.7190971"><ele>991.8333333333334</ele><time>2026-03-28T11:19:01.383Z</time></trkpt><trkpt lat="39.2608746" lon="16.7191145"><ele>995.0</ele><time>2026-03-28T11:19:04.382Z</time></trkpt><trkpt lat="39.2607831" lon="16.7191176"><ele>995.0</ele><time>2026-03-28T11:19:07.383Z</time></trkpt><trkpt lat="39.2606986" lon="16.719131"><ele>995.0</ele><time>2026-03-28T11:19:21.382Z</time></trkpt><trkpt lat="39.2606346" lon="16.7191654"><ele>995.0</ele><time>2026-03-28T11:19:23.382Z</time></trkpt><trkpt lat="39.2605693" lon="16.7192197"><ele>995.0</ele><time>2026-03-28T11:19:25.382Z</time></trkpt><trkpt lat="39.2605114" lon="16.7192653"><ele>995.0</ele><time>2026-03-28T11:19:27.382Z</time></trkpt><trkpt lat="39.2604427" lon="16.7193101"><ele>995.0</ele><time>2026-03-28T11:19:30.382Z</time></trkpt><trkpt lat="39.2603793" lon="16.7193465"><ele>995.0</ele><time>2026-03-28T11:19:33.383Z</time></trkpt><trkpt lat="39.2603063" lon="16.719343"><ele>997.6666666666667</ele><time>2026-03-28T11:19:36.382Z</time></trkpt><trkpt lat="39.260243" lon="16.7193607"><ele>1000.3333333333334</ele><time>2026-03-28T11:19:39.383Z</time></trkpt><trkpt lat="39.2601641" lon="16.7193905"><ele>1003.0</ele><time>2026-03-28T11:19:42.382Z</time></trkpt><trkpt lat="39.2601052" lon="16.7194323"><ele>1005.6666666666667</ele><time>2026-03-28T11:19:44.382Z</time></trkpt><trkpt lat="39.2600462" lon="16.7194676"><ele>1008.3333333333334</ele><time>2026-03-28T11:19:46.383Z</time></trkpt><trkpt lat="39.2599608" lon="16.7194862"><ele>1011.0</ele><time>2026-03-28T11:19:49.383Z</time></trkpt><trkpt lat="39.2598699" lon="16.7195099"><ele>1012.3333333333334</ele><time>2026-03-28T11:19:52.383Z</time></trkpt><trkpt lat="39.2597937" lon="16.7195223"><ele>1013.6666666666667</ele><time>2026-03-28T11:19:54.382Z</time></trkpt><trkpt lat="39.2597157" lon="16.719541"><ele>1015.0</ele><time>2026-03-28T11:19:56.382Z</time></trkpt><trkpt lat="39.2596387" lon="16.7195698"><ele>1016.3333333333334</ele><time>2026-03-28T11:19:58.382Z</time></trkpt><trkpt lat="39.259573" lon="16.7196013"><ele>1017.6666666666667</ele><time>2026-03-28T11:20:00.382Z</time></trkpt><trkpt lat="39.2595071" lon="16.7196189"><ele>1019.0</ele><time>2026-03-28T11:20:04.382Z</time></trkpt><trkpt lat="39.2594034" lon="16.7196187"><ele>1021.1666666666667</ele><time>2026-03-28T11:20:07.382Z</time></trkpt><trkpt lat="39.2592938" lon="16.7196036"><ele>1023.3333333333334</ele><time>2026-03-28T11:20:09.382Z</time></trkpt><trkpt lat="39.2591949" lon="16.7196108"><ele>1025.5</ele><time>2026-03-28T11:20:11.382Z</time></trkpt><trkpt lat="39.2591291" lon="16.7196355"><ele>1027.6666666666667</ele><time>2026-03-28T11:20:13.383Z</time></trkpt><trkpt lat="39.2590503" lon="16.7196404"><ele>1029.8333333333333</ele><time>2026-03-28T11:20:16.382Z</time></trkpt><trkpt lat="39.2589895" lon="16.7196738"><ele>1032.0</ele><time>2026-03-28T11:20:19.382Z</time></trkpt><trkpt lat="39.25891" lon="16.7197055"><ele>1033.8333333333333</ele><time>2026-03-28T11:20:22.382Z</time></trkpt><trkpt lat="39.2588372" lon="16.7197374"><ele>1035.6666666666667</ele><time>2026-03-28T11:20:24.382Z</time></trkpt><trkpt lat="39.2587667" lon="16.7197568"><ele>1037.5</ele><time>2026-03-28T11:20:26.383Z</time></trkpt><trkpt lat="39.258691" lon="16.7197703"><ele>1039.3333333333335</ele><time>2026-03-28T11:20:28.382Z</time></trkpt><trkpt lat="39.2586246" lon="16.7197866"><ele>1041.1666666666667</ele><time>2026-03-28T11:20:30.382Z</time></trkpt><trkpt lat="39.2585539" lon="16.7198138"><ele>1043.0</ele><time>2026-03-28T11:20:33.382Z</time></trkpt><trkpt lat="39.2584709" lon="16.7198782"><ele>1043.0</ele><time>2026-03-28T11:20:37.382Z</time></trkpt><trkpt lat="39.2583722" lon="16.7199716"><ele>1043.0</ele><time>2026-03-28T11:20:39.382Z</time></trkpt><trkpt lat="39.2583092" lon="16.7200555"><ele>1043.0</ele><time>2026-03-28T11:20:40.382Z</time></trkpt><trkpt lat="39.2582405" lon="16.7201349"><ele>1043.0</ele><time>2026-03-28T11:20:41.382Z</time></trkpt><trkpt lat="39.258173" lon="16.7201986"><ele>1043.0</ele><time>2026-03-28T11:20:42.383Z</time></trkpt><trkpt lat="39.2581089" lon="16.7202493"><ele>1044.6</ele><time>2026-03-28T11:20:43.382Z</time></trkpt><trkpt lat="39.2579987" lon="16.7203021"><ele>1046.1999999999998</ele><time>2026-03-28T11:20:45.382Z</time></trkpt><trkpt lat="39.2578823" lon="16.720323"><ele>1047.8</ele><time>2026-03-28T11:20:47.382Z</time></trkpt><trkpt lat="39.2578211" lon="16.7203478"><ele>1049.3999999999999</ele><time>2026-03-28T11:20:48.382Z</time></trkpt><trkpt lat="39.2577143" lon="16.7204367"><ele>1051.0</ele><time>2026-03-28T11:20:50.382Z</time></trkpt><trkpt lat="39.2576678" lon="16.7204982"><ele>1051.0</ele><time>2026-03-28T11:20:51.383Z</time></trkpt><trkpt lat="39.2576281" lon="16.7205705"><ele>1051.0</ele><time>2026-03-28T11:20:52.383Z</time></trkpt><trkpt lat="39.2575824" lon="16.720648"><ele>1051.0</ele><time>2026-03-28T11:20:53.382Z</time></trkpt><trkpt lat="39.2575337" lon="16.7207345"><ele>1051.0</ele><time>2026-03-28T11:20:54.382Z</time></trkpt><trkpt lat="39.2574748" lon="16.7208312"><ele>1051.0</ele><time>2026-03-28T11:20:55.382Z</time></trkpt><trkpt lat="39.2574017" lon="16.7209214"><ele>1051.0</ele><time>2026-03-28T11:20:56.382Z</time></trkpt><trkpt lat="39.2573195" lon="16.7210106"><ele>1051.3999999999999</ele><time>2026-03-28T11:20:57.382Z</time></trkpt><trkpt lat="39.2572134" lon="16.7210926"><ele>1051.8</ele><time>2026-03-28T11:20:58.382Z</time></trkpt><trkpt lat="39.2571122" lon="16.7211686"><ele>1052.1999999999998</ele><time>2026-03-28T11:20:59.383Z</time></trkpt><trkpt lat="39.257031" lon="16.7212257"><ele>1052.6</ele><time>2026-03-28T11:21:00.382Z</time></trkpt><trkpt lat="39.2569584" lon="16.7212819"><ele>1053.0</ele><time>2026-03-28T11:21:01.382Z</time></trkpt><trkpt lat="39.2568873" lon="16.7213556"><ele>1053.0</ele><time>2026-03-28T11:21:02.382Z</time></trkpt><trkpt lat="39.2568217" lon="16.7214387"><ele>1053.0</ele><time>2026-03-28T11:21:03.382Z</time></trkpt><trkpt lat="39.2567577" lon="16.721536"><ele>1053.0</ele><time>2026-03-28T11:21:04.382Z</time></trkpt><trkpt lat="39.2566867" lon="16.7216396"><ele>1053.0</ele><time>2026-03-28T11:21:05.382Z</time></trkpt><trkpt lat="39.2566028" lon="16.7217419"><ele>1053.0</ele><time>2026-03-28T11:21:06.382Z</time></trkpt><trkpt lat="39.2565093" lon="16.7218457"><ele>1052.2</ele><time>2026-03-28T11:21:07.382Z</time></trkpt><trkpt lat="39.256423" lon="16.7219457"><ele>1051.4</ele><time>2026-03-28T11:21:08.382Z</time></trkpt><trkpt lat="39.2563424" lon="16.7220402"><ele>1050.6000000000001</ele><time>2026-03-28T11:21:09.382Z</time></trkpt><trkpt lat="39.2562598" lon="16.7221296"><ele>1049.8</ele><time>2026-03-28T11:21:10.382Z</time></trkpt><trkpt lat="39.2561737" lon="16.7222209"><ele>1049.0</ele><time>2026-03-28T11:21:11.382Z</time></trkpt><trkpt lat="39.2560813" lon="16.7223218"><ele>1049.0</ele><time>2026-03-28T11:21:12.382Z</time></trkpt><trkpt lat="39.2559838" lon="16.7224239"><ele>1049.0</ele><time>2026-03-28T11:21:13.383Z</time></trkpt><trkpt lat="39.2558719" lon="16.7225066"><ele>1049.0</ele><time>2026-03-28T11:21:14.382Z</time></trkpt><trkpt lat="39.2557649" lon="16.7225665"><ele>1049.0</ele><time>2026-03-28T11:21:15.382Z</time></trkpt><trkpt lat="39.2556687" lon="16.7226062"><ele>1048.1666666666667</ele><time>2026-03-28T11:21:16.382Z</time></trkpt><trkpt lat="39.2555944" lon="16.7226419"><ele>1047.3333333333335</ele><time>2026-03-28T11:21:17.382Z</time></trkpt><trkpt lat="39.2555287" lon="16.7226965"><ele>1046.5</ele><time>2026-03-28T11:21:18.382Z</time></trkpt><trkpt lat="39.2554686" lon="16.72276"><ele>1045.6666666666667</ele><time>2026-03-28T11:21:19.382Z</time></trkpt><trkpt lat="39.2554147" lon="16.7228423"><ele>1044.8333333333333</ele><time>2026-03-28T11:21:20.382Z</time></trkpt><trkpt lat="39.2553659" lon="16.7229437"><ele>1044.0</ele><time>2026-03-28T11:21:21.383Z</time></trkpt><trkpt lat="39.2553208" lon="16.7230591"><ele>1044.0</ele><time>2026-03-28T11:21:22.383Z</time></trkpt><trkpt lat="39.2552797" lon="16.7231836"><ele>1044.0</ele><time>2026-03-28T11:21:23.383Z</time></trkpt><trkpt lat="39.2552489" lon="16.7233124"><ele>1044.0</ele><time>2026-03-28T11:21:24.382Z</time></trkpt><trkpt lat="39.2552306" lon="16.7234548"><ele>1044.0</ele><time>2026-03-28T11:21:25.382Z</time></trkpt><trkpt lat="39.2552141" lon="16.7235999"><ele>1044.0</ele><time>2026-03-28T11:21:26.383Z</time></trkpt><trkpt lat="39.2551953" lon="16.7237386"><ele>1044.25</ele><time>2026-03-28T11:21:27.382Z</time></trkpt><trkpt lat="39.2551796" lon="16.7238738"><ele>1044.5</ele><time>2026-03-28T11:21:28.383Z</time></trkpt><trkpt lat="39.2551476" lon="16.7240055"><ele>1044.75</ele><time>2026-03-28T11:21:29.382Z</time></trkpt><trkpt lat="39.2550969" lon="16.7241483"><ele>1045.0</ele><time>2026-03-28T11:21:30.382Z</time></trkpt><trkpt lat="39.2550389" lon="16.7242849"><ele>1044.6</ele><time>2026-03-28T11:21:31.382Z</time></trkpt><trkpt lat="39.2549677" lon="16.7244067"><ele>1044.2</ele><time>2026-03-28T11:21:32.382Z</time></trkpt><trkpt lat="39.2549" lon="16.7245143"><ele>1043.8</ele><time>2026-03-28T11:21:33.382Z</time></trkpt><trkpt lat="39.2548497" lon="16.7246115"><ele>1043.4</ele><time>2026-03-28T11:21:34.382Z</time></trkpt><trkpt lat="39.254815" lon="16.7247012"><ele>1043.0</ele><time>2026-03-28T11:21:35.382Z</time></trkpt><trkpt lat="39.2547895" lon="16.724782"><ele>1047.8</ele><time>2026-03-28T11:21:36.382Z</time></trkpt><trkpt lat="39.2547521" lon="16.7248864"><ele>1052.6</ele><time>2026-03-28T11:21:38.381Z</time></trkpt><trkpt lat="39.2547239" lon="16.7249774"><ele>1057.4</ele><time>2026-03-28T11:21:41.381Z</time></trkpt><trkpt lat="39.2546889" lon="16.7250766"><ele>1062.2</ele><time>2026-03-28T11:21:45.382Z</time></trkpt><trkpt lat="39.2546408" lon="16.7251818"><ele>1067.0</ele><time>2026-03-28T11:21:48.382Z</time></trkpt><trkpt lat="39.2545648" lon="16.7252846"><ele>1067.0</ele><time>2026-03-28T11:21:50.381Z</time></trkpt><trkpt lat="39.2544935" lon="16.7253699"><ele>1067.0</ele><time>2026-03-28T11:21:52.381Z</time></trkpt><trkpt lat="39.2544272" lon="16.7254353"><ele>1067.0</ele><time>2026-03-28T11:21:55.381Z</time></trkpt><trkpt lat="39.2543582" lon="16.7255091"><ele>1067.0</ele><time>2026-03-28T11:21:58.382Z</time></trkpt><trkpt lat="39.2542976" lon="16.7255908"><ele>1067.0</ele><time>2026-03-28T11:22:01.381Z</time></trkpt><trkpt lat="39.2542313" lon="16.7256562"><ele>1067.0</ele><time>2026-03-28T11:22:04.381Z</time></trkpt><trkpt lat="39.2541784" lon="16.7257186"><ele>1067.0</ele><time>2026-03-28T11:22:07.381Z</time></trkpt><trkpt lat="39.2541292" lon="16.7258032"><ele>1067.0</ele><time>2026-03-28T11:22:10.381Z</time></trkpt><trkpt lat="39.2541113" lon="16.7258976"><ele>1067.0</ele><time>2026-03-28T11:22:12.381Z</time></trkpt><trkpt lat="39.2541212" lon="16.7260122"><ele>1067.0</ele><time>2026-03-28T11:22:14.382Z</time></trkpt><trkpt lat="39.2541349" lon="16.7261268"><ele>1067.0</ele><time>2026-03-28T11:22:16.382Z</time></trkpt><trkpt lat="39.25414" lon="16.7262303"><ele>1067.0</ele><time>2026-03-28T11:22:18.381Z</time></trkpt><trkpt lat="39.2541387" lon="16.726339"><ele>1067.4</ele><time>2026-03-28T11:22:20.381Z</time></trkpt><trkpt lat="39.2541237" lon="16.7264508"><ele>1067.8000000000002</ele><time>2026-03-28T11:22:22.381Z</time></trkpt><trkpt lat="39.2540911" lon="16.7265798"><ele>1068.2</ele><time>2026-03-28T11:22:24.381Z</time></trkpt><trkpt lat="39.2540255" lon="16.7266972"><ele>1068.6000000000001</ele><time>2026-03-28T11:22:26.382Z</time></trkpt><trkpt lat="39.253988" lon="16.7268222"><ele>1069.0</ele><time>2026-03-28T11:22:28.381Z</time></trkpt><trkpt lat="39.2539434" lon="16.7269302"><ele>1074.6000000000001</ele><time>2026-03-28T11:22:30.382Z</time></trkpt><trkpt lat="39.2538933" lon="16.7270609"><ele>1080.2</ele><time>2026-03-28T11:22:32.381Z</time></trkpt><trkpt lat="39.2538362" lon="16.7272034"><ele>1085.8000000000002</ele><time>2026-03-28T11:22:34.381Z</time></trkpt><trkpt lat="39.2538025" lon="16.7273325"><ele>1091.4</ele><time>2026-03-28T11:22:36.381Z</time></trkpt><trkpt lat="39.2537789" lon="16.7274447"><ele>1097.0</ele><time>2026-03-28T11:22:39.381Z</time></trkpt><trkpt lat="39.2537409" lon="16.7275425"><ele>1097.0</ele><time>2026-03-28T11:22:41.381Z</time></trkpt><trkpt lat="39.2536988" lon="16.7276565"><ele>1097.0</ele><time>2026-03-28T11:22:43.381Z</time></trkpt><trkpt lat="39.2536596" lon="16.7277653"><ele>1097.0</ele><time>2026-03-28T11:22:45.381Z</time></trkpt><trkpt lat="39.2536227" lon="16.7278495"><ele>1097.0</ele><time>2026-03-28T11:22:47.381Z</time></trkpt><trkpt lat="39.2535941" lon="16.7279376"><ele>1097.0</ele><time>2026-03-28T11:22:49.381Z</time></trkpt><trkpt lat="39.2535702" lon="16.7280464"><ele>1097.0</ele><time>2026-03-28T11:22:51.382Z</time></trkpt><trkpt lat="39.2535336" lon="16.7281422"><ele>1098.4</ele><time>2026-03-28T11:22:53.381Z</time></trkpt><trkpt lat="39.2535047" lon="16.7282523"><ele>1099.8000000000002</ele><time>2026-03-28T11:22:55.381Z</time></trkpt><trkpt lat="39.2534735" lon="16.7283696"><ele>1101.2</ele><time>2026-03-28T11:22:57.381Z</time></trkpt><trkpt lat="39.2534424" lon="16.7284957"><ele>1102.6000000000001</ele><time>2026-03-28T11:22:59.381Z</time></trkpt><trkpt lat="39.2533929" lon="16.7286283"><ele>1104.0</ele><time>2026-03-28T11:23:01.381Z</time></trkpt><trkpt lat="39.2533344" lon="16.7287481"><ele>1104.5</ele><time>2026-03-28T11:23:03.381Z</time></trkpt><trkpt lat="39.2532553" lon="16.7288505"><ele>1105.0</ele><time>2026-03-28T11:23:05.381Z</time></trkpt><trkpt lat="39.2531978" lon="16.7288847"><ele>1105.5</ele><time>2026-03-28T11:23:06.382Z</time></trkpt><trkpt lat="39.2531332" lon="16.7289149"><ele>1106.0</ele><time>2026-03-28T11:23:07.381Z</time></trkpt><trkpt lat="39.2530624" lon="16.7289465"><ele>1106.5</ele><time>2026-03-28T11:23:08.381Z</time></trkpt><trkpt lat="39.252986" lon="16.7289752"><ele>1107.0</ele><time>2026-03-28T11:23:09.381Z</time></trkpt><trkpt lat="39.2529101" lon="16.7289989"><ele>1107.8</ele><time>2026-03-28T11:23:10.381Z</time></trkpt><trkpt lat="39.2528372" lon="16.7290218"><ele>1108.6</ele><time>2026-03-28T11:23:11.381Z</time></trkpt><trkpt lat="39.2527753" lon="16.7290421"><ele>1109.3999999999999</ele><time>2026-03-28T11:23:12.381Z</time></trkpt><trkpt lat="39.2526596" lon="16.7290909"><ele>1110.2</ele><time>2026-03-28T11:23:14.381Z</time></trkpt><trkpt lat="39.252552" lon="16.729139"><ele>1111.0</ele><time>2026-03-28T11:23:16.381Z</time></trkpt><trkpt lat="39.252463" lon="16.7292223"><ele>1111.0</ele><time>2026-03-28T11:23:18.381Z</time></trkpt><trkpt lat="39.2524139" lon="16.7292946"><ele>1111.0</ele><time>2026-03-28T11:23:19.381Z</time></trkpt><trkpt lat="39.2523734" lon="16.7293649"><ele>1111.0</ele><time>2026-03-28T11:23:20.382Z</time></trkpt><trkpt lat="39.2522937" lon="16.7294621"><ele>1111.0</ele><time>2026-03-28T11:23:22.381Z</time></trkpt><trkpt lat="39.2522218" lon="16.72951"><ele>1111.0</ele><time>2026-03-28T11:23:24.381Z</time></trkpt><trkpt lat="39.2521631" lon="16.7295495"><ele>1111.0</ele><time>2026-03-28T11:23:26.381Z</time></trkpt><trkpt lat="39.2521058" lon="16.7295932"><ele>1109.1666666666665</ele><time>2026-03-28T11:23:28.381Z</time></trkpt><trkpt lat="39.2520342" lon="16.7296335"><ele>1107.3333333333333</ele><time>2026-03-28T11:23:30.382Z</time></trkpt><trkpt lat="39.2519572" lon="16.7296761"><ele>1105.5</ele><time>2026-03-28T11:23:32.381Z</time></trkpt><trkpt lat="39.25189" lon="16.7297194"><ele>1103.6666666666667</ele><time>2026-03-28T11:23:34.381Z</time></trkpt><trkpt lat="39.251817" lon="16.7297575"><ele>1101.8333333333335</ele><time>2026-03-28T11:23:36.381Z</time></trkpt><trkpt lat="39.2517398" lon="16.7298036"><ele>1100.0</ele><time>2026-03-28T11:23:38.381Z</time></trkpt><trkpt lat="39.2516519" lon="16.72988"><ele>1100.0</ele><time>2026-03-28T11:23:40.381Z</time></trkpt><trkpt lat="39.2515535" lon="16.7299686"><ele>1100.0</ele><time>2026-03-28T11:23:42.381Z</time></trkpt><trkpt lat="39.2514753" lon="16.7300336"><ele>1100.0</ele><time>2026-03-28T11:23:43.381Z</time></trkpt><trkpt lat="39.2514059" lon="16.7300899"><ele>1100.0</ele><time>2026-03-28T11:23:44.381Z</time></trkpt><trkpt lat="39.2513446" lon="16.7301482"><ele>1100.0</ele><time>2026-03-28T11:23:45.382Z</time></trkpt><trkpt lat="39.2512897" lon="16.7302017"><ele>1100.0</ele><time>2026-03-28T11:23:46.381Z</time></trkpt><trkpt lat="39.2512351" lon="16.7302579"><ele>1101.0</ele><time>2026-03-28T11:23:47.381Z</time></trkpt><trkpt lat="39.2511798" lon="16.730324"><ele>1102.0</ele><time>2026-03-28T11:23:48.381Z</time></trkpt><trkpt lat="39.2511167" lon="16.7303967"><ele>1103.0</ele><time>2026-03-28T11:23:49.381Z</time></trkpt><trkpt lat="39.2510389" lon="16.7304846"><ele>1104.0</ele><time>2026-03-28T11:23:50.382Z</time></trkpt><trkpt lat="39.2509355" lon="16.7305984"><ele>1105.0</ele><time>2026-03-28T11:23:51.381Z</time></trkpt><trkpt lat="39.2508087" lon="16.7307269"><ele>1105.0</ele><time>2026-03-28T11:23:52.381Z</time></trkpt><trkpt lat="39.2506917" lon="16.7308391"><ele>1105.0</ele><time>2026-03-28T11:23:53.381Z</time></trkpt><trkpt lat="39.2505838" lon="16.7309355"><ele>1105.0</ele><time>2026-03-28T11:23:54.382Z</time></trkpt><trkpt lat="39.2504923" lon="16.7310257"><ele>1105.0</ele><time>2026-03-28T11:23:55.382Z</time></trkpt><trkpt lat="39.2504176" lon="16.7311109"><ele>1104.5</ele><time>2026-03-28T11:23:56.381Z</time></trkpt><trkpt lat="39.2503497" lon="16.7311861"><ele>1104.0</ele><time>2026-03-28T11:23:57.381Z</time></trkpt><trkpt lat="39.2502867" lon="16.73126"><ele>1103.5</ele><time>2026-03-28T11:23:58.381Z</time></trkpt><trkpt lat="39.2502268" lon="16.731338"><ele>1103.0</ele><time>2026-03-28T11:23:59.383Z</time></trkpt><trkpt lat="39.2501735" lon="16.7314125"><ele>1102.5</ele><time>2026-03-28T11:24:00.382Z</time></trkpt><trkpt lat="39.2501183" lon="16.7314939"><ele>1102.0</ele><time>2026-03-28T11:24:01.383Z</time></trkpt><trkpt lat="39.2500586" lon="16.7315773"><ele>1102.0</ele><time>2026-03-28T11:24:02.382Z</time></trkpt><trkpt lat="39.249999" lon="16.7316727"><ele>1102.0</ele><time>2026-03-28T11:24:03.383Z</time></trkpt><trkpt lat="39.2499587" lon="16.7317763"><ele>1102.0</ele><time>2026-03-28T11:24:04.382Z</time></trkpt><trkpt lat="39.2499276" lon="16.7318693"><ele>1102.0</ele><time>2026-03-28T11:24:05.383Z</time></trkpt><trkpt lat="39.249905" lon="16.7319852"><ele>1102.0</ele><time>2026-03-28T11:24:06.382Z</time></trkpt><trkpt lat="39.249902" lon="16.7321262"><ele>1102.2</ele><time>2026-03-28T11:24:07.382Z</time></trkpt><trkpt lat="39.2499074" lon="16.732282"><ele>1102.4</ele><time>2026-03-28T11:24:08.382Z</time></trkpt><trkpt lat="39.2499184" lon="16.732412"><ele>1102.6</ele><time>2026-03-28T11:24:09.382Z</time></trkpt><trkpt lat="39.2499301" lon="16.7325112"><ele>1102.8</ele><time>2026-03-28T11:24:10.382Z</time></trkpt><trkpt lat="39.249961" lon="16.7326514"><ele>1103.0</ele><time>2026-03-28T11:24:12.382Z</time></trkpt><trkpt lat="39.250005" lon="16.7327517"><ele>1103.8</ele><time>2026-03-28T11:24:14.382Z</time></trkpt><trkpt lat="39.2500863" lon="16.7328401"><ele>1104.6</ele><time>2026-03-28T11:24:16.383Z</time></trkpt><trkpt lat="39.2501696" lon="16.7329778"><ele>1105.4</ele><time>2026-03-28T11:24:18.382Z</time></trkpt><trkpt lat="39.250213" lon="16.7330567"><ele>1106.2</ele><time>2026-03-28T11:24:19.382Z</time></trkpt><trkpt lat="39.2502679" lon="16.7331337"><ele>1107.0</ele><time>2026-03-28T11:24:20.382Z</time></trkpt><trkpt lat="39.2503192" lon="16.7332053"><ele>1107.0</ele><time>2026-03-28T11:24:21.382Z</time></trkpt><trkpt lat="39.2503605" lon="16.7332788"><ele>1107.0</ele><time>2026-03-28T11:24:22.382Z</time></trkpt><trkpt lat="39.2503875" lon="16.733358"><ele>1107.0</ele><time>2026-03-28T11:24:23.382Z</time></trkpt><trkpt lat="39.2503993" lon="16.7334464"><ele>1107.0</ele><time>2026-03-28T11:24:24.382Z</time></trkpt><trkpt lat="39.250402" lon="16.7335485"><ele>1107.0</ele><time>2026-03-28T11:24:25.383Z</time></trkpt><trkpt lat="39.2503949" lon="16.7336548"><ele>1107.0</ele><time>2026-03-28T11:24:26.382Z</time></trkpt><trkpt lat="39.2503726" lon="16.7337575"><ele>1107.5</ele><time>2026-03-28T11:24:27.383Z</time></trkpt><trkpt lat="39.2503435" lon="16.733851"><ele>1108.0</ele><time>2026-03-28T11:24:28.382Z</time></trkpt><trkpt lat="39.2503096" lon="16.7339352"><ele>1108.5</ele><time>2026-03-28T11:24:29.382Z</time></trkpt><trkpt lat="39.2502664" lon="16.7340141"><ele>1109.0</ele><time>2026-03-28T11:24:30.382Z</time></trkpt><trkpt lat="39.2501981" lon="16.7341388"><ele>1109.5</ele><time>2026-03-28T11:24:32.382Z</time></trkpt><trkpt lat="39.250129" lon="16.7342403"><ele>1110.0</ele><time>2026-03-28T11:24:34.382Z</time></trkpt><trkpt lat="39.250095" lon="16.7343146"><ele>1110.2</ele><time>2026-03-28T11:24:35.382Z</time></trkpt><trkpt lat="39.2500742" lon="16.7344219"><ele>1110.4</ele><time>2026-03-28T11:24:36.382Z</time></trkpt><trkpt lat="39.2500686" lon="16.7345563"><ele>1110.6</ele><time>2026-03-28T11:24:37.382Z</time></trkpt><trkpt lat="39.250104" lon="16.7347091"><ele>1110.8</ele><time>2026-03-28T11:24:38.382Z</time></trkpt><trkpt lat="39.2501522" lon="16.7348426"><ele>1111.0</ele><time>2026-03-28T11:24:39.383Z</time></trkpt><trkpt lat="39.2501965" lon="16.7349558"><ele>1111.0</ele><time>2026-03-28T11:24:40.382Z</time></trkpt><trkpt lat="39.2502391" lon="16.7350385"><ele>1111.0</ele><time>2026-03-28T11:24:41.382Z</time></trkpt><trkpt lat="39.2502859" lon="16.7350966"><ele>1111.0</ele><time>2026-03-28T11:24:42.382Z</time></trkpt><trkpt lat="39.250389" lon="16.735162"><ele>1111.0</ele><time>2026-03-28T11:24:44.383Z</time></trkpt><trkpt lat="39.2504789" lon="16.7351878"><ele>1111.0</ele><time>2026-03-28T11:24:46.383Z</time></trkpt><trkpt lat="39.2505592" lon="16.7352077"><ele>1111.0</ele><time>2026-03-28T11:24:49.382Z</time></trkpt><trkpt lat="39.2506375" lon="16.7352213"><ele>1110.3333333333333</ele><time>2026-03-28T11:24:52.382Z</time></trkpt><trkpt lat="39.2507076" lon="16.7352481"><ele>1109.6666666666665</ele><time>2026-03-28T11:24:54.382Z</time></trkpt><trkpt lat="39.2507993" lon="16.7352625"><ele>1109.0</ele><time>2026-03-28T11:24:56.382Z</time></trkpt><trkpt lat="39.2508696" lon="16.735262"><ele>1108.3333333333333</ele><time>2026-03-28T11:24:57.383Z</time></trkpt><trkpt lat="39.2509477" lon="16.7352774"><ele>1107.6666666666667</ele><time>2026-03-28T11:24:58.382Z</time></trkpt><trkpt lat="39.2510195" lon="16.7353012"><ele>1107.0</ele><time>2026-03-28T11:24:59.382Z</time></trkpt><trkpt lat="39.2510826" lon="16.7353479"><ele>1107.0</ele><time>2026-03-28T11:25:00.382Z</time></trkpt><trkpt lat="39.2511257" lon="16.7354254"><ele>1107.0</ele><time>2026-03-28T11:25:01.382Z</time></trkpt><trkpt lat="39.2511548" lon="16.7355342"><ele>1107.0</ele><time>2026-03-28T11:25:02.383Z</time></trkpt><trkpt lat="39.2511787" lon="16.7356507"><ele>1107.0</ele><time>2026-03-28T11:25:03.382Z</time></trkpt><trkpt lat="39.2511915" lon="16.7357549"><ele>1107.0</ele><time>2026-03-28T11:25:04.383Z</time></trkpt><trkpt lat="39.2511983" lon="16.7358371"><ele>1107.0</ele><time>2026-03-28T11:25:05.382Z</time></trkpt><trkpt lat="39.2512195" lon="16.7359646"><ele>1107.5</ele><time>2026-03-28T11:25:07.382Z</time></trkpt><trkpt lat="39.2512908" lon="16.7360795"><ele>1108.0</ele><time>2026-03-28T11:25:09.382Z</time></trkpt><trkpt lat="39.251335" lon="16.7361395"><ele>1108.5</ele><time>2026-03-28T11:25:10.382Z</time></trkpt><trkpt lat="39.2513887" lon="16.7361925"><ele>1109.0</ele><time>2026-03-28T11:25:11.382Z</time></trkpt><trkpt lat="39.251444" lon="16.7362361"><ele>1109.5</ele><time>2026-03-28T11:25:12.382Z</time></trkpt><trkpt lat="39.2515389" lon="16.7363119"><ele>1110.0</ele><time>2026-03-28T11:25:14.382Z</time></trkpt><trkpt lat="39.2516261" lon="16.7363954"><ele>1107.5</ele><time>2026-03-28T11:25:16.382Z</time></trkpt><trkpt lat="39.2516973" lon="16.7365145"><ele>1105.0</ele><time>2026-03-28T11:25:18.382Z</time></trkpt><trkpt lat="39.2517354" lon="16.7366503"><ele>1102.5</ele><time>2026-03-28T11:25:20.382Z</time></trkpt><trkpt lat="39.2517536" lon="16.7367876"><ele>1100.0</ele><time>2026-03-28T11:25:22.382Z</time></trkpt><trkpt lat="39.2518056" lon="16.736919"><ele>1100.0</ele><time>2026-03-28T11:25:24.382Z</time></trkpt><trkpt lat="39.2518625" lon="16.7370472"><ele>1100.0</ele><time>2026-03-28T11:25:26.382Z</time></trkpt><trkpt lat="39.2518864" lon="16.7371945"><ele>1100.0</ele><time>2026-03-28T11:25:28.382Z</time></trkpt><trkpt lat="39.2518728" lon="16.7373264"><ele>1100.0</ele><time>2026-03-28T11:25:30.382Z</time></trkpt><trkpt lat="39.251832" lon="16.737421"><ele>1100.0</ele><time>2026-03-28T11:25:32.382Z</time></trkpt><trkpt lat="39.2517752" lon="16.7375184"><ele>1100.0</ele><time>2026-03-28T11:25:34.382Z</time></trkpt><trkpt lat="39.2517096" lon="16.7376223"><ele>1100.0</ele><time>2026-03-28T11:25:36.382Z</time></trkpt><trkpt lat="39.251633" lon="16.7377236"><ele>1100.0</ele><time>2026-03-28T11:25:38.382Z</time></trkpt><trkpt lat="39.2515795" lon="16.7377988"><ele>1100.0</ele><time>2026-03-28T11:25:40.382Z</time></trkpt><trkpt lat="39.2515044" lon="16.7378529"><ele>1100.0</ele><time>2026-03-28T11:25:43.382Z</time></trkpt><trkpt lat="39.2514375" lon="16.7378805"><ele>1100.0</ele><time>2026-03-28T11:25:45.382Z</time></trkpt><trkpt lat="39.2513618" lon="16.73792"><ele>1099.5</ele><time>2026-03-28T11:25:47.382Z</time></trkpt><trkpt lat="39.2512803" lon="16.7379572"><ele>1099.0</ele><time>2026-03-28T11:25:49.382Z</time></trkpt><trkpt lat="39.2511992" lon="16.7380053"><ele>1098.5</ele><time>2026-03-28T11:25:51.382Z</time></trkpt><trkpt lat="39.2511181" lon="16.7380582"><ele>1098.0</ele><time>2026-03-28T11:25:53.382Z</time></trkpt><trkpt lat="39.2510462" lon="16.7381076"><ele>1097.5</ele><time>2026-03-28T11:25:55.382Z</time></trkpt><trkpt lat="39.2509995" lon="16.7381818"><ele>1097.0</ele><time>2026-03-28T11:25:58.382Z</time></trkpt><trkpt lat="39.2509913" lon="16.7382829"><ele>1097.0</ele><time>2026-03-28T11:26:04.383Z</time></trkpt><trkpt lat="39.2510419" lon="16.738375"><ele>1097.0</ele><time>2026-03-28T11:26:06.382Z</time></trkpt><trkpt lat="39.2511043" lon="16.7384338"><ele>1097.0</ele><time>2026-03-28T11:26:08.383Z</time></trkpt><trkpt lat="39.2511842" lon="16.7384422"><ele>1097.0</ele><time>2026-03-28T11:26:11.382Z</time></trkpt><trkpt lat="39.2512497" lon="16.7384101"><ele>1097.0</ele><time>2026-03-28T11:26:14.382Z</time></trkpt><trkpt lat="39.2513154" lon="16.7383648"><ele>1097.0</ele><time>2026-03-28T11:26:17.382Z</time></trkpt><trkpt lat="39.2513958" lon="16.7383556"><ele>1095.1666666666667</ele><time>2026-03-28T11:26:21.382Z</time></trkpt><trkpt lat="39.2514807" lon="16.7383602"><ele>1093.3333333333335</ele><time>2026-03-28T11:26:24.382Z</time></trkpt><trkpt lat="39.2515497" lon="16.7383518"><ele>1091.5</ele><time>2026-03-28T11:26:26.382Z</time></trkpt><trkpt lat="39.2516544" lon="16.7383422"><ele>1089.6666666666667</ele><time>2026-03-28T11:26:28.382Z</time></trkpt><trkpt lat="39.2517596" lon="16.7383325"><ele>1087.8333333333333</ele><time>2026-03-28T11:26:30.383Z</time></trkpt><trkpt lat="39.2518364" lon="16.7383229"><ele>1086.0</ele><time>2026-03-28T11:26:32.382Z</time></trkpt><trkpt lat="39.2519287" lon="16.738312"><ele>1086.0</ele><time>2026-03-28T11:26:35.382Z</time></trkpt><trkpt lat="39.2520105" lon="16.7382475"><ele>1086.0</ele><time>2026-03-28T11:26:37.382Z</time></trkpt><trkpt lat="39.2521023" lon="16.7381357"><ele>1086.0</ele><time>2026-03-28T11:26:39.383Z</time></trkpt><trkpt lat="39.252185" lon="16.7380218"><ele>1086.0</ele><time>2026-03-28T11:26:41.382Z</time></trkpt><trkpt lat="39.2522297" lon="16.7379623"><ele>1086.0</ele><time>2026-03-28T11:26:42.382Z</time></trkpt><trkpt lat="39.2522827" lon="16.7379073"><ele>1082.8</ele><time>2026-03-28T11:26:43.383Z</time></trkpt><trkpt lat="39.2523841" lon="16.7378655"><ele>1079.6</ele><time>2026-03-28T11:26:45.382Z</time></trkpt><trkpt lat="39.2524937" lon="16.7378962"><ele>1076.4</ele><time>2026-03-28T11:26:47.382Z</time></trkpt><trkpt lat="39.2525891" lon="16.7379602"><ele>1073.2</ele><time>2026-03-28T11:26:49.382Z</time></trkpt><trkpt lat="39.2526725" lon="16.7380409"><ele>1070.0</ele><time>2026-03-28T11:26:51.382Z</time></trkpt><trkpt lat="39.252724" lon="16.7380885"><ele>1070.0</ele><time>2026-03-28T11:26:52.382Z</time></trkpt><trkpt lat="39.2527797" lon="16.7381327"><ele>1070.0</ele><time>2026-03-28T11:26:53.382Z</time></trkpt><trkpt lat="39.252874" lon="16.7382167"><ele>1070.0</ele><time>2026-03-28T11:26:55.383Z</time></trkpt><trkpt lat="39.2529295" lon="16.7383081"><ele>1070.0</ele><time>2026-03-28T11:26:57.382Z</time></trkpt><trkpt lat="39.252922" lon="16.7384058"><ele>1070.0</ele><time>2026-03-28T11:26:59.382Z</time></trkpt><trkpt lat="39.2529055" lon="16.7385447"><ele>1068.0</ele><time>2026-03-28T11:27:01.383Z</time></trkpt><trkpt lat="39.2529313" lon="16.7386857"><ele>1066.0</ele><time>2026-03-28T11:27:03.383Z</time></trkpt><trkpt lat="39.252963" lon="16.7387686"><ele>1064.0</ele><time>2026-03-28T11:27:05.382Z</time></trkpt><trkpt lat="39.253034" lon="16.7387813"><ele>1062.0</ele><time>2026-03-28T11:27:08.382Z</time></trkpt><trkpt lat="39.2531202" lon="16.7387156"><ele>1060.0</ele><time>2026-03-28T11:27:11.382Z</time></trkpt><trkpt lat="39.2532035" lon="16.7386627"><ele>1058.0</ele><time>2026-03-28T11:27:13.382Z</time></trkpt><trkpt lat="39.2532981" lon="16.7386222"><ele>1058.2</ele><time>2026-03-28T11:27:15.383Z</time></trkpt><trkpt lat="39.2533784" lon="16.738576"><ele>1058.4</ele><time>2026-03-28T11:27:17.382Z</time></trkpt><trkpt lat="39.2534652" lon="16.7385023"><ele>1058.6000000000001</ele><time>2026-03-28T11:27:19.382Z</time></trkpt><trkpt lat="39.2535333" lon="16.7384184"><ele>1058.8</ele><time>2026-03-28T11:27:21.382Z</time></trkpt><trkpt lat="39.2536121" lon="16.7383452"><ele>1059.0</ele><time>2026-03-28T11:27:23.382Z</time></trkpt><trkpt lat="39.2536992" lon="16.7383505"><ele>1059.0</ele><time>2026-03-28T11:27:25.382Z</time></trkpt><trkpt lat="39.2538104" lon="16.7384355"><ele>1059.0</ele><time>2026-03-28T11:27:27.382Z</time></trkpt><trkpt lat="39.2538919" lon="16.7385029"><ele>1059.0</ele><time>2026-03-28T11:27:28.382Z</time></trkpt><trkpt lat="39.2539803" lon="16.7385647"><ele>1059.0</ele><time>2026-03-28T11:27:29.382Z</time></trkpt><trkpt lat="39.2540564" lon="16.7386115"><ele>1059.0</ele><time>2026-03-28T11:27:30.382Z</time></trkpt><trkpt lat="39.2541407" lon="16.7386407"><ele>1058.0</ele><time>2026-03-28T11:27:31.383Z</time></trkpt><trkpt lat="39.2542296" lon="16.7386489"><ele>1057.0</ele><time>2026-03-28T11:27:32.382Z</time></trkpt><trkpt lat="39.2543076" lon="16.7386268"><ele>1056.0</ele><time>2026-03-28T11:27:33.382Z</time></trkpt><trkpt lat="39.2543735" lon="16.7385837"><ele>1055.0</ele><time>2026-03-28T11:27:34.382Z</time></trkpt><trkpt lat="39.2544263" lon="16.7385188"><ele>1054.0</ele><time>2026-03-28T11:27:35.383Z</time></trkpt><trkpt lat="39.2544744" lon="16.7384453"><ele>1053.0</ele><time>2026-03-28T11:27:36.383Z</time></trkpt><trkpt lat="39.2545165" lon="16.7383676"><ele>1053.0</ele><time>2026-03-28T11:27:37.382Z</time></trkpt><trkpt lat="39.2545573" lon="16.7382844"><ele>1053.0</ele><time>2026-03-28T11:27:38.382Z</time></trkpt><trkpt lat="39.2546031" lon="16.7381946"><ele>1053.0</ele><time>2026-03-28T11:27:39.382Z</time></trkpt><trkpt lat="39.2546473" lon="16.7380992"><ele>1053.0</ele><time>2026-03-28T11:27:40.383Z</time></trkpt><trkpt lat="39.2546897" lon="16.7380251"><ele>1053.0</ele><time>2026-03-28T11:27:41.382Z</time></trkpt><trkpt lat="39.2547683" lon="16.7379787"><ele>1053.0</ele><time>2026-03-28T11:27:43.383Z</time></trkpt><trkpt lat="39.2548326" lon="16.7380443"><ele>1051.1666666666667</ele><time>2026-03-28T11:27:45.382Z</time></trkpt><trkpt lat="39.2548753" lon="16.7381286"><ele>1049.3333333333333</ele><time>2026-03-28T11:27:48.382Z</time></trkpt><trkpt lat="39.2549289" lon="16.7382378"><ele>1047.5</ele><time>2026-03-28T11:28:17.382Z</time></trkpt><trkpt lat="39.2549605" lon="16.7383128"><ele>1045.6666666666665</ele><time>2026-03-28T11:28:20.382Z</time></trkpt><trkpt lat="39.2549934" lon="16.7383966"><ele>1043.8333333333333</ele><time>2026-03-28T11:28:25.382Z</time></trkpt><trkpt lat="39.2550408" lon="16.738486"><ele>1042.0</ele><time>2026-03-28T11:29:03.382Z</time></trkpt><trkpt lat="39.2550341" lon="16.7383937"><ele>1042.0</ele><time>2026-03-28T11:29:44.382Z</time></trkpt><trkpt lat="39.2550543" lon="16.7383012"><ele>1042.0</ele><time>2026-03-28T11:30:04.382Z</time></trkpt><trkpt lat="39.2550812" lon="16.7382176"><ele>1042.0</ele><time>2026-03-28T11:30:07.382Z</time></trkpt><trkpt lat="39.2551665" lon="16.7381784"><ele>1042.0</ele><time>2026-03-28T11:30:18.382Z</time></trkpt><trkpt lat="39.2552301" lon="16.7381901"><ele>1042.0</ele><time>2026-03-28T11:30:22.383Z</time></trkpt><trkpt lat="39.255312" lon="16.7382528"><ele>1042.0</ele><time>2026-03-28T11:30:34.382Z</time></trkpt><trkpt lat="39.2553682" lon="16.7382981"><ele>1042.0</ele><time>2026-03-28T11:30:37.382Z</time></trkpt><trkpt lat="39.2554126" lon="16.7383907"><ele>1042.0</ele><time>2026-03-28T11:30:45.382Z</time></trkpt><trkpt lat="39.255464" lon="16.7384835"><ele>1042.0</ele><time>2026-03-28T11:30:47.382Z</time></trkpt><trkpt lat="39.2554734" lon="16.7385816"><ele>1042.0</ele><time>2026-03-28T11:30:49.382Z</time></trkpt><trkpt lat="39.2554041" lon="16.7387165"><ele>1042.0</ele><time>2026-03-28T11:30:51.382Z</time></trkpt><trkpt lat="39.2553598" lon="16.7387882"><ele>1042.0</ele><time>2026-03-28T11:30:52.382Z</time></trkpt><trkpt lat="39.2553139" lon="16.738862"><ele>1040.0</ele><time>2026-03-28T11:30:53.382Z</time></trkpt><trkpt lat="39.2552768" lon="16.7389356"><ele>1038.0</ele><time>2026-03-28T11:30:54.382Z</time></trkpt><trkpt lat="39.2552081" lon="16.7390811"><ele>1036.0</ele><time>2026-03-28T11:30:56.382Z</time></trkpt><trkpt lat="39.2551745" lon="16.7391646"><ele>1034.0</ele><time>2026-03-28T11:30:57.382Z</time></trkpt><trkpt lat="39.255127" lon="16.7392562"><ele>1032.0</ele><time>2026-03-28T11:30:58.382Z</time></trkpt><trkpt lat="39.2550853" lon="16.7393369"><ele>1030.0</ele><time>2026-03-28T11:30:59.382Z</time></trkpt><trkpt lat="39.2550419" lon="16.7394301"><ele>1025.5</ele><time>2026-03-28T11:31:00.383Z</time></trkpt><trkpt lat="39.2549904" lon="16.7395227"><ele>1021.0</ele><time>2026-03-28T11:31:01.382Z</time></trkpt><trkpt lat="39.2549375" lon="16.7396173"><ele>1016.5</ele><time>2026-03-28T11:31:02.382Z</time></trkpt><trkpt lat="39.2549006" lon="16.7397172"><ele>1012.0</ele><time>2026-03-28T11:31:03.382Z</time></trkpt><trkpt lat="39.2548844" lon="16.7398144"><ele>1007.4999999999999</ele><time>2026-03-28T11:31:04.382Z</time></trkpt><trkpt lat="39.2548774" lon="16.7399008"><ele>1003.0</ele><time>2026-03-28T11:31:05.382Z</time></trkpt><trkpt lat="39.2548414" lon="16.7400236"><ele>1006.1666666666666</ele><time>2026-03-28T11:31:07.383Z</time></trkpt><trkpt lat="39.2547684" lon="16.7400705"><ele>1009.3333333333333</ele><time>2026-03-28T11:31:09.383Z</time></trkpt><trkpt lat="39.2546911" lon="16.7400481"><ele>1012.5</ele><time>2026-03-28T11:31:11.383Z</time></trkpt><trkpt lat="39.2545976" lon="16.7400382"><ele>1015.6666666666667</ele><time>2026-03-28T11:31:13.382Z</time></trkpt><trkpt lat="39.254519" lon="16.740034"><ele>1018.8333333333334</ele><time>2026-03-28T11:31:15.383Z</time></trkpt><trkpt lat="39.2544554" lon="16.7400372"><ele>1022.0</ele><time>2026-03-28T11:31:17.382Z</time></trkpt><trkpt lat="39.2543885" lon="16.7400273"><ele>1022.0</ele><time>2026-03-28T11:31:19.382Z</time></trkpt><trkpt lat="39.2542982" lon="16.7400108"><ele>1022.0</ele><time>2026-03-28T11:31:21.382Z</time></trkpt><trkpt lat="39.2542173" lon="16.7400393"><ele>1022.0</ele><time>2026-03-28T11:31:23.382Z</time></trkpt><trkpt lat="39.2541968" lon="16.7401572"><ele>1022.0</ele><time>2026-03-28T11:31:25.382Z</time></trkpt><trkpt lat="39.2542247" lon="16.740316"><ele>1022.0</ele><time>2026-03-28T11:31:27.382Z</time></trkpt><trkpt lat="39.2542331" lon="16.7404084"><ele>1019.1666666666667</ele><time>2026-03-28T11:31:28.383Z</time></trkpt><trkpt lat="39.2542408" lon="16.7404939"><ele>1016.3333333333334</ele><time>2026-03-28T11:31:29.382Z</time></trkpt><trkpt lat="39.254231" lon="16.7405801"><ele>1013.5</ele><time>2026-03-28T11:31:30.382Z</time></trkpt><trkpt lat="39.2542057" lon="16.7406658"><ele>1010.6666666666667</ele><time>2026-03-28T11:31:31.382Z</time></trkpt><trkpt lat="39.25417" lon="16.7407395"><ele>1007.8333333333334</ele><time>2026-03-28T11:31:32.383Z</time></trkpt><trkpt lat="39.2540755" lon="16.7408404"><ele>1005.0</ele><time>2026-03-28T11:31:34.382Z</time></trkpt><trkpt lat="39.2540056" lon="16.7408871"><ele>1006.5</ele><time>2026-03-28T11:31:35.382Z</time></trkpt><trkpt lat="39.2539323" lon="16.7409393"><ele>1008.0</ele><time>2026-03-28T11:31:36.383Z</time></trkpt><trkpt lat="39.2538574" lon="16.740997"><ele>1009.5</ele><time>2026-03-28T11:31:37.382Z</time></trkpt><trkpt lat="39.2537888" lon="16.741047"><ele>1011.0</ele><time>2026-03-28T11:31:38.383Z</time></trkpt><trkpt lat="39.2537199" lon="16.7410962"><ele>1012.5</ele><time>2026-03-28T11:31:39.382Z</time></trkpt><trkpt lat="39.2536472" lon="16.7411244"><ele>1014.0</ele><time>2026-03-28T11:31:40.382Z</time></trkpt><trkpt lat="39.2535723" lon="16.741139"><ele>1014.0</ele><time>2026-03-28T11:31:41.382Z</time></trkpt><trkpt lat="39.2535021" lon="16.7411508"><ele>1014.0</ele><time>2026-03-28T11:31:42.382Z</time></trkpt><trkpt lat="39.2534373" lon="16.7411741"><ele>1014.0</ele><time>2026-03-28T11:31:43.382Z</time></trkpt><trkpt lat="39.2533252" lon="16.7412185"><ele>1014.0</ele><time>2026-03-28T11:31:45.383Z</time></trkpt><trkpt lat="39.2532611" lon="16.7412715"><ele>1014.0</ele><time>2026-03-28T11:31:47.382Z</time></trkpt><trkpt lat="39.2532625" lon="16.7413539"><ele>1014.0</ele><time>2026-03-28T11:31:49.383Z</time></trkpt><trkpt lat="39.2533322" lon="16.7414262"><ele>1014.0</ele><time>2026-03-28T11:31:51.382Z</time></trkpt><trkpt lat="39.253413" lon="16.7415289"><ele>1014.0</ele><time>2026-03-28T11:31:53.382Z</time></trkpt><trkpt lat="39.2534519" lon="16.7415929"><ele>1014.0</ele><time>2026-03-28T11:31:54.383Z</time></trkpt><trkpt lat="39.2534993" lon="16.7416533"><ele>1014.0</ele><time>2026-03-28T11:31:55.383Z</time></trkpt><trkpt lat="39.2535573" lon="16.7417125"><ele>1014.0</ele><time>2026-03-28T11:31:56.382Z</time></trkpt><trkpt lat="39.2536337" lon="16.741764"><ele>1014.0</ele><time>2026-03-28T11:31:57.382Z</time></trkpt><trkpt lat="39.2537228" lon="16.7418108"><ele>1014.0</ele><time>2026-03-28T11:31:58.382Z</time></trkpt><trkpt lat="39.2538057" lon="16.7418653"><ele>1014.0000000000001</ele><time>2026-03-28T11:31:59.382Z</time></trkpt><trkpt lat="39.2538824" lon="16.741931"><ele>1014.0000000000001</ele><time>2026-03-28T11:32:00.382Z</time></trkpt><trkpt lat="39.2539446" lon="16.7420227"><ele>1014.0</ele><time>2026-03-28T11:32:01.383Z</time></trkpt><trkpt lat="39.2540163" lon="16.7421178"><ele>1014.0</ele><time>2026-03-28T11:32:02.382Z</time></trkpt><trkpt lat="39.2540877" lon="16.7422152"><ele>1010.1666666666666</ele><time>2026-03-28T11:32:03.382Z</time></trkpt><trkpt lat="39.2541584" lon="16.7423052"><ele>1006.3333333333333</ele><time>2026-03-28T11:32:04.382Z</time></trkpt><trkpt lat="39.2542099" lon="16.7423847"><ele>1002.5</ele><time>2026-03-28T11:32:05.382Z</time></trkpt><trkpt lat="39.2542414" lon="16.7424724"><ele>998.6666666666666</ele><time>2026-03-28T11:32:06.382Z</time></trkpt><trkpt lat="39.2542433" lon="16.7425673"><ele>994.8333333333333</ele><time>2026-03-28T11:32:07.382Z</time></trkpt><trkpt lat="39.254223" lon="16.7426625"><ele>991.0</ele><time>2026-03-28T11:32:08.382Z</time></trkpt><trkpt lat="39.2541838" lon="16.742741"><ele>989.8</ele><time>2026-03-28T11:32:09.382Z</time></trkpt><trkpt lat="39.2541425" lon="16.7428057"><ele>988.5999999999999</ele><time>2026-03-28T11:32:10.382Z</time></trkpt><trkpt lat="39.2540892" lon="16.7429618"><ele>987.4</ele><time>2026-03-28T11:32:12.383Z</time></trkpt><trkpt lat="39.2540537" lon="16.7430539"><ele>986.2</ele><time>2026-03-28T11:32:13.382Z</time></trkpt><trkpt lat="39.2540171" lon="16.7431365"><ele>985.0</ele><time>2026-03-28T11:32:14.382Z</time></trkpt><trkpt lat="39.253971" lon="16.7432725"><ele>984.9999999999999</ele><time>2026-03-28T11:32:16.382Z</time></trkpt><trkpt lat="39.253941" lon="16.7433941"><ele>985.0</ele><time>2026-03-28T11:32:18.382Z</time></trkpt><trkpt lat="39.2539355" lon="16.7434797"><ele>985.0</ele><time>2026-03-28T11:32:21.382Z</time></trkpt><trkpt lat="39.2539861" lon="16.7435426"><ele>985.0</ele><time>2026-03-28T11:32:34.382Z</time></trkpt><trkpt lat="39.2540721" lon="16.7435943"><ele>984.9999999999999</ele><time>2026-03-28T11:32:41.382Z</time></trkpt><trkpt lat="39.2541304" lon="16.7436259"><ele>985.0</ele><time>2026-03-28T11:32:43.382Z</time></trkpt><trkpt lat="39.2542444" lon="16.7437399"><ele>983.9999999999999</ele><time>2026-03-28T11:32:58.382Z</time></trkpt><trkpt lat="39.2542443" lon="16.743848"><ele>983.0</ele><time>2026-03-28T11:33:00.382Z</time></trkpt><trkpt lat="39.2542472" lon="16.7439529"><ele>982.0</ele><time>2026-03-28T11:33:03.382Z</time></trkpt><trkpt lat="39.2542252" lon="16.7440557"><ele>981.0</ele><time>2026-03-28T11:33:07.382Z</time></trkpt><trkpt lat="39.2542315" lon="16.7441518"><ele>979.9999999999999</ele><time>2026-03-28T11:33:09.382Z</time></trkpt><trkpt lat="39.2542615" lon="16.7442656"><ele>979.0</ele><time>2026-03-28T11:33:11.382Z</time></trkpt><trkpt lat="39.2542773" lon="16.7443777"><ele>977.9999999999999</ele><time>2026-03-28T11:33:13.382Z</time></trkpt><trkpt lat="39.2543103" lon="16.7444615"><ele>977.0</ele><time>2026-03-28T11:33:16.382Z</time></trkpt><trkpt lat="39.2543851" lon="16.7444871"><ele>976.0</ele><time>2026-03-28T11:33:20.383Z</time></trkpt><trkpt lat="39.2544081" lon="16.7445741"><ele>975.0</ele><time>2026-03-28T11:33:23.382Z</time></trkpt><trkpt lat="39.2544465" lon="16.7446654"><ele>973.9999999999999</ele><time>2026-03-28T11:33:26.383Z</time></trkpt><trkpt lat="39.254519" lon="16.7447103"><ele>973.0</ele><time>2026-03-28T11:33:29.382Z</time></trkpt><trkpt lat="39.2545085" lon="16.7448077"><ele>973.0</ele><time>2026-03-28T11:33:38.382Z</time></trkpt><trkpt lat="39.2545197" lon="16.7449001"><ele>973.0</ele><time>2026-03-28T11:33:40.383Z</time></trkpt><trkpt lat="39.2545549" lon="16.7450377"><ele>973.0</ele><time>2026-03-28T11:33:42.382Z</time></trkpt><trkpt lat="39.2546055" lon="16.7451695"><ele>973.0</ele><time>2026-03-28T11:33:44.382Z</time></trkpt><trkpt lat="39.2547028" lon="16.745291"><ele>973.0</ele><time>2026-03-28T11:33:46.382Z</time></trkpt><trkpt lat="39.2547658" lon="16.7453476"><ele>973.8333333333333</ele><time>2026-03-28T11:33:47.382Z</time></trkpt><trkpt lat="39.2548295" lon="16.7454045"><ele>974.6666666666666</ele><time>2026-03-28T11:33:48.382Z</time></trkpt><trkpt lat="39.2549049" lon="16.7454665"><ele>975.5</ele><time>2026-03-28T11:33:49.382Z</time></trkpt><trkpt lat="39.2549779" lon="16.7455245"><ele>976.3333333333333</ele><time>2026-03-28T11:33:50.383Z</time></trkpt><trkpt lat="39.2550431" lon="16.7455778"><ele>977.1666666666666</ele><time>2026-03-28T11:33:51.382Z</time></trkpt><trkpt lat="39.2550996" lon="16.7456256"><ele>978.0</ele><time>2026-03-28T11:33:52.383Z</time></trkpt><trkpt lat="39.2551656" lon="16.745726"><ele>978.0</ele><time>2026-03-28T11:33:54.382Z</time></trkpt><trkpt lat="39.2551856" lon="16.7458549"><ele>978.0</ele><time>2026-03-28T11:33:56.382Z</time></trkpt><trkpt lat="39.2551519" lon="16.7460128"><ele>978.0</ele><time>2026-03-28T11:33:58.382Z</time></trkpt><trkpt lat="39.2551381" lon="16.7461088"><ele>978.0</ele><time>2026-03-28T11:33:59.382Z</time></trkpt><trkpt lat="39.2551292" lon="16.7462084"><ele>978.0</ele><time>2026-03-28T11:34:00.383Z</time></trkpt><trkpt lat="39.2551199" lon="16.7463028"><ele>977.8333333333334</ele><time>2026-03-28T11:34:01.382Z</time></trkpt><trkpt lat="39.2551137" lon="16.7463942"><ele>977.6666666666667</ele><time>2026-03-28T11:34:02.382Z</time></trkpt><trkpt lat="39.2550983" lon="16.7465264"><ele>977.5</ele><time>2026-03-28T11:34:04.382Z</time></trkpt><trkpt lat="39.2550869" lon="16.7466116"><ele>977.3333333333334</ele><time>2026-03-28T11:34:06.383Z</time></trkpt><trkpt lat="39.2550623" lon="16.7467139"><ele>977.1666666666667</ele><time>2026-03-28T11:34:16.382Z</time></trkpt><trkpt lat="39.2550658" lon="16.7468267"><ele>977.0</ele><time>2026-03-28T11:34:19.382Z</time></trkpt><trkpt lat="39.2550617" lon="16.7469127"><ele>977.0000000000001</ele><time>2026-03-28T11:34:22.382Z</time></trkpt><trkpt lat="39.2550558" lon="16.7470111"><ele>977.0</ele><time>2026-03-28T11:34:36.382Z</time></trkpt><trkpt lat="39.2550422" lon="16.7470968"><ele>977.0</ele><time>2026-03-28T11:34:39.382Z</time></trkpt><trkpt lat="39.2550091" lon="16.7471984"><ele>977.0</ele><time>2026-03-28T11:34:42.382Z</time></trkpt><trkpt lat="39.2549815" lon="16.7473172"><ele>977.0000000000001</ele><time>2026-03-28T11:34:44.382Z</time></trkpt><trkpt lat="39.2549769" lon="16.7473988"><ele>977.0</ele><time>2026-03-28T11:34:45.383Z</time></trkpt><trkpt lat="39.2549815" lon="16.7474859"><ele>977.0</ele><time>2026-03-28T11:34:46.383Z</time></trkpt><trkpt lat="39.2549936" lon="16.747593"><ele>977.0</ele><time>2026-03-28T11:34:47.382Z</time></trkpt><trkpt lat="39.2550098" lon="16.747729"><ele>977.0</ele><time>2026-03-28T11:34:48.382Z</time></trkpt><trkpt lat="39.2550194" lon="16.7478899"><ele>977.0</ele><time>2026-03-28T11:34:49.383Z</time></trkpt><trkpt lat="39.25504" lon="16.7480557"><ele>977.0</ele><time>2026-03-28T11:34:50.382Z</time></trkpt><trkpt lat="39.2550615" lon="16.7482246"><ele>977.2</ele><time>2026-03-28T11:34:51.382Z</time></trkpt><trkpt lat="39.255077" lon="16.7483843"><ele>977.4000000000001</ele><time>2026-03-28T11:34:52.382Z</time></trkpt><trkpt lat="39.255092" lon="16.7485145"><ele>977.5999999999999</ele><time>2026-03-28T11:34:53.382Z</time></trkpt><trkpt lat="39.2551041" lon="16.748615"><ele>977.8</ele><time>2026-03-28T11:34:54.382Z</time></trkpt><trkpt lat="39.2551151" lon="16.7487373"><ele>978.0</ele><time>2026-03-28T11:34:56.382Z</time></trkpt><trkpt lat="39.2551367" lon="16.7488556"><ele>978.0</ele><time>2026-03-28T11:34:58.382Z</time></trkpt><trkpt lat="39.2551633" lon="16.7489979"><ele>978.0</ele><time>2026-03-28T11:35:00.383Z</time></trkpt><trkpt lat="39.2551759" lon="16.7491379"><ele>978.0</ele><time>2026-03-28T11:35:02.382Z</time></trkpt><trkpt lat="39.2552404" lon="16.7492736"><ele>978.0</ele><time>2026-03-28T11:35:04.382Z</time></trkpt><trkpt lat="39.2553344" lon="16.7493922"><ele>978.5</ele><time>2026-03-28T11:35:06.382Z</time></trkpt><trkpt lat="39.255391" lon="16.7494594"><ele>979.0</ele><time>2026-03-28T11:35:07.382Z</time></trkpt><trkpt lat="39.2554442" lon="16.749537"><ele>979.5</ele><time>2026-03-28T11:35:08.383Z</time></trkpt><trkpt lat="39.2554867" lon="16.7496171"><ele>980.0</ele><time>2026-03-28T11:35:09.382Z</time></trkpt><trkpt lat="39.255525" lon="16.7496887"><ele>980.5</ele><time>2026-03-28T11:35:10.382Z</time></trkpt><trkpt lat="39.2555973" lon="16.7498"><ele>981.0</ele><time>2026-03-28T11:35:12.382Z</time></trkpt><trkpt lat="39.2556281" lon="16.7499239"><ele>981.0</ele><time>2026-03-28T11:35:14.383Z</time></trkpt><trkpt lat="39.2556083" lon="16.7500495"><ele>981.0</ele><time>2026-03-28T11:35:16.383Z</time></trkpt><trkpt lat="39.2555935" lon="16.7502072"><ele>981.0</ele><time>2026-03-28T11:35:18.382Z</time></trkpt><trkpt lat="39.2555937" lon="16.7502915"><ele>981.0</ele><time>2026-03-28T11:35:19.382Z</time></trkpt><trkpt lat="39.2555966" lon="16.7503823"><ele>981.0</ele><time>2026-03-28T11:35:20.382Z</time></trkpt><trkpt lat="39.2555959" lon="16.7504702"><ele>981.0</ele><time>2026-03-28T11:35:21.382Z</time></trkpt><trkpt lat="39.2555928" lon="16.7505578"><ele>980.8333333333334</ele><time>2026-03-28T11:35:22.382Z</time></trkpt><trkpt lat="39.2555875" lon="16.750644"><ele>980.6666666666667</ele><time>2026-03-28T11:35:23.382Z</time></trkpt><trkpt lat="39.2555938" lon="16.7508004"><ele>980.5</ele><time>2026-03-28T11:35:25.382Z</time></trkpt><trkpt lat="39.255613" lon="16.7508799"><ele>980.3333333333334</ele><time>2026-03-28T11:35:26.382Z</time></trkpt><trkpt lat="39.2556338" lon="16.7509572"><ele>980.1666666666667</ele><time>2026-03-28T11:35:27.382Z</time></trkpt><trkpt lat="39.2556516" lon="16.7510365"><ele>980.0</ele><time>2026-03-28T11:35:28.382Z</time></trkpt><trkpt lat="39.2556679" lon="16.7511924"><ele>979.3333333333334</ele><time>2026-03-28T11:35:30.383Z</time></trkpt><trkpt lat="39.2556764" lon="16.7513334"><ele>978.6666666666667</ele><time>2026-03-28T11:35:32.382Z</time></trkpt><trkpt lat="39.2556635" lon="16.7514373"><ele>978.0</ele><time>2026-03-28T11:35:34.383Z</time></trkpt><trkpt lat="39.2556151" lon="16.7515123"><ele>977.3333333333333</ele><time>2026-03-28T11:35:36.383Z</time></trkpt><trkpt lat="39.2555396" lon="16.7515649"><ele>976.6666666666666</ele><time>2026-03-28T11:35:38.382Z</time></trkpt><trkpt lat="39.2554826" lon="16.7516034"><ele>976.0</ele><time>2026-03-28T11:35:40.382Z</time></trkpt><trkpt lat="39.2554221" lon="16.7516352"><ele>975.9999999999999</ele><time>2026-03-28T11:35:49.382Z</time></trkpt><trkpt lat="39.2553648" lon="16.7516879"><ele>976.0</ele><time>2026-03-28T11:35:55.382Z</time></trkpt><trkpt lat="39.2553262" lon="16.7517585"><ele>975.9999999999999</ele><time>2026-03-28T11:36:00.382Z</time></trkpt><trkpt lat="39.2552516" lon="16.7517983"><ele>975.9999999999999</ele><time>2026-03-28T11:36:06.382Z</time></trkpt><trkpt lat="39.2551825" lon="16.7518363"><ele>976.0</ele><time>2026-03-28T11:36:09.382Z</time></trkpt><trkpt lat="39.255112" lon="16.7518738"><ele>975.9999999999999</ele><time>2026-03-28T11:36:15.383Z</time></trkpt><trkpt lat="39.2550522" lon="16.7519046"><ele>975.9999999999999</ele><time>2026-03-28T11:36:18.382Z</time></trkpt><trkpt lat="39.2549803" lon="16.7519306"><ele>974.8571428571427</ele><time>2026-03-28T11:36:22.382Z</time></trkpt><trkpt lat="39.2549217" lon="16.7519682"><ele>973.7142857142857</ele><time>2026-03-28T11:36:28.382Z</time></trkpt><trkpt lat="39.2548772" lon="16.7520278"><ele>972.5714285714284</ele><time>2026-03-28T11:36:33.382Z</time></trkpt><trkpt lat="39.2548824" lon="16.752113"><ele>971.4285714285713</ele><time>2026-03-28T11:36:38.382Z</time></trkpt><trkpt lat="39.2548846" lon="16.7522198"><ele>970.2857142857142</ele><time>2026-03-28T11:36:42.382Z</time></trkpt><trkpt lat="39.2548408" lon="16.7523179"><ele>969.1428571428571</ele><time>2026-03-28T11:36:45.382Z</time></trkpt><trkpt lat="39.2547851" lon="16.7523893"><ele>968.0</ele><time>2026-03-28T11:36:48.383Z</time></trkpt><trkpt lat="39.2547476" lon="16.7524801"><ele>964.8333333333334</ele><time>2026-03-28T11:36:51.382Z</time></trkpt><trkpt lat="39.2547288" lon="16.7525584"><ele>961.6666666666667</ele><time>2026-03-28T11:36:53.383Z</time></trkpt><trkpt lat="39.2546829" lon="16.7526289"><ele>958.5</ele><time>2026-03-28T11:36:56.383Z</time></trkpt><trkpt lat="39.254628" lon="16.75271"><ele>955.3333333333333</ele><time>2026-03-28T11:37:00.382Z</time></trkpt><trkpt lat="39.2545461" lon="16.7527505"><ele>952.1666666666666</ele><time>2026-03-28T11:37:03.382Z</time></trkpt><trkpt lat="39.2544592" lon="16.7527632"><ele>949.0</ele><time>2026-03-28T11:37:06.382Z</time></trkpt><trkpt lat="39.2543888" lon="16.7528029"><ele>947.6666666666666</ele><time>2026-03-28T11:37:09.382Z</time></trkpt><trkpt lat="39.2544118" lon="16.7529046"><ele>946.3333333333333</ele><time>2026-03-28T11:37:12.383Z</time></trkpt><trkpt lat="39.2544667" lon="16.753025"><ele>945.0</ele><time>2026-03-28T11:37:14.383Z</time></trkpt><trkpt lat="39.2545153" lon="16.7531439"><ele>943.6666666666667</ele><time>2026-03-28T11:37:16.383Z</time></trkpt><trkpt lat="39.2545089" lon="16.7532281"><ele>942.3333333333334</ele><time>2026-03-28T11:37:18.382Z</time></trkpt><trkpt lat="39.2544474" lon="16.7532462"><ele>941.0</ele><time>2026-03-28T11:37:20.382Z</time></trkpt><trkpt lat="39.2543728" lon="16.7531963"><ele>941.0000000000001</ele><time>2026-03-28T11:37:22.382Z</time></trkpt><trkpt lat="39.2542808" lon="16.7531151"><ele>941.0</ele><time>2026-03-28T11:37:24.382Z</time></trkpt><trkpt lat="39.2541974" lon="16.7530349"><ele>941.0</ele><time>2026-03-28T11:37:26.382Z</time></trkpt><trkpt lat="39.2541318" lon="16.7529735"><ele>941.0</ele><time>2026-03-28T11:37:28.382Z</time></trkpt><trkpt lat="39.2540766" lon="16.7529238"><ele>941.0000000000001</ele><time>2026-03-28T11:37:30.383Z</time></trkpt><trkpt lat="39.2540094" lon="16.7528828"><ele>941.0</ele><time>2026-03-28T11:37:32.382Z</time></trkpt><trkpt lat="39.2539471" lon="16.75285"><ele>939.0000000000001</ele><time>2026-03-28T11:37:34.383Z</time></trkpt><trkpt lat="39.2538695" lon="16.752849"><ele>937.0</ele><time>2026-03-28T11:37:36.382Z</time></trkpt><trkpt lat="39.2537873" lon="16.7528711"><ele>935.0</ele><time>2026-03-28T11:37:38.382Z</time></trkpt><trkpt lat="39.2537199" lon="16.7529018"><ele>933.0</ele><time>2026-03-28T11:37:40.382Z</time></trkpt><trkpt lat="39.2536321" lon="16.7529401"><ele>931.0000000000001</ele><time>2026-03-28T11:37:49.382Z</time></trkpt><trkpt lat="39.2535718" lon="16.7529833"><ele>929.0</ele><time>2026-03-28T11:37:52.383Z</time></trkpt><trkpt lat="39.2535196" lon="16.7530568"><ele>929.0</ele><time>2026-03-28T11:37:55.383Z</time></trkpt><trkpt lat="39.2534737" lon="16.7531223"><ele>929.0000000000001</ele><time>2026-03-28T11:37:57.382Z</time></trkpt><trkpt lat="39.2534867" lon="16.7532446"><ele>929.0000000000001</ele><time>2026-03-28T11:38:00.383Z</time></trkpt><trkpt lat="39.2535669" lon="16.7533672"><ele>929.0</ele><time>2026-03-28T11:38:02.382Z</time></trkpt><trkpt lat="39.2536115" lon="16.753449"><ele>929.0</ele><time>2026-03-28T11:38:03.382Z</time></trkpt><trkpt lat="39.2536585" lon="16.7535471"><ele>927.8333333333334</ele><time>2026-03-28T11:38:04.383Z</time></trkpt><trkpt lat="39.2536973" lon="16.753659"><ele>926.6666666666667</ele><time>2026-03-28T11:38:05.382Z</time></trkpt><trkpt lat="39.2537276" lon="16.7537704"><ele>925.5</ele><time>2026-03-28T11:38:06.382Z</time></trkpt><trkpt lat="39.2537498" lon="16.7538871"><ele>924.3333333333333</ele><time>2026-03-28T11:38:07.382Z</time></trkpt><trkpt lat="39.2537688" lon="16.7539935"><ele>923.1666666666666</ele><time>2026-03-28T11:38:08.382Z</time></trkpt><trkpt lat="39.2537849" lon="16.7540986"><ele>922.0</ele><time>2026-03-28T11:38:09.382Z</time></trkpt><trkpt lat="39.253798" lon="16.7541919"><ele>922.0</ele><time>2026-03-28T11:38:10.382Z</time></trkpt><trkpt lat="39.2537982" lon="16.7542804"><ele>922.0000000000001</ele><time>2026-03-28T11:38:11.382Z</time></trkpt><trkpt lat="39.2537907" lon="16.7543651"><ele>922.0</ele><time>2026-03-28T11:38:12.382Z</time></trkpt><trkpt lat="39.2537761" lon="16.7544513"><ele>922.0</ele><time>2026-03-28T11:38:13.382Z</time></trkpt><trkpt lat="39.2537626" lon="16.7545332"><ele>922.0000000000001</ele><time>2026-03-28T11:38:14.382Z</time></trkpt><trkpt lat="39.2537433" lon="16.7546739"><ele>922.0</ele><time>2026-03-28T11:38:16.383Z</time></trkpt><trkpt lat="39.2537404" lon="16.7547636"><ele>922.0</ele><time>2026-03-28T11:38:19.383Z</time></trkpt><trkpt lat="39.2537382" lon="16.7548616"><ele>921.0</ele><time>2026-03-28T11:38:26.382Z</time></trkpt><trkpt lat="39.2537395" lon="16.7549474"><ele>920.0000000000001</ele><time>2026-03-28T11:38:30.383Z</time></trkpt><trkpt lat="39.2537444" lon="16.755037"><ele>919.0</ele><time>2026-03-28T11:38:33.383Z</time></trkpt><trkpt lat="39.253702" lon="16.755133"><ele>918.0</ele><time>2026-03-28T11:38:36.382Z</time></trkpt><trkpt lat="39.2536715" lon="16.7552113"><ele>917.0000000000001</ele><time>2026-03-28T11:38:39.382Z</time></trkpt><trkpt lat="39.2536494" lon="16.7552895"><ele>916.0</ele><time>2026-03-28T11:38:44.383Z</time></trkpt><trkpt lat="39.2536173" lon="16.7553626"><ele>915.0</ele><time>2026-03-28T11:38:48.382Z</time></trkpt><trkpt lat="39.2535897" lon="16.7554525"><ele>913.4285714285714</ele><time>2026-03-28T11:38:53.383Z</time></trkpt><trkpt lat="39.2535733" lon="16.7555326"><ele>911.8571428571429</ele><time>2026-03-28T11:38:59.382Z</time></trkpt><trkpt lat="39.2535021" lon="16.755527"><ele>910.2857142857143</ele><time>2026-03-28T11:39:09.382Z</time></trkpt><trkpt lat="39.2534316" lon="16.7555117"><ele>908.7142857142858</ele><time>2026-03-28T11:39:14.382Z</time></trkpt><trkpt lat="39.2533467" lon="16.7554851"><ele>907.1428571428571</ele><time>2026-03-28T11:39:19.382Z</time></trkpt><trkpt lat="39.2532828" lon="16.7555271"><ele>905.5714285714287</ele><time>2026-03-28T11:39:21.382Z</time></trkpt><trkpt lat="39.2532408" lon="16.7555889"><ele>904.0</ele><time>2026-03-28T11:39:24.382Z</time></trkpt><trkpt lat="39.2531598" lon="16.7557035"><ele>903.4285714285714</ele><time>2026-03-28T11:39:32.382Z</time></trkpt><trkpt lat="39.2531117" lon="16.7557581"><ele>902.8571428571429</ele><time>2026-03-28T11:39:33.382Z</time></trkpt><trkpt lat="39.2530558" lon="16.7557992"><ele>902.2857142857143</ele><time>2026-03-28T11:39:34.382Z</time></trkpt><trkpt lat="39.2529827" lon="16.7558418"><ele>901.7142857142858</ele><time>2026-03-28T11:39:36.382Z</time></trkpt><trkpt lat="39.2529174" lon="16.7558305"><ele>901.1428571428571</ele><time>2026-03-28T11:39:43.382Z</time></trkpt><trkpt lat="39.252846" lon="16.7557955"><ele>900.5714285714287</ele><time>2026-03-28T11:39:47.382Z</time></trkpt><trkpt lat="39.2527798" lon="16.7557988"><ele>900.0000000000001</ele><time>2026-03-28T11:39:51.383Z</time></trkpt><trkpt lat="39.2527258" lon="16.7558508"><ele>900.0</ele><time>2026-03-28T11:39:54.382Z</time></trkpt><trkpt lat="39.2526613" lon="16.75594"><ele>900.0</ele><time>2026-03-28T11:39:57.382Z</time></trkpt><trkpt lat="39.2526119" lon="16.7560295"><ele>900.0</ele><time>2026-03-28T11:39:59.382Z</time></trkpt><trkpt lat="39.2525641" lon="16.7561502"><ele>900.0</ele><time>2026-03-28T11:40:01.382Z</time></trkpt><trkpt lat="39.2525302" lon="16.7562767"><ele>900.0</ele><time>2026-03-28T11:40:03.382Z</time></trkpt><trkpt lat="39.2525377" lon="16.7563887"><ele>899.2</ele><time>2026-03-28T11:40:05.382Z</time></trkpt><trkpt lat="39.2525858" lon="16.756511"><ele>898.4</ele><time>2026-03-28T11:40:07.383Z</time></trkpt><trkpt lat="39.2526136" lon="16.7565842"><ele>897.5999999999999</ele><time>2026-03-28T11:40:08.382Z</time></trkpt><trkpt lat="39.2526689" lon="16.7567168"><ele>896.8</ele><time>2026-03-28T11:40:10.382Z</time></trkpt><trkpt lat="39.2526982" lon="16.7568397"><ele>896.0</ele><time>2026-03-28T11:40:12.382Z</time></trkpt><trkpt lat="39.2527174" lon="16.7569755"><ele>895.1666666666667</ele><time>2026-03-28T11:40:14.382Z</time></trkpt><trkpt lat="39.2527138" lon="16.7571068"><ele>894.3333333333334</ele><time>2026-03-28T11:40:16.382Z</time></trkpt><trkpt lat="39.2526907" lon="16.7572272"><ele>893.5</ele><time>2026-03-28T11:40:18.382Z</time></trkpt><trkpt lat="39.2526505" lon="16.7573119"><ele>892.6666666666667</ele><time>2026-03-28T11:40:20.382Z</time></trkpt><trkpt lat="39.2525989" lon="16.7573815"><ele>891.8333333333334</ele><time>2026-03-28T11:40:22.383Z</time></trkpt><trkpt lat="39.252541" lon="16.7574338"><ele>891.0</ele><time>2026-03-28T11:40:24.382Z</time></trkpt><trkpt lat="39.2524749" lon="16.7574721"><ele>891.0</ele><time>2026-03-28T11:40:26.382Z</time></trkpt><trkpt lat="39.2524073" lon="16.7575169"><ele>891.0</ele><time>2026-03-28T11:40:28.382Z</time></trkpt><trkpt lat="39.252323" lon="16.757562"><ele>891.0</ele><time>2026-03-28T11:40:31.382Z</time></trkpt><trkpt lat="39.2522513" lon="16.7576306"><ele>891.0</ele><time>2026-03-28T11:40:34.383Z</time></trkpt><trkpt lat="39.252177" lon="16.7576912"><ele>891.0</ele><time>2026-03-28T11:40:37.382Z</time></trkpt><trkpt lat="39.2521192" lon="16.7577534"><ele>891.0</ele><time>2026-03-28T11:40:40.382Z</time></trkpt><trkpt lat="39.2520677" lon="16.7578526"><ele>889.8333333333334</ele><time>2026-03-28T11:40:43.382Z</time></trkpt><trkpt lat="39.2520252" lon="16.7579179"><ele>888.6666666666667</ele><time>2026-03-28T11:40:45.382Z</time></trkpt><trkpt lat="39.2519474" lon="16.757993"><ele>887.5</ele><time>2026-03-28T11:40:48.383Z</time></trkpt><trkpt lat="39.2518774" lon="16.7580397"><ele>886.3333333333334</ele><time>2026-03-28T11:40:50.382Z</time></trkpt><trkpt lat="39.2518298" lon="16.758115"><ele>885.1666666666667</ele><time>2026-03-28T11:40:52.382Z</time></trkpt><trkpt lat="39.2517936" lon="16.7582297"><ele>884.0</ele><time>2026-03-28T11:40:54.382Z</time></trkpt><trkpt lat="39.2517394" lon="16.7583452"><ele>884.0000000000001</ele><time>2026-03-28T11:40:56.383Z</time></trkpt><trkpt lat="39.2516834" lon="16.7584513"><ele>884.0</ele><time>2026-03-28T11:40:58.382Z</time></trkpt><trkpt lat="39.2516391" lon="16.758553"><ele>884.0</ele><time>2026-03-28T11:41:00.383Z</time></trkpt><trkpt lat="39.251602" lon="16.7586411"><ele>884.0</ele><time>2026-03-28T11:41:02.383Z</time></trkpt><trkpt lat="39.2515884" lon="16.7587501"><ele>884.0000000000001</ele><time>2026-03-28T11:41:04.382Z</time></trkpt><trkpt lat="39.2515915" lon="16.7588317"><ele>884.0</ele><time>2026-03-28T11:41:06.382Z</time></trkpt><trkpt lat="39.2515684" lon="16.7589228"><ele>882.8333333333334</ele><time>2026-03-28T11:41:09.382Z</time></trkpt><trkpt lat="39.2515304" lon="16.7589907"><ele>881.6666666666667</ele><time>2026-03-28T11:41:12.382Z</time></trkpt><trkpt lat="39.2514892" lon="16.7590822"><ele>880.5</ele><time>2026-03-28T11:41:15.382Z</time></trkpt><trkpt lat="39.2514538" lon="16.7591673"><ele>879.3333333333333</ele><time>2026-03-28T11:41:17.382Z</time></trkpt><trkpt lat="39.2514043" lon="16.7592582"><ele>878.1666666666666</ele><time>2026-03-28T11:41:19.382Z</time></trkpt><trkpt lat="39.251349" lon="16.7593445"><ele>877.0</ele><time>2026-03-28T11:41:21.382Z</time></trkpt><trkpt lat="39.2512889" lon="16.7594012"><ele>875.4285714285714</ele><time>2026-03-28T11:41:23.382Z</time></trkpt><trkpt lat="39.2512425" lon="16.7594808"><ele>873.8571428571429</ele><time>2026-03-28T11:41:32.382Z</time></trkpt><trkpt lat="39.2511832" lon="16.7595658"><ele>872.2857142857142</ele><time>2026-03-28T11:41:35.382Z</time></trkpt><trkpt lat="39.2511343" lon="16.7596194"><ele>870.7142857142858</ele><time>2026-03-28T11:41:37.383Z</time></trkpt><trkpt lat="39.2510947" lon="16.7596833"><ele>869.1428571428571</ele><time>2026-03-28T11:41:39.382Z</time></trkpt><trkpt lat="39.2510582" lon="16.7597646"><ele>867.5714285714286</ele><time>2026-03-28T11:41:42.382Z</time></trkpt><trkpt lat="39.2510252" lon="16.7598346"><ele>866.0</ele><time>2026-03-28T11:41:46.382Z</time></trkpt><trkpt lat="39.2509958" lon="16.7599178"><ele>865.9999999999999</ele><time>2026-03-28T11:41:50.382Z</time></trkpt><trkpt lat="39.2509616" lon="16.7600075"><ele>866.0</ele><time>2026-03-28T11:41:54.382Z</time></trkpt><trkpt lat="39.2509312" lon="16.7600822"><ele>866.0</ele><time>2026-03-28T11:41:57.382Z</time></trkpt><trkpt lat="39.2509133" lon="16.7601675"><ele>866.0</ele><time>2026-03-28T11:42:02.382Z</time></trkpt><trkpt lat="39.2508827" lon="16.7602486"><ele>866.0</ele><time>2026-03-28T11:42:07.382Z</time></trkpt><trkpt lat="39.2508589" lon="16.7603325"><ele>865.9999999999999</ele><time>2026-03-28T11:42:11.383Z</time></trkpt><trkpt lat="39.2508148" lon="16.7604189"><ele>866.0</ele><time>2026-03-28T11:42:15.382Z</time></trkpt><trkpt lat="39.2507465" lon="16.7604958"><ele>864.0000000000001</ele><time>2026-03-28T11:42:18.383Z</time></trkpt><trkpt lat="39.2506674" lon="16.7605322"><ele>862.0</ele><time>2026-03-28T11:42:20.383Z</time></trkpt><trkpt lat="39.2505919" lon="16.7605654"><ele>860.0</ele><time>2026-03-28T11:42:23.383Z</time></trkpt><trkpt lat="39.2505181" lon="16.7605753"><ele>858.0</ele><time>2026-03-28T11:42:37.383Z</time></trkpt><trkpt lat="39.2504429" lon="16.7605864"><ele>856.0000000000001</ele><time>2026-03-28T11:42:41.383Z</time></trkpt><trkpt lat="39.2503898" lon="16.7606474"><ele>854.0</ele><time>2026-03-28T11:42:46.383Z</time></trkpt><trkpt lat="39.2503411" lon="16.7607401"><ele>852.6666666666667</ele><time>2026-03-28T11:42:51.383Z</time></trkpt><trkpt lat="39.2503269" lon="16.7608205"><ele>851.3333333333334</ele><time>2026-03-28T11:42:54.383Z</time></trkpt><trkpt lat="39.2503397" lon="16.7609247"><ele>850.0</ele><time>2026-03-28T11:42:58.384Z</time></trkpt><trkpt lat="39.2503655" lon="16.7610416"><ele>848.6666666666667</ele><time>2026-03-28T11:43:01.383Z</time></trkpt><trkpt lat="39.2503758" lon="16.7611604"><ele>847.3333333333334</ele><time>2026-03-28T11:43:03.383Z</time></trkpt><trkpt lat="39.250361" lon="16.7612776"><ele>846.0</ele><time>2026-03-28T11:43:05.383Z</time></trkpt><trkpt lat="39.2503429" lon="16.7613721"><ele>844.3333333333334</ele><time>2026-03-28T11:43:07.383Z</time></trkpt><trkpt lat="39.2503378" lon="16.7614672"><ele>842.6666666666667</ele><time>2026-03-28T11:43:09.384Z</time></trkpt><trkpt lat="39.2503309" lon="16.761576"><ele>841.0</ele><time>2026-03-28T11:43:12.383Z</time></trkpt><trkpt lat="39.2503536" lon="16.7616886"><ele>839.3333333333334</ele><time>2026-03-28T11:43:15.383Z</time></trkpt><trkpt lat="39.2503549" lon="16.7617952"><ele>837.6666666666667</ele><time>2026-03-28T11:43:18.384Z</time></trkpt><trkpt lat="39.2503497" lon="16.7619096"><ele>836.0</ele><time>2026-03-28T11:43:21.383Z</time></trkpt><trkpt lat="39.2503318" lon="16.7619933"><ele>834.5714285714286</ele><time>2026-03-28T11:43:23.383Z</time></trkpt><trkpt lat="39.2502913" lon="16.7620681"><ele>833.1428571428571</ele><time>2026-03-28T11:43:25.384Z</time></trkpt><trkpt lat="39.2502539" lon="16.7621473"><ele>831.7142857142858</ele><time>2026-03-28T11:43:27.383Z</time></trkpt><trkpt lat="39.2502373" lon="16.7622502"><ele>830.2857142857142</ele><time>2026-03-28T11:43:30.383Z</time></trkpt><trkpt lat="39.250214" lon="16.7623384"><ele>828.8571428571429</ele><time>2026-03-28T11:43:36.383Z</time></trkpt><trkpt lat="39.2501774" lon="16.7624109"><ele>827.4285714285714</ele><time>2026-03-28T11:43:40.383Z</time></trkpt><trkpt lat="39.2501332" lon="16.7624789"><ele>826.0</ele><time>2026-03-28T11:43:43.383Z</time></trkpt><trkpt lat="39.2501261" lon="16.7625736"><ele>826.0</ele><time>2026-03-28T11:43:46.383Z</time></trkpt><trkpt lat="39.2501275" lon="16.762678"><ele>826.0</ele><time>2026-03-28T11:43:48.383Z</time></trkpt><trkpt lat="39.2501375" lon="16.7627919"><ele>826.0</ele><time>2026-03-28T11:43:50.383Z</time></trkpt><trkpt lat="39.250145" lon="16.7628948"><ele>826.0</ele><time>2026-03-28T11:43:52.383Z</time></trkpt><trkpt lat="39.2500895" lon="16.7629824"><ele>826.0</ele><time>2026-03-28T11:43:54.383Z</time></trkpt><trkpt lat="39.249983" lon="16.7630678"><ele>824.4999999999999</ele><time>2026-03-28T11:43:56.383Z</time></trkpt><trkpt lat="39.2499267" lon="16.7631145"><ele>823.0</ele><time>2026-03-28T11:43:57.383Z</time></trkpt><trkpt lat="39.2498311" lon="16.7632028"><ele>821.5</ele><time>2026-03-28T11:43:59.383Z</time></trkpt><trkpt lat="39.249767" lon="16.763259"><ele>820.0</ele><time>2026-03-28T11:44:01.383Z</time></trkpt><trkpt lat="39.2497075" lon="16.7632909"><ele>818.4999999999999</ele><time>2026-03-28T11:44:04.383Z</time></trkpt><trkpt lat="39.2496502" lon="16.7633282"><ele>817.0</ele><time>2026-03-28T11:44:07.383Z</time></trkpt><trkpt lat="39.2495866" lon="16.7633671"><ele>816.9999999999999</ele><time>2026-03-28T11:44:10.383Z</time></trkpt><trkpt lat="39.249529" lon="16.7634061"><ele>817.0</ele><time>2026-03-28T11:44:13.384Z</time></trkpt><trkpt lat="39.2494617" lon="16.7634287"><ele>817.0</ele><time>2026-03-28T11:44:17.383Z</time></trkpt><trkpt lat="39.2493747" lon="16.7634558"><ele>817.0</ele><time>2026-03-28T11:44:20.383Z</time></trkpt><trkpt lat="39.2492625" lon="16.7634968"><ele>816.9999999999999</ele><time>2026-03-28T11:44:22.383Z</time></trkpt><trkpt lat="39.249193" lon="16.7635401"><ele>817.0</ele><time>2026-03-28T11:44:23.383Z</time></trkpt><trkpt lat="39.2491191" lon="16.7636055"><ele>815.6</ele><time>2026-03-28T11:44:24.383Z</time></trkpt><trkpt lat="39.2490481" lon="16.7636977"><ele>814.2</ele><time>2026-03-28T11:44:25.383Z</time></trkpt><trkpt lat="39.2489859" lon="16.7638187"><ele>812.8</ele><time>2026-03-28T11:44:26.383Z</time></trkpt><trkpt lat="39.2489333" lon="16.7639493"><ele>811.4</ele><time>2026-03-28T11:44:27.383Z</time></trkpt><trkpt lat="39.2489149" lon="16.7640777"><ele>810.0</ele><time>2026-03-28T11:44:28.383Z</time></trkpt><trkpt lat="39.2489175" lon="16.7641965"><ele>810.0</ele><time>2026-03-28T11:44:29.383Z</time></trkpt><trkpt lat="39.248942" lon="16.7643037"><ele>810.0</ele><time>2026-03-28T11:44:30.384Z</time></trkpt><trkpt lat="39.2489692" lon="16.7644082"><ele>810.0</ele><time>2026-03-28T11:44:31.383Z</time></trkpt><trkpt lat="39.2489873" lon="16.7645286"><ele>810.0</ele><time>2026-03-28T11:44:32.384Z</time></trkpt><trkpt lat="39.2489827" lon="16.7646434"><ele>810.0</ele><time>2026-03-28T11:44:33.383Z</time></trkpt><trkpt lat="39.2489471" lon="16.7647541"><ele>810.0</ele><time>2026-03-28T11:44:34.383Z</time></trkpt><trkpt lat="39.2488816" lon="16.7648439"><ele>807.8</ele><time>2026-03-28T11:44:35.383Z</time></trkpt><trkpt lat="39.2487992" lon="16.7649039"><ele>805.6</ele><time>2026-03-28T11:44:36.383Z</time></trkpt><trkpt lat="39.2487059" lon="16.7649199"><ele>803.4000000000001</ele><time>2026-03-28T11:44:37.384Z</time></trkpt><trkpt lat="39.2486078" lon="16.7648932"><ele>801.2</ele><time>2026-03-28T11:44:38.383Z</time></trkpt><trkpt lat="39.2485194" lon="16.764838"><ele>799.0</ele><time>2026-03-28T11:44:39.383Z</time></trkpt><trkpt lat="39.2484458" lon="16.7647798"><ele>798.9999999999999</ele><time>2026-03-28T11:44:40.384Z</time></trkpt><trkpt lat="39.2483837" lon="16.7647278"><ele>799.0</ele><time>2026-03-28T11:44:41.383Z</time></trkpt><trkpt lat="39.2483305" lon="16.7646825"><ele>799.0</ele><time>2026-03-28T11:44:42.384Z</time></trkpt><trkpt lat="39.2482302" lon="16.764641"><ele>799.0</ele><time>2026-03-28T11:44:44.384Z</time></trkpt><trkpt lat="39.2481107" lon="16.7646379"><ele>798.9999999999999</ele><time>2026-03-28T11:44:46.384Z</time></trkpt><trkpt lat="39.2480353" lon="16.7646528"><ele>799.0</ele><time>2026-03-28T11:44:47.383Z</time></trkpt><trkpt lat="39.2479533" lon="16.7646761"><ele>798.6666666666666</ele><time>2026-03-28T11:44:48.383Z</time></trkpt><trkpt lat="39.2478655" lon="16.7647084"><ele>798.3333333333333</ele><time>2026-03-28T11:44:49.383Z</time></trkpt><trkpt lat="39.2477796" lon="16.7647408"><ele>798.0</ele><time>2026-03-28T11:44:50.383Z</time></trkpt><trkpt lat="39.2476986" lon="16.7647653"><ele>797.6666666666667</ele><time>2026-03-28T11:44:51.384Z</time></trkpt><trkpt lat="39.2476226" lon="16.7647921"><ele>797.3333333333334</ele><time>2026-03-28T11:44:52.383Z</time></trkpt><trkpt lat="39.2475411" lon="16.7648271"><ele>797.0</ele><time>2026-03-28T11:44:53.383Z</time></trkpt><trkpt lat="39.2474607" lon="16.7648611"><ele>797.0000000000001</ele><time>2026-03-28T11:44:54.383Z</time></trkpt><trkpt lat="39.247382" lon="16.7648972"><ele>797.0</ele><time>2026-03-28T11:44:55.383Z</time></trkpt><trkpt lat="39.2473079" lon="16.7649409"><ele>797.0</ele><time>2026-03-28T11:44:56.383Z</time></trkpt><trkpt lat="39.247241" lon="16.7650028"><ele>797.0</ele><time>2026-03-28T11:44:57.383Z</time></trkpt><trkpt lat="39.2471818" lon="16.7650753"><ele>797.0000000000001</ele><time>2026-03-28T11:44:58.383Z</time></trkpt><trkpt lat="39.2471298" lon="16.7651534"><ele>797.0</ele><time>2026-03-28T11:44:59.383Z</time></trkpt><trkpt lat="39.2470808" lon="16.7652515"><ele>796.0</ele><time>2026-03-28T11:45:00.383Z</time></trkpt><trkpt lat="39.2470373" lon="16.7653585"><ele>795.0</ele><time>2026-03-28T11:45:01.383Z</time></trkpt><trkpt lat="39.2470054" lon="16.7654799"><ele>794.0</ele><time>2026-03-28T11:45:02.383Z</time></trkpt><trkpt lat="39.2469822" lon="16.765616"><ele>793.0</ele><time>2026-03-28T11:45:03.383Z</time></trkpt><trkpt lat="39.2469714" lon="16.7657434"><ele>792.0</ele><time>2026-03-28T11:45:04.383Z</time></trkpt><trkpt lat="39.2469615" lon="16.7658608"><ele>792.0</ele><time>2026-03-28T11:45:05.383Z</time></trkpt><trkpt lat="39.2469498" lon="16.765971"><ele>792.0</ele><time>2026-03-28T11:45:06.383Z</time></trkpt><trkpt lat="39.2469204" lon="16.7660799"><ele>792.0</ele><time>2026-03-28T11:45:07.383Z</time></trkpt><trkpt lat="39.2468715" lon="16.7661785"><ele>792.0</ele><time>2026-03-28T11:45:08.383Z</time></trkpt><trkpt lat="39.2468045" lon="16.7662676"><ele>792.0</ele><time>2026-03-28T11:45:09.383Z</time></trkpt><trkpt lat="39.2467196" lon="16.7663498"><ele>790.6</ele><time>2026-03-28T11:45:10.383Z</time></trkpt><trkpt lat="39.2466226" lon="16.7664155"><ele>789.2</ele><time>2026-03-28T11:45:11.383Z</time></trkpt><trkpt lat="39.2465251" lon="16.7664743"><ele>787.8</ele><time>2026-03-28T11:45:12.384Z</time></trkpt><trkpt lat="39.2464313" lon="16.7665392"><ele>786.4</ele><time>2026-03-28T11:45:13.383Z</time></trkpt><trkpt lat="39.246352" lon="16.7666248"><ele>785.0</ele><time>2026-03-28T11:45:14.383Z</time></trkpt><trkpt lat="39.2462907" lon="16.7667356"><ele>781.0</ele><time>2026-03-28T11:45:15.384Z</time></trkpt><trkpt lat="39.2462438" lon="16.7668661"><ele>777.0</ele><time>2026-03-28T11:45:16.383Z</time></trkpt><trkpt lat="39.246207" lon="16.7670151"><ele>773.0</ele><time>2026-03-28T11:45:17.383Z</time></trkpt><trkpt lat="39.2461768" lon="16.7671696"><ele>769.0</ele><time>2026-03-28T11:45:18.384Z</time></trkpt><trkpt lat="39.2461529" lon="16.7673247"><ele>769.0</ele><time>2026-03-28T11:45:19.383Z</time></trkpt><trkpt lat="39.2461287" lon="16.7674722"><ele>769.0</ele><time>2026-03-28T11:45:20.384Z</time></trkpt><trkpt lat="39.2461104" lon="16.7676132"><ele>769.0</ele><time>2026-03-28T11:45:21.383Z</time></trkpt><trkpt lat="39.2461074" lon="16.7677425"><ele>769.0</ele><time>2026-03-28T11:45:22.384Z</time></trkpt><trkpt lat="39.2461342" lon="16.7678521"><ele>769.0</ele><time>2026-03-28T11:45:23.383Z</time></trkpt><trkpt lat="39.2461846" lon="16.7679367"><ele>768.8333333333333</ele><time>2026-03-28T11:45:24.383Z</time></trkpt><trkpt lat="39.2462413" lon="16.7679946"><ele>768.6666666666666</ele><time>2026-03-28T11:45:25.383Z</time></trkpt><trkpt lat="39.2463049" lon="16.7680145"><ele>768.5</ele><time>2026-03-28T11:45:26.383Z</time></trkpt><trkpt lat="39.2464231" lon="16.7679661"><ele>768.3333333333333</ele><time>2026-03-28T11:45:28.383Z</time></trkpt><trkpt lat="39.2464841" lon="16.7679023"><ele>768.1666666666666</ele><time>2026-03-28T11:45:29.383Z</time></trkpt><trkpt lat="39.2465435" lon="16.7678237"><ele>768.0</ele><time>2026-03-28T11:45:30.383Z</time></trkpt><trkpt lat="39.2466049" lon="16.7677247"><ele>770.2</ele><time>2026-03-28T11:45:31.384Z</time></trkpt><trkpt lat="39.2466658" lon="16.767621"><ele>772.4</ele><time>2026-03-28T11:45:32.383Z</time></trkpt><trkpt lat="39.2467275" lon="16.7675276"><ele>774.6</ele><time>2026-03-28T11:45:33.383Z</time></trkpt><trkpt lat="39.2467893" lon="16.7674506"><ele>776.8000000000001</ele><time>2026-03-28T11:45:34.383Z</time></trkpt><trkpt lat="39.2468478" lon="16.7674063"><ele>779.0</ele><time>2026-03-28T11:45:35.384Z</time></trkpt><trkpt lat="39.2469672" lon="16.7673872"><ele>779.0000000000001</ele><time>2026-03-28T11:45:37.384Z</time></trkpt><trkpt lat="39.2470291" lon="16.7674216"><ele>779.0</ele><time>2026-03-28T11:45:38.384Z</time></trkpt><trkpt lat="39.2470808" lon="16.7674887"><ele>779.0</ele><time>2026-03-28T11:45:39.383Z</time></trkpt><trkpt lat="39.247113" lon="16.7675879"><ele>779.0</ele><time>2026-03-28T11:45:40.383Z</time></trkpt><trkpt lat="39.2471245" lon="16.7677128"><ele>779.0000000000001</ele><time>2026-03-28T11:45:41.383Z</time></trkpt><trkpt lat="39.2471201" lon="16.7678629"><ele>779.0</ele><time>2026-03-28T11:45:42.383Z</time></trkpt><trkpt lat="39.2470874" lon="16.7680724"><ele>775.3333333333334</ele><time>2026-03-28T11:45:43.383Z</time></trkpt><trkpt lat="39.2470515" lon="16.7682895"><ele>771.6666666666667</ele><time>2026-03-28T11:45:44.384Z</time></trkpt><trkpt lat="39.2470213" lon="16.7684932"><ele>768.0</ele><time>2026-03-28T11:45:45.384Z</time></trkpt><trkpt lat="39.2469936" lon="16.7686849"><ele>765.25</ele><time>2026-03-28T11:45:46.383Z</time></trkpt><trkpt lat="39.2469502" lon="16.7688651"><ele>762.5</ele><time>2026-03-28T11:45:47.384Z</time></trkpt><trkpt lat="39.2468978" lon="16.7690188"><ele>759.75</ele><time>2026-03-28T11:45:48.384Z</time></trkpt><trkpt lat="39.2468428" lon="16.7691515"><ele>757.0</ele><time>2026-03-28T11:45:49.383Z</time></trkpt><trkpt lat="39.2467944" lon="16.7692751"><ele>755.0</ele><time>2026-03-28T11:45:50.383Z</time></trkpt><trkpt lat="39.246758" lon="16.7693885"><ele>753.0</ele><time>2026-03-28T11:45:51.383Z</time></trkpt><trkpt lat="39.2467487" lon="16.769485"><ele>751.0</ele><time>2026-03-28T11:45:52.383Z</time></trkpt><trkpt lat="39.2467639" lon="16.7695721"><ele>749.0</ele><time>2026-03-28T11:45:53.384Z</time></trkpt><trkpt lat="39.2467967" lon="16.769642"><ele>747.0</ele><time>2026-03-28T11:45:54.383Z</time></trkpt><trkpt lat="39.2469097" lon="16.769705"><ele>745.0</ele><time>2026-03-28T11:45:56.383Z</time></trkpt><trkpt lat="39.2470004" lon="16.7696899"><ele>745.0</ele><time>2026-03-28T11:45:57.383Z</time></trkpt><trkpt lat="39.2471021" lon="16.7696929"><ele>745.0</ele><time>2026-03-28T11:45:58.383Z</time></trkpt><trkpt lat="39.2472001" lon="16.7697313"><ele>745.0</ele><time>2026-03-28T11:45:59.384Z</time></trkpt><trkpt lat="39.2472937" lon="16.7697979"><ele>745.0</ele><time>2026-03-28T11:46:00.383Z</time></trkpt><trkpt lat="39.2473702" lon="16.7698786"><ele>745.0</ele><time>2026-03-28T11:46:01.383Z</time></trkpt><trkpt lat="39.2474586" lon="16.7699441"><ele>747.6</ele><time>2026-03-28T11:46:02.383Z</time></trkpt><trkpt lat="39.2475493" lon="16.76997"><ele>750.2</ele><time>2026-03-28T11:46:03.383Z</time></trkpt><trkpt lat="39.2476313" lon="16.7699581"><ele>752.8</ele><time>2026-03-28T11:46:04.383Z</time></trkpt><trkpt lat="39.247714" lon="16.7699164"><ele>755.4</ele><time>2026-03-28T11:46:05.383Z</time></trkpt><trkpt lat="39.2478003" lon="16.7698624"><ele>758.0</ele><time>2026-03-28T11:46:06.383Z</time></trkpt><trkpt lat="39.2478982" lon="16.7697868"><ele>758.0</ele><time>2026-03-28T11:46:07.383Z</time></trkpt><trkpt lat="39.247987" lon="16.7696972"><ele>758.0</ele><time>2026-03-28T11:46:08.383Z</time></trkpt><trkpt lat="39.2480595" lon="16.7696039"><ele>758.0</ele><time>2026-03-28T11:46:09.383Z</time></trkpt><trkpt lat="39.2481259" lon="16.7695057"><ele>758.0</ele><time>2026-03-28T11:46:10.383Z</time></trkpt><trkpt lat="39.2481885" lon="16.7694042"><ele>758.0</ele><time>2026-03-28T11:46:11.383Z</time></trkpt><trkpt lat="39.2482405" lon="16.7693104"><ele>757.6666666666666</ele><time>2026-03-28T11:46:12.384Z</time></trkpt><trkpt lat="39.2482955" lon="16.7692329"><ele>757.3333333333333</ele><time>2026-03-28T11:46:13.383Z</time></trkpt><trkpt lat="39.2483571" lon="16.7691777"><ele>757.0</ele><time>2026-03-28T11:46:14.384Z</time></trkpt><trkpt lat="39.2484239" lon="16.769149"><ele>756.6666666666666</ele><time>2026-03-28T11:46:15.383Z</time></trkpt><trkpt lat="39.2484988" lon="16.7691551"><ele>756.3333333333334</ele><time>2026-03-28T11:46:16.384Z</time></trkpt><trkpt lat="39.2485636" lon="16.7691977"><ele>756.0</ele><time>2026-03-28T11:46:17.384Z</time></trkpt><trkpt lat="39.2486117" lon="16.7692752"><ele>754.5999999999999</ele><time>2026-03-28T11:46:18.384Z</time></trkpt><trkpt lat="39.2486427" lon="16.7693862"><ele>753.2</ele><time>2026-03-28T11:46:19.383Z</time></trkpt><trkpt lat="39.2486512" lon="16.769534"><ele>751.8</ele><time>2026-03-28T11:46:20.383Z</time></trkpt><trkpt lat="39.2486674" lon="16.7696745"><ele>750.4000000000001</ele><time>2026-03-28T11:46:21.384Z</time></trkpt><trkpt lat="39.248698" lon="16.7697909"><ele>749.0</ele><time>2026-03-28T11:46:22.383Z</time></trkpt><trkpt lat="39.2487522" lon="16.7698888"><ele>749.0</ele><time>2026-03-28T11:46:23.384Z</time></trkpt><trkpt lat="39.2488286" lon="16.7699668"><ele>749.0</ele><time>2026-03-28T11:46:24.383Z</time></trkpt><trkpt lat="39.2489151" lon="16.7700171"><ele>749.0</ele><time>2026-03-28T11:46:25.383Z</time></trkpt><trkpt lat="39.249009" lon="16.7700428"><ele>749.0</ele><time>2026-03-28T11:46:26.383Z</time></trkpt><trkpt lat="39.2491018" lon="16.7700744"><ele>749.0</ele><time>2026-03-28T11:46:27.383Z</time></trkpt><trkpt lat="39.2491877" lon="16.770119"><ele>748.6666666666666</ele><time>2026-03-28T11:46:28.383Z</time></trkpt><trkpt lat="39.2492577" lon="16.7701711"><ele>748.3333333333333</ele><time>2026-03-28T11:46:29.383Z</time></trkpt><trkpt lat="39.2493415" lon="16.7702593"><ele>748.0</ele><time>2026-03-28T11:46:31.384Z</time></trkpt><trkpt lat="39.2493831" lon="16.7703259"><ele>747.6666666666666</ele><time>2026-03-28T11:46:33.383Z</time></trkpt><trkpt lat="39.2494269" lon="16.7703881"><ele>747.3333333333334</ele><time>2026-03-28T11:46:37.383Z</time></trkpt><trkpt lat="39.2494568" lon="16.7704676"><ele>747.0</ele><time>2026-03-28T11:46:43.384Z</time></trkpt><trkpt lat="39.2494449" lon="16.7705688"><ele>744.6</ele><time>2026-03-28T11:46:47.383Z</time></trkpt><trkpt lat="39.2494364" lon="16.7706619"><ele>742.2</ele><time>2026-03-28T11:46:49.383Z</time></trkpt><trkpt lat="39.2494257" lon="16.7707799"><ele>739.8</ele><time>2026-03-28T11:46:51.383Z</time></trkpt><trkpt lat="39.2494231" lon="16.7709177"><ele>737.4</ele><time>2026-03-28T11:46:53.383Z</time></trkpt><trkpt lat="39.2494368" lon="16.7710779"><ele>735.0</ele><time>2026-03-28T11:46:55.384Z</time></trkpt><trkpt lat="39.2494402" lon="16.771163"><ele>733.6</ele><time>2026-03-28T11:46:56.383Z</time></trkpt><trkpt lat="39.2494218" lon="16.7713261"><ele>732.2</ele><time>2026-03-28T11:46:58.383Z</time></trkpt><trkpt lat="39.2494069" lon="16.7714108"><ele>730.8</ele><time>2026-03-28T11:46:59.383Z</time></trkpt><trkpt lat="39.2493952" lon="16.771493"><ele>729.4</ele><time>2026-03-28T11:47:00.383Z</time></trkpt><trkpt lat="39.2493747" lon="16.7716386"><ele>728.0</ele><time>2026-03-28T11:47:02.383Z</time></trkpt><trkpt lat="39.2493641" lon="16.7717781"><ele>727.4</ele><time>2026-03-28T11:47:04.383Z</time></trkpt><trkpt lat="39.249353" lon="16.7719252"><ele>726.8</ele><time>2026-03-28T11:47:06.383Z</time></trkpt><trkpt lat="39.249339" lon="16.7720691"><ele>726.2</ele><time>2026-03-28T11:47:08.383Z</time></trkpt><trkpt lat="39.2493167" lon="16.7722249"><ele>725.6</ele><time>2026-03-28T11:47:10.383Z</time></trkpt><trkpt lat="39.2493073" lon="16.7723122"><ele>725.0</ele><time>2026-03-28T11:47:11.383Z</time></trkpt><trkpt lat="39.2492979" lon="16.7724032"><ele>725.0</ele><time>2026-03-28T11:47:12.383Z</time></trkpt><trkpt lat="39.2492869" lon="16.7724947"><ele>725.0</ele><time>2026-03-28T11:47:13.383Z</time></trkpt><trkpt lat="39.2492755" lon="16.7725806"><ele>725.0</ele><time>2026-03-28T11:47:14.383Z</time></trkpt><trkpt lat="39.2492584" lon="16.7727186"><ele>725.0</ele><time>2026-03-28T11:47:16.383Z</time></trkpt><trkpt lat="39.2492364" lon="16.7728417"><ele>725.0</ele><time>2026-03-28T11:47:18.383Z</time></trkpt><trkpt lat="39.2492092" lon="16.7729432"><ele>725.0</ele><time>2026-03-28T11:47:20.383Z</time></trkpt><trkpt lat="39.2491827" lon="16.7730232"><ele>725.0</ele><time>2026-03-28T11:47:24.383Z</time></trkpt><trkpt lat="39.2491452" lon="16.7731181"><ele>725.0</ele><time>2026-03-28T11:47:28.383Z</time></trkpt><trkpt lat="39.2491129" lon="16.7732199"><ele>725.0</ele><time>2026-03-28T11:47:31.383Z</time></trkpt><trkpt lat="39.2490858" lon="16.7733174"><ele>725.0</ele><time>2026-03-28T11:47:33.384Z</time></trkpt><trkpt lat="39.2490567" lon="16.7734579"><ele>725.0</ele><time>2026-03-28T11:47:35.383Z</time></trkpt><trkpt lat="39.2490273" lon="16.7735358"><ele>725.0</ele><time>2026-03-28T11:47:36.383Z</time></trkpt><trkpt lat="39.2489821" lon="16.7736198"><ele>724.75</ele><time>2026-03-28T11:47:37.383Z</time></trkpt><trkpt lat="39.2489262" lon="16.7737215"><ele>724.5</ele><time>2026-03-28T11:47:38.383Z</time></trkpt><trkpt lat="39.2488544" lon="16.7738441"><ele>724.25</ele><time>2026-03-28T11:47:39.383Z</time></trkpt><trkpt lat="39.2487705" lon="16.7739875"><ele>724.0</ele><time>2026-03-28T11:47:40.383Z</time></trkpt><trkpt lat="39.2486654" lon="16.7741484"><ele>724.0</ele><time>2026-03-28T11:47:41.383Z</time></trkpt><trkpt lat="39.2485604" lon="16.7743091"><ele>724.0</ele><time>2026-03-28T11:47:42.383Z</time></trkpt><trkpt lat="39.2484524" lon="16.7744733"><ele>724.0</ele><time>2026-03-28T11:47:43.383Z</time></trkpt><trkpt lat="39.2483493" lon="16.7746281"><ele>721.0</ele><time>2026-03-28T11:47:44.383Z</time></trkpt><trkpt lat="39.2482436" lon="16.7747844"><ele>718.0</ele><time>2026-03-28T11:47:45.383Z</time></trkpt><trkpt lat="39.248137" lon="16.7749298"><ele>715.0</ele><time>2026-03-28T11:47:46.383Z</time></trkpt><trkpt lat="39.2480375" lon="16.7750728"><ele>712.25</ele><time>2026-03-28T11:47:47.383Z</time></trkpt><trkpt lat="39.2479355" lon="16.7752174"><ele>709.5</ele><time>2026-03-28T11:47:48.383Z</time></trkpt><trkpt lat="39.2478393" lon="16.7753517"><ele>706.75</ele><time>2026-03-28T11:47:49.383Z</time></trkpt><trkpt lat="39.2477436" lon="16.7754854"><ele>704.0</ele><time>2026-03-28T11:47:50.384Z</time></trkpt><trkpt lat="39.247649" lon="16.775628"><ele>704.0</ele><time>2026-03-28T11:47:51.383Z</time></trkpt><trkpt lat="39.2475619" lon="16.775773"><ele>704.0</ele><time>2026-03-28T11:47:52.384Z</time></trkpt><trkpt lat="39.2474793" lon="16.7759131"><ele>704.0</ele><time>2026-03-28T11:47:53.383Z</time></trkpt><trkpt lat="39.2473942" lon="16.7760601"><ele>704.0</ele><time>2026-03-28T11:47:54.383Z</time></trkpt><trkpt lat="39.2473235" lon="16.7761953"><ele>699.8000000000001</ele><time>2026-03-28T11:47:55.383Z</time></trkpt><trkpt lat="39.2472597" lon="16.7763323"><ele>695.6</ele><time>2026-03-28T11:47:56.383Z</time></trkpt><trkpt lat="39.2472048" lon="16.7764694"><ele>691.4</ele><time>2026-03-28T11:47:57.383Z</time></trkpt><trkpt lat="39.247166" lon="16.7765924"><ele>687.2</ele><time>2026-03-28T11:47:58.383Z</time></trkpt><trkpt lat="39.2471361" lon="16.776688"><ele>683.0</ele><time>2026-03-28T11:47:59.383Z</time></trkpt><trkpt lat="39.2470858" lon="16.7768134"><ele>683.4</ele><time>2026-03-28T11:48:01.383Z</time></trkpt><trkpt lat="39.2470101" lon="16.7768895"><ele>683.8</ele><time>2026-03-28T11:48:03.383Z</time></trkpt><trkpt lat="39.2469394" lon="16.7769309"><ele>684.2</ele><time>2026-03-28T11:48:04.383Z</time></trkpt><trkpt lat="39.2468417" lon="16.7769767"><ele>684.6</ele><time>2026-03-28T11:48:05.384Z</time></trkpt><trkpt lat="39.2467239" lon="16.7770372"><ele>685.0</ele><time>2026-03-28T11:48:06.383Z</time></trkpt><trkpt lat="39.2465919" lon="16.7770941"><ele>683.0</ele><time>2026-03-28T11:48:07.383Z</time></trkpt><trkpt lat="39.2464583" lon="16.7771595"><ele>681.0</ele><time>2026-03-28T11:48:08.383Z</time></trkpt><trkpt lat="39.2463469" lon="16.7772402"><ele>679.0</ele><time>2026-03-28T11:48:09.383Z</time></trkpt><trkpt lat="39.2462558" lon="16.7773544"><ele>677.0</ele><time>2026-03-28T11:48:10.384Z</time></trkpt><trkpt lat="39.2461833" lon="16.7775256"><ele>676.0</ele><time>2026-03-28T11:48:11.383Z</time></trkpt><trkpt lat="39.2461145" lon="16.7777392"><ele>675.0</ele><time>2026-03-28T11:48:12.384Z</time></trkpt><trkpt lat="39.246049" lon="16.777986"><ele>674.0</ele><time>2026-03-28T11:48:13.384Z</time></trkpt><trkpt lat="39.2459829" lon="16.7782548"><ele>673.3333333333333</ele><time>2026-03-28T11:48:14.383Z</time></trkpt><trkpt lat="39.2459128" lon="16.778529"><ele>672.6666666666666</ele><time>2026-03-28T11:48:15.383Z</time></trkpt><trkpt lat="39.2458467" lon="16.7787876"><ele>672.0</ele><time>2026-03-28T11:48:16.384Z</time></trkpt><trkpt lat="39.2457799" lon="16.7790253"><ele>672.0</ele><time>2026-03-28T11:48:17.383Z</time></trkpt><trkpt lat="39.2457118" lon="16.7792507"><ele>672.0</ele><time>2026-03-28T11:48:18.383Z</time></trkpt><trkpt lat="39.2456474" lon="16.7794614"><ele>672.0</ele><time>2026-03-28T11:48:19.383Z</time></trkpt><trkpt lat="39.2455894" lon="16.7796826"><ele>670.25</ele><time>2026-03-28T11:48:20.383Z</time></trkpt><trkpt lat="39.2455337" lon="16.7798872"><ele>668.5</ele><time>2026-03-28T11:48:21.383Z</time></trkpt><trkpt lat="39.245484" lon="16.7800724"><ele>666.75</ele><time>2026-03-28T11:48:22.383Z</time></trkpt><trkpt lat="39.2454501" lon="16.7802279"><ele>665.0</ele><time>2026-03-28T11:48:23.383Z</time></trkpt><trkpt lat="39.2454153" lon="16.7803663"><ele>665.0</ele><time>2026-03-28T11:48:24.384Z</time></trkpt><trkpt lat="39.2453738" lon="16.7804998"><ele>665.0</ele><time>2026-03-28T11:48:25.383Z</time></trkpt><trkpt lat="39.2453323" lon="16.7806271"><ele>665.0</ele><time>2026-03-28T11:48:26.383Z</time></trkpt><trkpt lat="39.2452893" lon="16.7807504"><ele>665.0</ele><time>2026-03-28T11:48:27.383Z</time></trkpt><trkpt lat="39.2452426" lon="16.7808628"><ele>665.0</ele><time>2026-03-28T11:48:28.384Z</time></trkpt><trkpt lat="39.2451974" lon="16.7809785"><ele>664.2</ele><time>2026-03-28T11:48:29.383Z</time></trkpt><trkpt lat="39.2451552" lon="16.7811019"><ele>663.4</ele><time>2026-03-28T11:48:30.383Z</time></trkpt><trkpt lat="39.2451151" lon="16.7812191"><ele>662.5999999999999</ele><time>2026-03-28T11:48:31.383Z</time></trkpt><trkpt lat="39.2450756" lon="16.7813384"><ele>661.8</ele><time>2026-03-28T11:48:32.383Z</time></trkpt><trkpt lat="39.2450306" lon="16.7814569"><ele>661.0</ele><time>2026-03-28T11:48:33.383Z</time></trkpt><trkpt lat="39.2449744" lon="16.7815739"><ele>661.0</ele><time>2026-03-28T11:48:34.383Z</time></trkpt><trkpt lat="39.2449045" lon="16.78168"><ele>661.0</ele><time>2026-03-28T11:48:35.383Z</time></trkpt><trkpt lat="39.2448192" lon="16.7817951"><ele>661.0</ele><time>2026-03-28T11:48:36.384Z</time></trkpt><trkpt lat="39.2447326" lon="16.7819205"><ele>661.0</ele><time>2026-03-28T11:48:37.383Z</time></trkpt><trkpt lat="39.2446535" lon="16.7820478"><ele>658.5</ele><time>2026-03-28T11:48:38.383Z</time></trkpt><trkpt lat="39.24458" lon="16.7821736"><ele>656.0</ele><time>2026-03-28T11:48:39.383Z</time></trkpt><trkpt lat="39.2445036" lon="16.7822936"><ele>653.5</ele><time>2026-03-28T11:48:40.383Z</time></trkpt><trkpt lat="39.2444347" lon="16.7824189"><ele>651.0</ele><time>2026-03-28T11:48:41.383Z</time></trkpt><trkpt lat="39.2443697" lon="16.7825436"><ele>651.0</ele><time>2026-03-28T11:48:42.383Z</time></trkpt><trkpt lat="39.2443099" lon="16.7826568"><ele>651.0</ele><time>2026-03-28T11:48:43.383Z</time></trkpt><trkpt lat="39.2442535" lon="16.7827655"><ele>651.0</ele><time>2026-03-28T11:48:44.383Z</time></trkpt><trkpt lat="39.2442024" lon="16.7828689"><ele>651.0</ele><time>2026-03-28T11:48:45.383Z</time></trkpt><trkpt lat="39.2441541" lon="16.7829646"><ele>651.0</ele><time>2026-03-28T11:48:46.384Z</time></trkpt><trkpt lat="39.2441054" lon="16.7830558"><ele>650.5</ele><time>2026-03-28T11:48:47.383Z</time></trkpt><trkpt lat="39.2440598" lon="16.7831364"><ele>650.0</ele><time>2026-03-28T11:48:48.383Z</time></trkpt><trkpt lat="39.2440135" lon="16.783212"><ele>649.5</ele><time>2026-03-28T11:48:49.383Z</time></trkpt><trkpt lat="39.2439657" lon="16.7832826"><ele>649.0</ele><time>2026-03-28T11:48:50.384Z</time></trkpt><trkpt lat="39.2439227" lon="16.7833477"><ele>648.5</ele><time>2026-03-28T11:48:51.383Z</time></trkpt><trkpt lat="39.2438734" lon="16.7834658"><ele>648.0</ele><time>2026-03-28T11:48:53.383Z</time></trkpt><trkpt lat="39.2438278" lon="16.7835663"><ele>646.0</ele><time>2026-03-28T11:48:55.384Z</time></trkpt><trkpt lat="39.243767" lon="16.783702"><ele>644.0</ele><time>2026-03-28T11:48:57.383Z</time></trkpt><trkpt lat="39.2437265" lon="16.7837761"><ele>642.0</ele><time>2026-03-28T11:48:58.383Z</time></trkpt><trkpt lat="39.2436873" lon="16.7838509"><ele>640.0</ele><time>2026-03-28T11:48:59.383Z</time></trkpt><trkpt lat="39.2436336" lon="16.7839152"><ele>638.0</ele><time>2026-03-28T11:49:00.383Z</time></trkpt><trkpt lat="39.2435645" lon="16.7839645"><ele>636.0</ele><time>2026-03-28T11:49:01.383Z</time></trkpt><trkpt lat="39.2434763" lon="16.7840256"><ele>636.0</ele><time>2026-03-28T11:49:02.383Z</time></trkpt><trkpt lat="39.2433834" lon="16.7840975"><ele>636.0</ele><time>2026-03-28T11:49:03.383Z</time></trkpt><trkpt lat="39.2432997" lon="16.7841934"><ele>636.0</ele><time>2026-03-28T11:49:04.384Z</time></trkpt><trkpt lat="39.2432408" lon="16.7843107"><ele>636.0</ele><time>2026-03-28T11:49:05.383Z</time></trkpt><trkpt lat="39.2431922" lon="16.784425"><ele>636.0</ele><time>2026-03-28T11:49:06.383Z</time></trkpt><trkpt lat="39.2431601" lon="16.7845425"><ele>635.0</ele><time>2026-03-28T11:49:07.384Z</time></trkpt><trkpt lat="39.2431306" lon="16.7846618"><ele>634.0</ele><time>2026-03-28T11:49:08.383Z</time></trkpt><trkpt lat="39.2431044" lon="16.7847858"><ele>633.0</ele><time>2026-03-28T11:49:09.383Z</time></trkpt><trkpt lat="39.243065" lon="16.7849158"><ele>632.0</ele><time>2026-03-28T11:49:10.384Z</time></trkpt><trkpt lat="39.2430343" lon="16.7850564"><ele>631.0</ele><time>2026-03-28T11:49:11.384Z</time></trkpt><trkpt lat="39.2429985" lon="16.785185"><ele>630.6666666666667</ele><time>2026-03-28T11:49:12.383Z</time></trkpt><trkpt lat="39.242969" lon="16.7852955"><ele>630.3333333333334</ele><time>2026-03-28T11:49:13.383Z</time></trkpt><trkpt lat="39.2429545" lon="16.7853856"><ele>630.0</ele><time>2026-03-28T11:49:14.384Z</time></trkpt><trkpt lat="39.2429478" lon="16.7854744"><ele>629.6666666666666</ele><time>2026-03-28T11:49:15.383Z</time></trkpt><trkpt lat="39.242941" lon="16.7855681"><ele>629.3333333333333</ele><time>2026-03-28T11:49:16.383Z</time></trkpt><trkpt lat="39.2429282" lon="16.7856718"><ele>629.0</ele><time>2026-03-28T11:49:17.383Z</time></trkpt><trkpt lat="39.2429106" lon="16.78579"><ele>629.0</ele><time>2026-03-28T11:49:18.383Z</time></trkpt><trkpt lat="39.242871" lon="16.7859153"><ele>629.0</ele><time>2026-03-28T11:49:19.384Z</time></trkpt><trkpt lat="39.2428411" lon="16.786031"><ele>629.0</ele><time>2026-03-28T11:49:20.384Z</time></trkpt><trkpt lat="39.2428133" lon="16.7861426"><ele>629.0</ele><time>2026-03-28T11:49:21.383Z</time></trkpt><trkpt lat="39.2427888" lon="16.7862564"><ele>629.0</ele><time>2026-03-28T11:49:22.383Z</time></trkpt><trkpt lat="39.2427625" lon="16.7863816"><ele>628.4</ele><time>2026-03-28T11:49:23.383Z</time></trkpt><trkpt lat="39.2427356" lon="16.7865202"><ele>627.8</ele><time>2026-03-28T11:49:24.383Z</time></trkpt><trkpt lat="39.2427059" lon="16.7866557"><ele>627.2</ele><time>2026-03-28T11:49:25.383Z</time></trkpt><trkpt lat="39.2426755" lon="16.7867953"><ele>626.6</ele><time>2026-03-28T11:49:26.383Z</time></trkpt><trkpt lat="39.2426512" lon="16.7869411"><ele>626.0</ele><time>2026-03-28T11:49:27.383Z</time></trkpt><trkpt lat="39.2426206" lon="16.7870833"><ele>624.6</ele><time>2026-03-28T11:49:28.383Z</time></trkpt><trkpt lat="39.2425864" lon="16.78722"><ele>623.2</ele><time>2026-03-28T11:49:29.383Z</time></trkpt><trkpt lat="39.2425707" lon="16.7873429"><ele>621.8</ele><time>2026-03-28T11:49:30.383Z</time></trkpt><trkpt lat="39.2425598" lon="16.7874637"><ele>620.4</ele><time>2026-03-28T11:49:31.384Z</time></trkpt><trkpt lat="39.2425471" lon="16.7875829"><ele>619.0</ele><time>2026-03-28T11:49:32.383Z</time></trkpt><trkpt lat="39.2425167" lon="16.7877205"><ele>616.6666666666667</ele><time>2026-03-28T11:49:33.383Z</time></trkpt><trkpt lat="39.2424618" lon="16.7878971"><ele>614.3333333333334</ele><time>2026-03-28T11:49:34.383Z</time></trkpt><trkpt lat="39.2423933" lon="16.788089"><ele>612.0</ele><time>2026-03-28T11:49:35.383Z</time></trkpt><trkpt lat="39.2423118" lon="16.7882924"><ele>612.25</ele><time>2026-03-28T11:49:36.383Z</time></trkpt><trkpt lat="39.242237" lon="16.7884751"><ele>612.5</ele><time>2026-03-28T11:49:37.383Z</time></trkpt><trkpt lat="39.2421673" lon="16.7886464"><ele>612.75</ele><time>2026-03-28T11:49:38.383Z</time></trkpt><trkpt lat="39.2421094" lon="16.7887974"><ele>613.0</ele><time>2026-03-28T11:49:39.383Z</time></trkpt><trkpt lat="39.2420514" lon="16.7889391"><ele>611.5</ele><time>2026-03-28T11:49:40.383Z</time></trkpt><trkpt lat="39.2419836" lon="16.7890785"><ele>610.0</ele><time>2026-03-28T11:49:41.384Z</time></trkpt><trkpt lat="39.2419016" lon="16.7892052"><ele>608.5</ele><time>2026-03-28T11:49:42.384Z</time></trkpt><trkpt lat="39.241818" lon="16.789326"><ele>607.0</ele><time>2026-03-28T11:49:43.383Z</time></trkpt><trkpt lat="39.241741" lon="16.7894338"><ele>605.1666666666667</ele><time>2026-03-28T11:49:44.383Z</time></trkpt><trkpt lat="39.2416711" lon="16.7895183"><ele>603.3333333333334</ele><time>2026-03-28T11:49:45.383Z</time></trkpt><trkpt lat="39.2416127" lon="16.7895842"><ele>601.5</ele><time>2026-03-28T11:49:46.383Z</time></trkpt><trkpt lat="39.241568" lon="16.7896417"><ele>599.6666666666666</ele><time>2026-03-28T11:49:47.383Z</time></trkpt><trkpt lat="39.2414898" lon="16.7897403"><ele>597.8333333333333</ele><time>2026-03-28T11:49:49.383Z</time></trkpt><trkpt lat="39.2414278" lon="16.7898191"><ele>596.0</ele><time>2026-03-28T11:49:51.383Z</time></trkpt><trkpt lat="39.2413841" lon="16.7898793"><ele>594.5</ele><time>2026-03-28T11:49:54.383Z</time></trkpt><trkpt lat="39.2413373" lon="16.7899385"><ele>593.0</ele><time>2026-03-28T11:49:59.383Z</time></trkpt><trkpt lat="39.241274" lon="16.7899872"><ele>591.5</ele><time>2026-03-28T11:50:02.383Z</time></trkpt><trkpt lat="39.2411937" lon="16.7900163"><ele>590.0</ele><time>2026-03-28T11:50:06.383Z</time></trkpt><trkpt lat="39.2411357" lon="16.7900653"><ele>588.5</ele><time>2026-03-28T11:50:08.384Z</time></trkpt><trkpt lat="39.2410494" lon="16.7901278"><ele>587.0</ele><time>2026-03-28T11:50:10.383Z</time></trkpt><trkpt lat="39.2409615" lon="16.7902332"><ele>586.4</ele><time>2026-03-28T11:50:12.383Z</time></trkpt><trkpt lat="39.2409146" lon="16.7903585"><ele>585.8000000000001</ele><time>2026-03-28T11:50:14.383Z</time></trkpt><trkpt lat="39.2408939" lon="16.7904815"><ele>585.2</ele><time>2026-03-28T11:50:16.383Z</time></trkpt><trkpt lat="39.2408675" lon="16.7906104"><ele>584.6</ele><time>2026-03-28T11:50:18.383Z</time></trkpt><trkpt lat="39.2408259" lon="16.7906953"><ele>584.0</ele><time>2026-03-28T11:50:20.383Z</time></trkpt><trkpt lat="39.2407813" lon="16.790791"><ele>584.0</ele><time>2026-03-28T11:50:23.384Z</time></trkpt><trkpt lat="39.240743" lon="16.7908948"><ele>584.0</ele><time>2026-03-28T11:50:26.383Z</time></trkpt><trkpt lat="39.2407272" lon="16.7909973"><ele>584.0</ele><time>2026-03-28T11:50:28.383Z</time></trkpt><trkpt lat="39.2407089" lon="16.7910905"><ele>584.0</ele><time>2026-03-28T11:50:30.384Z</time></trkpt><trkpt lat="39.2406896" lon="16.7911905"><ele>584.0</ele><time>2026-03-28T11:50:32.384Z</time></trkpt><trkpt lat="39.2406713" lon="16.7913316"><ele>584.0</ele><time>2026-03-28T11:50:34.383Z</time></trkpt><trkpt lat="39.2406567" lon="16.7914133"><ele>582.6666666666666</ele><time>2026-03-28T11:50:35.383Z</time></trkpt><trkpt lat="39.2406353" lon="16.7914915"><ele>581.3333333333333</ele><time>2026-03-28T11:50:36.383Z</time></trkpt><trkpt lat="39.240578" lon="16.7916259"><ele>580.0</ele><time>2026-03-28T11:50:38.383Z</time></trkpt><trkpt lat="39.2405396" lon="16.7916987"><ele>578.6666666666666</ele><time>2026-03-28T11:50:39.383Z</time></trkpt><trkpt lat="39.2405036" lon="16.7917665"><ele>577.3333333333334</ele><time>2026-03-28T11:50:40.383Z</time></trkpt><trkpt lat="39.2404573" lon="16.7918652"><ele>576.0</ele><time>2026-03-28T11:50:42.383Z</time></trkpt><trkpt lat="39.2404328" lon="16.7919506"><ele>574.8</ele><time>2026-03-28T11:50:44.383Z</time></trkpt><trkpt lat="39.2403919" lon="16.7920257"><ele>573.6</ele><time>2026-03-28T11:50:46.383Z</time></trkpt><trkpt lat="39.2403374" lon="16.7920994"><ele>572.4</ele><time>2026-03-28T11:50:48.383Z</time></trkpt><trkpt lat="39.2402595" lon="16.7921842"><ele>571.2</ele><time>2026-03-28T11:50:50.383Z</time></trkpt><trkpt lat="39.2401724" lon="16.7922927"><ele>570.0</ele><time>2026-03-28T11:50:52.384Z</time></trkpt><trkpt lat="39.2400819" lon="16.7923722"><ele>570.0</ele><time>2026-03-28T11:50:54.383Z</time></trkpt><trkpt lat="39.240001" lon="16.7924414"><ele>570.0</ele><time>2026-03-28T11:50:56.384Z</time></trkpt><trkpt lat="39.2399436" lon="16.7924975"><ele>570.0</ele><time>2026-03-28T11:50:58.383Z</time></trkpt><trkpt lat="39.2398708" lon="16.7925788"><ele>570.0</ele><time>2026-03-28T11:51:01.383Z</time></trkpt><trkpt lat="39.2398242" lon="16.7926686"><ele>570.0</ele><time>2026-03-28T11:51:03.383Z</time></trkpt><trkpt lat="39.2397718" lon="16.7927737"><ele>570.0</ele><time>2026-03-28T11:51:05.383Z</time></trkpt><trkpt lat="39.2397198" lon="16.792823"><ele>566.0</ele><time>2026-03-28T11:51:07.384Z</time></trkpt><trkpt lat="39.2396553" lon="16.7928581"><ele>562.0</ele><time>2026-03-28T11:51:11.383Z</time></trkpt><trkpt lat="39.2395969" lon="16.7929103"><ele>558.0</ele><time>2026-03-28T11:51:15.383Z</time></trkpt><trkpt lat="39.2395733" lon="16.7929914"><ele>554.0</ele><time>2026-03-28T11:51:18.383Z</time></trkpt><trkpt lat="39.2395743" lon="16.7930807"><ele>550.0</ele><time>2026-03-28T11:51:20.384Z</time></trkpt><trkpt lat="39.2395299" lon="16.7931937"><ele>546.0</ele><time>2026-03-28T11:51:22.384Z</time></trkpt><trkpt lat="39.2394887" lon="16.7933114"><ele>546.0</ele><time>2026-03-28T11:51:24.384Z</time></trkpt><trkpt lat="39.2394862" lon="16.7934447"><ele>546.0</ele><time>2026-03-28T11:51:26.383Z</time></trkpt><trkpt lat="39.2395" lon="16.7935958"><ele>546.0</ele><time>2026-03-28T11:51:28.384Z</time></trkpt><trkpt lat="39.2395016" lon="16.7936813"><ele>546.0</ele><time>2026-03-28T11:51:29.383Z</time></trkpt><trkpt lat="39.2394965" lon="16.7937707"><ele>546.0</ele><time>2026-03-28T11:51:30.383Z</time></trkpt><trkpt lat="39.2394808" lon="16.7938554"><ele>546.0</ele><time>2026-03-28T11:51:31.384Z</time></trkpt><trkpt lat="39.23945" lon="16.7939867"><ele>546.1666666666666</ele><time>2026-03-28T11:51:33.383Z</time></trkpt><trkpt lat="39.2394955" lon="16.7940825"><ele>546.3333333333334</ele><time>2026-03-28T11:51:36.383Z</time></trkpt><trkpt lat="39.2395513" lon="16.7941249"><ele>546.5</ele><time>2026-03-28T11:51:38.383Z</time></trkpt><trkpt lat="39.2396143" lon="16.7941372"><ele>546.6666666666667</ele><time>2026-03-28T11:51:40.384Z</time></trkpt><trkpt lat="39.2396998" lon="16.7941246"><ele>546.8333333333334</ele><time>2026-03-28T11:51:43.383Z</time></trkpt><trkpt lat="39.2397865" lon="16.7941039"><ele>547.0</ele><time>2026-03-28T11:51:46.383Z</time></trkpt><trkpt lat="39.2398558" lon="16.794041"><ele>547.0</ele><time>2026-03-28T11:51:49.384Z</time></trkpt><trkpt lat="39.2399377" lon="16.7940746"><ele>547.0</ele><time>2026-03-28T11:51:52.383Z</time></trkpt><trkpt lat="39.2399198" lon="16.7941735"><ele>547.0</ele><time>2026-03-28T11:51:55.384Z</time></trkpt><trkpt lat="39.2399003" lon="16.794261"><ele>547.0</ele><time>2026-03-28T11:51:57.384Z</time></trkpt><trkpt lat="39.2398794" lon="16.794375"><ele>547.0</ele><time>2026-03-28T11:52:00.383Z</time></trkpt><trkpt lat="39.2398556" lon="16.7944874"><ele>547.0</ele><time>2026-03-28T11:52:03.383Z</time></trkpt><trkpt lat="39.2398353" lon="16.7945727"><ele>544.1666666666667</ele><time>2026-03-28T11:52:05.383Z</time></trkpt><trkpt lat="39.2398222" lon="16.7946531"><ele>541.3333333333334</ele><time>2026-03-28T11:52:07.383Z</time></trkpt><trkpt lat="39.2398053" lon="16.7947606"><ele>538.5</ele><time>2026-03-28T11:52:09.383Z</time></trkpt><trkpt lat="39.2398004" lon="16.7948968"><ele>535.6666666666666</ele><time>2026-03-28T11:52:11.383Z</time></trkpt><trkpt lat="39.2398055" lon="16.7950013"><ele>532.8333333333333</ele><time>2026-03-28T11:52:13.383Z</time></trkpt><trkpt lat="39.2398176" lon="16.7951049"><ele>530.0</ele><time>2026-03-28T11:52:15.383Z</time></trkpt><trkpt lat="39.2398239" lon="16.7952296"><ele>529.8333333333333</ele><time>2026-03-28T11:52:17.384Z</time></trkpt><trkpt lat="39.2398171" lon="16.7953533"><ele>529.6666666666666</ele><time>2026-03-28T11:52:19.384Z</time></trkpt><trkpt lat="39.2397974" lon="16.7954844"><ele>529.5</ele><time>2026-03-28T11:52:21.383Z</time></trkpt><trkpt lat="39.239792" lon="16.7956058"><ele>529.3333333333334</ele><time>2026-03-28T11:52:23.384Z</time></trkpt><trkpt lat="39.2397698" lon="16.7956947"><ele>529.1666666666667</ele><time>2026-03-28T11:52:25.383Z</time></trkpt><trkpt lat="39.2397555" lon="16.7957924"><ele>529.0</ele><time>2026-03-28T11:52:28.383Z</time></trkpt><trkpt lat="39.2397398" lon="16.7958836"><ele>529.0</ele><time>2026-03-28T11:52:31.383Z</time></trkpt><trkpt lat="39.2397451" lon="16.7959923"><ele>529.0</ele><time>2026-03-28T11:52:34.384Z</time></trkpt><trkpt lat="39.2397491" lon="16.7960895"><ele>529.0</ele><time>2026-03-28T11:52:37.383Z</time></trkpt><trkpt lat="39.2397433" lon="16.7961869"><ele>529.0</ele><time>2026-03-28T11:53:12.384Z</time></trkpt><trkpt lat="39.2397192" lon="16.7962629"><ele>529.0</ele><time>2026-03-28T11:53:16.384Z</time></trkpt><trkpt lat="39.2397093" lon="16.796347"><ele>529.0</ele><time>2026-03-28T11:53:44.383Z</time></trkpt><trkpt lat="39.2397062" lon="16.7964789"><ele>525.6</ele><time>2026-03-28T11:54:35.384Z</time></trkpt><trkpt lat="39.2397439" lon="16.7965678"><ele>522.2</ele><time>2026-03-28T11:54:58.384Z</time></trkpt><trkpt lat="39.2398005" lon="16.7966598"><ele>518.8000000000001</ele><time>2026-03-28T11:55:06.384Z</time></trkpt><trkpt lat="39.2398029" lon="16.7967412"><ele>515.4</ele><time>2026-03-28T11:55:27.384Z</time></trkpt><trkpt lat="39.2398089" lon="16.7968748"><ele>512.0</ele><time>2026-03-28T11:55:30.385Z</time></trkpt><trkpt lat="39.2397959" lon="16.7970439"><ele>510.99999999999994</ele><time>2026-03-28T11:55:32.385Z</time></trkpt><trkpt lat="39.2397774" lon="16.7971416"><ele>510.0</ele><time>2026-03-28T11:55:33.385Z</time></trkpt><trkpt lat="39.2397552" lon="16.7972399"><ele>509.0</ele><time>2026-03-28T11:55:34.384Z</time></trkpt><trkpt lat="39.2397372" lon="16.7973189"><ele>508.0</ele><time>2026-03-28T11:55:35.384Z</time></trkpt><trkpt lat="39.2397149" lon="16.797409"><ele>506.99999999999994</ele><time>2026-03-28T11:55:36.384Z</time></trkpt><trkpt lat="39.2396943" lon="16.7974951"><ele>506.0</ele><time>2026-03-28T11:55:37.384Z</time></trkpt><trkpt lat="39.239672" lon="16.7976334"><ele>505.3333333333333</ele><time>2026-03-28T11:55:39.384Z</time></trkpt><trkpt lat="39.2396504" lon="16.7977295"><ele>504.66666666666663</ele><time>2026-03-28T11:55:41.384Z</time></trkpt><trkpt lat="39.2395654" lon="16.7978503"><ele>504.0</ele><time>2026-03-28T11:56:30.384Z</time></trkpt><trkpt lat="39.2395219" lon="16.7979287"><ele>503.33333333333337</ele><time>2026-03-28T11:56:34.385Z</time></trkpt><trkpt lat="39.2394769" lon="16.7980001"><ele>502.6666666666667</ele><time>2026-03-28T11:56:56.385Z</time></trkpt><trkpt lat="39.2394289" lon="16.7980691"><ele>502.0</ele><time>2026-03-28T11:57:02.384Z</time></trkpt><trkpt lat="39.2393741" lon="16.7981418"><ele>502.00000000000006</ele><time>2026-03-28T11:57:13.384Z</time></trkpt><trkpt lat="39.2393231" lon="16.798193"><ele>502.0</ele><time>2026-03-28T11:57:16.384Z</time></trkpt><trkpt lat="39.2392692" lon="16.798271"><ele>502.0</ele><time>2026-03-28T11:57:21.384Z</time></trkpt><trkpt lat="39.2392405" lon="16.7983651"><ele>502.0</ele><time>2026-03-28T11:57:23.384Z</time></trkpt><trkpt lat="39.23922" lon="16.7984702"><ele>502.00000000000006</ele><time>2026-03-28T11:57:25.385Z</time></trkpt><trkpt lat="39.2392176" lon="16.7985521"><ele>502.0</ele><time>2026-03-28T11:57:27.385Z</time></trkpt><trkpt lat="39.2392148" lon="16.7986657"><ele>501.42857142857133</ele><time>2026-03-28T11:57:30.384Z</time></trkpt><trkpt lat="39.2392062" lon="16.7987497"><ele>500.85714285714283</ele><time>2026-03-28T11:57:33.385Z</time></trkpt><trkpt lat="39.2392103" lon="16.7988365"><ele>500.2857142857142</ele><time>2026-03-28T11:57:39.384Z</time></trkpt><trkpt lat="39.2392166" lon="16.7989408"><ele>499.71428571428567</ele><time>2026-03-28T11:57:44.384Z</time></trkpt><trkpt lat="39.2391878" lon="16.7990188"><ele>499.1428571428571</ele><time>2026-03-28T11:57:47.384Z</time></trkpt><trkpt lat="39.2391546" lon="16.7991262"><ele>498.57142857142856</ele><time>2026-03-28T11:57:50.384Z</time></trkpt><trkpt lat="39.2391341" lon="16.7992116"><ele>498.0</ele><time>2026-03-28T11:57:52.384Z</time></trkpt><trkpt lat="39.2391215" lon="16.7992925"><ele>496.8333333333333</ele><time>2026-03-28T11:57:54.384Z</time></trkpt><trkpt lat="39.2391228" lon="16.7993845"><ele>495.66666666666663</ele><time>2026-03-28T11:57:56.385Z</time></trkpt><trkpt lat="39.2391269" lon="16.7994927"><ele>494.5</ele><time>2026-03-28T11:57:58.385Z</time></trkpt><trkpt lat="39.2391379" lon="16.7995909"><ele>493.3333333333333</ele><time>2026-03-28T11:58:00.384Z</time></trkpt><trkpt lat="39.2391538" lon="16.7996826"><ele>492.16666666666663</ele><time>2026-03-28T11:58:03.384Z</time></trkpt><trkpt lat="39.2391252" lon="16.7997939"><ele>491.0</ele><time>2026-03-28T11:58:18.384Z</time></trkpt><trkpt lat="39.2390623" lon="16.7998513"><ele>488.4</ele><time>2026-03-28T11:58:21.384Z</time></trkpt><trkpt lat="39.2389584" lon="16.7998646"><ele>485.8</ele><time>2026-03-28T11:58:23.384Z</time></trkpt><trkpt lat="39.2388541" lon="16.7999019"><ele>483.19999999999993</ele><time>2026-03-28T11:58:25.385Z</time></trkpt><trkpt lat="39.2387836" lon="16.7999541"><ele>480.59999999999997</ele><time>2026-03-28T11:58:27.385Z</time></trkpt><trkpt lat="39.2387198" lon="16.800007"><ele>478.0</ele><time>2026-03-28T11:58:29.384Z</time></trkpt><trkpt lat="39.2386454" lon="16.8000709"><ele>478.00000000000006</ele><time>2026-03-28T11:58:31.384Z</time></trkpt><trkpt lat="39.2385658" lon="16.8001333"><ele>478.0</ele><time>2026-03-28T11:58:33.384Z</time></trkpt><trkpt lat="39.2384656" lon="16.8002295"><ele>478.0</ele><time>2026-03-28T11:58:35.384Z</time></trkpt><trkpt lat="39.2384117" lon="16.8002962"><ele>478.0</ele><time>2026-03-28T11:58:36.385Z</time></trkpt><trkpt lat="39.2383618" lon="16.8003694"><ele>478.00000000000006</ele><time>2026-03-28T11:58:37.384Z</time></trkpt><trkpt lat="39.2383187" lon="16.800457"><ele>478.0</ele><time>2026-03-28T11:58:38.384Z</time></trkpt><trkpt lat="39.2382738" lon="16.8005487"><ele>478.79999999999995</ele><time>2026-03-28T11:58:39.384Z</time></trkpt><trkpt lat="39.2382262" lon="16.8006396"><ele>479.59999999999997</ele><time>2026-03-28T11:58:40.385Z</time></trkpt><trkpt lat="39.2381791" lon="16.8007249"><ele>480.40000000000003</ele><time>2026-03-28T11:58:41.384Z</time></trkpt><trkpt lat="39.2381406" lon="16.8008029"><ele>481.20000000000005</ele><time>2026-03-28T11:58:42.384Z</time></trkpt><trkpt lat="39.2380763" lon="16.8009304"><ele>482.0</ele><time>2026-03-28T11:58:44.384Z</time></trkpt><trkpt lat="39.238012" lon="16.8010643"><ele>479.28571428571433</ele><time>2026-03-28T11:58:46.385Z</time></trkpt><trkpt lat="39.2379791" lon="16.8011413"><ele>476.5714285714286</ele><time>2026-03-28T11:58:47.385Z</time></trkpt><trkpt lat="39.2379476" lon="16.8012239"><ele>473.8571428571429</ele><time>2026-03-28T11:58:48.384Z</time></trkpt><trkpt lat="39.2379152" lon="16.8013123"><ele>471.1428571428571</ele><time>2026-03-28T11:58:49.384Z</time></trkpt><trkpt lat="39.2378886" lon="16.8014066"><ele>468.4285714285714</ele><time>2026-03-28T11:58:50.384Z</time></trkpt><trkpt lat="39.2378661" lon="16.8015042"><ele>465.71428571428567</ele><time>2026-03-28T11:58:51.385Z</time></trkpt><trkpt lat="39.237842" lon="16.8015973"><ele>463.0</ele><time>2026-03-28T11:58:52.384Z</time></trkpt><trkpt lat="39.2378201" lon="16.8016822"><ele>463.00000000000006</ele><time>2026-03-28T11:58:53.385Z</time></trkpt><trkpt lat="39.2377977" lon="16.801804"><ele>463.0</ele><time>2026-03-28T11:58:55.384Z</time></trkpt><trkpt lat="39.2377737" lon="16.8018983"><ele>463.0</ele><time>2026-03-28T11:58:57.384Z</time></trkpt><trkpt lat="39.2377405" lon="16.8020328"><ele>463.0</ele><time>2026-03-28T11:58:59.384Z</time></trkpt><trkpt lat="39.2377299" lon="16.8021153"><ele>463.00000000000006</ele><time>2026-03-28T11:59:00.384Z</time></trkpt><trkpt lat="39.237739" lon="16.8021977"><ele>463.0</ele><time>2026-03-28T11:59:01.385Z</time></trkpt><trkpt lat="39.2377986" lon="16.8023341"><ele>464.0</ele><time>2026-03-28T11:59:03.384Z</time></trkpt><trkpt lat="39.2378933" lon="16.8024356"><ele>465.0</ele><time>2026-03-28T11:59:05.384Z</time></trkpt><trkpt lat="39.2380042" lon="16.8024602"><ele>466.0</ele><time>2026-03-28T11:59:07.384Z</time></trkpt><trkpt lat="39.238151" lon="16.8024218"><ele>467.0</ele><time>2026-03-28T11:59:09.384Z</time></trkpt><trkpt lat="39.2382468" lon="16.8023941"><ele>466.99999999999994</ele><time>2026-03-28T11:59:10.384Z</time></trkpt><trkpt lat="39.2383335" lon="16.8023781"><ele>467.0</ele><time>2026-03-28T11:59:11.384Z</time></trkpt><trkpt lat="39.2384165" lon="16.8023796"><ele>467.0</ele><time>2026-03-28T11:59:12.384Z</time></trkpt><trkpt lat="39.2384974" lon="16.8023893"><ele>467.0</ele><time>2026-03-28T11:59:13.385Z</time></trkpt><trkpt lat="39.2385759" lon="16.8023988"><ele>466.99999999999994</ele><time>2026-03-28T11:59:14.384Z</time></trkpt><trkpt lat="39.2386439" lon="16.8024132"><ele>467.0</ele><time>2026-03-28T11:59:15.384Z</time></trkpt><trkpt lat="39.2387116" lon="16.8024249"><ele>466.99999999999994</ele><time>2026-03-28T11:59:16.384Z</time></trkpt><trkpt lat="39.2387753" lon="16.8024365"><ele>467.0</ele><time>2026-03-28T11:59:17.384Z</time></trkpt><trkpt lat="39.2388779" lon="16.8024592"><ele>467.0</ele><time>2026-03-28T11:59:19.384Z</time></trkpt><trkpt lat="39.2389517" lon="16.8025062"><ele>467.0</ele><time>2026-03-28T11:59:21.385Z</time></trkpt><trkpt lat="39.2389917" lon="16.8026225"><ele>466.99999999999994</ele><time>2026-03-28T11:59:23.384Z</time></trkpt><trkpt lat="39.2389983" lon="16.8027078"><ele>467.0</ele><time>2026-03-28T11:59:24.384Z</time></trkpt><trkpt lat="39.2389902" lon="16.802803"><ele>467.16666666666663</ele><time>2026-03-28T11:59:25.384Z</time></trkpt><trkpt lat="39.2389784" lon="16.8028996"><ele>467.3333333333333</ele><time>2026-03-28T11:59:26.385Z</time></trkpt><trkpt lat="39.2389676" lon="16.8030058"><ele>467.5</ele><time>2026-03-28T11:59:27.385Z</time></trkpt><trkpt lat="39.2389693" lon="16.8030993"><ele>467.66666666666663</ele><time>2026-03-28T11:59:28.384Z</time></trkpt><trkpt lat="39.2389527" lon="16.8032199"><ele>467.8333333333333</ele><time>2026-03-28T11:59:30.384Z</time></trkpt><trkpt lat="39.2388724" lon="16.803199"><ele>468.0</ele><time>2026-03-28T11:59:34.384Z</time></trkpt><trkpt lat="39.2388142" lon="16.8031033"><ele>465.3333333333333</ele><time>2026-03-28T11:59:36.384Z</time></trkpt><trkpt lat="39.2387724" lon="16.8030098"><ele>462.66666666666663</ele><time>2026-03-28T11:59:37.385Z</time></trkpt><trkpt lat="39.2387162" lon="16.8029056"><ele>460.0</ele><time>2026-03-28T11:59:38.384Z</time></trkpt><trkpt lat="39.2386458" lon="16.8028319"><ele>457.3333333333333</ele><time>2026-03-28T11:59:39.384Z</time></trkpt><trkpt lat="39.238575" lon="16.8027776"><ele>454.66666666666663</ele><time>2026-03-28T11:59:40.385Z</time></trkpt><trkpt lat="39.2385023" lon="16.8027493"><ele>452.0</ele><time>2026-03-28T11:59:41.384Z</time></trkpt><trkpt lat="39.2384296" lon="16.8027496"><ele>452.0</ele><time>2026-03-28T11:59:42.384Z</time></trkpt><trkpt lat="39.2383496" lon="16.8027678"><ele>452.00000000000006</ele><time>2026-03-28T11:59:43.385Z</time></trkpt><trkpt lat="39.2382679" lon="16.8028112"><ele>452.00000000000006</ele><time>2026-03-28T11:59:44.385Z</time></trkpt><trkpt lat="39.238186" lon="16.8028831"><ele>452.0</ele><time>2026-03-28T11:59:45.384Z</time></trkpt><trkpt lat="39.23811" lon="16.80297"><ele>452.0</ele><time>2026-03-28T11:59:46.384Z</time></trkpt><trkpt lat="39.2380367" lon="16.8030485"><ele>450.49999999999994</ele><time>2026-03-28T11:59:47.384Z</time></trkpt><trkpt lat="39.2379583" lon="16.8031067"><ele>449.0</ele><time>2026-03-28T11:59:48.384Z</time></trkpt><trkpt lat="39.2378725" lon="16.8031217"><ele>447.5</ele><time>2026-03-28T11:59:49.384Z</time></trkpt><trkpt lat="39.2377908" lon="16.803112"><ele>446.0</ele><time>2026-03-28T11:59:50.384Z</time></trkpt><trkpt lat="39.2377107" lon="16.8030709"><ele>444.49999999999994</ele><time>2026-03-28T11:59:51.384Z</time></trkpt><trkpt lat="39.2376409" lon="16.803011"><ele>443.0</ele><time>2026-03-28T11:59:52.384Z</time></trkpt><trkpt lat="39.2375764" lon="16.8029362"><ele>442.99999999999994</ele><time>2026-03-28T11:59:53.384Z</time></trkpt><trkpt lat="39.2375174" lon="16.802855"><ele>443.0</ele><time>2026-03-28T11:59:54.385Z</time></trkpt><trkpt lat="39.2374624" lon="16.8027759"><ele>443.0</ele><time>2026-03-28T11:59:55.384Z</time></trkpt><trkpt lat="39.2374071" lon="16.8027003"><ele>443.0</ele><time>2026-03-28T11:59:56.384Z</time></trkpt><trkpt lat="39.2373584" lon="16.8026092"><ele>442.99999999999994</ele><time>2026-03-28T11:59:57.385Z</time></trkpt><trkpt lat="39.2372978" lon="16.8025096"><ele>443.0</ele><time>2026-03-28T11:59:58.385Z</time></trkpt><trkpt lat="39.2372148" lon="16.8024261"><ele>443.5</ele><time>2026-03-28T11:59:59.384Z</time></trkpt><trkpt lat="39.2371112" lon="16.802371"><ele>444.0</ele><time>2026-03-28T12:00:00.384Z</time></trkpt><trkpt lat="39.2369923" lon="16.8023366"><ele>444.5</ele><time>2026-03-28T12:00:01.385Z</time></trkpt><trkpt lat="39.2368716" lon="16.8023131"><ele>445.0</ele><time>2026-03-28T12:00:02.385Z</time></trkpt><trkpt lat="39.2367541" lon="16.8022936"><ele>445.0</ele><time>2026-03-28T12:00:03.384Z</time></trkpt><trkpt lat="39.2366479" lon="16.8022578"><ele>445.0</ele><time>2026-03-28T12:00:04.384Z</time></trkpt><trkpt lat="39.2365625" lon="16.8021944"><ele>445.0</ele><time>2026-03-28T12:00:05.384Z</time></trkpt><trkpt lat="39.2365093" lon="16.8021144"><ele>445.0</ele><time>2026-03-28T12:00:06.384Z</time></trkpt><trkpt lat="39.2364728" lon="16.8020147"><ele>445.0</ele><time>2026-03-28T12:00:07.384Z</time></trkpt><trkpt lat="39.2364498" lon="16.8018985"><ele>444.1666666666667</ele><time>2026-03-28T12:00:08.384Z</time></trkpt><trkpt lat="39.2364332" lon="16.8017695"><ele>443.33333333333337</ele><time>2026-03-28T12:00:09.384Z</time></trkpt><trkpt lat="39.2364219" lon="16.8016461"><ele>442.5</ele><time>2026-03-28T12:00:10.384Z</time></trkpt><trkpt lat="39.2363986" lon="16.8015438"><ele>441.66666666666663</ele><time>2026-03-28T12:00:11.385Z</time></trkpt><trkpt lat="39.2363665" lon="16.8014533"><ele>440.8333333333333</ele><time>2026-03-28T12:00:12.384Z</time></trkpt><trkpt lat="39.2363001" lon="16.801378"><ele>440.0</ele><time>2026-03-28T12:00:13.384Z</time></trkpt><trkpt lat="39.236206" lon="16.8013168"><ele>440.0</ele><time>2026-03-28T12:00:14.384Z</time></trkpt><trkpt lat="39.2361079" lon="16.8012693"><ele>440.0</ele><time>2026-03-28T12:00:15.384Z</time></trkpt><trkpt lat="39.2360133" lon="16.8012544"><ele>440.0</ele><time>2026-03-28T12:00:16.384Z</time></trkpt><trkpt lat="39.2359109" lon="16.8012759"><ele>440.0</ele><time>2026-03-28T12:00:17.384Z</time></trkpt><trkpt lat="39.2358198" lon="16.8013258"><ele>440.0</ele><time>2026-03-28T12:00:18.384Z</time></trkpt><trkpt lat="39.2357303" lon="16.8014035"><ele>440.0</ele><time>2026-03-28T12:00:19.385Z</time></trkpt><trkpt lat="39.2356504" lon="16.8015117"><ele>440.0</ele><time>2026-03-28T12:00:20.384Z</time></trkpt><trkpt lat="39.2355759" lon="16.8016341"><ele>440.0</ele><time>2026-03-28T12:00:21.384Z</time></trkpt><trkpt lat="39.2355124" lon="16.8017543"><ele>440.0</ele><time>2026-03-28T12:00:22.385Z</time></trkpt><trkpt lat="39.2354486" lon="16.8018671"><ele>438.2</ele><time>2026-03-28T12:00:23.384Z</time></trkpt><trkpt lat="39.2353847" lon="16.8019775"><ele>436.4</ele><time>2026-03-28T12:00:24.384Z</time></trkpt><trkpt lat="39.2353149" lon="16.8020837"><ele>434.6</ele><time>2026-03-28T12:00:25.384Z</time></trkpt><trkpt lat="39.2352399" lon="16.802193"><ele>432.8</ele><time>2026-03-28T12:00:26.384Z</time></trkpt><trkpt lat="39.235163" lon="16.802303"><ele>431.0</ele><time>2026-03-28T12:00:27.385Z</time></trkpt><trkpt lat="39.2350906" lon="16.8024148"><ele>431.0</ele><time>2026-03-28T12:00:28.384Z</time></trkpt><trkpt lat="39.2350163" lon="16.8025234"><ele>431.0</ele><time>2026-03-28T12:00:29.385Z</time></trkpt><trkpt lat="39.2349515" lon="16.8026225"><ele>431.0</ele><time>2026-03-28T12:00:30.384Z</time></trkpt><trkpt lat="39.2348915" lon="16.8027108"><ele>431.0</ele><time>2026-03-28T12:00:31.384Z</time></trkpt><trkpt lat="39.2348326" lon="16.8027997"><ele>431.0</ele><time>2026-03-28T12:00:32.384Z</time></trkpt><trkpt lat="39.2347747" lon="16.8028922"><ele>429.4</ele><time>2026-03-28T12:00:33.384Z</time></trkpt><trkpt lat="39.2347192" lon="16.8029925"><ele>427.8</ele><time>2026-03-28T12:00:34.385Z</time></trkpt><trkpt lat="39.2346679" lon="16.8031103"><ele>426.2</ele><time>2026-03-28T12:00:35.385Z</time></trkpt><trkpt lat="39.2346185" lon="16.8032291"><ele>424.59999999999997</ele><time>2026-03-28T12:00:36.384Z</time></trkpt><trkpt lat="39.2345755" lon="16.8033455"><ele>423.0</ele><time>2026-03-28T12:00:37.384Z</time></trkpt><trkpt lat="39.2345377" lon="16.8034552"><ele>423.59999999999997</ele><time>2026-03-28T12:00:38.384Z</time></trkpt><trkpt lat="39.2344986" lon="16.8035636"><ele>424.2</ele><time>2026-03-28T12:00:39.385Z</time></trkpt><trkpt lat="39.2344661" lon="16.8036742"><ele>424.8</ele><time>2026-03-28T12:00:40.384Z</time></trkpt><trkpt lat="39.234443" lon="16.803796"><ele>425.4</ele><time>2026-03-28T12:00:41.385Z</time></trkpt><trkpt lat="39.2344356" lon="16.803913"><ele>426.0</ele><time>2026-03-28T12:00:42.385Z</time></trkpt><trkpt lat="39.2344476" lon="16.8040388"><ele>426.0</ele><time>2026-03-28T12:00:43.384Z</time></trkpt><trkpt lat="39.2344749" lon="16.8041427"><ele>426.0</ele><time>2026-03-28T12:00:44.384Z</time></trkpt><trkpt lat="39.2345192" lon="16.8042248"><ele>426.0</ele><time>2026-03-28T12:00:45.384Z</time></trkpt><trkpt lat="39.2345791" lon="16.8042828"><ele>426.0</ele><time>2026-03-28T12:00:46.384Z</time></trkpt><trkpt lat="39.2346478" lon="16.8043194"><ele>426.0</ele><time>2026-03-28T12:00:47.384Z</time></trkpt><trkpt lat="39.2347221" lon="16.8043324"><ele>426.0</ele><time>2026-03-28T12:00:48.384Z</time></trkpt><trkpt lat="39.2348018" lon="16.804324"><ele>426.0</ele><time>2026-03-28T12:00:49.384Z</time></trkpt><trkpt lat="39.2348822" lon="16.8043165"><ele>426.0</ele><time>2026-03-28T12:00:50.384Z</time></trkpt><trkpt lat="39.2349594" lon="16.8043225"><ele>426.0</ele><time>2026-03-28T12:00:51.384Z</time></trkpt><trkpt lat="39.2350315" lon="16.8043433"><ele>426.0</ele><time>2026-03-28T12:00:52.384Z</time></trkpt><trkpt lat="39.2350993" lon="16.8043886"><ele>426.0</ele><time>2026-03-28T12:00:53.384Z</time></trkpt><trkpt lat="39.2351593" lon="16.8044517"><ele>426.0</ele><time>2026-03-28T12:00:54.385Z</time></trkpt><trkpt lat="39.2352063" lon="16.8045396"><ele>424.0</ele><time>2026-03-28T12:00:55.384Z</time></trkpt><trkpt lat="39.2352299" lon="16.804648"><ele>422.0</ele><time>2026-03-28T12:00:56.384Z</time></trkpt><trkpt lat="39.2352316" lon="16.8047802"><ele>420.0</ele><time>2026-03-28T12:00:57.384Z</time></trkpt><trkpt lat="39.2352172" lon="16.804921"><ele>418.0</ele><time>2026-03-28T12:00:58.384Z</time></trkpt><trkpt lat="39.2351859" lon="16.8050556"><ele>416.0</ele><time>2026-03-28T12:00:59.384Z</time></trkpt><trkpt lat="39.2351497" lon="16.8051692"><ele>414.4</ele><time>2026-03-28T12:01:00.385Z</time></trkpt><trkpt lat="39.2350988" lon="16.8052639"><ele>412.8</ele><time>2026-03-28T12:01:01.384Z</time></trkpt><trkpt lat="39.2350329" lon="16.8053463"><ele>411.2</ele><time>2026-03-28T12:01:02.384Z</time></trkpt><trkpt lat="39.2349571" lon="16.805408"><ele>409.59999999999997</ele><time>2026-03-28T12:01:03.384Z</time></trkpt><trkpt lat="39.2348583" lon="16.8054337"><ele>408.0</ele><time>2026-03-28T12:01:04.384Z</time></trkpt><trkpt lat="39.234744" lon="16.8054195"><ele>408.0</ele><time>2026-03-28T12:01:05.385Z</time></trkpt><trkpt lat="39.2346321" lon="16.8053943"><ele>408.0</ele><time>2026-03-28T12:01:06.384Z</time></trkpt><trkpt lat="39.2345323" lon="16.805384"><ele>408.0</ele><time>2026-03-28T12:01:07.385Z</time></trkpt><trkpt lat="39.2344429" lon="16.8053972"><ele>408.0</ele><time>2026-03-28T12:01:08.385Z</time></trkpt><trkpt lat="39.2343594" lon="16.8054419"><ele>408.0</ele><time>2026-03-28T12:01:09.384Z</time></trkpt><trkpt lat="39.2342934" lon="16.8054987"><ele>408.0</ele><time>2026-03-28T12:01:10.384Z</time></trkpt><trkpt lat="39.2342384" lon="16.8055799"><ele>408.0</ele><time>2026-03-28T12:01:11.385Z</time></trkpt><trkpt lat="39.2341926" lon="16.8056878"><ele>408.0</ele><time>2026-03-28T12:01:12.384Z</time></trkpt><trkpt lat="39.2341602" lon="16.8058219"><ele>408.0</ele><time>2026-03-28T12:01:13.384Z</time></trkpt><trkpt lat="39.2341317" lon="16.8059603"><ele>408.0</ele><time>2026-03-28T12:01:14.384Z</time></trkpt><trkpt lat="39.2340969" lon="16.8060965"><ele>406.3333333333333</ele><time>2026-03-28T12:01:15.385Z</time></trkpt><trkpt lat="39.2340609" lon="16.8062166"><ele>404.66666666666663</ele><time>2026-03-28T12:01:16.385Z</time></trkpt><trkpt lat="39.2340274" lon="16.8063246"><ele>403.0</ele><time>2026-03-28T12:01:17.385Z</time></trkpt><trkpt lat="39.2339879" lon="16.8064166"><ele>401.3333333333333</ele><time>2026-03-28T12:01:18.385Z</time></trkpt><trkpt lat="39.2339429" lon="16.8064875"><ele>399.66666666666663</ele><time>2026-03-28T12:01:19.384Z</time></trkpt><trkpt lat="39.2338859" lon="16.8065358"><ele>398.0</ele><time>2026-03-28T12:01:20.384Z</time></trkpt><trkpt lat="39.23382" lon="16.8065563"><ele>397.66666666666663</ele><time>2026-03-28T12:01:21.384Z</time></trkpt><trkpt lat="39.2337518" lon="16.8065385"><ele>397.3333333333333</ele><time>2026-03-28T12:01:22.385Z</time></trkpt><trkpt lat="39.2336952" lon="16.8064837"><ele>397.0</ele><time>2026-03-28T12:01:23.384Z</time></trkpt><trkpt lat="39.2336473" lon="16.8063899"><ele>396.66666666666663</ele><time>2026-03-28T12:01:24.384Z</time></trkpt><trkpt lat="39.2335916" lon="16.8062802"><ele>396.3333333333333</ele><time>2026-03-28T12:01:25.384Z</time></trkpt><trkpt lat="39.2335245" lon="16.8061931"><ele>396.0</ele><time>2026-03-28T12:01:26.385Z</time></trkpt><trkpt lat="39.2334464" lon="16.8061444"><ele>396.0</ele><time>2026-03-28T12:01:27.384Z</time></trkpt><trkpt lat="39.2333638" lon="16.8061251"><ele>396.0</ele><time>2026-03-28T12:01:28.384Z</time></trkpt><trkpt lat="39.2332776" lon="16.8061295"><ele>396.0</ele><time>2026-03-28T12:01:29.384Z</time></trkpt><trkpt lat="39.2331869" lon="16.8061331"><ele>396.0</ele><time>2026-03-28T12:01:30.384Z</time></trkpt><trkpt lat="39.2330873" lon="16.8061361"><ele>396.0</ele><time>2026-03-28T12:01:31.385Z</time></trkpt><trkpt lat="39.2329806" lon="16.8061387"><ele>395.0</ele><time>2026-03-28T12:01:32.384Z</time></trkpt><trkpt lat="39.232868" lon="16.8061344"><ele>394.0</ele><time>2026-03-28T12:01:33.384Z</time></trkpt><trkpt lat="39.2327648" lon="16.8061207"><ele>393.0</ele><time>2026-03-28T12:01:34.384Z</time></trkpt><trkpt lat="39.2326703" lon="16.806098"><ele>392.0</ele><time>2026-03-28T12:01:35.385Z</time></trkpt><trkpt lat="39.2325835" lon="16.8060655"><ele>391.0</ele><time>2026-03-28T12:01:36.384Z</time></trkpt><trkpt lat="39.2325093" lon="16.8060143"><ele>391.6666666666667</ele><time>2026-03-28T12:01:37.384Z</time></trkpt><trkpt lat="39.2324504" lon="16.805942"><ele>392.33333333333337</ele><time>2026-03-28T12:01:38.384Z</time></trkpt><trkpt lat="39.2323963" lon="16.8058626"><ele>393.0</ele><time>2026-03-28T12:01:39.384Z</time></trkpt><trkpt lat="39.2323407" lon="16.8057986"><ele>393.66666666666663</ele><time>2026-03-28T12:01:40.384Z</time></trkpt><trkpt lat="39.2322686" lon="16.8057581"><ele>394.3333333333333</ele><time>2026-03-28T12:01:41.384Z</time></trkpt><trkpt lat="39.2321868" lon="16.8057325"><ele>395.0</ele><time>2026-03-28T12:01:42.384Z</time></trkpt><trkpt lat="39.2320973" lon="16.8057145"><ele>394.99999999999994</ele><time>2026-03-28T12:01:43.384Z</time></trkpt><trkpt lat="39.2320109" lon="16.8057147"><ele>395.0</ele><time>2026-03-28T12:01:44.384Z</time></trkpt><trkpt lat="39.2319248" lon="16.8057221"><ele>395.0</ele><time>2026-03-28T12:01:45.384Z</time></trkpt><trkpt lat="39.2318375" lon="16.8057499"><ele>395.0</ele><time>2026-03-28T12:01:46.384Z</time></trkpt><trkpt lat="39.2317541" lon="16.8057831"><ele>394.99999999999994</ele><time>2026-03-28T12:01:47.384Z</time></trkpt><trkpt lat="39.2316676" lon="16.8058368"><ele>395.0</ele><time>2026-03-28T12:01:48.384Z</time></trkpt><trkpt lat="39.2315829" lon="16.805904"><ele>395.0</ele><time>2026-03-28T12:01:49.384Z</time></trkpt><trkpt lat="39.2314998" lon="16.8059759"><ele>395.0</ele><time>2026-03-28T12:01:50.385Z</time></trkpt><trkpt lat="39.2314155" lon="16.8060581"><ele>395.0</ele><time>2026-03-28T12:01:51.384Z</time></trkpt><trkpt lat="39.2313282" lon="16.8061486"><ele>395.0</ele><time>2026-03-28T12:01:52.384Z</time></trkpt><trkpt lat="39.2312407" lon="16.8062378"><ele>395.0</ele><time>2026-03-28T12:01:53.384Z</time></trkpt><trkpt lat="39.231153" lon="16.8063338"><ele>393.0</ele><time>2026-03-28T12:01:54.384Z</time></trkpt><trkpt lat="39.2310625" lon="16.806421"><ele>391.0</ele><time>2026-03-28T12:01:55.384Z</time></trkpt><trkpt lat="39.2309637" lon="16.8065151"><ele>389.0</ele><time>2026-03-28T12:01:56.385Z</time></trkpt><trkpt lat="39.2308549" lon="16.8066225"><ele>387.0</ele><time>2026-03-28T12:01:57.384Z</time></trkpt><trkpt lat="39.2307417" lon="16.8067403"><ele>386.0</ele><time>2026-03-28T12:01:58.384Z</time></trkpt><trkpt lat="39.2306387" lon="16.8068517"><ele>385.0</ele><time>2026-03-28T12:01:59.384Z</time></trkpt><trkpt lat="39.230549" lon="16.8069447"><ele>384.0</ele><time>2026-03-28T12:02:00.384Z</time></trkpt><trkpt lat="39.2304709" lon="16.8070283"><ele>383.0</ele><time>2026-03-28T12:02:01.384Z</time></trkpt><trkpt lat="39.2303987" lon="16.8071011"><ele>382.0</ele><time>2026-03-28T12:02:02.385Z</time></trkpt><trkpt lat="39.2303351" lon="16.8071786"><ele>382.0</ele><time>2026-03-28T12:02:03.384Z</time></trkpt><trkpt lat="39.2302833" lon="16.8072619"><ele>382.0</ele><time>2026-03-28T12:02:04.384Z</time></trkpt><trkpt lat="39.2302311" lon="16.8073673"><ele>382.0</ele><time>2026-03-28T12:02:05.384Z</time></trkpt><trkpt lat="39.2301787" lon="16.8074749"><ele>382.0</ele><time>2026-03-28T12:02:06.384Z</time></trkpt><trkpt lat="39.2301171" lon="16.8075659"><ele>382.0</ele><time>2026-03-28T12:02:07.384Z</time></trkpt><trkpt lat="39.2300488" lon="16.8076356"><ele>379.8</ele><time>2026-03-28T12:02:08.384Z</time></trkpt><trkpt lat="39.2299642" lon="16.8076699"><ele>377.6</ele><time>2026-03-28T12:02:09.384Z</time></trkpt><trkpt lat="39.2298746" lon="16.8076931"><ele>375.40000000000003</ele><time>2026-03-28T12:02:10.384Z</time></trkpt><trkpt lat="39.2297763" lon="16.8077349"><ele>373.20000000000005</ele><time>2026-03-28T12:02:11.384Z</time></trkpt><trkpt lat="39.2296796" lon="16.8078011"><ele>371.0</ele><time>2026-03-28T12:02:12.384Z</time></trkpt><trkpt lat="39.2295885" lon="16.8078978"><ele>371.0</ele><time>2026-03-28T12:02:13.385Z</time></trkpt><trkpt lat="39.2295134" lon="16.8079976"><ele>371.0</ele><time>2026-03-28T12:02:14.384Z</time></trkpt><trkpt lat="39.2294425" lon="16.8080903"><ele>371.0</ele><time>2026-03-28T12:02:15.384Z</time></trkpt><trkpt lat="39.2293658" lon="16.8081693"><ele>371.0</ele><time>2026-03-28T12:02:16.384Z</time></trkpt><trkpt lat="39.2292735" lon="16.8082398"><ele>371.0</ele><time>2026-03-28T12:02:17.384Z</time></trkpt><trkpt lat="39.2291727" lon="16.8082875"><ele>371.0</ele><time>2026-03-28T12:02:18.384Z</time></trkpt><trkpt lat="39.2290694" lon="16.8083108"><ele>371.0</ele><time>2026-03-28T12:02:19.384Z</time></trkpt><trkpt lat="39.2289661" lon="16.8083153"><ele>371.0</ele><time>2026-03-28T12:02:20.384Z</time></trkpt><trkpt lat="39.2288679" lon="16.8083048"><ele>371.0</ele><time>2026-03-28T12:02:21.384Z</time></trkpt><trkpt lat="39.2287799" lon="16.8082733"><ele>371.0</ele><time>2026-03-28T12:02:22.384Z</time></trkpt><trkpt lat="39.2286916" lon="16.8082534"><ele>370.4</ele><time>2026-03-28T12:02:23.384Z</time></trkpt><trkpt lat="39.228611" lon="16.8082354"><ele>369.8</ele><time>2026-03-28T12:02:24.384Z</time></trkpt><trkpt lat="39.2285483" lon="16.8082243"><ele>369.2</ele><time>2026-03-28T12:02:25.384Z</time></trkpt><trkpt lat="39.2284512" lon="16.808236"><ele>368.59999999999997</ele><time>2026-03-28T12:02:27.385Z</time></trkpt><trkpt lat="39.2283569" lon="16.8082866"><ele>368.0</ele><time>2026-03-28T12:02:29.384Z</time></trkpt><trkpt lat="39.2282548" lon="16.8083683"><ele>368.0</ele><time>2026-03-28T12:02:31.384Z</time></trkpt><trkpt lat="39.2281796" lon="16.8084546"><ele>368.0</ele><time>2026-03-28T12:02:33.384Z</time></trkpt><trkpt lat="39.2281305" lon="16.8085613"><ele>368.0</ele><time>2026-03-28T12:02:35.385Z</time></trkpt><trkpt lat="39.2281034" lon="16.8086366"><ele>368.0</ele><time>2026-03-28T12:02:36.385Z</time></trkpt><trkpt lat="39.2280641" lon="16.8087304"><ele>368.0</ele><time>2026-03-28T12:02:37.384Z</time></trkpt><trkpt lat="39.2280196" lon="16.8088431"><ele>368.0</ele><time>2026-03-28T12:02:38.384Z</time></trkpt><trkpt lat="39.2279634" lon="16.8089748"><ele>366.0</ele><time>2026-03-28T12:02:39.384Z</time></trkpt><trkpt lat="39.2279072" lon="16.8091122"><ele>364.0</ele><time>2026-03-28T12:02:40.384Z</time></trkpt><trkpt lat="39.2278452" lon="16.809255"><ele>362.0</ele><time>2026-03-28T12:02:41.385Z</time></trkpt><trkpt lat="39.2277818" lon="16.8093904"><ele>360.0</ele><time>2026-03-28T12:02:42.384Z</time></trkpt><trkpt lat="39.2277271" lon="16.8095109"><ele>359.8333333333333</ele><time>2026-03-28T12:02:43.385Z</time></trkpt><trkpt lat="39.2276709" lon="16.8096199"><ele>359.6666666666667</ele><time>2026-03-28T12:02:44.384Z</time></trkpt><trkpt lat="39.2276104" lon="16.8097148"><ele>359.5</ele><time>2026-03-28T12:02:45.384Z</time></trkpt><trkpt lat="39.2275486" lon="16.8097816"><ele>359.33333333333337</ele><time>2026-03-28T12:02:46.384Z</time></trkpt><trkpt lat="39.2274858" lon="16.8098227"><ele>359.1666666666667</ele><time>2026-03-28T12:02:47.384Z</time></trkpt><trkpt lat="39.2274111" lon="16.809854"><ele>359.0</ele><time>2026-03-28T12:02:48.384Z</time></trkpt><trkpt lat="39.2273219" lon="16.8098791"><ele>357.6666666666667</ele><time>2026-03-28T12:02:49.384Z</time></trkpt><trkpt lat="39.2272252" lon="16.8099036"><ele>356.33333333333337</ele><time>2026-03-28T12:02:50.384Z</time></trkpt><trkpt lat="39.2271319" lon="16.8099318"><ele>355.0</ele><time>2026-03-28T12:02:51.384Z</time></trkpt><trkpt lat="39.2270475" lon="16.8099569"><ele>353.6666666666667</ele><time>2026-03-28T12:02:52.384Z</time></trkpt><trkpt lat="39.2269672" lon="16.8099834"><ele>352.3333333333333</ele><time>2026-03-28T12:02:53.384Z</time></trkpt><trkpt lat="39.2268887" lon="16.8100059"><ele>351.0</ele><time>2026-03-28T12:02:54.384Z</time></trkpt><trkpt lat="39.2268063" lon="16.8100344"><ele>351.0</ele><time>2026-03-28T12:02:55.385Z</time></trkpt><trkpt lat="39.2267189" lon="16.810061"><ele>351.0</ele><time>2026-03-28T12:02:56.385Z</time></trkpt><trkpt lat="39.2266266" lon="16.810094"><ele>351.0</ele><time>2026-03-28T12:02:57.384Z</time></trkpt><trkpt lat="39.2265306" lon="16.8101312"><ele>351.0</ele><time>2026-03-28T12:02:58.384Z</time></trkpt><trkpt lat="39.2264339" lon="16.8101709"><ele>351.0</ele><time>2026-03-28T12:02:59.384Z</time></trkpt><trkpt lat="39.2263383" lon="16.8102072"><ele>349.0</ele><time>2026-03-28T12:03:00.384Z</time></trkpt><trkpt lat="39.226247" lon="16.8102349"><ele>347.0</ele><time>2026-03-28T12:03:01.384Z</time></trkpt><trkpt lat="39.2261629" lon="16.810258"><ele>345.0</ele><time>2026-03-28T12:03:02.384Z</time></trkpt><trkpt lat="39.2260786" lon="16.8102928"><ele>343.0</ele><time>2026-03-28T12:03:03.384Z</time></trkpt><trkpt lat="39.2259958" lon="16.8103393"><ele>341.0</ele><time>2026-03-28T12:03:04.385Z</time></trkpt><trkpt lat="39.2259168" lon="16.8104057"><ele>341.0</ele><time>2026-03-28T12:03:05.384Z</time></trkpt><trkpt lat="39.2258565" lon="16.8104931"><ele>341.0</ele><time>2026-03-28T12:03:06.384Z</time></trkpt><trkpt lat="39.2258094" lon="16.810606"><ele>341.0</ele><time>2026-03-28T12:03:07.384Z</time></trkpt><trkpt lat="39.2257618" lon="16.8107366"><ele>341.0</ele><time>2026-03-28T12:03:08.384Z</time></trkpt><trkpt lat="39.2257325" lon="16.8108693"><ele>341.0</ele><time>2026-03-28T12:03:09.384Z</time></trkpt><trkpt lat="39.2257299" lon="16.8110001"><ele>339.6</ele><time>2026-03-28T12:03:10.384Z</time></trkpt><trkpt lat="39.2257566" lon="16.8111324"><ele>338.20000000000005</ele><time>2026-03-28T12:03:11.384Z</time></trkpt><trkpt lat="39.225797" lon="16.8112533"><ele>336.79999999999995</ele><time>2026-03-28T12:03:12.384Z</time></trkpt><trkpt lat="39.2258455" lon="16.8113645"><ele>335.4</ele><time>2026-03-28T12:03:13.384Z</time></trkpt><trkpt lat="39.2258919" lon="16.8114835"><ele>334.0</ele><time>2026-03-28T12:03:14.385Z</time></trkpt><trkpt lat="39.2259353" lon="16.8116126"><ele>334.0</ele><time>2026-03-28T12:03:15.384Z</time></trkpt><trkpt lat="39.2259765" lon="16.8117429"><ele>334.0</ele><time>2026-03-28T12:03:16.385Z</time></trkpt><trkpt lat="39.2260148" lon="16.8118709"><ele>334.0</ele><time>2026-03-28T12:03:17.385Z</time></trkpt><trkpt lat="39.2260514" lon="16.8119891"><ele>334.0</ele><time>2026-03-28T12:03:18.385Z</time></trkpt><trkpt lat="39.2260872" lon="16.8120962"><ele>334.0</ele><time>2026-03-28T12:03:19.384Z</time></trkpt><trkpt lat="39.2261085" lon="16.812202"><ele>333.0</ele><time>2026-03-28T12:03:20.385Z</time></trkpt><trkpt lat="39.2261129" lon="16.8122979"><ele>332.0</ele><time>2026-03-28T12:03:21.384Z</time></trkpt><trkpt lat="39.2260898" lon="16.8123821"><ele>331.0</ele><time>2026-03-28T12:03:22.384Z</time></trkpt><trkpt lat="39.2260524" lon="16.812454"><ele>330.0</ele><time>2026-03-28T12:03:23.384Z</time></trkpt><trkpt lat="39.2259896" lon="16.8125001"><ele>329.0</ele><time>2026-03-28T12:03:24.384Z</time></trkpt><trkpt lat="39.2259006" lon="16.8125306"><ele>328.0</ele><time>2026-03-28T12:03:25.384Z</time></trkpt><trkpt lat="39.2257919" lon="16.8125579"><ele>328.0</ele><time>2026-03-28T12:03:26.385Z</time></trkpt><trkpt lat="39.225686" lon="16.812581"><ele>328.0</ele><time>2026-03-28T12:03:27.384Z</time></trkpt><trkpt lat="39.225592" lon="16.8126065"><ele>328.0</ele><time>2026-03-28T12:03:28.384Z</time></trkpt><trkpt lat="39.225508" lon="16.8126448"><ele>328.0</ele><time>2026-03-28T12:03:29.384Z</time></trkpt><trkpt lat="39.2254465" lon="16.8126951"><ele>328.0</ele><time>2026-03-28T12:03:30.385Z</time></trkpt><trkpt lat="39.2254352" lon="16.8128342"><ele>326.5</ele><time>2026-03-28T12:03:32.384Z</time></trkpt><trkpt lat="39.2255332" lon="16.8129298"><ele>325.0</ele><time>2026-03-28T12:03:34.384Z</time></trkpt><trkpt lat="39.2256037" lon="16.8129345"><ele>323.5</ele><time>2026-03-28T12:03:35.384Z</time></trkpt><trkpt lat="39.2256839" lon="16.8129278"><ele>322.0</ele><time>2026-03-28T12:03:36.384Z</time></trkpt><trkpt lat="39.2257543" lon="16.8129363"><ele>320.5</ele><time>2026-03-28T12:03:37.384Z</time></trkpt><trkpt lat="39.2258138" lon="16.8129629"><ele>319.0</ele><time>2026-03-28T12:03:38.384Z</time></trkpt><trkpt lat="39.2258846" lon="16.8130623"><ele>319.0</ele><time>2026-03-28T12:03:40.384Z</time></trkpt><trkpt lat="39.2259003" lon="16.813224"><ele>319.0</ele><time>2026-03-28T12:03:42.384Z</time></trkpt><trkpt lat="39.2258824" lon="16.8133273"><ele>319.0</ele><time>2026-03-28T12:03:43.384Z</time></trkpt><trkpt lat="39.2258615" lon="16.8134386"><ele>319.0</ele><time>2026-03-28T12:03:44.385Z</time></trkpt><trkpt lat="39.2258418" lon="16.8135591"><ele>319.0</ele><time>2026-03-28T12:03:45.384Z</time></trkpt><trkpt lat="39.2258161" lon="16.8136891"><ele>317.66666666666663</ele><time>2026-03-28T12:03:46.384Z</time></trkpt><trkpt lat="39.2257925" lon="16.8138129"><ele>316.3333333333333</ele><time>2026-03-28T12:03:47.385Z</time></trkpt><trkpt lat="39.2257628" lon="16.8139268"><ele>315.0</ele><time>2026-03-28T12:03:48.385Z</time></trkpt><trkpt lat="39.2257196" lon="16.8140287"><ele>313.6666666666667</ele><time>2026-03-28T12:03:49.384Z</time></trkpt><trkpt lat="39.2256664" lon="16.814107"><ele>312.33333333333337</ele><time>2026-03-28T12:03:50.384Z</time></trkpt><trkpt lat="39.2256072" lon="16.8141606"><ele>311.0</ele><time>2026-03-28T12:03:51.385Z</time></trkpt><trkpt lat="39.2255295" lon="16.8141918"><ele>309.2</ele><time>2026-03-28T12:03:52.384Z</time></trkpt><trkpt lat="39.2254349" lon="16.814219"><ele>307.40000000000003</ele><time>2026-03-28T12:03:53.384Z</time></trkpt><trkpt lat="39.2253243" lon="16.814252"><ele>305.6</ele><time>2026-03-28T12:03:54.384Z</time></trkpt><trkpt lat="39.2252146" lon="16.8142797"><ele>303.8</ele><time>2026-03-28T12:03:55.384Z</time></trkpt><trkpt lat="39.2251106" lon="16.8143109"><ele>302.0</ele><time>2026-03-28T12:03:56.384Z</time></trkpt><trkpt lat="39.2250193" lon="16.8143473"><ele>301.42857142857144</ele><time>2026-03-28T12:03:57.384Z</time></trkpt><trkpt lat="39.2249381" lon="16.8143937"><ele>300.8571428571429</ele><time>2026-03-28T12:03:58.384Z</time></trkpt><trkpt lat="39.2248779" lon="16.8144521"><ele>300.2857142857143</ele><time>2026-03-28T12:03:59.384Z</time></trkpt><trkpt lat="39.2248414" lon="16.8145268"><ele>299.7142857142857</ele><time>2026-03-28T12:04:00.384Z</time></trkpt><trkpt lat="39.2248286" lon="16.8146168"><ele>299.1428571428571</ele><time>2026-03-28T12:04:01.385Z</time></trkpt><trkpt lat="39.2248445" lon="16.8147029"><ele>298.57142857142856</ele><time>2026-03-28T12:04:02.384Z</time></trkpt><trkpt lat="39.2248861" lon="16.8147861"><ele>298.0</ele><time>2026-03-28T12:04:03.384Z</time></trkpt><trkpt lat="39.2249386" lon="16.8148683"><ele>298.0</ele><time>2026-03-28T12:04:04.384Z</time></trkpt><trkpt lat="39.2249976" lon="16.8149464"><ele>298.0</ele><time>2026-03-28T12:04:05.384Z</time></trkpt><trkpt lat="39.2250574" lon="16.8150153"><ele>298.0</ele><time>2026-03-28T12:04:06.385Z</time></trkpt><trkpt lat="39.2251144" lon="16.8150862"><ele>298.0</ele><time>2026-03-28T12:04:07.384Z</time></trkpt><trkpt lat="39.2251696" lon="16.8151514"><ele>298.0</ele><time>2026-03-28T12:04:08.384Z</time></trkpt><trkpt lat="39.2252138" lon="16.8152099"><ele>298.0</ele><time>2026-03-28T12:04:09.384Z</time></trkpt><trkpt lat="39.2252761" lon="16.8153428"><ele>296.5</ele><time>2026-03-28T12:04:11.385Z</time></trkpt><trkpt lat="39.2252831" lon="16.8154277"><ele>295.0</ele><time>2026-03-28T12:04:12.384Z</time></trkpt><trkpt lat="39.2252641" lon="16.8155188"><ele>293.5</ele><time>2026-03-28T12:04:13.384Z</time></trkpt><trkpt lat="39.2252233" lon="16.8155986"><ele>292.0</ele><time>2026-03-28T12:04:14.384Z</time></trkpt><trkpt lat="39.2251666" lon="16.8156609"><ele>290.5</ele><time>2026-03-28T12:04:15.384Z</time></trkpt><trkpt lat="39.2250846" lon="16.8156879"><ele>289.0</ele><time>2026-03-28T12:04:16.385Z</time></trkpt><trkpt lat="39.2249821" lon="16.815676"><ele>289.0</ele><time>2026-03-28T12:04:17.384Z</time></trkpt><trkpt lat="39.2248686" lon="16.8156303"><ele>289.0</ele><time>2026-03-28T12:04:18.384Z</time></trkpt><trkpt lat="39.2247484" lon="16.8155701"><ele>289.0</ele><time>2026-03-28T12:04:19.384Z</time></trkpt><trkpt lat="39.2246325" lon="16.8155058"><ele>289.0</ele><time>2026-03-28T12:04:20.384Z</time></trkpt><trkpt lat="39.224529" lon="16.8154574"><ele>287.5</ele><time>2026-03-28T12:04:21.384Z</time></trkpt><trkpt lat="39.2244394" lon="16.8154377"><ele>286.0</ele><time>2026-03-28T12:04:22.384Z</time></trkpt><trkpt lat="39.2243675" lon="16.8154465"><ele>284.5</ele><time>2026-03-28T12:04:23.384Z</time></trkpt><trkpt lat="39.224274" lon="16.8155325"><ele>283.0</ele><time>2026-03-28T12:04:25.384Z</time></trkpt><trkpt lat="39.2242655" lon="16.8156196"><ele>281.5</ele><time>2026-03-28T12:04:26.385Z</time></trkpt><trkpt lat="39.224284" lon="16.8157167"><ele>280.0</ele><time>2026-03-28T12:04:27.384Z</time></trkpt><trkpt lat="39.2243162" lon="16.8158342"><ele>280.0</ele><time>2026-03-28T12:04:28.384Z</time></trkpt><trkpt lat="39.2243463" lon="16.8159697"><ele>280.0</ele><time>2026-03-28T12:04:29.384Z</time></trkpt><trkpt lat="39.2243699" lon="16.8161214"><ele>280.0</ele><time>2026-03-28T12:04:30.384Z</time></trkpt><trkpt lat="39.224394" lon="16.8162809"><ele>280.0</ele><time>2026-03-28T12:04:31.384Z</time></trkpt><trkpt lat="39.224428" lon="16.8164298"><ele>278.6</ele><time>2026-03-28T12:04:32.385Z</time></trkpt><trkpt lat="39.2244723" lon="16.8165632"><ele>277.2</ele><time>2026-03-28T12:04:33.385Z</time></trkpt><trkpt lat="39.2245276" lon="16.8166739"><ele>275.8</ele><time>2026-03-28T12:04:34.384Z</time></trkpt><trkpt lat="39.2245921" lon="16.8167584"><ele>274.4</ele><time>2026-03-28T12:04:35.385Z</time></trkpt><trkpt lat="39.2246542" lon="16.8168254"><ele>273.0</ele><time>2026-03-28T12:04:36.384Z</time></trkpt><trkpt lat="39.2247177" lon="16.8168823"><ele>271.8333333333333</ele><time>2026-03-28T12:04:37.384Z</time></trkpt><trkpt lat="39.2247804" lon="16.8169397"><ele>270.6666666666667</ele><time>2026-03-28T12:04:38.384Z</time></trkpt><trkpt lat="39.2248427" lon="16.8169978"><ele>269.5</ele><time>2026-03-28T12:04:39.384Z</time></trkpt><trkpt lat="39.2249005" lon="16.8170573"><ele>268.33333333333337</ele><time>2026-03-28T12:04:40.384Z</time></trkpt><trkpt lat="39.224955" lon="16.8171202"><ele>267.1666666666667</ele><time>2026-03-28T12:04:41.384Z</time></trkpt><trkpt lat="39.2250018" lon="16.8171845"><ele>266.0</ele><time>2026-03-28T12:04:42.384Z</time></trkpt><trkpt lat="39.2250572" lon="16.8173101"><ele>266.0</ele><time>2026-03-28T12:04:44.384Z</time></trkpt><trkpt lat="39.225051" lon="16.8174321"><ele>266.0</ele><time>2026-03-28T12:04:46.384Z</time></trkpt><trkpt lat="39.2249803" lon="16.8175573"><ele>266.0</ele><time>2026-03-28T12:04:48.384Z</time></trkpt><trkpt lat="39.2249224" lon="16.8176093"><ele>266.0</ele><time>2026-03-28T12:04:49.384Z</time></trkpt><trkpt lat="39.224847" lon="16.8176483"><ele>266.0</ele><time>2026-03-28T12:04:50.384Z</time></trkpt><trkpt lat="39.2247638" lon="16.8176793"><ele>264.0</ele><time>2026-03-28T12:04:51.384Z</time></trkpt><trkpt lat="39.2246769" lon="16.8177174"><ele>262.0</ele><time>2026-03-28T12:04:52.384Z</time></trkpt><trkpt lat="39.2245847" lon="16.8177613"><ele>260.0</ele><time>2026-03-28T12:04:53.384Z</time></trkpt><trkpt lat="39.2244907" lon="16.8177985"><ele>258.0</ele><time>2026-03-28T12:04:54.384Z</time></trkpt><trkpt lat="39.224402" lon="16.8178301"><ele>256.0</ele><time>2026-03-28T12:04:55.384Z</time></trkpt><trkpt lat="39.2243194" lon="16.8178582"><ele>256.0</ele><time>2026-03-28T12:04:56.384Z</time></trkpt><trkpt lat="39.2242496" lon="16.81788"><ele>256.0</ele><time>2026-03-28T12:04:57.384Z</time></trkpt><trkpt lat="39.2241427" lon="16.8179115"><ele>256.0</ele><time>2026-03-28T12:04:59.384Z</time></trkpt><trkpt lat="39.2240355" lon="16.817914"><ele>256.0</ele><time>2026-03-28T12:05:01.384Z</time></trkpt><trkpt lat="39.2239107" lon="16.8179007"><ele>256.0</ele><time>2026-03-28T12:05:03.384Z</time></trkpt><trkpt lat="39.2237911" lon="16.8178834"><ele>254.60000000000002</ele><time>2026-03-28T12:05:05.384Z</time></trkpt><trkpt lat="39.2236824" lon="16.8178706"><ele>253.20000000000002</ele><time>2026-03-28T12:05:07.384Z</time></trkpt><trkpt lat="39.2235756" lon="16.8178594"><ele>251.79999999999998</ele><time>2026-03-28T12:05:09.384Z</time></trkpt><trkpt lat="39.2234542" lon="16.8178603"><ele>250.39999999999998</ele><time>2026-03-28T12:05:11.385Z</time></trkpt><trkpt lat="39.2233924" lon="16.8178896"><ele>249.0</ele><time>2026-03-28T12:05:12.385Z</time></trkpt><trkpt lat="39.2233204" lon="16.8180241"><ele>249.0</ele><time>2026-03-28T12:05:14.385Z</time></trkpt><trkpt lat="39.2233246" lon="16.8181128"><ele>249.0</ele><time>2026-03-28T12:05:15.385Z</time></trkpt><trkpt lat="39.2233618" lon="16.8181977"><ele>249.0</ele><time>2026-03-28T12:05:16.386Z</time></trkpt><trkpt lat="39.2234194" lon="16.818283"><ele>249.0</ele><time>2026-03-28T12:05:17.385Z</time></trkpt><trkpt lat="39.223493" lon="16.818371"><ele>249.0</ele><time>2026-03-28T12:05:18.385Z</time></trkpt><trkpt lat="39.2235718" lon="16.8184546"><ele>249.0</ele><time>2026-03-28T12:05:19.386Z</time></trkpt><trkpt lat="39.2236498" lon="16.8185351"><ele>248.16666666666666</ele><time>2026-03-28T12:05:20.385Z</time></trkpt><trkpt lat="39.2237272" lon="16.8186078"><ele>247.33333333333331</ele><time>2026-03-28T12:05:21.385Z</time></trkpt><trkpt lat="39.2238017" lon="16.8186729"><ele>246.5</ele><time>2026-03-28T12:05:22.385Z</time></trkpt><trkpt lat="39.2238724" lon="16.8187151"><ele>245.66666666666666</ele><time>2026-03-28T12:05:23.385Z</time></trkpt><trkpt lat="39.2239684" lon="16.8187527"><ele>244.83333333333331</ele><time>2026-03-28T12:05:25.385Z</time></trkpt><trkpt lat="39.2240247" lon="16.8187977"><ele>244.0</ele><time>2026-03-28T12:05:29.385Z</time></trkpt><trkpt lat="39.2240803" lon="16.8188418"><ele>243.99999999999997</ele><time>2026-03-28T12:05:34.386Z</time></trkpt><trkpt lat="39.2241421" lon="16.8189066"><ele>244.0</ele><time>2026-03-28T12:07:47.386Z</time></trkpt><trkpt lat="39.2241684" lon="16.8189917"><ele>244.0</ele><time>2026-03-28T12:07:50.385Z</time></trkpt><trkpt lat="39.224147" lon="16.8190843"><ele>244.0</ele><time>2026-03-28T12:07:53.385Z</time></trkpt><trkpt lat="39.2241014" lon="16.8191598"><ele>243.99999999999997</ele><time>2026-03-28T12:07:55.385Z</time></trkpt><trkpt lat="39.2240164" lon="16.8192384"><ele>244.0</ele><time>2026-03-28T12:07:57.385Z</time></trkpt><trkpt lat="39.2238996" lon="16.8192923"><ele>243.49999999999997</ele><time>2026-03-28T12:07:59.385Z</time></trkpt><trkpt lat="39.2237866" lon="16.819329"><ele>243.0</ele><time>2026-03-28T12:08:01.385Z</time></trkpt><trkpt lat="39.2237015" lon="16.8193406"><ele>242.5</ele><time>2026-03-28T12:08:03.385Z</time></trkpt><trkpt lat="39.2236328" lon="16.8193326"><ele>242.0</ele><time>2026-03-28T12:08:05.385Z</time></trkpt><trkpt lat="39.2235706" lon="16.8193102"><ele>241.49999999999997</ele><time>2026-03-28T12:08:07.385Z</time></trkpt><trkpt lat="39.2234843" lon="16.8192965"><ele>241.0</ele><time>2026-03-28T12:08:09.385Z</time></trkpt><trkpt lat="39.2233911" lon="16.819342"><ele>239.49999999999997</ele><time>2026-03-28T12:08:11.385Z</time></trkpt><trkpt lat="39.2233173" lon="16.8194641"><ele>238.0</ele><time>2026-03-28T12:08:13.385Z</time></trkpt><trkpt lat="39.2232903" lon="16.8195537"><ele>236.5</ele><time>2026-03-28T12:08:14.385Z</time></trkpt><trkpt lat="39.2232654" lon="16.8196556"><ele>235.0</ele><time>2026-03-28T12:08:15.386Z</time></trkpt><trkpt lat="39.2232377" lon="16.8197568"><ele>233.49999999999997</ele><time>2026-03-28T12:08:16.385Z</time></trkpt><trkpt lat="39.2232057" lon="16.819857"><ele>232.0</ele><time>2026-03-28T12:08:17.385Z</time></trkpt><trkpt lat="39.2231725" lon="16.8199601"><ele>231.33333333333331</ele><time>2026-03-28T12:08:18.385Z</time></trkpt><trkpt lat="39.2231396" lon="16.8200608"><ele>230.66666666666666</ele><time>2026-03-28T12:08:19.385Z</time></trkpt><trkpt lat="39.2231088" lon="16.8201515"><ele>230.0</ele><time>2026-03-28T12:08:20.385Z</time></trkpt><trkpt lat="39.2230832" lon="16.8202332"><ele>229.33333333333331</ele><time>2026-03-28T12:08:21.385Z</time></trkpt><trkpt lat="39.2230598" lon="16.8203093"><ele>228.66666666666666</ele><time>2026-03-28T12:08:22.385Z</time></trkpt><trkpt lat="39.223013" lon="16.820446"><ele>228.0</ele><time>2026-03-28T12:08:24.385Z</time></trkpt><trkpt lat="39.2229473" lon="16.82059"><ele>227.57142857142856</ele><time>2026-03-28T12:08:26.385Z</time></trkpt><trkpt lat="39.2229059" lon="16.8206675"><ele>227.1428571428571</ele><time>2026-03-28T12:08:27.385Z</time></trkpt><trkpt lat="39.2228569" lon="16.820744"><ele>226.71428571428572</ele><time>2026-03-28T12:08:28.385Z</time></trkpt><trkpt lat="39.2228093" lon="16.8208134"><ele>226.28571428571428</ele><time>2026-03-28T12:08:29.385Z</time></trkpt><trkpt lat="39.2227642" lon="16.8208761"><ele>225.85714285714286</ele><time>2026-03-28T12:08:30.386Z</time></trkpt><trkpt lat="39.2227143" lon="16.8209434"><ele>225.42857142857144</ele><time>2026-03-28T12:08:31.385Z</time></trkpt><trkpt lat="39.2226618" lon="16.8210112"><ele>225.00000000000003</ele><time>2026-03-28T12:08:32.385Z</time></trkpt><trkpt lat="39.2226052" lon="16.8210746"><ele>224.16666666666666</ele><time>2026-03-28T12:08:33.385Z</time></trkpt><trkpt lat="39.2225396" lon="16.8211277"><ele>223.33333333333331</ele><time>2026-03-28T12:08:34.385Z</time></trkpt><trkpt lat="39.2224721" lon="16.8211587"><ele>222.5</ele><time>2026-03-28T12:08:35.385Z</time></trkpt><trkpt lat="39.2223971" lon="16.8211806"><ele>221.66666666666666</ele><time>2026-03-28T12:08:36.385Z</time></trkpt><trkpt lat="39.2223198" lon="16.8212076"><ele>220.83333333333331</ele><time>2026-03-28T12:08:37.385Z</time></trkpt><trkpt lat="39.2222357" lon="16.8212486"><ele>220.0</ele><time>2026-03-28T12:08:38.385Z</time></trkpt><trkpt lat="39.2221536" lon="16.8213125"><ele>220.0</ele><time>2026-03-28T12:08:39.385Z</time></trkpt><trkpt lat="39.2220844" lon="16.821394"><ele>220.0</ele><time>2026-03-28T12:08:40.385Z</time></trkpt><trkpt lat="39.2220254" lon="16.8214966"><ele>220.0</ele><time>2026-03-28T12:08:41.385Z</time></trkpt><trkpt lat="39.2219696" lon="16.8216044"><ele>220.0</ele><time>2026-03-28T12:08:42.385Z</time></trkpt><trkpt lat="39.2219149" lon="16.8217125"><ele>220.0</ele><time>2026-03-28T12:08:43.385Z</time></trkpt><trkpt lat="39.2218642" lon="16.8218149"><ele>218.83333333333331</ele><time>2026-03-28T12:08:44.385Z</time></trkpt><trkpt lat="39.2218147" lon="16.8219081"><ele>217.66666666666666</ele><time>2026-03-28T12:08:45.385Z</time></trkpt><trkpt lat="39.2217641" lon="16.8219994"><ele>216.5</ele><time>2026-03-28T12:08:46.385Z</time></trkpt><trkpt lat="39.2217151" lon="16.8220924"><ele>215.33333333333331</ele><time>2026-03-28T12:08:47.385Z</time></trkpt><trkpt lat="39.2216637" lon="16.8221917"><ele>214.16666666666666</ele><time>2026-03-28T12:08:48.385Z</time></trkpt><trkpt lat="39.2216124" lon="16.8222887"><ele>213.0</ele><time>2026-03-28T12:08:49.385Z</time></trkpt><trkpt lat="39.2215608" lon="16.8223708"><ele>213.0</ele><time>2026-03-28T12:08:50.385Z</time></trkpt><trkpt lat="39.2215035" lon="16.822448"><ele>213.0</ele><time>2026-03-28T12:08:51.385Z</time></trkpt><trkpt lat="39.2214393" lon="16.8225205"><ele>213.0</ele><time>2026-03-28T12:08:52.385Z</time></trkpt><trkpt lat="39.2213671" lon="16.8225938"><ele>213.0</ele><time>2026-03-28T12:08:53.385Z</time></trkpt><trkpt lat="39.2212888" lon="16.8226545"><ele>213.0</ele><time>2026-03-28T12:08:54.386Z</time></trkpt><trkpt lat="39.2212053" lon="16.8227063"><ele>213.0</ele><time>2026-03-28T12:08:55.385Z</time></trkpt><trkpt lat="39.2211227" lon="16.8227465"><ele>210.8</ele><time>2026-03-28T12:08:56.386Z</time></trkpt><trkpt lat="39.2210396" lon="16.8227855"><ele>208.60000000000002</ele><time>2026-03-28T12:08:57.386Z</time></trkpt><trkpt lat="39.2209562" lon="16.8228233"><ele>206.39999999999998</ele><time>2026-03-28T12:08:58.385Z</time></trkpt><trkpt lat="39.2208691" lon="16.8228659"><ele>204.2</ele><time>2026-03-28T12:08:59.385Z</time></trkpt><trkpt lat="39.2207808" lon="16.8229066"><ele>202.0</ele><time>2026-03-28T12:09:00.386Z</time></trkpt><trkpt lat="39.2206853" lon="16.8229509"><ele>201.49999999999997</ele><time>2026-03-28T12:09:01.385Z</time></trkpt><trkpt lat="39.2205923" lon="16.8229884"><ele>201.0</ele><time>2026-03-28T12:09:02.386Z</time></trkpt><trkpt lat="39.2205059" lon="16.8230263"><ele>200.5</ele><time>2026-03-28T12:09:03.385Z</time></trkpt><trkpt lat="39.2204242" lon="16.8230689"><ele>200.0</ele><time>2026-03-28T12:09:04.386Z</time></trkpt><trkpt lat="39.2203474" lon="16.8231079"><ele>199.49999999999997</ele><time>2026-03-28T12:09:05.385Z</time></trkpt><trkpt lat="39.2202712" lon="16.8231413"><ele>199.0</ele><time>2026-03-28T12:09:06.385Z</time></trkpt><trkpt lat="39.2201925" lon="16.8231794"><ele>198.99999999999997</ele><time>2026-03-28T12:09:07.385Z</time></trkpt><trkpt lat="39.2201232" lon="16.8232361"><ele>199.0</ele><time>2026-03-28T12:09:08.385Z</time></trkpt><trkpt lat="39.220075" lon="16.8233029"><ele>199.0</ele><time>2026-03-28T12:09:09.385Z</time></trkpt><trkpt lat="39.2200839" lon="16.8234338"><ele>199.0</ele><time>2026-03-28T12:09:11.385Z</time></trkpt><trkpt lat="39.2201362" lon="16.8234874"><ele>198.99999999999997</ele><time>2026-03-28T12:09:12.385Z</time></trkpt><trkpt lat="39.2202135" lon="16.823515"><ele>199.0</ele><time>2026-03-28T12:09:13.385Z</time></trkpt><trkpt lat="39.2203074" lon="16.8235241"><ele>197.83333333333331</ele><time>2026-03-28T12:09:14.385Z</time></trkpt><trkpt lat="39.2204055" lon="16.8235373"><ele>196.66666666666666</ele><time>2026-03-28T12:09:15.385Z</time></trkpt><trkpt lat="39.2204934" lon="16.8235692"><ele>195.5</ele><time>2026-03-28T12:09:16.385Z</time></trkpt><trkpt lat="39.2205629" lon="16.8236282"><ele>194.33333333333331</ele><time>2026-03-28T12:09:17.386Z</time></trkpt><trkpt lat="39.2206267" lon="16.8237008"><ele>193.16666666666666</ele><time>2026-03-28T12:09:18.385Z</time></trkpt><trkpt lat="39.2207018" lon="16.823746"><ele>192.0</ele><time>2026-03-28T12:09:19.385Z</time></trkpt><trkpt lat="39.2207871" lon="16.8237603"><ele>192.0</ele><time>2026-03-28T12:09:20.386Z</time></trkpt><trkpt lat="39.2208664" lon="16.823768"><ele>192.0</ele><time>2026-03-28T12:09:21.385Z</time></trkpt><trkpt lat="39.2209461" lon="16.8238501"><ele>192.0</ele><time>2026-03-28T12:09:23.385Z</time></trkpt><trkpt lat="39.220942" lon="16.8239424"><ele>192.0</ele><time>2026-03-28T12:09:24.385Z</time></trkpt><trkpt lat="39.2209104" lon="16.8240567"><ele>192.0</ele><time>2026-03-28T12:09:25.386Z</time></trkpt><trkpt lat="39.2208956" lon="16.8241873"><ele>192.0</ele><time>2026-03-28T12:09:26.385Z</time></trkpt><trkpt lat="39.220911" lon="16.8243025"><ele>190.0</ele><time>2026-03-28T12:09:27.385Z</time></trkpt><trkpt lat="39.2209493" lon="16.8243982"><ele>188.0</ele><time>2026-03-28T12:09:28.386Z</time></trkpt><trkpt lat="39.2210068" lon="16.8244605"><ele>186.0</ele><time>2026-03-28T12:09:29.385Z</time></trkpt><trkpt lat="39.2210854" lon="16.8244853"><ele>184.0</ele><time>2026-03-28T12:09:30.385Z</time></trkpt><trkpt lat="39.221188" lon="16.8244834"><ele>182.0</ele><time>2026-03-28T12:09:31.385Z</time></trkpt><trkpt lat="39.2213065" lon="16.8244822"><ele>182.0</ele><time>2026-03-28T12:09:32.386Z</time></trkpt><trkpt lat="39.2214255" lon="16.8244726"><ele>182.0</ele><time>2026-03-28T12:09:33.385Z</time></trkpt><trkpt lat="39.2215359" lon="16.8244488"><ele>182.0</ele><time>2026-03-28T12:09:34.385Z</time></trkpt><trkpt lat="39.2216337" lon="16.8244066"><ele>182.0</ele><time>2026-03-28T12:09:35.385Z</time></trkpt><trkpt lat="39.221723" lon="16.8243525"><ele>182.0</ele><time>2026-03-28T12:09:36.385Z</time></trkpt><trkpt lat="39.2218075" lon="16.8242976"><ele>182.0</ele><time>2026-03-28T12:09:37.385Z</time></trkpt><trkpt lat="39.2218816" lon="16.82426"><ele>182.0</ele><time>2026-03-28T12:09:38.386Z</time></trkpt><trkpt lat="39.2219597" lon="16.8242439"><ele>182.0</ele><time>2026-03-28T12:09:39.385Z</time></trkpt><trkpt lat="39.2220216" lon="16.824264"><ele>182.0</ele><time>2026-03-28T12:09:40.385Z</time></trkpt><trkpt lat="39.2220607" lon="16.8244063"><ele>182.0</ele><time>2026-03-28T12:09:42.385Z</time></trkpt><trkpt lat="39.2220367" lon="16.8244906"><ele>182.0</ele><time>2026-03-28T12:09:43.385Z</time></trkpt><trkpt lat="39.2219829" lon="16.8245677"><ele>182.0</ele><time>2026-03-28T12:09:44.385Z</time></trkpt><trkpt lat="39.2219077" lon="16.824647"><ele>182.0</ele><time>2026-03-28T12:09:45.385Z</time></trkpt><trkpt lat="39.2218245" lon="16.8247439"><ele>182.0</ele><time>2026-03-28T12:09:46.385Z</time></trkpt><trkpt lat="39.2217453" lon="16.8248414"><ele>182.0</ele><time>2026-03-28T12:09:47.385Z</time></trkpt><trkpt lat="39.2216776" lon="16.824939"><ele>182.0</ele><time>2026-03-28T12:09:48.385Z</time></trkpt><trkpt lat="39.2216193" lon="16.8250388"><ele>182.0</ele><time>2026-03-28T12:09:49.385Z</time></trkpt><trkpt lat="39.2215621" lon="16.8251298"><ele>182.0</ele><time>2026-03-28T12:09:50.385Z</time></trkpt><trkpt lat="39.2215132" lon="16.8252179"><ele>182.0</ele><time>2026-03-28T12:09:51.386Z</time></trkpt><trkpt lat="39.2214638" lon="16.8253068"><ele>182.0</ele><time>2026-03-28T12:09:52.385Z</time></trkpt><trkpt lat="39.2214151" lon="16.8253865"><ele>182.0</ele><time>2026-03-28T12:09:53.386Z</time></trkpt><trkpt lat="39.2213603" lon="16.8254709"><ele>182.0</ele><time>2026-03-28T12:09:54.386Z</time></trkpt><trkpt lat="39.221303" lon="16.8255496"><ele>181.16666666666666</ele><time>2026-03-28T12:09:55.386Z</time></trkpt><trkpt lat="39.2212402" lon="16.8256165"><ele>180.33333333333331</ele><time>2026-03-28T12:09:56.385Z</time></trkpt><trkpt lat="39.2211741" lon="16.8256821"><ele>179.5</ele><time>2026-03-28T12:09:57.386Z</time></trkpt><trkpt lat="39.2211062" lon="16.8257473"><ele>178.66666666666666</ele><time>2026-03-28T12:09:58.385Z</time></trkpt><trkpt lat="39.2210404" lon="16.8258172"><ele>177.83333333333334</ele><time>2026-03-28T12:09:59.385Z</time></trkpt><trkpt lat="39.2209788" lon="16.825882"><ele>177.0</ele><time>2026-03-28T12:10:00.385Z</time></trkpt><trkpt lat="39.2209205" lon="16.8259468"><ele>177.16666666666666</ele><time>2026-03-28T12:10:01.385Z</time></trkpt><trkpt lat="39.2208632" lon="16.8259964"><ele>177.33333333333334</ele><time>2026-03-28T12:10:02.385Z</time></trkpt><trkpt lat="39.2208054" lon="16.8260313"><ele>177.5</ele><time>2026-03-28T12:10:03.385Z</time></trkpt><trkpt lat="39.2206917" lon="16.8260767"><ele>177.66666666666669</ele><time>2026-03-28T12:10:05.385Z</time></trkpt><trkpt lat="39.2206254" lon="16.8260903"><ele>177.83333333333334</ele><time>2026-03-28T12:10:06.386Z</time></trkpt><trkpt lat="39.2205522" lon="16.826091"><ele>178.0</ele><time>2026-03-28T12:10:07.385Z</time></trkpt><trkpt lat="39.2204767" lon="16.8260673"><ele>178.0</ele><time>2026-03-28T12:10:08.386Z</time></trkpt><trkpt lat="39.2204083" lon="16.8260122"><ele>178.0</ele><time>2026-03-28T12:10:09.386Z</time></trkpt><trkpt lat="39.2203557" lon="16.8259415"><ele>178.0</ele><time>2026-03-28T12:10:10.386Z</time></trkpt><trkpt lat="39.2202965" lon="16.8258785"><ele>178.0</ele><time>2026-03-28T12:10:11.386Z</time></trkpt><trkpt lat="39.2202252" lon="16.825854"><ele>178.0</ele><time>2026-03-28T12:10:12.386Z</time></trkpt><trkpt lat="39.2201506" lon="16.8258622"><ele>178.0</ele><time>2026-03-28T12:10:13.385Z</time></trkpt><trkpt lat="39.2200767" lon="16.8258998"><ele>178.0</ele><time>2026-03-28T12:10:14.386Z</time></trkpt><trkpt lat="39.2200069" lon="16.8259676"><ele>178.0</ele><time>2026-03-28T12:10:15.385Z</time></trkpt><trkpt lat="39.2199354" lon="16.8260468"><ele>178.0</ele><time>2026-03-28T12:10:16.385Z</time></trkpt><trkpt lat="39.219867" lon="16.8261033"><ele>178.0</ele><time>2026-03-28T12:10:17.385Z</time></trkpt><trkpt lat="39.2197974" lon="16.8261235"><ele>178.0</ele><time>2026-03-28T12:10:18.385Z</time></trkpt><trkpt lat="39.2197315" lon="16.8261132"><ele>178.0</ele><time>2026-03-28T12:10:19.385Z</time></trkpt><trkpt lat="39.2196678" lon="16.826071"><ele>177.4</ele><time>2026-03-28T12:10:20.385Z</time></trkpt><trkpt lat="39.2195982" lon="16.8260064"><ele>176.8</ele><time>2026-03-28T12:10:21.385Z</time></trkpt><trkpt lat="39.2195156" lon="16.8259317"><ele>176.2</ele><time>2026-03-28T12:10:22.385Z</time></trkpt><trkpt lat="39.2194278" lon="16.8258673"><ele>175.6</ele><time>2026-03-28T12:10:23.386Z</time></trkpt><trkpt lat="39.2193414" lon="16.8258242"><ele>175.0</ele><time>2026-03-28T12:10:24.385Z</time></trkpt><trkpt lat="39.2192522" lon="16.825819"><ele>174.6</ele><time>2026-03-28T12:10:25.385Z</time></trkpt><trkpt lat="39.2191653" lon="16.8258446"><ele>174.2</ele><time>2026-03-28T12:10:26.386Z</time></trkpt><trkpt lat="39.2190768" lon="16.8258999"><ele>173.8</ele><time>2026-03-28T12:10:27.385Z</time></trkpt><trkpt lat="39.2189913" lon="16.8259738"><ele>173.4</ele><time>2026-03-28T12:10:28.385Z</time></trkpt><trkpt lat="39.2189043" lon="16.8260575"><ele>173.0</ele><time>2026-03-28T12:10:29.385Z</time></trkpt><trkpt lat="39.2188267" lon="16.8261433"><ele>172.2</ele><time>2026-03-28T12:10:30.385Z</time></trkpt><trkpt lat="39.2187526" lon="16.8262284"><ele>171.4</ele><time>2026-03-28T12:10:31.385Z</time></trkpt><trkpt lat="39.2186754" lon="16.8263106"><ele>170.6</ele><time>2026-03-28T12:10:32.385Z</time></trkpt><trkpt lat="39.2185984" lon="16.8263918"><ele>169.79999999999998</ele><time>2026-03-28T12:10:33.385Z</time></trkpt><trkpt lat="39.2185246" lon="16.8264685"><ele>169.0</ele><time>2026-03-28T12:10:34.385Z</time></trkpt><trkpt lat="39.2184557" lon="16.8265417"><ele>169.0</ele><time>2026-03-28T12:10:35.385Z</time></trkpt><trkpt lat="39.2183894" lon="16.8266118"><ele>169.0</ele><time>2026-03-28T12:10:36.385Z</time></trkpt><trkpt lat="39.2183329" lon="16.8266755"><ele>169.0</ele><time>2026-03-28T12:10:37.385Z</time></trkpt><trkpt lat="39.2182791" lon="16.8267329"><ele>169.0</ele><time>2026-03-28T12:10:38.385Z</time></trkpt><trkpt lat="39.2182318" lon="16.8267891"><ele>169.0</ele><time>2026-03-28T12:10:39.385Z</time></trkpt><trkpt lat="39.2181559" lon="16.8269128"><ele>169.0</ele><time>2026-03-28T12:10:41.386Z</time></trkpt><trkpt lat="39.218139" lon="16.8270627"><ele>168.0</ele><time>2026-03-28T12:10:43.385Z</time></trkpt><trkpt lat="39.2181686" lon="16.8271378"><ele>167.0</ele><time>2026-03-28T12:10:44.385Z</time></trkpt><trkpt lat="39.2182057" lon="16.8272185"><ele>166.0</ele><time>2026-03-28T12:10:45.385Z</time></trkpt><trkpt lat="39.2182546" lon="16.8273028"><ele>165.0</ele><time>2026-03-28T12:10:46.386Z</time></trkpt><trkpt lat="39.2183093" lon="16.8273874"><ele>164.0</ele><time>2026-03-28T12:10:47.385Z</time></trkpt><trkpt lat="39.218367" lon="16.8274723"><ele>163.0</ele><time>2026-03-28T12:10:48.386Z</time></trkpt><trkpt lat="39.2184261" lon="16.8275579"><ele>161.83333333333334</ele><time>2026-03-28T12:10:49.385Z</time></trkpt><trkpt lat="39.2184782" lon="16.827649"><ele>160.66666666666669</ele><time>2026-03-28T12:10:50.385Z</time></trkpt><trkpt lat="39.2185255" lon="16.8277493"><ele>159.5</ele><time>2026-03-28T12:10:51.386Z</time></trkpt><trkpt lat="39.2185479" lon="16.8278541"><ele>158.33333333333334</ele><time>2026-03-28T12:10:52.386Z</time></trkpt><trkpt lat="39.2185516" lon="16.8279541"><ele>157.16666666666666</ele><time>2026-03-28T12:10:53.385Z</time></trkpt><trkpt lat="39.218551" lon="16.8280449"><ele>156.0</ele><time>2026-03-28T12:10:54.386Z</time></trkpt><trkpt lat="39.2185569" lon="16.8281371"><ele>156.0</ele><time>2026-03-28T12:10:55.385Z</time></trkpt><trkpt lat="39.2185784" lon="16.8282275"><ele>156.0</ele><time>2026-03-28T12:10:56.385Z</time></trkpt><trkpt lat="39.2186049" lon="16.8283183"><ele>156.0</ele><time>2026-03-28T12:10:57.385Z</time></trkpt><trkpt lat="39.2186454" lon="16.8284024"><ele>156.0</ele><time>2026-03-28T12:10:58.385Z</time></trkpt><trkpt lat="39.2186918" lon="16.8284875"><ele>156.0</ele><time>2026-03-28T12:10:59.385Z</time></trkpt><trkpt lat="39.218746" lon="16.8285711"><ele>156.0</ele><time>2026-03-28T12:11:00.386Z</time></trkpt><trkpt lat="39.2188051" lon="16.8286563"><ele>155.5</ele><time>2026-03-28T12:11:01.386Z</time></trkpt><trkpt lat="39.2188702" lon="16.8287364"><ele>155.0</ele><time>2026-03-28T12:11:02.386Z</time></trkpt><trkpt lat="39.2189402" lon="16.8288119"><ele>154.5</ele><time>2026-03-28T12:11:03.385Z</time></trkpt><trkpt lat="39.219012" lon="16.8288758"><ele>154.0</ele><time>2026-03-28T12:11:04.386Z</time></trkpt><trkpt lat="39.2190788" lon="16.8289366"><ele>153.5</ele><time>2026-03-28T12:11:05.386Z</time></trkpt><trkpt lat="39.2191437" lon="16.8289959"><ele>153.0</ele><time>2026-03-28T12:11:06.385Z</time></trkpt><trkpt lat="39.2192044" lon="16.8290551"><ele>153.0</ele><time>2026-03-28T12:11:07.385Z</time></trkpt><trkpt lat="39.2192534" lon="16.8291211"><ele>153.0</ele><time>2026-03-28T12:11:08.386Z</time></trkpt><trkpt lat="39.2192974" lon="16.829187"><ele>153.0</ele><time>2026-03-28T12:11:09.385Z</time></trkpt><trkpt lat="39.2193364" lon="16.8292571"><ele>153.0</ele><time>2026-03-28T12:11:10.385Z</time></trkpt><trkpt lat="39.2193697" lon="16.8293296"><ele>153.0</ele><time>2026-03-28T12:11:11.386Z</time></trkpt><trkpt lat="39.2194034" lon="16.8294049"><ele>153.0</ele><time>2026-03-28T12:11:12.385Z</time></trkpt><trkpt lat="39.2194374" lon="16.8294858"><ele>153.0</ele><time>2026-03-28T12:11:13.386Z</time></trkpt><trkpt lat="39.2194814" lon="16.8295615"><ele>151.8</ele><time>2026-03-28T12:11:14.385Z</time></trkpt><trkpt lat="39.2195363" lon="16.8296229"><ele>150.60000000000002</ele><time>2026-03-28T12:11:15.385Z</time></trkpt><trkpt lat="39.2196323" lon="16.8297094"><ele>149.39999999999998</ele><time>2026-03-28T12:11:17.385Z</time></trkpt><trkpt lat="39.2196928" lon="16.8298208"><ele>148.2</ele><time>2026-03-28T12:11:19.385Z</time></trkpt><trkpt lat="39.2196681" lon="16.8299568"><ele>147.0</ele><time>2026-03-28T12:11:21.385Z</time></trkpt><trkpt lat="39.2196279" lon="16.8300236"><ele>147.0</ele><time>2026-03-28T12:11:22.385Z</time></trkpt><trkpt lat="39.219573" lon="16.8300949"><ele>147.0</ele><time>2026-03-28T12:11:23.385Z</time></trkpt><trkpt lat="39.2195063" lon="16.8301614"><ele>147.0</ele><time>2026-03-28T12:11:24.385Z</time></trkpt><trkpt lat="39.2194308" lon="16.8302158"><ele>147.0</ele><time>2026-03-28T12:11:25.385Z</time></trkpt><trkpt lat="39.2193432" lon="16.8302677"><ele>147.0</ele><time>2026-03-28T12:11:26.385Z</time></trkpt><trkpt lat="39.2192548" lon="16.8303197"><ele>147.0</ele><time>2026-03-28T12:11:27.385Z</time></trkpt><trkpt lat="39.2191825" lon="16.830366"><ele>146.66666666666666</ele><time>2026-03-28T12:11:28.385Z</time></trkpt><trkpt lat="39.2191077" lon="16.8304671"><ele>146.33333333333334</ele><time>2026-03-28T12:11:30.385Z</time></trkpt><trkpt lat="39.2190551" lon="16.8305841"><ele>146.0</ele><time>2026-03-28T12:11:32.385Z</time></trkpt><trkpt lat="39.2190163" lon="16.8306698"><ele>145.66666666666669</ele><time>2026-03-28T12:11:34.385Z</time></trkpt><trkpt lat="39.2189777" lon="16.8307475"><ele>145.33333333333334</ele><time>2026-03-28T12:11:37.385Z</time></trkpt><trkpt lat="39.2189342" lon="16.830837"><ele>145.0</ele><time>2026-03-28T12:11:40.385Z</time></trkpt><trkpt lat="39.218914" lon="16.8309143"><ele>144.0</ele><time>2026-03-28T12:11:42.385Z</time></trkpt><trkpt lat="39.2188792" lon="16.8310243"><ele>143.0</ele><time>2026-03-28T12:11:45.385Z</time></trkpt><trkpt lat="39.218847" lon="16.8311115"><ele>142.0</ele><time>2026-03-28T12:11:48.385Z</time></trkpt><trkpt lat="39.2188307" lon="16.8312092"><ele>141.0</ele><time>2026-03-28T12:11:51.385Z</time></trkpt><trkpt lat="39.2188105" lon="16.8312986"><ele>140.0</ele><time>2026-03-28T12:11:54.385Z</time></trkpt><trkpt lat="39.218783" lon="16.8313803"><ele>139.0</ele><time>2026-03-28T12:11:57.385Z</time></trkpt><trkpt lat="39.2187541" lon="16.8314612"><ele>139.0</ele><time>2026-03-28T12:12:00.385Z</time></trkpt><trkpt lat="39.2187154" lon="16.8315498"><ele>139.0</ele><time>2026-03-28T12:12:03.385Z</time></trkpt><trkpt lat="39.2186835" lon="16.8316523"><ele>139.0</ele><time>2026-03-28T12:12:06.385Z</time></trkpt><trkpt lat="39.2186555" lon="16.8317713"><ele>139.0</ele><time>2026-03-28T12:12:09.385Z</time></trkpt><trkpt lat="39.2186191" lon="16.83185"><ele>139.0</ele><time>2026-03-28T12:12:12.385Z</time></trkpt><trkpt lat="39.2185727" lon="16.8319139"><ele>139.0</ele><time>2026-03-28T12:12:17.385Z</time></trkpt><trkpt lat="39.2185363" lon="16.8319893"><ele>139.5</ele><time>2026-03-28T12:12:28.385Z</time></trkpt><trkpt lat="39.21849" lon="16.8320598"><ele>140.0</ele><time>2026-03-28T12:12:30.385Z</time></trkpt><trkpt lat="39.2184225" lon="16.8321312"><ele>140.5</ele><time>2026-03-28T12:12:33.385Z</time></trkpt><trkpt lat="39.2183586" lon="16.8321846"><ele>141.0</ele><time>2026-03-28T12:12:36.386Z</time></trkpt><trkpt lat="39.218306" lon="16.8322364"><ele>141.5</ele><time>2026-03-28T12:12:40.385Z</time></trkpt><trkpt lat="39.2182576" lon="16.8322995"><ele>142.0</ele><time>2026-03-28T12:12:46.385Z</time></trkpt><trkpt lat="39.2181847" lon="16.8323689"><ele>141.83333333333334</ele><time>2026-03-28T12:13:54.386Z</time></trkpt><trkpt lat="39.2181295" lon="16.8324592"><ele>141.66666666666669</ele><time>2026-03-28T12:13:56.385Z</time></trkpt><trkpt lat="39.2181106" lon="16.8325473"><ele>141.5</ele><time>2026-03-28T12:13:58.386Z</time></trkpt><trkpt lat="39.2181012" lon="16.8326379"><ele>141.33333333333334</ele><time>2026-03-28T12:14:01.385Z</time></trkpt><trkpt lat="39.2181205" lon="16.8327377"><ele>141.16666666666666</ele><time>2026-03-28T12:14:03.385Z</time></trkpt><trkpt lat="39.2181522" lon="16.8328375"><ele>141.0</ele><time>2026-03-28T12:14:05.385Z</time></trkpt><trkpt lat="39.2181285" lon="16.8329386"><ele>140.83333333333334</ele><time>2026-03-28T12:14:08.385Z</time></trkpt><trkpt lat="39.2180849" lon="16.8330476"><ele>140.66666666666666</ele><time>2026-03-28T12:14:24.385Z</time></trkpt><trkpt lat="39.2180644" lon="16.8331327"><ele>140.5</ele><time>2026-03-28T12:14:26.385Z</time></trkpt><trkpt lat="39.2180367" lon="16.8332304"><ele>140.33333333333331</ele><time>2026-03-28T12:14:28.385Z</time></trkpt><trkpt lat="39.2179906" lon="16.8333328"><ele>140.16666666666666</ele><time>2026-03-28T12:14:30.385Z</time></trkpt><trkpt lat="39.2179558" lon="16.8334338"><ele>140.0</ele><time>2026-03-28T12:14:32.385Z</time></trkpt><trkpt lat="39.2179582" lon="16.8335504"><ele>139.5</ele><time>2026-03-28T12:14:34.385Z</time></trkpt><trkpt lat="39.2179844" lon="16.8336499"><ele>139.0</ele><time>2026-03-28T12:14:36.385Z</time></trkpt><trkpt lat="39.2179823" lon="16.8337478"><ele>138.5</ele><time>2026-03-28T12:15:36.386Z</time></trkpt><trkpt lat="39.2179395" lon="16.8338645"><ele>138.0</ele><time>2026-03-28T12:15:38.385Z</time></trkpt><trkpt lat="39.2178901" lon="16.8339231"><ele>137.5</ele><time>2026-03-28T12:15:39.385Z</time></trkpt><trkpt lat="39.2178355" lon="16.8339811"><ele>137.0</ele><time>2026-03-28T12:15:40.385Z</time></trkpt><trkpt lat="39.2177616" lon="16.8340913"><ele>137.0</ele><time>2026-03-28T12:15:42.385Z</time></trkpt><trkpt lat="39.2177502" lon="16.834252"><ele>137.0</ele><time>2026-03-28T12:15:44.385Z</time></trkpt><trkpt lat="39.2177703" lon="16.8343561"><ele>137.0</ele><time>2026-03-28T12:15:45.386Z</time></trkpt><trkpt lat="39.2177987" lon="16.8344761"><ele>137.0</ele><time>2026-03-28T12:15:46.386Z</time></trkpt><trkpt lat="39.2178326" lon="16.83461"><ele>137.0</ele><time>2026-03-28T12:15:47.386Z</time></trkpt><trkpt lat="39.2178621" lon="16.8347441"><ele>136.83333333333331</ele><time>2026-03-28T12:15:48.386Z</time></trkpt><trkpt lat="39.2178805" lon="16.8348593"><ele>136.66666666666666</ele><time>2026-03-28T12:15:49.385Z</time></trkpt><trkpt lat="39.217896" lon="16.8349509"><ele>136.5</ele><time>2026-03-28T12:15:50.385Z</time></trkpt><trkpt lat="39.2179017" lon="16.8350746"><ele>136.33333333333334</ele><time>2026-03-28T12:15:52.386Z</time></trkpt><trkpt lat="39.2178739" lon="16.8351702"><ele>136.16666666666669</ele><time>2026-03-28T12:15:54.385Z</time></trkpt><trkpt lat="39.2178368" lon="16.8352622"><ele>136.0</ele><time>2026-03-28T12:15:56.385Z</time></trkpt><trkpt lat="39.2178228" lon="16.8353796"><ele>135.8</ele><time>2026-03-28T12:15:58.385Z</time></trkpt><trkpt lat="39.2178174" lon="16.8354975"><ele>135.6</ele><time>2026-03-28T12:16:00.385Z</time></trkpt><trkpt lat="39.2178215" lon="16.8356297"><ele>135.4</ele><time>2026-03-28T12:16:02.385Z</time></trkpt><trkpt lat="39.217828" lon="16.8357451"><ele>135.2</ele><time>2026-03-28T12:16:04.385Z</time></trkpt><trkpt lat="39.2177959" lon="16.8358468"><ele>135.0</ele><time>2026-03-28T12:16:06.386Z</time></trkpt><trkpt lat="39.2177008" lon="16.8359158"><ele>135.0</ele><time>2026-03-28T12:16:08.385Z</time></trkpt><trkpt lat="39.2176369" lon="16.8359588"><ele>135.0</ele><time>2026-03-28T12:16:09.385Z</time></trkpt><trkpt lat="39.2175722" lon="16.8360121"><ele>135.0</ele><time>2026-03-28T12:16:10.386Z</time></trkpt><trkpt lat="39.2175151" lon="16.8360653"><ele>135.0</ele><time>2026-03-28T12:16:11.386Z</time></trkpt><trkpt lat="39.2174628" lon="16.8361671"><ele>135.0</ele><time>2026-03-28T12:16:13.385Z</time></trkpt><trkpt lat="39.2175101" lon="16.836282"><ele>135.0</ele><time>2026-03-28T12:16:15.385Z</time></trkpt><trkpt lat="39.2175219" lon="16.8364388"><ele>135.2</ele><time>2026-03-28T12:16:17.385Z</time></trkpt><trkpt lat="39.2174912" lon="16.8365773"><ele>135.4</ele><time>2026-03-28T12:16:19.385Z</time></trkpt><trkpt lat="39.2174273" lon="16.8367014"><ele>135.6</ele><time>2026-03-28T12:16:21.385Z</time></trkpt><trkpt lat="39.2173532" lon="16.8368081"><ele>135.8</ele><time>2026-03-28T12:16:23.386Z</time></trkpt><trkpt lat="39.2172948" lon="16.8369148"><ele>136.0</ele><time>2026-03-28T12:16:25.385Z</time></trkpt><trkpt lat="39.2172554" lon="16.8370036"><ele>138.16666666666669</ele><time>2026-03-28T12:16:27.385Z</time></trkpt><trkpt lat="39.2172259" lon="16.8370761"><ele>140.33333333333334</ele><time>2026-03-28T12:16:29.385Z</time></trkpt><trkpt lat="39.2172077" lon="16.8371966"><ele>142.5</ele><time>2026-03-28T12:16:32.385Z</time></trkpt><trkpt lat="39.2172087" lon="16.8372915"><ele>144.66666666666666</ele><time>2026-03-28T12:16:35.386Z</time></trkpt><trkpt lat="39.2172132" lon="16.8373772"><ele>146.83333333333331</ele><time>2026-03-28T12:16:39.385Z</time></trkpt><trkpt lat="39.2172306" lon="16.8374928"><ele>149.0</ele><time>2026-03-28T12:16:56.385Z</time></trkpt><trkpt lat="39.2172585" lon="16.837599"><ele>150.16666666666666</ele><time>2026-03-28T12:16:59.385Z</time></trkpt><trkpt lat="39.2172513" lon="16.8376944"><ele>151.33333333333331</ele><time>2026-03-28T12:17:03.385Z</time></trkpt><trkpt lat="39.2172419" lon="16.8377769"><ele>152.5</ele><time>2026-03-28T12:17:09.385Z</time></trkpt><trkpt lat="39.2172678" lon="16.8378802"><ele>153.66666666666666</ele><time>2026-03-28T12:17:15.386Z</time></trkpt><trkpt lat="39.2173157" lon="16.8379469"><ele>154.83333333333334</ele><time>2026-03-28T12:17:17.386Z</time></trkpt><trkpt lat="39.2173617" lon="16.8380429"><ele>156.0</ele><time>2026-03-28T12:17:19.386Z</time></trkpt><trkpt lat="39.2174078" lon="16.8381559"><ele>152.5</ele><time>2026-03-28T12:17:21.386Z</time></trkpt><trkpt lat="39.2174766" lon="16.838248"><ele>149.0</ele><time>2026-03-28T12:17:23.387Z</time></trkpt><trkpt lat="39.2175314" lon="16.8383274"><ele>145.5</ele><time>2026-03-28T12:17:25.386Z</time></trkpt><trkpt lat="39.2175504" lon="16.838433"><ele>142.0</ele><time>2026-03-28T12:17:27.387Z</time></trkpt><trkpt lat="39.217607" lon="16.838501"><ele>138.5</ele><time>2026-03-28T12:17:29.387Z</time></trkpt><trkpt lat="39.2176839" lon="16.8385456"><ele>135.0</ele><time>2026-03-28T12:17:31.386Z</time></trkpt><trkpt lat="39.2177488" lon="16.8385931"><ele>135.0</ele><time>2026-03-28T12:17:33.386Z</time></trkpt><trkpt lat="39.2178071" lon="16.838625"><ele>135.0</ele><time>2026-03-28T12:17:36.386Z</time></trkpt><trkpt lat="39.2179" lon="16.8386205"><ele>135.0</ele><time>2026-03-28T12:17:48.386Z</time></trkpt><trkpt lat="39.2179684" lon="16.8386278"><ele>135.0</ele><time>2026-03-28T12:17:53.386Z</time></trkpt><trkpt lat="39.2180404" lon="16.8386296"><ele>135.0</ele><time>2026-03-28T12:18:02.387Z</time></trkpt><trkpt lat="39.2181115" lon="16.8386355"><ele>135.0</ele><time>2026-03-28T12:18:07.386Z</time></trkpt><trkpt lat="39.2181838" lon="16.8387251"><ele>135.0</ele><time>2026-03-28T12:18:24.387Z</time></trkpt><trkpt lat="39.2182094" lon="16.8388032"><ele>135.0</ele><time>2026-03-28T12:18:27.386Z</time></trkpt><trkpt lat="39.2182466" lon="16.8388807"><ele>135.0</ele><time>2026-03-28T12:18:31.387Z</time></trkpt><trkpt lat="39.2182591" lon="16.83897"><ele>135.0</ele><time>2026-03-28T12:18:37.386Z</time></trkpt><trkpt lat="39.2182369" lon="16.8390476"><ele>135.0</ele><time>2026-03-28T12:18:42.387Z</time></trkpt><trkpt lat="39.21822" lon="16.8391352"><ele>135.0</ele><time>2026-03-28T12:18:48.386Z</time></trkpt><trkpt lat="39.2182346" lon="16.8392236"><ele>135.0</ele><time>2026-03-28T12:18:54.386Z</time></trkpt><trkpt lat="39.2182214" lon="16.8393349"><ele>135.0</ele><time>2026-03-28T12:19:16.386Z</time></trkpt><trkpt lat="39.2182221" lon="16.8394292"><ele>135.0</ele><time>2026-03-28T12:19:20.386Z</time></trkpt><trkpt lat="39.218275" lon="16.83951"><ele>135.0</ele><time>2026-03-28T12:19:24.386Z</time></trkpt><trkpt lat="39.21834" lon="16.839565"><ele>135.0</ele><time>2026-03-28T12:19:27.386Z</time></trkpt><trkpt lat="39.2184" lon="16.8396083"><ele>135.0</ele><time>2026-03-28T12:19:30.386Z</time></trkpt><trkpt lat="39.2184583" lon="16.8396417"><ele>135.0</ele><time>2026-03-28T12:19:33.386Z</time></trkpt><trkpt lat="39.2185217" lon="16.8396367"><ele>135.0</ele><time>2026-03-28T12:19:37.387Z</time></trkpt><trkpt lat="39.2185717" lon="16.8396967"><ele>135.0</ele><time>2026-03-28T12:19:42.387Z</time></trkpt><trkpt lat="39.2186467" lon="16.839795"><ele>135.0</ele><time>2026-03-28T12:19:53.386Z</time></trkpt><trkpt lat="39.2186817" lon="16.8398633"><ele>135.0</ele><time>2026-03-28T12:19:59.386Z</time></trkpt><trkpt lat="39.2186317" lon="16.8399217"><ele>135.0</ele><time>2026-03-28T12:20:06.386Z</time></trkpt><trkpt lat="39.2185933" lon="16.84001"><ele>135.0</ele><time>2026-03-28T12:20:10.386Z</time></trkpt><trkpt lat="39.218575" lon="16.8400983"><ele>135.0</ele><time>2026-03-28T12:20:13.386Z</time></trkpt><trkpt lat="39.2185717" lon="16.84018"><ele>138.33333333333334</ele><time>2026-03-28T12:20:18.386Z</time></trkpt><trkpt lat="39.218595" lon="16.84026"><ele>141.66666666666666</ele><time>2026-03-28T12:20:19.386Z</time></trkpt><trkpt lat="39.2186333" lon="16.8403617"><ele>145.0</ele><time>2026-03-28T12:20:20.386Z</time></trkpt><trkpt lat="39.2186833" lon="16.8404617"><ele>148.33333333333331</ele><time>2026-03-28T12:20:21.387Z</time></trkpt><trkpt lat="39.2187433" lon="16.8405483"><ele>151.66666666666666</ele><time>2026-03-28T12:20:22.386Z</time></trkpt><trkpt lat="39.21881" lon="16.8406283"><ele>155.0</ele><time>2026-03-28T12:20:23.386Z</time></trkpt><trkpt lat="39.218875" lon="16.8406933"><ele>155.0</ele><time>2026-03-28T12:20:24.386Z</time></trkpt><trkpt lat="39.2189283" lon="16.8407617"><ele>155.0</ele><time>2026-03-28T12:20:25.387Z</time></trkpt><trkpt lat="39.2189817" lon="16.84081"><ele>155.0</ele><time>2026-03-28T12:20:26.386Z</time></trkpt><trkpt lat="39.2190467" lon="16.8408617"><ele>155.0</ele><time>2026-03-28T12:20:28.386Z</time></trkpt><trkpt lat="39.2191233" lon="16.8408733"><ele>155.0</ele><time>2026-03-28T12:20:30.386Z</time></trkpt><trkpt lat="39.2191967" lon="16.840875"><ele>155.0</ele><time>2026-03-28T12:20:32.387Z</time></trkpt><trkpt lat="39.2192567" lon="16.84092"><ele>155.0</ele><time>2026-03-28T12:20:35.386Z</time></trkpt><trkpt lat="39.2193" lon="16.8409967"><ele>154.16666666666666</ele><time>2026-03-28T12:20:38.386Z</time></trkpt><trkpt lat="39.2193633" lon="16.8410567"><ele>153.33333333333331</ele><time>2026-03-28T12:20:41.386Z</time></trkpt><trkpt lat="39.2194283" lon="16.8411233"><ele>152.5</ele><time>2026-03-28T12:20:44.387Z</time></trkpt><trkpt lat="39.219475" lon="16.8411817"><ele>151.66666666666666</ele><time>2026-03-28T12:20:49.386Z</time></trkpt><trkpt lat="39.219535" lon="16.84127"><ele>150.83333333333334</ele><time>2026-03-28T12:20:57.387Z</time></trkpt><trkpt lat="39.2195583" lon="16.8413733"><ele>150.0</ele><time>2026-03-28T12:21:00.386Z</time></trkpt><trkpt lat="39.2195767" lon="16.841455"><ele>149.99999999999997</ele><time>2026-03-28T12:21:02.386Z</time></trkpt><trkpt lat="39.2196167" lon="16.8415317"><ele>150.0</ele><time>2026-03-28T12:21:04.387Z</time></trkpt><trkpt lat="39.2196567" lon="16.841625"><ele>150.0</ele><time>2026-03-28T12:21:07.387Z</time></trkpt><trkpt lat="39.2196667" lon="16.8417183"><ele>150.0</ele><time>2026-03-28T12:21:11.387Z</time></trkpt><trkpt lat="39.2196983" lon="16.8417933"><ele>150.0</ele><time>2026-03-28T12:21:15.386Z</time></trkpt><trkpt lat="39.219745" lon="16.8418583"><ele>149.99999999999997</ele><time>2026-03-28T12:21:18.386Z</time></trkpt><trkpt lat="39.2197833" lon="16.8419317"><ele>150.0</ele><time>2026-03-28T12:21:21.386Z</time></trkpt><trkpt lat="39.2198233" lon="16.842005"><ele>148.42857142857142</ele><time>2026-03-28T12:21:23.386Z</time></trkpt><trkpt lat="39.2198733" lon="16.8420733"><ele>146.85714285714286</ele><time>2026-03-28T12:21:25.386Z</time></trkpt><trkpt lat="39.2199117" lon="16.84214"><ele>145.28571428571428</ele><time>2026-03-28T12:21:27.386Z</time></trkpt><trkpt lat="39.2199767" lon="16.8421917"><ele>143.71428571428572</ele><time>2026-03-28T12:21:31.386Z</time></trkpt><trkpt lat="39.2200317" lon="16.8422383"><ele>142.14285714285714</ele><time>2026-03-28T12:21:36.387Z</time></trkpt><trkpt lat="39.2201" lon="16.8422667"><ele>140.57142857142856</ele><time>2026-03-28T12:21:42.386Z</time></trkpt><trkpt lat="39.220165" lon="16.8422767"><ele>139.0</ele><time>2026-03-28T12:21:45.386Z</time></trkpt><trkpt lat="39.2202383" lon="16.8422933"><ele>139.0</ele><time>2026-03-28T12:21:48.386Z</time></trkpt><trkpt lat="39.2203133" lon="16.84232"><ele>139.0</ele><time>2026-03-28T12:21:50.387Z</time></trkpt><trkpt lat="39.2203683" lon="16.8423817"><ele>139.0</ele><time>2026-03-28T12:21:52.386Z</time></trkpt><trkpt lat="39.2204383" lon="16.842425"><ele>139.0</ele><time>2026-03-28T12:21:55.386Z</time></trkpt><trkpt lat="39.2204883" lon="16.8424833"><ele>139.0</ele><time>2026-03-28T12:21:59.387Z</time></trkpt><trkpt lat="39.2205333" lon="16.8425617"><ele>139.0</ele><time>2026-03-28T12:22:18.387Z</time></trkpt><trkpt lat="39.22057" lon="16.8426333"><ele>139.0</ele><time>2026-03-28T12:22:21.386Z</time></trkpt><trkpt lat="39.22061" lon="16.8427133"><ele>139.2</ele><time>2026-03-28T12:22:27.386Z</time></trkpt><trkpt lat="39.2206467" lon="16.8427933"><ele>139.4</ele><time>2026-03-28T12:22:30.387Z</time></trkpt><trkpt lat="39.2206817" lon="16.8428667"><ele>139.6</ele><time>2026-03-28T12:22:33.387Z</time></trkpt><trkpt lat="39.22074" lon="16.8429933"><ele>139.8</ele><time>2026-03-28T12:23:35.386Z</time></trkpt><trkpt lat="39.2206683" lon="16.84314"><ele>140.0</ele><time>2026-03-28T12:24:01.387Z</time></trkpt><trkpt lat="39.2206483" lon="16.8432283"><ele>141.0</ele><time>2026-03-28T12:24:07.387Z</time></trkpt><trkpt lat="39.22062" lon="16.84331"><ele>142.0</ele><time>2026-03-28T12:24:13.386Z</time></trkpt><trkpt lat="39.2206833" lon="16.843485"><ele>143.0</ele><time>2026-03-28T12:27:04.386Z</time></trkpt><trkpt lat="39.2206633" lon="16.8435817"><ele>144.0</ele><time>2026-03-28T12:27:10.386Z</time></trkpt><trkpt lat="39.22065" lon="16.843665"><ele>145.0</ele><time>2026-03-28T12:27:14.386Z</time></trkpt><trkpt lat="39.220715" lon="16.8437883"><ele>143.0</ele><time>2026-03-28T12:27:34.387Z</time></trkpt><trkpt lat="39.2207733" lon="16.84384"><ele>141.0</ele><time>2026-03-28T12:27:39.386Z</time></trkpt><trkpt lat="39.220815" lon="16.843915"><ele>139.0</ele><time>2026-03-28T12:27:44.386Z</time></trkpt><trkpt lat="39.2208283" lon="16.8440017"><ele>137.0</ele><time>2026-03-28T12:27:48.386Z</time></trkpt><trkpt lat="39.220825" lon="16.8441167"><ele>135.0</ele><time>2026-03-28T12:27:52.386Z</time></trkpt><trkpt lat="39.2208317" lon="16.844215"><ele>133.0</ele><time>2026-03-28T12:27:55.386Z</time></trkpt><trkpt lat="39.2208783" lon="16.8442983"><ele>133.0</ele><time>2026-03-28T12:27:58.387Z</time></trkpt><trkpt lat="39.2209133" lon="16.8443667"><ele>133.0</ele><time>2026-03-28T12:28:00.386Z</time></trkpt><trkpt lat="39.22094" lon="16.8444417"><ele>133.0</ele><time>2026-03-28T12:28:02.386Z</time></trkpt><trkpt lat="39.220935" lon="16.8445283"><ele>133.0</ele><time>2026-03-28T12:28:05.386Z</time></trkpt><trkpt lat="39.2209117" lon="16.8446217"><ele>133.0</ele><time>2026-03-28T12:28:09.386Z</time></trkpt><trkpt lat="39.2209167" lon="16.8447083"><ele>133.0</ele><time>2026-03-28T12:28:12.387Z</time></trkpt><trkpt lat="39.2209567" lon="16.844785"><ele>133.0</ele><time>2026-03-28T12:28:15.386Z</time></trkpt><trkpt lat="39.2210233" lon="16.8448267"><ele>133.0</ele><time>2026-03-28T12:28:18.386Z</time></trkpt><trkpt lat="39.2210817" lon="16.8448583"><ele>133.0</ele><time>2026-03-28T12:28:21.387Z</time></trkpt><trkpt lat="39.22115" lon="16.8448917"><ele>133.0</ele><time>2026-03-28T12:28:24.386Z</time></trkpt><trkpt lat="39.22123" lon="16.8448817"><ele>133.0</ele><time>2026-03-28T12:28:28.386Z</time></trkpt><trkpt lat="39.221295" lon="16.8448867"><ele>133.0</ele><time>2026-03-28T12:28:31.386Z</time></trkpt><trkpt lat="39.221365" lon="16.8448933"><ele>133.0</ele><time>2026-03-28T12:28:34.387Z</time></trkpt><trkpt lat="39.2214267" lon="16.8449133"><ele>133.0</ele><time>2026-03-28T12:28:36.386Z</time></trkpt><trkpt lat="39.2215167" lon="16.8449483"><ele>132.33333333333334</ele><time>2026-03-28T12:28:39.386Z</time></trkpt><trkpt lat="39.2215867" lon="16.8449933"><ele>131.66666666666669</ele><time>2026-03-28T12:28:42.386Z</time></trkpt><trkpt lat="39.2216867" lon="16.8449983"><ele>131.0</ele><time>2026-03-28T12:28:45.386Z</time></trkpt><trkpt lat="39.221755" lon="16.8450033"><ele>130.33333333333334</ele><time>2026-03-28T12:28:47.386Z</time></trkpt><trkpt lat="39.2218233" lon="16.845035"><ele>129.66666666666666</ele><time>2026-03-28T12:28:49.386Z</time></trkpt><trkpt lat="39.22188" lon="16.84508"><ele>129.0</ele><time>2026-03-28T12:28:51.386Z</time></trkpt><trkpt lat="39.2219333" lon="16.84514"><ele>131.6</ele><time>2026-03-28T12:28:53.386Z</time></trkpt><trkpt lat="39.2219883" lon="16.845205"><ele>134.2</ele><time>2026-03-28T12:28:55.387Z</time></trkpt><trkpt lat="39.2220633" lon="16.845275"><ele>136.79999999999998</ele><time>2026-03-28T12:28:57.387Z</time></trkpt><trkpt lat="39.222145" lon="16.8453417"><ele>139.4</ele><time>2026-03-28T12:28:59.387Z</time></trkpt><trkpt lat="39.22223" lon="16.845395"><ele>142.0</ele><time>2026-03-28T12:29:01.387Z</time></trkpt><trkpt lat="39.2223117" lon="16.84546"><ele>139.83333333333334</ele><time>2026-03-28T12:29:03.386Z</time></trkpt><trkpt lat="39.2223783" lon="16.8455167"><ele>137.66666666666669</ele><time>2026-03-28T12:29:05.386Z</time></trkpt><trkpt lat="39.2224567" lon="16.8455383"><ele>135.5</ele><time>2026-03-28T12:29:08.386Z</time></trkpt><trkpt lat="39.2225267" lon="16.8456783"><ele>133.33333333333334</ele><time>2026-03-28T12:29:23.386Z</time></trkpt><trkpt lat="39.2225283" lon="16.845765"><ele>131.16666666666666</ele><time>2026-03-28T12:29:28.387Z</time></trkpt><trkpt lat="39.2225733" lon="16.8458367"><ele>129.0</ele><time>2026-03-28T12:29:32.386Z</time></trkpt><trkpt lat="39.2226383" lon="16.8458633"><ele>129.0</ele><time>2026-03-28T12:29:36.387Z</time></trkpt><trkpt lat="39.2227083" lon="16.845885"><ele>129.0</ele><time>2026-03-28T12:29:40.386Z</time></trkpt><trkpt lat="39.22278" lon="16.84595"><ele>129.0</ele><time>2026-03-28T12:29:44.387Z</time></trkpt><trkpt lat="39.2228233" lon="16.846055"><ele>129.0</ele><time>2026-03-28T12:29:47.386Z</time></trkpt><trkpt lat="39.2228767" lon="16.8461233"><ele>129.0</ele><time>2026-03-28T12:29:49.386Z</time></trkpt><trkpt lat="39.22295" lon="16.8461883"><ele>129.0</ele><time>2026-03-28T12:29:51.387Z</time></trkpt><trkpt lat="39.2230217" lon="16.8462817"><ele>128.83333333333334</ele><time>2026-03-28T12:29:53.386Z</time></trkpt><trkpt lat="39.2230667" lon="16.8463933"><ele>128.66666666666666</ele><time>2026-03-28T12:29:55.386Z</time></trkpt><trkpt lat="39.2231017" lon="16.8465"><ele>128.5</ele><time>2026-03-28T12:29:57.386Z</time></trkpt><trkpt lat="39.22312" lon="16.8466067"><ele>128.33333333333331</ele><time>2026-03-28T12:29:59.386Z</time></trkpt><trkpt lat="39.2231167" lon="16.8466917"><ele>128.16666666666666</ele><time>2026-03-28T12:30:01.387Z</time></trkpt><trkpt lat="39.223085" lon="16.8468"><ele>128.0</ele><time>2026-03-28T12:30:04.387Z</time></trkpt><trkpt lat="39.2230417" lon="16.8468633"><ele>127.99999999999999</ele><time>2026-03-28T12:30:06.386Z</time></trkpt><trkpt lat="39.2230067" lon="16.8469317"><ele>128.0</ele><time>2026-03-28T12:30:09.386Z</time></trkpt><trkpt lat="39.2229683" lon="16.847035"><ele>128.0</ele><time>2026-03-28T12:30:12.386Z</time></trkpt><trkpt lat="39.2229567" lon="16.84714"><ele>128.0</ele><time>2026-03-28T12:30:15.386Z</time></trkpt><trkpt lat="39.22289" lon="16.8472583"><ele>127.99999999999999</ele><time>2026-03-28T12:30:28.387Z</time></trkpt><trkpt lat="39.22285" lon="16.8473317"><ele>128.0</ele><time>2026-03-28T12:30:33.387Z</time></trkpt><trkpt lat="39.222805" lon="16.84739"><ele>128.0</ele><time>2026-03-28T12:30:39.387Z</time></trkpt><trkpt lat="39.2227217" lon="16.847415"><ele>127.99999999999999</ele><time>2026-03-28T12:30:43.386Z</time></trkpt><trkpt lat="39.22265" lon="16.847405"><ele>128.0</ele><time>2026-03-28T12:30:47.387Z</time></trkpt><trkpt lat="39.222585" lon="16.8474167"><ele>128.0</ele><time>2026-03-28T12:30:51.387Z</time></trkpt><trkpt lat="39.2225183" lon="16.8474483"><ele>127.99999999999999</ele><time>2026-03-28T12:30:55.386Z</time></trkpt><trkpt lat="39.2224683" lon="16.8475117"><ele>128.0</ele><time>2026-03-28T12:30:59.386Z</time></trkpt><trkpt lat="39.2225" lon="16.8476"><ele>128.0</ele><time>2026-03-28T12:31:03.386Z</time></trkpt><trkpt lat="39.2225633" lon="16.84769"><ele>127.85714285714285</ele><time>2026-03-28T12:31:06.386Z</time></trkpt><trkpt lat="39.2226017" lon="16.8477833"><ele>127.7142857142857</ele><time>2026-03-28T12:31:08.386Z</time></trkpt><trkpt lat="39.22261" lon="16.8478917"><ele>127.57142857142857</ele><time>2026-03-28T12:31:10.386Z</time></trkpt><trkpt lat="39.22259" lon="16.8479933"><ele>127.42857142857142</ele><time>2026-03-28T12:31:12.387Z</time></trkpt><trkpt lat="39.222565" lon="16.84807"><ele>127.28571428571428</ele><time>2026-03-28T12:31:14.387Z</time></trkpt><trkpt lat="39.2225867" lon="16.8481517"><ele>127.14285714285714</ele><time>2026-03-28T12:31:16.386Z</time></trkpt><trkpt lat="39.22262" lon="16.8482317"><ele>127.0</ele><time>2026-03-28T12:31:18.386Z</time></trkpt><trkpt lat="39.2226483" lon="16.8483083"><ele>127.00000000000001</ele><time>2026-03-28T12:31:20.386Z</time></trkpt><trkpt lat="39.2226833" lon="16.8484033"><ele>127.0</ele><time>2026-03-28T12:31:22.386Z</time></trkpt><trkpt lat="39.2227017" lon="16.8485117"><ele>127.0</ele><time>2026-03-28T12:31:25.386Z</time></trkpt><trkpt lat="39.222715" lon="16.8485967"><ele>127.0</ele><time>2026-03-28T12:31:27.386Z</time></trkpt><trkpt lat="39.2227217" lon="16.8486883"><ele>127.00000000000001</ele><time>2026-03-28T12:31:29.386Z</time></trkpt><trkpt lat="39.22274" lon="16.848795"><ele>127.0</ele><time>2026-03-28T12:31:32.386Z</time></trkpt><trkpt lat="39.22279" lon="16.8488483"><ele>128.57142857142858</ele><time>2026-03-28T12:31:35.387Z</time></trkpt><trkpt lat="39.2228433" lon="16.8489067"><ele>130.14285714285714</ele><time>2026-03-28T12:31:40.386Z</time></trkpt><trkpt lat="39.222885" lon="16.8489733"><ele>131.71428571428572</ele><time>2026-03-28T12:31:44.387Z</time></trkpt><trkpt lat="39.2229367" lon="16.8490617"><ele>133.28571428571428</ele><time>2026-03-28T12:31:54.387Z</time></trkpt><trkpt lat="39.2229883" lon="16.8491217"><ele>134.85714285714286</ele><time>2026-03-28T12:32:00.386Z</time></trkpt><trkpt lat="39.2230083" lon="16.8492233"><ele>136.42857142857144</ele><time>2026-03-28T12:32:05.387Z</time></trkpt><trkpt lat="39.22304" lon="16.8493117"><ele>138.0</ele><time>2026-03-28T12:32:08.386Z</time></trkpt><trkpt lat="39.2230683" lon="16.8493917"><ele>136.0</ele><time>2026-03-28T12:32:11.386Z</time></trkpt><trkpt lat="39.223015" lon="16.84946"><ele>134.0</ele><time>2026-03-28T12:32:14.386Z</time></trkpt><trkpt lat="39.2229783" lon="16.8495317"><ele>132.0</ele><time>2026-03-28T12:32:16.386Z</time></trkpt><trkpt lat="39.2229933" lon="16.8496367"><ele>130.0</ele><time>2026-03-28T12:32:18.386Z</time></trkpt><trkpt lat="39.22304" lon="16.8497267"><ele>128.0</ele><time>2026-03-28T12:32:20.386Z</time></trkpt><trkpt lat="39.2231133" lon="16.8497833"><ele>126.0</ele><time>2026-03-28T12:32:22.386Z</time></trkpt><trkpt lat="39.22319" lon="16.849825"><ele>126.0</ele><time>2026-03-28T12:32:24.386Z</time></trkpt><trkpt lat="39.22326" lon="16.8499017"><ele>126.0</ele><time>2026-03-28T12:32:26.386Z</time></trkpt><trkpt lat="39.2233083" lon="16.8499917"><ele>126.0</ele><time>2026-03-28T12:32:28.387Z</time></trkpt><trkpt lat="39.2233667" lon="16.8500717"><ele>126.0</ele><time>2026-03-28T12:32:30.386Z</time></trkpt><trkpt lat="39.2234117" lon="16.8501667"><ele>126.0</ele><time>2026-03-28T12:32:32.386Z</time></trkpt><trkpt lat="39.223445" lon="16.8502717"><ele>126.0</ele><time>2026-03-28T12:32:34.386Z</time></trkpt><trkpt lat="39.2234583" lon="16.8503717"><ele>126.16666666666667</ele><time>2026-03-28T12:32:36.386Z</time></trkpt><trkpt lat="39.2234833" lon="16.850475"><ele>126.33333333333334</ele><time>2026-03-28T12:32:39.387Z</time></trkpt><trkpt lat="39.2235233" lon="16.8505483"><ele>126.5</ele><time>2026-03-28T12:32:44.386Z</time></trkpt><trkpt lat="39.2235517" lon="16.8506333"><ele>126.66666666666667</ele><time>2026-03-28T12:32:55.386Z</time></trkpt><trkpt lat="39.2235367" lon="16.85073"><ele>126.83333333333334</ele><time>2026-03-28T12:33:00.387Z</time></trkpt><trkpt lat="39.2235233" lon="16.85082"><ele>127.0</ele><time>2026-03-28T12:33:04.388Z</time></trkpt><trkpt lat="39.223515" lon="16.8509217"><ele>125.8</ele><time>2026-03-28T12:33:08.387Z</time></trkpt><trkpt lat="39.2235067" lon="16.8510317"><ele>124.6</ele><time>2026-03-28T12:33:11.387Z</time></trkpt><trkpt lat="39.2235133" lon="16.8511383"><ele>123.39999999999999</ele><time>2026-03-28T12:33:14.387Z</time></trkpt><trkpt lat="39.2235083" lon="16.8512533"><ele>122.19999999999999</ele><time>2026-03-28T12:33:21.387Z</time></trkpt><trkpt lat="39.2234967" lon="16.8513683"><ele>121.0</ele><time>2026-03-28T12:33:23.387Z</time></trkpt><trkpt lat="39.223495" lon="16.8515067"><ele>121.0</ele><time>2026-03-28T12:33:25.387Z</time></trkpt><trkpt lat="39.223505" lon="16.85165"><ele>121.0</ele><time>2026-03-28T12:33:27.387Z</time></trkpt><trkpt lat="39.2235017" lon="16.8517783"><ele>121.0</ele><time>2026-03-28T12:33:29.387Z</time></trkpt><trkpt lat="39.2234867" lon="16.851895"><ele>121.0</ele><time>2026-03-28T12:33:31.387Z</time></trkpt><trkpt lat="39.2234817" lon="16.8520267"><ele>121.0</ele><time>2026-03-28T12:33:33.388Z</time></trkpt><trkpt lat="39.2234733" lon="16.8521433"><ele>120.00000000000001</ele><time>2026-03-28T12:33:35.387Z</time></trkpt><trkpt lat="39.22346" lon="16.8522383"><ele>119.0</ele><time>2026-03-28T12:33:37.387Z</time></trkpt><trkpt lat="39.2234367" lon="16.852325"><ele>118.0</ele><time>2026-03-28T12:33:39.387Z</time></trkpt><trkpt lat="39.2234133" lon="16.8524383"><ele>117.0</ele><time>2026-03-28T12:33:41.387Z</time></trkpt><trkpt lat="39.2233717" lon="16.8525367"><ele>116.00000000000001</ele><time>2026-03-28T12:33:43.387Z</time></trkpt><trkpt lat="39.2233317" lon="16.85264"><ele>115.0</ele><time>2026-03-28T12:33:46.387Z</time></trkpt><trkpt lat="39.223295" lon="16.8527133"><ele>114.66666666666667</ele><time>2026-03-28T12:33:48.387Z</time></trkpt><trkpt lat="39.22327" lon="16.8527883"><ele>114.33333333333334</ele><time>2026-03-28T12:33:50.387Z</time></trkpt><trkpt lat="39.223245" lon="16.8528683"><ele>114.0</ele><time>2026-03-28T12:33:52.387Z</time></trkpt><trkpt lat="39.2232067" lon="16.852955"><ele>113.66666666666666</ele><time>2026-03-28T12:33:54.387Z</time></trkpt><trkpt lat="39.2231683" lon="16.8530483"><ele>113.33333333333333</ele><time>2026-03-28T12:33:56.387Z</time></trkpt><trkpt lat="39.2231317" lon="16.8531617"><ele>113.0</ele><time>2026-03-28T12:33:58.387Z</time></trkpt><trkpt lat="39.2230783" lon="16.8532883"><ele>113.4</ele><time>2026-03-28T12:34:00.387Z</time></trkpt><trkpt lat="39.2230267" lon="16.8534133"><ele>113.80000000000001</ele><time>2026-03-28T12:34:02.387Z</time></trkpt><trkpt lat="39.2229817" lon="16.853555"><ele>114.2</ele><time>2026-03-28T12:34:04.387Z</time></trkpt><trkpt lat="39.2229317" lon="16.8536817"><ele>114.6</ele><time>2026-03-28T12:34:06.388Z</time></trkpt><trkpt lat="39.2228783" lon="16.8537883"><ele>115.0</ele><time>2026-03-28T12:34:08.387Z</time></trkpt><trkpt lat="39.2228333" lon="16.8538833"><ele>114.99999999999999</ele><time>2026-03-28T12:34:10.387Z</time></trkpt><trkpt lat="39.222785" lon="16.8539533"><ele>115.0</ele><time>2026-03-28T12:34:12.387Z</time></trkpt><trkpt lat="39.2227467" lon="16.8540183"><ele>114.99999999999999</ele><time>2026-03-28T12:34:14.388Z</time></trkpt><trkpt lat="39.2227033" lon="16.854095"><ele>114.99999999999999</ele><time>2026-03-28T12:34:17.387Z</time></trkpt><trkpt lat="39.2226467" lon="16.8541767"><ele>115.0</ele><time>2026-03-28T12:34:20.387Z</time></trkpt><trkpt lat="39.2225867" lon="16.8542467"><ele>114.99999999999999</ele><time>2026-03-28T12:35:17.387Z</time></trkpt><trkpt lat="39.2225367" lon="16.8542983"><ele>114.99999999999999</ele><time>2026-03-28T12:35:19.387Z</time></trkpt><trkpt lat="39.2224733" lon="16.85436"><ele>114.33333333333334</ele><time>2026-03-28T12:35:22.387Z</time></trkpt><trkpt lat="39.2224067" lon="16.8544417"><ele>113.66666666666667</ele><time>2026-03-28T12:35:28.387Z</time></trkpt><trkpt lat="39.2223667" lon="16.85454"><ele>113.0</ele><time>2026-03-28T12:35:31.387Z</time></trkpt><trkpt lat="39.2223217" lon="16.8546167"><ele>112.33333333333334</ele><time>2026-03-28T12:35:34.387Z</time></trkpt><trkpt lat="39.222275" lon="16.8546833"><ele>111.66666666666667</ele><time>2026-03-28T12:35:37.387Z</time></trkpt><trkpt lat="39.222215" lon="16.8547433"><ele>111.0</ele><time>2026-03-28T12:35:40.388Z</time></trkpt><trkpt lat="39.2221717" lon="16.8548383"><ele>110.66666666666667</ele><time>2026-03-28T12:35:47.388Z</time></trkpt><trkpt lat="39.2221233" lon="16.8549233"><ele>110.33333333333334</ele><time>2026-03-28T12:35:50.387Z</time></trkpt><trkpt lat="39.22208" lon="16.855025"><ele>110.0</ele><time>2026-03-28T12:35:53.387Z</time></trkpt><trkpt lat="39.2220367" lon="16.8551333"><ele>109.66666666666667</ele><time>2026-03-28T12:35:56.387Z</time></trkpt><trkpt lat="39.2220167" lon="16.8552183"><ele>109.33333333333334</ele><time>2026-03-28T12:35:58.387Z</time></trkpt><trkpt lat="39.222" lon="16.8553217"><ele>109.0</ele><time>2026-03-28T12:36:01.388Z</time></trkpt><trkpt lat="39.221975" lon="16.855415"><ele>109.00000000000001</ele><time>2026-03-28T12:36:08.387Z</time></trkpt><trkpt lat="39.2219567" lon="16.8555217"><ele>109.0</ele><time>2026-03-28T12:36:11.387Z</time></trkpt><trkpt lat="39.221955" lon="16.855625"><ele>109.0</ele><time>2026-03-28T12:36:14.387Z</time></trkpt><trkpt lat="39.221965" lon="16.8557167"><ele>109.0</ele><time>2026-03-28T12:36:17.387Z</time></trkpt><trkpt lat="39.2219567" lon="16.8558217"><ele>109.00000000000001</ele><time>2026-03-28T12:36:22.387Z</time></trkpt><trkpt lat="39.2219333" lon="16.8559083"><ele>109.0</ele><time>2026-03-28T12:36:24.387Z</time></trkpt><trkpt lat="39.221905" lon="16.85601"><ele>108.83333333333334</ele><time>2026-03-28T12:36:26.388Z</time></trkpt><trkpt lat="39.2218633" lon="16.8561117"><ele>108.66666666666667</ele><time>2026-03-28T12:36:28.387Z</time></trkpt><trkpt lat="39.2218" lon="16.856215"><ele>108.5</ele><time>2026-03-28T12:36:30.387Z</time></trkpt><trkpt lat="39.221735" lon="16.8562983"><ele>108.33333333333334</ele><time>2026-03-28T12:36:32.387Z</time></trkpt><trkpt lat="39.221695" lon="16.856375"><ele>108.16666666666667</ele><time>2026-03-28T12:36:34.387Z</time></trkpt><trkpt lat="39.2216517" lon="16.8564683"><ele>108.0</ele><time>2026-03-28T12:36:36.387Z</time></trkpt><trkpt lat="39.2215983" lon="16.85656"><ele>108.0</ele><time>2026-03-28T12:36:38.387Z</time></trkpt><trkpt lat="39.221535" lon="16.8566567"><ele>108.00000000000001</ele><time>2026-03-28T12:36:40.387Z</time></trkpt><trkpt lat="39.2214633" lon="16.8567367"><ele>108.00000000000001</ele><time>2026-03-28T12:36:42.387Z</time></trkpt><trkpt lat="39.2213933" lon="16.8568117"><ele>108.0</ele><time>2026-03-28T12:36:44.387Z</time></trkpt><trkpt lat="39.2213217" lon="16.8568983"><ele>108.0</ele><time>2026-03-28T12:36:46.387Z</time></trkpt><trkpt lat="39.22127" lon="16.8569783"><ele>107.83333333333333</ele><time>2026-03-28T12:36:48.388Z</time></trkpt><trkpt lat="39.2212467" lon="16.8570567"><ele>107.66666666666666</ele><time>2026-03-28T12:36:50.388Z</time></trkpt><trkpt lat="39.22122" lon="16.8571583"><ele>107.5</ele><time>2026-03-28T12:36:52.387Z</time></trkpt><trkpt lat="39.2211917" lon="16.8572583"><ele>107.33333333333333</ele><time>2026-03-28T12:36:54.387Z</time></trkpt><trkpt lat="39.22114" lon="16.8573417"><ele>107.16666666666666</ele><time>2026-03-28T12:36:56.387Z</time></trkpt><trkpt lat="39.221075" lon="16.857405"><ele>107.0</ele><time>2026-03-28T12:36:58.387Z</time></trkpt><trkpt lat="39.2210167" lon="16.8574633"><ele>107.0</ele><time>2026-03-28T12:37:00.387Z</time></trkpt><trkpt lat="39.22098" lon="16.8575683"><ele>106.99999999999999</ele><time>2026-03-28T12:37:03.387Z</time></trkpt><trkpt lat="39.2209467" lon="16.8577567"><ele>106.99999999999999</ele><time>2026-03-28T12:37:30.387Z</time></trkpt><trkpt lat="39.2209117" lon="16.8578883"><ele>107.0</ele><time>2026-03-28T12:37:40.387Z</time></trkpt><trkpt lat="39.22089" lon="16.8579717"><ele>107.0</ele><time>2026-03-28T12:37:43.387Z</time></trkpt><trkpt lat="39.2208683" lon="16.85805"><ele>107.16666666666666</ele><time>2026-03-28T12:37:46.387Z</time></trkpt><trkpt lat="39.2208383" lon="16.8581767"><ele>107.33333333333333</ele><time>2026-03-28T12:37:49.387Z</time></trkpt><trkpt lat="39.22081" lon="16.8582617"><ele>107.5</ele><time>2026-03-28T12:37:51.387Z</time></trkpt><trkpt lat="39.2207833" lon="16.8583683"><ele>107.66666666666666</ele><time>2026-03-28T12:37:53.387Z</time></trkpt><trkpt lat="39.2207583" lon="16.8584733"><ele>107.83333333333333</ele><time>2026-03-28T12:37:55.387Z</time></trkpt><trkpt lat="39.2207367" lon="16.8585633"><ele>108.0</ele><time>2026-03-28T12:37:57.387Z</time></trkpt><trkpt lat="39.2207117" lon="16.8586383"><ele>107.75</ele><time>2026-03-28T12:37:59.387Z</time></trkpt><trkpt lat="39.2206467" lon="16.8587667"><ele>107.5</ele><time>2026-03-28T12:38:05.387Z</time></trkpt><trkpt lat="39.2205917" lon="16.8588933"><ele>107.25</ele><time>2026-03-28T12:38:07.387Z</time></trkpt><trkpt lat="39.2205733" lon="16.8590383"><ele>107.0</ele><time>2026-03-28T12:38:09.388Z</time></trkpt><trkpt lat="39.220565" lon="16.8591733"><ele>106.99999999999999</ele><time>2026-03-28T12:38:11.388Z</time></trkpt><trkpt lat="39.220495" lon="16.8592517"><ele>107.0</ele><time>2026-03-28T12:38:13.387Z</time></trkpt><trkpt lat="39.22041" lon="16.8592533"><ele>107.0</ele><time>2026-03-28T12:38:15.387Z</time></trkpt><trkpt lat="39.220345" lon="16.85925"><ele>107.0</ele><time>2026-03-28T12:38:17.387Z</time></trkpt><trkpt lat="39.2202817" lon="16.8592683"><ele>106.99999999999999</ele><time>2026-03-28T12:38:19.387Z</time></trkpt><trkpt lat="39.22022" lon="16.8593"><ele>107.0</ele><time>2026-03-28T12:38:21.387Z</time></trkpt><trkpt lat="39.2201383" lon="16.8593667"><ele>106.8</ele><time>2026-03-28T12:38:23.387Z</time></trkpt><trkpt lat="39.2200517" lon="16.8594467"><ele>106.6</ele><time>2026-03-28T12:38:25.387Z</time></trkpt><trkpt lat="39.2199717" lon="16.8595367"><ele>106.39999999999999</ele><time>2026-03-28T12:38:27.387Z</time></trkpt><trkpt lat="39.2198883" lon="16.8596267"><ele>106.19999999999999</ele><time>2026-03-28T12:38:29.387Z</time></trkpt><trkpt lat="39.2198033" lon="16.8597167"><ele>106.0</ele><time>2026-03-28T12:38:31.387Z</time></trkpt><trkpt lat="39.2197383" lon="16.8597933"><ele>106.0</ele><time>2026-03-28T12:38:33.387Z</time></trkpt><trkpt lat="39.219685" lon="16.859875"><ele>106.0</ele><time>2026-03-28T12:38:35.388Z</time></trkpt><trkpt lat="39.2196133" lon="16.859955"><ele>106.0</ele><time>2026-03-28T12:38:37.387Z</time></trkpt><trkpt lat="39.21951" lon="16.859975"><ele>106.0</ele><time>2026-03-28T12:38:39.387Z</time></trkpt><trkpt lat="39.219385" lon="16.85998"><ele>106.0</ele><time>2026-03-28T12:38:41.387Z</time></trkpt><trkpt lat="39.2192683" lon="16.8600133"><ele>106.0</ele><time>2026-03-28T12:38:43.387Z</time></trkpt><trkpt lat="39.2191533" lon="16.8600733"><ele>106.0</ele><time>2026-03-28T12:38:45.388Z</time></trkpt><trkpt lat="39.2190383" lon="16.860105"><ele>106.0</ele><time>2026-03-28T12:38:47.387Z</time></trkpt><trkpt lat="39.2189233" lon="16.8601417"><ele>106.0</ele><time>2026-03-28T12:38:49.387Z</time></trkpt><trkpt lat="39.2188033" lon="16.8601917"><ele>106.00000000000001</ele><time>2026-03-28T12:38:51.387Z</time></trkpt><trkpt lat="39.218735" lon="16.86022"><ele>106.0</ele><time>2026-03-28T12:38:52.387Z</time></trkpt><trkpt lat="39.2186667" lon="16.8602433"><ele>106.0</ele><time>2026-03-28T12:38:53.387Z</time></trkpt><trkpt lat="39.2186" lon="16.8602617"><ele>106.0</ele><time>2026-03-28T12:38:54.387Z</time></trkpt><trkpt lat="39.2185367" lon="16.86027"><ele>106.00000000000001</ele><time>2026-03-28T12:38:55.387Z</time></trkpt><trkpt lat="39.2184183" lon="16.8602917"><ele>106.0</ele><time>2026-03-28T12:38:57.387Z</time></trkpt><trkpt lat="39.2183017" lon="16.8603317"><ele>106.00000000000001</ele><time>2026-03-28T12:38:59.388Z</time></trkpt><trkpt lat="39.2182417" lon="16.86036"><ele>106.0</ele><time>2026-03-28T12:39:00.388Z</time></trkpt><trkpt lat="39.2181783" lon="16.860395"><ele>106.0</ele><time>2026-03-28T12:39:01.387Z</time></trkpt><trkpt lat="39.2180567" lon="16.8604167"><ele>106.0</ele><time>2026-03-28T12:39:03.388Z</time></trkpt><trkpt lat="39.2179467" lon="16.8604233"><ele>106.00000000000001</ele><time>2026-03-28T12:39:05.387Z</time></trkpt><trkpt lat="39.21788" lon="16.8604533"><ele>106.0</ele><time>2026-03-28T12:39:07.387Z</time></trkpt><trkpt lat="39.2178183" lon="16.8604917"><ele>105.6</ele><time>2026-03-28T12:39:09.387Z</time></trkpt><trkpt lat="39.2177367" lon="16.86054"><ele>105.19999999999999</ele><time>2026-03-28T12:39:11.388Z</time></trkpt><trkpt lat="39.2176483" lon="16.86059"><ele>104.80000000000001</ele><time>2026-03-28T12:39:13.387Z</time></trkpt><trkpt lat="39.2175533" lon="16.86065"><ele>104.4</ele><time>2026-03-28T12:39:15.387Z</time></trkpt><trkpt lat="39.2174567" lon="16.86071"><ele>104.0</ele><time>2026-03-28T12:39:17.387Z</time></trkpt><trkpt lat="39.2174" lon="16.86075"><ele>103.99999999999999</ele><time>2026-03-28T12:39:18.387Z</time></trkpt><trkpt lat="39.2173383" lon="16.8607917"><ele>104.0</ele><time>2026-03-28T12:39:19.388Z</time></trkpt><trkpt lat="39.217275" lon="16.860835"><ele>104.0</ele><time>2026-03-28T12:39:20.387Z</time></trkpt><trkpt lat="39.2172217" lon="16.86088"><ele>104.0</ele><time>2026-03-28T12:39:21.387Z</time></trkpt><trkpt lat="39.21716" lon="16.8609183"><ele>103.99999999999999</ele><time>2026-03-28T12:39:22.387Z</time></trkpt><trkpt lat="39.21705" lon="16.86098"><ele>104.0</ele><time>2026-03-28T12:39:24.388Z</time></trkpt><trkpt lat="39.216945" lon="16.861055"><ele>103.83333333333333</ele><time>2026-03-28T12:39:26.387Z</time></trkpt><trkpt lat="39.2168317" lon="16.86113"><ele>103.66666666666666</ele><time>2026-03-28T12:39:28.388Z</time></trkpt><trkpt lat="39.2167617" lon="16.8611583"><ele>103.5</ele><time>2026-03-28T12:39:29.387Z</time></trkpt><trkpt lat="39.21669" lon="16.8611767"><ele>103.33333333333334</ele><time>2026-03-28T12:39:30.387Z</time></trkpt><trkpt lat="39.2166183" lon="16.8611967"><ele>103.16666666666667</ele><time>2026-03-28T12:39:31.387Z</time></trkpt><trkpt lat="39.21655" lon="16.8612133"><ele>103.0</ele><time>2026-03-28T12:39:32.387Z</time></trkpt><trkpt lat="39.2164817" lon="16.8612267"><ele>102.4</ele><time>2026-03-28T12:39:33.388Z</time></trkpt><trkpt lat="39.2164117" lon="16.86124"><ele>101.80000000000001</ele><time>2026-03-28T12:39:34.387Z</time></trkpt><trkpt lat="39.2163267" lon="16.8612517"><ele>101.2</ele><time>2026-03-28T12:39:35.387Z</time></trkpt><trkpt lat="39.2162283" lon="16.8612783"><ele>100.6</ele><time>2026-03-28T12:39:36.387Z</time></trkpt><trkpt lat="39.2161283" lon="16.8612967"><ele>100.0</ele><time>2026-03-28T12:39:37.387Z</time></trkpt><trkpt lat="39.216025" lon="16.8613183"><ele>100.0</ele><time>2026-03-28T12:39:38.387Z</time></trkpt><trkpt lat="39.21591" lon="16.8613467"><ele>100.0</ele><time>2026-03-28T12:39:39.388Z</time></trkpt><trkpt lat="39.2157883" lon="16.86137"><ele>100.0</ele><time>2026-03-28T12:39:40.387Z</time></trkpt><trkpt lat="39.2156733" lon="16.8613883"><ele>100.0</ele><time>2026-03-28T12:39:41.387Z</time></trkpt><trkpt lat="39.2155733" lon="16.8614017"><ele>100.2</ele><time>2026-03-28T12:39:42.387Z</time></trkpt><trkpt lat="39.2154883" lon="16.8614167"><ele>100.4</ele><time>2026-03-28T12:39:43.388Z</time></trkpt><trkpt lat="39.2154167" lon="16.8614383"><ele>100.6</ele><time>2026-03-28T12:39:44.387Z</time></trkpt><trkpt lat="39.2153117" lon="16.8614383"><ele>100.8</ele><time>2026-03-28T12:39:46.387Z</time></trkpt><trkpt lat="39.21523" lon="16.8614283"><ele>101.0</ele><time>2026-03-28T12:39:48.387Z</time></trkpt><trkpt lat="39.2151317" lon="16.8614883"><ele>100.99999999999999</ele><time>2026-03-28T12:39:50.387Z</time></trkpt><trkpt lat="39.2150867" lon="16.8615467"><ele>101.0</ele><time>2026-03-28T12:39:51.387Z</time></trkpt><trkpt lat="39.2149967" lon="16.86165"><ele>101.0</ele><time>2026-03-28T12:39:53.387Z</time></trkpt><trkpt lat="39.214945" lon="16.8617117"><ele>101.0</ele><time>2026-03-28T12:39:55.387Z</time></trkpt><trkpt lat="39.2148933" lon="16.8617817"><ele>100.99999999999999</ele><time>2026-03-28T12:40:00.387Z</time></trkpt><trkpt lat="39.214845" lon="16.8618667"><ele>101.0</ele><time>2026-03-28T12:40:03.387Z</time></trkpt><trkpt lat="39.2147933" lon="16.86194"><ele>101.0</ele><time>2026-03-28T12:40:06.387Z</time></trkpt><trkpt lat="39.2147633" lon="16.86203"><ele>101.0</ele><time>2026-03-28T12:40:11.387Z</time></trkpt><trkpt lat="39.21474" lon="16.8621583"><ele>101.0</ele><time>2026-03-28T12:40:29.387Z</time></trkpt><trkpt lat="39.2147083" lon="16.862275"><ele>101.0</ele><time>2026-03-28T12:40:31.387Z</time></trkpt><trkpt lat="39.2146483" lon="16.8623867"><ele>101.0</ele><time>2026-03-28T12:40:33.387Z</time></trkpt><trkpt lat="39.2145717" lon="16.8624567"><ele>100.99999999999999</ele><time>2026-03-28T12:40:35.387Z</time></trkpt><trkpt lat="39.2145017" lon="16.8624933"><ele>101.0</ele><time>2026-03-28T12:40:38.387Z</time></trkpt><trkpt lat="39.2144217" lon="16.8625767"><ele>101.0</ele><time>2026-03-28T12:40:58.387Z</time></trkpt><trkpt lat="39.214365" lon="16.8626667"><ele>101.0</ele><time>2026-03-28T12:41:01.387Z</time></trkpt><trkpt lat="39.21432" lon="16.8627467"><ele>100.99999999999999</ele><time>2026-03-28T12:41:03.387Z</time></trkpt><trkpt lat="39.2142567" lon="16.8628467"><ele>101.0</ele><time>2026-03-28T12:41:05.387Z</time></trkpt><trkpt lat="39.2141967" lon="16.8629617"><ele>100.8</ele><time>2026-03-28T12:41:07.387Z</time></trkpt><trkpt lat="39.214145" lon="16.8630783"><ele>100.6</ele><time>2026-03-28T12:41:09.387Z</time></trkpt><trkpt lat="39.214085" lon="16.863175"><ele>100.4</ele><time>2026-03-28T12:41:11.387Z</time></trkpt><trkpt lat="39.213965" lon="16.86315"><ele>100.2</ele><time>2026-03-28T12:41:20.387Z</time></trkpt><trkpt lat="39.2139117" lon="16.86309"><ele>100.0</ele><time>2026-03-28T12:41:24.387Z</time></trkpt><trkpt lat="39.21384" lon="16.8630983"><ele>100.00000000000001</ele><time>2026-03-28T12:41:28.387Z</time></trkpt><trkpt lat="39.2137683" lon="16.8631133"><ele>100.0</ele><time>2026-03-28T12:41:31.388Z</time></trkpt><trkpt lat="39.21368" lon="16.8631833"><ele>100.0</ele><time>2026-03-28T12:41:34.387Z</time></trkpt><trkpt lat="39.21361" lon="16.8631833"><ele>100.0</ele><time>2026-03-28T12:41:36.387Z</time></trkpt><trkpt lat="39.2135317" lon="16.86319"><ele>100.00000000000001</ele><time>2026-03-28T12:41:38.387Z</time></trkpt><trkpt lat="39.2134533" lon="16.8633"><ele>100.0</ele><time>2026-03-28T12:41:40.387Z</time></trkpt><trkpt lat="39.2133817" lon="16.8634083"><ele>99.66666666666667</ele><time>2026-03-28T12:41:42.387Z</time></trkpt><trkpt lat="39.2133083" lon="16.8634733"><ele>99.33333333333334</ele><time>2026-03-28T12:41:44.387Z</time></trkpt><trkpt lat="39.2132417" lon="16.8635583"><ele>99.0</ele><time>2026-03-28T12:41:46.387Z</time></trkpt><trkpt lat="39.2132117" lon="16.8636567"><ele>98.66666666666666</ele><time>2026-03-28T12:41:48.388Z</time></trkpt><trkpt lat="39.213195" lon="16.8637583"><ele>98.33333333333333</ele><time>2026-03-28T12:41:50.387Z</time></trkpt><trkpt lat="39.2131817" lon="16.8638767"><ele>98.0</ele><time>2026-03-28T12:41:53.387Z</time></trkpt><trkpt lat="39.2131583" lon="16.86397"><ele>98.0</ele><time>2026-03-28T12:41:55.387Z</time></trkpt><trkpt lat="39.2131067" lon="16.8640833"><ele>98.0</ele><time>2026-03-28T12:41:57.388Z</time></trkpt><trkpt lat="39.2130483" lon="16.8642233"><ele>98.0</ele><time>2026-03-28T12:41:59.387Z</time></trkpt><trkpt lat="39.21299" lon="16.8643817"><ele>98.0</ele><time>2026-03-28T12:42:01.387Z</time></trkpt><trkpt lat="39.2129467" lon="16.8644683"><ele>98.0</ele><time>2026-03-28T12:42:02.388Z</time></trkpt><trkpt lat="39.2128983" lon="16.8645467"><ele>98.0</ele><time>2026-03-28T12:42:03.387Z</time></trkpt><trkpt lat="39.2128433" lon="16.864615"><ele>98.0</ele><time>2026-03-28T12:42:04.387Z</time></trkpt><trkpt lat="39.2127867" lon="16.86467"><ele>98.0</ele><time>2026-03-28T12:42:05.387Z</time></trkpt><trkpt lat="39.2127283" lon="16.8647167"><ele>98.0</ele><time>2026-03-28T12:42:06.387Z</time></trkpt><trkpt lat="39.2126733" lon="16.8647583"><ele>98.0</ele><time>2026-03-28T12:42:07.388Z</time></trkpt><trkpt lat="39.2126167" lon="16.864805"><ele>98.0</ele><time>2026-03-28T12:42:08.387Z</time></trkpt><trkpt lat="39.2125583" lon="16.8648533"><ele>98.0</ele><time>2026-03-28T12:42:09.387Z</time></trkpt><trkpt lat="39.212495" lon="16.8648783"><ele>97.99999999999999</ele><time>2026-03-28T12:42:10.387Z</time></trkpt><trkpt lat="39.21243" lon="16.8649"><ele>98.0</ele><time>2026-03-28T12:42:11.387Z</time></trkpt><trkpt lat="39.212335" lon="16.8649617"><ele>98.0</ele><time>2026-03-28T12:42:13.387Z</time></trkpt><trkpt lat="39.2122833" lon="16.8650517"><ele>98.0</ele><time>2026-03-28T12:42:15.387Z</time></trkpt><trkpt lat="39.21223" lon="16.8651217"><ele>97.99999999999999</ele><time>2026-03-28T12:42:17.387Z</time></trkpt><trkpt lat="39.2121667" lon="16.86517"><ele>98.0</ele><time>2026-03-28T12:42:19.387Z</time></trkpt><trkpt lat="39.2121483" lon="16.8652483"><ele>97.99999999999999</ele><time>2026-03-28T12:42:21.387Z</time></trkpt><trkpt lat="39.21217" lon="16.86535"><ele>98.0</ele><time>2026-03-28T12:42:23.387Z</time></trkpt><trkpt lat="39.212185" lon="16.865465"><ele>98.0</ele><time>2026-03-28T12:42:26.387Z</time></trkpt><trkpt lat="39.2121867" lon="16.8655467"><ele>98.0</ele><time>2026-03-28T12:42:28.387Z</time></trkpt><trkpt lat="39.2121683" lon="16.8656483"><ele>97.99999999999999</ele><time>2026-03-28T12:42:30.387Z</time></trkpt><trkpt lat="39.2121167" lon="16.8657733"><ele>98.0</ele><time>2026-03-28T12:42:32.387Z</time></trkpt><trkpt lat="39.212005" lon="16.8658667"><ele>97.99999999999999</ele><time>2026-03-28T12:42:34.387Z</time></trkpt><trkpt lat="39.2119317" lon="16.8658983"><ele>98.0</ele><time>2026-03-28T12:42:35.388Z</time></trkpt><trkpt lat="39.2118683" lon="16.8659417"><ele>98.0</ele><time>2026-03-28T12:42:36.387Z</time></trkpt><trkpt lat="39.2118" lon="16.8660667"><ele>98.0</ele><time>2026-03-28T12:42:38.387Z</time></trkpt><trkpt lat="39.2117983" lon="16.8661483"><ele>97.99999999999999</ele><time>2026-03-28T12:42:39.387Z</time></trkpt><trkpt lat="39.211845" lon="16.8662833"><ele>98.0</ele><time>2026-03-28T12:42:41.387Z</time></trkpt><trkpt lat="39.2118817" lon="16.8663883"><ele>97.83333333333333</ele><time>2026-03-28T12:42:43.387Z</time></trkpt><trkpt lat="39.2119" lon="16.8664833"><ele>97.66666666666666</ele><time>2026-03-28T12:42:45.387Z</time></trkpt><trkpt lat="39.21191" lon="16.86657"><ele>97.5</ele><time>2026-03-28T12:42:47.387Z</time></trkpt><trkpt lat="39.2119067" lon="16.866655"><ele>97.33333333333334</ele><time>2026-03-28T12:42:50.388Z</time></trkpt><trkpt lat="39.2119267" lon="16.8667933"><ele>97.16666666666667</ele><time>2026-03-28T12:43:02.388Z</time></trkpt><trkpt lat="39.2119367" lon="16.866885"><ele>97.0</ele><time>2026-03-28T12:43:06.387Z</time></trkpt><trkpt lat="39.21195" lon="16.8669683"><ele>97.0</ele><time>2026-03-28T12:43:10.387Z</time></trkpt><trkpt lat="39.211905" lon="16.8670583"><ele>97.0</ele><time>2026-03-28T12:43:15.388Z</time></trkpt><trkpt lat="39.21186" lon="16.8671217"><ele>97.0</ele><time>2026-03-28T12:43:18.387Z</time></trkpt><trkpt lat="39.2118133" lon="16.86718"><ele>97.0</ele><time>2026-03-28T12:43:22.388Z</time></trkpt><trkpt lat="39.211775" lon="16.8672567"><ele>97.0</ele><time>2026-03-28T12:43:26.388Z</time></trkpt><trkpt lat="39.2117433" lon="16.867345"><ele>97.0</ele><time>2026-03-28T12:43:30.387Z</time></trkpt><trkpt lat="39.21169" lon="16.867415"><ele>97.0</ele><time>2026-03-28T12:43:34.388Z</time></trkpt><trkpt lat="39.2116567" lon="16.8674983"><ele>97.00000000000001</ele><time>2026-03-28T12:43:38.387Z</time></trkpt><trkpt lat="39.2116217" lon="16.8676"><ele>97.0</ele><time>2026-03-28T12:43:42.387Z</time></trkpt><trkpt lat="39.2115733" lon="16.8676783"><ele>97.0</ele><time>2026-03-28T12:43:45.387Z</time></trkpt><trkpt lat="39.2115583" lon="16.8677667"><ele>97.0</ele><time>2026-03-28T12:44:07.387Z</time></trkpt><trkpt lat="39.2115667" lon="16.86788"><ele>97.00000000000001</ele><time>2026-03-28T12:44:10.388Z</time></trkpt><trkpt lat="39.2115983" lon="16.8679567"><ele>97.0</ele><time>2026-03-28T12:44:12.387Z</time></trkpt><trkpt lat="39.2116383" lon="16.868055"><ele>97.33333333333334</ele><time>2026-03-28T12:44:15.387Z</time></trkpt><trkpt lat="39.21167" lon="16.868135"><ele>97.66666666666667</ele><time>2026-03-28T12:44:18.387Z</time></trkpt><trkpt lat="39.2117167" lon="16.8682367"><ele>98.0</ele><time>2026-03-28T12:44:21.387Z</time></trkpt><trkpt lat="39.2117583" lon="16.868315"><ele>98.33333333333334</ele><time>2026-03-28T12:44:23.387Z</time></trkpt><trkpt lat="39.211815" lon="16.8684017"><ele>98.66666666666667</ele><time>2026-03-28T12:44:25.387Z</time></trkpt><trkpt lat="39.2118783" lon="16.8685117"><ele>99.0</ele><time>2026-03-28T12:44:27.387Z</time></trkpt><trkpt lat="39.2119317" lon="16.8686467"><ele>101.0</ele><time>2026-03-28T12:44:29.387Z</time></trkpt><trkpt lat="39.2119683" lon="16.868785"><ele>103.0</ele><time>2026-03-28T12:44:31.388Z</time></trkpt><trkpt lat="39.21201" lon="16.8689233"><ele>105.0</ele><time>2026-03-28T12:44:33.387Z</time></trkpt><trkpt lat="39.2120517" lon="16.8690583"><ele>107.0</ele><time>2026-03-28T12:44:35.388Z</time></trkpt><trkpt lat="39.2120733" lon="16.8691617"><ele>109.0</ele><time>2026-03-28T12:44:37.387Z</time></trkpt><trkpt lat="39.2120867" lon="16.8692483"><ele>111.16666666666667</ele><time>2026-03-28T12:44:39.387Z</time></trkpt><trkpt lat="39.2121" lon="16.8693383"><ele>113.33333333333334</ele><time>2026-03-28T12:44:41.388Z</time></trkpt><trkpt lat="39.2121117" lon="16.8694317"><ele>115.5</ele><time>2026-03-28T12:44:43.388Z</time></trkpt><trkpt lat="39.2121233" lon="16.86954"><ele>117.66666666666666</ele><time>2026-03-28T12:44:45.387Z</time></trkpt><trkpt lat="39.2121467" lon="16.8696433"><ele>119.83333333333333</ele><time>2026-03-28T12:44:47.387Z</time></trkpt><trkpt lat="39.2121683" lon="16.8697483"><ele>122.0</ele><time>2026-03-28T12:44:49.387Z</time></trkpt><trkpt lat="39.2121833" lon="16.869845"><ele>121.99999999999999</ele><time>2026-03-28T12:44:51.387Z</time></trkpt><trkpt lat="39.2122067" lon="16.8699383"><ele>122.0</ele><time>2026-03-28T12:44:53.387Z</time></trkpt><trkpt lat="39.21224" lon="16.8700333"><ele>122.0</ele><time>2026-03-28T12:44:55.387Z</time></trkpt><trkpt lat="39.2122817" lon="16.8701483"><ele>122.0</ele><time>2026-03-28T12:44:57.388Z</time></trkpt><trkpt lat="39.2123083" lon="16.8702567"><ele>121.99999999999999</ele><time>2026-03-28T12:44:59.388Z</time></trkpt><trkpt lat="39.2123433" lon="16.8703567"><ele>122.0</ele><time>2026-03-28T12:45:01.387Z</time></trkpt><trkpt lat="39.212365" lon="16.870455"><ele>121.66666666666666</ele><time>2026-03-28T12:45:04.387Z</time></trkpt><trkpt lat="39.212365" lon="16.8705583"><ele>121.33333333333333</ele><time>2026-03-28T12:45:56.387Z</time></trkpt><trkpt lat="39.212335" lon="16.8706783"><ele>121.0</ele><time>2026-03-28T12:45:58.387Z</time></trkpt><trkpt lat="39.212305" lon="16.870785"><ele>120.66666666666666</ele><time>2026-03-28T12:46:00.387Z</time></trkpt><trkpt lat="39.2123" lon="16.8708717"><ele>120.33333333333333</ele><time>2026-03-28T12:46:02.388Z</time></trkpt><trkpt lat="39.2123133" lon="16.8709733"><ele>120.0</ele><time>2026-03-28T12:46:04.388Z</time></trkpt><trkpt lat="39.2123333" lon="16.87107"><ele>120.0</ele><time>2026-03-28T12:46:06.387Z</time></trkpt><trkpt lat="39.2123733" lon="16.8711567"><ele>120.0</ele><time>2026-03-28T12:46:08.387Z</time></trkpt><trkpt lat="39.21244" lon="16.8712367"><ele>120.0</ele><time>2026-03-28T12:46:10.387Z</time></trkpt><trkpt lat="39.21253" lon="16.8713017"><ele>120.0</ele><time>2026-03-28T12:46:12.387Z</time></trkpt><trkpt lat="39.212635" lon="16.8713683"><ele>120.0</ele><time>2026-03-28T12:46:14.388Z</time></trkpt><trkpt lat="39.2127317" lon="16.8714267"><ele>120.0</ele><time>2026-03-28T12:46:16.388Z</time></trkpt><trkpt lat="39.2128317" lon="16.8715067"><ele>120.0</ele><time>2026-03-28T12:46:18.387Z</time></trkpt><trkpt lat="39.2128883" lon="16.8715567"><ele>120.0</ele><time>2026-03-28T12:46:19.387Z</time></trkpt><trkpt lat="39.2129467" lon="16.8716"><ele>120.0</ele><time>2026-03-28T12:46:20.388Z</time></trkpt><trkpt lat="39.2129983" lon="16.8716533"><ele>120.0</ele><time>2026-03-28T12:46:21.387Z</time></trkpt><trkpt lat="39.2130417" lon="16.8717167"><ele>120.0</ele><time>2026-03-28T12:46:22.387Z</time></trkpt><trkpt lat="39.2130767" lon="16.871795"><ele>121.0</ele><time>2026-03-28T12:46:23.388Z</time></trkpt><trkpt lat="39.2130983" lon="16.8718717"><ele>122.0</ele><time>2026-03-28T12:46:24.387Z</time></trkpt><trkpt lat="39.2131333" lon="16.8720117"><ele>123.0</ele><time>2026-03-28T12:46:26.387Z</time></trkpt><trkpt lat="39.213165" lon="16.87214"><ele>124.0</ele><time>2026-03-28T12:46:28.387Z</time></trkpt><trkpt lat="39.2131817" lon="16.8722233"><ele>125.0</ele><time>2026-03-28T12:46:29.388Z</time></trkpt><trkpt lat="39.2132" lon="16.8723233"><ele>126.0</ele><time>2026-03-28T12:46:30.387Z</time></trkpt><trkpt lat="39.2132283" lon="16.8724467"><ele>123.4</ele><time>2026-03-28T12:46:31.387Z</time></trkpt><trkpt lat="39.21325" lon="16.8725783"><ele>120.8</ele><time>2026-03-28T12:46:32.387Z</time></trkpt><trkpt lat="39.2132717" lon="16.8727"><ele>118.20000000000002</ele><time>2026-03-28T12:46:33.387Z</time></trkpt><trkpt lat="39.2132867" lon="16.872825"><ele>115.60000000000001</ele><time>2026-03-28T12:46:34.388Z</time></trkpt><trkpt lat="39.2132933" lon="16.8729567"><ele>113.0</ele><time>2026-03-28T12:46:35.387Z</time></trkpt><trkpt lat="39.2133017" lon="16.8730833"><ele>112.99999999999999</ele><time>2026-03-28T12:46:36.387Z</time></trkpt><trkpt lat="39.2133067" lon="16.8731917"><ele>113.0</ele><time>2026-03-28T12:46:37.387Z</time></trkpt><trkpt lat="39.2133133" lon="16.8732867"><ele>113.0</ele><time>2026-03-28T12:46:38.387Z</time></trkpt><trkpt lat="39.21332" lon="16.873415"><ele>113.0</ele><time>2026-03-28T12:46:40.387Z</time></trkpt><trkpt lat="39.2133817" lon="16.8735267"><ele>112.99999999999999</ele><time>2026-03-28T12:46:43.387Z</time></trkpt><trkpt lat="39.21343" lon="16.8735833"><ele>113.0</ele><time>2026-03-28T12:46:44.387Z</time></trkpt><trkpt lat="39.213495" lon="16.8736617"><ele>113.4</ele><time>2026-03-28T12:46:45.387Z</time></trkpt><trkpt lat="39.21356" lon="16.8737383"><ele>113.80000000000001</ele><time>2026-03-28T12:46:46.387Z</time></trkpt><trkpt lat="39.2136217" lon="16.8738183"><ele>114.2</ele><time>2026-03-28T12:46:47.387Z</time></trkpt><trkpt lat="39.2136867" lon="16.8739133"><ele>114.6</ele><time>2026-03-28T12:46:48.387Z</time></trkpt><trkpt lat="39.2137633" lon="16.8740217"><ele>115.0</ele><time>2026-03-28T12:46:49.387Z</time></trkpt><trkpt lat="39.2138467" lon="16.874155"><ele>115.75</ele><time>2026-03-28T12:46:50.387Z</time></trkpt><trkpt lat="39.21393" lon="16.874305"><ele>116.5</ele><time>2026-03-28T12:46:51.387Z</time></trkpt><trkpt lat="39.21401" lon="16.8744683"><ele>117.25</ele><time>2026-03-28T12:46:52.387Z</time></trkpt><trkpt lat="39.214085" lon="16.8746333"><ele>118.0</ele><time>2026-03-28T12:46:53.387Z</time></trkpt><trkpt lat="39.2141567" lon="16.8748033"><ele>118.0</ele><time>2026-03-28T12:46:54.387Z</time></trkpt><trkpt lat="39.214225" lon="16.87496"><ele>118.0</ele><time>2026-03-28T12:46:55.387Z</time></trkpt><trkpt lat="39.2142817" lon="16.8751017"><ele>118.0</ele><time>2026-03-28T12:46:56.388Z</time></trkpt><trkpt lat="39.2143233" lon="16.8752283"><ele>118.0</ele><time>2026-03-28T12:46:57.387Z</time></trkpt><trkpt lat="39.2143733" lon="16.8753533"><ele>119.25</ele><time>2026-03-28T12:46:58.388Z</time></trkpt><trkpt lat="39.2144317" lon="16.875485"><ele>120.5</ele><time>2026-03-28T12:46:59.387Z</time></trkpt><trkpt lat="39.214495" lon="16.8756217"><ele>121.75</ele><time>2026-03-28T12:47:00.387Z</time></trkpt><trkpt lat="39.2145533" lon="16.875755"><ele>123.0</ele><time>2026-03-28T12:47:01.387Z</time></trkpt><trkpt lat="39.2146" lon="16.8758883"><ele>124.75</ele><time>2026-03-28T12:47:02.387Z</time></trkpt><trkpt lat="39.2146267" lon="16.8760283"><ele>126.5</ele><time>2026-03-28T12:47:03.387Z</time></trkpt><trkpt lat="39.2146483" lon="16.876185"><ele>128.25</ele><time>2026-03-28T12:47:04.388Z</time></trkpt><trkpt lat="39.21466" lon="16.8763333"><ele>130.0</ele><time>2026-03-28T12:47:05.387Z</time></trkpt><trkpt lat="39.2146817" lon="16.87647"><ele>130.0</ele><time>2026-03-28T12:47:06.387Z</time></trkpt><trkpt lat="39.2147033" lon="16.8766067"><ele>130.0</ele><time>2026-03-28T12:47:07.388Z</time></trkpt><trkpt lat="39.21472" lon="16.87675"><ele>130.0</ele><time>2026-03-28T12:47:08.387Z</time></trkpt><trkpt lat="39.2147267" lon="16.8768767"><ele>130.0</ele><time>2026-03-28T12:47:09.387Z</time></trkpt><trkpt lat="39.2147133" lon="16.8769967"><ele>130.0</ele><time>2026-03-28T12:47:10.387Z</time></trkpt><trkpt lat="39.21469" lon="16.8771183"><ele>131.2</ele><time>2026-03-28T12:47:11.387Z</time></trkpt><trkpt lat="39.2146883" lon="16.8772417"><ele>132.4</ele><time>2026-03-28T12:47:12.387Z</time></trkpt><trkpt lat="39.2147" lon="16.87737"><ele>133.6</ele><time>2026-03-28T12:47:13.388Z</time></trkpt><trkpt lat="39.2147367" lon="16.8774933"><ele>134.8</ele><time>2026-03-28T12:47:14.388Z</time></trkpt><trkpt lat="39.2147933" lon="16.8775917"><ele>136.0</ele><time>2026-03-28T12:47:15.388Z</time></trkpt><trkpt lat="39.214865" lon="16.877675"><ele>137.66666666666669</ele><time>2026-03-28T12:47:16.387Z</time></trkpt><trkpt lat="39.21495" lon="16.8777417"><ele>139.33333333333334</ele><time>2026-03-28T12:47:17.387Z</time></trkpt><trkpt lat="39.215035" lon="16.877815"><ele>141.0</ele><time>2026-03-28T12:47:18.387Z</time></trkpt><trkpt lat="39.2150917" lon="16.8779033"><ele>142.66666666666666</ele><time>2026-03-28T12:47:19.387Z</time></trkpt><trkpt lat="39.2151067" lon="16.8779917"><ele>144.33333333333331</ele><time>2026-03-28T12:47:20.387Z</time></trkpt><trkpt lat="39.2151067" lon="16.878095"><ele>146.0</ele><time>2026-03-28T12:47:21.387Z</time></trkpt><trkpt lat="39.2150867" lon="16.878205"><ele>146.0</ele><time>2026-03-28T12:47:22.387Z</time></trkpt><trkpt lat="39.215045" lon="16.878315"><ele>146.0</ele><time>2026-03-28T12:47:23.387Z</time></trkpt><trkpt lat="39.2149883" lon="16.8784183"><ele>146.0</ele><time>2026-03-28T12:47:24.388Z</time></trkpt><trkpt lat="39.2149267" lon="16.878525"><ele>146.0</ele><time>2026-03-28T12:47:25.387Z</time></trkpt><trkpt lat="39.2148533" lon="16.8786467"><ele>146.0</ele><time>2026-03-28T12:47:26.388Z</time></trkpt><trkpt lat="39.2147867" lon="16.87877"><ele>148.6</ele><time>2026-03-28T12:47:27.387Z</time></trkpt><trkpt lat="39.2147283" lon="16.8788867"><ele>151.2</ele><time>2026-03-28T12:47:28.387Z</time></trkpt><trkpt lat="39.214665" lon="16.8790033"><ele>153.8</ele><time>2026-03-28T12:47:29.387Z</time></trkpt><trkpt lat="39.214595" lon="16.8791283"><ele>156.4</ele><time>2026-03-28T12:47:30.387Z</time></trkpt><trkpt lat="39.2145383" lon="16.8792517"><ele>159.0</ele><time>2026-03-28T12:47:31.387Z</time></trkpt><trkpt lat="39.2145017" lon="16.8793767"><ele>161.83333333333334</ele><time>2026-03-28T12:47:32.388Z</time></trkpt><trkpt lat="39.2144967" lon="16.87949"><ele>164.66666666666666</ele><time>2026-03-28T12:47:33.387Z</time></trkpt><trkpt lat="39.2145" lon="16.8795933"><ele>167.5</ele><time>2026-03-28T12:47:34.387Z</time></trkpt><trkpt lat="39.2144567" lon="16.8797067"><ele>170.33333333333331</ele><time>2026-03-28T12:47:36.387Z</time></trkpt><trkpt lat="39.2143817" lon="16.8796333"><ele>173.16666666666666</ele><time>2026-03-28T12:47:39.388Z</time></trkpt><trkpt lat="39.21434" lon="16.8795583"><ele>176.0</ele><time>2026-03-28T12:47:40.388Z</time></trkpt><trkpt lat="39.21427" lon="16.8794783"><ele>176.0</ele><time>2026-03-28T12:47:41.387Z</time></trkpt><trkpt lat="39.2141767" lon="16.8794317"><ele>176.0</ele><time>2026-03-28T12:47:42.387Z</time></trkpt><trkpt lat="39.2140867" lon="16.87944"><ele>176.0</ele><time>2026-03-28T12:47:43.387Z</time></trkpt><trkpt lat="39.2140083" lon="16.8794883"><ele>176.0</ele><time>2026-03-28T12:47:44.387Z</time></trkpt><trkpt lat="39.2139483" lon="16.8795867"><ele>176.0</ele><time>2026-03-28T12:47:45.387Z</time></trkpt><trkpt lat="39.2139" lon="16.879735"><ele>177.0</ele><time>2026-03-28T12:47:46.388Z</time></trkpt><trkpt lat="39.2138517" lon="16.8799017"><ele>178.0</ele><time>2026-03-28T12:47:47.387Z</time></trkpt><trkpt lat="39.2137883" lon="16.8800683"><ele>179.0</ele><time>2026-03-28T12:47:48.387Z</time></trkpt><trkpt lat="39.2137317" lon="16.8802083"><ele>180.0</ele><time>2026-03-28T12:47:49.387Z</time></trkpt><trkpt lat="39.213705" lon="16.8803233"><ele>182.0</ele><time>2026-03-28T12:47:50.388Z</time></trkpt><trkpt lat="39.2137167" lon="16.8804283"><ele>184.0</ele><time>2026-03-28T12:47:51.388Z</time></trkpt><trkpt lat="39.2137367" lon="16.8805233"><ele>186.0</ele><time>2026-03-28T12:47:52.387Z</time></trkpt><trkpt lat="39.2137317" lon="16.88062"><ele>188.0</ele><time>2026-03-28T12:47:53.387Z</time></trkpt><trkpt lat="39.2137017" lon="16.8807117"><ele>190.0</ele><time>2026-03-28T12:47:54.387Z</time></trkpt><trkpt lat="39.2136633" lon="16.8808183"><ele>192.0</ele><time>2026-03-28T12:47:55.387Z</time></trkpt><trkpt lat="39.2136183" lon="16.8809483"><ele>194.66666666666669</ele><time>2026-03-28T12:47:56.387Z</time></trkpt><trkpt lat="39.2135567" lon="16.8811283"><ele>197.33333333333334</ele><time>2026-03-28T12:47:57.387Z</time></trkpt><trkpt lat="39.213495" lon="16.881315"><ele>200.0</ele><time>2026-03-28T12:47:58.387Z</time></trkpt><trkpt lat="39.2134467" lon="16.8814883"><ele>200.0</ele><time>2026-03-28T12:47:59.388Z</time></trkpt><trkpt lat="39.213395" lon="16.8816367"><ele>200.0</ele><time>2026-03-28T12:48:00.387Z</time></trkpt><trkpt lat="39.2133483" lon="16.8817867"><ele>200.0</ele><time>2026-03-28T12:48:01.387Z</time></trkpt><trkpt lat="39.2133267" lon="16.8819317"><ele>200.0</ele><time>2026-03-28T12:48:02.387Z</time></trkpt><trkpt lat="39.213345" lon="16.882035"><ele>200.0</ele><time>2026-03-28T12:48:03.387Z</time></trkpt><trkpt lat="39.213395" lon="16.8821133"><ele>203.25</ele><time>2026-03-28T12:48:04.388Z</time></trkpt><trkpt lat="39.21347" lon="16.8821867"><ele>206.5</ele><time>2026-03-28T12:48:05.387Z</time></trkpt><trkpt lat="39.2135683" lon="16.8822767"><ele>209.75</ele><time>2026-03-28T12:48:06.387Z</time></trkpt><trkpt lat="39.2136883" lon="16.8823917"><ele>213.0</ele><time>2026-03-28T12:48:07.387Z</time></trkpt><trkpt lat="39.2138067" lon="16.882515"><ele>217.0</ele><time>2026-03-28T12:48:08.387Z</time></trkpt><trkpt lat="39.2139017" lon="16.88261"><ele>221.0</ele><time>2026-03-28T12:48:09.388Z</time></trkpt><trkpt lat="39.2139467" lon="16.8826983"><ele>225.0</ele><time>2026-03-28T12:48:10.387Z</time></trkpt><trkpt lat="39.2139317" lon="16.8828217"><ele>229.0</ele><time>2026-03-28T12:48:12.388Z</time></trkpt><trkpt lat="39.213805" lon="16.88286"><ele>233.0</ele><time>2026-03-28T12:48:14.387Z</time></trkpt><trkpt lat="39.21367" lon="16.882835"><ele>233.0</ele><time>2026-03-28T12:48:15.387Z</time></trkpt><trkpt lat="39.2135283" lon="16.882795"><ele>233.0</ele><time>2026-03-28T12:48:16.387Z</time></trkpt><trkpt lat="39.2133833" lon="16.88277"><ele>233.0</ele><time>2026-03-28T12:48:17.387Z</time></trkpt><trkpt lat="39.213235" lon="16.8827467"><ele>233.0</ele><time>2026-03-28T12:48:18.387Z</time></trkpt><trkpt lat="39.2130983" lon="16.882725"><ele>233.00000000000003</ele><time>2026-03-28T12:48:19.387Z</time></trkpt><trkpt lat="39.21299" lon="16.8827217"><ele>233.0</ele><time>2026-03-28T12:48:20.388Z</time></trkpt><trkpt lat="39.2129267" lon="16.8827483"><ele>233.0</ele><time>2026-03-28T12:48:21.387Z</time></trkpt><trkpt lat="39.2129367" lon="16.8828333"><ele>233.0</ele><time>2026-03-28T12:48:23.388Z</time></trkpt><trkpt lat="39.21299" lon="16.88289"><ele>233.00000000000003</ele><time>2026-03-28T12:48:24.388Z</time></trkpt><trkpt lat="39.2130767" lon="16.8829633"><ele>233.0</ele><time>2026-03-28T12:48:25.387Z</time></trkpt><trkpt lat="39.21319" lon="16.883045"><ele>233.0</ele><time>2026-03-28T12:48:26.387Z</time></trkpt><trkpt lat="39.2133033" lon="16.8831317"><ele>233.0</ele><time>2026-03-28T12:48:27.387Z</time></trkpt><trkpt lat="39.21342" lon="16.8832267"><ele>233.0</ele><time>2026-03-28T12:48:28.387Z</time></trkpt><trkpt lat="39.2135267" lon="16.8833133"><ele>233.0</ele><time>2026-03-28T12:48:29.388Z</time></trkpt><trkpt lat="39.21362" lon="16.883375"><ele>233.0</ele><time>2026-03-28T12:48:30.387Z</time></trkpt><trkpt lat="39.2136817" lon="16.8834317"><ele>233.0</ele><time>2026-03-28T12:48:31.387Z</time></trkpt><trkpt lat="39.2136783" lon="16.8835183"><ele>233.0</ele><time>2026-03-28T12:48:33.388Z</time></trkpt><trkpt lat="39.21361" lon="16.8835117"><ele>233.0</ele><time>2026-03-28T12:48:34.387Z</time></trkpt><trkpt lat="39.2134983" lon="16.8834717"><ele>233.0</ele><time>2026-03-28T12:48:35.387Z</time></trkpt><trkpt lat="39.2133467" lon="16.8834083"><ele>233.0</ele><time>2026-03-28T12:48:36.387Z</time></trkpt><trkpt lat="39.213195" lon="16.8833533"><ele>233.0</ele><time>2026-03-28T12:48:37.387Z</time></trkpt><trkpt lat="39.2130233" lon="16.8832967"><ele>233.0</ele><time>2026-03-28T12:48:38.387Z</time></trkpt><trkpt lat="39.2128583" lon="16.8832317"><ele>234.4</ele><time>2026-03-28T12:48:39.387Z</time></trkpt><trkpt lat="39.2127217" lon="16.8831783"><ele>235.8</ele><time>2026-03-28T12:48:40.387Z</time></trkpt><trkpt lat="39.2126117" lon="16.8831383"><ele>237.2</ele><time>2026-03-28T12:48:41.387Z</time></trkpt><trkpt lat="39.2125367" lon="16.8831517"><ele>238.6</ele><time>2026-03-28T12:48:42.388Z</time></trkpt><trkpt lat="39.212485" lon="16.883235"><ele>240.0</ele><time>2026-03-28T12:48:44.387Z</time></trkpt><trkpt lat="39.212575" lon="16.8834067"><ele>241.5</ele><time>2026-03-28T12:48:46.388Z</time></trkpt><trkpt lat="39.21267" lon="16.8835383"><ele>243.0</ele><time>2026-03-28T12:48:47.387Z</time></trkpt><trkpt lat="39.2127517" lon="16.8836817"><ele>244.5</ele><time>2026-03-28T12:48:48.388Z</time></trkpt><trkpt lat="39.212825" lon="16.883835"><ele>246.0</ele><time>2026-03-28T12:48:49.387Z</time></trkpt><trkpt lat="39.2129" lon="16.8839867"><ele>246.0</ele><time>2026-03-28T12:48:50.387Z</time></trkpt><trkpt lat="39.21296" lon="16.8841317"><ele>246.00000000000003</ele><time>2026-03-28T12:48:51.387Z</time></trkpt><trkpt lat="39.2129933" lon="16.8842733"><ele>246.00000000000003</ele><time>2026-03-28T12:48:52.387Z</time></trkpt><trkpt lat="39.2130267" lon="16.8843967"><ele>246.0</ele><time>2026-03-28T12:48:53.387Z</time></trkpt><trkpt lat="39.21306" lon="16.8845083"><ele>246.0</ele><time>2026-03-28T12:48:54.387Z</time></trkpt><trkpt lat="39.213075" lon="16.88461"><ele>246.0</ele><time>2026-03-28T12:48:55.387Z</time></trkpt><trkpt lat="39.213085" lon="16.884715"><ele>246.0</ele><time>2026-03-28T12:48:56.388Z</time></trkpt><trkpt lat="39.2130933" lon="16.8848267"><ele>246.0</ele><time>2026-03-28T12:48:58.387Z</time></trkpt><trkpt lat="39.213085" lon="16.884955"><ele>246.0</ele><time>2026-03-28T12:49:33.387Z</time></trkpt><trkpt lat="39.21304" lon="16.8850767"><ele>246.0</ele><time>2026-03-28T12:49:41.387Z</time></trkpt><trkpt lat="39.2129983" lon="16.8851567"><ele>246.0</ele><time>2026-03-28T12:49:42.387Z</time></trkpt><trkpt lat="39.2129633" lon="16.8852367"><ele>247.16666666666666</ele><time>2026-03-28T12:49:43.387Z</time></trkpt><trkpt lat="39.21293" lon="16.8853317"><ele>248.33333333333331</ele><time>2026-03-28T12:49:44.387Z</time></trkpt><trkpt lat="39.21289" lon="16.88541"><ele>249.5</ele><time>2026-03-28T12:49:45.387Z</time></trkpt><trkpt lat="39.21285" lon="16.8854733"><ele>250.66666666666666</ele><time>2026-03-28T12:49:46.387Z</time></trkpt><trkpt lat="39.2127883" lon="16.8855683"><ele>251.83333333333331</ele><time>2026-03-28T12:49:48.388Z</time></trkpt><trkpt lat="39.2127417" lon="16.8856383"><ele>253.0</ele><time>2026-03-28T12:49:50.387Z</time></trkpt><trkpt lat="39.2126717" lon="16.8857067"><ele>253.0</ele><time>2026-03-28T12:49:52.387Z</time></trkpt><trkpt lat="39.21261" lon="16.88578"><ele>253.0</ele><time>2026-03-28T12:49:54.388Z</time></trkpt><trkpt lat="39.21255" lon="16.8858533"><ele>253.0</ele><time>2026-03-28T12:49:56.387Z</time></trkpt><trkpt lat="39.212485" lon="16.88592"><ele>253.0</ele><time>2026-03-28T12:49:58.387Z</time></trkpt><trkpt lat="39.2124183" lon="16.88599"><ele>253.0</ele><time>2026-03-28T12:50:00.387Z</time></trkpt><trkpt lat="39.2123267" lon="16.8861"><ele>253.16666666666666</ele><time>2026-03-28T12:50:02.387Z</time></trkpt><trkpt lat="39.212265" lon="16.8861783"><ele>253.33333333333331</ele><time>2026-03-28T12:50:03.387Z</time></trkpt><trkpt lat="39.2122083" lon="16.8862667"><ele>253.5</ele><time>2026-03-28T12:50:04.387Z</time></trkpt><trkpt lat="39.2121583" lon="16.8863433"><ele>253.66666666666669</ele><time>2026-03-28T12:50:05.387Z</time></trkpt><trkpt lat="39.2121167" lon="16.8864067"><ele>253.83333333333334</ele><time>2026-03-28T12:50:06.388Z</time></trkpt><trkpt lat="39.2120783" lon="16.88648"><ele>254.0</ele><time>2026-03-28T12:50:07.387Z</time></trkpt><trkpt lat="39.21204" lon="16.886555"><ele>254.0</ele><time>2026-03-28T12:50:08.387Z</time></trkpt><trkpt lat="39.212005" lon="16.8866367"><ele>253.99999999999997</ele><time>2026-03-28T12:50:09.388Z</time></trkpt><trkpt lat="39.2119633" lon="16.886735"><ele>253.99999999999997</ele><time>2026-03-28T12:50:10.388Z</time></trkpt><trkpt lat="39.2119233" lon="16.8868467"><ele>254.0</ele><time>2026-03-28T12:50:11.388Z</time></trkpt><trkpt lat="39.211885" lon="16.8869733"><ele>254.0</ele><time>2026-03-28T12:50:12.387Z</time></trkpt><trkpt lat="39.2118417" lon="16.88709"><ele>255.50000000000003</ele><time>2026-03-28T12:50:13.387Z</time></trkpt><trkpt lat="39.2118117" lon="16.8871917"><ele>257.0</ele><time>2026-03-28T12:50:14.387Z</time></trkpt><trkpt lat="39.2117833" lon="16.8872967"><ele>258.5</ele><time>2026-03-28T12:50:15.387Z</time></trkpt><trkpt lat="39.2117483" lon="16.8874033"><ele>260.0</ele><time>2026-03-28T12:50:16.387Z</time></trkpt><trkpt lat="39.211725" lon="16.8874983"><ele>261.5</ele><time>2026-03-28T12:50:17.387Z</time></trkpt><trkpt lat="39.211695" lon="16.8876133"><ele>263.0</ele><time>2026-03-28T12:50:18.387Z</time></trkpt><trkpt lat="39.2116683" lon="16.887705"><ele>263.1666666666667</ele><time>2026-03-28T12:50:19.388Z</time></trkpt><trkpt lat="39.211645" lon="16.8878017"><ele>263.33333333333337</ele><time>2026-03-28T12:50:21.387Z</time></trkpt><trkpt lat="39.2116167" lon="16.8878867"><ele>263.5</ele><time>2026-03-28T12:50:23.387Z</time></trkpt><trkpt lat="39.21159" lon="16.8879783"><ele>263.6666666666667</ele><time>2026-03-28T12:50:25.387Z</time></trkpt><trkpt lat="39.2116233" lon="16.8880533"><ele>263.8333333333333</ele><time>2026-03-28T12:50:27.387Z</time></trkpt><trkpt lat="39.2117167" lon="16.8880483"><ele>264.0</ele><time>2026-03-28T12:50:29.387Z</time></trkpt><trkpt lat="39.211805" lon="16.8880317"><ele>264.0</ele><time>2026-03-28T12:50:30.387Z</time></trkpt><trkpt lat="39.21191" lon="16.888"><ele>264.0</ele><time>2026-03-28T12:50:31.387Z</time></trkpt><trkpt lat="39.21203" lon="16.8879683"><ele>264.0</ele><time>2026-03-28T12:50:32.388Z</time></trkpt><trkpt lat="39.2121517" lon="16.8879217"><ele>264.0</ele><time>2026-03-28T12:50:33.387Z</time></trkpt><trkpt lat="39.212275" lon="16.887875"><ele>266.8</ele><time>2026-03-28T12:50:34.388Z</time></trkpt><trkpt lat="39.2123867" lon="16.8878283"><ele>269.59999999999997</ele><time>2026-03-28T12:50:35.388Z</time></trkpt><trkpt lat="39.21248" lon="16.88777"><ele>272.4</ele><time>2026-03-28T12:50:36.388Z</time></trkpt><trkpt lat="39.212575" lon="16.88773"><ele>275.2</ele><time>2026-03-28T12:50:37.388Z</time></trkpt><trkpt lat="39.2126633" lon="16.8876767"><ele>278.0</ele><time>2026-03-28T12:50:38.388Z</time></trkpt><trkpt lat="39.212745" lon="16.8876267"><ele>277.33333333333337</ele><time>2026-03-28T12:50:39.388Z</time></trkpt><trkpt lat="39.2128217" lon="16.8875783"><ele>276.6666666666667</ele><time>2026-03-28T12:50:40.389Z</time></trkpt><trkpt lat="39.2129017" lon="16.8875267"><ele>276.0</ele><time>2026-03-28T12:50:41.389Z</time></trkpt><trkpt lat="39.21298" lon="16.887475"><ele>275.3333333333333</ele><time>2026-03-28T12:50:42.388Z</time></trkpt><trkpt lat="39.2130583" lon="16.8874217"><ele>274.66666666666663</ele><time>2026-03-28T12:50:43.389Z</time></trkpt><trkpt lat="39.213135" lon="16.887385"><ele>274.0</ele><time>2026-03-28T12:50:44.389Z</time></trkpt><trkpt lat="39.213215" lon="16.8873633"><ele>275.3333333333333</ele><time>2026-03-28T12:50:45.388Z</time></trkpt><trkpt lat="39.2132833" lon="16.887375"><ele>276.66666666666663</ele><time>2026-03-28T12:50:46.388Z</time></trkpt><trkpt lat="39.213355" lon="16.88741"><ele>278.0</ele><time>2026-03-28T12:50:47.388Z</time></trkpt><trkpt lat="39.2134417" lon="16.88744"><ele>279.3333333333333</ele><time>2026-03-28T12:50:48.388Z</time></trkpt><trkpt lat="39.21354" lon="16.8874533"><ele>280.6666666666667</ele><time>2026-03-28T12:50:49.389Z</time></trkpt><trkpt lat="39.213625" lon="16.88748"><ele>282.0</ele><time>2026-03-28T12:50:50.389Z</time></trkpt><trkpt lat="39.2137117" lon="16.8874983"><ele>282.0</ele><time>2026-03-28T12:50:51.388Z</time></trkpt><trkpt lat="39.2138017" lon="16.887525"><ele>282.0</ele><time>2026-03-28T12:50:52.389Z</time></trkpt><trkpt lat="39.2139017" lon="16.887545"><ele>282.0</ele><time>2026-03-28T12:50:53.389Z</time></trkpt><trkpt lat="39.2140017" lon="16.8875617"><ele>282.0</ele><time>2026-03-28T12:50:54.388Z</time></trkpt><trkpt lat="39.2140867" lon="16.88757"><ele>282.0</ele><time>2026-03-28T12:50:55.389Z</time></trkpt><trkpt lat="39.2141783" lon="16.887595"><ele>284.75</ele><time>2026-03-28T12:50:56.388Z</time></trkpt><trkpt lat="39.214275" lon="16.887655"><ele>287.5</ele><time>2026-03-28T12:50:57.389Z</time></trkpt><trkpt lat="39.21435" lon="16.8877583"><ele>290.25</ele><time>2026-03-28T12:50:58.388Z</time></trkpt><trkpt lat="39.2144233" lon="16.8878867"><ele>293.0</ele><time>2026-03-28T12:50:59.389Z</time></trkpt><trkpt lat="39.2144867" lon="16.8880333"><ele>293.0</ele><time>2026-03-28T12:51:00.388Z</time></trkpt><trkpt lat="39.2145667" lon="16.8881717"><ele>293.0</ele><time>2026-03-28T12:51:01.388Z</time></trkpt><trkpt lat="39.2146283" lon="16.8883133"><ele>293.0</ele><time>2026-03-28T12:51:02.388Z</time></trkpt><trkpt lat="39.2146917" lon="16.888445"><ele>293.0</ele><time>2026-03-28T12:51:03.388Z</time></trkpt><trkpt lat="39.2147583" lon="16.88854"><ele>292.83333333333337</ele><time>2026-03-28T12:51:04.388Z</time></trkpt><trkpt lat="39.2148333" lon="16.8886167"><ele>292.6666666666667</ele><time>2026-03-28T12:51:05.388Z</time></trkpt><trkpt lat="39.2149083" lon="16.8886983"><ele>292.5</ele><time>2026-03-28T12:51:06.389Z</time></trkpt><trkpt lat="39.214975" lon="16.8887767"><ele>292.3333333333333</ele><time>2026-03-28T12:51:07.389Z</time></trkpt><trkpt lat="39.21504" lon="16.8888383"><ele>292.16666666666663</ele><time>2026-03-28T12:51:08.388Z</time></trkpt><trkpt lat="39.215115" lon="16.8888883"><ele>292.0</ele><time>2026-03-28T12:51:09.388Z</time></trkpt><trkpt lat="39.215195" lon="16.8889383"><ele>292.0</ele><time>2026-03-28T12:51:10.389Z</time></trkpt><trkpt lat="39.2152667" lon="16.8889883"><ele>292.0</ele><time>2026-03-28T12:51:11.388Z</time></trkpt><trkpt lat="39.2153483" lon="16.8890433"><ele>292.0</ele><time>2026-03-28T12:51:12.388Z</time></trkpt><trkpt lat="39.215425" lon="16.8891033"><ele>292.0</ele><time>2026-03-28T12:51:13.388Z</time></trkpt><trkpt lat="39.2155017" lon="16.8891683"><ele>292.0</ele><time>2026-03-28T12:51:14.388Z</time></trkpt><trkpt lat="39.2155783" lon="16.8892333"><ele>292.0</ele><time>2026-03-28T12:51:15.388Z</time></trkpt><trkpt lat="39.2156533" lon="16.88931"><ele>290.4</ele><time>2026-03-28T12:51:16.388Z</time></trkpt><trkpt lat="39.2157067" lon="16.88941"><ele>288.79999999999995</ele><time>2026-03-28T12:51:17.388Z</time></trkpt><trkpt lat="39.2157583" lon="16.8895133"><ele>287.2</ele><time>2026-03-28T12:51:18.388Z</time></trkpt><trkpt lat="39.2158167" lon="16.8896133"><ele>285.59999999999997</ele><time>2026-03-28T12:51:19.388Z</time></trkpt><trkpt lat="39.2158633" lon="16.8897033"><ele>284.0</ele><time>2026-03-28T12:51:20.388Z</time></trkpt><trkpt lat="39.2159083" lon="16.8897967"><ele>284.0</ele><time>2026-03-28T12:51:21.389Z</time></trkpt><trkpt lat="39.2159483" lon="16.8898683"><ele>284.0</ele><time>2026-03-28T12:51:22.388Z</time></trkpt><trkpt lat="39.2160133" lon="16.8899767"><ele>284.0</ele><time>2026-03-28T12:51:24.388Z</time></trkpt><trkpt lat="39.2160567" lon="16.8900817"><ele>284.0</ele><time>2026-03-28T12:51:26.388Z</time></trkpt><trkpt lat="39.21609" lon="16.890165"><ele>284.0</ele><time>2026-03-28T12:51:28.388Z</time></trkpt><trkpt lat="39.2161067" lon="16.8902817"><ele>284.0</ele><time>2026-03-28T12:51:31.388Z</time></trkpt><trkpt lat="39.21616" lon="16.8903767"><ele>283.59999999999997</ele><time>2026-03-28T12:51:33.388Z</time></trkpt><trkpt lat="39.2162483" lon="16.89046"><ele>283.2</ele><time>2026-03-28T12:51:35.388Z</time></trkpt><trkpt lat="39.2163333" lon="16.8905267"><ele>282.79999999999995</ele><time>2026-03-28T12:51:37.388Z</time></trkpt><trkpt lat="39.2164183" lon="16.8906017"><ele>282.4</ele><time>2026-03-28T12:51:39.388Z</time></trkpt><trkpt lat="39.2164983" lon="16.8906967"><ele>282.0</ele><time>2026-03-28T12:51:41.388Z</time></trkpt><trkpt lat="39.2166017" lon="16.89077"><ele>282.0</ele><time>2026-03-28T12:51:43.388Z</time></trkpt><trkpt lat="39.21667" lon="16.8908083"><ele>282.0</ele><time>2026-03-28T12:51:44.388Z</time></trkpt><trkpt lat="39.2167417" lon="16.890855"><ele>282.0</ele><time>2026-03-28T12:51:45.388Z</time></trkpt><trkpt lat="39.2168083" lon="16.8909017"><ele>282.0</ele><time>2026-03-28T12:51:46.388Z</time></trkpt><trkpt lat="39.21687" lon="16.890945"><ele>282.0</ele><time>2026-03-28T12:51:47.388Z</time></trkpt><trkpt lat="39.2169567" lon="16.8910667"><ele>282.0</ele><time>2026-03-28T12:51:49.388Z</time></trkpt><trkpt lat="39.2170133" lon="16.8911283"><ele>273.75</ele><time>2026-03-28T12:51:50.388Z</time></trkpt><trkpt lat="39.2170683" lon="16.8912183"><ele>265.5</ele><time>2026-03-28T12:51:51.388Z</time></trkpt><trkpt lat="39.21715" lon="16.8913167"><ele>257.25</ele><time>2026-03-28T12:51:52.388Z</time></trkpt><trkpt lat="39.2172333" lon="16.8914467"><ele>249.0</ele><time>2026-03-28T12:51:53.388Z</time></trkpt><trkpt lat="39.2173117" lon="16.89157"><ele>250.79999999999998</ele><time>2026-03-28T12:51:54.388Z</time></trkpt><trkpt lat="39.217385" lon="16.8916867"><ele>252.59999999999997</ele><time>2026-03-28T12:51:55.388Z</time></trkpt><trkpt lat="39.2174733" lon="16.891785"><ele>254.4</ele><time>2026-03-28T12:51:56.388Z</time></trkpt><trkpt lat="39.217535" lon="16.8918883"><ele>256.2</ele><time>2026-03-28T12:51:57.389Z</time></trkpt><trkpt lat="39.2175917" lon="16.8919717"><ele>258.0</ele><time>2026-03-28T12:51:58.388Z</time></trkpt><trkpt lat="39.2176483" lon="16.8920517"><ele>258.0</ele><time>2026-03-28T12:51:59.388Z</time></trkpt><trkpt lat="39.2177133" lon="16.8921583"><ele>258.0</ele><time>2026-03-28T12:52:00.388Z</time></trkpt><trkpt lat="39.2177933" lon="16.89228"><ele>258.0</ele><time>2026-03-28T12:52:01.388Z</time></trkpt><trkpt lat="39.2178767" lon="16.8923917"><ele>258.0</ele><time>2026-03-28T12:52:02.389Z</time></trkpt><trkpt lat="39.217955" lon="16.8924867"><ele>259.2</ele><time>2026-03-28T12:52:03.388Z</time></trkpt><trkpt lat="39.2180083" lon="16.892595"><ele>260.4</ele><time>2026-03-28T12:52:04.388Z</time></trkpt><trkpt lat="39.2180633" lon="16.89269"><ele>261.59999999999997</ele><time>2026-03-28T12:52:05.388Z</time></trkpt><trkpt lat="39.218125" lon="16.8927733"><ele>262.8</ele><time>2026-03-28T12:52:06.388Z</time></trkpt><trkpt lat="39.2181917" lon="16.892845"><ele>264.0</ele><time>2026-03-28T12:52:07.388Z</time></trkpt><trkpt lat="39.2182633" lon="16.89292"><ele>264.0</ele><time>2026-03-28T12:52:08.389Z</time></trkpt><trkpt lat="39.2183433" lon="16.8929817"><ele>264.0</ele><time>2026-03-28T12:52:09.388Z</time></trkpt><trkpt lat="39.2184183" lon="16.8930483"><ele>264.0</ele><time>2026-03-28T12:52:10.389Z</time></trkpt><trkpt lat="39.2184867" lon="16.8931117"><ele>264.0</ele><time>2026-03-28T12:52:11.388Z</time></trkpt><trkpt lat="39.218555" lon="16.893165"><ele>264.0</ele><time>2026-03-28T12:52:12.388Z</time></trkpt><trkpt lat="39.21862" lon="16.8932133"><ele>264.0</ele><time>2026-03-28T12:52:13.388Z</time></trkpt><trkpt lat="39.2186783" lon="16.8932667"><ele>264.0</ele><time>2026-03-28T12:52:14.388Z</time></trkpt><trkpt lat="39.2187367" lon="16.89332"><ele>264.0</ele><time>2026-03-28T12:52:15.388Z</time></trkpt><trkpt lat="39.2187967" lon="16.8933717"><ele>264.0</ele><time>2026-03-28T12:52:16.389Z</time></trkpt><trkpt lat="39.2188617" lon="16.8934217"><ele>264.0</ele><time>2026-03-28T12:52:17.388Z</time></trkpt><trkpt lat="39.2189317" lon="16.89347"><ele>264.0</ele><time>2026-03-28T12:52:18.389Z</time></trkpt><trkpt lat="39.2190083" lon="16.893535"><ele>264.0</ele><time>2026-03-28T12:52:19.388Z</time></trkpt><trkpt lat="39.219085" lon="16.893605"><ele>264.5</ele><time>2026-03-28T12:52:20.388Z</time></trkpt><trkpt lat="39.2191583" lon="16.8936733"><ele>265.0</ele><time>2026-03-28T12:52:21.388Z</time></trkpt><trkpt lat="39.219225" lon="16.893735"><ele>265.5</ele><time>2026-03-28T12:52:22.389Z</time></trkpt><trkpt lat="39.2192883" lon="16.8938017"><ele>266.0</ele><time>2026-03-28T12:52:23.388Z</time></trkpt><trkpt lat="39.2193583" lon="16.8938767"><ele>266.5</ele><time>2026-03-28T12:52:24.388Z</time></trkpt><trkpt lat="39.2194283" lon="16.8939417"><ele>267.0</ele><time>2026-03-28T12:52:25.388Z</time></trkpt><trkpt lat="39.2194967" lon="16.894005"><ele>267.0</ele><time>2026-03-28T12:52:26.389Z</time></trkpt><trkpt lat="39.2195683" lon="16.8940633"><ele>267.0</ele><time>2026-03-28T12:52:27.389Z</time></trkpt><trkpt lat="39.2196367" lon="16.8941333"><ele>267.0</ele><time>2026-03-28T12:52:28.388Z</time></trkpt><trkpt lat="39.2197067" lon="16.8942083"><ele>267.0</ele><time>2026-03-28T12:52:29.388Z</time></trkpt><trkpt lat="39.2197733" lon="16.8942867"><ele>267.0</ele><time>2026-03-28T12:52:30.388Z</time></trkpt><trkpt lat="39.2198333" lon="16.89436"><ele>267.0</ele><time>2026-03-28T12:52:31.389Z</time></trkpt><trkpt lat="39.2198983" lon="16.8944333"><ele>269.6</ele><time>2026-03-28T12:52:32.388Z</time></trkpt><trkpt lat="39.219955" lon="16.894515"><ele>272.2</ele><time>2026-03-28T12:52:33.388Z</time></trkpt><trkpt lat="39.2200233" lon="16.8945867"><ele>274.8</ele><time>2026-03-28T12:52:34.388Z</time></trkpt><trkpt lat="39.2200917" lon="16.89465"><ele>277.4</ele><time>2026-03-28T12:52:35.388Z</time></trkpt><trkpt lat="39.22017" lon="16.8947167"><ele>280.0</ele><time>2026-03-28T12:52:36.388Z</time></trkpt><trkpt lat="39.2202533" lon="16.8948"><ele>280.0</ele><time>2026-03-28T12:52:37.389Z</time></trkpt><trkpt lat="39.2203367" lon="16.89488"><ele>280.0</ele><time>2026-03-28T12:52:38.388Z</time></trkpt><trkpt lat="39.2204217" lon="16.894975"><ele>280.0</ele><time>2026-03-28T12:52:39.388Z</time></trkpt><trkpt lat="39.2205117" lon="16.8950817"><ele>280.0</ele><time>2026-03-28T12:52:40.388Z</time></trkpt><trkpt lat="39.2206083" lon="16.8952083"><ele>281.75</ele><time>2026-03-28T12:52:41.388Z</time></trkpt><trkpt lat="39.2206917" lon="16.8953567"><ele>283.5</ele><time>2026-03-28T12:52:42.389Z</time></trkpt><trkpt lat="39.22079" lon="16.8955"><ele>285.25</ele><time>2026-03-28T12:52:43.389Z</time></trkpt><trkpt lat="39.2209033" lon="16.895615"><ele>287.0</ele><time>2026-03-28T12:52:44.388Z</time></trkpt><trkpt lat="39.221015" lon="16.8957217"><ele>287.0</ele><time>2026-03-28T12:52:45.389Z</time></trkpt><trkpt lat="39.2211317" lon="16.8958317"><ele>287.0</ele><time>2026-03-28T12:52:46.388Z</time></trkpt><trkpt lat="39.2212483" lon="16.8959533"><ele>287.0</ele><time>2026-03-28T12:52:47.388Z</time></trkpt><trkpt lat="39.2213767" lon="16.89607"><ele>288.5</ele><time>2026-03-28T12:52:48.388Z</time></trkpt><trkpt lat="39.221505" lon="16.8961867"><ele>290.0</ele><time>2026-03-28T12:52:49.388Z</time></trkpt><trkpt lat="39.2216267" lon="16.8963"><ele>291.5</ele><time>2026-03-28T12:52:50.388Z</time></trkpt><trkpt lat="39.2217483" lon="16.896395"><ele>293.0</ele><time>2026-03-28T12:52:51.389Z</time></trkpt><trkpt lat="39.2218733" lon="16.8964967"><ele>293.0</ele><time>2026-03-28T12:52:52.388Z</time></trkpt><trkpt lat="39.221995" lon="16.89658"><ele>293.0</ele><time>2026-03-28T12:52:53.389Z</time></trkpt><trkpt lat="39.2221167" lon="16.8966783"><ele>293.0</ele><time>2026-03-28T12:52:54.388Z</time></trkpt><trkpt lat="39.2222433" lon="16.8967767"><ele>293.0</ele><time>2026-03-28T12:52:55.388Z</time></trkpt><trkpt lat="39.222375" lon="16.8968883"><ele>294.6666666666667</ele><time>2026-03-28T12:52:56.388Z</time></trkpt><trkpt lat="39.2225133" lon="16.8969967"><ele>296.3333333333333</ele><time>2026-03-28T12:52:57.388Z</time></trkpt><trkpt lat="39.2226517" lon="16.8971133"><ele>298.0</ele><time>2026-03-28T12:52:58.388Z</time></trkpt><trkpt lat="39.2227967" lon="16.897245"><ele>298.0</ele><time>2026-03-28T12:52:59.388Z</time></trkpt><trkpt lat="39.2229483" lon="16.89737"><ele>298.0</ele><time>2026-03-28T12:53:00.388Z</time></trkpt><trkpt lat="39.223115" lon="16.8974933"><ele>298.0</ele><time>2026-03-28T12:53:01.389Z</time></trkpt><trkpt lat="39.2232917" lon="16.8976267"><ele>298.0</ele><time>2026-03-28T12:53:02.388Z</time></trkpt><trkpt lat="39.2234717" lon="16.8977767"><ele>298.0</ele><time>2026-03-28T12:53:03.388Z</time></trkpt><trkpt lat="39.223655" lon="16.89792"><ele>298.0</ele><time>2026-03-28T12:53:04.388Z</time></trkpt><trkpt lat="39.223835" lon="16.8980667"><ele>294.3333333333333</ele><time>2026-03-28T12:53:05.388Z</time></trkpt><trkpt lat="39.224015" lon="16.8982383"><ele>290.6666666666667</ele><time>2026-03-28T12:53:06.389Z</time></trkpt><trkpt lat="39.2241867" lon="16.8983867"><ele>287.0</ele><time>2026-03-28T12:53:07.388Z</time></trkpt><trkpt lat="39.224355" lon="16.8985333"><ele>287.0</ele><time>2026-03-28T12:53:08.388Z</time></trkpt><trkpt lat="39.2245017" lon="16.8986517"><ele>287.0</ele><time>2026-03-28T12:53:09.388Z</time></trkpt><trkpt lat="39.22463" lon="16.898765"><ele>287.0</ele><time>2026-03-28T12:53:10.388Z</time></trkpt><trkpt lat="39.22474" lon="16.898875"><ele>286.5</ele><time>2026-03-28T12:53:11.388Z</time></trkpt><trkpt lat="39.22484" lon="16.8989867"><ele>286.0</ele><time>2026-03-28T12:53:12.389Z</time></trkpt><trkpt lat="39.2249333" lon="16.8990983"><ele>285.5</ele><time>2026-03-28T12:53:13.388Z</time></trkpt><trkpt lat="39.2250367" lon="16.89922"><ele>285.0</ele><time>2026-03-28T12:53:14.388Z</time></trkpt><trkpt lat="39.2251533" lon="16.8993483"><ele>285.0</ele><time>2026-03-28T12:53:15.388Z</time></trkpt><trkpt lat="39.2252867" lon="16.89948"><ele>285.0</ele><time>2026-03-28T12:53:16.389Z</time></trkpt><trkpt lat="39.2254383" lon="16.8996417"><ele>285.0</ele><time>2026-03-28T12:53:17.388Z</time></trkpt><trkpt lat="39.2256033" lon="16.8998217"><ele>287.0</ele><time>2026-03-28T12:53:18.388Z</time></trkpt><trkpt lat="39.22578" lon="16.9000067"><ele>289.0</ele><time>2026-03-28T12:53:19.388Z</time></trkpt><trkpt lat="39.2259417" lon="16.9001933"><ele>291.0</ele><time>2026-03-28T12:53:20.389Z</time></trkpt><trkpt lat="39.2260983" lon="16.9003567"><ele>291.0</ele><time>2026-03-28T12:53:21.388Z</time></trkpt><trkpt lat="39.2262433" lon="16.9005167"><ele>291.0</ele><time>2026-03-28T12:53:22.388Z</time></trkpt><trkpt lat="39.2263783" lon="16.90066"><ele>291.0</ele><time>2026-03-28T12:53:23.389Z</time></trkpt><trkpt lat="39.2264983" lon="16.9007983"><ele>298.25</ele><time>2026-03-28T12:53:24.388Z</time></trkpt><trkpt lat="39.2266017" lon="16.90094"><ele>305.5</ele><time>2026-03-28T12:53:25.389Z</time></trkpt><trkpt lat="39.2266883" lon="16.9010767"><ele>312.75</ele><time>2026-03-28T12:53:26.389Z</time></trkpt><trkpt lat="39.2267533" lon="16.90123"><ele>320.0</ele><time>2026-03-28T12:53:27.388Z</time></trkpt><trkpt lat="39.2267933" lon="16.9013817"><ele>320.0</ele><time>2026-03-28T12:53:28.388Z</time></trkpt><trkpt lat="39.2268167" lon="16.9015417"><ele>320.0</ele><time>2026-03-28T12:53:29.388Z</time></trkpt><trkpt lat="39.2268283" lon="16.9016933"><ele>320.0</ele><time>2026-03-28T12:53:30.388Z</time></trkpt><trkpt lat="39.22684" lon="16.901845"><ele>320.0</ele><time>2026-03-28T12:53:31.388Z</time></trkpt><trkpt lat="39.2268683" lon="16.9019917"><ele>320.25</ele><time>2026-03-28T12:53:32.389Z</time></trkpt><trkpt lat="39.2269183" lon="16.9021333"><ele>320.5</ele><time>2026-03-28T12:53:33.388Z</time></trkpt><trkpt lat="39.2269867" lon="16.90227"><ele>320.75</ele><time>2026-03-28T12:53:34.389Z</time></trkpt><trkpt lat="39.2270683" lon="16.9024033"><ele>321.0</ele><time>2026-03-28T12:53:35.389Z</time></trkpt><trkpt lat="39.227165" lon="16.902545"><ele>321.0</ele><time>2026-03-28T12:53:36.388Z</time></trkpt><trkpt lat="39.2272817" lon="16.9026983"><ele>321.0</ele><time>2026-03-28T12:53:37.388Z</time></trkpt><trkpt lat="39.2273933" lon="16.90284"><ele>321.0</ele><time>2026-03-28T12:53:38.389Z</time></trkpt><trkpt lat="39.22751" lon="16.902975"><ele>325.3333333333333</ele><time>2026-03-28T12:53:39.388Z</time></trkpt><trkpt lat="39.2276267" lon="16.9030917"><ele>329.66666666666663</ele><time>2026-03-28T12:53:40.388Z</time></trkpt><trkpt lat="39.2277517" lon="16.9032183"><ele>334.0</ele><time>2026-03-28T12:53:41.388Z</time></trkpt><trkpt lat="39.22787" lon="16.9033317"><ele>333.79999999999995</ele><time>2026-03-28T12:53:42.389Z</time></trkpt><trkpt lat="39.227975" lon="16.9034367"><ele>333.59999999999997</ele><time>2026-03-28T12:53:43.388Z</time></trkpt><trkpt lat="39.228065" lon="16.9035083"><ele>333.4</ele><time>2026-03-28T12:53:44.389Z</time></trkpt><trkpt lat="39.2281567" lon="16.90355"><ele>333.2</ele><time>2026-03-28T12:53:45.388Z</time></trkpt><trkpt lat="39.2282517" lon="16.90357"><ele>333.0</ele><time>2026-03-28T12:53:46.388Z</time></trkpt><trkpt lat="39.2283717" lon="16.9035767"><ele>334.0</ele><time>2026-03-28T12:53:47.388Z</time></trkpt><trkpt lat="39.2285067" lon="16.903585"><ele>335.0</ele><time>2026-03-28T12:53:48.388Z</time></trkpt><trkpt lat="39.2286583" lon="16.9036"><ele>336.0</ele><time>2026-03-28T12:53:49.388Z</time></trkpt><trkpt lat="39.2288083" lon="16.9036367"><ele>337.0</ele><time>2026-03-28T12:53:50.388Z</time></trkpt><trkpt lat="39.2289617" lon="16.90367"><ele>338.25</ele><time>2026-03-28T12:53:51.388Z</time></trkpt><trkpt lat="39.229095" lon="16.9037133"><ele>339.5</ele><time>2026-03-28T12:53:52.389Z</time></trkpt><trkpt lat="39.2292217" lon="16.9037533"><ele>340.75</ele><time>2026-03-28T12:53:53.389Z</time></trkpt><trkpt lat="39.2293233" lon="16.9037533"><ele>342.0</ele><time>2026-03-28T12:53:54.388Z</time></trkpt><trkpt lat="39.2294083" lon="16.9037383"><ele>342.0</ele><time>2026-03-28T12:53:55.388Z</time></trkpt><trkpt lat="39.22949" lon="16.90372"><ele>342.0</ele><time>2026-03-28T12:53:56.388Z</time></trkpt><trkpt lat="39.2295667" lon="16.9036983"><ele>342.0</ele><time>2026-03-28T12:53:57.388Z</time></trkpt><trkpt lat="39.22964" lon="16.9036833"><ele>342.0</ele><time>2026-03-28T12:53:58.388Z</time></trkpt><trkpt lat="39.2297333" lon="16.9036783"><ele>342.0</ele><time>2026-03-28T12:54:00.388Z</time></trkpt><trkpt lat="39.2298" lon="16.90369"><ele>342.0</ele><time>2026-03-28T12:54:05.388Z</time></trkpt><trkpt lat="39.2298667" lon="16.90372"><ele>342.0</ele><time>2026-03-28T12:54:14.388Z</time></trkpt><trkpt lat="39.2299267" lon="16.9038033"><ele>342.0</ele><time>2026-03-28T12:54:17.389Z</time></trkpt><trkpt lat="39.2299167" lon="16.90372"><ele>342.0</ele><time>2026-03-28T12:54:32.388Z</time></trkpt><trkpt lat="39.22986" lon="16.90366"><ele>342.0</ele><time>2026-03-28T13:54:47.391Z</time></trkpt><trkpt lat="39.229785" lon="16.9036567"><ele>342.0</ele><time>2026-03-28T13:54:50.391Z</time></trkpt><trkpt lat="39.2297183" lon="16.90366"><ele>342.0</ele><time>2026-03-28T13:54:52.391Z</time></trkpt><trkpt lat="39.2296367" lon="16.9036733"><ele>342.0</ele><time>2026-03-28T13:54:54.391Z</time></trkpt><trkpt lat="39.2295017" lon="16.90371"><ele>342.0</ele><time>2026-03-28T13:54:56.391Z</time></trkpt><trkpt lat="39.2294083" lon="16.9037317"><ele>342.0</ele><time>2026-03-28T13:54:57.391Z</time></trkpt><trkpt lat="39.22931" lon="16.90375"><ele>342.0</ele><time>2026-03-28T13:54:58.391Z</time></trkpt><trkpt lat="39.2292333" lon="16.9037533"><ele>342.0</ele><time>2026-03-28T13:54:59.392Z</time></trkpt><trkpt lat="39.2291583" lon="16.9037467"><ele>342.0</ele><time>2026-03-28T13:55:00.391Z</time></trkpt><trkpt lat="39.229085" lon="16.903715"><ele>342.0</ele><time>2026-03-28T13:55:01.391Z</time></trkpt><trkpt lat="39.229015" lon="16.9036767"><ele>342.0</ele><time>2026-03-28T13:55:02.391Z</time></trkpt><trkpt lat="39.22892" lon="16.9036333"><ele>342.0</ele><time>2026-03-28T13:55:03.391Z</time></trkpt><trkpt lat="39.2288233" lon="16.9036"><ele>342.0</ele><time>2026-03-28T13:55:04.392Z</time></trkpt><trkpt lat="39.228715" lon="16.9035783"><ele>341.1666666666667</ele><time>2026-03-28T13:55:05.392Z</time></trkpt><trkpt lat="39.22861" lon="16.9035667"><ele>340.3333333333333</ele><time>2026-03-28T13:55:06.391Z</time></trkpt><trkpt lat="39.22851" lon="16.9035567"><ele>339.5</ele><time>2026-03-28T13:55:07.391Z</time></trkpt><trkpt lat="39.228425" lon="16.903545"><ele>338.66666666666663</ele><time>2026-03-28T13:55:08.391Z</time></trkpt><trkpt lat="39.2283467" lon="16.9035367"><ele>337.8333333333333</ele><time>2026-03-28T13:55:09.391Z</time></trkpt><trkpt lat="39.228275" lon="16.9035267"><ele>337.0</ele><time>2026-03-28T13:55:10.391Z</time></trkpt><trkpt lat="39.2281667" lon="16.9035033"><ele>336.40000000000003</ele><time>2026-03-28T13:55:12.392Z</time></trkpt><trkpt lat="39.2280433" lon="16.903445"><ele>335.8</ele><time>2026-03-28T13:55:14.391Z</time></trkpt><trkpt lat="39.2279733" lon="16.903385"><ele>335.2</ele><time>2026-03-28T13:55:15.391Z</time></trkpt><trkpt lat="39.2278967" lon="16.9033167"><ele>334.6</ele><time>2026-03-28T13:55:16.391Z</time></trkpt><trkpt lat="39.227815" lon="16.903245"><ele>334.0</ele><time>2026-03-28T13:55:17.391Z</time></trkpt><trkpt lat="39.22774" lon="16.903175"><ele>334.0</ele><time>2026-03-28T13:55:18.392Z</time></trkpt><trkpt lat="39.22766" lon="16.903105"><ele>334.0</ele><time>2026-03-28T13:55:19.391Z</time></trkpt><trkpt lat="39.22758" lon="16.9030233"><ele>334.0</ele><time>2026-03-28T13:55:20.391Z</time></trkpt><trkpt lat="39.2275" lon="16.9029333"><ele>334.0</ele><time>2026-03-28T13:55:21.391Z</time></trkpt><trkpt lat="39.2274017" lon="16.9028283"><ele>334.0</ele><time>2026-03-28T13:55:22.391Z</time></trkpt><trkpt lat="39.2273017" lon="16.90272"><ele>331.4</ele><time>2026-03-28T13:55:23.391Z</time></trkpt><trkpt lat="39.2272167" lon="16.90261"><ele>328.79999999999995</ele><time>2026-03-28T13:55:24.392Z</time></trkpt><trkpt lat="39.227135" lon="16.9024933"><ele>326.20000000000005</ele><time>2026-03-28T13:55:25.391Z</time></trkpt><trkpt lat="39.2270667" lon="16.9023883"><ele>323.6</ele><time>2026-03-28T13:55:26.391Z</time></trkpt><trkpt lat="39.227005" lon="16.9022867"><ele>321.0</ele><time>2026-03-28T13:55:27.392Z</time></trkpt><trkpt lat="39.2269567" lon="16.90219"><ele>321.0</ele><time>2026-03-28T13:55:28.391Z</time></trkpt><trkpt lat="39.2269117" lon="16.9020933"><ele>321.0</ele><time>2026-03-28T13:55:29.391Z</time></trkpt><trkpt lat="39.226885" lon="16.902"><ele>321.0</ele><time>2026-03-28T13:55:30.391Z</time></trkpt><trkpt lat="39.22686" lon="16.901865"><ele>321.0</ele><time>2026-03-28T13:55:32.391Z</time></trkpt><trkpt lat="39.226855" lon="16.9017833"><ele>321.0</ele><time>2026-03-28T13:55:34.391Z</time></trkpt><trkpt lat="39.226845" lon="16.901685"><ele>321.0</ele><time>2026-03-28T13:55:38.391Z</time></trkpt><trkpt lat="39.22677" lon="16.90159"><ele>321.0</ele><time>2026-03-28T13:58:36.391Z</time></trkpt><trkpt lat="39.2267083" lon="16.9016717"><ele>321.0</ele><time>2026-03-28T13:58:39.391Z</time></trkpt><trkpt lat="39.2266617" lon="16.9017433"><ele>321.0</ele><time>2026-03-28T13:58:40.391Z</time></trkpt><trkpt lat="39.2265933" lon="16.9018483"><ele>321.0</ele><time>2026-03-28T13:58:41.391Z</time></trkpt><trkpt lat="39.226515" lon="16.9019883"><ele>321.0</ele><time>2026-03-28T13:58:42.391Z</time></trkpt><trkpt lat="39.2264267" lon="16.90213"><ele>317.2</ele><time>2026-03-28T13:58:43.391Z</time></trkpt><trkpt lat="39.2263467" lon="16.902255"><ele>313.40000000000003</ele><time>2026-03-28T13:58:44.391Z</time></trkpt><trkpt lat="39.2263033" lon="16.90239"><ele>309.6</ele><time>2026-03-28T13:58:45.391Z</time></trkpt><trkpt lat="39.2262933" lon="16.9025217"><ele>305.8</ele><time>2026-03-28T13:58:46.391Z</time></trkpt><trkpt lat="39.226305" lon="16.9026483"><ele>302.0</ele><time>2026-03-28T13:58:47.391Z</time></trkpt><trkpt lat="39.22633" lon="16.9027683"><ele>302.0</ele><time>2026-03-28T13:58:48.391Z</time></trkpt><trkpt lat="39.2263583" lon="16.9028967"><ele>302.0</ele><time>2026-03-28T13:58:49.391Z</time></trkpt><trkpt lat="39.2263867" lon="16.9030133"><ele>302.0</ele><time>2026-03-28T13:58:50.391Z</time></trkpt><trkpt lat="39.2264067" lon="16.9031517"><ele>302.0</ele><time>2026-03-28T13:58:51.391Z</time></trkpt><trkpt lat="39.2264233" lon="16.9033167"><ele>302.0</ele><time>2026-03-28T13:58:52.391Z</time></trkpt><trkpt lat="39.2264333" lon="16.9034883"><ele>302.5</ele><time>2026-03-28T13:58:53.391Z</time></trkpt><trkpt lat="39.2264367" lon="16.9036517"><ele>303.0</ele><time>2026-03-28T13:58:54.391Z</time></trkpt><trkpt lat="39.226445" lon="16.903815"><ele>303.5</ele><time>2026-03-28T13:58:55.391Z</time></trkpt><trkpt lat="39.2264667" lon="16.9039717"><ele>304.0</ele><time>2026-03-28T13:58:56.392Z</time></trkpt><trkpt lat="39.226505" lon="16.9041133"><ele>305.75</ele><time>2026-03-28T13:58:57.391Z</time></trkpt><trkpt lat="39.226555" lon="16.90426"><ele>307.5</ele><time>2026-03-28T13:58:58.391Z</time></trkpt><trkpt lat="39.226605" lon="16.9043967"><ele>309.25</ele><time>2026-03-28T13:58:59.391Z</time></trkpt><trkpt lat="39.2266533" lon="16.9045417"><ele>311.0</ele><time>2026-03-28T13:59:00.391Z</time></trkpt><trkpt lat="39.2267083" lon="16.9046917"><ele>311.0</ele><time>2026-03-28T13:59:01.391Z</time></trkpt><trkpt lat="39.22677" lon="16.90484"><ele>311.0</ele><time>2026-03-28T13:59:02.392Z</time></trkpt><trkpt lat="39.2268317" lon="16.9049767"><ele>311.0</ele><time>2026-03-28T13:59:03.391Z</time></trkpt><trkpt lat="39.2268717" lon="16.90512"><ele>311.0</ele><time>2026-03-28T13:59:04.391Z</time></trkpt><trkpt lat="39.22691" lon="16.9052467"><ele>310.0</ele><time>2026-03-28T13:59:05.391Z</time></trkpt><trkpt lat="39.2269517" lon="16.9053383"><ele>309.0</ele><time>2026-03-28T13:59:06.392Z</time></trkpt><trkpt lat="39.227" lon="16.9054133"><ele>308.0</ele><time>2026-03-28T13:59:07.391Z</time></trkpt><trkpt lat="39.2270467" lon="16.905475"><ele>307.0</ele><time>2026-03-28T13:59:08.391Z</time></trkpt><trkpt lat="39.2270917" lon="16.90554"><ele>306.0</ele><time>2026-03-28T13:59:09.391Z</time></trkpt><trkpt lat="39.22714" lon="16.9055983"><ele>305.0</ele><time>2026-03-28T13:59:10.391Z</time></trkpt><trkpt lat="39.22719" lon="16.9056633"><ele>304.0</ele><time>2026-03-28T13:59:11.391Z</time></trkpt><trkpt lat="39.227235" lon="16.9057367"><ele>304.0</ele><time>2026-03-28T13:59:12.391Z</time></trkpt><trkpt lat="39.22728" lon="16.9058217"><ele>304.0</ele><time>2026-03-28T13:59:13.392Z</time></trkpt><trkpt lat="39.227325" lon="16.90591"><ele>304.0</ele><time>2026-03-28T13:59:14.391Z</time></trkpt><trkpt lat="39.2273667" lon="16.905985"><ele>304.0</ele><time>2026-03-28T13:59:15.391Z</time></trkpt><trkpt lat="39.2274433" lon="16.906105"><ele>304.0</ele><time>2026-03-28T13:59:17.391Z</time></trkpt><trkpt lat="39.22751" lon="16.90621"><ele>302.66666666666663</ele><time>2026-03-28T13:59:19.392Z</time></trkpt><trkpt lat="39.227595" lon="16.90632"><ele>301.3333333333333</ele><time>2026-03-28T13:59:21.391Z</time></trkpt><trkpt lat="39.2276533" lon="16.906385"><ele>300.0</ele><time>2026-03-28T13:59:22.391Z</time></trkpt><trkpt lat="39.2277083" lon="16.9064483"><ele>298.6666666666667</ele><time>2026-03-28T13:59:23.391Z</time></trkpt><trkpt lat="39.22776" lon="16.90652"><ele>297.33333333333337</ele><time>2026-03-28T13:59:24.391Z</time></trkpt><trkpt lat="39.227805" lon="16.90658"><ele>296.0</ele><time>2026-03-28T13:59:25.391Z</time></trkpt><trkpt lat="39.2278767" lon="16.90666"><ele>296.0</ele><time>2026-03-28T13:59:27.391Z</time></trkpt><trkpt lat="39.2279417" lon="16.9067433"><ele>296.0</ele><time>2026-03-28T13:59:30.392Z</time></trkpt><trkpt lat="39.2280133" lon="16.9068133"><ele>296.0</ele><time>2026-03-28T13:59:33.391Z</time></trkpt><trkpt lat="39.2280617" lon="16.90687"><ele>296.0</ele><time>2026-03-28T13:59:35.391Z</time></trkpt><trkpt lat="39.2281033" lon="16.9069317"><ele>296.0</ele><time>2026-03-28T13:59:37.391Z</time></trkpt><trkpt lat="39.22813" lon="16.9070067"><ele>296.0</ele><time>2026-03-28T13:59:39.392Z</time></trkpt><trkpt lat="39.228125" lon="16.9070883"><ele>296.0</ele><time>2026-03-28T13:59:41.391Z</time></trkpt><trkpt lat="39.2281233" lon="16.907175"><ele>294.83333333333337</ele><time>2026-03-28T13:59:43.391Z</time></trkpt><trkpt lat="39.2281167" lon="16.9072983"><ele>293.6666666666667</ele><time>2026-03-28T13:59:45.391Z</time></trkpt><trkpt lat="39.2281183" lon="16.9074067"><ele>292.5</ele><time>2026-03-28T13:59:47.391Z</time></trkpt><trkpt lat="39.2281417" lon="16.9075083"><ele>291.3333333333333</ele><time>2026-03-28T13:59:50.391Z</time></trkpt><trkpt lat="39.2282117" lon="16.9075733"><ele>290.16666666666663</ele><time>2026-03-28T13:59:53.391Z</time></trkpt><trkpt lat="39.2282883" lon="16.907625"><ele>289.0</ele><time>2026-03-28T13:59:55.391Z</time></trkpt><trkpt lat="39.22839" lon="16.9077183"><ele>286.8571428571429</ele><time>2026-03-28T13:59:57.391Z</time></trkpt><trkpt lat="39.2284417" lon="16.9077783"><ele>284.7142857142857</ele><time>2026-03-28T13:59:58.391Z</time></trkpt><trkpt lat="39.2284933" lon="16.9078367"><ele>282.57142857142856</ele><time>2026-03-28T13:59:59.391Z</time></trkpt><trkpt lat="39.2285483" lon="16.9078933"><ele>280.42857142857144</ele><time>2026-03-28T14:00:00.391Z</time></trkpt><trkpt lat="39.2286083" lon="16.9079433"><ele>278.2857142857143</ele><time>2026-03-28T14:00:01.391Z</time></trkpt><trkpt lat="39.2286667" lon="16.907995"><ele>276.14285714285717</ele><time>2026-03-28T14:00:02.391Z</time></trkpt><trkpt lat="39.2287233" lon="16.9080483"><ele>274.0</ele><time>2026-03-28T14:00:03.391Z</time></trkpt><trkpt lat="39.2287967" lon="16.9081217"><ele>274.0</ele><time>2026-03-28T14:00:05.391Z</time></trkpt><trkpt lat="39.2288667" lon="16.9082017"><ele>274.0</ele><time>2026-03-28T14:00:15.391Z</time></trkpt><trkpt lat="39.2289317" lon="16.9082617"><ele>274.0</ele><time>2026-03-28T14:00:18.392Z</time></trkpt><trkpt lat="39.2289833" lon="16.9083083"><ele>274.0</ele><time>2026-03-28T14:00:20.392Z</time></trkpt><trkpt lat="39.2290483" lon="16.9083567"><ele>274.0</ele><time>2026-03-28T14:00:22.391Z</time></trkpt><trkpt lat="39.2291133" lon="16.908405"><ele>274.0</ele><time>2026-03-28T14:00:24.391Z</time></trkpt><trkpt lat="39.2291567" lon="16.9084867"><ele>272.5714285714286</ele><time>2026-03-28T14:00:26.391Z</time></trkpt><trkpt lat="39.2291933" lon="16.9085783"><ele>271.14285714285717</ele><time>2026-03-28T14:00:28.391Z</time></trkpt><trkpt lat="39.22923" lon="16.9086567"><ele>269.7142857142857</ele><time>2026-03-28T14:00:30.392Z</time></trkpt><trkpt lat="39.22926" lon="16.9087283"><ele>268.28571428571433</ele><time>2026-03-28T14:00:33.391Z</time></trkpt><trkpt lat="39.2292967" lon="16.9087967"><ele>266.8571428571429</ele><time>2026-03-28T14:00:35.391Z</time></trkpt><trkpt lat="39.2293317" lon="16.90887"><ele>265.42857142857144</ele><time>2026-03-28T14:00:37.391Z</time></trkpt><trkpt lat="39.2293633" lon="16.908945"><ele>264.0</ele><time>2026-03-28T14:00:40.391Z</time></trkpt><trkpt lat="39.229405" lon="16.9090083"><ele>264.0</ele><time>2026-03-28T14:00:44.391Z</time></trkpt><trkpt lat="39.2294733" lon="16.9090633"><ele>264.0</ele><time>2026-03-28T14:00:48.391Z</time></trkpt><trkpt lat="39.2295383" lon="16.9091117"><ele>264.0</ele><time>2026-03-28T14:00:51.391Z</time></trkpt><trkpt lat="39.2296217" lon="16.9091467"><ele>264.0</ele><time>2026-03-28T14:00:54.391Z</time></trkpt><trkpt lat="39.2297067" lon="16.9092"><ele>264.0</ele><time>2026-03-28T14:00:56.392Z</time></trkpt><trkpt lat="39.2298117" lon="16.9092333"><ele>264.0</ele><time>2026-03-28T14:00:58.391Z</time></trkpt><trkpt lat="39.2299283" lon="16.9092567"><ele>260.8</ele><time>2026-03-28T14:01:00.391Z</time></trkpt><trkpt lat="39.2300533" lon="16.90928"><ele>257.59999999999997</ele><time>2026-03-28T14:01:02.391Z</time></trkpt><trkpt lat="39.2301167" lon="16.9092983"><ele>254.4</ele><time>2026-03-28T14:01:03.392Z</time></trkpt><trkpt lat="39.2301817" lon="16.9093133"><ele>251.2</ele><time>2026-03-28T14:01:04.391Z</time></trkpt><trkpt lat="39.2303" lon="16.9093117"><ele>248.0</ele><time>2026-03-28T14:01:06.391Z</time></trkpt><trkpt lat="39.230405" lon="16.9092683"><ele>248.50000000000003</ele><time>2026-03-28T14:01:08.391Z</time></trkpt><trkpt lat="39.23049" lon="16.90922"><ele>249.0</ele><time>2026-03-28T14:01:10.391Z</time></trkpt><trkpt lat="39.2305617" lon="16.9091867"><ele>249.5</ele><time>2026-03-28T14:01:12.391Z</time></trkpt><trkpt lat="39.2306533" lon="16.9091483"><ele>250.0</ele><time>2026-03-28T14:01:14.391Z</time></trkpt><trkpt lat="39.2307317" lon="16.90915"><ele>250.50000000000003</ele><time>2026-03-28T14:01:16.391Z</time></trkpt><trkpt lat="39.2308017" lon="16.9091867"><ele>251.0</ele><time>2026-03-28T14:01:18.392Z</time></trkpt><trkpt lat="39.2308617" lon="16.9092433"><ele>251.00000000000003</ele><time>2026-03-28T14:01:20.392Z</time></trkpt><trkpt lat="39.230915" lon="16.9093133"><ele>251.0</ele><time>2026-03-28T14:01:22.392Z</time></trkpt><trkpt lat="39.2309767" lon="16.9093933"><ele>251.0</ele><time>2026-03-28T14:01:24.392Z</time></trkpt><trkpt lat="39.23102" lon="16.9094717"><ele>251.0</ele><time>2026-03-28T14:01:26.391Z</time></trkpt><trkpt lat="39.2310567" lon="16.9095583"><ele>251.00000000000003</ele><time>2026-03-28T14:01:28.391Z</time></trkpt><trkpt lat="39.2311017" lon="16.9096567"><ele>251.0</ele><time>2026-03-28T14:01:31.391Z</time></trkpt><trkpt lat="39.2311467" lon="16.9097283"><ele>250.99999999999997</ele><time>2026-03-28T14:01:33.392Z</time></trkpt><trkpt lat="39.231195" lon="16.9097833"><ele>251.0</ele><time>2026-03-28T14:01:35.391Z</time></trkpt><trkpt lat="39.2312467" lon="16.9098317"><ele>250.99999999999997</ele><time>2026-03-28T14:01:38.391Z</time></trkpt><trkpt lat="39.231305" lon="16.90989"><ele>250.99999999999997</ele><time>2026-03-28T14:01:55.391Z</time></trkpt><trkpt lat="39.2313617" lon="16.9099617"><ele>251.0</ele><time>2026-03-28T14:01:57.392Z</time></trkpt><trkpt lat="39.2314083" lon="16.9100267"><ele>250.99999999999997</ele><time>2026-03-28T14:01:59.391Z</time></trkpt><trkpt lat="39.2314667" lon="16.9100967"><ele>250.99999999999997</ele><time>2026-03-28T14:02:02.391Z</time></trkpt><trkpt lat="39.2315133" lon="16.9101633"><ele>248.66666666666669</ele><time>2026-03-28T14:02:04.391Z</time></trkpt><trkpt lat="39.2315667" lon="16.9102217"><ele>246.33333333333334</ele><time>2026-03-28T14:02:06.392Z</time></trkpt><trkpt lat="39.2316217" lon="16.910285"><ele>244.0</ele><time>2026-03-28T14:02:09.391Z</time></trkpt><trkpt lat="39.231615" lon="16.910385"><ele>241.66666666666669</ele><time>2026-03-28T14:02:13.392Z</time></trkpt><trkpt lat="39.2315383" lon="16.9104317"><ele>239.33333333333334</ele><time>2026-03-28T14:02:16.391Z</time></trkpt><trkpt lat="39.2314517" lon="16.9104417"><ele>237.0</ele><time>2026-03-28T14:02:18.391Z</time></trkpt><trkpt lat="39.23138" lon="16.910475"><ele>237.0</ele><time>2026-03-28T14:02:20.391Z</time></trkpt><trkpt lat="39.231335" lon="16.9105433"><ele>237.0</ele><time>2026-03-28T14:02:22.391Z</time></trkpt><trkpt lat="39.2313633" lon="16.9106383"><ele>237.0</ele><time>2026-03-28T14:02:25.391Z</time></trkpt><trkpt lat="39.2314233" lon="16.9106717"><ele>237.0</ele><time>2026-03-28T14:02:27.391Z</time></trkpt><trkpt lat="39.2314933" lon="16.9107033"><ele>237.0</ele><time>2026-03-28T14:02:29.392Z</time></trkpt><trkpt lat="39.231565" lon="16.9107417"><ele>237.0</ele><time>2026-03-28T14:02:31.391Z</time></trkpt><trkpt lat="39.2316467" lon="16.91077"><ele>237.0</ele><time>2026-03-28T14:02:34.391Z</time></trkpt><trkpt lat="39.2317067" lon="16.9108083"><ele>237.0</ele><time>2026-03-28T14:02:37.391Z</time></trkpt><trkpt lat="39.23179" lon="16.9108367"><ele>237.0</ele><time>2026-03-28T14:02:40.391Z</time></trkpt><trkpt lat="39.2318667" lon="16.9108583"><ele>237.0</ele><time>2026-03-28T14:02:42.391Z</time></trkpt><trkpt lat="39.2319533" lon="16.9109167"><ele>237.0</ele><time>2026-03-28T14:02:44.392Z</time></trkpt><trkpt lat="39.2320317" lon="16.9109833"><ele>237.0</ele><time>2026-03-28T14:02:46.392Z</time></trkpt><trkpt lat="39.23211" lon="16.9110633"><ele>235.8</ele><time>2026-03-28T14:02:48.391Z</time></trkpt><trkpt lat="39.2321817" lon="16.9111667"><ele>234.6</ele><time>2026-03-28T14:02:50.391Z</time></trkpt><trkpt lat="39.23225" lon="16.9112833"><ele>233.40000000000003</ele><time>2026-03-28T14:02:52.391Z</time></trkpt><trkpt lat="39.2323033" lon="16.911385"><ele>232.20000000000002</ele><time>2026-03-28T14:02:54.391Z</time></trkpt><trkpt lat="39.23236" lon="16.9114917"><ele>231.0</ele><time>2026-03-28T14:02:56.391Z</time></trkpt><trkpt lat="39.2324" lon="16.91159"><ele>231.0</ele><time>2026-03-28T14:02:58.392Z</time></trkpt><trkpt lat="39.23243" lon="16.911685"><ele>231.0</ele><time>2026-03-28T14:03:00.391Z</time></trkpt><trkpt lat="39.232475" lon="16.9117717"><ele>231.0</ele><time>2026-03-28T14:03:02.391Z</time></trkpt><trkpt lat="39.2325217" lon="16.9118567"><ele>231.0</ele><time>2026-03-28T14:03:04.391Z</time></trkpt><trkpt lat="39.2325567" lon="16.9119283"><ele>231.0</ele><time>2026-03-28T14:03:06.391Z</time></trkpt><trkpt lat="39.232585" lon="16.91201"><ele>231.0</ele><time>2026-03-28T14:03:08.392Z</time></trkpt><trkpt lat="39.23261" lon="16.9121017"><ele>229.66666666666666</ele><time>2026-03-28T14:03:11.391Z</time></trkpt><trkpt lat="39.2326433" lon="16.9121717"><ele>228.33333333333331</ele><time>2026-03-28T14:03:15.391Z</time></trkpt><trkpt lat="39.2326717" lon="16.9122617"><ele>227.0</ele><time>2026-03-28T14:03:19.391Z</time></trkpt><trkpt lat="39.2327267" lon="16.9123467"><ele>225.66666666666666</ele><time>2026-03-28T14:03:22.391Z</time></trkpt><trkpt lat="39.23274" lon="16.9124467"><ele>224.33333333333331</ele><time>2026-03-28T14:03:25.391Z</time></trkpt><trkpt lat="39.232765" lon="16.9125617"><ele>223.0</ele><time>2026-03-28T14:03:28.391Z</time></trkpt><trkpt lat="39.2327783" lon="16.9126533"><ele>223.0</ele><time>2026-03-28T14:03:30.391Z</time></trkpt><trkpt lat="39.232785" lon="16.912765"><ele>223.0</ele><time>2026-03-28T14:03:32.391Z</time></trkpt><trkpt lat="39.2328033" lon="16.912885"><ele>223.0</ele><time>2026-03-28T14:03:34.391Z</time></trkpt><trkpt lat="39.2328267" lon="16.91301"><ele>223.0</ele><time>2026-03-28T14:03:36.392Z</time></trkpt><trkpt lat="39.2328383" lon="16.9131583"><ele>223.0</ele><time>2026-03-28T14:03:38.391Z</time></trkpt><trkpt lat="39.2328483" lon="16.9133133"><ele>221.83333333333331</ele><time>2026-03-28T14:03:40.392Z</time></trkpt><trkpt lat="39.2328783" lon="16.9134767"><ele>220.66666666666666</ele><time>2026-03-28T14:03:42.391Z</time></trkpt><trkpt lat="39.2329117" lon="16.913565"><ele>219.5</ele><time>2026-03-28T14:03:43.392Z</time></trkpt><trkpt lat="39.23295" lon="16.9136583"><ele>218.33333333333331</ele><time>2026-03-28T14:03:44.391Z</time></trkpt><trkpt lat="39.2329833" lon="16.9137433"><ele>217.16666666666666</ele><time>2026-03-28T14:03:45.392Z</time></trkpt><trkpt lat="39.233" lon="16.9138267"><ele>216.0</ele><time>2026-03-28T14:03:46.391Z</time></trkpt><trkpt lat="39.2329783" lon="16.9139517"><ele>216.0</ele><time>2026-03-28T14:03:48.391Z</time></trkpt><trkpt lat="39.2329467" lon="16.914055"><ele>216.0</ele><time>2026-03-28T14:03:50.391Z</time></trkpt><trkpt lat="39.23295" lon="16.9141583"><ele>216.0</ele><time>2026-03-28T14:03:52.391Z</time></trkpt><trkpt lat="39.2329717" lon="16.9142433"><ele>216.0</ele><time>2026-03-28T14:03:56.392Z</time></trkpt><trkpt lat="39.2330083" lon="16.9143117"><ele>216.0</ele><time>2026-03-28T14:03:59.391Z</time></trkpt><trkpt lat="39.2330533" lon="16.9143883"><ele>216.0</ele><time>2026-03-28T14:04:02.391Z</time></trkpt><trkpt lat="39.2331017" lon="16.9144683"><ele>216.14285714285714</ele><time>2026-03-28T14:04:05.391Z</time></trkpt><trkpt lat="39.2331667" lon="16.9145083"><ele>216.28571428571428</ele><time>2026-03-28T14:04:07.391Z</time></trkpt><trkpt lat="39.2332417" lon="16.9145583"><ele>216.42857142857144</ele><time>2026-03-28T14:04:09.391Z</time></trkpt><trkpt lat="39.233285" lon="16.9146217"><ele>216.57142857142856</ele><time>2026-03-28T14:04:11.391Z</time></trkpt><trkpt lat="39.2333417" lon="16.9147083"><ele>216.71428571428572</ele><time>2026-03-28T14:04:20.391Z</time></trkpt><trkpt lat="39.2333883" lon="16.9147717"><ele>216.85714285714286</ele><time>2026-03-28T14:04:23.392Z</time></trkpt><trkpt lat="39.23343" lon="16.9148433"><ele>217.0</ele><time>2026-03-28T14:04:26.391Z</time></trkpt><trkpt lat="39.2334667" lon="16.9149167"><ele>216.99999999999997</ele><time>2026-03-28T14:04:29.391Z</time></trkpt><trkpt lat="39.2335" lon="16.9150033"><ele>217.0</ele><time>2026-03-28T14:04:33.392Z</time></trkpt><trkpt lat="39.2335517" lon="16.9150883"><ele>217.0</ele><time>2026-03-28T14:04:45.391Z</time></trkpt><trkpt lat="39.2335767" lon="16.9151683"><ele>217.0</ele><time>2026-03-28T14:04:48.391Z</time></trkpt><trkpt lat="39.23361" lon="16.91525"><ele>216.99999999999997</ele><time>2026-03-28T14:04:53.391Z</time></trkpt><trkpt lat="39.23361" lon="16.91535"><ele>217.0</ele><time>2026-03-28T14:04:56.391Z</time></trkpt><trkpt lat="39.2336017" lon="16.915475"><ele>215.0</ele><time>2026-03-28T14:04:59.391Z</time></trkpt><trkpt lat="39.2335983" lon="16.91556"><ele>213.0</ele><time>2026-03-28T14:05:01.391Z</time></trkpt><trkpt lat="39.2335867" lon="16.9156633"><ele>211.0</ele><time>2026-03-28T14:05:04.391Z</time></trkpt><trkpt lat="39.2335333" lon="16.9157067"><ele>209.0</ele><time>2026-03-28T14:05:07.391Z</time></trkpt><trkpt lat="39.2334933" lon="16.9157867"><ele>207.0</ele><time>2026-03-28T14:05:10.391Z</time></trkpt><trkpt lat="39.2334633" lon="16.91586"><ele>205.0</ele><time>2026-03-28T14:05:12.391Z</time></trkpt><trkpt lat="39.2334667" lon="16.915955"><ele>203.0</ele><time>2026-03-28T14:05:14.391Z</time></trkpt><trkpt lat="39.2335117" lon="16.9160333"><ele>201.33333333333334</ele><time>2026-03-28T14:05:16.392Z</time></trkpt><trkpt lat="39.23358" lon="16.9161167"><ele>199.66666666666669</ele><time>2026-03-28T14:05:18.391Z</time></trkpt><trkpt lat="39.2336417" lon="16.9162067"><ele>198.0</ele><time>2026-03-28T14:05:20.391Z</time></trkpt><trkpt lat="39.233695" lon="16.91629"><ele>196.33333333333331</ele><time>2026-03-28T14:05:22.391Z</time></trkpt><trkpt lat="39.23375" lon="16.91637"><ele>194.66666666666666</ele><time>2026-03-28T14:05:24.391Z</time></trkpt><trkpt lat="39.23381" lon="16.9164217"><ele>193.0</ele><time>2026-03-28T14:05:26.391Z</time></trkpt><trkpt lat="39.2338567" lon="16.91648"><ele>192.99999999999997</ele><time>2026-03-28T14:05:28.392Z</time></trkpt><trkpt lat="39.233895" lon="16.9165767"><ele>193.0</ele><time>2026-03-28T14:05:30.391Z</time></trkpt><trkpt lat="39.2339317" lon="16.9166633"><ele>193.0</ele><time>2026-03-28T14:05:32.391Z</time></trkpt><trkpt lat="39.23399" lon="16.9167483"><ele>193.0</ele><time>2026-03-28T14:05:35.391Z</time></trkpt><trkpt lat="39.2340417" lon="16.916815"><ele>192.99999999999997</ele><time>2026-03-28T14:05:38.391Z</time></trkpt><trkpt lat="39.2340933" lon="16.9169083"><ele>193.0</ele><time>2026-03-28T14:05:40.391Z</time></trkpt><trkpt lat="39.23419" lon="16.9170283"><ele>191.33333333333331</ele><time>2026-03-28T14:05:42.391Z</time></trkpt><trkpt lat="39.2342483" lon="16.9171017"><ele>189.66666666666666</ele><time>2026-03-28T14:05:43.391Z</time></trkpt><trkpt lat="39.234305" lon="16.917185"><ele>188.0</ele><time>2026-03-28T14:05:44.391Z</time></trkpt><trkpt lat="39.2343533" lon="16.9172817"><ele>186.33333333333331</ele><time>2026-03-28T14:05:45.392Z</time></trkpt><trkpt lat="39.234395" lon="16.91739"><ele>184.66666666666666</ele><time>2026-03-28T14:05:46.391Z</time></trkpt><trkpt lat="39.2344467" lon="16.9174933"><ele>183.0</ele><time>2026-03-28T14:05:47.392Z</time></trkpt><trkpt lat="39.234495" lon="16.917595"><ele>181.66666666666666</ele><time>2026-03-28T14:05:48.391Z</time></trkpt><trkpt lat="39.2345383" lon="16.917705"><ele>180.33333333333334</ele><time>2026-03-28T14:05:49.391Z</time></trkpt><trkpt lat="39.2345717" lon="16.9178083"><ele>179.0</ele><time>2026-03-28T14:05:50.391Z</time></trkpt><trkpt lat="39.234595" lon="16.9179067"><ele>177.66666666666669</ele><time>2026-03-28T14:05:51.391Z</time></trkpt><trkpt lat="39.2346133" lon="16.9180033"><ele>176.33333333333334</ele><time>2026-03-28T14:05:52.391Z</time></trkpt><trkpt lat="39.2346517" lon="16.9181083"><ele>175.0</ele><time>2026-03-28T14:05:53.391Z</time></trkpt><trkpt lat="39.2347017" lon="16.9181983"><ele>175.0</ele><time>2026-03-28T14:05:54.391Z</time></trkpt><trkpt lat="39.2347567" lon="16.9182817"><ele>175.0</ele><time>2026-03-28T14:05:55.391Z</time></trkpt><trkpt lat="39.2348117" lon="16.918355"><ele>175.0</ele><time>2026-03-28T14:05:56.391Z</time></trkpt><trkpt lat="39.23486" lon="16.918425"><ele>175.0</ele><time>2026-03-28T14:05:57.392Z</time></trkpt><trkpt lat="39.23491" lon="16.9184867"><ele>175.0</ele><time>2026-03-28T14:05:58.391Z</time></trkpt><trkpt lat="39.2349817" lon="16.918605"><ele>175.0</ele><time>2026-03-28T14:06:00.391Z</time></trkpt><trkpt lat="39.2350383" lon="16.9187167"><ele>175.16666666666669</ele><time>2026-03-28T14:06:02.391Z</time></trkpt><trkpt lat="39.235095" lon="16.91881"><ele>175.33333333333334</ele><time>2026-03-28T14:06:04.392Z</time></trkpt><trkpt lat="39.23514" lon="16.918885"><ele>175.5</ele><time>2026-03-28T14:06:07.391Z</time></trkpt><trkpt lat="39.235195" lon="16.9189667"><ele>175.66666666666666</ele><time>2026-03-28T14:06:16.391Z</time></trkpt><trkpt lat="39.235245" lon="16.919065"><ele>175.83333333333331</ele><time>2026-03-28T14:06:19.391Z</time></trkpt><trkpt lat="39.23529" lon="16.9191467"><ele>176.0</ele><time>2026-03-28T14:06:21.391Z</time></trkpt><trkpt lat="39.2353417" lon="16.91923"><ele>174.83333333333331</ele><time>2026-03-28T14:06:23.391Z</time></trkpt><trkpt lat="39.2354" lon="16.9193217"><ele>173.66666666666666</ele><time>2026-03-28T14:06:25.391Z</time></trkpt><trkpt lat="39.2354467" lon="16.9193983"><ele>172.5</ele><time>2026-03-28T14:06:27.391Z</time></trkpt><trkpt lat="39.2354133" lon="16.9194717"><ele>171.33333333333334</ele><time>2026-03-28T14:06:31.391Z</time></trkpt><trkpt lat="39.2353467" lon="16.9195333"><ele>170.16666666666669</ele><time>2026-03-28T14:06:34.391Z</time></trkpt><trkpt lat="39.2352967" lon="16.919605"><ele>169.0</ele><time>2026-03-28T14:06:36.391Z</time></trkpt><trkpt lat="39.2352483" lon="16.9196783"><ele>169.0</ele><time>2026-03-28T14:06:38.391Z</time></trkpt><trkpt lat="39.2352067" lon="16.9197617"><ele>169.0</ele><time>2026-03-28T14:06:40.392Z</time></trkpt><trkpt lat="39.23517" lon="16.9198683"><ele>169.0</ele><time>2026-03-28T14:06:42.391Z</time></trkpt><trkpt lat="39.2351183" lon="16.91995"><ele>169.0</ele><time>2026-03-28T14:06:44.391Z</time></trkpt><trkpt lat="39.23507" lon="16.9200083"><ele>169.0</ele><time>2026-03-28T14:06:46.392Z</time></trkpt><trkpt lat="39.23502" lon="16.9200817"><ele>169.0</ele><time>2026-03-28T14:06:48.391Z</time></trkpt><trkpt lat="39.23497" lon="16.9201767"><ele>166.75</ele><time>2026-03-28T14:06:50.391Z</time></trkpt><trkpt lat="39.23491" lon="16.92029"><ele>164.5</ele><time>2026-03-28T14:06:52.391Z</time></trkpt><trkpt lat="39.2348433" lon="16.920425"><ele>162.25</ele><time>2026-03-28T14:06:54.391Z</time></trkpt><trkpt lat="39.234775" lon="16.9205667"><ele>160.0</ele><time>2026-03-28T14:06:56.391Z</time></trkpt><trkpt lat="39.2347183" lon="16.9206833"><ele>159.33333333333334</ele><time>2026-03-28T14:06:58.391Z</time></trkpt><trkpt lat="39.2346633" lon="16.9207433"><ele>158.66666666666669</ele><time>2026-03-28T14:07:02.392Z</time></trkpt><trkpt lat="39.2345983" lon="16.920805"><ele>158.0</ele><time>2026-03-28T14:07:06.391Z</time></trkpt><trkpt lat="39.2345517" lon="16.9208617"><ele>157.33333333333334</ele><time>2026-03-28T14:07:08.391Z</time></trkpt><trkpt lat="39.2344983" lon="16.9209417"><ele>156.66666666666666</ele><time>2026-03-28T14:07:10.391Z</time></trkpt><trkpt lat="39.2344483" lon="16.9210317"><ele>156.0</ele><time>2026-03-28T14:07:12.391Z</time></trkpt><trkpt lat="39.2344133" lon="16.9211233"><ele>155.66666666666666</ele><time>2026-03-28T14:07:16.391Z</time></trkpt><trkpt lat="39.2343833" lon="16.9212167"><ele>155.33333333333334</ele><time>2026-03-28T14:07:19.391Z</time></trkpt><trkpt lat="39.2343583" lon="16.9213117"><ele>155.0</ele><time>2026-03-28T14:07:21.391Z</time></trkpt><trkpt lat="39.2343517" lon="16.921445"><ele>154.66666666666669</ele><time>2026-03-28T14:07:23.391Z</time></trkpt><trkpt lat="39.2343517" lon="16.9215317"><ele>154.33333333333334</ele><time>2026-03-28T14:07:24.391Z</time></trkpt><trkpt lat="39.2343217" lon="16.921675"><ele>154.0</ele><time>2026-03-28T14:07:26.391Z</time></trkpt><trkpt lat="39.2342483" lon="16.92182"><ele>155.0</ele><time>2026-03-28T14:07:28.391Z</time></trkpt><trkpt lat="39.234215" lon="16.9218967"><ele>156.0</ele><time>2026-03-28T14:07:29.391Z</time></trkpt><trkpt lat="39.2341783" lon="16.9220133"><ele>157.0</ele><time>2026-03-28T14:07:31.391Z</time></trkpt><trkpt lat="39.2341283" lon="16.9221"><ele>158.0</ele><time>2026-03-28T14:07:33.391Z</time></trkpt><trkpt lat="39.23405" lon="16.9221717"><ele>159.0</ele><time>2026-03-28T14:07:35.391Z</time></trkpt><trkpt lat="39.233975" lon="16.92226"><ele>160.0</ele><time>2026-03-28T14:07:37.391Z</time></trkpt><trkpt lat="39.2339233" lon="16.922355"><ele>160.16666666666669</ele><time>2026-03-28T14:07:39.391Z</time></trkpt><trkpt lat="39.2338767" lon="16.9224133"><ele>160.33333333333334</ele><time>2026-03-28T14:07:41.391Z</time></trkpt><trkpt lat="39.233815" lon="16.9224717"><ele>160.5</ele><time>2026-03-28T14:07:43.392Z</time></trkpt><trkpt lat="39.2337667" lon="16.9225567"><ele>160.66666666666666</ele><time>2026-03-28T14:07:45.391Z</time></trkpt><trkpt lat="39.2337217" lon="16.9226467"><ele>160.83333333333331</ele><time>2026-03-28T14:07:47.391Z</time></trkpt><trkpt lat="39.2336533" lon="16.9226933"><ele>161.0</ele><time>2026-03-28T14:07:49.392Z</time></trkpt><trkpt lat="39.2335767" lon="16.9227283"><ele>160.5</ele><time>2026-03-28T14:07:51.391Z</time></trkpt><trkpt lat="39.2334933" lon="16.9227817"><ele>160.0</ele><time>2026-03-28T14:07:53.392Z</time></trkpt><trkpt lat="39.23341" lon="16.9228467"><ele>159.5</ele><time>2026-03-28T14:07:55.392Z</time></trkpt><trkpt lat="39.233345" lon="16.92291"><ele>159.0</ele><time>2026-03-28T14:07:57.391Z</time></trkpt><trkpt lat="39.2332833" lon="16.9229783"><ele>158.5</ele><time>2026-03-28T14:07:59.391Z</time></trkpt><trkpt lat="39.23322" lon="16.92306"><ele>158.0</ele><time>2026-03-28T14:08:01.392Z</time></trkpt><trkpt lat="39.23315" lon="16.9231483"><ele>155.0</ele><time>2026-03-28T14:08:03.392Z</time></trkpt><trkpt lat="39.23307" lon="16.923235"><ele>152.0</ele><time>2026-03-28T14:08:05.392Z</time></trkpt><trkpt lat="39.2329917" lon="16.9233133"><ele>149.0</ele><time>2026-03-28T14:08:07.391Z</time></trkpt><trkpt lat="39.2329317" lon="16.9234167"><ele>146.0</ele><time>2026-03-28T14:08:09.391Z</time></trkpt><trkpt lat="39.2329033" lon="16.9235183"><ele>143.0</ele><time>2026-03-28T14:08:11.391Z</time></trkpt><trkpt lat="39.2328817" lon="16.9236167"><ele>141.0</ele><time>2026-03-28T14:08:13.391Z</time></trkpt><trkpt lat="39.2328583" lon="16.9237267"><ele>139.0</ele><time>2026-03-28T14:08:16.391Z</time></trkpt><trkpt lat="39.2328483" lon="16.923835"><ele>137.0</ele><time>2026-03-28T14:08:19.391Z</time></trkpt><trkpt lat="39.2328433" lon="16.92393"><ele>135.0</ele><time>2026-03-28T14:08:22.392Z</time></trkpt><trkpt lat="39.232835" lon="16.9240367"><ele>133.0</ele><time>2026-03-28T14:08:26.391Z</time></trkpt><trkpt lat="39.2328" lon="16.9241967"><ele>131.42857142857142</ele><time>2026-03-28T14:09:03.391Z</time></trkpt><trkpt lat="39.232755" lon="16.92428"><ele>129.85714285714286</ele><time>2026-03-28T14:09:06.392Z</time></trkpt><trkpt lat="39.2327067" lon="16.9243617"><ele>128.28571428571428</ele><time>2026-03-28T14:09:09.391Z</time></trkpt><trkpt lat="39.232675" lon="16.9244333"><ele>126.71428571428571</ele><time>2026-03-28T14:09:15.391Z</time></trkpt><trkpt lat="39.2326617" lon="16.92452"><ele>125.14285714285714</ele><time>2026-03-28T14:09:20.391Z</time></trkpt><trkpt lat="39.23267" lon="16.9246067"><ele>123.57142857142856</ele><time>2026-03-28T14:09:26.391Z</time></trkpt><trkpt lat="39.2326767" lon="16.924695"><ele>121.99999999999999</ele><time>2026-03-28T14:09:29.392Z</time></trkpt><trkpt lat="39.23269" lon="16.9248017"><ele>121.99999999999999</ele><time>2026-03-28T14:09:33.392Z</time></trkpt><trkpt lat="39.2327017" lon="16.9248867"><ele>122.0</ele><time>2026-03-28T14:09:35.391Z</time></trkpt><trkpt lat="39.2327133" lon="16.9250017"><ele>121.99999999999999</ele><time>2026-03-28T14:09:37.391Z</time></trkpt><trkpt lat="39.2327133" lon="16.925105"><ele>121.99999999999999</ele><time>2026-03-28T14:09:39.391Z</time></trkpt><trkpt lat="39.23272" lon="16.92519"><ele>122.0</ele><time>2026-03-28T14:09:41.391Z</time></trkpt><trkpt lat="39.2327217" lon="16.92529"><ele>121.99999999999999</ele><time>2026-03-28T14:09:43.391Z</time></trkpt><trkpt lat="39.2327217" lon="16.9253767"><ele>121.99999999999999</ele><time>2026-03-28T14:09:45.391Z</time></trkpt><trkpt lat="39.2327083" lon="16.9254783"><ele>121.49999999999999</ele><time>2026-03-28T14:09:48.391Z</time></trkpt><trkpt lat="39.23266" lon="16.925555"><ele>121.0</ele><time>2026-03-28T14:09:51.391Z</time></trkpt><trkpt lat="39.2326017" lon="16.92562"><ele>120.5</ele><time>2026-03-28T14:09:53.391Z</time></trkpt><trkpt lat="39.2325467" lon="16.925715"><ele>120.0</ele><time>2026-03-28T14:09:55.391Z</time></trkpt><trkpt lat="39.2325083" lon="16.9258017"><ele>119.49999999999999</ele><time>2026-03-28T14:09:57.392Z</time></trkpt><trkpt lat="39.232495" lon="16.9259083"><ele>119.0</ele><time>2026-03-28T14:09:59.391Z</time></trkpt><trkpt lat="39.232495" lon="16.9260033"><ele>117.83333333333333</ele><time>2026-03-28T14:10:01.391Z</time></trkpt><trkpt lat="39.2325017" lon="16.92609"><ele>116.66666666666666</ele><time>2026-03-28T14:10:03.391Z</time></trkpt><trkpt lat="39.232495" lon="16.9261983"><ele>115.5</ele><time>2026-03-28T14:10:06.391Z</time></trkpt><trkpt lat="39.2325" lon="16.92631"><ele>114.33333333333334</ele><time>2026-03-28T14:10:09.391Z</time></trkpt><trkpt lat="39.2324983" lon="16.9263933"><ele>113.16666666666667</ele><time>2026-03-28T14:10:11.392Z</time></trkpt><trkpt lat="39.232485" lon="16.9265083"><ele>112.0</ele><time>2026-03-28T14:10:14.391Z</time></trkpt><trkpt lat="39.23247" lon="16.9265983"><ele>112.0</ele><time>2026-03-28T14:10:16.392Z</time></trkpt><trkpt lat="39.2324483" lon="16.92668"><ele>112.0</ele><time>2026-03-28T14:10:18.391Z</time></trkpt><trkpt lat="39.2324333" lon="16.9267717"><ele>112.0</ele><time>2026-03-28T14:10:21.391Z</time></trkpt><trkpt lat="39.232425" lon="16.9268583"><ele>112.0</ele><time>2026-03-28T14:10:24.391Z</time></trkpt><trkpt lat="39.232405" lon="16.9269633"><ele>112.0</ele><time>2026-03-28T14:10:27.391Z</time></trkpt><trkpt lat="39.2323883" lon="16.9270433"><ele>112.0</ele><time>2026-03-28T14:10:29.391Z</time></trkpt><trkpt lat="39.2323667" lon="16.9271233"><ele>112.0</ele><time>2026-03-28T14:10:31.391Z</time></trkpt><trkpt lat="39.2323583" lon="16.9272267"><ele>111.33333333333334</ele><time>2026-03-28T14:10:34.391Z</time></trkpt><trkpt lat="39.232345" lon="16.9273083"><ele>110.66666666666667</ele><time>2026-03-28T14:10:36.391Z</time></trkpt><trkpt lat="39.2323333" lon="16.927415"><ele>110.0</ele><time>2026-03-28T14:10:39.391Z</time></trkpt><trkpt lat="39.2323617" lon="16.9275317"><ele>109.33333333333334</ele><time>2026-03-28T14:10:42.391Z</time></trkpt><trkpt lat="39.2324133" lon="16.92759"><ele>108.66666666666667</ele><time>2026-03-28T14:10:44.391Z</time></trkpt><trkpt lat="39.23243" lon="16.9276867"><ele>108.0</ele><time>2026-03-28T14:10:47.391Z</time></trkpt><trkpt lat="39.23234" lon="16.9277233"><ele>108.33333333333333</ele><time>2026-03-28T14:10:50.391Z</time></trkpt><trkpt lat="39.2322667" lon="16.9277083"><ele>108.66666666666666</ele><time>2026-03-28T14:10:52.391Z</time></trkpt><trkpt lat="39.2321917" lon="16.92768"><ele>109.0</ele><time>2026-03-28T14:10:55.392Z</time></trkpt><trkpt lat="39.2321033" lon="16.92769"><ele>109.33333333333333</ele><time>2026-03-28T14:11:11.391Z</time></trkpt><trkpt lat="39.232055" lon="16.9277483"><ele>109.66666666666666</ele><time>2026-03-28T14:11:15.391Z</time></trkpt><trkpt lat="39.2319867" lon="16.9277917"><ele>110.0</ele><time>2026-03-28T14:11:19.392Z</time></trkpt><trkpt lat="39.2319167" lon="16.9278033"><ele>109.99999999999999</ele><time>2026-03-28T14:11:22.391Z</time></trkpt><trkpt lat="39.2318367" lon="16.9277633"><ele>110.0</ele><time>2026-03-28T14:11:25.391Z</time></trkpt><trkpt lat="39.2317517" lon="16.9277333"><ele>110.0</ele><time>2026-03-28T14:11:28.391Z</time></trkpt><trkpt lat="39.2316717" lon="16.9277233"><ele>110.0</ele><time>2026-03-28T14:11:31.391Z</time></trkpt><trkpt lat="39.2315933" lon="16.92768"><ele>109.99999999999999</ele><time>2026-03-28T14:11:35.391Z</time></trkpt><trkpt lat="39.2315267" lon="16.9276367"><ele>110.0</ele><time>2026-03-28T14:11:38.391Z</time></trkpt><trkpt lat="39.2314633" lon="16.927615"><ele>108.66666666666666</ele><time>2026-03-28T14:11:41.392Z</time></trkpt><trkpt lat="39.2314" lon="16.9275917"><ele>107.33333333333333</ele><time>2026-03-28T14:11:44.391Z</time></trkpt><trkpt lat="39.23131" lon="16.9275483"><ele>106.0</ele><time>2026-03-28T14:11:47.392Z</time></trkpt><trkpt lat="39.2312383" lon="16.92755"><ele>104.66666666666666</ele><time>2026-03-28T14:11:49.391Z</time></trkpt><trkpt lat="39.23116" lon="16.9276183"><ele>103.33333333333333</ele><time>2026-03-28T14:11:52.391Z</time></trkpt><trkpt lat="39.2310983" lon="16.9277433"><ele>102.0</ele><time>2026-03-28T14:11:54.391Z</time></trkpt><trkpt lat="39.2310433" lon="16.9278417"><ele>102.0</ele><time>2026-03-28T14:11:56.391Z</time></trkpt><trkpt lat="39.2309817" lon="16.9279367"><ele>102.0</ele><time>2026-03-28T14:11:59.391Z</time></trkpt><trkpt lat="39.2309183" lon="16.928065"><ele>102.0</ele><time>2026-03-28T14:12:01.392Z</time></trkpt><trkpt lat="39.230875" lon="16.9281983"><ele>102.0</ele><time>2026-03-28T14:12:03.391Z</time></trkpt><trkpt lat="39.2308667" lon="16.928335"><ele>102.0</ele><time>2026-03-28T14:12:05.391Z</time></trkpt><trkpt lat="39.2308767" lon="16.9284717"><ele>102.83333333333333</ele><time>2026-03-28T14:12:07.391Z</time></trkpt><trkpt lat="39.2308883" lon="16.9285517"><ele>103.66666666666666</ele><time>2026-03-28T14:12:08.392Z</time></trkpt><trkpt lat="39.2309083" lon="16.928635"><ele>104.5</ele><time>2026-03-28T14:12:09.391Z</time></trkpt><trkpt lat="39.2309383" lon="16.928735"><ele>105.33333333333333</ele><time>2026-03-28T14:12:10.391Z</time></trkpt><trkpt lat="39.2309583" lon="16.9288433"><ele>106.16666666666666</ele><time>2026-03-28T14:12:11.391Z</time></trkpt><trkpt lat="39.2309667" lon="16.9289483"><ele>107.0</ele><time>2026-03-28T14:12:12.391Z</time></trkpt><trkpt lat="39.2309633" lon="16.9290567"><ele>107.0</ele><time>2026-03-28T14:12:13.392Z</time></trkpt><trkpt lat="39.2309583" lon="16.9291667"><ele>106.99999999999999</ele><time>2026-03-28T14:12:14.391Z</time></trkpt><trkpt lat="39.2309633" lon="16.9292867"><ele>106.99999999999999</ele><time>2026-03-28T14:12:15.391Z</time></trkpt><trkpt lat="39.2309733" lon="16.9294133"><ele>107.0</ele><time>2026-03-28T14:12:16.391Z</time></trkpt><trkpt lat="39.230995" lon="16.92954"><ele>107.0</ele><time>2026-03-28T14:12:17.391Z</time></trkpt><trkpt lat="39.231025" lon="16.9296733"><ele>105.8</ele><time>2026-03-28T14:12:18.392Z</time></trkpt><trkpt lat="39.23107" lon="16.92979"><ele>104.6</ele><time>2026-03-28T14:12:19.391Z</time></trkpt><trkpt lat="39.23112" lon="16.92991"><ele>103.39999999999999</ele><time>2026-03-28T14:12:20.391Z</time></trkpt><trkpt lat="39.231185" lon="16.9300283"><ele>102.19999999999999</ele><time>2026-03-28T14:12:21.391Z</time></trkpt><trkpt lat="39.23125" lon="16.9301433"><ele>101.0</ele><time>2026-03-28T14:12:22.391Z</time></trkpt><trkpt lat="39.231315" lon="16.9302533"><ele>100.19999999999999</ele><time>2026-03-28T14:12:23.391Z</time></trkpt><trkpt lat="39.23137" lon="16.9303583"><ele>99.39999999999999</ele><time>2026-03-28T14:12:24.391Z</time></trkpt><trkpt lat="39.2314217" lon="16.9304633"><ele>98.6</ele><time>2026-03-28T14:12:25.391Z</time></trkpt><trkpt lat="39.231475" lon="16.9305567"><ele>97.8</ele><time>2026-03-28T14:12:26.392Z</time></trkpt><trkpt lat="39.2315367" lon="16.93064"><ele>97.0</ele><time>2026-03-28T14:12:27.391Z</time></trkpt><trkpt lat="39.2315833" lon="16.93073"><ele>97.85714285714285</ele><time>2026-03-28T14:12:28.391Z</time></trkpt><trkpt lat="39.2316167" lon="16.930815"><ele>98.71428571428572</ele><time>2026-03-28T14:12:29.391Z</time></trkpt><trkpt lat="39.231645" lon="16.9309017"><ele>99.57142857142857</ele><time>2026-03-28T14:12:30.391Z</time></trkpt><trkpt lat="39.231675" lon="16.9309833"><ele>100.42857142857142</ele><time>2026-03-28T14:12:31.391Z</time></trkpt><trkpt lat="39.2317133" lon="16.93106"><ele>101.28571428571428</ele><time>2026-03-28T14:12:32.391Z</time></trkpt><trkpt lat="39.2317583" lon="16.9311383"><ele>102.14285714285714</ele><time>2026-03-28T14:12:33.391Z</time></trkpt><trkpt lat="39.2318067" lon="16.93122"><ele>103.0</ele><time>2026-03-28T14:12:34.391Z</time></trkpt><trkpt lat="39.2318567" lon="16.9313067"><ele>103.00000000000001</ele><time>2026-03-28T14:12:35.391Z</time></trkpt><trkpt lat="39.2319" lon="16.9313917"><ele>103.0</ele><time>2026-03-28T14:12:36.391Z</time></trkpt><trkpt lat="39.231935" lon="16.931465"><ele>103.0</ele><time>2026-03-28T14:12:37.391Z</time></trkpt><trkpt lat="39.2319633" lon="16.9315517"><ele>103.0</ele><time>2026-03-28T14:12:38.392Z</time></trkpt><trkpt lat="39.2319733" lon="16.9316333"><ele>103.00000000000001</ele><time>2026-03-28T14:12:39.391Z</time></trkpt><trkpt lat="39.2319617" lon="16.931795"><ele>103.0</ele><time>2026-03-28T14:12:41.391Z</time></trkpt><trkpt lat="39.2319467" lon="16.93197"><ele>102.60000000000001</ele><time>2026-03-28T14:12:43.391Z</time></trkpt><trkpt lat="39.231935" lon="16.9320833"><ele>102.2</ele><time>2026-03-28T14:12:44.391Z</time></trkpt><trkpt lat="39.2319233" lon="16.93221"><ele>101.8</ele><time>2026-03-28T14:12:45.391Z</time></trkpt><trkpt lat="39.2319117" lon="16.9323367"><ele>101.4</ele><time>2026-03-28T14:12:46.391Z</time></trkpt><trkpt lat="39.2319083" lon="16.9324633"><ele>101.0</ele><time>2026-03-28T14:12:47.391Z</time></trkpt><trkpt lat="39.231915" lon="16.9325983"><ele>100.99999999999999</ele><time>2026-03-28T14:12:48.391Z</time></trkpt><trkpt lat="39.231935" lon="16.9327217"><ele>101.0</ele><time>2026-03-28T14:12:49.391Z</time></trkpt><trkpt lat="39.2319617" lon="16.932835"><ele>101.0</ele><time>2026-03-28T14:12:50.392Z</time></trkpt><trkpt lat="39.232" lon="16.932935"><ele>101.0</ele><time>2026-03-28T14:12:51.391Z</time></trkpt><trkpt lat="39.2320283" lon="16.9330333"><ele>100.99999999999999</ele><time>2026-03-28T14:12:52.391Z</time></trkpt><trkpt lat="39.2320367" lon="16.933125"><ele>101.0</ele><time>2026-03-28T14:12:53.391Z</time></trkpt><trkpt lat="39.2320183" lon="16.9332367"><ele>100.99999999999999</ele><time>2026-03-28T14:12:54.391Z</time></trkpt><trkpt lat="39.2319883" lon="16.93335"><ele>101.0</ele><time>2026-03-28T14:12:55.391Z</time></trkpt><trkpt lat="39.23196" lon="16.933455"><ele>101.0</ele><time>2026-03-28T14:12:56.391Z</time></trkpt><trkpt lat="39.2319233" lon="16.9335667"><ele>101.0</ele><time>2026-03-28T14:12:57.391Z</time></trkpt><trkpt lat="39.231875" lon="16.933665"><ele>100.99999999999999</ele><time>2026-03-28T14:12:58.391Z</time></trkpt><trkpt lat="39.2318167" lon="16.9337467"><ele>101.0</ele><time>2026-03-28T14:12:59.391Z</time></trkpt><trkpt lat="39.231755" lon="16.9338233"><ele>100.66666666666666</ele><time>2026-03-28T14:13:00.391Z</time></trkpt><trkpt lat="39.2316917" lon="16.9338867"><ele>100.33333333333333</ele><time>2026-03-28T14:13:01.391Z</time></trkpt><trkpt lat="39.2316267" lon="16.9339683"><ele>100.0</ele><time>2026-03-28T14:13:02.392Z</time></trkpt><trkpt lat="39.231565" lon="16.9340583"><ele>99.66666666666666</ele><time>2026-03-28T14:13:03.391Z</time></trkpt><trkpt lat="39.23151" lon="16.9341367"><ele>99.33333333333333</ele><time>2026-03-28T14:13:04.391Z</time></trkpt><trkpt lat="39.2314717" lon="16.934205"><ele>99.0</ele><time>2026-03-28T14:13:05.391Z</time></trkpt><trkpt lat="39.231405" lon="16.9343283"><ele>97.80000000000001</ele><time>2026-03-28T14:13:07.391Z</time></trkpt><trkpt lat="39.2313417" lon="16.9344633"><ele>96.60000000000001</ele><time>2026-03-28T14:13:09.391Z</time></trkpt><trkpt lat="39.2312983" lon="16.934595"><ele>95.4</ele><time>2026-03-28T14:13:11.391Z</time></trkpt><trkpt lat="39.2312483" lon="16.93475"><ele>94.2</ele><time>2026-03-28T14:13:13.391Z</time></trkpt><trkpt lat="39.2312217" lon="16.9348383"><ele>93.0</ele><time>2026-03-28T14:13:14.392Z</time></trkpt><trkpt lat="39.2312033" lon="16.934935"><ele>93.0</ele><time>2026-03-28T14:13:15.391Z</time></trkpt><trkpt lat="39.2311867" lon="16.93504"><ele>93.0</ele><time>2026-03-28T14:13:16.391Z</time></trkpt><trkpt lat="39.2311667" lon="16.935145"><ele>93.0</ele><time>2026-03-28T14:13:17.392Z</time></trkpt><trkpt lat="39.231145" lon="16.9352467"><ele>93.0</ele><time>2026-03-28T14:13:18.391Z</time></trkpt><trkpt lat="39.2311133" lon="16.935335"><ele>93.0</ele><time>2026-03-28T14:13:19.391Z</time></trkpt><trkpt lat="39.23107" lon="16.9354033"><ele>93.0</ele><time>2026-03-28T14:13:20.391Z</time></trkpt><trkpt lat="39.231005" lon="16.9354617"><ele>93.2</ele><time>2026-03-28T14:13:21.391Z</time></trkpt><trkpt lat="39.2309383" lon="16.9355267"><ele>93.4</ele><time>2026-03-28T14:13:22.391Z</time></trkpt><trkpt lat="39.230875" lon="16.9356067"><ele>93.60000000000001</ele><time>2026-03-28T14:13:23.391Z</time></trkpt><trkpt lat="39.2308167" lon="16.9357033"><ele>93.80000000000001</ele><time>2026-03-28T14:13:24.391Z</time></trkpt><trkpt lat="39.2307583" lon="16.93581"><ele>94.0</ele><time>2026-03-28T14:13:25.391Z</time></trkpt><trkpt lat="39.2307083" lon="16.9359283"><ele>94.75</ele><time>2026-03-28T14:13:26.392Z</time></trkpt><trkpt lat="39.2306517" lon="16.9360583"><ele>95.5</ele><time>2026-03-28T14:13:27.391Z</time></trkpt><trkpt lat="39.2305867" lon="16.93619"><ele>96.25</ele><time>2026-03-28T14:13:28.391Z</time></trkpt><trkpt lat="39.23052" lon="16.9363183"><ele>97.0</ele><time>2026-03-28T14:13:29.391Z</time></trkpt><trkpt lat="39.230455" lon="16.936445"><ele>95.75</ele><time>2026-03-28T14:13:30.391Z</time></trkpt><trkpt lat="39.2303933" lon="16.9365683"><ele>94.5</ele><time>2026-03-28T14:13:31.391Z</time></trkpt><trkpt lat="39.23033" lon="16.9366967"><ele>93.25</ele><time>2026-03-28T14:13:32.392Z</time></trkpt><trkpt lat="39.2302617" lon="16.9368383"><ele>92.0</ele><time>2026-03-28T14:13:33.391Z</time></trkpt><trkpt lat="39.2301833" lon="16.936995"><ele>92.0</ele><time>2026-03-28T14:13:34.391Z</time></trkpt><trkpt lat="39.2301083" lon="16.937155"><ele>92.0</ele><time>2026-03-28T14:13:35.391Z</time></trkpt><trkpt lat="39.2300217" lon="16.937325"><ele>92.0</ele><time>2026-03-28T14:13:36.391Z</time></trkpt><trkpt lat="39.2299433" lon="16.93748"><ele>92.0</ele><time>2026-03-28T14:13:37.392Z</time></trkpt><trkpt lat="39.229865" lon="16.93764"><ele>92.0</ele><time>2026-03-28T14:13:38.392Z</time></trkpt><trkpt lat="39.2297983" lon="16.9377833"><ele>92.0</ele><time>2026-03-28T14:13:39.391Z</time></trkpt><trkpt lat="39.2297367" lon="16.93792"><ele>92.0</ele><time>2026-03-28T14:13:40.391Z</time></trkpt><trkpt lat="39.2296717" lon="16.9380317"><ele>92.0</ele><time>2026-03-28T14:13:41.391Z</time></trkpt><trkpt lat="39.2295933" lon="16.938135"><ele>92.0</ele><time>2026-03-28T14:13:42.392Z</time></trkpt><trkpt lat="39.2295017" lon="16.9382233"><ele>92.0</ele><time>2026-03-28T14:13:43.392Z</time></trkpt><trkpt lat="39.2293933" lon="16.9383017"><ele>92.0</ele><time>2026-03-28T14:13:44.391Z</time></trkpt><trkpt lat="39.2292767" lon="16.93838"><ele>92.0</ele><time>2026-03-28T14:13:45.391Z</time></trkpt><trkpt lat="39.229155" lon="16.9384633"><ele>90.39999999999999</ele><time>2026-03-28T14:13:46.392Z</time></trkpt><trkpt lat="39.2290433" lon="16.9385467"><ele>88.8</ele><time>2026-03-28T14:13:47.391Z</time></trkpt><trkpt lat="39.2289583" lon="16.9386417"><ele>87.2</ele><time>2026-03-28T14:13:48.391Z</time></trkpt><trkpt lat="39.2288967" lon="16.9387583"><ele>85.6</ele><time>2026-03-28T14:13:49.392Z</time></trkpt><trkpt lat="39.2288617" lon="16.9388733"><ele>84.0</ele><time>2026-03-28T14:13:50.391Z</time></trkpt><trkpt lat="39.228845" lon="16.9389867"><ele>84.0</ele><time>2026-03-28T14:13:51.392Z</time></trkpt><trkpt lat="39.2288317" lon="16.9391233"><ele>84.0</ele><time>2026-03-28T14:13:52.392Z</time></trkpt><trkpt lat="39.2288217" lon="16.9392683"><ele>84.0</ele><time>2026-03-28T14:13:53.391Z</time></trkpt><trkpt lat="39.22881" lon="16.939425"><ele>84.0</ele><time>2026-03-28T14:13:54.392Z</time></trkpt><trkpt lat="39.2288017" lon="16.939595"><ele>84.0</ele><time>2026-03-28T14:13:55.391Z</time></trkpt><trkpt lat="39.2287883" lon="16.939765"><ele>84.0</ele><time>2026-03-28T14:13:56.391Z</time></trkpt><trkpt lat="39.2287767" lon="16.939925"><ele>84.0</ele><time>2026-03-28T14:13:57.391Z</time></trkpt><trkpt lat="39.22876" lon="16.940085"><ele>84.0</ele><time>2026-03-28T14:13:58.391Z</time></trkpt><trkpt lat="39.228745" lon="16.9402383"><ele>83.5</ele><time>2026-03-28T14:13:59.391Z</time></trkpt><trkpt lat="39.2287333" lon="16.9404017"><ele>83.0</ele><time>2026-03-28T14:14:00.391Z</time></trkpt><trkpt lat="39.2287267" lon="16.9405583"><ele>82.5</ele><time>2026-03-28T14:14:01.391Z</time></trkpt><trkpt lat="39.22872" lon="16.9407167"><ele>82.0</ele><time>2026-03-28T14:14:02.391Z</time></trkpt><trkpt lat="39.228715" lon="16.9408667"><ele>81.5</ele><time>2026-03-28T14:14:03.391Z</time></trkpt><trkpt lat="39.2287133" lon="16.9410033"><ele>81.0</ele><time>2026-03-28T14:14:04.391Z</time></trkpt><trkpt lat="39.2287083" lon="16.9411217"><ele>80.5</ele><time>2026-03-28T14:14:05.391Z</time></trkpt><trkpt lat="39.2287" lon="16.9412167"><ele>80.0</ele><time>2026-03-28T14:14:06.391Z</time></trkpt><trkpt lat="39.2286983" lon="16.9413317"><ele>79.5</ele><time>2026-03-28T14:14:08.391Z</time></trkpt><trkpt lat="39.22876" lon="16.9413867"><ele>79.0</ele><time>2026-03-28T14:14:10.391Z</time></trkpt><trkpt lat="39.22886" lon="16.9414517"><ele>79.0</ele><time>2026-03-28T14:14:12.392Z</time></trkpt><trkpt lat="39.2289417" lon="16.94151"><ele>79.0</ele><time>2026-03-28T14:14:13.391Z</time></trkpt><trkpt lat="39.229035" lon="16.9415617"><ele>79.0</ele><time>2026-03-28T14:14:14.392Z</time></trkpt><trkpt lat="39.2291317" lon="16.9416067"><ele>79.0</ele><time>2026-03-28T14:14:15.391Z</time></trkpt><trkpt lat="39.2292233" lon="16.9416533"><ele>79.0</ele><time>2026-03-28T14:14:16.391Z</time></trkpt><trkpt lat="39.22931" lon="16.9417067"><ele>80.6</ele><time>2026-03-28T14:14:17.391Z</time></trkpt><trkpt lat="39.2293867" lon="16.9417633"><ele>82.2</ele><time>2026-03-28T14:14:18.391Z</time></trkpt><trkpt lat="39.2294417" lon="16.9418183"><ele>83.8</ele><time>2026-03-28T14:14:19.391Z</time></trkpt><trkpt lat="39.2295217" lon="16.9419233"><ele>85.39999999999999</ele><time>2026-03-28T14:14:21.391Z</time></trkpt><trkpt lat="39.2295783" lon="16.9420183"><ele>87.0</ele><time>2026-03-28T14:14:23.391Z</time></trkpt><trkpt lat="39.2296433" lon="16.94212"><ele>87.0</ele><time>2026-03-28T14:14:25.391Z</time></trkpt><trkpt lat="39.2297033" lon="16.9422283"><ele>87.0</ele><time>2026-03-28T14:14:27.391Z</time></trkpt><trkpt lat="39.2297633" lon="16.9423317"><ele>87.0</ele><time>2026-03-28T14:14:33.391Z</time></trkpt><trkpt lat="39.2298067" lon="16.9424267"><ele>87.0</ele><time>2026-03-28T14:14:36.391Z</time></trkpt><trkpt lat="39.22984" lon="16.9425133"><ele>87.0</ele><time>2026-03-28T14:14:38.391Z</time></trkpt><trkpt lat="39.2298917" lon="16.9426367"><ele>87.83333333333333</ele><time>2026-03-28T14:14:40.392Z</time></trkpt><trkpt lat="39.2299633" lon="16.942745"><ele>88.66666666666667</ele><time>2026-03-28T14:14:42.391Z</time></trkpt><trkpt lat="39.2300183" lon="16.9427933"><ele>89.5</ele><time>2026-03-28T14:14:43.391Z</time></trkpt><trkpt lat="39.2301083" lon="16.9429067"><ele>90.33333333333334</ele><time>2026-03-28T14:14:45.392Z</time></trkpt><trkpt lat="39.230155" lon="16.9429617"><ele>91.16666666666667</ele><time>2026-03-28T14:14:46.392Z</time></trkpt><trkpt lat="39.23021" lon="16.943005"><ele>92.0</ele><time>2026-03-28T14:14:47.392Z</time></trkpt><trkpt lat="39.2303133" lon="16.9430717"><ele>92.0</ele><time>2026-03-28T14:14:49.391Z</time></trkpt><trkpt lat="39.2303967" lon="16.9431217"><ele>92.0</ele><time>2026-03-28T14:14:51.391Z</time></trkpt><trkpt lat="39.230465" lon="16.9431717"><ele>92.0</ele><time>2026-03-28T14:14:54.391Z</time></trkpt><trkpt lat="39.230515" lon="16.9432433"><ele>92.0</ele><time>2026-03-28T14:14:57.391Z</time></trkpt><trkpt lat="39.2305717" lon="16.94337"><ele>92.0</ele><time>2026-03-28T14:14:59.391Z</time></trkpt><trkpt lat="39.2306267" lon="16.9435067"><ele>93.0</ele><time>2026-03-28T14:15:01.391Z</time></trkpt><trkpt lat="39.2306533" lon="16.943585"><ele>94.0</ele><time>2026-03-28T14:15:02.392Z</time></trkpt><trkpt lat="39.23068" lon="16.943665"><ele>95.0</ele><time>2026-03-28T14:15:03.391Z</time></trkpt><trkpt lat="39.23071" lon="16.9437433"><ele>96.0</ele><time>2026-03-28T14:15:04.391Z</time></trkpt><trkpt lat="39.230745" lon="16.943815"><ele>96.99999999999999</ele><time>2026-03-28T14:15:05.391Z</time></trkpt><trkpt lat="39.230825" lon="16.943915"><ele>98.0</ele><time>2026-03-28T14:15:07.392Z</time></trkpt><trkpt lat="39.2309033" lon="16.94399"><ele>97.99999999999999</ele><time>2026-03-28T14:15:09.391Z</time></trkpt><trkpt lat="39.231" lon="16.9440583"><ele>98.0</ele><time>2026-03-28T14:15:11.392Z</time></trkpt><trkpt lat="39.2310567" lon="16.9441017"><ele>98.0</ele><time>2026-03-28T14:15:12.391Z</time></trkpt><trkpt lat="39.2311167" lon="16.944165"><ele>98.0</ele><time>2026-03-28T14:15:13.392Z</time></trkpt><trkpt lat="39.2311867" lon="16.944245"><ele>97.99999999999999</ele><time>2026-03-28T14:15:14.391Z</time></trkpt><trkpt lat="39.2312533" lon="16.9443367"><ele>98.0</ele><time>2026-03-28T14:15:15.391Z</time></trkpt><trkpt lat="39.231305" lon="16.9444483"><ele>98.49999999999999</ele><time>2026-03-28T14:15:16.391Z</time></trkpt><trkpt lat="39.2313483" lon="16.9445633"><ele>99.0</ele><time>2026-03-28T14:15:17.391Z</time></trkpt><trkpt lat="39.2313833" lon="16.9446633"><ele>99.5</ele><time>2026-03-28T14:15:18.391Z</time></trkpt><trkpt lat="39.2314117" lon="16.9447517"><ele>100.0</ele><time>2026-03-28T14:15:19.391Z</time></trkpt><trkpt lat="39.23146" lon="16.944875"><ele>100.49999999999999</ele><time>2026-03-28T14:15:21.391Z</time></trkpt><trkpt lat="39.2314917" lon="16.9449467"><ele>101.0</ele><time>2026-03-28T14:15:23.391Z</time></trkpt><trkpt lat="39.2315283" lon="16.9450167"><ele>102.16666666666666</ele><time>2026-03-28T14:15:25.391Z</time></trkpt><trkpt lat="39.2315733" lon="16.94509"><ele>103.33333333333333</ele><time>2026-03-28T14:15:27.391Z</time></trkpt><trkpt lat="39.2316333" lon="16.9451717"><ele>104.5</ele><time>2026-03-28T14:15:30.392Z</time></trkpt><trkpt lat="39.231685" lon="16.9452417"><ele>105.66666666666666</ele><time>2026-03-28T14:15:32.392Z</time></trkpt><trkpt lat="39.2317567" lon="16.94533"><ele>106.83333333333333</ele><time>2026-03-28T14:15:34.391Z</time></trkpt><trkpt lat="39.2318433" lon="16.9454267"><ele>108.0</ele><time>2026-03-28T14:15:36.391Z</time></trkpt><trkpt lat="39.231905" lon="16.9454617"><ele>108.0</ele><time>2026-03-28T14:15:37.391Z</time></trkpt><trkpt lat="39.231975" lon="16.9454867"><ele>108.0</ele><time>2026-03-28T14:15:38.391Z</time></trkpt><trkpt lat="39.2320433" lon="16.94551"><ele>108.0</ele><time>2026-03-28T14:15:39.391Z</time></trkpt><trkpt lat="39.2321083" lon="16.9455317"><ele>108.0</ele><time>2026-03-28T14:15:40.392Z</time></trkpt><trkpt lat="39.2322117" lon="16.945575"><ele>108.0</ele><time>2026-03-28T14:15:42.391Z</time></trkpt><trkpt lat="39.2323067" lon="16.945625"><ele>108.0</ele><time>2026-03-28T14:15:44.391Z</time></trkpt><trkpt lat="39.23239" lon="16.9456567"><ele>107.4</ele><time>2026-03-28T14:15:46.391Z</time></trkpt><trkpt lat="39.2324867" lon="16.9456867"><ele>106.80000000000001</ele><time>2026-03-28T14:15:48.392Z</time></trkpt><trkpt lat="39.2325817" lon="16.945725"><ele>106.2</ele><time>2026-03-28T14:15:50.391Z</time></trkpt><trkpt lat="39.23268" lon="16.9457483"><ele>105.6</ele><time>2026-03-28T14:15:52.391Z</time></trkpt><trkpt lat="39.2327667" lon="16.945745"><ele>105.0</ele><time>2026-03-28T14:15:54.392Z</time></trkpt><trkpt lat="39.23285" lon="16.9457583"><ele>105.0</ele><time>2026-03-28T14:15:56.391Z</time></trkpt><trkpt lat="39.2329417" lon="16.9457917"><ele>105.0</ele><time>2026-03-28T14:15:58.391Z</time></trkpt><trkpt lat="39.2330267" lon="16.9458283"><ele>105.0</ele><time>2026-03-28T14:16:11.391Z</time></trkpt><trkpt lat="39.2331217" lon="16.945865"><ele>105.0</ele><time>2026-03-28T14:16:13.391Z</time></trkpt><trkpt lat="39.233215" lon="16.94589"><ele>105.0</ele><time>2026-03-28T14:16:15.391Z</time></trkpt><trkpt lat="39.233285" lon="16.945905"><ele>108.16666666666667</ele><time>2026-03-28T14:16:17.391Z</time></trkpt><trkpt lat="39.2333667" lon="16.9459267"><ele>111.33333333333334</ele><time>2026-03-28T14:16:20.391Z</time></trkpt><trkpt lat="39.2334333" lon="16.94595"><ele>114.5</ele><time>2026-03-28T14:16:22.391Z</time></trkpt><trkpt lat="39.2335167" lon="16.9459817"><ele>117.66666666666667</ele><time>2026-03-28T14:16:24.391Z</time></trkpt><trkpt lat="39.2335983" lon="16.9460233"><ele>120.83333333333334</ele><time>2026-03-28T14:16:26.391Z</time></trkpt><trkpt lat="39.233685" lon="16.946055"><ele>124.0</ele><time>2026-03-28T14:16:28.391Z</time></trkpt><trkpt lat="39.2337683" lon="16.9461017"><ele>124.00000000000001</ele><time>2026-03-28T14:16:30.391Z</time></trkpt><trkpt lat="39.23385" lon="16.946145"><ele>124.0</ele><time>2026-03-28T14:16:32.391Z</time></trkpt><trkpt lat="39.23392" lon="16.9461783"><ele>124.0</ele><time>2026-03-28T14:16:34.392Z</time></trkpt><trkpt lat="39.2339867" lon="16.9462117"><ele>124.0</ele><time>2026-03-28T14:16:36.391Z</time></trkpt><trkpt lat="39.2340567" lon="16.94624"><ele>124.00000000000001</ele><time>2026-03-28T14:16:38.392Z</time></trkpt><trkpt lat="39.2341417" lon="16.9462667"><ele>124.0</ele><time>2026-03-28T14:16:40.392Z</time></trkpt><trkpt lat="39.2342233" lon="16.9462733"><ele>123.16666666666667</ele><time>2026-03-28T14:16:42.391Z</time></trkpt><trkpt lat="39.23429" lon="16.9462567"><ele>122.33333333333334</ele><time>2026-03-28T14:16:44.391Z</time></trkpt><trkpt lat="39.2343767" lon="16.9462233"><ele>121.5</ele><time>2026-03-28T14:16:46.391Z</time></trkpt><trkpt lat="39.234445" lon="16.94619"><ele>120.66666666666666</ele><time>2026-03-28T14:16:47.392Z</time></trkpt><trkpt lat="39.2345283" lon="16.946145"><ele>119.83333333333333</ele><time>2026-03-28T14:16:48.391Z</time></trkpt><trkpt lat="39.2346133" lon="16.9460933"><ele>119.0</ele><time>2026-03-28T14:16:49.391Z</time></trkpt><trkpt lat="39.23469" lon="16.946045"><ele>118.99999999999999</ele><time>2026-03-28T14:16:50.391Z</time></trkpt><trkpt lat="39.234765" lon="16.9460067"><ele>119.0</ele><time>2026-03-28T14:16:51.391Z</time></trkpt><trkpt lat="39.23483" lon="16.9459733"><ele>119.0</ele><time>2026-03-28T14:16:52.391Z</time></trkpt><trkpt lat="39.2348933" lon="16.945935"><ele>119.0</ele><time>2026-03-28T14:16:53.391Z</time></trkpt><trkpt lat="39.234975" lon="16.9458567"><ele>118.99999999999999</ele><time>2026-03-28T14:16:55.392Z</time></trkpt><trkpt lat="39.2350383" lon="16.9457817"><ele>119.0</ele><time>2026-03-28T14:16:57.391Z</time></trkpt><trkpt lat="39.2351617" lon="16.9457383"><ele>119.6</ele><time>2026-03-28T14:16:59.391Z</time></trkpt><trkpt lat="39.23523" lon="16.94573"><ele>120.2</ele><time>2026-03-28T14:17:00.391Z</time></trkpt><trkpt lat="39.2353467" lon="16.9457533"><ele>120.79999999999998</ele><time>2026-03-28T14:17:02.391Z</time></trkpt><trkpt lat="39.2354617" lon="16.9457633"><ele>121.39999999999999</ele><time>2026-03-28T14:17:04.392Z</time></trkpt><trkpt lat="39.23558" lon="16.9457733"><ele>122.0</ele><time>2026-03-28T14:17:06.392Z</time></trkpt><trkpt lat="39.2356417" lon="16.945795"><ele>123.49999999999999</ele><time>2026-03-28T14:17:07.391Z</time></trkpt><trkpt lat="39.2357083" lon="16.945825"><ele>125.0</ele><time>2026-03-28T14:17:08.392Z</time></trkpt><trkpt lat="39.235775" lon="16.9458567"><ele>126.5</ele><time>2026-03-28T14:17:09.391Z</time></trkpt><trkpt lat="39.2358367" lon="16.945885"><ele>128.0</ele><time>2026-03-28T14:17:10.391Z</time></trkpt><trkpt lat="39.2359417" lon="16.94591"><ele>129.5</ele><time>2026-03-28T14:17:12.392Z</time></trkpt><trkpt lat="39.2360183" lon="16.9459783"><ele>131.0</ele><time>2026-03-28T14:17:14.392Z</time></trkpt><trkpt lat="39.23605" lon="16.9460967"><ele>132.5</ele><time>2026-03-28T14:17:16.391Z</time></trkpt><trkpt lat="39.23608" lon="16.9462367"><ele>134.0</ele><time>2026-03-28T14:17:18.391Z</time></trkpt><trkpt lat="39.2361317" lon="16.94637"><ele>135.5</ele><time>2026-03-28T14:17:20.391Z</time></trkpt><trkpt lat="39.2361883" lon="16.9465"><ele>137.0</ele><time>2026-03-28T14:17:22.391Z</time></trkpt><trkpt lat="39.2362433" lon="16.9466233"><ele>137.2</ele><time>2026-03-28T14:17:24.391Z</time></trkpt><trkpt lat="39.2362983" lon="16.9467267"><ele>137.39999999999998</ele><time>2026-03-28T14:17:26.392Z</time></trkpt><trkpt lat="39.2363833" lon="16.9468"><ele>137.60000000000002</ele><time>2026-03-28T14:17:28.391Z</time></trkpt><trkpt lat="39.236485" lon="16.9468617"><ele>137.8</ele><time>2026-03-28T14:17:30.391Z</time></trkpt><trkpt lat="39.2365833" lon="16.94694"><ele>138.0</ele><time>2026-03-28T14:17:32.391Z</time></trkpt><trkpt lat="39.23664" lon="16.946985"><ele>140.83333333333334</ele><time>2026-03-28T14:17:33.391Z</time></trkpt><trkpt lat="39.236745" lon="16.9470733"><ele>143.66666666666666</ele><time>2026-03-28T14:17:35.392Z</time></trkpt><trkpt lat="39.2368033" lon="16.9471133"><ele>146.5</ele><time>2026-03-28T14:17:36.391Z</time></trkpt><trkpt lat="39.2368617" lon="16.9471667"><ele>149.33333333333331</ele><time>2026-03-28T14:17:37.391Z</time></trkpt><trkpt lat="39.23692" lon="16.9472317"><ele>152.16666666666666</ele><time>2026-03-28T14:17:38.391Z</time></trkpt><trkpt lat="39.236975" lon="16.947305"><ele>155.0</ele><time>2026-03-28T14:17:39.391Z</time></trkpt><trkpt lat="39.2370183" lon="16.9473817"><ele>155.0</ele><time>2026-03-28T14:17:40.391Z</time></trkpt><trkpt lat="39.2370517" lon="16.947455"><ele>155.0</ele><time>2026-03-28T14:17:41.392Z</time></trkpt><trkpt lat="39.2371" lon="16.94759"><ele>155.0</ele><time>2026-03-28T14:17:43.391Z</time></trkpt><trkpt lat="39.2371033" lon="16.9477167"><ele>155.0</ele><time>2026-03-28T14:17:45.391Z</time></trkpt><trkpt lat="39.2370717" lon="16.9478117"><ele>155.0</ele><time>2026-03-28T14:17:47.391Z</time></trkpt><trkpt lat="39.237035" lon="16.9478983"><ele>155.0</ele><time>2026-03-28T14:18:55.391Z</time></trkpt><trkpt lat="39.2370133" lon="16.9480033"><ele>156.6</ele><time>2026-03-28T14:18:57.392Z</time></trkpt><trkpt lat="39.2369883" lon="16.948155"><ele>158.2</ele><time>2026-03-28T14:18:59.391Z</time></trkpt><trkpt lat="39.2369583" lon="16.948295"><ele>159.8</ele><time>2026-03-28T14:19:01.391Z</time></trkpt><trkpt lat="39.2369583" lon="16.948395"><ele>161.4</ele><time>2026-03-28T14:19:03.391Z</time></trkpt><trkpt lat="39.2370067" lon="16.9484817"><ele>163.0</ele><time>2026-03-28T14:19:07.392Z</time></trkpt><trkpt lat="39.2370483" lon="16.94858"><ele>163.4</ele><time>2026-03-28T14:19:10.392Z</time></trkpt><trkpt lat="39.237085" lon="16.9486717"><ele>163.8</ele><time>2026-03-28T14:19:14.391Z</time></trkpt><trkpt lat="39.2371717" lon="16.94883"><ele>164.2</ele><time>2026-03-28T14:19:43.392Z</time></trkpt><trkpt lat="39.237205" lon="16.94892"><ele>164.6</ele><time>2026-03-28T14:19:59.391Z</time></trkpt><trkpt lat="39.237235" lon="16.9490067"><ele>165.0</ele><time>2026-03-28T14:20:04.391Z</time></trkpt><trkpt lat="39.2372667" lon="16.9490967"><ele>164.33333333333334</ele><time>2026-03-28T14:20:07.391Z</time></trkpt><trkpt lat="39.2373083" lon="16.9491767"><ele>163.66666666666666</ele><time>2026-03-28T14:20:09.391Z</time></trkpt><trkpt lat="39.2373533" lon="16.949275"><ele>163.0</ele><time>2026-03-28T14:20:11.391Z</time></trkpt><trkpt lat="39.2373883" lon="16.9493567"><ele>162.33333333333331</ele><time>2026-03-28T14:20:13.391Z</time></trkpt><trkpt lat="39.23742" lon="16.9494417"><ele>161.66666666666666</ele><time>2026-03-28T14:20:15.391Z</time></trkpt><trkpt lat="39.2374483" lon="16.94955"><ele>161.0</ele><time>2026-03-28T14:20:17.391Z</time></trkpt><trkpt lat="39.2374383" lon="16.9496567"><ele>159.16666666666666</ele><time>2026-03-28T14:20:19.391Z</time></trkpt><trkpt lat="39.2374317" lon="16.94976"><ele>157.33333333333331</ele><time>2026-03-28T14:20:21.391Z</time></trkpt><trkpt lat="39.237445" lon="16.94988"><ele>155.5</ele><time>2026-03-28T14:20:23.391Z</time></trkpt><trkpt lat="39.2374933" lon="16.94998"><ele>153.66666666666666</ele><time>2026-03-28T14:20:25.392Z</time></trkpt><trkpt lat="39.2375633" lon="16.950045"><ele>151.83333333333334</ele><time>2026-03-28T14:20:27.391Z</time></trkpt><trkpt lat="39.2376367" lon="16.9501083"><ele>150.0</ele><time>2026-03-28T14:20:29.391Z</time></trkpt><trkpt lat="39.2377117" lon="16.9502217"><ele>149.0</ele><time>2026-03-28T14:20:31.391Z</time></trkpt><trkpt lat="39.23772" lon="16.95035"><ele>148.0</ele><time>2026-03-28T14:20:33.391Z</time></trkpt><trkpt lat="39.23772" lon="16.9504533"><ele>147.0</ele><time>2026-03-28T14:20:35.391Z</time></trkpt><trkpt lat="39.2377417" lon="16.9505467"><ele>146.0</ele><time>2026-03-28T14:20:37.391Z</time></trkpt><trkpt lat="39.2377517" lon="16.950675"><ele>145.0</ele><time>2026-03-28T14:20:40.391Z</time></trkpt><trkpt lat="39.2377617" lon="16.9507917"><ele>144.0</ele><time>2026-03-28T14:20:42.391Z</time></trkpt><trkpt lat="39.23778" lon="16.9509017"><ele>142.66666666666666</ele><time>2026-03-28T14:20:44.391Z</time></trkpt><trkpt lat="39.2378117" lon="16.9510017"><ele>141.33333333333334</ele><time>2026-03-28T14:20:46.391Z</time></trkpt><trkpt lat="39.23784" lon="16.951085"><ele>140.0</ele><time>2026-03-28T14:20:48.391Z</time></trkpt><trkpt lat="39.2378717" lon="16.9511717"><ele>138.66666666666669</ele><time>2026-03-28T14:20:51.391Z</time></trkpt><trkpt lat="39.2378933" lon="16.9512717"><ele>137.33333333333334</ele><time>2026-03-28T14:20:55.391Z</time></trkpt><trkpt lat="39.2379233" lon="16.9513633"><ele>136.0</ele><time>2026-03-28T14:21:00.391Z</time></trkpt><trkpt lat="39.237955" lon="16.9514567"><ele>135.99999999999997</ele><time>2026-03-28T14:21:06.391Z</time></trkpt><trkpt lat="39.2379833" lon="16.951545"><ele>136.0</ele><time>2026-03-28T14:21:09.391Z</time></trkpt><trkpt lat="39.2380183" lon="16.951645"><ele>136.0</ele><time>2026-03-28T14:21:12.392Z</time></trkpt><trkpt lat="39.238045" lon="16.9517217"><ele>136.0</ele><time>2026-03-28T14:21:15.391Z</time></trkpt><trkpt lat="39.2380867" lon="16.9517883"><ele>136.0</ele><time>2026-03-28T14:21:45.392Z</time></trkpt><trkpt lat="39.2381233" lon="16.951865"><ele>135.99999999999997</ele><time>2026-03-28T14:21:52.391Z</time></trkpt><trkpt lat="39.2381633" lon="16.9519467"><ele>136.0</ele><time>2026-03-28T14:22:14.391Z</time></trkpt><trkpt lat="39.2382017" lon="16.9520283"><ele>138.2</ele><time>2026-03-28T14:22:16.391Z</time></trkpt><trkpt lat="39.2382583" lon="16.9521633"><ele>140.39999999999998</ele><time>2026-03-28T14:22:18.392Z</time></trkpt><trkpt lat="39.238305" lon="16.9522833"><ele>142.6</ele><time>2026-03-28T14:22:20.391Z</time></trkpt><trkpt lat="39.2383567" lon="16.9524083"><ele>144.79999999999998</ele><time>2026-03-28T14:22:22.391Z</time></trkpt><trkpt lat="39.2383967" lon="16.9525067"><ele>147.0</ele><time>2026-03-28T14:22:24.391Z</time></trkpt><trkpt lat="39.238435" lon="16.9525883"><ele>147.5</ele><time>2026-03-28T14:22:26.391Z</time></trkpt><trkpt lat="39.2384733" lon="16.9526683"><ele>148.0</ele><time>2026-03-28T14:22:56.391Z</time></trkpt><trkpt lat="39.2385117" lon="16.9527633"><ele>148.5</ele><time>2026-03-28T14:22:59.392Z</time></trkpt><trkpt lat="39.23855" lon="16.9528517"><ele>149.0</ele><time>2026-03-28T14:23:02.391Z</time></trkpt><trkpt lat="39.2385833" lon="16.9529283"><ele>149.5</ele><time>2026-03-28T14:23:04.392Z</time></trkpt><trkpt lat="39.2386183" lon="16.95301"><ele>150.0</ele><time>2026-03-28T14:23:06.391Z</time></trkpt><trkpt lat="39.2386583" lon="16.9531"><ele>150.0</ele><time>2026-03-28T14:23:08.391Z</time></trkpt><trkpt lat="39.2387017" lon="16.9531983"><ele>150.0</ele><time>2026-03-28T14:23:10.391Z</time></trkpt><trkpt lat="39.2387433" lon="16.9533133"><ele>150.0</ele><time>2026-03-28T14:23:12.391Z</time></trkpt><trkpt lat="39.2387633" lon="16.9534283"><ele>150.0</ele><time>2026-03-28T14:23:14.392Z</time></trkpt><trkpt lat="39.238775" lon="16.9535317"><ele>150.0</ele><time>2026-03-28T14:23:16.391Z</time></trkpt><trkpt lat="39.23878" lon="16.953625"><ele>150.0</ele><time>2026-03-28T14:23:18.391Z</time></trkpt><trkpt lat="39.2387783" lon="16.953735"><ele>149.66666666666666</ele><time>2026-03-28T14:23:20.392Z</time></trkpt><trkpt lat="39.238785" lon="16.9538567"><ele>149.33333333333334</ele><time>2026-03-28T14:23:22.391Z</time></trkpt><trkpt lat="39.2388317" lon="16.9539583"><ele>149.0</ele><time>2026-03-28T14:23:24.391Z</time></trkpt><trkpt lat="39.2388917" lon="16.9540217"><ele>148.66666666666669</ele><time>2026-03-28T14:23:26.391Z</time></trkpt><trkpt lat="39.238945" lon="16.9540783"><ele>148.33333333333334</ele><time>2026-03-28T14:23:28.391Z</time></trkpt><trkpt lat="39.2389967" lon="16.95414"><ele>148.0</ele><time>2026-03-28T14:23:30.391Z</time></trkpt><trkpt lat="39.2390517" lon="16.95421"><ele>151.0</ele><time>2026-03-28T14:23:32.391Z</time></trkpt><trkpt lat="39.2391033" lon="16.9542867"><ele>154.0</ele><time>2026-03-28T14:23:34.391Z</time></trkpt><trkpt lat="39.23915" lon="16.954375"><ele>157.0</ele><time>2026-03-28T14:23:36.391Z</time></trkpt><trkpt lat="39.2391933" lon="16.9544783"><ele>160.0</ele><time>2026-03-28T14:23:38.391Z</time></trkpt><trkpt lat="39.23924" lon="16.95458"><ele>163.0</ele><time>2026-03-28T14:23:40.391Z</time></trkpt><trkpt lat="39.23929" lon="16.954665"><ele>166.0</ele><time>2026-03-28T14:23:42.391Z</time></trkpt><trkpt lat="39.2393433" lon="16.954765"><ele>166.0</ele><time>2026-03-28T14:23:44.391Z</time></trkpt><trkpt lat="39.2394133" lon="16.9548783"><ele>166.0</ele><time>2026-03-28T14:23:46.392Z</time></trkpt><trkpt lat="39.2394633" lon="16.954945"><ele>166.0</ele><time>2026-03-28T14:23:48.391Z</time></trkpt><trkpt lat="39.2395667" lon="16.95502"><ele>166.0</ele><time>2026-03-28T14:23:53.392Z</time></trkpt><trkpt lat="39.239635" lon="16.9550633"><ele>166.0</ele><time>2026-03-28T14:23:54.391Z</time></trkpt><trkpt lat="39.2397033" lon="16.955095"><ele>166.60000000000002</ele><time>2026-03-28T14:23:55.391Z</time></trkpt><trkpt lat="39.2397667" lon="16.9551167"><ele>167.2</ele><time>2026-03-28T14:23:56.391Z</time></trkpt><trkpt lat="39.2398717" lon="16.95516"><ele>167.8</ele><time>2026-03-28T14:23:58.391Z</time></trkpt><trkpt lat="39.23997" lon="16.9552083"><ele>168.39999999999998</ele><time>2026-03-28T14:24:00.391Z</time></trkpt><trkpt lat="39.2400733" lon="16.9552683"><ele>169.0</ele><time>2026-03-28T14:24:02.392Z</time></trkpt><trkpt lat="39.2401867" lon="16.9553083"><ele>169.0</ele><time>2026-03-28T14:24:04.391Z</time></trkpt><trkpt lat="39.24028" lon="16.9553283"><ele>169.0</ele><time>2026-03-28T14:24:06.392Z</time></trkpt><trkpt lat="39.240345" lon="16.9553117"><ele>169.0</ele><time>2026-03-28T14:24:08.391Z</time></trkpt><trkpt lat="39.2404133" lon="16.955285"><ele>169.0</ele><time>2026-03-28T14:24:10.392Z</time></trkpt><trkpt lat="39.24051" lon="16.9552783"><ele>169.0</ele><time>2026-03-28T14:24:12.391Z</time></trkpt><trkpt lat="39.240615" lon="16.9553033"><ele>169.0</ele><time>2026-03-28T14:24:14.391Z</time></trkpt><trkpt lat="39.2407033" lon="16.9552967"><ele>169.0</ele><time>2026-03-28T14:24:16.391Z</time></trkpt><trkpt lat="39.2408067" lon="16.9552617"><ele>169.0</ele><time>2026-03-28T14:24:18.391Z</time></trkpt><trkpt lat="39.2409317" lon="16.9552483"><ele>169.0</ele><time>2026-03-28T14:24:20.391Z</time></trkpt><trkpt lat="39.2410283" lon="16.95531"><ele>169.0</ele><time>2026-03-28T14:24:22.391Z</time></trkpt><trkpt lat="39.2411133" lon="16.9553933"><ele>169.0</ele><time>2026-03-28T14:24:24.391Z</time></trkpt><trkpt lat="39.241195" lon="16.9554533"><ele>169.0</ele><time>2026-03-28T14:24:26.391Z</time></trkpt><trkpt lat="39.241275" lon="16.955475"><ele>169.0</ele><time>2026-03-28T14:24:28.391Z</time></trkpt><trkpt lat="39.241345" lon="16.9555067"><ele>169.0</ele><time>2026-03-28T14:24:31.392Z</time></trkpt><trkpt lat="39.2414033" lon="16.9556017"><ele>169.0</ele><time>2026-03-28T14:24:34.392Z</time></trkpt><trkpt lat="39.2414583" lon="16.9556517"><ele>169.0</ele><time>2026-03-28T14:24:36.391Z</time></trkpt><trkpt lat="39.2415467" lon="16.9557067"><ele>169.0</ele><time>2026-03-28T14:24:38.391Z</time></trkpt><trkpt lat="39.2416133" lon="16.9557267"><ele>168.33333333333334</ele><time>2026-03-28T14:24:40.391Z</time></trkpt><trkpt lat="39.2416717" lon="16.9557583"><ele>167.66666666666669</ele><time>2026-03-28T14:24:42.391Z</time></trkpt><trkpt lat="39.24175" lon="16.9558233"><ele>167.0</ele><time>2026-03-28T14:24:44.392Z</time></trkpt><trkpt lat="39.241835" lon="16.9558917"><ele>166.33333333333334</ele><time>2026-03-28T14:24:46.392Z</time></trkpt><trkpt lat="39.2419183" lon="16.9559467"><ele>165.66666666666666</ele><time>2026-03-28T14:24:49.391Z</time></trkpt><trkpt lat="39.2419983" lon="16.9559633"><ele>165.0</ele><time>2026-03-28T14:24:51.391Z</time></trkpt><trkpt lat="39.24209" lon="16.9559667"><ele>165.0</ele><time>2026-03-28T14:24:53.391Z</time></trkpt><trkpt lat="39.2421733" lon="16.9560267"><ele>165.0</ele><time>2026-03-28T14:24:55.391Z</time></trkpt><trkpt lat="39.242245" lon="16.9561517"><ele>165.0</ele><time>2026-03-28T14:24:57.391Z</time></trkpt><trkpt lat="39.2422817" lon="16.9562183"><ele>165.0</ele><time>2026-03-28T14:24:58.391Z</time></trkpt><trkpt lat="39.2423333" lon="16.9563433"><ele>165.0</ele><time>2026-03-28T14:25:00.391Z</time></trkpt><trkpt lat="39.24234" lon="16.95645"><ele>165.83333333333334</ele><time>2026-03-28T14:25:02.391Z</time></trkpt><trkpt lat="39.2423183" lon="16.95654"><ele>166.66666666666666</ele><time>2026-03-28T14:25:04.392Z</time></trkpt><trkpt lat="39.2423183" lon="16.95664"><ele>167.5</ele><time>2026-03-28T14:25:07.391Z</time></trkpt><trkpt lat="39.24236" lon="16.95671"><ele>168.33333333333331</ele><time>2026-03-28T14:25:09.391Z</time></trkpt><trkpt lat="39.2424233" lon="16.956805"><ele>169.16666666666666</ele><time>2026-03-28T14:25:11.391Z</time></trkpt><trkpt lat="39.24248" lon="16.956935"><ele>170.0</ele><time>2026-03-28T14:25:13.392Z</time></trkpt><trkpt lat="39.2425433" lon="16.9570483"><ele>170.0</ele><time>2026-03-28T14:25:15.391Z</time></trkpt><trkpt lat="39.2426" lon="16.95718"><ele>170.0</ele><time>2026-03-28T14:25:17.391Z</time></trkpt><trkpt lat="39.2426567" lon="16.9573167"><ele>170.0</ele><time>2026-03-28T14:25:19.391Z</time></trkpt><trkpt lat="39.2426833" lon="16.957395"><ele>170.0</ele><time>2026-03-28T14:25:20.391Z</time></trkpt><trkpt lat="39.2427067" lon="16.95748"><ele>170.0</ele><time>2026-03-28T14:25:21.391Z</time></trkpt><trkpt lat="39.2427133" lon="16.9575683"><ele>170.0</ele><time>2026-03-28T14:25:22.392Z</time></trkpt><trkpt lat="39.2427017" lon="16.95765"><ele>168.2</ele><time>2026-03-28T14:25:23.391Z</time></trkpt><trkpt lat="39.2426833" lon="16.9577283"><ele>166.4</ele><time>2026-03-28T14:25:24.391Z</time></trkpt><trkpt lat="39.2426583" lon="16.957885"><ele>164.60000000000002</ele><time>2026-03-28T14:25:26.392Z</time></trkpt><trkpt lat="39.2426583" lon="16.958035"><ele>162.8</ele><time>2026-03-28T14:25:28.391Z</time></trkpt><trkpt lat="39.24269" lon="16.9581333"><ele>161.0</ele><time>2026-03-28T14:25:30.391Z</time></trkpt><trkpt lat="39.24273" lon="16.9582267"><ele>161.0</ele><time>2026-03-28T14:25:32.391Z</time></trkpt><trkpt lat="39.24276" lon="16.9583483"><ele>161.0</ele><time>2026-03-28T14:25:34.391Z</time></trkpt><trkpt lat="39.2427933" lon="16.9584833"><ele>161.0</ele><time>2026-03-28T14:25:36.392Z</time></trkpt><trkpt lat="39.2428233" lon="16.95863"><ele>161.0</ele><time>2026-03-28T14:25:38.392Z</time></trkpt><trkpt lat="39.2428367" lon="16.9587633"><ele>161.0</ele><time>2026-03-28T14:25:40.392Z</time></trkpt><trkpt lat="39.2428367" lon="16.9588967"><ele>159.66666666666666</ele><time>2026-03-28T14:25:42.391Z</time></trkpt><trkpt lat="39.2428533" lon="16.959055"><ele>158.33333333333331</ele><time>2026-03-28T14:25:44.391Z</time></trkpt><trkpt lat="39.2428933" lon="16.9592033"><ele>157.0</ele><time>2026-03-28T14:25:46.391Z</time></trkpt><trkpt lat="39.2429367" lon="16.9592717"><ele>155.66666666666666</ele><time>2026-03-28T14:25:47.391Z</time></trkpt><trkpt lat="39.2429867" lon="16.9593283"><ele>154.33333333333334</ele><time>2026-03-28T14:25:48.392Z</time></trkpt><trkpt lat="39.2430417" lon="16.9593817"><ele>153.0</ele><time>2026-03-28T14:25:49.391Z</time></trkpt><trkpt lat="39.2430967" lon="16.95944"><ele>150.33333333333334</ele><time>2026-03-28T14:25:50.391Z</time></trkpt><trkpt lat="39.2431583" lon="16.9595"><ele>147.66666666666666</ele><time>2026-03-28T14:25:51.392Z</time></trkpt><trkpt lat="39.2432183" lon="16.9595633"><ele>145.0</ele><time>2026-03-28T14:25:52.391Z</time></trkpt><trkpt lat="39.2432733" lon="16.9596317"><ele>142.33333333333331</ele><time>2026-03-28T14:25:53.391Z</time></trkpt><trkpt lat="39.2433167" lon="16.9597117"><ele>139.66666666666666</ele><time>2026-03-28T14:25:54.391Z</time></trkpt><trkpt lat="39.2433517" lon="16.95981"><ele>137.0</ele><time>2026-03-28T14:25:55.391Z</time></trkpt><trkpt lat="39.2433717" lon="16.9599117"><ele>137.0</ele><time>2026-03-28T14:25:56.391Z</time></trkpt><trkpt lat="39.24339" lon="16.960005"><ele>137.0</ele><time>2026-03-28T14:25:57.391Z</time></trkpt><trkpt lat="39.2434183" lon="16.9600883"><ele>137.0</ele><time>2026-03-28T14:25:58.391Z</time></trkpt><trkpt lat="39.24345" lon="16.960185"><ele>137.0</ele><time>2026-03-28T14:25:59.391Z</time></trkpt><trkpt lat="39.2434767" lon="16.9602767"><ele>137.0</ele><time>2026-03-28T14:26:00.392Z</time></trkpt><trkpt lat="39.243525" lon="16.9604133"><ele>137.0</ele><time>2026-03-28T14:26:02.391Z</time></trkpt><trkpt lat="39.243565" lon="16.9605117"><ele>136.79999999999998</ele><time>2026-03-28T14:26:04.391Z</time></trkpt><trkpt lat="39.243625" lon="16.9605983"><ele>136.6</ele><time>2026-03-28T14:26:06.391Z</time></trkpt><trkpt lat="39.243705" lon="16.96068"><ele>136.39999999999998</ele><time>2026-03-28T14:26:08.392Z</time></trkpt><trkpt lat="39.243815" lon="16.9607433"><ele>136.2</ele><time>2026-03-28T14:26:10.391Z</time></trkpt><trkpt lat="39.24388" lon="16.9607933"><ele>136.0</ele><time>2026-03-28T14:26:11.392Z</time></trkpt><trkpt lat="39.2439467" lon="16.960865"><ele>136.16666666666669</ele><time>2026-03-28T14:26:12.391Z</time></trkpt><trkpt lat="39.244" lon="16.9609433"><ele>136.33333333333334</ele><time>2026-03-28T14:26:13.392Z</time></trkpt><trkpt lat="39.2440467" lon="16.9610183"><ele>136.5</ele><time>2026-03-28T14:26:14.391Z</time></trkpt><trkpt lat="39.2441483" lon="16.9610917"><ele>136.66666666666666</ele><time>2026-03-28T14:26:16.391Z</time></trkpt><trkpt lat="39.244215" lon="16.96109"><ele>136.83333333333331</ele><time>2026-03-28T14:26:17.391Z</time></trkpt><trkpt lat="39.2442967" lon="16.9610583"><ele>137.0</ele><time>2026-03-28T14:26:18.391Z</time></trkpt><trkpt lat="39.2443883" lon="16.9610133"><ele>137.0</ele><time>2026-03-28T14:26:19.392Z</time></trkpt><trkpt lat="39.24449" lon="16.96096"><ele>137.0</ele><time>2026-03-28T14:26:20.391Z</time></trkpt><trkpt lat="39.2445983" lon="16.9609067"><ele>137.0</ele><time>2026-03-28T14:26:21.392Z</time></trkpt><trkpt lat="39.2447117" lon="16.960865"><ele>137.0</ele><time>2026-03-28T14:26:22.391Z</time></trkpt><trkpt lat="39.2448217" lon="16.9608417"><ele>138.33333333333331</ele><time>2026-03-28T14:26:23.392Z</time></trkpt><trkpt lat="39.2449167" lon="16.96084"><ele>139.66666666666666</ele><time>2026-03-28T14:26:24.391Z</time></trkpt><trkpt lat="39.245005" lon="16.9608517"><ele>141.0</ele><time>2026-03-28T14:26:25.392Z</time></trkpt><trkpt lat="39.2450833" lon="16.96086"><ele>142.33333333333334</ele><time>2026-03-28T14:26:26.391Z</time></trkpt><trkpt lat="39.24516" lon="16.9608433"><ele>143.66666666666669</ele><time>2026-03-28T14:26:27.391Z</time></trkpt><trkpt lat="39.2452517" lon="16.9607883"><ele>145.0</ele><time>2026-03-28T14:26:28.391Z</time></trkpt><trkpt lat="39.245355" lon="16.9607283"><ele>145.0</ele><time>2026-03-28T14:26:29.392Z</time></trkpt><trkpt lat="39.24547" lon="16.9606633"><ele>145.0</ele><time>2026-03-28T14:26:30.391Z</time></trkpt><trkpt lat="39.2455767" lon="16.9606033"><ele>145.0</ele><time>2026-03-28T14:26:31.391Z</time></trkpt><trkpt lat="39.245685" lon="16.96055"><ele>145.0</ele><time>2026-03-28T14:26:32.391Z</time></trkpt><trkpt lat="39.2457933" lon="16.96049"><ele>146.66666666666669</ele><time>2026-03-28T14:26:33.391Z</time></trkpt><trkpt lat="39.24589" lon="16.96043"><ele>148.33333333333334</ele><time>2026-03-28T14:26:34.391Z</time></trkpt><trkpt lat="39.2459783" lon="16.9603883"><ele>150.0</ele><time>2026-03-28T14:26:35.391Z</time></trkpt><trkpt lat="39.24606" lon="16.960345"><ele>151.66666666666666</ele><time>2026-03-28T14:26:36.391Z</time></trkpt><trkpt lat="39.2461233" lon="16.9602933"><ele>153.33333333333331</ele><time>2026-03-28T14:26:37.391Z</time></trkpt><trkpt lat="39.2461883" lon="16.9602517"><ele>155.0</ele><time>2026-03-28T14:26:38.391Z</time></trkpt><trkpt lat="39.2462583" lon="16.960215"><ele>155.0</ele><time>2026-03-28T14:26:39.391Z</time></trkpt><trkpt lat="39.2463233" lon="16.9601733"><ele>155.0</ele><time>2026-03-28T14:26:40.391Z</time></trkpt><trkpt lat="39.24639" lon="16.9601333"><ele>155.0</ele><time>2026-03-28T14:26:41.391Z</time></trkpt><trkpt lat="39.24651" lon="16.96011"><ele>155.0</ele><time>2026-03-28T14:26:43.391Z</time></trkpt><trkpt lat="39.2466217" lon="16.9601367"><ele>155.0</ele><time>2026-03-28T14:26:45.391Z</time></trkpt><trkpt lat="39.2467317" lon="16.960175"><ele>157.16666666666666</ele><time>2026-03-28T14:26:47.391Z</time></trkpt><trkpt lat="39.2468283" lon="16.9602333"><ele>159.33333333333331</ele><time>2026-03-28T14:26:49.392Z</time></trkpt><trkpt lat="39.2468867" lon="16.9601733"><ele>161.5</ele><time>2026-03-28T14:26:51.391Z</time></trkpt><trkpt lat="39.2468717" lon="16.9600417"><ele>163.66666666666666</ele><time>2026-03-28T14:26:53.391Z</time></trkpt><trkpt lat="39.24683" lon="16.9599283"><ele>165.83333333333334</ele><time>2026-03-28T14:26:55.391Z</time></trkpt><trkpt lat="39.2468083" lon="16.9598483"><ele>168.0</ele><time>2026-03-28T14:26:57.391Z</time></trkpt><trkpt lat="39.2468433" lon="16.9597533"><ele>169.8</ele><time>2026-03-28T14:27:10.391Z</time></trkpt><trkpt lat="39.2469233" lon="16.9597517"><ele>171.60000000000002</ele><time>2026-03-28T14:27:12.391Z</time></trkpt><trkpt lat="39.2470167" lon="16.9598"><ele>173.39999999999998</ele><time>2026-03-28T14:27:14.391Z</time></trkpt><trkpt lat="39.247115" lon="16.959885"><ele>175.2</ele><time>2026-03-28T14:27:16.391Z</time></trkpt><trkpt lat="39.2471783" lon="16.9599483"><ele>177.0</ele><time>2026-03-28T14:27:17.391Z</time></trkpt><trkpt lat="39.24725" lon="16.96"><ele>178.33333333333334</ele><time>2026-03-28T14:27:18.392Z</time></trkpt><trkpt lat="39.24733" lon="16.9600283"><ele>179.66666666666666</ele><time>2026-03-28T14:27:19.392Z</time></trkpt><trkpt lat="39.2474183" lon="16.96005"><ele>181.0</ele><time>2026-03-28T14:27:20.391Z</time></trkpt><trkpt lat="39.2475" lon="16.9600767"><ele>182.33333333333331</ele><time>2026-03-28T14:27:21.391Z</time></trkpt><trkpt lat="39.2475633" lon="16.9601117"><ele>183.66666666666666</ele><time>2026-03-28T14:27:22.391Z</time></trkpt><trkpt lat="39.2476217" lon="16.9601683"><ele>185.0</ele><time>2026-03-28T14:27:23.391Z</time></trkpt><trkpt lat="39.2476767" lon="16.960235"><ele>185.0</ele><time>2026-03-28T14:27:24.391Z</time></trkpt><trkpt lat="39.24775" lon="16.9603067"><ele>185.0</ele><time>2026-03-28T14:27:25.391Z</time></trkpt><trkpt lat="39.2478267" lon="16.96038"><ele>185.0</ele><time>2026-03-28T14:27:26.391Z</time></trkpt><trkpt lat="39.2478833" lon="16.960465"><ele>185.0</ele><time>2026-03-28T14:27:27.391Z</time></trkpt><trkpt lat="39.2479317" lon="16.960555"><ele>185.0</ele><time>2026-03-28T14:27:28.391Z</time></trkpt><trkpt lat="39.247955" lon="16.9606583"><ele>185.0</ele><time>2026-03-28T14:27:29.391Z</time></trkpt><trkpt lat="39.2479883" lon="16.9607667"><ele>185.0</ele><time>2026-03-28T14:27:30.391Z</time></trkpt><trkpt lat="39.248035" lon="16.9608617"><ele>185.0</ele><time>2026-03-28T14:27:31.391Z</time></trkpt><trkpt lat="39.248095" lon="16.96094"><ele>185.0</ele><time>2026-03-28T14:27:32.391Z</time></trkpt><trkpt lat="39.24814" lon="16.96103"><ele>185.0</ele><time>2026-03-28T14:27:33.391Z</time></trkpt><trkpt lat="39.248185" lon="16.9611233"><ele>185.0</ele><time>2026-03-28T14:27:34.391Z</time></trkpt><trkpt lat="39.248235" lon="16.961215"><ele>185.0</ele><time>2026-03-28T14:27:35.391Z</time></trkpt><trkpt lat="39.2482867" lon="16.9613083"><ele>185.2</ele><time>2026-03-28T14:27:36.392Z</time></trkpt><trkpt lat="39.2483467" lon="16.9613967"><ele>185.4</ele><time>2026-03-28T14:27:37.391Z</time></trkpt><trkpt lat="39.2484033" lon="16.961485"><ele>185.60000000000002</ele><time>2026-03-28T14:27:38.391Z</time></trkpt><trkpt lat="39.24846" lon="16.9615767"><ele>185.8</ele><time>2026-03-28T14:27:39.391Z</time></trkpt><trkpt lat="39.2485267" lon="16.9616717"><ele>186.0</ele><time>2026-03-28T14:27:40.391Z</time></trkpt><trkpt lat="39.2486017" lon="16.961775"><ele>186.0</ele><time>2026-03-28T14:27:41.391Z</time></trkpt><trkpt lat="39.2487017" lon="16.9618667"><ele>186.0</ele><time>2026-03-28T14:27:42.392Z</time></trkpt><trkpt lat="39.2488" lon="16.961925"><ele>186.0</ele><time>2026-03-28T14:27:43.391Z</time></trkpt><trkpt lat="39.2488783" lon="16.9619417"><ele>186.0</ele><time>2026-03-28T14:27:44.392Z</time></trkpt><trkpt lat="39.2489733" lon="16.9618883"><ele>186.0</ele><time>2026-03-28T14:27:46.391Z</time></trkpt><trkpt lat="39.249005" lon="16.9618117"><ele>189.0</ele><time>2026-03-28T14:27:48.391Z</time></trkpt><trkpt lat="39.2489683" lon="16.961705"><ele>192.0</ele><time>2026-03-28T14:29:12.391Z</time></trkpt><trkpt lat="39.2489467" lon="16.9616"><ele>195.0</ele><time>2026-03-28T14:29:15.391Z</time></trkpt><trkpt lat="39.2489333" lon="16.9615083"><ele>198.0</ele><time>2026-03-28T14:29:18.391Z</time></trkpt><trkpt lat="39.2489167" lon="16.96139"><ele>201.0</ele><time>2026-03-28T14:29:20.392Z</time></trkpt><trkpt lat="39.2488483" lon="16.961275"><ele>201.0</ele><time>2026-03-28T14:29:22.391Z</time></trkpt><trkpt lat="39.2487833" lon="16.96121"><ele>201.0</ele><time>2026-03-28T14:29:23.391Z</time></trkpt><trkpt lat="39.2486983" lon="16.9611383"><ele>201.0</ele><time>2026-03-28T14:29:24.392Z</time></trkpt><trkpt lat="39.2486067" lon="16.9610733"><ele>201.0</ele><time>2026-03-28T14:29:25.392Z</time></trkpt><trkpt lat="39.248515" lon="16.96099"><ele>201.0</ele><time>2026-03-28T14:29:26.391Z</time></trkpt><trkpt lat="39.248445" lon="16.9608983"><ele>204.5</ele><time>2026-03-28T14:29:27.391Z</time></trkpt><trkpt lat="39.248405" lon="16.9608067"><ele>208.0</ele><time>2026-03-28T14:29:28.391Z</time></trkpt><trkpt lat="39.2484" lon="16.9607183"><ele>211.5</ele><time>2026-03-28T14:29:29.391Z</time></trkpt><trkpt lat="39.2484283" lon="16.9606417"><ele>215.0</ele><time>2026-03-28T14:29:30.391Z</time></trkpt><trkpt lat="39.2484833" lon="16.9605867"><ele>218.5</ele><time>2026-03-28T14:29:31.391Z</time></trkpt><trkpt lat="39.24857" lon="16.9605367"><ele>222.0</ele><time>2026-03-28T14:29:32.391Z</time></trkpt><trkpt lat="39.2486717" lon="16.960505"><ele>222.0</ele><time>2026-03-28T14:29:33.391Z</time></trkpt><trkpt lat="39.2487583" lon="16.9604683"><ele>222.0</ele><time>2026-03-28T14:29:34.391Z</time></trkpt><trkpt lat="39.2488433" lon="16.9604667"><ele>222.0</ele><time>2026-03-28T14:29:35.391Z</time></trkpt><trkpt lat="39.2489233" lon="16.9604783"><ele>222.0</ele><time>2026-03-28T14:29:36.391Z</time></trkpt><trkpt lat="39.2490033" lon="16.9604967"><ele>222.0</ele><time>2026-03-28T14:29:37.391Z</time></trkpt><trkpt lat="39.24909" lon="16.9605367"><ele>222.0</ele><time>2026-03-28T14:29:38.392Z</time></trkpt><trkpt lat="39.249185" lon="16.96056"><ele>225.39999999999998</ele><time>2026-03-28T14:29:39.392Z</time></trkpt><trkpt lat="39.2492833" lon="16.9605883"><ele>228.79999999999998</ele><time>2026-03-28T14:29:40.391Z</time></trkpt><trkpt lat="39.24938" lon="16.9606067"><ele>232.2</ele><time>2026-03-28T14:29:41.391Z</time></trkpt><trkpt lat="39.2494517" lon="16.9605833"><ele>235.6</ele><time>2026-03-28T14:29:42.391Z</time></trkpt><trkpt lat="39.249515" lon="16.9605433"><ele>239.0</ele><time>2026-03-28T14:29:43.391Z</time></trkpt><trkpt lat="39.24958" lon="16.960385"><ele>239.0</ele><time>2026-03-28T14:29:45.392Z</time></trkpt><trkpt lat="39.2495867" lon="16.960245"><ele>238.99999999999997</ele><time>2026-03-28T14:29:46.391Z</time></trkpt><trkpt lat="39.2496133" lon="16.9601033"><ele>238.99999999999997</ele><time>2026-03-28T14:29:47.392Z</time></trkpt><trkpt lat="39.2496483" lon="16.959965"><ele>239.0</ele><time>2026-03-28T14:29:48.391Z</time></trkpt><trkpt lat="39.24969" lon="16.9598317"><ele>239.0</ele><time>2026-03-28T14:29:49.391Z</time></trkpt><trkpt lat="39.24975" lon="16.959725"><ele>238.0</ele><time>2026-03-28T14:29:50.392Z</time></trkpt><trkpt lat="39.2498333" lon="16.9596617"><ele>236.99999999999997</ele><time>2026-03-28T14:29:51.391Z</time></trkpt><trkpt lat="39.2499217" lon="16.9596283"><ele>235.99999999999997</ele><time>2026-03-28T14:29:52.391Z</time></trkpt><trkpt lat="39.25003" lon="16.9595967"><ele>235.0</ele><time>2026-03-28T14:29:53.391Z</time></trkpt><trkpt lat="39.2501483" lon="16.9595783"><ele>234.0</ele><time>2026-03-28T14:29:54.391Z</time></trkpt><trkpt lat="39.2502617" lon="16.959545"><ele>234.0</ele><time>2026-03-28T14:29:55.391Z</time></trkpt><trkpt lat="39.2503517" lon="16.9594817"><ele>233.99999999999997</ele><time>2026-03-28T14:29:56.391Z</time></trkpt><trkpt lat="39.2504283" lon="16.9594"><ele>233.99999999999997</ele><time>2026-03-28T14:29:57.391Z</time></trkpt><trkpt lat="39.2504767" lon="16.9592917"><ele>234.0</ele><time>2026-03-28T14:29:58.391Z</time></trkpt><trkpt lat="39.2505117" lon="16.9591667"><ele>234.0</ele><time>2026-03-28T14:29:59.391Z</time></trkpt><trkpt lat="39.2505333" lon="16.9590283"><ele>238.5</ele><time>2026-03-28T14:30:00.391Z</time></trkpt><trkpt lat="39.2505467" lon="16.9588817"><ele>243.0</ele><time>2026-03-28T14:30:01.391Z</time></trkpt><trkpt lat="39.2505617" lon="16.9587267"><ele>247.5</ele><time>2026-03-28T14:30:02.391Z</time></trkpt><trkpt lat="39.2505783" lon="16.958565"><ele>252.0</ele><time>2026-03-28T14:30:03.391Z</time></trkpt><trkpt lat="39.250595" lon="16.958395"><ele>252.0</ele><time>2026-03-28T14:30:04.391Z</time></trkpt><trkpt lat="39.2506117" lon="16.95821"><ele>252.0</ele><time>2026-03-28T14:30:05.391Z</time></trkpt><trkpt lat="39.2506417" lon="16.9580217"><ele>252.0</ele><time>2026-03-28T14:30:06.391Z</time></trkpt><trkpt lat="39.2506783" lon="16.95782"><ele>252.0</ele><time>2026-03-28T14:30:07.391Z</time></trkpt><trkpt lat="39.2507317" lon="16.9576233"><ele>252.0</ele><time>2026-03-28T14:30:08.391Z</time></trkpt><trkpt lat="39.250795" lon="16.95744"><ele>252.0</ele><time>2026-03-28T14:30:09.391Z</time></trkpt><trkpt lat="39.2508683" lon="16.9572867"><ele>255.0</ele><time>2026-03-28T14:30:10.391Z</time></trkpt><trkpt lat="39.2509683" lon="16.9571467"><ele>258.0</ele><time>2026-03-28T14:30:11.391Z</time></trkpt><trkpt lat="39.2510983" lon="16.9570233"><ele>261.0</ele><time>2026-03-28T14:30:12.391Z</time></trkpt><trkpt lat="39.251265" lon="16.95692"><ele>261.0</ele><time>2026-03-28T14:30:13.391Z</time></trkpt><trkpt lat="39.251405" lon="16.9567983"><ele>261.0</ele><time>2026-03-28T14:30:14.391Z</time></trkpt><trkpt lat="39.251525" lon="16.9566867"><ele>261.0</ele><time>2026-03-28T14:30:15.391Z</time></trkpt><trkpt lat="39.2516317" lon="16.95659"><ele>261.0</ele><time>2026-03-28T14:30:16.391Z</time></trkpt><trkpt lat="39.2517283" lon="16.9565133"><ele>262.40000000000003</ele><time>2026-03-28T14:30:17.391Z</time></trkpt><trkpt lat="39.25182" lon="16.9564267"><ele>263.8</ele><time>2026-03-28T14:30:18.391Z</time></trkpt><trkpt lat="39.2519083" lon="16.9563433"><ele>265.20000000000005</ele><time>2026-03-28T14:30:19.391Z</time></trkpt><trkpt lat="39.25198" lon="16.9562767"><ele>266.6</ele><time>2026-03-28T14:30:20.391Z</time></trkpt><trkpt lat="39.2520767" lon="16.9561917"><ele>268.0</ele><time>2026-03-28T14:30:22.391Z</time></trkpt><trkpt lat="39.2521267" lon="16.95614"><ele>268.0</ele><time>2026-03-28T14:30:23.391Z</time></trkpt><trkpt lat="39.2521767" lon="16.9560767"><ele>268.0</ele><time>2026-03-28T14:30:24.392Z</time></trkpt><trkpt lat="39.252225" lon="16.9560117"><ele>268.0</ele><time>2026-03-28T14:30:25.392Z</time></trkpt><trkpt lat="39.252265" lon="16.9559417"><ele>268.0</ele><time>2026-03-28T14:30:26.391Z</time></trkpt><trkpt lat="39.2522967" lon="16.9558617"><ele>268.0</ele><time>2026-03-28T14:30:27.391Z</time></trkpt><trkpt lat="39.2523083" lon="16.9557717"><ele>268.0</ele><time>2026-03-28T14:30:28.391Z</time></trkpt><trkpt lat="39.2523167" lon="16.9556717"><ele>268.0</ele><time>2026-03-28T14:30:29.391Z</time></trkpt><trkpt lat="39.2523133" lon="16.955565"><ele>267.3333333333333</ele><time>2026-03-28T14:30:30.392Z</time></trkpt><trkpt lat="39.2522967" lon="16.955455"><ele>266.66666666666663</ele><time>2026-03-28T14:30:31.391Z</time></trkpt><trkpt lat="39.2522633" lon="16.9553533"><ele>266.0</ele><time>2026-03-28T14:30:32.391Z</time></trkpt><trkpt lat="39.25222" lon="16.9552533"><ele>265.3333333333333</ele><time>2026-03-28T14:30:33.391Z</time></trkpt><trkpt lat="39.2521667" lon="16.9551683"><ele>264.6666666666667</ele><time>2026-03-28T14:30:34.392Z</time></trkpt><trkpt lat="39.2521067" lon="16.95509"><ele>264.0</ele><time>2026-03-28T14:30:35.391Z</time></trkpt><trkpt lat="39.2520467" lon="16.9550283"><ele>266.8333333333333</ele><time>2026-03-28T14:30:36.391Z</time></trkpt><trkpt lat="39.251985" lon="16.9549733"><ele>269.6666666666667</ele><time>2026-03-28T14:30:37.391Z</time></trkpt><trkpt lat="39.251925" lon="16.9549083"><ele>272.5</ele><time>2026-03-28T14:30:38.392Z</time></trkpt><trkpt lat="39.25187" lon="16.9548667"><ele>275.33333333333337</ele><time>2026-03-28T14:30:39.391Z</time></trkpt><trkpt lat="39.251815" lon="16.9548133"><ele>278.1666666666667</ele><time>2026-03-28T14:30:40.391Z</time></trkpt><trkpt lat="39.2517367" lon="16.95473"><ele>281.0</ele><time>2026-03-28T14:30:42.391Z</time></trkpt><trkpt lat="39.2516767" lon="16.954635"><ele>281.0</ele><time>2026-03-28T14:30:44.392Z</time></trkpt><trkpt lat="39.25165" lon="16.9545367"><ele>281.0</ele><time>2026-03-28T14:30:46.391Z</time></trkpt><trkpt lat="39.2516317" lon="16.9544467"><ele>281.0</ele><time>2026-03-28T14:30:48.391Z</time></trkpt><trkpt lat="39.2515633" lon="16.9543733"><ele>281.0</ele><time>2026-03-28T14:30:50.391Z</time></trkpt><trkpt lat="39.25148" lon="16.9543683"><ele>281.0</ele><time>2026-03-28T14:30:52.391Z</time></trkpt><trkpt lat="39.25142" lon="16.9544633"><ele>281.0</ele><time>2026-03-28T14:30:54.391Z</time></trkpt><trkpt lat="39.2514017" lon="16.9545467"><ele>282.33333333333337</ele><time>2026-03-28T14:30:55.391Z</time></trkpt><trkpt lat="39.251385" lon="16.9546383"><ele>283.6666666666667</ele><time>2026-03-28T14:30:56.391Z</time></trkpt><trkpt lat="39.2513733" lon="16.954735"><ele>285.0</ele><time>2026-03-28T14:30:57.392Z</time></trkpt><trkpt lat="39.2513717" lon="16.9548317"><ele>286.3333333333333</ele><time>2026-03-28T14:30:58.391Z</time></trkpt><trkpt lat="39.2513617" lon="16.9549367"><ele>287.66666666666663</ele><time>2026-03-28T14:30:59.391Z</time></trkpt><trkpt lat="39.2513433" lon="16.9550383"><ele>289.0</ele><time>2026-03-28T14:31:00.391Z</time></trkpt><trkpt lat="39.2513317" lon="16.95514"><ele>289.0</ele><time>2026-03-28T14:31:01.391Z</time></trkpt><trkpt lat="39.2513267" lon="16.9552467"><ele>289.0</ele><time>2026-03-28T14:31:02.392Z</time></trkpt><trkpt lat="39.25132" lon="16.955355"><ele>289.0</ele><time>2026-03-28T14:31:03.391Z</time></trkpt><trkpt lat="39.251305" lon="16.9554583"><ele>289.0</ele><time>2026-03-28T14:31:04.391Z</time></trkpt><trkpt lat="39.2512883" lon="16.9555533"><ele>289.0</ele><time>2026-03-28T14:31:05.391Z</time></trkpt><trkpt lat="39.25125" lon="16.9556383"><ele>289.0</ele><time>2026-03-28T14:31:06.391Z</time></trkpt><trkpt lat="39.2512" lon="16.95572"><ele>289.0</ele><time>2026-03-28T14:31:07.391Z</time></trkpt><trkpt lat="39.25112" lon="16.9557917"><ele>289.0</ele><time>2026-03-28T14:31:08.391Z</time></trkpt><trkpt lat="39.251035" lon="16.9558417"><ele>289.0</ele><time>2026-03-28T14:31:09.392Z</time></trkpt><trkpt lat="39.2509517" lon="16.95587"><ele>289.0</ele><time>2026-03-28T14:31:10.391Z</time></trkpt><trkpt lat="39.2508783" lon="16.95588"><ele>289.0</ele><time>2026-03-28T14:31:11.391Z</time></trkpt><trkpt lat="39.2507917" lon="16.9558533"><ele>289.0</ele><time>2026-03-28T14:31:12.391Z</time></trkpt><trkpt lat="39.250705" lon="16.9558267"><ele>290.4</ele><time>2026-03-28T14:31:13.391Z</time></trkpt><trkpt lat="39.2506233" lon="16.95579"><ele>291.79999999999995</ele><time>2026-03-28T14:31:14.392Z</time></trkpt><trkpt lat="39.25055" lon="16.9557383"><ele>293.20000000000005</ele><time>2026-03-28T14:31:15.391Z</time></trkpt><trkpt lat="39.2504783" lon="16.9556883"><ele>294.6</ele><time>2026-03-28T14:31:16.391Z</time></trkpt><trkpt lat="39.2503983" lon="16.9556133"><ele>296.0</ele><time>2026-03-28T14:31:17.392Z</time></trkpt><trkpt lat="39.2503117" lon="16.9555233"><ele>296.0</ele><time>2026-03-28T14:31:18.391Z</time></trkpt><trkpt lat="39.2502117" lon="16.9554283"><ele>296.0</ele><time>2026-03-28T14:31:19.391Z</time></trkpt><trkpt lat="39.2501117" lon="16.955335"><ele>296.0</ele><time>2026-03-28T14:31:20.391Z</time></trkpt><trkpt lat="39.24998" lon="16.9552533"><ele>296.0</ele><time>2026-03-28T14:31:21.391Z</time></trkpt><trkpt lat="39.2498417" lon="16.9551883"><ele>297.6</ele><time>2026-03-28T14:31:22.391Z</time></trkpt><trkpt lat="39.249725" lon="16.955155"><ele>299.20000000000005</ele><time>2026-03-28T14:31:23.391Z</time></trkpt><trkpt lat="39.2496117" lon="16.9551517"><ele>300.79999999999995</ele><time>2026-03-28T14:31:24.391Z</time></trkpt><trkpt lat="39.2495167" lon="16.9551267"><ele>302.4</ele><time>2026-03-28T14:31:25.392Z</time></trkpt><trkpt lat="39.249435" lon="16.9550983"><ele>304.0</ele><time>2026-03-28T14:31:26.391Z</time></trkpt><trkpt lat="39.2493533" lon="16.955105"><ele>304.0</ele><time>2026-03-28T14:31:27.391Z</time></trkpt><trkpt lat="39.2492767" lon="16.95511"><ele>304.0</ele><time>2026-03-28T14:31:28.391Z</time></trkpt><trkpt lat="39.2492117" lon="16.95514"><ele>304.0</ele><time>2026-03-28T14:31:29.391Z</time></trkpt><trkpt lat="39.24911" lon="16.95524"><ele>304.0</ele><time>2026-03-28T14:31:31.391Z</time></trkpt><trkpt lat="39.2490617" lon="16.9553183"><ele>304.0</ele><time>2026-03-28T14:31:32.391Z</time></trkpt><trkpt lat="39.2490233" lon="16.9553867"><ele>304.0</ele><time>2026-03-28T14:31:33.391Z</time></trkpt><trkpt lat="39.2489833" lon="16.95547"><ele>304.3333333333333</ele><time>2026-03-28T14:31:34.391Z</time></trkpt><trkpt lat="39.2489533" lon="16.9555533"><ele>304.66666666666663</ele><time>2026-03-28T14:31:35.391Z</time></trkpt><trkpt lat="39.248925" lon="16.955635"><ele>305.0</ele><time>2026-03-28T14:31:36.391Z</time></trkpt><trkpt lat="39.2488967" lon="16.9557333"><ele>305.3333333333333</ele><time>2026-03-28T14:31:37.391Z</time></trkpt><trkpt lat="39.248855" lon="16.9558267"><ele>305.6666666666667</ele><time>2026-03-28T14:31:38.391Z</time></trkpt><trkpt lat="39.24881" lon="16.955915"><ele>306.0</ele><time>2026-03-28T14:31:39.391Z</time></trkpt><trkpt lat="39.2487483" lon="16.9559983"><ele>304.0</ele><time>2026-03-28T14:31:40.391Z</time></trkpt><trkpt lat="39.2486883" lon="16.9560733"><ele>302.0</ele><time>2026-03-28T14:31:41.391Z</time></trkpt><trkpt lat="39.2486317" lon="16.9561417"><ele>300.0</ele><time>2026-03-28T14:31:42.392Z</time></trkpt><trkpt lat="39.2485717" lon="16.956205"><ele>298.0</ele><time>2026-03-28T14:31:43.392Z</time></trkpt><trkpt lat="39.248515" lon="16.95626"><ele>296.0</ele><time>2026-03-28T14:31:44.392Z</time></trkpt><trkpt lat="39.24844" lon="16.9563767"><ele>294.0</ele><time>2026-03-28T14:31:46.391Z</time></trkpt><trkpt lat="39.2484383" lon="16.9565333"><ele>294.0</ele><time>2026-03-28T14:31:48.391Z</time></trkpt><trkpt lat="39.248455" lon="16.9566433"><ele>294.0</ele><time>2026-03-28T14:31:49.391Z</time></trkpt><trkpt lat="39.2484833" lon="16.9567533"><ele>294.0</ele><time>2026-03-28T14:31:50.391Z</time></trkpt><trkpt lat="39.24851" lon="16.9568567"><ele>294.0</ele><time>2026-03-28T14:31:51.391Z</time></trkpt><trkpt lat="39.24854" lon="16.9569683"><ele>294.0</ele><time>2026-03-28T14:31:52.391Z</time></trkpt><trkpt lat="39.2485717" lon="16.9570583"><ele>294.0</ele><time>2026-03-28T14:31:53.391Z</time></trkpt><trkpt lat="39.248605" lon="16.9571417"><ele>293.2</ele><time>2026-03-28T14:31:55.391Z</time></trkpt><trkpt lat="39.2486417" lon="16.9572567"><ele>292.4</ele><time>2026-03-28T14:31:58.391Z</time></trkpt><trkpt lat="39.24865" lon="16.9573383"><ele>291.6</ele><time>2026-03-28T14:32:00.391Z</time></trkpt><trkpt lat="39.248675" lon="16.957445"><ele>290.8</ele><time>2026-03-28T14:32:03.392Z</time></trkpt><trkpt lat="39.2487517" lon="16.9573767"><ele>290.0</ele><time>2026-03-28T14:32:06.392Z</time></trkpt><trkpt lat="39.2487417" lon="16.9572117"><ele>290.0</ele><time>2026-03-28T14:32:08.391Z</time></trkpt><trkpt lat="39.248735" lon="16.9571183"><ele>290.0</ele><time>2026-03-28T14:32:10.392Z</time></trkpt><trkpt lat="39.2487083" lon="16.9570067"><ele>290.0</ele><time>2026-03-28T14:32:24.391Z</time></trkpt><trkpt lat="39.248795" lon="16.9569717"><ele>290.0</ele><time>2026-03-28T14:34:39.392Z</time></trkpt><trkpt lat="39.2487983" lon="16.9568683"><ele>290.0</ele><time>2026-03-28T14:54:02.392Z</time></trkpt><trkpt lat="39.24887" lon="16.956795"><ele>290.0</ele><time>2026-03-28T14:54:05.392Z</time></trkpt><trkpt lat="39.2489417" lon="16.9567767"><ele>289.6666666666667</ele><time>2026-03-28T14:54:07.392Z</time></trkpt><trkpt lat="39.2490283" lon="16.9567533"><ele>289.33333333333337</ele><time>2026-03-28T14:54:09.392Z</time></trkpt><trkpt lat="39.2491233" lon="16.95667"><ele>289.0</ele><time>2026-03-28T14:54:11.392Z</time></trkpt><trkpt lat="39.24919" lon="16.95663"><ele>288.6666666666667</ele><time>2026-03-28T14:54:12.392Z</time></trkpt><trkpt lat="39.2492533" lon="16.956605"><ele>288.3333333333333</ele><time>2026-03-28T14:54:13.392Z</time></trkpt><trkpt lat="39.24933" lon="16.9566083"><ele>288.0</ele><time>2026-03-28T14:54:14.392Z</time></trkpt><trkpt lat="39.2494067" lon="16.9566417"><ele>286.2</ele><time>2026-03-28T14:54:15.392Z</time></trkpt><trkpt lat="39.24949" lon="16.956715"><ele>284.4</ele><time>2026-03-28T14:54:16.392Z</time></trkpt><trkpt lat="39.2495683" lon="16.9567817"><ele>282.59999999999997</ele><time>2026-03-28T14:54:17.392Z</time></trkpt><trkpt lat="39.2496567" lon="16.9568167"><ele>280.8</ele><time>2026-03-28T14:54:18.393Z</time></trkpt><trkpt lat="39.249745" lon="16.9568633"><ele>279.0</ele><time>2026-03-28T14:54:19.392Z</time></trkpt><trkpt lat="39.249825" lon="16.9568983"><ele>277.8</ele><time>2026-03-28T14:54:20.393Z</time></trkpt><trkpt lat="39.2498967" lon="16.9569167"><ele>276.59999999999997</ele><time>2026-03-28T14:54:21.392Z</time></trkpt><trkpt lat="39.25003" lon="16.9569667"><ele>275.4</ele><time>2026-03-28T14:54:23.392Z</time></trkpt><trkpt lat="39.25009" lon="16.9570033"><ele>274.2</ele><time>2026-03-28T14:54:24.392Z</time></trkpt><trkpt lat="39.2501583" lon="16.9570767"><ele>273.0</ele><time>2026-03-28T14:54:26.392Z</time></trkpt><trkpt lat="39.2501133" lon="16.9571917"><ele>273.0</ele><time>2026-03-28T14:54:28.392Z</time></trkpt><trkpt lat="39.250065" lon="16.9572767"><ele>273.0</ele><time>2026-03-28T14:54:29.392Z</time></trkpt><trkpt lat="39.2499933" lon="16.9573667"><ele>273.0</ele><time>2026-03-28T14:54:30.392Z</time></trkpt><trkpt lat="39.24992" lon="16.95745"><ele>273.0</ele><time>2026-03-28T14:54:31.392Z</time></trkpt><trkpt lat="39.24984" lon="16.9575283"><ele>273.0</ele><time>2026-03-28T14:54:32.392Z</time></trkpt><trkpt lat="39.249755" lon="16.9575667"><ele>273.5</ele><time>2026-03-28T14:54:33.393Z</time></trkpt><trkpt lat="39.2496833" lon="16.9575767"><ele>274.0</ele><time>2026-03-28T14:54:34.392Z</time></trkpt><trkpt lat="39.24961" lon="16.95756"><ele>274.5</ele><time>2026-03-28T14:54:35.392Z</time></trkpt><trkpt lat="39.2495367" lon="16.9575417"><ele>275.0</ele><time>2026-03-28T14:54:36.392Z</time></trkpt><trkpt lat="39.2494683" lon="16.9575167"><ele>275.5</ele><time>2026-03-28T14:54:37.392Z</time></trkpt><trkpt lat="39.2493983" lon="16.9575"><ele>276.0</ele><time>2026-03-28T14:54:38.392Z</time></trkpt><trkpt lat="39.2493017" lon="16.95755"><ele>276.0</ele><time>2026-03-28T14:54:40.392Z</time></trkpt><trkpt lat="39.2492767" lon="16.95768"><ele>276.0</ele><time>2026-03-28T14:54:42.392Z</time></trkpt><trkpt lat="39.2492833" lon="16.9577617"><ele>276.0</ele><time>2026-03-28T14:54:43.393Z</time></trkpt><trkpt lat="39.2493067" lon="16.9578433"><ele>276.0</ele><time>2026-03-28T14:54:44.392Z</time></trkpt><trkpt lat="39.2493217" lon="16.9579717"><ele>276.0</ele><time>2026-03-28T14:54:46.393Z</time></trkpt><trkpt lat="39.249325" lon="16.958065"><ele>276.0</ele><time>2026-03-28T14:54:48.392Z</time></trkpt><trkpt lat="39.24932" lon="16.9581517"><ele>276.0</ele><time>2026-03-28T14:54:50.392Z</time></trkpt><trkpt lat="39.2493317" lon="16.958235"><ele>276.0</ele><time>2026-03-28T14:54:52.392Z</time></trkpt><trkpt lat="39.24935" lon="16.958315"><ele>276.0</ele><time>2026-03-28T14:54:54.392Z</time></trkpt><trkpt lat="39.249385" lon="16.958385"><ele>276.0</ele><time>2026-03-28T14:54:56.393Z</time></trkpt><trkpt lat="39.249495" lon="16.9584217"><ele>276.0</ele><time>2026-03-28T14:54:59.392Z</time></trkpt><trkpt lat="39.249565" lon="16.9584417"><ele>276.0</ele><time>2026-03-28T14:55:00.392Z</time></trkpt><trkpt lat="39.249665" lon="16.9584967"><ele>273.8</ele><time>2026-03-28T14:55:02.392Z</time></trkpt><trkpt lat="39.2497633" lon="16.95856"><ele>271.6</ele><time>2026-03-28T14:55:04.392Z</time></trkpt><trkpt lat="39.2498683" lon="16.9585717"><ele>269.4</ele><time>2026-03-28T14:55:06.392Z</time></trkpt><trkpt lat="39.2499833" lon="16.958555"><ele>267.2</ele><time>2026-03-28T14:55:08.392Z</time></trkpt><trkpt lat="39.2500367" lon="16.958505"><ele>265.0</ele><time>2026-03-28T14:55:09.392Z</time></trkpt><trkpt lat="39.2501" lon="16.958445"><ele>264.4</ele><time>2026-03-28T14:55:10.392Z</time></trkpt><trkpt lat="39.25016" lon="16.958385"><ele>263.8</ele><time>2026-03-28T14:55:11.393Z</time></trkpt><trkpt lat="39.2502117" lon="16.9582917"><ele>263.2</ele><time>2026-03-28T14:55:12.392Z</time></trkpt><trkpt lat="39.2502767" lon="16.9582"><ele>262.6</ele><time>2026-03-28T14:55:13.392Z</time></trkpt><trkpt lat="39.2503267" lon="16.9580983"><ele>262.0</ele><time>2026-03-28T14:55:14.393Z</time></trkpt><trkpt lat="39.250385" lon="16.957985"><ele>262.0</ele><time>2026-03-28T14:55:15.392Z</time></trkpt><trkpt lat="39.25044" lon="16.9578667"><ele>262.0</ele><time>2026-03-28T14:55:16.392Z</time></trkpt><trkpt lat="39.2504883" lon="16.9577617"><ele>262.0</ele><time>2026-03-28T14:55:17.392Z</time></trkpt><trkpt lat="39.2505267" lon="16.9576683"><ele>262.0</ele><time>2026-03-28T14:55:18.392Z</time></trkpt><trkpt lat="39.250555" lon="16.95758"><ele>262.0</ele><time>2026-03-28T14:55:19.392Z</time></trkpt><trkpt lat="39.2505917" lon="16.957455"><ele>261.75</ele><time>2026-03-28T14:55:21.392Z</time></trkpt><trkpt lat="39.2506267" lon="16.9573133"><ele>261.5</ele><time>2026-03-28T14:55:23.392Z</time></trkpt><trkpt lat="39.2506517" lon="16.9572317"><ele>261.25</ele><time>2026-03-28T14:55:24.392Z</time></trkpt><trkpt lat="39.2507183" lon="16.9571"><ele>261.0</ele><time>2026-03-28T14:55:26.392Z</time></trkpt><trkpt lat="39.25088" lon="16.9570433"><ele>261.0</ele><time>2026-03-28T14:55:28.392Z</time></trkpt><trkpt lat="39.250995" lon="16.9569983"><ele>261.0</ele><time>2026-03-28T14:55:29.392Z</time></trkpt><trkpt lat="39.251115" lon="16.95694"><ele>261.0</ele><time>2026-03-28T14:55:30.392Z</time></trkpt><trkpt lat="39.25123" lon="16.9568817"><ele>261.0</ele><time>2026-03-28T14:55:31.392Z</time></trkpt><trkpt lat="39.25134" lon="16.956825"><ele>261.0</ele><time>2026-03-28T14:55:32.393Z</time></trkpt><trkpt lat="39.25143" lon="16.9567667"><ele>261.0</ele><time>2026-03-28T14:55:33.392Z</time></trkpt><trkpt lat="39.2515167" lon="16.9566833"><ele>261.0</ele><time>2026-03-28T14:55:34.393Z</time></trkpt><trkpt lat="39.2516083" lon="16.9565867"><ele>261.0</ele><time>2026-03-28T14:55:35.393Z</time></trkpt><trkpt lat="39.251705" lon="16.9564983"><ele>261.0</ele><time>2026-03-28T14:55:36.392Z</time></trkpt><trkpt lat="39.2518067" lon="16.9564183"><ele>262.40000000000003</ele><time>2026-03-28T14:55:37.392Z</time></trkpt><trkpt lat="39.2519017" lon="16.956335"><ele>263.8</ele><time>2026-03-28T14:55:38.393Z</time></trkpt><trkpt lat="39.2519917" lon="16.9562567"><ele>265.20000000000005</ele><time>2026-03-28T14:55:39.392Z</time></trkpt><trkpt lat="39.2520683" lon="16.9561883"><ele>266.6</ele><time>2026-03-28T14:55:40.392Z</time></trkpt><trkpt lat="39.252125" lon="16.95613"><ele>268.0</ele><time>2026-03-28T14:55:41.392Z</time></trkpt><trkpt lat="39.252175" lon="16.9560733"><ele>268.0</ele><time>2026-03-28T14:55:42.392Z</time></trkpt><trkpt lat="39.2522283" lon="16.955975"><ele>268.0</ele><time>2026-03-28T14:55:44.392Z</time></trkpt><trkpt lat="39.2522683" lon="16.9558917"><ele>268.0</ele><time>2026-03-28T14:55:47.392Z</time></trkpt><trkpt lat="39.252315" lon="16.9558317"><ele>268.0</ele><time>2026-03-28T14:55:49.392Z</time></trkpt><trkpt lat="39.2523767" lon="16.9557033"><ele>268.0</ele><time>2026-03-28T14:55:51.392Z</time></trkpt><trkpt lat="39.25239" lon="16.9556133"><ele>268.0</ele><time>2026-03-28T14:55:52.392Z</time></trkpt><trkpt lat="39.2523983" lon="16.9555283"><ele>267.3333333333333</ele><time>2026-03-28T14:55:53.393Z</time></trkpt><trkpt lat="39.2524" lon="16.9554017"><ele>266.66666666666663</ele><time>2026-03-28T14:55:55.392Z</time></trkpt><trkpt lat="39.2523983" lon="16.9552833"><ele>266.0</ele><time>2026-03-28T14:55:57.392Z</time></trkpt><trkpt lat="39.252405" lon="16.9551817"><ele>265.3333333333333</ele><time>2026-03-28T14:55:59.392Z</time></trkpt><trkpt lat="39.2524083" lon="16.9550867"><ele>264.6666666666667</ele><time>2026-03-28T14:56:01.392Z</time></trkpt><trkpt lat="39.2523983" lon="16.95499"><ele>264.0</ele><time>2026-03-28T14:56:03.392Z</time></trkpt><trkpt lat="39.2523767" lon="16.95487"><ele>263.8</ele><time>2026-03-28T14:56:05.392Z</time></trkpt><trkpt lat="39.2523483" lon="16.95472"><ele>263.59999999999997</ele><time>2026-03-28T14:56:07.392Z</time></trkpt><trkpt lat="39.2523533" lon="16.9545617"><ele>263.4</ele><time>2026-03-28T14:56:09.392Z</time></trkpt><trkpt lat="39.252415" lon="16.9544117"><ele>263.2</ele><time>2026-03-28T14:56:11.393Z</time></trkpt><trkpt lat="39.252475" lon="16.954355"><ele>263.0</ele><time>2026-03-28T14:56:12.392Z</time></trkpt><trkpt lat="39.2525383" lon="16.9542983"><ele>263.0</ele><time>2026-03-28T14:56:13.392Z</time></trkpt><trkpt lat="39.2526017" lon="16.9542083"><ele>263.0</ele><time>2026-03-28T14:56:14.392Z</time></trkpt><trkpt lat="39.2526433" lon="16.9541083"><ele>263.0</ele><time>2026-03-28T14:56:15.393Z</time></trkpt><trkpt lat="39.2526683" lon="16.953995"><ele>263.0</ele><time>2026-03-28T14:56:16.392Z</time></trkpt><trkpt lat="39.2526783" lon="16.9538717"><ele>263.0</ele><time>2026-03-28T14:56:17.392Z</time></trkpt><trkpt lat="39.252675" lon="16.9537433"><ele>261.8</ele><time>2026-03-28T14:56:18.392Z</time></trkpt><trkpt lat="39.2526583" lon="16.9536083"><ele>260.6</ele><time>2026-03-28T14:56:19.392Z</time></trkpt><trkpt lat="39.2526417" lon="16.9534667"><ele>259.4</ele><time>2026-03-28T14:56:20.392Z</time></trkpt><trkpt lat="39.2526283" lon="16.9533467"><ele>258.2</ele><time>2026-03-28T14:56:21.392Z</time></trkpt><trkpt lat="39.2526333" lon="16.95323"><ele>257.0</ele><time>2026-03-28T14:56:22.393Z</time></trkpt><trkpt lat="39.2526583" lon="16.953115"><ele>256.0</ele><time>2026-03-28T14:56:23.392Z</time></trkpt><trkpt lat="39.25269" lon="16.9530083"><ele>255.0</ele><time>2026-03-28T14:56:24.392Z</time></trkpt><trkpt lat="39.2527083" lon="16.9529017"><ele>254.0</ele><time>2026-03-28T14:56:25.392Z</time></trkpt><trkpt lat="39.2527217" lon="16.952785"><ele>253.0</ele><time>2026-03-28T14:56:26.393Z</time></trkpt><trkpt lat="39.25273" lon="16.9526733"><ele>252.00000000000003</ele><time>2026-03-28T14:56:27.392Z</time></trkpt><trkpt lat="39.2527433" lon="16.952565"><ele>251.0</ele><time>2026-03-28T14:56:28.392Z</time></trkpt><trkpt lat="39.2527567" lon="16.9524583"><ele>249.50000000000003</ele><time>2026-03-28T14:56:29.392Z</time></trkpt><trkpt lat="39.252765" lon="16.9523583"><ele>248.0</ele><time>2026-03-28T14:56:30.392Z</time></trkpt><trkpt lat="39.2527667" lon="16.9522617"><ele>246.5</ele><time>2026-03-28T14:56:31.393Z</time></trkpt><trkpt lat="39.252755" lon="16.9521183"><ele>245.0</ele><time>2026-03-28T14:56:33.392Z</time></trkpt><trkpt lat="39.2527833" lon="16.9520367"><ele>243.50000000000003</ele><time>2026-03-28T14:56:35.393Z</time></trkpt><trkpt lat="39.2528617" lon="16.952025"><ele>242.0</ele><time>2026-03-28T14:56:37.392Z</time></trkpt><trkpt lat="39.2529267" lon="16.9520367"><ele>242.0</ele><time>2026-03-28T14:56:38.392Z</time></trkpt><trkpt lat="39.2530033" lon="16.9520417"><ele>242.0</ele><time>2026-03-28T14:56:39.392Z</time></trkpt><trkpt lat="39.2530917" lon="16.9520383"><ele>242.0</ele><time>2026-03-28T14:56:40.392Z</time></trkpt><trkpt lat="39.2531933" lon="16.9520333"><ele>242.0</ele><time>2026-03-28T14:56:41.393Z</time></trkpt><trkpt lat="39.253295" lon="16.95202"><ele>242.0</ele><time>2026-03-28T14:56:42.393Z</time></trkpt><trkpt lat="39.2533833" lon="16.9519767"><ele>239.2</ele><time>2026-03-28T14:56:43.392Z</time></trkpt><trkpt lat="39.2534417" lon="16.9519133"><ele>236.39999999999998</ele><time>2026-03-28T14:56:44.392Z</time></trkpt><trkpt lat="39.2534917" lon="16.951835"><ele>233.60000000000002</ele><time>2026-03-28T14:56:45.393Z</time></trkpt><trkpt lat="39.2535267" lon="16.951725"><ele>230.8</ele><time>2026-03-28T14:56:46.392Z</time></trkpt><trkpt lat="39.25356" lon="16.9515867"><ele>228.0</ele><time>2026-03-28T14:56:47.392Z</time></trkpt><trkpt lat="39.25361" lon="16.95147"><ele>228.0</ele><time>2026-03-28T14:56:48.392Z</time></trkpt><trkpt lat="39.25367" lon="16.9513917"><ele>228.0</ele><time>2026-03-28T14:56:49.392Z</time></trkpt><trkpt lat="39.2537467" lon="16.951345"><ele>228.0</ele><time>2026-03-28T14:56:50.392Z</time></trkpt><trkpt lat="39.2538383" lon="16.9513367"><ele>228.0</ele><time>2026-03-28T14:56:51.392Z</time></trkpt><trkpt lat="39.2539433" lon="16.9513383"><ele>228.0</ele><time>2026-03-28T14:56:52.392Z</time></trkpt><trkpt lat="39.2540483" lon="16.95134"><ele>226.16666666666666</ele><time>2026-03-28T14:56:53.392Z</time></trkpt><trkpt lat="39.25415" lon="16.9513517"><ele>224.33333333333331</ele><time>2026-03-28T14:56:54.392Z</time></trkpt><trkpt lat="39.2542383" lon="16.9513933"><ele>222.5</ele><time>2026-03-28T14:56:55.392Z</time></trkpt><trkpt lat="39.254315" lon="16.951445"><ele>220.66666666666666</ele><time>2026-03-28T14:56:56.393Z</time></trkpt><trkpt lat="39.2543767" lon="16.9515183"><ele>218.83333333333331</ele><time>2026-03-28T14:56:57.392Z</time></trkpt><trkpt lat="39.25444" lon="16.951575"><ele>217.0</ele><time>2026-03-28T14:56:58.392Z</time></trkpt><trkpt lat="39.2545517" lon="16.9515967"><ele>216.99999999999997</ele><time>2026-03-28T14:57:00.392Z</time></trkpt><trkpt lat="39.25465" lon="16.9515683"><ele>217.0</ele><time>2026-03-28T14:57:02.392Z</time></trkpt><trkpt lat="39.2547467" lon="16.9515817"><ele>217.0</ele><time>2026-03-28T14:57:04.393Z</time></trkpt><trkpt lat="39.254795" lon="16.95165"><ele>217.0</ele><time>2026-03-28T14:57:06.392Z</time></trkpt><trkpt lat="39.2547883" lon="16.95175"><ele>216.99999999999997</ele><time>2026-03-28T14:57:08.392Z</time></trkpt><trkpt lat="39.2547617" lon="16.9518683"><ele>217.0</ele><time>2026-03-28T14:57:10.392Z</time></trkpt><trkpt lat="39.2547533" lon="16.95202"><ele>215.8</ele><time>2026-03-28T14:57:12.392Z</time></trkpt><trkpt lat="39.25481" lon="16.952165"><ele>214.6</ele><time>2026-03-28T14:57:14.392Z</time></trkpt><trkpt lat="39.2548683" lon="16.952225"><ele>213.4</ele><time>2026-03-28T14:57:15.392Z</time></trkpt><trkpt lat="39.25495" lon="16.9523"><ele>212.20000000000002</ele><time>2026-03-28T14:57:16.392Z</time></trkpt><trkpt lat="39.2550233" lon="16.9523717"><ele>211.0</ele><time>2026-03-28T14:57:17.392Z</time></trkpt><trkpt lat="39.2550833" lon="16.95244"><ele>210.99999999999997</ele><time>2026-03-28T14:57:18.392Z</time></trkpt><trkpt lat="39.2551283" lon="16.9524983"><ele>211.0</ele><time>2026-03-28T14:57:19.392Z</time></trkpt><trkpt lat="39.2551983" lon="16.95255"><ele>211.0</ele><time>2026-03-28T14:57:21.392Z</time></trkpt><trkpt lat="39.2552617" lon="16.9525833"><ele>211.0</ele><time>2026-03-28T14:57:23.393Z</time></trkpt><trkpt lat="39.25534" lon="16.9526233"><ele>210.99999999999997</ele><time>2026-03-28T14:57:25.392Z</time></trkpt><trkpt lat="39.2554283" lon="16.952665"><ele>211.0</ele><time>2026-03-28T14:57:27.392Z</time></trkpt><trkpt lat="39.255515" lon="16.95268"><ele>209.99999999999997</ele><time>2026-03-28T14:57:29.392Z</time></trkpt><trkpt lat="39.2556117" lon="16.9526817"><ele>209.0</ele><time>2026-03-28T14:57:31.392Z</time></trkpt><trkpt lat="39.255675" lon="16.9526917"><ele>208.0</ele><time>2026-03-28T14:57:32.393Z</time></trkpt><trkpt lat="39.2557467" lon="16.952705"><ele>207.0</ele><time>2026-03-28T14:57:33.392Z</time></trkpt><trkpt lat="39.2558267" lon="16.952705"><ele>205.99999999999997</ele><time>2026-03-28T14:57:34.392Z</time></trkpt><trkpt lat="39.25591" lon="16.952705"><ele>205.0</ele><time>2026-03-28T14:57:35.393Z</time></trkpt><trkpt lat="39.2559933" lon="16.9527"><ele>204.99999999999997</ele><time>2026-03-28T14:57:36.392Z</time></trkpt><trkpt lat="39.256075" lon="16.9526917"><ele>205.0</ele><time>2026-03-28T14:57:37.392Z</time></trkpt><trkpt lat="39.2561583" lon="16.9526633"><ele>205.0</ele><time>2026-03-28T14:57:38.392Z</time></trkpt><trkpt lat="39.2562283" lon="16.9526217"><ele>205.0</ele><time>2026-03-28T14:57:39.392Z</time></trkpt><trkpt lat="39.2563033" lon="16.9525717"><ele>204.99999999999997</ele><time>2026-03-28T14:57:40.392Z</time></trkpt><trkpt lat="39.25637" lon="16.9525233"><ele>205.0</ele><time>2026-03-28T14:57:41.392Z</time></trkpt><trkpt lat="39.2564483" lon="16.9524733"><ele>203.99999999999997</ele><time>2026-03-28T14:57:42.393Z</time></trkpt><trkpt lat="39.25653" lon="16.9524167"><ele>203.0</ele><time>2026-03-28T14:57:43.392Z</time></trkpt><trkpt lat="39.256605" lon="16.9523517"><ele>202.0</ele><time>2026-03-28T14:57:44.392Z</time></trkpt><trkpt lat="39.2566817" lon="16.9522967"><ele>201.0</ele><time>2026-03-28T14:57:45.392Z</time></trkpt><trkpt lat="39.256755" lon="16.9522417"><ele>199.99999999999997</ele><time>2026-03-28T14:57:46.392Z</time></trkpt><trkpt lat="39.25682" lon="16.9522"><ele>199.0</ele><time>2026-03-28T14:57:47.392Z</time></trkpt><trkpt lat="39.25689" lon="16.9521683"><ele>198.99999999999997</ele><time>2026-03-28T14:57:49.392Z</time></trkpt><trkpt lat="39.256965" lon="16.95222"><ele>199.0</ele><time>2026-03-28T14:57:53.392Z</time></trkpt><trkpt lat="39.2570033" lon="16.9523083"><ele>199.0</ele><time>2026-03-28T14:57:55.393Z</time></trkpt><trkpt lat="39.2570467" lon="16.9524467"><ele>199.0</ele><time>2026-03-28T14:57:57.392Z</time></trkpt><trkpt lat="39.2570717" lon="16.9525383"><ele>198.99999999999997</ele><time>2026-03-28T14:57:58.393Z</time></trkpt><trkpt lat="39.2570917" lon="16.952635"><ele>199.0</ele><time>2026-03-28T14:57:59.392Z</time></trkpt><trkpt lat="39.25711" lon="16.9527383"><ele>198.99999999999997</ele><time>2026-03-28T14:58:00.392Z</time></trkpt><trkpt lat="39.2571133" lon="16.9528383"><ele>199.0</ele><time>2026-03-28T14:58:01.392Z</time></trkpt><trkpt lat="39.2571117" lon="16.9529383"><ele>199.0</ele><time>2026-03-28T14:58:02.392Z</time></trkpt><trkpt lat="39.2571033" lon="16.9530367"><ele>199.0</ele><time>2026-03-28T14:58:03.392Z</time></trkpt><trkpt lat="39.2570933" lon="16.9531383"><ele>198.99999999999997</ele><time>2026-03-28T14:58:04.392Z</time></trkpt><trkpt lat="39.25708" lon="16.9532367"><ele>199.0</ele><time>2026-03-28T14:58:05.392Z</time></trkpt><trkpt lat="39.2570633" lon="16.9533167"><ele>197.25</ele><time>2026-03-28T14:58:06.393Z</time></trkpt><trkpt lat="39.257045" lon="16.9534567"><ele>195.5</ele><time>2026-03-28T14:58:08.392Z</time></trkpt><trkpt lat="39.25703" lon="16.9535867"><ele>193.75</ele><time>2026-03-28T14:58:10.393Z</time></trkpt><trkpt lat="39.2570617" lon="16.953735"><ele>192.0</ele><time>2026-03-28T14:58:12.393Z</time></trkpt><trkpt lat="39.2571533" lon="16.95384"><ele>192.0</ele><time>2026-03-28T14:58:14.392Z</time></trkpt><trkpt lat="39.2572183" lon="16.9538917"><ele>192.0</ele><time>2026-03-28T14:58:15.393Z</time></trkpt><trkpt lat="39.2572917" lon="16.95394"><ele>192.0</ele><time>2026-03-28T14:58:16.392Z</time></trkpt><trkpt lat="39.2573667" lon="16.953995"><ele>192.0</ele><time>2026-03-28T14:58:17.393Z</time></trkpt><trkpt lat="39.2574367" lon="16.954065"><ele>192.0</ele><time>2026-03-28T14:58:18.392Z</time></trkpt><trkpt lat="39.2575083" lon="16.9541267"><ele>192.0</ele><time>2026-03-28T14:58:19.392Z</time></trkpt><trkpt lat="39.2575817" lon="16.9541767"><ele>189.66666666666666</ele><time>2026-03-28T14:58:20.392Z</time></trkpt><trkpt lat="39.25765" lon="16.9542117"><ele>187.33333333333334</ele><time>2026-03-28T14:58:21.392Z</time></trkpt><trkpt lat="39.2577183" lon="16.95424"><ele>185.0</ele><time>2026-03-28T14:58:22.392Z</time></trkpt><trkpt lat="39.2577883" lon="16.9542617"><ele>182.66666666666669</ele><time>2026-03-28T14:58:23.392Z</time></trkpt><trkpt lat="39.2578517" lon="16.9542733"><ele>180.33333333333334</ele><time>2026-03-28T14:58:24.392Z</time></trkpt><trkpt lat="39.257965" lon="16.95432"><ele>178.0</ele><time>2026-03-28T14:58:26.392Z</time></trkpt><trkpt lat="39.258085" lon="16.954365"><ele>176.66666666666669</ele><time>2026-03-28T14:58:28.392Z</time></trkpt><trkpt lat="39.25815" lon="16.9543967"><ele>175.33333333333334</ele><time>2026-03-28T14:58:29.392Z</time></trkpt><trkpt lat="39.258215" lon="16.954435"><ele>174.0</ele><time>2026-03-28T14:58:30.392Z</time></trkpt><trkpt lat="39.25827" lon="16.9544817"><ele>172.66666666666666</ele><time>2026-03-28T14:58:31.392Z</time></trkpt><trkpt lat="39.258335" lon="16.954545"><ele>171.33333333333331</ele><time>2026-03-28T14:58:32.392Z</time></trkpt><trkpt lat="39.2584033" lon="16.9545967"><ele>170.0</ele><time>2026-03-28T14:58:33.392Z</time></trkpt><trkpt lat="39.2584783" lon="16.9546433"><ele>170.0</ele><time>2026-03-28T14:58:34.392Z</time></trkpt><trkpt lat="39.2585583" lon="16.954695"><ele>170.0</ele><time>2026-03-28T14:58:35.392Z</time></trkpt><trkpt lat="39.2586467" lon="16.9547533"><ele>170.0</ele><time>2026-03-28T14:58:36.392Z</time></trkpt><trkpt lat="39.2587383" lon="16.95482"><ele>170.0</ele><time>2026-03-28T14:58:37.392Z</time></trkpt><trkpt lat="39.2588317" lon="16.9548833"><ele>170.0</ele><time>2026-03-28T14:58:38.392Z</time></trkpt><trkpt lat="39.2589283" lon="16.9549417"><ele>168.2</ele><time>2026-03-28T14:58:39.392Z</time></trkpt><trkpt lat="39.259025" lon="16.954995"><ele>166.4</ele><time>2026-03-28T14:58:40.392Z</time></trkpt><trkpt lat="39.259115" lon="16.9550317"><ele>164.60000000000002</ele><time>2026-03-28T14:58:41.392Z</time></trkpt><trkpt lat="39.2592033" lon="16.9550717"><ele>162.8</ele><time>2026-03-28T14:58:42.392Z</time></trkpt><trkpt lat="39.2592883" lon="16.955105"><ele>161.0</ele><time>2026-03-28T14:58:43.392Z</time></trkpt><trkpt lat="39.2593633" lon="16.9551417"><ele>161.0</ele><time>2026-03-28T14:58:44.392Z</time></trkpt><trkpt lat="39.2594417" lon="16.955175"><ele>161.0</ele><time>2026-03-28T14:58:45.392Z</time></trkpt><trkpt lat="39.25953" lon="16.9551933"><ele>161.0</ele><time>2026-03-28T14:58:46.392Z</time></trkpt><trkpt lat="39.2596133" lon="16.9551767"><ele>161.0</ele><time>2026-03-28T14:58:47.393Z</time></trkpt><trkpt lat="39.2596983" lon="16.9551467"><ele>161.0</ele><time>2026-03-28T14:58:48.392Z</time></trkpt><trkpt lat="39.2597867" lon="16.9550883"><ele>161.0</ele><time>2026-03-28T14:58:49.392Z</time></trkpt><trkpt lat="39.2598767" lon="16.955035"><ele>159.83333333333331</ele><time>2026-03-28T14:58:50.392Z</time></trkpt><trkpt lat="39.2599533" lon="16.9549983"><ele>158.66666666666666</ele><time>2026-03-28T14:58:51.392Z</time></trkpt><trkpt lat="39.26003" lon="16.95499"><ele>157.5</ele><time>2026-03-28T14:58:52.392Z</time></trkpt><trkpt lat="39.2601033" lon="16.9550167"><ele>156.33333333333334</ele><time>2026-03-28T14:58:53.393Z</time></trkpt><trkpt lat="39.2602117" lon="16.9551083"><ele>155.16666666666669</ele><time>2026-03-28T14:58:55.392Z</time></trkpt><trkpt lat="39.2602733" lon="16.9551617"><ele>154.0</ele><time>2026-03-28T14:58:56.392Z</time></trkpt><trkpt lat="39.2603417" lon="16.9552183"><ele>153.6</ele><time>2026-03-28T14:58:57.392Z</time></trkpt><trkpt lat="39.260425" lon="16.9552767"><ele>153.2</ele><time>2026-03-28T14:58:58.393Z</time></trkpt><trkpt lat="39.260515" lon="16.9553417"><ele>152.79999999999998</ele><time>2026-03-28T14:58:59.392Z</time></trkpt><trkpt lat="39.2606017" lon="16.95541"><ele>152.4</ele><time>2026-03-28T14:59:00.392Z</time></trkpt><trkpt lat="39.2606983" lon="16.9554783"><ele>152.0</ele><time>2026-03-28T14:59:01.393Z</time></trkpt><trkpt lat="39.2607883" lon="16.9555383"><ele>150.2</ele><time>2026-03-28T14:59:02.392Z</time></trkpt><trkpt lat="39.2608683" lon="16.9555967"><ele>148.39999999999998</ele><time>2026-03-28T14:59:03.393Z</time></trkpt><trkpt lat="39.2609517" lon="16.9556617"><ele>146.60000000000002</ele><time>2026-03-28T14:59:04.392Z</time></trkpt><trkpt lat="39.2610283" lon="16.9557333"><ele>144.8</ele><time>2026-03-28T14:59:05.392Z</time></trkpt><trkpt lat="39.2611017" lon="16.9558183"><ele>143.0</ele><time>2026-03-28T14:59:06.392Z</time></trkpt><trkpt lat="39.2611783" lon="16.9558983"><ele>142.83333333333331</ele><time>2026-03-28T14:59:07.393Z</time></trkpt><trkpt lat="39.26125" lon="16.9559833"><ele>142.66666666666666</ele><time>2026-03-28T14:59:08.392Z</time></trkpt><trkpt lat="39.2613067" lon="16.9560667"><ele>142.5</ele><time>2026-03-28T14:59:09.392Z</time></trkpt><trkpt lat="39.2613667" lon="16.9561483"><ele>142.33333333333334</ele><time>2026-03-28T14:59:10.392Z</time></trkpt><trkpt lat="39.2614133" lon="16.956225"><ele>142.16666666666669</ele><time>2026-03-28T14:59:11.392Z</time></trkpt><trkpt lat="39.261445" lon="16.9563033"><ele>142.0</ele><time>2026-03-28T14:59:12.392Z</time></trkpt><trkpt lat="39.2614717" lon="16.9563833"><ele>140.66666666666669</ele><time>2026-03-28T14:59:13.393Z</time></trkpt><trkpt lat="39.2614883" lon="16.95647"><ele>139.33333333333334</ele><time>2026-03-28T14:59:14.392Z</time></trkpt><trkpt lat="39.2615017" lon="16.9565517"><ele>138.0</ele><time>2026-03-28T14:59:15.392Z</time></trkpt><trkpt lat="39.2615383" lon="16.9566883"><ele>136.66666666666666</ele><time>2026-03-28T14:59:17.392Z</time></trkpt><trkpt lat="39.2616333" lon="16.9567283"><ele>135.33333333333331</ele><time>2026-03-28T14:59:19.392Z</time></trkpt><trkpt lat="39.2617183" lon="16.9567267"><ele>134.0</ele><time>2026-03-28T14:59:20.393Z</time></trkpt><trkpt lat="39.2618167" lon="16.9567067"><ele>133.0</ele><time>2026-03-28T14:59:21.392Z</time></trkpt><trkpt lat="39.2619283" lon="16.9567033"><ele>132.0</ele><time>2026-03-28T14:59:22.392Z</time></trkpt><trkpt lat="39.2620283" lon="16.9567083"><ele>131.0</ele><time>2026-03-28T14:59:23.392Z</time></trkpt><trkpt lat="39.2621233" lon="16.95672"><ele>130.0</ele><time>2026-03-28T14:59:24.393Z</time></trkpt><trkpt lat="39.262215" lon="16.956755"><ele>129.0</ele><time>2026-03-28T14:59:25.392Z</time></trkpt><trkpt lat="39.26229" lon="16.9568033"><ele>128.0</ele><time>2026-03-28T14:59:26.392Z</time></trkpt><trkpt lat="39.262355" lon="16.9568833"><ele>127.0</ele><time>2026-03-28T14:59:27.392Z</time></trkpt><trkpt lat="39.2623933" lon="16.956985"><ele>126.0</ele><time>2026-03-28T14:59:28.392Z</time></trkpt><trkpt lat="39.2624167" lon="16.9570967"><ele>125.0</ele><time>2026-03-28T14:59:29.392Z</time></trkpt><trkpt lat="39.2624417" lon="16.9571867"><ele>124.0</ele><time>2026-03-28T14:59:30.392Z</time></trkpt><trkpt lat="39.2625067" lon="16.9572833"><ele>123.0</ele><time>2026-03-28T14:59:32.392Z</time></trkpt><trkpt lat="39.2626133" lon="16.9573517"><ele>123.0</ele><time>2026-03-28T14:59:34.392Z</time></trkpt><trkpt lat="39.2626733" lon="16.9573917"><ele>123.0</ele><time>2026-03-28T14:59:35.392Z</time></trkpt><trkpt lat="39.2627367" lon="16.9574367"><ele>123.0</ele><time>2026-03-28T14:59:36.392Z</time></trkpt><trkpt lat="39.262795" lon="16.9574717"><ele>123.0</ele><time>2026-03-28T14:59:37.392Z</time></trkpt><trkpt lat="39.2628967" lon="16.9575433"><ele>123.0</ele><time>2026-03-28T14:59:39.392Z</time></trkpt><trkpt lat="39.2629917" lon="16.9576283"><ele>123.0</ele><time>2026-03-28T14:59:41.392Z</time></trkpt><trkpt lat="39.263045" lon="16.957685"><ele>122.4</ele><time>2026-03-28T14:59:42.392Z</time></trkpt><trkpt lat="39.2631067" lon="16.95774"><ele>121.80000000000001</ele><time>2026-03-28T14:59:43.392Z</time></trkpt><trkpt lat="39.2631683" lon="16.9577783"><ele>121.2</ele><time>2026-03-28T14:59:44.393Z</time></trkpt><trkpt lat="39.26329" lon="16.9578383"><ele>120.6</ele><time>2026-03-28T14:59:46.392Z</time></trkpt><trkpt lat="39.2634117" lon="16.9578767"><ele>120.0</ele><time>2026-03-28T14:59:48.392Z</time></trkpt><trkpt lat="39.2634783" lon="16.957905"><ele>119.5</ele><time>2026-03-28T14:59:49.392Z</time></trkpt><trkpt lat="39.26354" lon="16.9579417"><ele>119.0</ele><time>2026-03-28T14:59:50.392Z</time></trkpt><trkpt lat="39.263605" lon="16.957985"><ele>118.5</ele><time>2026-03-28T14:59:51.392Z</time></trkpt><trkpt lat="39.26367" lon="16.9580283"><ele>118.0</ele><time>2026-03-28T14:59:52.392Z</time></trkpt><trkpt lat="39.2637417" lon="16.9580767"><ele>117.5</ele><time>2026-03-28T14:59:53.392Z</time></trkpt><trkpt lat="39.2638183" lon="16.9581267"><ele>117.0</ele><time>2026-03-28T14:59:54.393Z</time></trkpt><trkpt lat="39.263885" lon="16.9581783"><ele>116.5</ele><time>2026-03-28T14:59:55.393Z</time></trkpt><trkpt lat="39.263955" lon="16.9582267"><ele>116.0</ele><time>2026-03-28T14:59:56.392Z</time></trkpt><trkpt lat="39.2640333" lon="16.958275"><ele>115.5</ele><time>2026-03-28T14:59:57.392Z</time></trkpt><trkpt lat="39.2641117" lon="16.9583267"><ele>115.0</ele><time>2026-03-28T14:59:58.392Z</time></trkpt><trkpt lat="39.2641883" lon="16.95837"><ele>114.5</ele><time>2026-03-28T14:59:59.392Z</time></trkpt><trkpt lat="39.2642717" lon="16.9584167"><ele>114.0</ele><time>2026-03-28T15:00:00.393Z</time></trkpt><trkpt lat="39.26436" lon="16.9584633"><ele>114.0</ele><time>2026-03-28T15:00:01.392Z</time></trkpt><trkpt lat="39.26445" lon="16.9585117"><ele>114.0</ele><time>2026-03-28T15:00:02.392Z</time></trkpt><trkpt lat="39.2645467" lon="16.9585533"><ele>114.0</ele><time>2026-03-28T15:00:03.392Z</time></trkpt><trkpt lat="39.2646417" lon="16.9585967"><ele>114.0</ele><time>2026-03-28T15:00:04.392Z</time></trkpt><trkpt lat="39.26472" lon="16.9586367"><ele>114.0</ele><time>2026-03-28T15:00:05.393Z</time></trkpt><trkpt lat="39.2648067" lon="16.9586783"><ele>113.16666666666667</ele><time>2026-03-28T15:00:07.393Z</time></trkpt><trkpt lat="39.2648683" lon="16.9587017"><ele>112.33333333333334</ele><time>2026-03-28T15:00:10.392Z</time></trkpt><trkpt lat="39.2649517" lon="16.9587417"><ele>111.5</ele><time>2026-03-28T15:00:13.392Z</time></trkpt><trkpt lat="39.265035" lon="16.95879"><ele>110.66666666666667</ele><time>2026-03-28T15:00:15.393Z</time></trkpt><trkpt lat="39.2651083" lon="16.9588233"><ele>109.83333333333334</ele><time>2026-03-28T15:00:17.392Z</time></trkpt><trkpt lat="39.26518" lon="16.958855"><ele>109.0</ele><time>2026-03-28T15:00:21.392Z</time></trkpt><trkpt lat="39.265245" lon="16.9588683"><ele>109.00000000000001</ele><time>2026-03-28T15:00:24.392Z</time></trkpt><trkpt lat="39.26532" lon="16.9588967"><ele>109.0</ele><time>2026-03-28T15:00:31.392Z</time></trkpt><trkpt lat="39.26539" lon="16.9589483"><ele>109.0</ele><time>2026-03-28T15:00:35.392Z</time></trkpt><trkpt lat="39.2654583" lon="16.9590233"><ele>109.0</ele><time>2026-03-28T15:00:38.393Z</time></trkpt><trkpt lat="39.26551" lon="16.9590867"><ele>109.00000000000001</ele><time>2026-03-28T15:00:40.392Z</time></trkpt><trkpt lat="39.2655717" lon="16.9591467"><ele>109.0</ele><time>2026-03-28T15:00:42.392Z</time></trkpt><trkpt lat="39.2656483" lon="16.959165"><ele>109.6</ele><time>2026-03-28T15:00:44.393Z</time></trkpt><trkpt lat="39.265755" lon="16.95921"><ele>110.2</ele><time>2026-03-28T15:00:46.392Z</time></trkpt><trkpt lat="39.2658133" lon="16.9592467"><ele>110.79999999999998</ele><time>2026-03-28T15:00:47.392Z</time></trkpt><trkpt lat="39.2659033" lon="16.9593167"><ele>111.39999999999999</ele><time>2026-03-28T15:00:49.392Z</time></trkpt><trkpt lat="39.2659733" lon="16.9593783"><ele>112.0</ele><time>2026-03-28T15:00:51.392Z</time></trkpt><trkpt lat="39.2660467" lon="16.9594433"><ele>112.0</ele><time>2026-03-28T15:00:53.392Z</time></trkpt><trkpt lat="39.26612" lon="16.95951"><ele>111.99999999999999</ele><time>2026-03-28T15:00:55.392Z</time></trkpt><trkpt lat="39.266205" lon="16.9595633"><ele>111.99999999999999</ele><time>2026-03-28T15:00:57.392Z</time></trkpt><trkpt lat="39.2662933" lon="16.9596317"><ele>112.0</ele><time>2026-03-28T15:00:59.393Z</time></trkpt><trkpt lat="39.2663567" lon="16.9596917"><ele>112.0</ele><time>2026-03-28T15:01:01.393Z</time></trkpt><trkpt lat="39.2664433" lon="16.95976"><ele>112.33333333333334</ele><time>2026-03-28T15:01:03.392Z</time></trkpt><trkpt lat="39.2665367" lon="16.9598667"><ele>112.66666666666667</ele><time>2026-03-28T15:01:05.392Z</time></trkpt><trkpt lat="39.2665833" lon="16.959935"><ele>113.0</ele><time>2026-03-28T15:01:06.392Z</time></trkpt><trkpt lat="39.26664" lon="16.9599867"><ele>113.33333333333334</ele><time>2026-03-28T15:01:07.392Z</time></trkpt><trkpt lat="39.2666967" lon="16.9600267"><ele>113.66666666666667</ele><time>2026-03-28T15:01:08.392Z</time></trkpt><trkpt lat="39.26681" lon="16.96007"><ele>114.0</ele><time>2026-03-28T15:01:10.393Z</time></trkpt><trkpt lat="39.2669267" lon="16.9601267"><ele>115.4</ele><time>2026-03-28T15:01:12.392Z</time></trkpt><trkpt lat="39.2670583" lon="16.9602217"><ele>116.80000000000001</ele><time>2026-03-28T15:01:14.392Z</time></trkpt><trkpt lat="39.26714" lon="16.9603"><ele>118.19999999999999</ele><time>2026-03-28T15:01:15.392Z</time></trkpt><trkpt lat="39.2672033" lon="16.960365"><ele>119.6</ele><time>2026-03-28T15:01:16.392Z</time></trkpt><trkpt lat="39.2672567" lon="16.9604133"><ele>121.0</ele><time>2026-03-28T15:01:17.392Z</time></trkpt><trkpt lat="39.2673433" lon="16.96047"><ele>121.4</ele><time>2026-03-28T15:01:19.393Z</time></trkpt><trkpt lat="39.2674367" lon="16.96054"><ele>121.8</ele><time>2026-03-28T15:01:21.393Z</time></trkpt><trkpt lat="39.26752" lon="16.9605917"><ele>122.20000000000002</ele><time>2026-03-28T15:01:23.392Z</time></trkpt><trkpt lat="39.267595" lon="16.9606517"><ele>122.60000000000001</ele><time>2026-03-28T15:01:25.392Z</time></trkpt><trkpt lat="39.2676717" lon="16.9607367"><ele>123.0</ele><time>2026-03-28T15:01:27.392Z</time></trkpt><trkpt lat="39.2677817" lon="16.9608233"><ele>123.0</ele><time>2026-03-28T15:01:29.392Z</time></trkpt><trkpt lat="39.2678483" lon="16.9608583"><ele>123.0</ele><time>2026-03-28T15:01:30.392Z</time></trkpt><trkpt lat="39.2679117" lon="16.960895"><ele>123.0</ele><time>2026-03-28T15:01:31.392Z</time></trkpt><trkpt lat="39.2679767" lon="16.9609417"><ele>123.0</ele><time>2026-03-28T15:01:32.392Z</time></trkpt><trkpt lat="39.2680367" lon="16.96101"><ele>123.0</ele><time>2026-03-28T15:01:33.392Z</time></trkpt><trkpt lat="39.268085" lon="16.9610883"><ele>123.0</ele><time>2026-03-28T15:01:34.392Z</time></trkpt><trkpt lat="39.268125" lon="16.9611733"><ele>126.33333333333333</ele><time>2026-03-28T15:01:35.392Z</time></trkpt><trkpt lat="39.268155" lon="16.9612483"><ele>129.66666666666666</ele><time>2026-03-28T15:01:36.393Z</time></trkpt><trkpt lat="39.2682017" lon="16.961355"><ele>133.0</ele><time>2026-03-28T15:01:38.392Z</time></trkpt><trkpt lat="39.26824" lon="16.9614483"><ele>136.33333333333331</ele><time>2026-03-28T15:01:40.392Z</time></trkpt><trkpt lat="39.2682917" lon="16.9615517"><ele>139.66666666666666</ele><time>2026-03-28T15:01:42.392Z</time></trkpt><trkpt lat="39.268355" lon="16.961665"><ele>143.0</ele><time>2026-03-28T15:01:44.393Z</time></trkpt><trkpt lat="39.26845" lon="16.9617617"><ele>143.28571428571428</ele><time>2026-03-28T15:01:46.393Z</time></trkpt><trkpt lat="39.26851" lon="16.96181"><ele>143.57142857142856</ele><time>2026-03-28T15:01:47.392Z</time></trkpt><trkpt lat="39.2685717" lon="16.9618667"><ele>143.85714285714286</ele><time>2026-03-28T15:01:48.392Z</time></trkpt><trkpt lat="39.2686367" lon="16.96193"><ele>144.14285714285714</ele><time>2026-03-28T15:01:49.392Z</time></trkpt><trkpt lat="39.2687" lon="16.961975"><ele>144.42857142857144</ele><time>2026-03-28T15:01:50.392Z</time></trkpt><trkpt lat="39.26876" lon="16.9620083"><ele>144.71428571428572</ele><time>2026-03-28T15:01:51.392Z</time></trkpt><trkpt lat="39.2688183" lon="16.9620533"><ele>145.0</ele><time>2026-03-28T15:01:52.392Z</time></trkpt><trkpt lat="39.2688767" lon="16.9620967"><ele>145.0</ele><time>2026-03-28T15:01:53.392Z</time></trkpt><trkpt lat="39.268935" lon="16.96213"><ele>145.0</ele><time>2026-03-28T15:01:54.392Z</time></trkpt><trkpt lat="39.2690367" lon="16.9621733"><ele>145.0</ele><time>2026-03-28T15:01:56.392Z</time></trkpt><trkpt lat="39.2691383" lon="16.9622233"><ele>145.0</ele><time>2026-03-28T15:01:58.393Z</time></trkpt><trkpt lat="39.2692433" lon="16.9622883"><ele>145.0</ele><time>2026-03-28T15:02:00.392Z</time></trkpt><trkpt lat="39.269325" lon="16.9623583"><ele>146.66666666666669</ele><time>2026-03-28T15:02:02.392Z</time></trkpt><trkpt lat="39.2693983" lon="16.9623517"><ele>148.33333333333334</ele><time>2026-03-28T15:02:04.392Z</time></trkpt><trkpt lat="39.2694667" lon="16.9622533"><ele>150.0</ele><time>2026-03-28T15:02:06.392Z</time></trkpt><trkpt lat="39.2695383" lon="16.9621133"><ele>151.66666666666666</ele><time>2026-03-28T15:02:08.392Z</time></trkpt><trkpt lat="39.2695783" lon="16.9620383"><ele>153.33333333333331</ele><time>2026-03-28T15:02:09.392Z</time></trkpt><trkpt lat="39.2696317" lon="16.961985"><ele>155.0</ele><time>2026-03-28T15:02:10.392Z</time></trkpt><trkpt lat="39.269695" lon="16.9619567"><ele>158.0</ele><time>2026-03-28T15:02:11.392Z</time></trkpt><trkpt lat="39.269795" lon="16.96194"><ele>161.0</ele><time>2026-03-28T15:02:13.393Z</time></trkpt><trkpt lat="39.269875" lon="16.9619717"><ele>164.0</ele><time>2026-03-28T15:02:15.392Z</time></trkpt><trkpt lat="39.2699367" lon="16.9620483"><ele>167.0</ele><time>2026-03-28T15:02:17.392Z</time></trkpt><trkpt lat="39.2699717" lon="16.9621783"><ele>170.0</ele><time>2026-03-28T15:02:19.392Z</time></trkpt><trkpt lat="39.2700117" lon="16.9622767"><ele>170.0</ele><time>2026-03-28T15:02:21.392Z</time></trkpt><trkpt lat="39.2700883" lon="16.9623383"><ele>170.0</ele><time>2026-03-28T15:02:23.393Z</time></trkpt><trkpt lat="39.270185" lon="16.9623833"><ele>170.0</ele><time>2026-03-28T15:02:25.392Z</time></trkpt><trkpt lat="39.27027" lon="16.9624167"><ele>170.0</ele><time>2026-03-28T15:02:27.392Z</time></trkpt><trkpt lat="39.2703183" lon="16.9624767"><ele>170.0</ele><time>2026-03-28T15:02:29.393Z</time></trkpt><trkpt lat="39.2703667" lon="16.9625567"><ele>170.0</ele><time>2026-03-28T15:02:31.392Z</time></trkpt><trkpt lat="39.2704017" lon="16.9626517"><ele>170.2</ele><time>2026-03-28T15:02:33.392Z</time></trkpt><trkpt lat="39.27044" lon="16.9627633"><ele>170.4</ele><time>2026-03-28T15:02:35.392Z</time></trkpt><trkpt lat="39.2704083" lon="16.96287"><ele>170.60000000000002</ele><time>2026-03-28T15:02:37.392Z</time></trkpt><trkpt lat="39.2703967" lon="16.9629867"><ele>170.8</ele><time>2026-03-28T15:02:39.393Z</time></trkpt><trkpt lat="39.2704633" lon="16.9630817"><ele>171.0</ele><time>2026-03-28T15:02:41.393Z</time></trkpt><trkpt lat="39.2705117" lon="16.9631617"><ele>170.99999999999997</ele><time>2026-03-28T15:02:44.392Z</time></trkpt><trkpt lat="39.27055" lon="16.9632383"><ele>171.0</ele><time>2026-03-28T15:03:26.392Z</time></trkpt><trkpt lat="39.27059" lon="16.963305"><ele>171.0</ele><time>2026-03-28T15:03:28.393Z</time></trkpt><trkpt lat="39.2706267" lon="16.9633833"><ele>171.0</ele><time>2026-03-28T15:03:31.392Z</time></trkpt><trkpt lat="39.270665" lon="16.9634533"><ele>171.0</ele><time>2026-03-28T15:03:34.392Z</time></trkpt><trkpt lat="39.2707167" lon="16.9635417"><ele>170.99999999999997</ele><time>2026-03-28T15:03:37.393Z</time></trkpt><trkpt lat="39.27076" lon="16.96363"><ele>171.0</ele><time>2026-03-28T15:03:40.392Z</time></trkpt><trkpt lat="39.2708" lon="16.9637217"><ele>174.7142857142857</ele><time>2026-03-28T15:03:43.393Z</time></trkpt><trkpt lat="39.2707933" lon="16.963805"><ele>178.42857142857142</ele><time>2026-03-28T15:03:45.392Z</time></trkpt><trkpt lat="39.2707717" lon="16.9638917"><ele>182.14285714285714</ele><time>2026-03-28T15:03:48.392Z</time></trkpt><trkpt lat="39.27079" lon="16.9639717"><ele>185.85714285714283</ele><time>2026-03-28T15:03:54.392Z</time></trkpt><trkpt lat="39.2708" lon="16.9640833"><ele>189.57142857142858</ele><time>2026-03-28T15:03:59.392Z</time></trkpt><trkpt lat="39.270755" lon="16.9641533"><ele>193.28571428571428</ele><time>2026-03-28T15:04:25.394Z</time></trkpt><trkpt lat="39.27077" lon="16.9642617"><ele>197.0</ele><time>2026-03-28T15:04:28.393Z</time></trkpt><trkpt lat="39.2708067" lon="16.964365"><ele>197.0</ele><time>2026-03-28T15:05:02.394Z</time></trkpt><trkpt lat="39.2708683" lon="16.9644833"><ele>197.0</ele><time>2026-03-28T15:05:04.393Z</time></trkpt><trkpt lat="39.2709167" lon="16.9645483"><ele>197.0</ele><time>2026-03-28T15:05:05.393Z</time></trkpt><trkpt lat="39.2709667" lon="16.9646117"><ele>197.0</ele><time>2026-03-28T15:05:06.393Z</time></trkpt><trkpt lat="39.2710117" lon="16.9646783"><ele>197.0</ele><time>2026-03-28T15:05:07.393Z</time></trkpt><trkpt lat="39.2710533" lon="16.9647417"><ele>197.0</ele><time>2026-03-28T15:05:08.393Z</time></trkpt><trkpt lat="39.2710867" lon="16.964815"><ele>197.0</ele><time>2026-03-28T15:05:09.393Z</time></trkpt><trkpt lat="39.2711167" lon="16.9648883"><ele>197.00000000000003</ele><time>2026-03-28T15:05:10.393Z</time></trkpt><trkpt lat="39.2711467" lon="16.9650217"><ele>197.0</ele><time>2026-03-28T15:05:12.393Z</time></trkpt><trkpt lat="39.2711633" lon="16.965125"><ele>197.0</ele><time>2026-03-28T15:05:14.393Z</time></trkpt><trkpt lat="39.2711917" lon="16.965205"><ele>197.0</ele><time>2026-03-28T15:05:16.394Z</time></trkpt><trkpt lat="39.27124" lon="16.9652683"><ele>197.00000000000003</ele><time>2026-03-28T15:05:27.393Z</time></trkpt><trkpt lat="39.2712917" lon="16.96533"><ele>197.0</ele><time>2026-03-28T15:05:29.394Z</time></trkpt><trkpt lat="39.2713483" lon="16.96538"><ele>197.28571428571428</ele><time>2026-03-28T15:05:31.393Z</time></trkpt><trkpt lat="39.2713917" lon="16.9654633"><ele>197.57142857142858</ele><time>2026-03-28T15:05:34.393Z</time></trkpt><trkpt lat="39.2714217" lon="16.9655717"><ele>197.85714285714283</ele><time>2026-03-28T15:05:38.393Z</time></trkpt><trkpt lat="39.2714467" lon="16.9656517"><ele>198.14285714285714</ele><time>2026-03-28T15:05:40.394Z</time></trkpt><trkpt lat="39.271465" lon="16.96574"><ele>198.42857142857142</ele><time>2026-03-28T15:05:42.393Z</time></trkpt><trkpt lat="39.271465" lon="16.9658283"><ele>198.7142857142857</ele><time>2026-03-28T15:05:44.393Z</time></trkpt><trkpt lat="39.271465" lon="16.9659183"><ele>199.0</ele><time>2026-03-28T15:05:46.394Z</time></trkpt><trkpt lat="39.27155" lon="16.9659267"><ele>204.2</ele><time>2026-03-28T15:05:56.393Z</time></trkpt><trkpt lat="39.2716183" lon="16.965815"><ele>209.39999999999998</ele><time>2026-03-28T15:05:58.393Z</time></trkpt><trkpt lat="39.2716733" lon="16.965695"><ele>214.6</ele><time>2026-03-28T15:06:00.394Z</time></trkpt><trkpt lat="39.2717617" lon="16.9656367"><ele>219.8</ele><time>2026-03-28T15:06:02.393Z</time></trkpt><trkpt lat="39.2718433" lon="16.965545"><ele>225.0</ele><time>2026-03-28T15:06:04.393Z</time></trkpt><trkpt lat="39.2719267" lon="16.965465"><ele>225.0</ele><time>2026-03-28T15:06:06.394Z</time></trkpt><trkpt lat="39.2720117" lon="16.9653983"><ele>225.0</ele><time>2026-03-28T15:06:08.393Z</time></trkpt><trkpt lat="39.2721167" lon="16.96535"><ele>225.0</ele><time>2026-03-28T15:06:10.394Z</time></trkpt><trkpt lat="39.2722083" lon="16.965245"><ele>225.0</ele><time>2026-03-28T15:06:12.394Z</time></trkpt><trkpt lat="39.2722567" lon="16.9651883"><ele>225.0</ele><time>2026-03-28T15:06:13.393Z</time></trkpt><trkpt lat="39.2723117" lon="16.96513"><ele>228.83333333333334</ele><time>2026-03-28T15:06:14.393Z</time></trkpt><trkpt lat="39.2723633" lon="16.9650667"><ele>232.66666666666669</ele><time>2026-03-28T15:06:15.394Z</time></trkpt><trkpt lat="39.2724117" lon="16.9650017"><ele>236.5</ele><time>2026-03-28T15:06:16.394Z</time></trkpt><trkpt lat="39.27245" lon="16.9649267"><ele>240.33333333333334</ele><time>2026-03-28T15:06:17.393Z</time></trkpt><trkpt lat="39.2724817" lon="16.964855"><ele>244.16666666666669</ele><time>2026-03-28T15:06:18.393Z</time></trkpt><trkpt lat="39.2725083" lon="16.9647317"><ele>248.0</ele><time>2026-03-28T15:06:20.393Z</time></trkpt><trkpt lat="39.27254" lon="16.9646367"><ele>248.0</ele><time>2026-03-28T15:06:22.393Z</time></trkpt><trkpt lat="39.272615" lon="16.964545"><ele>248.0</ele><time>2026-03-28T15:06:24.393Z</time></trkpt><trkpt lat="39.2727083" lon="16.964445"><ele>248.0</ele><time>2026-03-28T15:06:26.393Z</time></trkpt><trkpt lat="39.27279" lon="16.96437"><ele>248.0</ele><time>2026-03-28T15:06:28.393Z</time></trkpt><trkpt lat="39.27289" lon="16.9643633"><ele>248.0</ele><time>2026-03-28T15:06:30.393Z</time></trkpt><trkpt lat="39.2730067" lon="16.9643767"><ele>251.8</ele><time>2026-03-28T15:06:32.394Z</time></trkpt><trkpt lat="39.273125" lon="16.9643583"><ele>255.60000000000002</ele><time>2026-03-28T15:06:34.394Z</time></trkpt><trkpt lat="39.2732417" lon="16.9643117"><ele>259.4</ele><time>2026-03-28T15:06:36.393Z</time></trkpt><trkpt lat="39.2733083" lon="16.9642833"><ele>263.2</ele><time>2026-03-28T15:06:37.393Z</time></trkpt><trkpt lat="39.2733817" lon="16.9642567"><ele>267.0</ele><time>2026-03-28T15:06:38.393Z</time></trkpt><trkpt lat="39.2734483" lon="16.96422"><ele>266.8333333333333</ele><time>2026-03-28T15:06:39.393Z</time></trkpt><trkpt lat="39.2735167" lon="16.9641783"><ele>266.6666666666667</ele><time>2026-03-28T15:06:40.394Z</time></trkpt><trkpt lat="39.2735833" lon="16.9641317"><ele>266.5</ele><time>2026-03-28T15:06:41.393Z</time></trkpt><trkpt lat="39.2736517" lon="16.9640933"><ele>266.33333333333337</ele><time>2026-03-28T15:06:42.394Z</time></trkpt><trkpt lat="39.2737183" lon="16.9640617"><ele>266.1666666666667</ele><time>2026-03-28T15:06:43.393Z</time></trkpt><trkpt lat="39.2737817" lon="16.9640333"><ele>266.0</ele><time>2026-03-28T15:06:44.393Z</time></trkpt><trkpt lat="39.2738617" lon="16.9639517"><ele>266.0</ele><time>2026-03-28T15:06:46.393Z</time></trkpt><trkpt lat="39.27393" lon="16.963885"><ele>266.0</ele><time>2026-03-28T15:06:48.393Z</time></trkpt><trkpt lat="39.2740167" lon="16.9638183"><ele>266.0</ele><time>2026-03-28T15:06:50.393Z</time></trkpt><trkpt lat="39.27411" lon="16.963785"><ele>266.0</ele><time>2026-03-28T15:06:52.393Z</time></trkpt><trkpt lat="39.274195" lon="16.9637833"><ele>266.0</ele><time>2026-03-28T15:06:54.394Z</time></trkpt><trkpt lat="39.2742817" lon="16.9638167"><ele>269.0</ele><time>2026-03-28T15:06:56.393Z</time></trkpt><trkpt lat="39.2743767" lon="16.96388"><ele>272.0</ele><time>2026-03-28T15:06:58.393Z</time></trkpt><trkpt lat="39.274465" lon="16.9639483"><ele>275.0</ele><time>2026-03-28T15:07:00.394Z</time></trkpt><trkpt lat="39.2745283" lon="16.964035"><ele>278.0</ele><time>2026-03-28T15:07:02.393Z</time></trkpt><trkpt lat="39.2745583" lon="16.9641383"><ele>281.0</ele><time>2026-03-28T15:07:04.393Z</time></trkpt><trkpt lat="39.27457" lon="16.9642283"><ele>281.0</ele><time>2026-03-28T15:07:07.393Z</time></trkpt><trkpt lat="39.27458" lon="16.96433"><ele>281.0</ele><time>2026-03-28T15:07:10.393Z</time></trkpt><trkpt lat="39.2745967" lon="16.9644117"><ele>281.0</ele><time>2026-03-28T15:07:12.394Z</time></trkpt><trkpt lat="39.27464" lon="16.964545"><ele>281.0</ele><time>2026-03-28T15:07:20.394Z</time></trkpt><trkpt lat="39.2747133" lon="16.96457"><ele>281.0</ele><time>2026-03-28T15:07:23.393Z</time></trkpt><trkpt lat="39.2747783" lon="16.9645517"><ele>281.0</ele><time>2026-03-28T15:07:25.393Z</time></trkpt><trkpt lat="39.2748667" lon="16.9645433"><ele>282.2</ele><time>2026-03-28T15:07:27.393Z</time></trkpt><trkpt lat="39.2749517" lon="16.9645617"><ele>283.40000000000003</ele><time>2026-03-28T15:07:29.393Z</time></trkpt><trkpt lat="39.2750383" lon="16.9646233"><ele>284.6</ele><time>2026-03-28T15:07:31.393Z</time></trkpt><trkpt lat="39.2751333" lon="16.9646583"><ele>285.8</ele><time>2026-03-28T15:07:33.393Z</time></trkpt><trkpt lat="39.27525" lon="16.9646383"><ele>287.0</ele><time>2026-03-28T15:07:35.394Z</time></trkpt><trkpt lat="39.27538" lon="16.9646517"><ele>287.0</ele><time>2026-03-28T15:07:37.393Z</time></trkpt><trkpt lat="39.2754483" lon="16.964665"><ele>287.0</ele><time>2026-03-28T15:07:38.393Z</time></trkpt><trkpt lat="39.275525" lon="16.9646833"><ele>287.0</ele><time>2026-03-28T15:07:39.393Z</time></trkpt><trkpt lat="39.2755967" lon="16.9647"><ele>287.0</ele><time>2026-03-28T15:07:40.394Z</time></trkpt><trkpt lat="39.2756717" lon="16.9646983"><ele>287.0</ele><time>2026-03-28T15:07:41.393Z</time></trkpt><trkpt lat="39.2757383" lon="16.9646883"><ele>287.0</ele><time>2026-03-28T15:07:42.393Z</time></trkpt><trkpt lat="39.27584" lon="16.96466"><ele>289.8</ele><time>2026-03-28T15:07:44.393Z</time></trkpt><trkpt lat="39.275945" lon="16.96461"><ele>292.6</ele><time>2026-03-28T15:07:46.393Z</time></trkpt><trkpt lat="39.2760383" lon="16.964545"><ele>295.40000000000003</ele><time>2026-03-28T15:07:48.393Z</time></trkpt><trkpt lat="39.2761167" lon="16.9644833"><ele>298.2</ele><time>2026-03-28T15:07:50.393Z</time></trkpt><trkpt lat="39.2761967" lon="16.9644167"><ele>301.0</ele><time>2026-03-28T15:07:52.393Z</time></trkpt><trkpt lat="39.2762667" lon="16.96434"><ele>301.0</ele><time>2026-03-28T15:07:54.393Z</time></trkpt><trkpt lat="39.2763333" lon="16.96424"><ele>301.0</ele><time>2026-03-28T15:07:56.394Z</time></trkpt><trkpt lat="39.2763883" lon="16.9641283"><ele>301.0</ele><time>2026-03-28T15:07:58.393Z</time></trkpt><trkpt lat="39.27642" lon="16.964005"><ele>301.0</ele><time>2026-03-28T15:08:00.393Z</time></trkpt><trkpt lat="39.276435" lon="16.9638583"><ele>301.0</ele><time>2026-03-28T15:08:02.393Z</time></trkpt><trkpt lat="39.276485" lon="16.963725"><ele>304.0</ele><time>2026-03-28T15:08:04.394Z</time></trkpt><trkpt lat="39.2765417" lon="16.963625"><ele>307.0</ele><time>2026-03-28T15:08:06.394Z</time></trkpt><trkpt lat="39.2765883" lon="16.9635467"><ele>310.0</ele><time>2026-03-28T15:08:08.394Z</time></trkpt><trkpt lat="39.2766317" lon="16.9634683"><ele>313.0</ele><time>2026-03-28T15:08:10.393Z</time></trkpt><trkpt lat="39.2766633" lon="16.9633933"><ele>316.0</ele><time>2026-03-28T15:08:12.394Z</time></trkpt><trkpt lat="39.2767033" lon="16.9632917"><ele>319.0</ele><time>2026-03-28T15:08:15.393Z</time></trkpt><trkpt lat="39.2767483" lon="16.9632017"><ele>319.0</ele><time>2026-03-28T15:08:17.394Z</time></trkpt><trkpt lat="39.2768017" lon="16.963115"><ele>319.0</ele><time>2026-03-28T15:08:19.393Z</time></trkpt><trkpt lat="39.2768617" lon="16.9630133"><ele>319.0</ele><time>2026-03-28T15:08:21.393Z</time></trkpt><trkpt lat="39.2769233" lon="16.9629117"><ele>319.0</ele><time>2026-03-28T15:08:23.393Z</time></trkpt><trkpt lat="39.2769783" lon="16.962835"><ele>319.0</ele><time>2026-03-28T15:08:34.393Z</time></trkpt><trkpt lat="39.2770483" lon="16.9627717"><ele>319.0</ele><time>2026-03-28T15:08:36.393Z</time></trkpt><trkpt lat="39.2771" lon="16.9627117"><ele>319.0</ele><time>2026-03-28T15:08:38.394Z</time></trkpt><trkpt lat="39.277155" lon="16.962655"><ele>319.0</ele><time>2026-03-28T15:08:50.393Z</time></trkpt><trkpt lat="39.2772217" lon="16.96258"><ele>319.0</ele><time>2026-03-28T15:08:53.393Z</time></trkpt><trkpt lat="39.277275" lon="16.96253"><ele>319.0</ele><time>2026-03-28T15:08:55.393Z</time></trkpt><trkpt lat="39.277345" lon="16.962465"><ele>319.0</ele><time>2026-03-28T15:08:59.393Z</time></trkpt><trkpt lat="39.2774217" lon="16.962405"><ele>322.3333333333333</ele><time>2026-03-28T15:09:02.393Z</time></trkpt><trkpt lat="39.2774883" lon="16.9623517"><ele>325.66666666666663</ele><time>2026-03-28T15:09:05.393Z</time></trkpt><trkpt lat="39.27755" lon="16.9623033"><ele>329.0</ele><time>2026-03-28T15:09:07.393Z</time></trkpt><trkpt lat="39.2776067" lon="16.9622433"><ele>332.3333333333333</ele><time>2026-03-28T15:09:09.393Z</time></trkpt><trkpt lat="39.2776617" lon="16.96218"><ele>335.6666666666667</ele><time>2026-03-28T15:09:11.393Z</time></trkpt><trkpt lat="39.277725" lon="16.9621183"><ele>339.0</ele><time>2026-03-28T15:09:13.393Z</time></trkpt><trkpt lat="39.2777933" lon="16.9620567"><ele>339.0</ele><time>2026-03-28T15:09:15.393Z</time></trkpt><trkpt lat="39.2778683" lon="16.9620017"><ele>339.0</ele><time>2026-03-28T15:09:17.394Z</time></trkpt><trkpt lat="39.2779333" lon="16.9619567"><ele>339.0</ele><time>2026-03-28T15:09:19.393Z</time></trkpt><trkpt lat="39.2780033" lon="16.96191"><ele>339.0</ele><time>2026-03-28T15:09:21.393Z</time></trkpt><trkpt lat="39.2780733" lon="16.96188"><ele>339.0</ele><time>2026-03-28T15:09:23.393Z</time></trkpt><trkpt lat="39.2781583" lon="16.9618617"><ele>339.0</ele><time>2026-03-28T15:09:25.393Z</time></trkpt><trkpt lat="39.2782517" lon="16.9618567"><ele>341.3333333333333</ele><time>2026-03-28T15:09:27.394Z</time></trkpt><trkpt lat="39.2783467" lon="16.9618417"><ele>343.6666666666667</ele><time>2026-03-28T15:09:29.394Z</time></trkpt><trkpt lat="39.27846" lon="16.961825"><ele>346.0</ele><time>2026-03-28T15:09:31.393Z</time></trkpt><trkpt lat="39.2785533" lon="16.9618117"><ele>348.33333333333337</ele><time>2026-03-28T15:09:33.394Z</time></trkpt><trkpt lat="39.2786283" lon="16.96179"><ele>350.6666666666667</ele><time>2026-03-28T15:09:39.393Z</time></trkpt><trkpt lat="39.2786933" lon="16.961765"><ele>353.0</ele><time>2026-03-28T15:09:40.393Z</time></trkpt><trkpt lat="39.2787567" lon="16.9617283"><ele>352.33333333333337</ele><time>2026-03-28T15:09:41.393Z</time></trkpt><trkpt lat="39.2788233" lon="16.9616783"><ele>351.6666666666667</ele><time>2026-03-28T15:09:42.393Z</time></trkpt><trkpt lat="39.27888" lon="16.961625"><ele>351.0</ele><time>2026-03-28T15:09:43.393Z</time></trkpt><trkpt lat="39.27893" lon="16.9615683"><ele>350.3333333333333</ele><time>2026-03-28T15:09:44.393Z</time></trkpt><trkpt lat="39.2790217" lon="16.961465"><ele>349.66666666666663</ele><time>2026-03-28T15:09:46.394Z</time></trkpt><trkpt lat="39.2790983" lon="16.9613833"><ele>349.0</ele><time>2026-03-28T15:09:48.393Z</time></trkpt><trkpt lat="39.2791717" lon="16.9613183"><ele>350.8333333333333</ele><time>2026-03-28T15:09:50.394Z</time></trkpt><trkpt lat="39.27924" lon="16.9612433"><ele>352.66666666666663</ele><time>2026-03-28T15:09:52.393Z</time></trkpt><trkpt lat="39.2793117" lon="16.9611767"><ele>354.5</ele><time>2026-03-28T15:09:54.393Z</time></trkpt><trkpt lat="39.27938" lon="16.9611133"><ele>356.3333333333333</ele><time>2026-03-28T15:09:56.394Z</time></trkpt><trkpt lat="39.2794317" lon="16.9610533"><ele>358.1666666666667</ele><time>2026-03-28T15:09:58.394Z</time></trkpt><trkpt lat="39.2794667" lon="16.9609383"><ele>360.0</ele><time>2026-03-28T15:10:00.393Z</time></trkpt><trkpt lat="39.2794583" lon="16.96084"><ele>360.0</ele><time>2026-03-28T15:10:02.393Z</time></trkpt><trkpt lat="39.2794383" lon="16.9607583"><ele>360.0</ele><time>2026-03-28T15:10:05.393Z</time></trkpt><trkpt lat="39.2794033" lon="16.9606817"><ele>360.0</ele><time>2026-03-28T15:10:09.393Z</time></trkpt><trkpt lat="39.2793683" lon="16.960595"><ele>360.0</ele><time>2026-03-28T15:10:12.393Z</time></trkpt><trkpt lat="39.27931" lon="16.9605067"><ele>360.0</ele><time>2026-03-28T15:10:15.393Z</time></trkpt><trkpt lat="39.27927" lon="16.960435"><ele>360.0</ele><time>2026-03-28T15:10:17.394Z</time></trkpt><trkpt lat="39.2792167" lon="16.9603417"><ele>360.0</ele><time>2026-03-28T15:10:20.393Z</time></trkpt><trkpt lat="39.2791783" lon="16.9602583"><ele>360.0</ele><time>2026-03-28T15:10:24.393Z</time></trkpt><trkpt lat="39.2791483" lon="16.9601683"><ele>360.0</ele><time>2026-03-28T15:10:41.393Z</time></trkpt><trkpt lat="39.2791317" lon="16.9600817"><ele>360.0</ele><time>2026-03-28T15:10:43.393Z</time></trkpt><trkpt lat="39.279115" lon="16.9599917"><ele>360.0</ele><time>2026-03-28T15:10:45.393Z</time></trkpt><trkpt lat="39.2791" lon="16.95991"><ele>360.0</ele><time>2026-03-28T15:10:47.393Z</time></trkpt><trkpt lat="39.2790883" lon="16.959825"><ele>360.0</ele><time>2026-03-28T15:10:49.393Z</time></trkpt><trkpt lat="39.2790867" lon="16.9597167"><ele>360.3333333333333</ele><time>2026-03-28T15:10:51.393Z</time></trkpt><trkpt lat="39.2790983" lon="16.959605"><ele>360.6666666666667</ele><time>2026-03-28T15:10:53.393Z</time></trkpt><trkpt lat="39.2791517" lon="16.9595417"><ele>361.0</ele><time>2026-03-28T15:10:55.393Z</time></trkpt><trkpt lat="39.279225" lon="16.9595067"><ele>361.33333333333337</ele><time>2026-03-28T15:10:57.393Z</time></trkpt><trkpt lat="39.2793167" lon="16.9594717"><ele>361.6666666666667</ele><time>2026-03-28T15:10:59.393Z</time></trkpt><trkpt lat="39.2793983" lon="16.95945"><ele>362.0</ele><time>2026-03-28T15:11:02.394Z</time></trkpt><trkpt lat="39.2794883" lon="16.9594433"><ele>362.0</ele><time>2026-03-28T15:11:45.393Z</time></trkpt><trkpt lat="39.2795583" lon="16.95942"><ele>362.0</ele><time>2026-03-28T15:11:46.393Z</time></trkpt><trkpt lat="39.2796217" lon="16.9593867"><ele>362.0</ele><time>2026-03-28T15:11:47.394Z</time></trkpt><trkpt lat="39.27968" lon="16.9593383"><ele>362.0</ele><time>2026-03-28T15:11:48.393Z</time></trkpt><trkpt lat="39.2797283" lon="16.9592833"><ele>362.0</ele><time>2026-03-28T15:11:49.394Z</time></trkpt><trkpt lat="39.279785" lon="16.959225"><ele>362.0</ele><time>2026-03-28T15:11:50.394Z</time></trkpt><trkpt lat="39.27984" lon="16.9591583"><ele>362.0</ele><time>2026-03-28T15:11:51.393Z</time></trkpt><trkpt lat="39.2799017" lon="16.9590883"><ele>363.33333333333337</ele><time>2026-03-28T15:11:52.394Z</time></trkpt><trkpt lat="39.2799633" lon="16.9590167"><ele>364.6666666666667</ele><time>2026-03-28T15:11:53.393Z</time></trkpt><trkpt lat="39.2800283" lon="16.958945"><ele>366.0</ele><time>2026-03-28T15:11:54.393Z</time></trkpt><trkpt lat="39.2801" lon="16.95886"><ele>367.3333333333333</ele><time>2026-03-28T15:11:55.393Z</time></trkpt><trkpt lat="39.280165" lon="16.958785"><ele>368.66666666666663</ele><time>2026-03-28T15:11:56.393Z</time></trkpt><trkpt lat="39.280225" lon="16.9587067"><ele>370.0</ele><time>2026-03-28T15:11:57.393Z</time></trkpt><trkpt lat="39.280285" lon="16.958635"><ele>370.0</ele><time>2026-03-28T15:11:58.393Z</time></trkpt><trkpt lat="39.2803367" lon="16.9585817"><ele>370.0</ele><time>2026-03-28T15:11:59.393Z</time></trkpt><trkpt lat="39.280455" lon="16.958555"><ele>370.0</ele><time>2026-03-28T15:12:01.393Z</time></trkpt><trkpt lat="39.2805717" lon="16.95859"><ele>370.0</ele><time>2026-03-28T15:12:03.393Z</time></trkpt><trkpt lat="39.2806333" lon="16.9586183"><ele>370.0</ele><time>2026-03-28T15:12:04.393Z</time></trkpt><trkpt lat="39.2806983" lon="16.95866"><ele>370.0</ele><time>2026-03-28T15:12:05.393Z</time></trkpt><trkpt lat="39.280755" lon="16.9586967"><ele>370.66666666666663</ele><time>2026-03-28T15:12:06.393Z</time></trkpt><trkpt lat="39.280845" lon="16.9587317"><ele>371.3333333333333</ele><time>2026-03-28T15:12:08.393Z</time></trkpt><trkpt lat="39.280925" lon="16.95871"><ele>372.0</ele><time>2026-03-28T15:12:12.393Z</time></trkpt><trkpt lat="39.2810033" lon="16.958675"><ele>372.6666666666667</ele><time>2026-03-28T15:12:14.393Z</time></trkpt><trkpt lat="39.28108" lon="16.9586467"><ele>373.33333333333337</ele><time>2026-03-28T15:12:16.393Z</time></trkpt><trkpt lat="39.2811467" lon="16.95865"><ele>374.0</ele><time>2026-03-28T15:12:18.393Z</time></trkpt><trkpt lat="39.2812333" lon="16.9586283"><ele>374.0</ele><time>2026-03-28T15:12:21.393Z</time></trkpt><trkpt lat="39.2813083" lon="16.958615"><ele>374.0</ele><time>2026-03-28T15:12:24.394Z</time></trkpt><trkpt lat="39.2813733" lon="16.9586067"><ele>374.0</ele><time>2026-03-28T15:12:27.393Z</time></trkpt><trkpt lat="39.28144" lon="16.958565"><ele>374.0</ele><time>2026-03-28T15:12:30.393Z</time></trkpt><trkpt lat="39.2815317" lon="16.9585083"><ele>374.0</ele><time>2026-03-28T15:12:56.393Z</time></trkpt><trkpt lat="39.28164" lon="16.9584583"><ele>374.0</ele><time>2026-03-28T15:12:58.393Z</time></trkpt><trkpt lat="39.2817017" lon="16.9584233"><ele>373.5</ele><time>2026-03-28T15:12:59.394Z</time></trkpt><trkpt lat="39.2817617" lon="16.9583883"><ele>373.0</ele><time>2026-03-28T15:13:00.393Z</time></trkpt><trkpt lat="39.2818317" lon="16.958365"><ele>372.5</ele><time>2026-03-28T15:13:01.393Z</time></trkpt><trkpt lat="39.2819033" lon="16.9583417"><ele>372.0</ele><time>2026-03-28T15:13:02.393Z</time></trkpt><trkpt lat="39.2819667" lon="16.9583183"><ele>371.5</ele><time>2026-03-28T15:13:03.394Z</time></trkpt><trkpt lat="39.2820817" lon="16.95828"><ele>371.0</ele><time>2026-03-28T15:13:05.393Z</time></trkpt><trkpt lat="39.2821983" lon="16.958255"><ele>368.0</ele><time>2026-03-28T15:13:07.393Z</time></trkpt><trkpt lat="39.282265" lon="16.9582483"><ele>365.0</ele><time>2026-03-28T15:13:08.393Z</time></trkpt><trkpt lat="39.2823633" lon="16.958275"><ele>362.0</ele><time>2026-03-28T15:13:10.393Z</time></trkpt><trkpt lat="39.282435" lon="16.95829"><ele>359.0</ele><time>2026-03-28T15:13:12.393Z</time></trkpt><trkpt lat="39.2825183" lon="16.9583167"><ele>356.0</ele><time>2026-03-28T15:13:14.393Z</time></trkpt><trkpt lat="39.28262" lon="16.9583283"><ele>353.0</ele><time>2026-03-28T15:13:16.393Z</time></trkpt><trkpt lat="39.2826833" lon="16.9583333"><ele>353.0</ele><time>2026-03-28T15:13:17.393Z</time></trkpt><trkpt lat="39.2828033" lon="16.9583483"><ele>353.0</ele><time>2026-03-28T15:13:19.393Z</time></trkpt><trkpt lat="39.28291" lon="16.9583617"><ele>353.0</ele><time>2026-03-28T15:13:21.393Z</time></trkpt><trkpt lat="39.2830033" lon="16.9583883"><ele>353.0</ele><time>2026-03-28T15:13:23.393Z</time></trkpt><trkpt lat="39.2830817" lon="16.9583967"><ele>353.0</ele><time>2026-03-28T15:13:25.393Z</time></trkpt><trkpt lat="39.28316" lon="16.9583617"><ele>349.6666666666667</ele><time>2026-03-28T15:13:27.393Z</time></trkpt><trkpt lat="39.2832383" lon="16.95833"><ele>346.33333333333337</ele><time>2026-03-28T15:13:29.393Z</time></trkpt><trkpt lat="39.2833033" lon="16.95833"><ele>343.0</ele><time>2026-03-28T15:13:31.393Z</time></trkpt><trkpt lat="39.2833833" lon="16.9583683"><ele>339.6666666666667</ele><time>2026-03-28T15:13:34.394Z</time></trkpt><trkpt lat="39.28346" lon="16.9583983"><ele>336.3333333333333</ele><time>2026-03-28T15:13:37.393Z</time></trkpt><trkpt lat="39.2835217" lon="16.958435"><ele>333.0</ele><time>2026-03-28T15:13:40.393Z</time></trkpt><trkpt lat="39.283595" lon="16.9584183"><ele>333.0</ele><time>2026-03-28T15:13:43.394Z</time></trkpt><trkpt lat="39.283675" lon="16.958385"><ele>333.0</ele><time>2026-03-28T15:13:45.393Z</time></trkpt><trkpt lat="39.2837433" lon="16.9583517"><ele>333.0</ele><time>2026-03-28T15:13:47.393Z</time></trkpt><trkpt lat="39.28385" lon="16.95831"><ele>333.0</ele><time>2026-03-28T15:14:35.393Z</time></trkpt><trkpt lat="39.2839133" lon="16.9582883"><ele>333.0</ele><time>2026-03-28T15:14:36.393Z</time></trkpt><trkpt lat="39.2840333" lon="16.9582717"><ele>332.5</ele><time>2026-03-28T15:14:38.394Z</time></trkpt><trkpt lat="39.2841483" lon="16.95828"><ele>332.0</ele><time>2026-03-28T15:14:40.393Z</time></trkpt><trkpt lat="39.2842683" lon="16.9582883"><ele>331.5</ele><time>2026-03-28T15:14:42.393Z</time></trkpt><trkpt lat="39.2843317" lon="16.9582783"><ele>331.0</ele><time>2026-03-28T15:14:43.394Z</time></trkpt><trkpt lat="39.2844" lon="16.958245"><ele>330.5</ele><time>2026-03-28T15:14:44.393Z</time></trkpt><trkpt lat="39.2844667" lon="16.9582017"><ele>330.0</ele><time>2026-03-28T15:14:45.393Z</time></trkpt><trkpt lat="39.284535" lon="16.9581533"><ele>330.0</ele><time>2026-03-28T15:14:46.393Z</time></trkpt><trkpt lat="39.2846033" lon="16.9581017"><ele>330.0</ele><time>2026-03-28T15:14:47.393Z</time></trkpt><trkpt lat="39.2846733" lon="16.9580583"><ele>330.0</ele><time>2026-03-28T15:14:48.393Z</time></trkpt><trkpt lat="39.2847417" lon="16.9580317"><ele>330.0</ele><time>2026-03-28T15:14:49.393Z</time></trkpt><trkpt lat="39.284815" lon="16.9580117"><ele>330.0</ele><time>2026-03-28T15:14:50.394Z</time></trkpt><trkpt lat="39.2848833" lon="16.9579967"><ele>330.0</ele><time>2026-03-28T15:14:51.393Z</time></trkpt><trkpt lat="39.28499" lon="16.9579817"><ele>328.8333333333333</ele><time>2026-03-28T15:14:53.394Z</time></trkpt><trkpt lat="39.2850683" lon="16.9579683"><ele>327.6666666666667</ele><time>2026-03-28T15:14:55.394Z</time></trkpt><trkpt lat="39.28513" lon="16.9579383"><ele>326.5</ele><time>2026-03-28T15:14:57.393Z</time></trkpt><trkpt lat="39.2852017" lon="16.957875"><ele>325.33333333333337</ele><time>2026-03-28T15:15:00.393Z</time></trkpt><trkpt lat="39.2852583" lon="16.957815"><ele>324.1666666666667</ele><time>2026-03-28T15:15:03.393Z</time></trkpt><trkpt lat="39.28531" lon="16.9577483"><ele>323.0</ele><time>2026-03-28T15:15:06.394Z</time></trkpt><trkpt lat="39.28541" lon="16.95765"><ele>323.0</ele><time>2026-03-28T15:15:14.393Z</time></trkpt><trkpt lat="39.2854517" lon="16.9575817"><ele>323.0</ele><time>2026-03-28T15:15:16.393Z</time></trkpt><trkpt lat="39.2854983" lon="16.9575167"><ele>323.0</ele><time>2026-03-28T15:15:18.394Z</time></trkpt><trkpt lat="39.28557" lon="16.957455"><ele>323.0</ele><time>2026-03-28T15:15:58.393Z</time></trkpt><trkpt lat="39.285625" lon="16.9574117"><ele>323.0</ele><time>2026-03-28T15:15:59.393Z</time></trkpt><trkpt lat="39.285705" lon="16.9573533"><ele>323.0</ele><time>2026-03-28T15:16:00.393Z</time></trkpt><trkpt lat="39.2858" lon="16.9572983"><ele>323.5</ele><time>2026-03-28T15:16:01.393Z</time></trkpt><trkpt lat="39.2858867" lon="16.9572483"><ele>324.0</ele><time>2026-03-28T15:16:02.393Z</time></trkpt><trkpt lat="39.2859667" lon="16.957205"><ele>324.5</ele><time>2026-03-28T15:16:03.393Z</time></trkpt><trkpt lat="39.2860383" lon="16.9571517"><ele>325.0</ele><time>2026-03-28T15:16:04.394Z</time></trkpt><trkpt lat="39.2860917" lon="16.9570883"><ele>325.5</ele><time>2026-03-28T15:16:05.393Z</time></trkpt><trkpt lat="39.2861233" lon="16.95701"><ele>326.0</ele><time>2026-03-28T15:16:06.393Z</time></trkpt><trkpt lat="39.2861383" lon="16.95692"><ele>326.0</ele><time>2026-03-28T15:16:07.393Z</time></trkpt><trkpt lat="39.286155" lon="16.95683"><ele>326.0</ele><time>2026-03-28T15:16:08.393Z</time></trkpt><trkpt lat="39.2861733" lon="16.9567383"><ele>326.0</ele><time>2026-03-28T15:16:09.393Z</time></trkpt><trkpt lat="39.2861967" lon="16.9566483"><ele>326.0</ele><time>2026-03-28T15:16:10.393Z</time></trkpt><trkpt lat="39.2862267" lon="16.9565583"><ele>326.0</ele><time>2026-03-28T15:16:11.393Z</time></trkpt><trkpt lat="39.2862717" lon="16.956465"><ele>326.0</ele><time>2026-03-28T15:16:12.393Z</time></trkpt><trkpt lat="39.28632" lon="16.9563783"><ele>327.6</ele><time>2026-03-28T15:16:13.393Z</time></trkpt><trkpt lat="39.286385" lon="16.9563217"><ele>329.20000000000005</ele><time>2026-03-28T15:16:14.394Z</time></trkpt><trkpt lat="39.2864683" lon="16.9562867"><ele>330.79999999999995</ele><time>2026-03-28T15:16:15.393Z</time></trkpt><trkpt lat="39.2865583" lon="16.9562633"><ele>332.4</ele><time>2026-03-28T15:16:16.393Z</time></trkpt><trkpt lat="39.2866517" lon="16.9562433"><ele>334.0</ele><time>2026-03-28T15:16:17.393Z</time></trkpt><trkpt lat="39.2867467" lon="16.9562167"><ele>334.4</ele><time>2026-03-28T15:16:18.393Z</time></trkpt><trkpt lat="39.2868417" lon="16.9561833"><ele>334.79999999999995</ele><time>2026-03-28T15:16:19.394Z</time></trkpt><trkpt lat="39.28694" lon="16.956145"><ele>335.20000000000005</ele><time>2026-03-28T15:16:20.393Z</time></trkpt><trkpt lat="39.2870383" lon="16.9560983"><ele>335.6</ele><time>2026-03-28T15:16:21.393Z</time></trkpt><trkpt lat="39.2871267" lon="16.95606"><ele>336.0</ele><time>2026-03-28T15:16:22.393Z</time></trkpt><trkpt lat="39.2872083" lon="16.95602"><ele>334.5</ele><time>2026-03-28T15:16:23.393Z</time></trkpt><trkpt lat="39.287285" lon="16.9559883"><ele>333.0</ele><time>2026-03-28T15:16:24.393Z</time></trkpt><trkpt lat="39.28736" lon="16.9559517"><ele>331.5</ele><time>2026-03-28T15:16:25.394Z</time></trkpt><trkpt lat="39.2874433" lon="16.95591"><ele>330.0</ele><time>2026-03-28T15:16:26.394Z</time></trkpt><trkpt lat="39.28752" lon="16.9558567"><ele>328.5</ele><time>2026-03-28T15:16:27.394Z</time></trkpt><trkpt lat="39.2876" lon="16.9558033"><ele>327.0</ele><time>2026-03-28T15:16:28.394Z</time></trkpt><trkpt lat="39.2876817" lon="16.9557533"><ele>330.1666666666667</ele><time>2026-03-28T15:16:29.393Z</time></trkpt><trkpt lat="39.2877583" lon="16.9557233"><ele>333.3333333333333</ele><time>2026-03-28T15:16:30.393Z</time></trkpt><trkpt lat="39.28784" lon="16.9556933"><ele>336.5</ele><time>2026-03-28T15:16:31.393Z</time></trkpt><trkpt lat="39.2879217" lon="16.9556567"><ele>339.66666666666663</ele><time>2026-03-28T15:16:32.393Z</time></trkpt><trkpt lat="39.28801" lon="16.955605"><ele>342.8333333333333</ele><time>2026-03-28T15:16:33.394Z</time></trkpt><trkpt lat="39.2881017" lon="16.9555533"><ele>346.0</ele><time>2026-03-28T15:16:34.393Z</time></trkpt><trkpt lat="39.2881967" lon="16.9554883"><ele>346.0</ele><time>2026-03-28T15:16:35.393Z</time></trkpt><trkpt lat="39.2882867" lon="16.955415"><ele>346.0</ele><time>2026-03-28T15:16:36.393Z</time></trkpt><trkpt lat="39.28838" lon="16.9553483"><ele>346.0</ele><time>2026-03-28T15:16:37.393Z</time></trkpt><trkpt lat="39.28848" lon="16.9552883"><ele>346.0</ele><time>2026-03-28T15:16:38.393Z</time></trkpt><trkpt lat="39.28857" lon="16.95524"><ele>346.0</ele><time>2026-03-28T15:16:39.393Z</time></trkpt><trkpt lat="39.2886567" lon="16.9551933"><ele>346.0</ele><time>2026-03-28T15:16:40.394Z</time></trkpt><trkpt lat="39.2887383" lon="16.9551717"><ele>346.0</ele><time>2026-03-28T15:16:41.393Z</time></trkpt><trkpt lat="39.28882" lon="16.95517"><ele>346.0</ele><time>2026-03-28T15:16:42.393Z</time></trkpt><trkpt lat="39.2889067" lon="16.9551667"><ele>346.0</ele><time>2026-03-28T15:16:43.393Z</time></trkpt><trkpt lat="39.2889933" lon="16.9551517"><ele>346.0</ele><time>2026-03-28T15:16:44.393Z</time></trkpt><trkpt lat="39.2890817" lon="16.9551133"><ele>346.0</ele><time>2026-03-28T15:16:45.394Z</time></trkpt><trkpt lat="39.289175" lon="16.9550767"><ele>344.20000000000005</ele><time>2026-03-28T15:16:46.393Z</time></trkpt><trkpt lat="39.2892633" lon="16.95505"><ele>342.40000000000003</ele><time>2026-03-28T15:16:47.393Z</time></trkpt><trkpt lat="39.289355" lon="16.955025"><ele>340.6</ele><time>2026-03-28T15:16:48.393Z</time></trkpt><trkpt lat="39.289445" lon="16.9550067"><ele>338.8</ele><time>2026-03-28T15:16:49.393Z</time></trkpt><trkpt lat="39.2895333" lon="16.9549883"><ele>337.0</ele><time>2026-03-28T15:16:50.393Z</time></trkpt><trkpt lat="39.2896267" lon="16.9549683"><ele>341.8</ele><time>2026-03-28T15:16:51.394Z</time></trkpt><trkpt lat="39.2897233" lon="16.9549467"><ele>346.6</ele><time>2026-03-28T15:16:52.393Z</time></trkpt><trkpt lat="39.2898117" lon="16.9549233"><ele>351.40000000000003</ele><time>2026-03-28T15:16:53.394Z</time></trkpt><trkpt lat="39.2899017" lon="16.9548683"><ele>356.20000000000005</ele><time>2026-03-28T15:16:54.393Z</time></trkpt><trkpt lat="39.2899833" lon="16.9548017"><ele>361.0</ele><time>2026-03-28T15:16:55.393Z</time></trkpt><trkpt lat="39.290065" lon="16.95473"><ele>362.0</ele><time>2026-03-28T15:16:56.393Z</time></trkpt><trkpt lat="39.29015" lon="16.9546717"><ele>363.0</ele><time>2026-03-28T15:16:57.393Z</time></trkpt><trkpt lat="39.2902333" lon="16.954615"><ele>364.0</ele><time>2026-03-28T15:16:58.393Z</time></trkpt><trkpt lat="39.290315" lon="16.954565"><ele>365.0</ele><time>2026-03-28T15:16:59.393Z</time></trkpt><trkpt lat="39.2903967" lon="16.9545133"><ele>366.0</ele><time>2026-03-28T15:17:00.393Z</time></trkpt><trkpt lat="39.290475" lon="16.954455"><ele>366.0</ele><time>2026-03-28T15:17:01.394Z</time></trkpt><trkpt lat="39.2905417" lon="16.954395"><ele>366.0</ele><time>2026-03-28T15:17:02.393Z</time></trkpt><trkpt lat="39.2906017" lon="16.9543533"><ele>366.0</ele><time>2026-03-28T15:17:03.393Z</time></trkpt><trkpt lat="39.2907183" lon="16.9543883"><ele>366.0</ele><time>2026-03-28T15:17:05.393Z</time></trkpt><trkpt lat="39.2907783" lon="16.9544433"><ele>366.0</ele><time>2026-03-28T15:17:06.394Z</time></trkpt><trkpt lat="39.2908467" lon="16.9544933"><ele>366.0</ele><time>2026-03-28T15:17:07.393Z</time></trkpt><trkpt lat="39.2909233" lon="16.954535"><ele>366.1666666666667</ele><time>2026-03-28T15:17:08.393Z</time></trkpt><trkpt lat="39.2910067" lon="16.95457"><ele>366.3333333333333</ele><time>2026-03-28T15:17:09.393Z</time></trkpt><trkpt lat="39.2910917" lon="16.9545983"><ele>366.5</ele><time>2026-03-28T15:17:10.394Z</time></trkpt><trkpt lat="39.2911833" lon="16.95462"><ele>366.66666666666663</ele><time>2026-03-28T15:17:11.393Z</time></trkpt><trkpt lat="39.2912767" lon="16.954635"><ele>366.8333333333333</ele><time>2026-03-28T15:17:12.393Z</time></trkpt><trkpt lat="39.2913583" lon="16.9546433"><ele>367.0</ele><time>2026-03-28T15:17:13.394Z</time></trkpt><trkpt lat="39.2914433" lon="16.9546483"><ele>366.0</ele><time>2026-03-28T15:17:14.393Z</time></trkpt><trkpt lat="39.2915233" lon="16.9546483"><ele>365.0</ele><time>2026-03-28T15:17:15.393Z</time></trkpt><trkpt lat="39.29161" lon="16.9546417"><ele>364.0</ele><time>2026-03-28T15:17:16.394Z</time></trkpt><trkpt lat="39.2916967" lon="16.9546367"><ele>363.0</ele><time>2026-03-28T15:17:17.393Z</time></trkpt><trkpt lat="39.2917833" lon="16.9546283"><ele>362.0</ele><time>2026-03-28T15:17:18.393Z</time></trkpt><trkpt lat="39.2918667" lon="16.9546083"><ele>361.0</ele><time>2026-03-28T15:17:19.394Z</time></trkpt><trkpt lat="39.2919467" lon="16.9545917"><ele>361.0</ele><time>2026-03-28T15:17:20.393Z</time></trkpt><trkpt lat="39.2920233" lon="16.9545783"><ele>361.0</ele><time>2026-03-28T15:17:21.393Z</time></trkpt><trkpt lat="39.292105" lon="16.95456"><ele>361.0</ele><time>2026-03-28T15:17:22.393Z</time></trkpt><trkpt lat="39.2921783" lon="16.9545417"><ele>361.0</ele><time>2026-03-28T15:17:23.393Z</time></trkpt><trkpt lat="39.2922533" lon="16.9545083"><ele>361.0</ele><time>2026-03-28T15:17:24.393Z</time></trkpt><trkpt lat="39.2923333" lon="16.9544733"><ele>361.0</ele><time>2026-03-28T15:17:25.394Z</time></trkpt><trkpt lat="39.2924017" lon="16.9544433"><ele>359.8333333333333</ele><time>2026-03-28T15:17:26.393Z</time></trkpt><trkpt lat="39.29247" lon="16.9544167"><ele>358.66666666666663</ele><time>2026-03-28T15:17:27.394Z</time></trkpt><trkpt lat="39.2925483" lon="16.9544"><ele>357.5</ele><time>2026-03-28T15:17:28.393Z</time></trkpt><trkpt lat="39.2926217" lon="16.954395"><ele>356.3333333333333</ele><time>2026-03-28T15:17:29.393Z</time></trkpt><trkpt lat="39.2927417" lon="16.9543983"><ele>355.1666666666667</ele><time>2026-03-28T15:17:31.393Z</time></trkpt><trkpt lat="39.2928067" lon="16.9543917"><ele>354.0</ele><time>2026-03-28T15:17:32.393Z</time></trkpt><trkpt lat="39.2928783" lon="16.9543683"><ele>354.0</ele><time>2026-03-28T15:17:33.393Z</time></trkpt><trkpt lat="39.2929567" lon="16.954335"><ele>354.0</ele><time>2026-03-28T15:17:34.393Z</time></trkpt><trkpt lat="39.2930433" lon="16.9543083"><ele>354.0</ele><time>2026-03-28T15:17:35.393Z</time></trkpt><trkpt lat="39.293135" lon="16.9542833"><ele>354.0</ele><time>2026-03-28T15:17:36.393Z</time></trkpt><trkpt lat="39.2932217" lon="16.9542483"><ele>354.0</ele><time>2026-03-28T15:17:37.393Z</time></trkpt><trkpt lat="39.293305" lon="16.9542"><ele>354.0</ele><time>2026-03-28T15:17:38.393Z</time></trkpt><trkpt lat="39.2933683" lon="16.9541333"><ele>356.4</ele><time>2026-03-28T15:17:39.393Z</time></trkpt><trkpt lat="39.2934233" lon="16.9540567"><ele>358.79999999999995</ele><time>2026-03-28T15:17:40.393Z</time></trkpt><trkpt lat="39.293475" lon="16.9539883"><ele>361.20000000000005</ele><time>2026-03-28T15:17:41.393Z</time></trkpt><trkpt lat="39.29354" lon="16.9539383"><ele>363.6</ele><time>2026-03-28T15:17:42.393Z</time></trkpt><trkpt lat="39.2936483" lon="16.953955"><ele>366.0</ele><time>2026-03-28T15:17:44.393Z</time></trkpt><trkpt lat="39.2937517" lon="16.9540317"><ele>366.0</ele><time>2026-03-28T15:17:46.393Z</time></trkpt><trkpt lat="39.2938117" lon="16.95406"><ele>366.0</ele><time>2026-03-28T15:17:47.393Z</time></trkpt><trkpt lat="39.29388" lon="16.9540717"><ele>366.0</ele><time>2026-03-28T15:17:48.393Z</time></trkpt><trkpt lat="39.293955" lon="16.9540717"><ele>366.0</ele><time>2026-03-28T15:17:49.393Z</time></trkpt><trkpt lat="39.2940317" lon="16.95407"><ele>366.0</ele><time>2026-03-28T15:17:50.393Z</time></trkpt><trkpt lat="39.2941083" lon="16.9540833"><ele>366.0</ele><time>2026-03-28T15:17:51.393Z</time></trkpt><trkpt lat="39.2941933" lon="16.9540983"><ele>366.0</ele><time>2026-03-28T15:17:52.393Z</time></trkpt><trkpt lat="39.294275" lon="16.95411"><ele>367.1666666666667</ele><time>2026-03-28T15:17:53.393Z</time></trkpt><trkpt lat="39.2943617" lon="16.9541267"><ele>368.3333333333333</ele><time>2026-03-28T15:17:54.393Z</time></trkpt><trkpt lat="39.294445" lon="16.9541267"><ele>369.5</ele><time>2026-03-28T15:17:55.393Z</time></trkpt><trkpt lat="39.2945283" lon="16.9541433"><ele>370.66666666666663</ele><time>2026-03-28T15:17:56.393Z</time></trkpt><trkpt lat="39.2945967" lon="16.9541767"><ele>371.8333333333333</ele><time>2026-03-28T15:17:57.393Z</time></trkpt><trkpt lat="39.2946633" lon="16.9542133"><ele>373.0</ele><time>2026-03-28T15:17:58.394Z</time></trkpt><trkpt lat="39.294735" lon="16.95422"><ele>373.66666666666663</ele><time>2026-03-28T15:17:59.393Z</time></trkpt><trkpt lat="39.294805" lon="16.9542"><ele>374.3333333333333</ele><time>2026-03-28T15:18:00.393Z</time></trkpt><trkpt lat="39.2948733" lon="16.954165"><ele>375.0</ele><time>2026-03-28T15:18:01.393Z</time></trkpt><trkpt lat="39.2949283" lon="16.9541"><ele>375.6666666666667</ele><time>2026-03-28T15:18:02.394Z</time></trkpt><trkpt lat="39.2949717" lon="16.954025"><ele>376.33333333333337</ele><time>2026-03-28T15:18:03.393Z</time></trkpt><trkpt lat="39.2950167" lon="16.9539533"><ele>377.0</ele><time>2026-03-28T15:18:04.393Z</time></trkpt><trkpt lat="39.29511" lon="16.9539217"><ele>377.0</ele><time>2026-03-28T15:18:06.393Z</time></trkpt><trkpt lat="39.2951833" lon="16.954065"><ele>377.0</ele><time>2026-03-28T15:18:08.393Z</time></trkpt><trkpt lat="39.2951933" lon="16.954155"><ele>377.0</ele><time>2026-03-28T15:18:09.393Z</time></trkpt><trkpt lat="39.295185" lon="16.9542567"><ele>377.0</ele><time>2026-03-28T15:18:10.393Z</time></trkpt><trkpt lat="39.2952033" lon="16.95436"><ele>377.0</ele><time>2026-03-28T15:18:11.393Z</time></trkpt><trkpt lat="39.2952433" lon="16.9544283"><ele>377.0</ele><time>2026-03-28T15:18:12.393Z</time></trkpt><trkpt lat="39.2953617" lon="16.9544967"><ele>376.0</ele><time>2026-03-28T15:18:14.393Z</time></trkpt><trkpt lat="39.2954367" lon="16.954525"><ele>375.0</ele><time>2026-03-28T15:18:15.393Z</time></trkpt><trkpt lat="39.2955133" lon="16.9545533"><ele>374.0</ele><time>2026-03-28T15:18:16.393Z</time></trkpt><trkpt lat="39.2956017" lon="16.95457"><ele>373.0</ele><time>2026-03-28T15:18:17.393Z</time></trkpt><trkpt lat="39.2956833" lon="16.9545717"><ele>372.0</ele><time>2026-03-28T15:18:18.393Z</time></trkpt><trkpt lat="39.295755" lon="16.95456"><ele>371.0</ele><time>2026-03-28T15:18:19.394Z</time></trkpt><trkpt lat="39.2958283" lon="16.9545433"><ele>374.42857142857144</ele><time>2026-03-28T15:18:20.394Z</time></trkpt><trkpt lat="39.2959" lon="16.9545267"><ele>377.8571428571429</ele><time>2026-03-28T15:18:21.393Z</time></trkpt><trkpt lat="39.2959733" lon="16.9545017"><ele>381.2857142857143</ele><time>2026-03-28T15:18:22.393Z</time></trkpt><trkpt lat="39.296045" lon="16.95447"><ele>384.7142857142857</ele><time>2026-03-28T15:18:23.393Z</time></trkpt><trkpt lat="39.2961117" lon="16.9544433"><ele>388.14285714285717</ele><time>2026-03-28T15:18:24.393Z</time></trkpt><trkpt lat="39.2961867" lon="16.95442"><ele>391.57142857142856</ele><time>2026-03-28T15:18:25.393Z</time></trkpt><trkpt lat="39.2962567" lon="16.9543983"><ele>395.0</ele><time>2026-03-28T15:18:26.393Z</time></trkpt><trkpt lat="39.2963333" lon="16.9543733"><ele>397.66666666666663</ele><time>2026-03-28T15:18:27.393Z</time></trkpt><trkpt lat="39.2964217" lon="16.9543483"><ele>400.3333333333333</ele><time>2026-03-28T15:18:28.394Z</time></trkpt><trkpt lat="39.2965083" lon="16.9543167"><ele>403.0</ele><time>2026-03-28T15:18:29.393Z</time></trkpt><trkpt lat="39.296595" lon="16.9542933"><ele>405.66666666666663</ele><time>2026-03-28T15:18:30.393Z</time></trkpt><trkpt lat="39.296665" lon="16.9542867"><ele>408.3333333333333</ele><time>2026-03-28T15:18:31.393Z</time></trkpt><trkpt lat="39.2967283" lon="16.9543067"><ele>411.0</ele><time>2026-03-28T15:18:32.393Z</time></trkpt><trkpt lat="39.2967867" lon="16.9543567"><ele>411.0</ele><time>2026-03-28T15:18:33.393Z</time></trkpt><trkpt lat="39.29684" lon="16.9544217"><ele>411.0</ele><time>2026-03-28T15:18:34.393Z</time></trkpt><trkpt lat="39.2968867" lon="16.9545017"><ele>411.0</ele><time>2026-03-28T15:18:35.393Z</time></trkpt><trkpt lat="39.2969217" lon="16.9545867"><ele>411.0</ele><time>2026-03-28T15:18:36.394Z</time></trkpt><trkpt lat="39.296955" lon="16.9546783"><ele>411.0</ele><time>2026-03-28T15:18:37.393Z</time></trkpt><trkpt lat="39.2969817" lon="16.9547683"><ele>411.0</ele><time>2026-03-28T15:18:38.393Z</time></trkpt><trkpt lat="39.2969833" lon="16.9548633"><ele>411.0</ele><time>2026-03-28T15:18:39.393Z</time></trkpt><trkpt lat="39.2969733" lon="16.9549567"><ele>411.0</ele><time>2026-03-28T15:18:40.394Z</time></trkpt><trkpt lat="39.2969567" lon="16.9550483"><ele>411.0</ele><time>2026-03-28T15:18:41.393Z</time></trkpt><trkpt lat="39.2969767" lon="16.9551517"><ele>411.0</ele><time>2026-03-28T15:18:43.394Z</time></trkpt><trkpt lat="39.29706" lon="16.9551983"><ele>411.0</ele><time>2026-03-28T15:18:45.393Z</time></trkpt><trkpt lat="39.2971883" lon="16.95521"><ele>411.0</ele><time>2026-03-28T15:18:47.393Z</time></trkpt><trkpt lat="39.2972633" lon="16.9552183"><ele>414.4</ele><time>2026-03-28T15:18:48.393Z</time></trkpt><trkpt lat="39.297335" lon="16.9552417"><ele>417.8</ele><time>2026-03-28T15:18:49.394Z</time></trkpt><trkpt lat="39.2973967" lon="16.955285"><ele>421.19999999999993</ele><time>2026-03-28T15:18:50.394Z</time></trkpt><trkpt lat="39.2974833" lon="16.9553933"><ele>424.59999999999997</ele><time>2026-03-28T15:18:52.393Z</time></trkpt><trkpt lat="39.2975717" lon="16.9555083"><ele>428.0</ele><time>2026-03-28T15:18:54.393Z</time></trkpt><trkpt lat="39.2976183" lon="16.9555683"><ele>427.99999999999994</ele><time>2026-03-28T15:18:55.394Z</time></trkpt><trkpt lat="39.2976683" lon="16.9556283"><ele>428.0</ele><time>2026-03-28T15:18:56.394Z</time></trkpt><trkpt lat="39.2977083" lon="16.9556933"><ele>428.0</ele><time>2026-03-28T15:18:57.393Z</time></trkpt><trkpt lat="39.2977467" lon="16.9557583"><ele>428.0</ele><time>2026-03-28T15:18:58.393Z</time></trkpt><trkpt lat="39.2978183" lon="16.9558833"><ele>427.99999999999994</ele><time>2026-03-28T15:19:00.393Z</time></trkpt><trkpt lat="39.2978983" lon="16.9559917"><ele>428.0</ele><time>2026-03-28T15:19:02.393Z</time></trkpt><trkpt lat="39.2979783" lon="16.956085"><ele>428.3333333333333</ele><time>2026-03-28T15:19:04.393Z</time></trkpt><trkpt lat="39.2980367" lon="16.9561667"><ele>428.66666666666663</ele><time>2026-03-28T15:19:06.393Z</time></trkpt><trkpt lat="39.298075" lon="16.956235"><ele>429.0</ele><time>2026-03-28T15:19:08.393Z</time></trkpt><trkpt lat="39.298095" lon="16.9563433"><ele>429.33333333333337</ele><time>2026-03-28T15:19:15.393Z</time></trkpt><trkpt lat="39.2981317" lon="16.9564483"><ele>429.6666666666667</ele><time>2026-03-28T15:19:18.393Z</time></trkpt><trkpt lat="39.2981667" lon="16.95653"><ele>430.0</ele><time>2026-03-28T15:19:21.393Z</time></trkpt><trkpt lat="39.2982233" lon="16.9565783"><ele>431.33333333333337</ele><time>2026-03-28T15:19:24.393Z</time></trkpt><trkpt lat="39.2982983" lon="16.9565917"><ele>432.6666666666667</ele><time>2026-03-28T15:19:27.393Z</time></trkpt><trkpt lat="39.2983783" lon="16.9565783"><ele>434.0</ele><time>2026-03-28T15:19:30.394Z</time></trkpt><trkpt lat="39.2983867" lon="16.9566633"><ele>435.33333333333337</ele><time>2026-03-28T15:19:35.393Z</time></trkpt><trkpt lat="39.2982817" lon="16.9566933"><ele>436.6666666666667</ele><time>2026-03-28T15:19:37.393Z</time></trkpt><trkpt lat="39.29817" lon="16.9567033"><ele>438.0</ele><time>2026-03-28T15:19:39.393Z</time></trkpt><trkpt lat="39.2980817" lon="16.956735"><ele>438.0</ele><time>2026-03-28T15:19:41.394Z</time></trkpt><trkpt lat="39.2980433" lon="16.9568433"><ele>438.0</ele><time>2026-03-28T15:19:44.394Z</time></trkpt><trkpt lat="39.298035" lon="16.95693"><ele>438.0</ele><time>2026-03-28T15:19:46.394Z</time></trkpt><trkpt lat="39.2980367" lon="16.9570167"><ele>438.0</ele><time>2026-03-28T15:19:48.393Z</time></trkpt><trkpt lat="39.298055" lon="16.9571067"><ele>438.0</ele><time>2026-03-28T15:19:50.393Z</time></trkpt><trkpt lat="39.29808" lon="16.9572317"><ele>438.0</ele><time>2026-03-28T15:19:52.393Z</time></trkpt><trkpt lat="39.29811" lon="16.9573733"><ele>444.2</ele><time>2026-03-28T15:19:54.393Z</time></trkpt><trkpt lat="39.2981283" lon="16.957455"><ele>450.4</ele><time>2026-03-28T15:19:55.393Z</time></trkpt><trkpt lat="39.2981433" lon="16.95761"><ele>456.59999999999997</ele><time>2026-03-28T15:19:57.393Z</time></trkpt><trkpt lat="39.2981367" lon="16.9577667"><ele>462.79999999999995</ele><time>2026-03-28T15:19:59.393Z</time></trkpt><trkpt lat="39.29814" lon="16.9579083"><ele>469.0</ele><time>2026-03-28T15:20:01.393Z</time></trkpt><trkpt lat="39.2981467" lon="16.9580633"><ele>467.75</ele><time>2026-03-28T15:20:03.393Z</time></trkpt><trkpt lat="39.2981333" lon="16.9582067"><ele>466.5</ele><time>2026-03-28T15:20:05.393Z</time></trkpt><trkpt lat="39.29808" lon="16.9583433"><ele>465.25</ele><time>2026-03-28T15:20:07.393Z</time></trkpt><trkpt lat="39.29802" lon="16.9584733"><ele>464.0</ele><time>2026-03-28T15:20:09.393Z</time></trkpt><trkpt lat="39.2979833" lon="16.9586117"><ele>463.99999999999994</ele><time>2026-03-28T15:20:11.393Z</time></trkpt><trkpt lat="39.2979417" lon="16.958755"><ele>464.0</ele><time>2026-03-28T15:20:13.393Z</time></trkpt><trkpt lat="39.297915" lon="16.958835"><ele>464.0</ele><time>2026-03-28T15:20:14.394Z</time></trkpt><trkpt lat="39.297885" lon="16.9589117"><ele>464.0</ele><time>2026-03-28T15:20:15.393Z</time></trkpt><trkpt lat="39.297855" lon="16.9589833"><ele>463.99999999999994</ele><time>2026-03-28T15:20:16.394Z</time></trkpt><trkpt lat="39.2977917" lon="16.9591"><ele>464.0</ele><time>2026-03-28T15:20:18.393Z</time></trkpt><trkpt lat="39.2977333" lon="16.9592233"><ele>468.16666666666663</ele><time>2026-03-28T15:20:20.394Z</time></trkpt><trkpt lat="39.2976833" lon="16.959355"><ele>472.3333333333333</ele><time>2026-03-28T15:20:22.393Z</time></trkpt><trkpt lat="39.297645" lon="16.959425"><ele>476.5</ele><time>2026-03-28T15:20:23.393Z</time></trkpt><trkpt lat="39.2976" lon="16.9595"><ele>480.66666666666663</ele><time>2026-03-28T15:20:24.393Z</time></trkpt><trkpt lat="39.2975533" lon="16.9595767"><ele>484.8333333333333</ele><time>2026-03-28T15:20:25.393Z</time></trkpt><trkpt lat="39.2975033" lon="16.95965"><ele>489.0</ele><time>2026-03-28T15:20:26.393Z</time></trkpt><trkpt lat="39.2974583" lon="16.9597233"><ele>489.0</ele><time>2026-03-28T15:20:27.393Z</time></trkpt><trkpt lat="39.29742" lon="16.9598017"><ele>489.00000000000006</ele><time>2026-03-28T15:20:28.393Z</time></trkpt><trkpt lat="39.2973833" lon="16.9598867"><ele>489.0</ele><time>2026-03-28T15:20:29.393Z</time></trkpt><trkpt lat="39.2973417" lon="16.959965"><ele>489.0</ele><time>2026-03-28T15:20:30.393Z</time></trkpt><trkpt lat="39.2972917" lon="16.9600367"><ele>489.00000000000006</ele><time>2026-03-28T15:20:31.394Z</time></trkpt><trkpt lat="39.2972417" lon="16.9601067"><ele>489.0</ele><time>2026-03-28T15:20:32.393Z</time></trkpt><trkpt lat="39.2971883" lon="16.9601667"><ele>489.0</ele><time>2026-03-28T15:20:33.393Z</time></trkpt><trkpt lat="39.2971333" lon="16.96022"><ele>490.4</ele><time>2026-03-28T15:20:34.393Z</time></trkpt><trkpt lat="39.29704" lon="16.9603267"><ele>491.79999999999995</ele><time>2026-03-28T15:20:36.393Z</time></trkpt><trkpt lat="39.2969783" lon="16.96038"><ele>493.20000000000005</ele><time>2026-03-28T15:20:37.393Z</time></trkpt><trkpt lat="39.2969" lon="16.9604183"><ele>494.6</ele><time>2026-03-28T15:20:38.393Z</time></trkpt><trkpt lat="39.29682" lon="16.960465"><ele>496.0</ele><time>2026-03-28T15:20:39.393Z</time></trkpt><trkpt lat="39.2967417" lon="16.9605217"><ele>496.0</ele><time>2026-03-28T15:20:40.393Z</time></trkpt><trkpt lat="39.2966617" lon="16.9605733"><ele>496.0</ele><time>2026-03-28T15:20:41.393Z</time></trkpt><trkpt lat="39.2965817" lon="16.960625"><ele>496.0</ele><time>2026-03-28T15:20:42.393Z</time></trkpt><trkpt lat="39.2964967" lon="16.9606617"><ele>496.0</ele><time>2026-03-28T15:20:43.393Z</time></trkpt><trkpt lat="39.2964233" lon="16.96069"><ele>496.0</ele><time>2026-03-28T15:20:44.393Z</time></trkpt><trkpt lat="39.296335" lon="16.9607933"><ele>496.50000000000006</ele><time>2026-03-28T15:20:46.393Z</time></trkpt><trkpt lat="39.2963017" lon="16.960865"><ele>497.0</ele><time>2026-03-28T15:20:47.393Z</time></trkpt><trkpt lat="39.2962667" lon="16.960945"><ele>497.5</ele><time>2026-03-28T15:20:48.394Z</time></trkpt><trkpt lat="39.2962167" lon="16.9610317"><ele>498.0</ele><time>2026-03-28T15:20:49.393Z</time></trkpt><trkpt lat="39.2961617" lon="16.9611283"><ele>498.50000000000006</ele><time>2026-03-28T15:20:50.394Z</time></trkpt><trkpt lat="39.2961133" lon="16.9612333"><ele>499.0</ele><time>2026-03-28T15:20:51.393Z</time></trkpt><trkpt lat="39.2960717" lon="16.9613433"><ele>499.0</ele><time>2026-03-28T15:20:52.394Z</time></trkpt><trkpt lat="39.2960233" lon="16.9614417"><ele>499.0</ele><time>2026-03-28T15:20:53.393Z</time></trkpt><trkpt lat="39.2959617" lon="16.9615217"><ele>499.0</ele><time>2026-03-28T15:20:54.394Z</time></trkpt><trkpt lat="39.2958817" lon="16.9615933"><ele>499.0</ele><time>2026-03-28T15:20:55.393Z</time></trkpt><trkpt lat="39.2957983" lon="16.9616667"><ele>499.0</ele><time>2026-03-28T15:20:56.393Z</time></trkpt><trkpt lat="39.2957117" lon="16.96174"><ele>498.2</ele><time>2026-03-28T15:20:57.394Z</time></trkpt><trkpt lat="39.29563" lon="16.9618017"><ele>497.4</ele><time>2026-03-28T15:20:58.393Z</time></trkpt><trkpt lat="39.295555" lon="16.9618633"><ele>496.6</ele><time>2026-03-28T15:20:59.393Z</time></trkpt><trkpt lat="39.295495" lon="16.9619417"><ele>495.8</ele><time>2026-03-28T15:21:00.393Z</time></trkpt><trkpt lat="39.2954333" lon="16.9620317"><ele>495.0</ele><time>2026-03-28T15:21:01.394Z</time></trkpt><trkpt lat="39.2953667" lon="16.9621133"><ele>495.0</ele><time>2026-03-28T15:21:02.393Z</time></trkpt><trkpt lat="39.2952967" lon="16.962175"><ele>495.0</ele><time>2026-03-28T15:21:03.393Z</time></trkpt><trkpt lat="39.2952267" lon="16.962205"><ele>495.0</ele><time>2026-03-28T15:21:04.393Z</time></trkpt><trkpt lat="39.2951583" lon="16.962235"><ele>495.0</ele><time>2026-03-28T15:21:05.393Z</time></trkpt><trkpt lat="39.2951083" lon="16.9622917"><ele>495.0</ele><time>2026-03-28T15:21:06.393Z</time></trkpt><trkpt lat="39.2950667" lon="16.962375"><ele>495.0</ele><time>2026-03-28T15:21:07.393Z</time></trkpt><trkpt lat="39.2950267" lon="16.96247"><ele>497.4</ele><time>2026-03-28T15:21:08.394Z</time></trkpt><trkpt lat="39.29498" lon="16.9625767"><ele>499.8</ele><time>2026-03-28T15:21:09.393Z</time></trkpt><trkpt lat="39.2949233" lon="16.9626883"><ele>502.20000000000005</ele><time>2026-03-28T15:21:10.393Z</time></trkpt><trkpt lat="39.29488" lon="16.9627933"><ele>504.6</ele><time>2026-03-28T15:21:11.393Z</time></trkpt><trkpt lat="39.2948517" lon="16.9628817"><ele>507.0</ele><time>2026-03-28T15:21:12.393Z</time></trkpt><trkpt lat="39.2948433" lon="16.9629917"><ele>507.0</ele><time>2026-03-28T15:21:14.393Z</time></trkpt><trkpt lat="39.2948883" lon="16.96313"><ele>507.00000000000006</ele><time>2026-03-28T15:21:26.393Z</time></trkpt><trkpt lat="39.2949133" lon="16.9632767"><ele>507.00000000000006</ele><time>2026-03-28T15:21:28.394Z</time></trkpt><trkpt lat="39.2949317" lon="16.9634067"><ele>507.0</ele><time>2026-03-28T15:21:30.393Z</time></trkpt><trkpt lat="39.2949233" lon="16.9635367"><ele>507.0</ele><time>2026-03-28T15:21:32.393Z</time></trkpt><trkpt lat="39.2948967" lon="16.9636433"><ele>509.5</ele><time>2026-03-28T15:21:34.393Z</time></trkpt><trkpt lat="39.2948633" lon="16.9637333"><ele>512.0</ele><time>2026-03-28T15:21:36.393Z</time></trkpt><trkpt lat="39.2947833" lon="16.9638433"><ele>514.5</ele><time>2026-03-28T15:21:38.393Z</time></trkpt><trkpt lat="39.2947367" lon="16.9639017"><ele>517.0</ele><time>2026-03-28T15:21:39.393Z</time></trkpt><trkpt lat="39.2946783" lon="16.96397"><ele>519.5</ele><time>2026-03-28T15:21:40.393Z</time></trkpt><trkpt lat="39.2946333" lon="16.9640633"><ele>522.0</ele><time>2026-03-28T15:21:41.393Z</time></trkpt><trkpt lat="39.2945883" lon="16.9641567"><ele>518.4</ele><time>2026-03-28T15:21:42.393Z</time></trkpt><trkpt lat="39.2945267" lon="16.9642433"><ele>514.8000000000001</ele><time>2026-03-28T15:21:43.393Z</time></trkpt><trkpt lat="39.2944717" lon="16.9643267"><ele>511.2</ele><time>2026-03-28T15:21:44.393Z</time></trkpt><trkpt lat="39.2944333" lon="16.9644267"><ele>507.6</ele><time>2026-03-28T15:21:45.394Z</time></trkpt><trkpt lat="39.2943933" lon="16.96454"><ele>504.0</ele><time>2026-03-28T15:21:46.393Z</time></trkpt><trkpt lat="39.294345" lon="16.9646583"><ele>504.0</ele><time>2026-03-28T15:21:47.393Z</time></trkpt><trkpt lat="39.2943033" lon="16.9647767"><ele>504.0</ele><time>2026-03-28T15:21:48.394Z</time></trkpt><trkpt lat="39.29428" lon="16.9649"><ele>504.0</ele><time>2026-03-28T15:21:49.394Z</time></trkpt><trkpt lat="39.2942667" lon="16.9650167"><ele>504.0</ele><time>2026-03-28T15:21:50.393Z</time></trkpt><trkpt lat="39.294255" lon="16.9651283"><ele>504.0</ele><time>2026-03-28T15:21:51.393Z</time></trkpt><trkpt lat="39.294225" lon="16.965215"><ele>507.3333333333333</ele><time>2026-03-28T15:21:52.393Z</time></trkpt><trkpt lat="39.2941767" lon="16.9652867"><ele>510.66666666666663</ele><time>2026-03-28T15:21:53.393Z</time></trkpt><trkpt lat="39.2941217" lon="16.9653583"><ele>514.0</ele><time>2026-03-28T15:21:54.393Z</time></trkpt><trkpt lat="39.29408" lon="16.9654517"><ele>517.3333333333333</ele><time>2026-03-28T15:21:55.393Z</time></trkpt><trkpt lat="39.2940483" lon="16.96557"><ele>520.6666666666666</ele><time>2026-03-28T15:21:56.393Z</time></trkpt><trkpt lat="39.29402" lon="16.9656933"><ele>524.0</ele><time>2026-03-28T15:21:57.393Z</time></trkpt><trkpt lat="39.2939867" lon="16.9658117"><ele>524.0</ele><time>2026-03-28T15:21:58.393Z</time></trkpt><trkpt lat="39.293955" lon="16.9659083"><ele>524.0</ele><time>2026-03-28T15:21:59.393Z</time></trkpt><trkpt lat="39.2939283" lon="16.9660417"><ele>524.0</ele><time>2026-03-28T15:22:01.393Z</time></trkpt><trkpt lat="39.2940233" lon="16.9660067"><ele>524.0</ele><time>2026-03-28T15:22:04.394Z</time></trkpt><trkpt lat="39.2940783" lon="16.9659317"><ele>524.0</ele><time>2026-03-28T15:22:05.393Z</time></trkpt><trkpt lat="39.294145" lon="16.96585"><ele>524.0</ele><time>2026-03-28T15:22:06.393Z</time></trkpt><trkpt lat="39.2942233" lon="16.96576"><ele>524.0</ele><time>2026-03-28T15:22:07.393Z</time></trkpt><trkpt lat="39.2943033" lon="16.9656683"><ele>524.0</ele><time>2026-03-28T15:22:08.393Z</time></trkpt><trkpt lat="39.2943783" lon="16.9655817"><ele>524.0</ele><time>2026-03-28T15:22:09.393Z</time></trkpt><trkpt lat="39.2944367" lon="16.965515"><ele>524.0</ele><time>2026-03-28T15:22:10.393Z</time></trkpt><trkpt lat="39.2945117" lon="16.965505"><ele>524.0</ele><time>2026-03-28T15:22:12.393Z</time></trkpt><trkpt lat="39.2945117" lon="16.9655933"><ele>524.0</ele><time>2026-03-28T15:22:14.393Z</time></trkpt><trkpt lat="39.2944633" lon="16.96567"><ele>524.0</ele><time>2026-03-28T15:22:17.393Z</time></trkpt><trkpt lat="39.2943917" lon="16.965775"><ele>524.0</ele><time>2026-03-28T15:22:19.394Z</time></trkpt><trkpt lat="39.2943483" lon="16.96585"><ele>524.0</ele><time>2026-03-28T15:22:20.393Z</time></trkpt><trkpt lat="39.2943133" lon="16.9659417"><ele>524.0</ele><time>2026-03-28T15:22:21.393Z</time></trkpt><trkpt lat="39.294285" lon="16.9660583"><ele>529.75</ele><time>2026-03-28T15:22:22.393Z</time></trkpt><trkpt lat="39.2942667" lon="16.9661867"><ele>535.5</ele><time>2026-03-28T15:22:23.393Z</time></trkpt><trkpt lat="39.29425" lon="16.9663333"><ele>541.25</ele><time>2026-03-28T15:22:24.393Z</time></trkpt><trkpt lat="39.2942267" lon="16.9664917"><ele>547.0</ele><time>2026-03-28T15:22:25.393Z</time></trkpt><trkpt lat="39.2942033" lon="16.96663"><ele>545.0</ele><time>2026-03-28T15:22:26.393Z</time></trkpt><trkpt lat="39.2941667" lon="16.9667467"><ele>543.0</ele><time>2026-03-28T15:22:27.393Z</time></trkpt><trkpt lat="39.294115" lon="16.9668433"><ele>541.0</ele><time>2026-03-28T15:22:28.393Z</time></trkpt><trkpt lat="39.2940517" lon="16.966935"><ele>539.0</ele><time>2026-03-28T15:22:29.393Z</time></trkpt><trkpt lat="39.293975" lon="16.9670067"><ele>537.0</ele><time>2026-03-28T15:22:30.393Z</time></trkpt><trkpt lat="39.293895" lon="16.9670683"><ele>537.0</ele><time>2026-03-28T15:22:31.393Z</time></trkpt><trkpt lat="39.2938283" lon="16.96714"><ele>537.0</ele><time>2026-03-28T15:22:32.394Z</time></trkpt><trkpt lat="39.29379" lon="16.9672433"><ele>537.0</ele><time>2026-03-28T15:22:33.393Z</time></trkpt><trkpt lat="39.2937667" lon="16.9673533"><ele>537.0</ele><time>2026-03-28T15:22:34.393Z</time></trkpt><trkpt lat="39.2937667" lon="16.9674617"><ele>537.0</ele><time>2026-03-28T15:22:35.393Z</time></trkpt><trkpt lat="39.2937567" lon="16.967565"><ele>537.0</ele><time>2026-03-28T15:22:36.393Z</time></trkpt><trkpt lat="39.293735" lon="16.967655"><ele>543.3333333333334</ele><time>2026-03-28T15:22:37.393Z</time></trkpt><trkpt lat="39.2936967" lon="16.96772"><ele>549.6666666666666</ele><time>2026-03-28T15:22:38.393Z</time></trkpt><trkpt lat="39.2935867" lon="16.9678117"><ele>556.0</ele><time>2026-03-28T15:22:40.393Z</time></trkpt><trkpt lat="39.2935133" lon="16.9678617"><ele>562.3333333333333</ele><time>2026-03-28T15:22:41.393Z</time></trkpt><trkpt lat="39.2934533" lon="16.9679333"><ele>568.6666666666666</ele><time>2026-03-28T15:22:42.393Z</time></trkpt><trkpt lat="39.29339" lon="16.9680083"><ele>575.0</ele><time>2026-03-28T15:22:43.393Z</time></trkpt><trkpt lat="39.2933217" lon="16.9680883"><ele>575.0</ele><time>2026-03-28T15:22:44.393Z</time></trkpt><trkpt lat="39.293245" lon="16.9681467"><ele>575.0</ele><time>2026-03-28T15:22:45.393Z</time></trkpt><trkpt lat="39.2931683" lon="16.9681817"><ele>575.0</ele><time>2026-03-28T15:22:46.393Z</time></trkpt><trkpt lat="39.2930867" lon="16.9681983"><ele>575.0</ele><time>2026-03-28T15:22:47.393Z</time></trkpt><trkpt lat="39.293015" lon="16.9681967"><ele>575.0</ele><time>2026-03-28T15:22:48.393Z</time></trkpt><trkpt lat="39.2929517" lon="16.968195"><ele>575.0</ele><time>2026-03-28T15:22:49.394Z</time></trkpt><trkpt lat="39.2928833" lon="16.9682267"><ele>573.3333333333333</ele><time>2026-03-28T15:22:51.393Z</time></trkpt><trkpt lat="39.2929267" lon="16.968295"><ele>571.6666666666666</ele><time>2026-03-28T15:22:53.393Z</time></trkpt><trkpt lat="39.2929767" lon="16.96835"><ele>570.0</ele><time>2026-03-28T15:22:54.393Z</time></trkpt><trkpt lat="39.2930417" lon="16.9684217"><ele>568.3333333333334</ele><time>2026-03-28T15:22:55.393Z</time></trkpt><trkpt lat="39.2931233" lon="16.96849"><ele>566.6666666666667</ele><time>2026-03-28T15:22:56.393Z</time></trkpt><trkpt lat="39.2932117" lon="16.9685483"><ele>565.0</ele><time>2026-03-28T15:22:57.393Z</time></trkpt><trkpt lat="39.2932983" lon="16.9685967"><ele>568.6666666666667</ele><time>2026-03-28T15:22:58.393Z</time></trkpt><trkpt lat="39.2933683" lon="16.9686583"><ele>572.3333333333334</ele><time>2026-03-28T15:22:59.393Z</time></trkpt><trkpt lat="39.2934067" lon="16.9687267"><ele>576.0</ele><time>2026-03-28T15:23:00.393Z</time></trkpt><trkpt lat="39.29337" lon="16.96889"><ele>579.6666666666666</ele><time>2026-03-28T15:23:02.393Z</time></trkpt><trkpt lat="39.29332" lon="16.9689667"><ele>583.3333333333333</ele><time>2026-03-28T15:23:03.394Z</time></trkpt><trkpt lat="39.2932867" lon="16.9690733"><ele>587.0</ele><time>2026-03-28T15:23:05.393Z</time></trkpt><trkpt lat="39.293235" lon="16.9692117"><ele>588.0</ele><time>2026-03-28T15:23:07.393Z</time></trkpt><trkpt lat="39.2931983" lon="16.9693533"><ele>589.0</ele><time>2026-03-28T15:23:09.393Z</time></trkpt><trkpt lat="39.2931867" lon="16.9694667"><ele>590.0</ele><time>2026-03-28T15:23:11.393Z</time></trkpt><trkpt lat="39.29318" lon="16.969555"><ele>591.0</ele><time>2026-03-28T15:23:13.393Z</time></trkpt><trkpt lat="39.29318" lon="16.9696533"><ele>592.0</ele><time>2026-03-28T15:23:16.393Z</time></trkpt><trkpt lat="39.2932517" lon="16.9697"><ele>593.0</ele><time>2026-03-28T15:23:19.394Z</time></trkpt><trkpt lat="39.2933" lon="16.9696383"><ele>593.0</ele><time>2026-03-28T15:23:22.395Z</time></trkpt><trkpt lat="39.293355" lon="16.96958"><ele>593.0</ele><time>2026-03-28T15:23:41.395Z</time></trkpt><trkpt lat="39.2933983" lon="16.96951"><ele>593.0</ele><time>2026-03-28T15:23:42.394Z</time></trkpt><trkpt lat="39.2934483" lon="16.9694317"><ele>593.0</ele><time>2026-03-28T15:23:43.394Z</time></trkpt><trkpt lat="39.2935183" lon="16.969345"><ele>593.0</ele><time>2026-03-28T15:23:44.394Z</time></trkpt><trkpt lat="39.293595" lon="16.969235"><ele>593.0</ele><time>2026-03-28T15:23:45.394Z</time></trkpt><trkpt lat="39.2936983" lon="16.9691167"><ele>591.3333333333333</ele><time>2026-03-28T15:23:46.394Z</time></trkpt><trkpt lat="39.2938217" lon="16.968995"><ele>589.6666666666666</ele><time>2026-03-28T15:23:47.394Z</time></trkpt><trkpt lat="39.2939467" lon="16.9688533"><ele>588.0</ele><time>2026-03-28T15:23:48.394Z</time></trkpt><trkpt lat="39.294085" lon="16.9687117"><ele>588.0</ele><time>2026-03-28T15:23:49.394Z</time></trkpt><trkpt lat="39.2942217" lon="16.9685733"><ele>588.0</ele><time>2026-03-28T15:23:50.395Z</time></trkpt><trkpt lat="39.294365" lon="16.9684367"><ele>588.0</ele><time>2026-03-28T15:23:51.394Z</time></trkpt><trkpt lat="39.2945033" lon="16.9683033"><ele>589.6666666666666</ele><time>2026-03-28T15:23:52.394Z</time></trkpt><trkpt lat="39.294645" lon="16.968175"><ele>591.3333333333333</ele><time>2026-03-28T15:23:53.395Z</time></trkpt><trkpt lat="39.2947867" lon="16.9680517"><ele>593.0</ele><time>2026-03-28T15:23:54.394Z</time></trkpt><trkpt lat="39.2949267" lon="16.96791"><ele>593.0</ele><time>2026-03-28T15:23:55.394Z</time></trkpt><trkpt lat="39.2950733" lon="16.9677467"><ele>593.0</ele><time>2026-03-28T15:23:56.394Z</time></trkpt><trkpt lat="39.295215" lon="16.9675833"><ele>593.0</ele><time>2026-03-28T15:23:57.394Z</time></trkpt><trkpt lat="39.29535" lon="16.9674467"><ele>595.5</ele><time>2026-03-28T15:23:58.394Z</time></trkpt><trkpt lat="39.2954833" lon="16.9673383"><ele>598.0</ele><time>2026-03-28T15:23:59.394Z</time></trkpt><trkpt lat="39.2956217" lon="16.9672533"><ele>600.5</ele><time>2026-03-28T15:24:00.394Z</time></trkpt><trkpt lat="39.2957417" lon="16.96719"><ele>603.0</ele><time>2026-03-28T15:24:01.394Z</time></trkpt><trkpt lat="39.2958433" lon="16.967135"><ele>603.0</ele><time>2026-03-28T15:24:02.394Z</time></trkpt><trkpt lat="39.2959267" lon="16.967035"><ele>603.0</ele><time>2026-03-28T15:24:03.394Z</time></trkpt><trkpt lat="39.29599" lon="16.9668783"><ele>603.0</ele><time>2026-03-28T15:24:04.394Z</time></trkpt><trkpt lat="39.2960517" lon="16.9666983"><ele>603.0</ele><time>2026-03-28T15:24:05.395Z</time></trkpt><trkpt lat="39.2961117" lon="16.9665"><ele>605.0</ele><time>2026-03-28T15:24:06.395Z</time></trkpt><trkpt lat="39.2961783" lon="16.9662883"><ele>607.0</ele><time>2026-03-28T15:24:07.394Z</time></trkpt><trkpt lat="39.2962483" lon="16.96605"><ele>609.0</ele><time>2026-03-28T15:24:08.395Z</time></trkpt><trkpt lat="39.29632" lon="16.9658267"><ele>609.0</ele><time>2026-03-28T15:24:09.394Z</time></trkpt><trkpt lat="39.2963767" lon="16.965645"><ele>609.0</ele><time>2026-03-28T15:24:10.394Z</time></trkpt><trkpt lat="39.29642" lon="16.96551"><ele>609.0</ele><time>2026-03-28T15:24:11.394Z</time></trkpt><trkpt lat="39.296465" lon="16.965425"><ele>609.0</ele><time>2026-03-28T15:24:12.395Z</time></trkpt><trkpt lat="39.2965233" lon="16.965365"><ele>609.0</ele><time>2026-03-28T15:24:14.394Z</time></trkpt><trkpt lat="39.29659" lon="16.9653283"><ele>611.6666666666666</ele><time>2026-03-28T15:24:20.394Z</time></trkpt><trkpt lat="39.2966517" lon="16.9652433"><ele>614.3333333333334</ele><time>2026-03-28T15:24:22.394Z</time></trkpt><trkpt lat="39.2967283" lon="16.9651983"><ele>617.0</ele><time>2026-03-28T15:24:24.394Z</time></trkpt><trkpt lat="39.296815" lon="16.9651617"><ele>619.6666666666667</ele><time>2026-03-28T15:24:26.394Z</time></trkpt><trkpt lat="39.29692" lon="16.9650917"><ele>622.3333333333334</ele><time>2026-03-28T15:24:28.394Z</time></trkpt><trkpt lat="39.2969783" lon="16.9650567"><ele>625.0</ele><time>2026-03-28T15:24:29.394Z</time></trkpt><trkpt lat="39.29704" lon="16.9649833"><ele>627.4</ele><time>2026-03-28T15:24:31.394Z</time></trkpt><trkpt lat="39.2970683" lon="16.964885"><ele>629.8</ele><time>2026-03-28T15:24:33.395Z</time></trkpt><trkpt lat="39.2970533" lon="16.964755"><ele>632.2</ele><time>2026-03-28T15:24:35.394Z</time></trkpt><trkpt lat="39.2969767" lon="16.9646367"><ele>634.6</ele><time>2026-03-28T15:24:37.395Z</time></trkpt><trkpt lat="39.2968683" lon="16.964555"><ele>637.0</ele><time>2026-03-28T15:24:39.394Z</time></trkpt><trkpt lat="39.2967817" lon="16.96451"><ele>637.0</ele><time>2026-03-28T15:24:41.394Z</time></trkpt><trkpt lat="39.29669" lon="16.9644833"><ele>637.0</ele><time>2026-03-28T15:25:05.394Z</time></trkpt><trkpt lat="39.2966167" lon="16.964485"><ele>637.0</ele><time>2026-03-28T15:25:09.395Z</time></trkpt><trkpt lat="39.2965767" lon="16.96459"><ele>637.0</ele><time>2026-03-28T15:25:13.395Z</time></trkpt><trkpt lat="39.2965283" lon="16.964665"><ele>637.0</ele><time>2026-03-28T15:25:16.394Z</time></trkpt><trkpt lat="39.2965683" lon="16.9645733"><ele>637.0</ele><time>2026-03-28T15:35:33.395Z</time></trkpt><trkpt lat="39.2966167" lon="16.9645083"><ele>637.0</ele><time>2026-03-28T15:36:25.394Z</time></trkpt><trkpt lat="39.2967033" lon="16.964515"><ele>637.0</ele><time>2026-03-28T15:36:28.394Z</time></trkpt><trkpt lat="39.2967667" lon="16.9645283"><ele>637.0</ele><time>2026-03-28T15:36:30.394Z</time></trkpt><trkpt lat="39.296845" lon="16.96455"><ele>637.0</ele><time>2026-03-28T15:36:32.395Z</time></trkpt><trkpt lat="39.2969167" lon="16.9646"><ele>637.0</ele><time>2026-03-28T15:36:34.394Z</time></trkpt><trkpt lat="39.2970017" lon="16.96467"><ele>637.0</ele><time>2026-03-28T15:36:36.394Z</time></trkpt><trkpt lat="39.297075" lon="16.9647767"><ele>637.0</ele><time>2026-03-28T15:36:38.394Z</time></trkpt><trkpt lat="39.2970817" lon="16.9648933"><ele>637.0</ele><time>2026-03-28T15:36:40.394Z</time></trkpt><trkpt lat="39.2970433" lon="16.9649883"><ele>637.0</ele><time>2026-03-28T15:36:42.395Z</time></trkpt><trkpt lat="39.2969883" lon="16.9650483"><ele>637.0</ele><time>2026-03-28T15:36:43.394Z</time></trkpt><trkpt lat="39.29692" lon="16.9651083"><ele>637.0</ele><time>2026-03-28T15:36:44.394Z</time></trkpt><trkpt lat="39.2968383" lon="16.9651567"><ele>637.0</ele><time>2026-03-28T15:36:45.394Z</time></trkpt><trkpt lat="39.296775" lon="16.9651867"><ele>635.2857142857143</ele><time>2026-03-28T15:36:46.394Z</time></trkpt><trkpt lat="39.2967117" lon="16.9652167"><ele>633.5714285714286</ele><time>2026-03-28T15:36:47.395Z</time></trkpt><trkpt lat="39.2966217" lon="16.9652517"><ele>631.8571428571429</ele><time>2026-03-28T15:36:49.394Z</time></trkpt><trkpt lat="39.296565" lon="16.9652933"><ele>630.1428571428571</ele><time>2026-03-28T15:36:51.394Z</time></trkpt><trkpt lat="39.29652" lon="16.96536"><ele>628.4285714285714</ele><time>2026-03-28T15:37:01.396Z</time></trkpt><trkpt lat="39.2964733" lon="16.96543"><ele>626.7142857142858</ele><time>2026-03-28T15:37:03.395Z</time></trkpt><trkpt lat="39.2964283" lon="16.9655133"><ele>625.0</ele><time>2026-03-28T15:37:05.395Z</time></trkpt><trkpt lat="39.2963733" lon="16.965615"><ele>623.1428571428572</ele><time>2026-03-28T15:37:07.396Z</time></trkpt><trkpt lat="39.2963267" lon="16.9657067"><ele>621.2857142857143</ele><time>2026-03-28T15:37:09.395Z</time></trkpt><trkpt lat="39.29629" lon="16.96579"><ele>619.4285714285714</ele><time>2026-03-28T15:37:12.395Z</time></trkpt><trkpt lat="39.2962617" lon="16.9658733"><ele>617.5714285714287</ele><time>2026-03-28T15:37:14.395Z</time></trkpt><trkpt lat="39.29624" lon="16.9659517"><ele>615.7142857142858</ele><time>2026-03-28T15:37:16.395Z</time></trkpt><trkpt lat="39.296215" lon="16.9660383"><ele>613.8571428571429</ele><time>2026-03-28T15:37:18.395Z</time></trkpt><trkpt lat="39.2961917" lon="16.9661383"><ele>612.0</ele><time>2026-03-28T15:37:20.395Z</time></trkpt><trkpt lat="39.29616" lon="16.9662533"><ele>612.0</ele><time>2026-03-28T15:37:22.396Z</time></trkpt><trkpt lat="39.296115" lon="16.9664"><ele>612.0</ele><time>2026-03-28T15:37:24.395Z</time></trkpt><trkpt lat="39.296075" lon="16.96652"><ele>612.0</ele><time>2026-03-28T15:37:26.396Z</time></trkpt><trkpt lat="39.2960533" lon="16.9666217"><ele>612.0</ele><time>2026-03-28T15:37:28.395Z</time></trkpt><trkpt lat="39.2960383" lon="16.96671"><ele>612.0</ele><time>2026-03-28T15:37:30.395Z</time></trkpt><trkpt lat="39.296025" lon="16.966795"><ele>612.0</ele><time>2026-03-28T15:37:32.395Z</time></trkpt><trkpt lat="39.29602" lon="16.966885"><ele>610.2</ele><time>2026-03-28T15:37:34.395Z</time></trkpt><trkpt lat="39.2960067" lon="16.9669933"><ele>608.4000000000001</ele><time>2026-03-28T15:37:36.396Z</time></trkpt><trkpt lat="39.296" lon="16.9671067"><ele>606.5999999999999</ele><time>2026-03-28T15:37:38.395Z</time></trkpt><trkpt lat="39.2959983" lon="16.967235"><ele>604.8</ele><time>2026-03-28T15:37:40.395Z</time></trkpt><trkpt lat="39.2960067" lon="16.967355"><ele>603.0</ele><time>2026-03-28T15:37:42.395Z</time></trkpt><trkpt lat="39.296005" lon="16.9674983"><ele>600.0</ele><time>2026-03-28T15:37:44.395Z</time></trkpt><trkpt lat="39.296035" lon="16.9676483"><ele>597.0</ele><time>2026-03-28T15:37:46.395Z</time></trkpt><trkpt lat="39.2960567" lon="16.96779"><ele>594.0</ele><time>2026-03-28T15:37:48.395Z</time></trkpt><trkpt lat="39.296075" lon="16.967935"><ele>591.0</ele><time>2026-03-28T15:37:50.395Z</time></trkpt><trkpt lat="39.29609" lon="16.9680783"><ele>591.0</ele><time>2026-03-28T15:37:52.395Z</time></trkpt><trkpt lat="39.2960833" lon="16.9682167"><ele>591.0</ele><time>2026-03-28T15:37:54.395Z</time></trkpt><trkpt lat="39.2960717" lon="16.9682967"><ele>591.0</ele><time>2026-03-28T15:37:55.395Z</time></trkpt><trkpt lat="39.2960767" lon="16.9684117"><ele>591.0</ele><time>2026-03-28T15:37:57.396Z</time></trkpt><trkpt lat="39.2961017" lon="16.968545"><ele>591.0</ele><time>2026-03-28T15:37:59.395Z</time></trkpt><trkpt lat="39.2961517" lon="16.9686717"><ele>588.8333333333334</ele><time>2026-03-28T15:38:01.395Z</time></trkpt><trkpt lat="39.2961967" lon="16.968805"><ele>586.6666666666666</ele><time>2026-03-28T15:38:03.395Z</time></trkpt><trkpt lat="39.2962133" lon="16.9688983"><ele>584.5</ele><time>2026-03-28T15:38:04.396Z</time></trkpt><trkpt lat="39.2962367" lon="16.9689867"><ele>582.3333333333333</ele><time>2026-03-28T15:38:05.395Z</time></trkpt><trkpt lat="39.2962733" lon="16.9690583"><ele>580.1666666666666</ele><time>2026-03-28T15:38:06.395Z</time></trkpt><trkpt lat="39.2963383" lon="16.96912"><ele>578.0</ele><time>2026-03-28T15:38:07.396Z</time></trkpt><trkpt lat="39.2964083" lon="16.96916"><ele>577.1999999999999</ele><time>2026-03-28T15:38:08.395Z</time></trkpt><trkpt lat="39.296475" lon="16.9691817"><ele>576.4</ele><time>2026-03-28T15:38:09.395Z</time></trkpt><trkpt lat="39.29657" lon="16.9692133"><ele>575.5999999999999</ele><time>2026-03-28T15:38:11.396Z</time></trkpt><trkpt lat="39.2966517" lon="16.969275"><ele>574.8</ele><time>2026-03-28T15:38:13.395Z</time></trkpt><trkpt lat="39.29673" lon="16.9693517"><ele>574.0</ele><time>2026-03-28T15:38:15.395Z</time></trkpt><trkpt lat="39.2968033" lon="16.969445"><ele>574.0</ele><time>2026-03-28T15:38:17.396Z</time></trkpt><trkpt lat="39.2968867" lon="16.9695417"><ele>574.0</ele><time>2026-03-28T15:38:19.395Z</time></trkpt><trkpt lat="39.296975" lon="16.9696517"><ele>574.0</ele><time>2026-03-28T15:38:21.395Z</time></trkpt><trkpt lat="39.2970233" lon="16.9697067"><ele>574.0</ele><time>2026-03-28T15:38:22.395Z</time></trkpt><trkpt lat="39.2970867" lon="16.9697717"><ele>574.0</ele><time>2026-03-28T15:38:23.395Z</time></trkpt><trkpt lat="39.2971567" lon="16.9698333"><ele>574.0</ele><time>2026-03-28T15:38:24.396Z</time></trkpt><trkpt lat="39.2972183" lon="16.969895"><ele>574.0</ele><time>2026-03-28T15:38:25.395Z</time></trkpt><trkpt lat="39.2972767" lon="16.9699783"><ele>574.0</ele><time>2026-03-28T15:38:26.395Z</time></trkpt><trkpt lat="39.2973133" lon="16.9700517"><ele>574.0</ele><time>2026-03-28T15:38:27.396Z</time></trkpt><trkpt lat="39.2973517" lon="16.9701367"><ele>574.0</ele><time>2026-03-28T15:38:28.396Z</time></trkpt><trkpt lat="39.2973833" lon="16.9702233"><ele>574.0</ele><time>2026-03-28T15:38:29.395Z</time></trkpt><trkpt lat="39.29742" lon="16.9703067"><ele>573.2</ele><time>2026-03-28T15:38:30.395Z</time></trkpt><trkpt lat="39.2974567" lon="16.970385"><ele>572.4</ele><time>2026-03-28T15:38:31.395Z</time></trkpt><trkpt lat="39.2974867" lon="16.9704567"><ele>571.6</ele><time>2026-03-28T15:38:32.395Z</time></trkpt><trkpt lat="39.29755" lon="16.9705983"><ele>570.8</ele><time>2026-03-28T15:38:34.396Z</time></trkpt><trkpt lat="39.2976" lon="16.9707383"><ele>570.0</ele><time>2026-03-28T15:38:36.395Z</time></trkpt><trkpt lat="39.2976517" lon="16.97087"><ele>568.2857142857142</ele><time>2026-03-28T15:38:38.395Z</time></trkpt><trkpt lat="39.2976767" lon="16.9709567"><ele>566.5714285714286</ele><time>2026-03-28T15:38:39.395Z</time></trkpt><trkpt lat="39.2976933" lon="16.97104"><ele>564.8571428571429</ele><time>2026-03-28T15:38:40.395Z</time></trkpt><trkpt lat="39.2977117" lon="16.97113"><ele>563.1428571428571</ele><time>2026-03-28T15:38:41.396Z</time></trkpt><trkpt lat="39.2977233" lon="16.9712183"><ele>561.4285714285714</ele><time>2026-03-28T15:38:42.395Z</time></trkpt><trkpt lat="39.2977367" lon="16.9713117"><ele>559.7142857142857</ele><time>2026-03-28T15:38:43.395Z</time></trkpt><trkpt lat="39.2977517" lon="16.97141"><ele>558.0</ele><time>2026-03-28T15:38:44.395Z</time></trkpt><trkpt lat="39.2977683" lon="16.971505"><ele>558.0</ele><time>2026-03-28T15:38:45.395Z</time></trkpt><trkpt lat="39.2977833" lon="16.971595"><ele>558.0</ele><time>2026-03-28T15:38:46.395Z</time></trkpt><trkpt lat="39.2977917" lon="16.9716867"><ele>558.0</ele><time>2026-03-28T15:38:47.395Z</time></trkpt><trkpt lat="39.2977867" lon="16.9717783"><ele>558.0</ele><time>2026-03-28T15:38:48.395Z</time></trkpt><trkpt lat="39.2977667" lon="16.9718717"><ele>558.0</ele><time>2026-03-28T15:38:49.395Z</time></trkpt><trkpt lat="39.2977283" lon="16.9719683"><ele>558.0</ele><time>2026-03-28T15:38:50.395Z</time></trkpt><trkpt lat="39.2976933" lon="16.9720633"><ele>555.1999999999999</ele><time>2026-03-28T15:38:51.395Z</time></trkpt><trkpt lat="39.297645" lon="16.9721717"><ele>552.4</ele><time>2026-03-28T15:38:52.395Z</time></trkpt><trkpt lat="39.2975933" lon="16.9722767"><ele>549.5999999999999</ele><time>2026-03-28T15:38:53.396Z</time></trkpt><trkpt lat="39.297565" lon="16.9723733"><ele>546.8</ele><time>2026-03-28T15:38:54.395Z</time></trkpt><trkpt lat="39.2975367" lon="16.972495"><ele>544.0</ele><time>2026-03-28T15:38:55.396Z</time></trkpt><trkpt lat="39.29751" lon="16.9726233"><ele>541.6666666666667</ele><time>2026-03-28T15:38:56.395Z</time></trkpt><trkpt lat="39.2974783" lon="16.97274"><ele>539.3333333333334</ele><time>2026-03-28T15:38:57.395Z</time></trkpt><trkpt lat="39.297435" lon="16.97284"><ele>537.0</ele><time>2026-03-28T15:38:58.395Z</time></trkpt><trkpt lat="39.29739" lon="16.9729367"><ele>534.6666666666666</ele><time>2026-03-28T15:38:59.396Z</time></trkpt><trkpt lat="39.2973433" lon="16.97303"><ele>532.3333333333333</ele><time>2026-03-28T15:39:00.395Z</time></trkpt><trkpt lat="39.2973067" lon="16.9731117"><ele>530.0</ele><time>2026-03-28T15:39:01.395Z</time></trkpt><trkpt lat="39.29729" lon="16.973285"><ele>526.8333333333333</ele><time>2026-03-28T15:39:03.395Z</time></trkpt><trkpt lat="39.2973083" lon="16.9733633"><ele>523.6666666666666</ele><time>2026-03-28T15:39:04.395Z</time></trkpt><trkpt lat="39.2973433" lon="16.973455"><ele>520.5</ele><time>2026-03-28T15:39:05.395Z</time></trkpt><trkpt lat="39.2973817" lon="16.9735517"><ele>517.3333333333334</ele><time>2026-03-28T15:39:06.395Z</time></trkpt><trkpt lat="39.29741" lon="16.973655"><ele>514.1666666666667</ele><time>2026-03-28T15:39:07.395Z</time></trkpt><trkpt lat="39.2974383" lon="16.9737733"><ele>511.0</ele><time>2026-03-28T15:39:08.395Z</time></trkpt><trkpt lat="39.2974617" lon="16.9739033"><ele>511.0</ele><time>2026-03-28T15:39:09.395Z</time></trkpt><trkpt lat="39.2974867" lon="16.9740367"><ele>511.0</ele><time>2026-03-28T15:39:10.395Z</time></trkpt><trkpt lat="39.2975083" lon="16.9741683"><ele>511.0</ele><time>2026-03-28T15:39:11.395Z</time></trkpt><trkpt lat="39.2975183" lon="16.9743083"><ele>511.0</ele><time>2026-03-28T15:39:12.395Z</time></trkpt><trkpt lat="39.297525" lon="16.9744183"><ele>511.0</ele><time>2026-03-28T15:39:13.395Z</time></trkpt><trkpt lat="39.2975333" lon="16.9745383"><ele>508.6666666666667</ele><time>2026-03-28T15:39:14.395Z</time></trkpt><trkpt lat="39.2975633" lon="16.9746283"><ele>506.33333333333337</ele><time>2026-03-28T15:39:15.395Z</time></trkpt><trkpt lat="39.2976083" lon="16.9747083"><ele>504.0</ele><time>2026-03-28T15:39:16.396Z</time></trkpt><trkpt lat="39.29766" lon="16.9747833"><ele>501.66666666666663</ele><time>2026-03-28T15:39:17.396Z</time></trkpt><trkpt lat="39.2977167" lon="16.9748333"><ele>499.3333333333333</ele><time>2026-03-28T15:39:18.395Z</time></trkpt><trkpt lat="39.2977883" lon="16.9749433"><ele>497.0</ele><time>2026-03-28T15:39:20.396Z</time></trkpt><trkpt lat="39.297815" lon="16.9750183"><ele>493.99999999999994</ele><time>2026-03-28T15:39:21.395Z</time></trkpt><trkpt lat="39.2978283" lon="16.975115"><ele>491.0</ele><time>2026-03-28T15:39:22.395Z</time></trkpt><trkpt lat="39.29783" lon="16.97521"><ele>488.0</ele><time>2026-03-28T15:39:23.395Z</time></trkpt><trkpt lat="39.29784" lon="16.9753067"><ele>485.0</ele><time>2026-03-28T15:39:24.395Z</time></trkpt><trkpt lat="39.2978583" lon="16.97539"><ele>481.99999999999994</ele><time>2026-03-28T15:39:25.395Z</time></trkpt><trkpt lat="39.2979017" lon="16.9755333"><ele>479.0</ele><time>2026-03-28T15:39:27.395Z</time></trkpt><trkpt lat="39.2979883" lon="16.9756067"><ele>479.16666666666663</ele><time>2026-03-28T15:39:29.395Z</time></trkpt><trkpt lat="39.2981017" lon="16.9756833"><ele>479.3333333333333</ele><time>2026-03-28T15:39:31.395Z</time></trkpt><trkpt lat="39.29816" lon="16.9757517"><ele>479.5</ele><time>2026-03-28T15:39:32.395Z</time></trkpt><trkpt lat="39.2982183" lon="16.9758317"><ele>479.66666666666663</ele><time>2026-03-28T15:39:33.395Z</time></trkpt><trkpt lat="39.29827" lon="16.975895"><ele>479.8333333333333</ele><time>2026-03-28T15:39:34.395Z</time></trkpt><trkpt lat="39.2983183" lon="16.9759733"><ele>480.0</ele><time>2026-03-28T15:39:35.395Z</time></trkpt><trkpt lat="39.2983683" lon="16.9760467"><ele>478.1666666666667</ele><time>2026-03-28T15:39:36.395Z</time></trkpt><trkpt lat="39.2984167" lon="16.9761133"><ele>476.33333333333337</ele><time>2026-03-28T15:39:37.396Z</time></trkpt><trkpt lat="39.2984533" lon="16.97618"><ele>474.5</ele><time>2026-03-28T15:39:38.395Z</time></trkpt><trkpt lat="39.2984883" lon="16.976295"><ele>472.6666666666667</ele><time>2026-03-28T15:39:40.395Z</time></trkpt><trkpt lat="39.2985133" lon="16.9763767"><ele>470.83333333333337</ele><time>2026-03-28T15:39:42.396Z</time></trkpt><trkpt lat="39.2985583" lon="16.97631"><ele>469.0</ele><time>2026-03-28T15:39:47.395Z</time></trkpt><trkpt lat="39.298525" lon="16.9762017"><ele>469.00000000000006</ele><time>2026-03-28T15:39:49.395Z</time></trkpt><trkpt lat="39.2984833" lon="16.9760633"><ele>469.0</ele><time>2026-03-28T15:39:51.395Z</time></trkpt><trkpt lat="39.2984467" lon="16.9759783"><ele>469.0</ele><time>2026-03-28T15:39:52.396Z</time></trkpt><trkpt lat="39.298405" lon="16.9758967"><ele>469.0</ele><time>2026-03-28T15:39:53.395Z</time></trkpt><trkpt lat="39.2983583" lon="16.97581"><ele>469.00000000000006</ele><time>2026-03-28T15:39:54.395Z</time></trkpt><trkpt lat="39.2983167" lon="16.97571"><ele>469.0</ele><time>2026-03-28T15:39:55.396Z</time></trkpt><trkpt lat="39.2982967" lon="16.9756"><ele>470.83333333333337</ele><time>2026-03-28T15:39:56.396Z</time></trkpt><trkpt lat="39.2982817" lon="16.975495"><ele>472.6666666666667</ele><time>2026-03-28T15:39:57.395Z</time></trkpt><trkpt lat="39.2982867" lon="16.9753983"><ele>474.5</ele><time>2026-03-28T15:39:58.396Z</time></trkpt><trkpt lat="39.2983217" lon="16.9753133"><ele>476.33333333333337</ele><time>2026-03-28T15:39:59.395Z</time></trkpt><trkpt lat="39.2983833" lon="16.9752467"><ele>478.1666666666667</ele><time>2026-03-28T15:40:00.395Z</time></trkpt><trkpt lat="39.2984567" lon="16.9751933"><ele>480.0</ele><time>2026-03-28T15:40:01.396Z</time></trkpt><trkpt lat="39.2985117" lon="16.975135"><ele>480.0</ele><time>2026-03-28T15:40:02.395Z</time></trkpt><trkpt lat="39.2985467" lon="16.9750383"><ele>480.0</ele><time>2026-03-28T15:40:03.395Z</time></trkpt><trkpt lat="39.298535" lon="16.9749317"><ele>480.0</ele><time>2026-03-28T15:40:04.395Z</time></trkpt><trkpt lat="39.2984917" lon="16.9748417"><ele>480.0</ele><time>2026-03-28T15:40:05.395Z</time></trkpt><trkpt lat="39.2984433" lon="16.97477"><ele>480.0</ele><time>2026-03-28T15:40:06.395Z</time></trkpt><trkpt lat="39.29837" lon="16.9746917"><ele>480.0</ele><time>2026-03-28T15:40:07.395Z</time></trkpt><trkpt lat="39.2983033" lon="16.9746117"><ele>481.14285714285717</ele><time>2026-03-28T15:40:08.395Z</time></trkpt><trkpt lat="39.2982317" lon="16.97455"><ele>482.2857142857142</ele><time>2026-03-28T15:40:09.395Z</time></trkpt><trkpt lat="39.298165" lon="16.97449"><ele>483.4285714285714</ele><time>2026-03-28T15:40:10.395Z</time></trkpt><trkpt lat="39.298105" lon="16.9744283"><ele>484.57142857142856</ele><time>2026-03-28T15:40:11.395Z</time></trkpt><trkpt lat="39.2980533" lon="16.9743683"><ele>485.71428571428567</ele><time>2026-03-28T15:40:12.396Z</time></trkpt><trkpt lat="39.298015" lon="16.9742933"><ele>486.8571428571428</ele><time>2026-03-28T15:40:13.395Z</time></trkpt><trkpt lat="39.2979933" lon="16.9742133"><ele>487.99999999999994</ele><time>2026-03-28T15:40:14.395Z</time></trkpt><trkpt lat="39.2980133" lon="16.9740517"><ele>487.8333333333333</ele><time>2026-03-28T15:40:16.396Z</time></trkpt><trkpt lat="39.2980633" lon="16.97399"><ele>487.66666666666663</ele><time>2026-03-28T15:40:17.395Z</time></trkpt><trkpt lat="39.2981417" lon="16.9739467"><ele>487.5</ele><time>2026-03-28T15:40:18.395Z</time></trkpt><trkpt lat="39.29823" lon="16.973905"><ele>487.33333333333337</ele><time>2026-03-28T15:40:19.395Z</time></trkpt><trkpt lat="39.298315" lon="16.9738733"><ele>487.1666666666667</ele><time>2026-03-28T15:40:20.396Z</time></trkpt><trkpt lat="39.2983933" lon="16.9738417"><ele>487.0</ele><time>2026-03-28T15:40:21.395Z</time></trkpt><trkpt lat="39.298465" lon="16.9738067"><ele>487.00000000000006</ele><time>2026-03-28T15:40:22.395Z</time></trkpt><trkpt lat="39.29853" lon="16.973775"><ele>487.0</ele><time>2026-03-28T15:40:23.396Z</time></trkpt><trkpt lat="39.2985933" lon="16.97374"><ele>487.0</ele><time>2026-03-28T15:40:24.396Z</time></trkpt><trkpt lat="39.2986583" lon="16.973705"><ele>487.0</ele><time>2026-03-28T15:40:25.396Z</time></trkpt><trkpt lat="39.2987333" lon="16.9736667"><ele>487.00000000000006</ele><time>2026-03-28T15:40:26.395Z</time></trkpt><trkpt lat="39.2988217" lon="16.973635"><ele>487.0</ele><time>2026-03-28T15:40:27.396Z</time></trkpt><trkpt lat="39.298915" lon="16.9735967"><ele>484.50000000000006</ele><time>2026-03-28T15:40:28.395Z</time></trkpt><trkpt lat="39.298985" lon="16.9735767"><ele>482.0</ele><time>2026-03-28T15:40:29.395Z</time></trkpt><trkpt lat="39.299065" lon="16.97358"><ele>479.5</ele><time>2026-03-28T15:40:30.395Z</time></trkpt><trkpt lat="39.2991367" lon="16.9736083"><ele>477.0</ele><time>2026-03-28T15:40:31.396Z</time></trkpt><trkpt lat="39.2992183" lon="16.9736333"><ele>474.50000000000006</ele><time>2026-03-28T15:40:32.395Z</time></trkpt><trkpt lat="39.2992967" lon="16.973615"><ele>472.0</ele><time>2026-03-28T15:40:33.395Z</time></trkpt><trkpt lat="39.299375" lon="16.9735817"><ele>472.00000000000006</ele><time>2026-03-28T15:40:34.396Z</time></trkpt><trkpt lat="39.2994517" lon="16.9735317"><ele>472.0</ele><time>2026-03-28T15:40:35.395Z</time></trkpt><trkpt lat="39.29951" lon="16.9734783"><ele>472.0</ele><time>2026-03-28T15:40:36.395Z</time></trkpt><trkpt lat="39.2995667" lon="16.97343"><ele>472.0</ele><time>2026-03-28T15:40:37.395Z</time></trkpt><trkpt lat="39.2996583" lon="16.973335"><ele>472.00000000000006</ele><time>2026-03-28T15:40:39.395Z</time></trkpt><trkpt lat="39.2997367" lon="16.9732517"><ele>472.0</ele><time>2026-03-28T15:40:41.395Z</time></trkpt><trkpt lat="39.299815" lon="16.9732117"><ele>474.40000000000003</ele><time>2026-03-28T15:40:43.395Z</time></trkpt><trkpt lat="39.2998933" lon="16.9732283"><ele>476.80000000000007</ele><time>2026-03-28T15:40:45.396Z</time></trkpt><trkpt lat="39.2999717" lon="16.9732733"><ele>479.2</ele><time>2026-03-28T15:40:47.395Z</time></trkpt><trkpt lat="39.3000517" lon="16.9733383"><ele>481.6</ele><time>2026-03-28T15:40:49.395Z</time></trkpt><trkpt lat="39.3001433" lon="16.9733667"><ele>484.0</ele><time>2026-03-28T15:40:51.395Z</time></trkpt><trkpt lat="39.30025" lon="16.9733567"><ele>484.0</ele><time>2026-03-28T15:40:53.395Z</time></trkpt><trkpt lat="39.3003383" lon="16.9733083"><ele>484.0</ele><time>2026-03-28T15:40:55.395Z</time></trkpt><trkpt lat="39.3004083" lon="16.9731783"><ele>484.0</ele><time>2026-03-28T15:40:57.395Z</time></trkpt><trkpt lat="39.300435" lon="16.9731033"><ele>484.0</ele><time>2026-03-28T15:40:58.395Z</time></trkpt><trkpt lat="39.3004817" lon="16.972975"><ele>484.0</ele><time>2026-03-28T15:41:00.395Z</time></trkpt><trkpt lat="39.3005317" lon="16.9728317"><ele>484.00000000000006</ele><time>2026-03-28T15:41:02.395Z</time></trkpt><trkpt lat="39.3005683" lon="16.9727567"><ele>484.0</ele><time>2026-03-28T15:41:03.395Z</time></trkpt><trkpt lat="39.3005817" lon="16.972675"><ele>484.0</ele><time>2026-03-28T15:41:04.395Z</time></trkpt><trkpt lat="39.3005633" lon="16.97253"><ele>484.0</ele><time>2026-03-28T15:41:06.395Z</time></trkpt><trkpt lat="39.3004967" lon="16.9724233"><ele>484.00000000000006</ele><time>2026-03-28T15:41:08.396Z</time></trkpt><trkpt lat="39.30044" lon="16.9723667"><ele>484.0</ele><time>2026-03-28T15:41:09.395Z</time></trkpt><trkpt lat="39.3003733" lon="16.972305"><ele>485.6</ele><time>2026-03-28T15:41:10.395Z</time></trkpt><trkpt lat="39.30031" lon="16.9722383"><ele>487.2</ele><time>2026-03-28T15:41:11.395Z</time></trkpt><trkpt lat="39.3002317" lon="16.972175"><ele>488.80000000000007</ele><time>2026-03-28T15:41:12.395Z</time></trkpt><trkpt lat="39.3001517" lon="16.9721133"><ele>490.40000000000003</ele><time>2026-03-28T15:41:13.395Z</time></trkpt><trkpt lat="39.3000767" lon="16.97204"><ele>492.0</ele><time>2026-03-28T15:41:14.395Z</time></trkpt><trkpt lat="39.300015" lon="16.9719383"><ele>492.0</ele><time>2026-03-28T15:41:15.396Z</time></trkpt><trkpt lat="39.2999683" lon="16.9718133"><ele>492.00000000000006</ele><time>2026-03-28T15:41:16.395Z</time></trkpt><trkpt lat="39.2999417" lon="16.97167"><ele>492.00000000000006</ele><time>2026-03-28T15:41:17.395Z</time></trkpt><trkpt lat="39.299915" lon="16.97151"><ele>492.0</ele><time>2026-03-28T15:41:18.396Z</time></trkpt><trkpt lat="39.2999033" lon="16.9713867"><ele>492.0</ele><time>2026-03-28T15:41:19.396Z</time></trkpt><trkpt lat="39.2999017" lon="16.9712983"><ele>489.8</ele><time>2026-03-28T15:41:20.395Z</time></trkpt><trkpt lat="39.29997" lon="16.971175"><ele>487.6</ele><time>2026-03-28T15:41:22.395Z</time></trkpt><trkpt lat="39.3000883" lon="16.971155"><ele>485.40000000000003</ele><time>2026-03-28T15:41:24.395Z</time></trkpt><trkpt lat="39.3001733" lon="16.9711717"><ele>483.20000000000005</ele><time>2026-03-28T15:41:25.395Z</time></trkpt><trkpt lat="39.300265" lon="16.9712167"><ele>481.0</ele><time>2026-03-28T15:41:26.395Z</time></trkpt><trkpt lat="39.3003517" lon="16.9712767"><ele>481.0</ele><time>2026-03-28T15:41:27.395Z</time></trkpt><trkpt lat="39.300455" lon="16.9713417"><ele>481.0</ele><time>2026-03-28T15:41:28.395Z</time></trkpt><trkpt lat="39.3005683" lon="16.97138"><ele>481.0</ele><time>2026-03-28T15:41:29.395Z</time></trkpt><trkpt lat="39.3006867" lon="16.97144"><ele>481.0</ele><time>2026-03-28T15:41:30.395Z</time></trkpt><trkpt lat="39.3008" lon="16.971505"><ele>479.5</ele><time>2026-03-28T15:41:31.396Z</time></trkpt><trkpt lat="39.3009033" lon="16.9715733"><ele>478.0</ele><time>2026-03-28T15:41:32.395Z</time></trkpt><trkpt lat="39.3009833" lon="16.971645"><ele>476.5</ele><time>2026-03-28T15:41:33.395Z</time></trkpt><trkpt lat="39.3010633" lon="16.9717467"><ele>475.0</ele><time>2026-03-28T15:41:34.395Z</time></trkpt><trkpt lat="39.301145" lon="16.971895"><ele>473.0</ele><time>2026-03-28T15:41:35.395Z</time></trkpt><trkpt lat="39.3012333" lon="16.972035"><ele>471.0</ele><time>2026-03-28T15:41:36.396Z</time></trkpt><trkpt lat="39.301315" lon="16.972175"><ele>469.0</ele><time>2026-03-28T15:41:37.395Z</time></trkpt><trkpt lat="39.301395" lon="16.972265"><ele>467.0</ele><time>2026-03-28T15:41:38.395Z</time></trkpt><trkpt lat="39.3014567" lon="16.9722833"><ele>465.0</ele><time>2026-03-28T15:41:39.395Z</time></trkpt><trkpt lat="39.3015533" lon="16.972205"><ele>466.2</ele><time>2026-03-28T15:41:41.396Z</time></trkpt><trkpt lat="39.3015883" lon="16.9721"><ele>467.4</ele><time>2026-03-28T15:41:42.395Z</time></trkpt><trkpt lat="39.30163" lon="16.9719633"><ele>468.6</ele><time>2026-03-28T15:41:43.395Z</time></trkpt><trkpt lat="39.301665" lon="16.9718183"><ele>469.8</ele><time>2026-03-28T15:41:44.395Z</time></trkpt><trkpt lat="39.3017033" lon="16.9716883"><ele>471.0</ele><time>2026-03-28T15:41:45.396Z</time></trkpt><trkpt lat="39.3017317" lon="16.9715583"><ele>471.0</ele><time>2026-03-28T15:41:46.395Z</time></trkpt><trkpt lat="39.3017617" lon="16.9714233"><ele>471.0</ele><time>2026-03-28T15:41:47.396Z</time></trkpt><trkpt lat="39.30178" lon="16.9712867"><ele>471.0</ele><time>2026-03-28T15:41:48.395Z</time></trkpt><trkpt lat="39.30179" lon="16.9711517"><ele>471.0</ele><time>2026-03-28T15:41:49.395Z</time></trkpt><trkpt lat="39.3017817" lon="16.9710383"><ele>471.0</ele><time>2026-03-28T15:41:50.395Z</time></trkpt><trkpt lat="39.3017583" lon="16.970935"><ele>472.8</ele><time>2026-03-28T15:41:51.395Z</time></trkpt><trkpt lat="39.3017283" lon="16.9708217"><ele>474.6</ele><time>2026-03-28T15:41:52.395Z</time></trkpt><trkpt lat="39.301705" lon="16.9707067"><ele>476.4</ele><time>2026-03-28T15:41:53.395Z</time></trkpt><trkpt lat="39.3017" lon="16.970575"><ele>478.2</ele><time>2026-03-28T15:41:54.395Z</time></trkpt><trkpt lat="39.3016917" lon="16.9704567"><ele>480.0</ele><time>2026-03-28T15:41:55.395Z</time></trkpt><trkpt lat="39.301675" lon="16.970345"><ele>480.0</ele><time>2026-03-28T15:41:56.395Z</time></trkpt><trkpt lat="39.3016467" lon="16.9702667"><ele>480.0</ele><time>2026-03-28T15:41:57.396Z</time></trkpt><trkpt lat="39.3016" lon="16.9702017"><ele>480.0</ele><time>2026-03-28T15:41:58.396Z</time></trkpt><trkpt lat="39.301555" lon="16.97013"><ele>480.0</ele><time>2026-03-28T15:41:59.395Z</time></trkpt><trkpt lat="39.3015167" lon="16.9700383"><ele>480.0</ele><time>2026-03-28T15:42:00.396Z</time></trkpt><trkpt lat="39.3014833" lon="16.969935"><ele>480.0</ele><time>2026-03-28T15:42:01.395Z</time></trkpt><trkpt lat="39.3014733" lon="16.9698317"><ele>479.4</ele><time>2026-03-28T15:42:02.395Z</time></trkpt><trkpt lat="39.3014817" lon="16.9697233"><ele>478.8</ele><time>2026-03-28T15:42:03.395Z</time></trkpt><trkpt lat="39.3015017" lon="16.9696217"><ele>478.20000000000005</ele><time>2026-03-28T15:42:04.395Z</time></trkpt><trkpt lat="39.3015283" lon="16.9695033"><ele>477.6</ele><time>2026-03-28T15:42:05.395Z</time></trkpt><trkpt lat="39.3015533" lon="16.9693767"><ele>477.0</ele><time>2026-03-28T15:42:06.395Z</time></trkpt><trkpt lat="39.301565" lon="16.9692483"><ele>477.20000000000005</ele><time>2026-03-28T15:42:07.395Z</time></trkpt><trkpt lat="39.301575" lon="16.9691033"><ele>477.40000000000003</ele><time>2026-03-28T15:42:08.395Z</time></trkpt><trkpt lat="39.3015767" lon="16.96897"><ele>477.59999999999997</ele><time>2026-03-28T15:42:09.395Z</time></trkpt><trkpt lat="39.301565" lon="16.968845"><ele>477.79999999999995</ele><time>2026-03-28T15:42:10.395Z</time></trkpt><trkpt lat="39.3015267" lon="16.96874"><ele>478.0</ele><time>2026-03-28T15:42:11.395Z</time></trkpt><trkpt lat="39.3014767" lon="16.9686567"><ele>478.00000000000006</ele><time>2026-03-28T15:42:12.396Z</time></trkpt><trkpt lat="39.30143" lon="16.9685683"><ele>478.0</ele><time>2026-03-28T15:42:13.395Z</time></trkpt><trkpt lat="39.3014033" lon="16.9684717"><ele>478.0</ele><time>2026-03-28T15:42:14.395Z</time></trkpt><trkpt lat="39.3013883" lon="16.9683533"><ele>478.0</ele><time>2026-03-28T15:42:15.395Z</time></trkpt><trkpt lat="39.3013967" lon="16.968235"><ele>478.00000000000006</ele><time>2026-03-28T15:42:16.395Z</time></trkpt><trkpt lat="39.3014317" lon="16.9681117"><ele>478.0</ele><time>2026-03-28T15:42:17.395Z</time></trkpt><trkpt lat="39.3014883" lon="16.9679983"><ele>477.50000000000006</ele><time>2026-03-28T15:42:18.396Z</time></trkpt><trkpt lat="39.3015617" lon="16.96791"><ele>477.0</ele><time>2026-03-28T15:42:19.396Z</time></trkpt><trkpt lat="39.301635" lon="16.96783"><ele>476.5</ele><time>2026-03-28T15:42:20.395Z</time></trkpt><trkpt lat="39.30169" lon="16.9677467"><ele>476.0</ele><time>2026-03-28T15:42:21.396Z</time></trkpt><trkpt lat="39.3017233" lon="16.9676583"><ele>475.50000000000006</ele><time>2026-03-28T15:42:22.395Z</time></trkpt><trkpt lat="39.3017467" lon="16.9675783"><ele>475.0</ele><time>2026-03-28T15:42:23.395Z</time></trkpt><trkpt lat="39.3018183" lon="16.9674967"><ele>475.0</ele><time>2026-03-28T15:42:25.396Z</time></trkpt><trkpt lat="39.3019483" lon="16.967495"><ele>475.0</ele><time>2026-03-28T15:42:27.396Z</time></trkpt><trkpt lat="39.3020267" lon="16.967535"><ele>475.0</ele><time>2026-03-28T15:42:28.395Z</time></trkpt><trkpt lat="39.302115" lon="16.967575"><ele>475.0</ele><time>2026-03-28T15:42:29.395Z</time></trkpt><trkpt lat="39.30221" lon="16.9676067"><ele>475.0</ele><time>2026-03-28T15:42:30.395Z</time></trkpt><trkpt lat="39.302295" lon="16.9676217"><ele>474.4</ele><time>2026-03-28T15:42:31.395Z</time></trkpt><trkpt lat="39.302385" lon="16.9676133"><ele>473.8</ele><time>2026-03-28T15:42:32.396Z</time></trkpt><trkpt lat="39.3024767" lon="16.9675783"><ele>473.20000000000005</ele><time>2026-03-28T15:42:33.395Z</time></trkpt><trkpt lat="39.3025783" lon="16.9675167"><ele>472.6</ele><time>2026-03-28T15:42:34.395Z</time></trkpt><trkpt lat="39.3026867" lon="16.9674233"><ele>472.0</ele><time>2026-03-28T15:42:35.395Z</time></trkpt><trkpt lat="39.30278" lon="16.9673083"><ele>472.0</ele><time>2026-03-28T15:42:36.395Z</time></trkpt><trkpt lat="39.3028617" lon="16.9672"><ele>472.00000000000006</ele><time>2026-03-28T15:42:37.395Z</time></trkpt><trkpt lat="39.30296" lon="16.967115"><ele>472.00000000000006</ele><time>2026-03-28T15:42:38.395Z</time></trkpt><trkpt lat="39.303045" lon="16.9670283"><ele>472.0</ele><time>2026-03-28T15:42:39.395Z</time></trkpt><trkpt lat="39.3030833" lon="16.9669533"><ele>472.0</ele><time>2026-03-28T15:42:40.395Z</time></trkpt><trkpt lat="39.3031133" lon="16.966865"><ele>470.6666666666667</ele><time>2026-03-28T15:42:41.395Z</time></trkpt><trkpt lat="39.3031267" lon="16.9667733"><ele>469.33333333333337</ele><time>2026-03-28T15:42:42.395Z</time></trkpt><trkpt lat="39.3031283" lon="16.9666817"><ele>468.0</ele><time>2026-03-28T15:42:43.395Z</time></trkpt><trkpt lat="39.3031267" lon="16.9665933"><ele>466.66666666666663</ele><time>2026-03-28T15:42:44.395Z</time></trkpt><trkpt lat="39.3031667" lon="16.966465"><ele>465.3333333333333</ele><time>2026-03-28T15:42:46.395Z</time></trkpt><trkpt lat="39.3032483" lon="16.9664583"><ele>464.0</ele><time>2026-03-28T15:42:48.395Z</time></trkpt><trkpt lat="39.3033083" lon="16.9665817"><ele>462.0</ele><time>2026-03-28T15:42:50.395Z</time></trkpt><trkpt lat="39.303335" lon="16.9666967"><ele>460.0</ele><time>2026-03-28T15:42:51.395Z</time></trkpt><trkpt lat="39.3033533" lon="16.96684"><ele>458.0</ele><time>2026-03-28T15:42:52.396Z</time></trkpt><trkpt lat="39.3033717" lon="16.9670067"><ele>456.0</ele><time>2026-03-28T15:42:53.395Z</time></trkpt><trkpt lat="39.3033967" lon="16.9671617"><ele>456.0</ele><time>2026-03-28T15:42:54.396Z</time></trkpt><trkpt lat="39.3034333" lon="16.9672883"><ele>456.0</ele><time>2026-03-28T15:42:55.395Z</time></trkpt><trkpt lat="39.3034833" lon="16.967365"><ele>456.0</ele><time>2026-03-28T15:42:56.395Z</time></trkpt><trkpt lat="39.3035483" lon="16.9673983"><ele>456.0</ele><time>2026-03-28T15:42:57.396Z</time></trkpt><trkpt lat="39.3036283" lon="16.9674383"><ele>456.0</ele><time>2026-03-28T15:42:58.395Z</time></trkpt><trkpt lat="39.3036933" lon="16.9675017"><ele>456.0</ele><time>2026-03-28T15:42:59.395Z</time></trkpt><trkpt lat="39.303745" lon="16.9676083"><ele>454.4</ele><time>2026-03-28T15:43:00.395Z</time></trkpt><trkpt lat="39.303765" lon="16.9677267"><ele>452.8</ele><time>2026-03-28T15:43:01.395Z</time></trkpt><trkpt lat="39.303805" lon="16.9678517"><ele>451.19999999999993</ele><time>2026-03-28T15:43:02.395Z</time></trkpt><trkpt lat="39.3038583" lon="16.967965"><ele>449.59999999999997</ele><time>2026-03-28T15:43:03.395Z</time></trkpt><trkpt lat="39.3039267" lon="16.9680383"><ele>448.0</ele><time>2026-03-28T15:43:04.395Z</time></trkpt><trkpt lat="39.304" lon="16.9681"><ele>451.6666666666667</ele><time>2026-03-28T15:43:05.395Z</time></trkpt><trkpt lat="39.3040617" lon="16.96819"><ele>455.33333333333337</ele><time>2026-03-28T15:43:06.395Z</time></trkpt><trkpt lat="39.3041" lon="16.9682683"><ele>459.0</ele><time>2026-03-28T15:43:07.395Z</time></trkpt><trkpt lat="39.304115" lon="16.9683483"><ele>462.66666666666663</ele><time>2026-03-28T15:43:08.396Z</time></trkpt><trkpt lat="39.3041367" lon="16.9685133"><ele>466.3333333333333</ele><time>2026-03-28T15:43:10.395Z</time></trkpt><trkpt lat="39.3041867" lon="16.9686033"><ele>470.0</ele><time>2026-03-28T15:43:11.395Z</time></trkpt><trkpt lat="39.30426" lon="16.9686883"><ele>470.0</ele><time>2026-03-28T15:43:12.396Z</time></trkpt><trkpt lat="39.304335" lon="16.9687683"><ele>470.0</ele><time>2026-03-28T15:43:13.395Z</time></trkpt><trkpt lat="39.3043983" lon="16.968845"><ele>470.0</ele><time>2026-03-28T15:43:14.395Z</time></trkpt><trkpt lat="39.3044367" lon="16.968925"><ele>470.0</ele><time>2026-03-28T15:43:15.395Z</time></trkpt><trkpt lat="39.304415" lon="16.9690683"><ele>470.0</ele><time>2026-03-28T15:43:17.395Z</time></trkpt><trkpt lat="39.3043017" lon="16.96916"><ele>469.85714285714283</ele><time>2026-03-28T15:43:19.395Z</time></trkpt><trkpt lat="39.3042367" lon="16.969205"><ele>469.71428571428567</ele><time>2026-03-28T15:43:20.395Z</time></trkpt><trkpt lat="39.3042017" lon="16.9692733"><ele>469.57142857142856</ele><time>2026-03-28T15:43:21.396Z</time></trkpt><trkpt lat="39.304185" lon="16.9693567"><ele>469.42857142857144</ele><time>2026-03-28T15:43:22.396Z</time></trkpt><trkpt lat="39.3042067" lon="16.969445"><ele>469.2857142857143</ele><time>2026-03-28T15:43:23.395Z</time></trkpt><trkpt lat="39.3042617" lon="16.9695283"><ele>469.1428571428571</ele><time>2026-03-28T15:43:24.395Z</time></trkpt><trkpt lat="39.30434" lon="16.9695817"><ele>469.0</ele><time>2026-03-28T15:43:25.395Z</time></trkpt><trkpt lat="39.3044217" lon="16.969595"><ele>469.00000000000006</ele><time>2026-03-28T15:43:26.396Z</time></trkpt><trkpt lat="39.30451" lon="16.96959"><ele>469.0</ele><time>2026-03-28T15:43:27.395Z</time></trkpt><trkpt lat="39.3045917" lon="16.96961"><ele>469.0</ele><time>2026-03-28T15:43:28.395Z</time></trkpt><trkpt lat="39.3046533" lon="16.9696567"><ele>469.0</ele><time>2026-03-28T15:43:29.395Z</time></trkpt><trkpt lat="39.3047" lon="16.9697183"><ele>469.00000000000006</ele><time>2026-03-28T15:43:30.395Z</time></trkpt><trkpt lat="39.3047433" lon="16.9697867"><ele>469.0</ele><time>2026-03-28T15:43:31.395Z</time></trkpt><trkpt lat="39.304845" lon="16.969865"><ele>471.2857142857143</ele><time>2026-03-28T15:43:33.395Z</time></trkpt><trkpt lat="39.3049183" lon="16.9698767"><ele>473.57142857142856</ele><time>2026-03-28T15:43:34.395Z</time></trkpt><trkpt lat="39.3049917" lon="16.9698917"><ele>475.8571428571429</ele><time>2026-03-28T15:43:35.395Z</time></trkpt><trkpt lat="39.305065" lon="16.9699383"><ele>478.14285714285717</ele><time>2026-03-28T15:43:36.395Z</time></trkpt><trkpt lat="39.3051233" lon="16.969985"><ele>480.42857142857144</ele><time>2026-03-28T15:43:37.396Z</time></trkpt><trkpt lat="39.3051783" lon="16.970025"><ele>482.7142857142858</ele><time>2026-03-28T15:43:38.395Z</time></trkpt><trkpt lat="39.30524" lon="16.97007"><ele>485.00000000000006</ele><time>2026-03-28T15:43:40.395Z</time></trkpt><trkpt lat="39.3052617" lon="16.9701683"><ele>485.49999999999994</ele><time>2026-03-28T15:44:09.395Z</time></trkpt><trkpt lat="39.3052367" lon="16.970285"><ele>486.0</ele><time>2026-03-28T15:44:11.396Z</time></trkpt><trkpt lat="39.3051733" lon="16.970425"><ele>486.5</ele><time>2026-03-28T15:44:13.396Z</time></trkpt><trkpt lat="39.30514" lon="16.9705017"><ele>487.0</ele><time>2026-03-28T15:44:14.395Z</time></trkpt><trkpt lat="39.3051" lon="16.97058"><ele>487.49999999999994</ele><time>2026-03-28T15:44:15.396Z</time></trkpt><trkpt lat="39.305065" lon="16.9706667"><ele>488.0</ele><time>2026-03-28T15:44:16.395Z</time></trkpt><trkpt lat="39.3050417" lon="16.9707533"><ele>488.0</ele><time>2026-03-28T15:44:17.395Z</time></trkpt><trkpt lat="39.3050317" lon="16.9708483"><ele>487.99999999999994</ele><time>2026-03-28T15:44:18.395Z</time></trkpt><trkpt lat="39.30505" lon="16.9710333"><ele>487.99999999999994</ele><time>2026-03-28T15:44:20.395Z</time></trkpt><trkpt lat="39.3050983" lon="16.9711483"><ele>488.0</ele><time>2026-03-28T15:44:21.395Z</time></trkpt><trkpt lat="39.3051717" lon="16.971245"><ele>488.0</ele><time>2026-03-28T15:44:22.396Z</time></trkpt><trkpt lat="39.3052633" lon="16.971335"><ele>487.59999999999997</ele><time>2026-03-28T15:44:23.396Z</time></trkpt><trkpt lat="39.3053633" lon="16.971405"><ele>487.19999999999993</ele><time>2026-03-28T15:44:24.395Z</time></trkpt><trkpt lat="39.3054683" lon="16.9714667"><ele>486.8</ele><time>2026-03-28T15:44:25.395Z</time></trkpt><trkpt lat="39.305555" lon="16.97149"><ele>486.4</ele><time>2026-03-28T15:44:26.396Z</time></trkpt><trkpt lat="39.3056367" lon="16.9715217"><ele>486.0</ele><time>2026-03-28T15:44:27.396Z</time></trkpt><trkpt lat="39.30571" lon="16.9715633"><ele>487.0</ele><time>2026-03-28T15:44:28.395Z</time></trkpt><trkpt lat="39.3057983" lon="16.9716433"><ele>488.0</ele><time>2026-03-28T15:44:29.395Z</time></trkpt><trkpt lat="39.30589" lon="16.9717533"><ele>489.0</ele><time>2026-03-28T15:44:30.395Z</time></trkpt><trkpt lat="39.305985" lon="16.971855"><ele>490.0</ele><time>2026-03-28T15:44:31.395Z</time></trkpt><trkpt lat="39.3060667" lon="16.9719583"><ele>490.0</ele><time>2026-03-28T15:44:32.395Z</time></trkpt><trkpt lat="39.30614" lon="16.97205"><ele>490.0</ele><time>2026-03-28T15:44:33.395Z</time></trkpt><trkpt lat="39.3062133" lon="16.9721433"><ele>490.0</ele><time>2026-03-28T15:44:34.395Z</time></trkpt><trkpt lat="39.3062867" lon="16.9722317"><ele>490.0</ele><time>2026-03-28T15:44:35.395Z</time></trkpt><trkpt lat="39.3063617" lon="16.9723167"><ele>490.0</ele><time>2026-03-28T15:44:36.395Z</time></trkpt><trkpt lat="39.3064517" lon="16.9723817"><ele>490.6666666666667</ele><time>2026-03-28T15:44:37.395Z</time></trkpt><trkpt lat="39.3065383" lon="16.9724483"><ele>491.33333333333337</ele><time>2026-03-28T15:44:38.396Z</time></trkpt><trkpt lat="39.30662" lon="16.9724917"><ele>492.0</ele><time>2026-03-28T15:44:39.395Z</time></trkpt><trkpt lat="39.3066983" lon="16.9725317"><ele>492.66666666666663</ele><time>2026-03-28T15:44:40.395Z</time></trkpt><trkpt lat="39.306775" lon="16.9725717"><ele>493.3333333333333</ele><time>2026-03-28T15:44:41.395Z</time></trkpt><trkpt lat="39.30685" lon="16.97261"><ele>494.0</ele><time>2026-03-28T15:44:42.396Z</time></trkpt><trkpt lat="39.3069167" lon="16.9726467"><ele>495.16666666666663</ele><time>2026-03-28T15:44:43.395Z</time></trkpt><trkpt lat="39.3069767" lon="16.9726767"><ele>496.3333333333333</ele><time>2026-03-28T15:44:44.395Z</time></trkpt><trkpt lat="39.3070833" lon="16.9727333"><ele>497.5</ele><time>2026-03-28T15:44:46.395Z</time></trkpt><trkpt lat="39.3071867" lon="16.972795"><ele>498.66666666666663</ele><time>2026-03-28T15:44:48.396Z</time></trkpt><trkpt lat="39.307255" lon="16.9728333"><ele>499.8333333333333</ele><time>2026-03-28T15:44:50.396Z</time></trkpt><trkpt lat="39.3073167" lon="16.9727667"><ele>501.0</ele><time>2026-03-28T15:44:53.396Z</time></trkpt><trkpt lat="39.3073633" lon="16.972695"><ele>501.0</ele><time>2026-03-28T15:44:55.396Z</time></trkpt><trkpt lat="39.3074233" lon="16.9726083"><ele>501.0</ele><time>2026-03-28T15:44:57.395Z</time></trkpt><trkpt lat="39.3075167" lon="16.97254"><ele>501.0</ele><time>2026-03-28T15:44:59.395Z</time></trkpt><trkpt lat="39.3076183" lon="16.9725217"><ele>501.0</ele><time>2026-03-28T15:45:01.395Z</time></trkpt><trkpt lat="39.3077117" lon="16.9725433"><ele>501.0</ele><time>2026-03-28T15:45:03.395Z</time></trkpt><trkpt lat="39.3078133" lon="16.9725667"><ele>501.0</ele><time>2026-03-28T15:45:05.395Z</time></trkpt><trkpt lat="39.3079283" lon="16.97258"><ele>501.0</ele><time>2026-03-28T15:45:07.395Z</time></trkpt><trkpt lat="39.308035" lon="16.9725467"><ele>501.0</ele><time>2026-03-28T15:45:09.396Z</time></trkpt><trkpt lat="39.3081117" lon="16.97247"><ele>501.0</ele><time>2026-03-28T15:45:11.395Z</time></trkpt><trkpt lat="39.3081817" lon="16.9723783"><ele>501.0</ele><time>2026-03-28T15:45:13.395Z</time></trkpt><trkpt lat="39.3082717" lon="16.9722783"><ele>501.1666666666667</ele><time>2026-03-28T15:45:15.395Z</time></trkpt><trkpt lat="39.3083317" lon="16.9722267"><ele>501.33333333333337</ele><time>2026-03-28T15:45:16.395Z</time></trkpt><trkpt lat="39.3084067" lon="16.9722217"><ele>501.5</ele><time>2026-03-28T15:45:17.395Z</time></trkpt><trkpt lat="39.3084917" lon="16.9722267"><ele>501.6666666666667</ele><time>2026-03-28T15:45:18.395Z</time></trkpt><trkpt lat="39.3085633" lon="16.9722583"><ele>501.83333333333337</ele><time>2026-03-28T15:45:19.395Z</time></trkpt><trkpt lat="39.3086333" lon="16.9723067"><ele>502.0</ele><time>2026-03-28T15:45:20.395Z</time></trkpt><trkpt lat="39.3087067" lon="16.9723517"><ele>502.00000000000006</ele><time>2026-03-28T15:45:21.395Z</time></trkpt><trkpt lat="39.3087767" lon="16.972375"><ele>502.0</ele><time>2026-03-28T15:45:22.395Z</time></trkpt><trkpt lat="39.30884" lon="16.97237"><ele>502.0</ele><time>2026-03-28T15:45:23.396Z</time></trkpt><trkpt lat="39.3089" lon="16.9723217"><ele>502.0</ele><time>2026-03-28T15:45:24.395Z</time></trkpt><trkpt lat="39.30896" lon="16.972225"><ele>502.00000000000006</ele><time>2026-03-28T15:45:25.396Z</time></trkpt><trkpt lat="39.3090283" lon="16.9721133"><ele>502.0</ele><time>2026-03-28T15:45:26.395Z</time></trkpt><trkpt lat="39.30909" lon="16.97203"><ele>502.33333333333337</ele><time>2026-03-28T15:45:27.395Z</time></trkpt><trkpt lat="39.309155" lon="16.971965"><ele>502.6666666666667</ele><time>2026-03-28T15:45:28.395Z</time></trkpt><trkpt lat="39.3092233" lon="16.9719317"><ele>503.0</ele><time>2026-03-28T15:45:29.396Z</time></trkpt><trkpt lat="39.309305" lon="16.9719367"><ele>503.33333333333337</ele><time>2026-03-28T15:45:30.395Z</time></trkpt><trkpt lat="39.30939" lon="16.9719917"><ele>503.6666666666667</ele><time>2026-03-28T15:45:31.395Z</time></trkpt><trkpt lat="39.30947" lon="16.97208"><ele>504.0</ele><time>2026-03-28T15:45:32.395Z</time></trkpt><trkpt lat="39.3095533" lon="16.9721683"><ele>504.0</ele><time>2026-03-28T15:45:33.396Z</time></trkpt><trkpt lat="39.3096467" lon="16.9722683"><ele>504.0</ele><time>2026-03-28T15:45:34.395Z</time></trkpt><trkpt lat="39.3097317" lon="16.9723633"><ele>504.0</ele><time>2026-03-28T15:45:35.395Z</time></trkpt><trkpt lat="39.3098083" lon="16.9724333"><ele>504.0</ele><time>2026-03-28T15:45:36.395Z</time></trkpt><trkpt lat="39.3099017" lon="16.97248"><ele>504.0</ele><time>2026-03-28T15:45:37.395Z</time></trkpt><trkpt lat="39.3100067" lon="16.9725067"><ele>500.25</ele><time>2026-03-28T15:45:38.395Z</time></trkpt><trkpt lat="39.3101267" lon="16.9725233"><ele>496.5</ele><time>2026-03-28T15:45:39.396Z</time></trkpt><trkpt lat="39.310265" lon="16.9725383"><ele>492.75</ele><time>2026-03-28T15:45:40.395Z</time></trkpt><trkpt lat="39.3104167" lon="16.97254"><ele>489.0</ele><time>2026-03-28T15:45:41.395Z</time></trkpt><trkpt lat="39.3105767" lon="16.9725517"><ele>483.33333333333337</ele><time>2026-03-28T15:45:42.395Z</time></trkpt><trkpt lat="39.310735" lon="16.972565"><ele>477.6666666666667</ele><time>2026-03-28T15:45:43.396Z</time></trkpt><trkpt lat="39.3108983" lon="16.9725667"><ele>472.0</ele><time>2026-03-28T15:45:44.395Z</time></trkpt><trkpt lat="39.3110517" lon="16.9725617"><ele>472.0</ele><time>2026-03-28T15:45:45.395Z</time></trkpt><trkpt lat="39.3111917" lon="16.9725633"><ele>472.0</ele><time>2026-03-28T15:45:46.395Z</time></trkpt><trkpt lat="39.311345" lon="16.9725667"><ele>472.0</ele><time>2026-03-28T15:45:47.396Z</time></trkpt><trkpt lat="39.311495" lon="16.9725683"><ele>472.0</ele><time>2026-03-28T15:45:48.395Z</time></trkpt><trkpt lat="39.3116483" lon="16.9725667"><ele>472.25</ele><time>2026-03-28T15:45:49.395Z</time></trkpt><trkpt lat="39.31179" lon="16.9725883"><ele>472.5</ele><time>2026-03-28T15:45:50.395Z</time></trkpt><trkpt lat="39.3119083" lon="16.9726267"><ele>472.75</ele><time>2026-03-28T15:45:51.395Z</time></trkpt><trkpt lat="39.3120383" lon="16.97268"><ele>473.0</ele><time>2026-03-28T15:45:52.395Z</time></trkpt><trkpt lat="39.3121683" lon="16.972755"><ele>472.5</ele><time>2026-03-28T15:45:53.395Z</time></trkpt><trkpt lat="39.3122967" lon="16.9728483"><ele>472.0</ele><time>2026-03-28T15:45:54.395Z</time></trkpt><trkpt lat="39.3124233" lon="16.9729383"><ele>471.5</ele><time>2026-03-28T15:45:55.395Z</time></trkpt><trkpt lat="39.312545" lon="16.9730433"><ele>471.0</ele><time>2026-03-28T15:45:56.396Z</time></trkpt><trkpt lat="39.312665" lon="16.9731983"><ele>466.0</ele><time>2026-03-28T15:45:57.395Z</time></trkpt><trkpt lat="39.3127717" lon="16.9733767"><ele>461.0</ele><time>2026-03-28T15:45:58.395Z</time></trkpt><trkpt lat="39.3128667" lon="16.9735433"><ele>456.0</ele><time>2026-03-28T15:45:59.395Z</time></trkpt><trkpt lat="39.3129583" lon="16.9737083"><ele>456.0</ele><time>2026-03-28T15:46:00.395Z</time></trkpt><trkpt lat="39.3130267" lon="16.97387"><ele>456.0</ele><time>2026-03-28T15:46:01.395Z</time></trkpt><trkpt lat="39.3130683" lon="16.9740317"><ele>456.0</ele><time>2026-03-28T15:46:02.395Z</time></trkpt><trkpt lat="39.313085" lon="16.9742"><ele>456.0</ele><time>2026-03-28T15:46:03.395Z</time></trkpt><trkpt lat="39.3130817" lon="16.9743767"><ele>454.0</ele><time>2026-03-28T15:46:04.396Z</time></trkpt><trkpt lat="39.3130517" lon="16.97455"><ele>452.0</ele><time>2026-03-28T15:46:05.396Z</time></trkpt><trkpt lat="39.31301" lon="16.97473"><ele>450.0</ele><time>2026-03-28T15:46:06.395Z</time></trkpt><trkpt lat="39.3129583" lon="16.9749033"><ele>448.0</ele><time>2026-03-28T15:46:07.395Z</time></trkpt><trkpt lat="39.3129267" lon="16.9750533"><ele>446.4</ele><time>2026-03-28T15:46:08.395Z</time></trkpt><trkpt lat="39.3129333" lon="16.9751967"><ele>444.79999999999995</ele><time>2026-03-28T15:46:09.395Z</time></trkpt><trkpt lat="39.312965" lon="16.9753383"><ele>443.2</ele><time>2026-03-28T15:46:10.395Z</time></trkpt><trkpt lat="39.3130233" lon="16.97544"><ele>441.6</ele><time>2026-03-28T15:46:11.395Z</time></trkpt><trkpt lat="39.3130867" lon="16.9755433"><ele>440.0</ele><time>2026-03-28T15:46:12.396Z</time></trkpt><trkpt lat="39.31314" lon="16.9756617"><ele>442.4</ele><time>2026-03-28T15:46:13.396Z</time></trkpt><trkpt lat="39.31317" lon="16.9758017"><ele>444.8</ele><time>2026-03-28T15:46:14.395Z</time></trkpt><trkpt lat="39.3131683" lon="16.9759417"><ele>447.20000000000005</ele><time>2026-03-28T15:46:15.395Z</time></trkpt><trkpt lat="39.3131517" lon="16.9760833"><ele>449.6</ele><time>2026-03-28T15:46:16.395Z</time></trkpt><trkpt lat="39.3131467" lon="16.976225"><ele>452.0</ele><time>2026-03-28T15:46:17.395Z</time></trkpt><trkpt lat="39.3131583" lon="16.97637"><ele>451.99999999999994</ele><time>2026-03-28T15:46:18.396Z</time></trkpt><trkpt lat="39.3131883" lon="16.9764867"><ele>452.0</ele><time>2026-03-28T15:46:19.395Z</time></trkpt><trkpt lat="39.3132483" lon="16.9765717"><ele>452.0</ele><time>2026-03-28T15:46:20.395Z</time></trkpt><trkpt lat="39.313325" lon="16.97663"><ele>452.0</ele><time>2026-03-28T15:46:21.395Z</time></trkpt><trkpt lat="39.3134083" lon="16.9766567"><ele>451.99999999999994</ele><time>2026-03-28T15:46:22.396Z</time></trkpt><trkpt lat="39.313495" lon="16.9766567"><ele>452.0</ele><time>2026-03-28T15:46:23.396Z</time></trkpt><trkpt lat="39.31359" lon="16.9766217"><ele>452.0</ele><time>2026-03-28T15:46:24.395Z</time></trkpt><trkpt lat="39.313685" lon="16.9765783"><ele>452.0</ele><time>2026-03-28T15:46:25.395Z</time></trkpt><trkpt lat="39.31379" lon="16.976505"><ele>452.0</ele><time>2026-03-28T15:46:26.395Z</time></trkpt><trkpt lat="39.3138883" lon="16.976415"><ele>452.0</ele><time>2026-03-28T15:46:27.396Z</time></trkpt><trkpt lat="39.313965" lon="16.97631"><ele>451.75</ele><time>2026-03-28T15:46:28.396Z</time></trkpt><trkpt lat="39.31404" lon="16.9761767"><ele>451.5</ele><time>2026-03-28T15:46:29.395Z</time></trkpt><trkpt lat="39.3140983" lon="16.9760367"><ele>451.25</ele><time>2026-03-28T15:46:30.395Z</time></trkpt><trkpt lat="39.314145" lon="16.9758767"><ele>451.0</ele><time>2026-03-28T15:46:31.395Z</time></trkpt><trkpt lat="39.3141717" lon="16.9757283"><ele>451.0</ele><time>2026-03-28T15:46:32.395Z</time></trkpt><trkpt lat="39.314165" lon="16.9755967"><ele>451.0</ele><time>2026-03-28T15:46:33.395Z</time></trkpt><trkpt lat="39.31414" lon="16.9754633"><ele>451.0</ele><time>2026-03-28T15:46:34.395Z</time></trkpt><trkpt lat="39.3141283" lon="16.97534"><ele>451.0</ele><time>2026-03-28T15:46:35.396Z</time></trkpt><trkpt lat="39.3141333" lon="16.9752167"><ele>451.0</ele><time>2026-03-28T15:46:36.396Z</time></trkpt><trkpt lat="39.31417" lon="16.9751033"><ele>452.83333333333337</ele><time>2026-03-28T15:46:37.395Z</time></trkpt><trkpt lat="39.3142317" lon="16.9750033"><ele>454.6666666666667</ele><time>2026-03-28T15:46:38.395Z</time></trkpt><trkpt lat="39.3143" lon="16.97495"><ele>456.5</ele><time>2026-03-28T15:46:39.395Z</time></trkpt><trkpt lat="39.3143733" lon="16.9749183"><ele>458.33333333333337</ele><time>2026-03-28T15:46:40.395Z</time></trkpt><trkpt lat="39.3144633" lon="16.9748933"><ele>460.1666666666667</ele><time>2026-03-28T15:46:41.395Z</time></trkpt><trkpt lat="39.314545" lon="16.9748433"><ele>462.0</ele><time>2026-03-28T15:46:42.395Z</time></trkpt><trkpt lat="39.314615" lon="16.9747533"><ele>462.0</ele><time>2026-03-28T15:46:43.396Z</time></trkpt><trkpt lat="39.3146433" lon="16.97464"><ele>462.00000000000006</ele><time>2026-03-28T15:46:44.396Z</time></trkpt><trkpt lat="39.3146433" lon="16.9745183"><ele>462.00000000000006</ele><time>2026-03-28T15:46:45.395Z</time></trkpt><trkpt lat="39.3146317" lon="16.9743883"><ele>462.0</ele><time>2026-03-28T15:46:46.395Z</time></trkpt><trkpt lat="39.3146183" lon="16.9742667"><ele>462.0</ele><time>2026-03-28T15:46:47.396Z</time></trkpt><trkpt lat="39.31462" lon="16.9741417"><ele>463.6666666666667</ele><time>2026-03-28T15:46:48.395Z</time></trkpt><trkpt lat="39.3146383" lon="16.974055"><ele>465.33333333333337</ele><time>2026-03-28T15:46:49.395Z</time></trkpt><trkpt lat="39.31468" lon="16.97399"><ele>467.0</ele><time>2026-03-28T15:46:50.395Z</time></trkpt><trkpt lat="39.3147383" lon="16.973955"><ele>468.6666666666667</ele><time>2026-03-28T15:46:51.395Z</time></trkpt><trkpt lat="39.314805" lon="16.9739517"><ele>470.33333333333337</ele><time>2026-03-28T15:46:52.396Z</time></trkpt><trkpt lat="39.3148967" lon="16.9739917"><ele>472.0</ele><time>2026-03-28T15:46:53.395Z</time></trkpt><trkpt lat="39.3149883" lon="16.9740983"><ele>459.6666666666667</ele><time>2026-03-28T15:46:54.395Z</time></trkpt><trkpt lat="39.3150767" lon="16.97424"><ele>447.33333333333337</ele><time>2026-03-28T15:46:55.395Z</time></trkpt><trkpt lat="39.3151733" lon="16.9744017"><ele>435.0</ele><time>2026-03-28T15:46:56.395Z</time></trkpt><trkpt lat="39.3152867" lon="16.9745383"><ele>435.0</ele><time>2026-03-28T15:46:57.395Z</time></trkpt><trkpt lat="39.3154217" lon="16.97465"><ele>435.0</ele><time>2026-03-28T15:46:58.396Z</time></trkpt><trkpt lat="39.3155667" lon="16.9747467"><ele>435.0</ele><time>2026-03-28T15:46:59.395Z</time></trkpt><trkpt lat="39.3157033" lon="16.9748417"><ele>435.33333333333337</ele><time>2026-03-28T15:47:00.395Z</time></trkpt><trkpt lat="39.3158383" lon="16.9749533"><ele>435.6666666666667</ele><time>2026-03-28T15:47:01.395Z</time></trkpt><trkpt lat="39.31596" lon="16.9751"><ele>436.0</ele><time>2026-03-28T15:47:02.396Z</time></trkpt><trkpt lat="39.3160667" lon="16.975285"><ele>434.75</ele><time>2026-03-28T15:47:03.396Z</time></trkpt><trkpt lat="39.3161633" lon="16.9754433"><ele>433.5</ele><time>2026-03-28T15:47:04.395Z</time></trkpt><trkpt lat="39.31626" lon="16.975575"><ele>432.25</ele><time>2026-03-28T15:47:05.395Z</time></trkpt><trkpt lat="39.31637" lon="16.975665"><ele>431.0</ele><time>2026-03-28T15:47:06.396Z</time></trkpt><trkpt lat="39.31648" lon="16.9757267"><ele>428.75</ele><time>2026-03-28T15:47:07.396Z</time></trkpt><trkpt lat="39.3166067" lon="16.97575"><ele>426.5</ele><time>2026-03-28T15:47:08.395Z</time></trkpt><trkpt lat="39.3167583" lon="16.9757467"><ele>424.25</ele><time>2026-03-28T15:47:09.395Z</time></trkpt><trkpt lat="39.3169133" lon="16.9757433"><ele>422.0</ele><time>2026-03-28T15:47:10.395Z</time></trkpt><trkpt lat="39.3170683" lon="16.9757333"><ele>422.0</ele><time>2026-03-28T15:47:11.395Z</time></trkpt><trkpt lat="39.3172183" lon="16.9757417"><ele>422.0</ele><time>2026-03-28T15:47:12.395Z</time></trkpt><trkpt lat="39.3173683" lon="16.9757567"><ele>422.0</ele><time>2026-03-28T15:47:13.395Z</time></trkpt><trkpt lat="39.3174983" lon="16.9757933"><ele>422.0</ele><time>2026-03-28T15:47:14.395Z</time></trkpt><trkpt lat="39.317625" lon="16.9758367"><ele>418.3333333333333</ele><time>2026-03-28T15:47:15.395Z</time></trkpt><trkpt lat="39.317725" lon="16.975895"><ele>414.66666666666663</ele><time>2026-03-28T15:47:16.395Z</time></trkpt><trkpt lat="39.3177683" lon="16.9759733"><ele>411.0</ele><time>2026-03-28T15:47:17.395Z</time></trkpt><trkpt lat="39.3177967" lon="16.9760733"><ele>407.33333333333337</ele><time>2026-03-28T15:47:18.396Z</time></trkpt><trkpt lat="39.3177817" lon="16.9761867"><ele>403.6666666666667</ele><time>2026-03-28T15:47:19.395Z</time></trkpt><trkpt lat="39.3177417" lon="16.976285"><ele>400.0</ele><time>2026-03-28T15:47:20.395Z</time></trkpt><trkpt lat="39.3176733" lon="16.9763817"><ele>400.0</ele><time>2026-03-28T15:47:21.395Z</time></trkpt><trkpt lat="39.3175683" lon="16.9764733"><ele>400.0</ele><time>2026-03-28T15:47:22.395Z</time></trkpt><trkpt lat="39.3174583" lon="16.9765833"><ele>400.0</ele><time>2026-03-28T15:47:23.395Z</time></trkpt><trkpt lat="39.3173617" lon="16.9767267"><ele>400.0</ele><time>2026-03-28T15:47:24.395Z</time></trkpt><trkpt lat="39.317265" lon="16.9769"><ele>399.33333333333337</ele><time>2026-03-28T15:47:25.396Z</time></trkpt><trkpt lat="39.3171717" lon="16.9770933"><ele>398.66666666666663</ele><time>2026-03-28T15:47:26.395Z</time></trkpt><trkpt lat="39.3170833" lon="16.9772983"><ele>398.0</ele><time>2026-03-28T15:47:27.395Z</time></trkpt><trkpt lat="39.317" lon="16.9775233"><ele>398.0</ele><time>2026-03-28T15:47:28.395Z</time></trkpt><trkpt lat="39.316895" lon="16.9777733"><ele>398.0</ele><time>2026-03-28T15:47:29.395Z</time></trkpt><trkpt lat="39.31679" lon="16.97801"><ele>398.0</ele><time>2026-03-28T15:47:30.395Z</time></trkpt><trkpt lat="39.316685" lon="16.9782383"><ele>394.3333333333333</ele><time>2026-03-28T15:47:31.395Z</time></trkpt><trkpt lat="39.3166" lon="16.9784433"><ele>390.66666666666663</ele><time>2026-03-28T15:47:32.395Z</time></trkpt><trkpt lat="39.3165417" lon="16.9786367"><ele>387.0</ele><time>2026-03-28T15:47:33.395Z</time></trkpt><trkpt lat="39.3164967" lon="16.9787933"><ele>387.0</ele><time>2026-03-28T15:47:34.395Z</time></trkpt><trkpt lat="39.316465" lon="16.978935"><ele>387.0</ele><time>2026-03-28T15:47:35.395Z</time></trkpt><trkpt lat="39.316445" lon="16.9790367"><ele>387.0</ele><time>2026-03-28T15:47:36.395Z</time></trkpt><trkpt lat="39.3164467" lon="16.9791267"><ele>387.0</ele><time>2026-03-28T15:47:37.395Z</time></trkpt><trkpt lat="39.3164833" lon="16.97926"><ele>387.0</ele><time>2026-03-28T15:47:39.395Z</time></trkpt><trkpt lat="39.31654" lon="16.9793233"><ele>387.0</ele><time>2026-03-28T15:47:41.395Z</time></trkpt><trkpt lat="39.3165833" lon="16.979385"><ele>384.0</ele><time>2026-03-28T15:47:45.396Z</time></trkpt><trkpt lat="39.3165517" lon="16.9794817"><ele>381.0</ele><time>2026-03-28T15:47:49.395Z</time></trkpt><trkpt lat="39.3165" lon="16.9795933"><ele>378.0</ele><time>2026-03-28T15:47:52.395Z</time></trkpt><trkpt lat="39.3164517" lon="16.979715"><ele>375.0</ele><time>2026-03-28T15:47:54.395Z</time></trkpt><trkpt lat="39.3164017" lon="16.97984"><ele>372.0</ele><time>2026-03-28T15:47:56.395Z</time></trkpt><trkpt lat="39.3163483" lon="16.9799483"><ele>368.20000000000005</ele><time>2026-03-28T15:47:58.395Z</time></trkpt><trkpt lat="39.3163133" lon="16.9800517"><ele>364.4</ele><time>2026-03-28T15:48:00.395Z</time></trkpt><trkpt lat="39.3162617" lon="16.9801517"><ele>360.6</ele><time>2026-03-28T15:48:02.395Z</time></trkpt><trkpt lat="39.3161917" lon="16.9802917"><ele>356.79999999999995</ele><time>2026-03-28T15:48:04.395Z</time></trkpt><trkpt lat="39.316155" lon="16.9803617"><ele>353.0</ele><time>2026-03-28T15:48:05.395Z</time></trkpt><trkpt lat="39.3161133" lon="16.9804433"><ele>353.0</ele><time>2026-03-28T15:48:06.395Z</time></trkpt><trkpt lat="39.3160733" lon="16.9805283"><ele>353.0</ele><time>2026-03-28T15:48:07.395Z</time></trkpt><trkpt lat="39.316035" lon="16.98063"><ele>353.0</ele><time>2026-03-28T15:48:08.396Z</time></trkpt><trkpt lat="39.316025" lon="16.9807533"><ele>353.0</ele><time>2026-03-28T15:48:09.395Z</time></trkpt><trkpt lat="39.3160367" lon="16.9809067"><ele>353.0</ele><time>2026-03-28T15:48:10.396Z</time></trkpt><trkpt lat="39.3160433" lon="16.9810867"><ele>351.25</ele><time>2026-03-28T15:48:11.395Z</time></trkpt><trkpt lat="39.3160483" lon="16.9812667"><ele>349.5</ele><time>2026-03-28T15:48:12.396Z</time></trkpt><trkpt lat="39.3160483" lon="16.9814617"><ele>347.75</ele><time>2026-03-28T15:48:13.395Z</time></trkpt><trkpt lat="39.3160533" lon="16.981645"><ele>346.0</ele><time>2026-03-28T15:48:14.395Z</time></trkpt><trkpt lat="39.3160667" lon="16.9818067"><ele>344.25</ele><time>2026-03-28T15:48:15.395Z</time></trkpt><trkpt lat="39.316075" lon="16.9819717"><ele>342.5</ele><time>2026-03-28T15:48:16.395Z</time></trkpt><trkpt lat="39.3160917" lon="16.9821233"><ele>340.75</ele><time>2026-03-28T15:48:17.395Z</time></trkpt><trkpt lat="39.3161433" lon="16.982265"><ele>339.0</ele><time>2026-03-28T15:48:18.395Z</time></trkpt><trkpt lat="39.3162083" lon="16.9824267"><ele>339.5</ele><time>2026-03-28T15:48:19.396Z</time></trkpt><trkpt lat="39.3162817" lon="16.982585"><ele>340.0</ele><time>2026-03-28T15:48:20.395Z</time></trkpt><trkpt lat="39.3163633" lon="16.9827417"><ele>340.5</ele><time>2026-03-28T15:48:21.396Z</time></trkpt><trkpt lat="39.3164483" lon="16.98289"><ele>341.0</ele><time>2026-03-28T15:48:22.396Z</time></trkpt><trkpt lat="39.316535" lon="16.9830333"><ele>341.0</ele><time>2026-03-28T15:48:23.396Z</time></trkpt><trkpt lat="39.316615" lon="16.9831783"><ele>341.0</ele><time>2026-03-28T15:48:24.397Z</time></trkpt><trkpt lat="39.31668" lon="16.98333"><ele>341.0</ele><time>2026-03-28T15:48:25.396Z</time></trkpt><trkpt lat="39.31674" lon="16.983495"><ele>341.0</ele><time>2026-03-28T15:48:26.397Z</time></trkpt><trkpt lat="39.3167817" lon="16.9836733"><ele>338.0</ele><time>2026-03-28T15:48:27.396Z</time></trkpt><trkpt lat="39.31682" lon="16.983855"><ele>335.0</ele><time>2026-03-28T15:48:28.396Z</time></trkpt><trkpt lat="39.3168683" lon="16.9840367"><ele>332.0</ele><time>2026-03-28T15:48:29.397Z</time></trkpt><trkpt lat="39.3169233" lon="16.984225"><ele>328.6666666666667</ele><time>2026-03-28T15:48:30.396Z</time></trkpt><trkpt lat="39.316985" lon="16.9844233"><ele>325.3333333333333</ele><time>2026-03-28T15:48:31.396Z</time></trkpt><trkpt lat="39.31704" lon="16.9846117"><ele>322.0</ele><time>2026-03-28T15:48:32.396Z</time></trkpt><trkpt lat="39.3170967" lon="16.9847667"><ele>322.0</ele><time>2026-03-28T15:48:33.396Z</time></trkpt><trkpt lat="39.3171617" lon="16.9848933"><ele>322.0</ele><time>2026-03-28T15:48:34.397Z</time></trkpt><trkpt lat="39.3172433" lon="16.98498"><ele>322.0</ele><time>2026-03-28T15:48:35.396Z</time></trkpt><trkpt lat="39.3173367" lon="16.9850383"><ele>322.0</ele><time>2026-03-28T15:48:36.396Z</time></trkpt><trkpt lat="39.31744" lon="16.9850667"><ele>322.0</ele><time>2026-03-28T15:48:37.396Z</time></trkpt><trkpt lat="39.317545" lon="16.9850683"><ele>322.40000000000003</ele><time>2026-03-28T15:48:38.396Z</time></trkpt><trkpt lat="39.317655" lon="16.98508"><ele>322.8</ele><time>2026-03-28T15:48:39.397Z</time></trkpt><trkpt lat="39.3177567" lon="16.9851183"><ele>323.2</ele><time>2026-03-28T15:48:40.396Z</time></trkpt><trkpt lat="39.31785" lon="16.9851717"><ele>323.6</ele><time>2026-03-28T15:48:41.396Z</time></trkpt><trkpt lat="39.31795" lon="16.985235"><ele>324.0</ele><time>2026-03-28T15:48:42.396Z</time></trkpt><trkpt lat="39.3180617" lon="16.9852917"><ele>324.5</ele><time>2026-03-28T15:48:43.396Z</time></trkpt><trkpt lat="39.318185" lon="16.9853483"><ele>325.0</ele><time>2026-03-28T15:48:44.396Z</time></trkpt><trkpt lat="39.318305" lon="16.9854"><ele>325.5</ele><time>2026-03-28T15:48:45.396Z</time></trkpt><trkpt lat="39.31843" lon="16.9854517"><ele>326.0</ele><time>2026-03-28T15:48:46.396Z</time></trkpt><trkpt lat="39.3185467" lon="16.98551"><ele>326.0</ele><time>2026-03-28T15:48:47.396Z</time></trkpt><trkpt lat="39.3186483" lon="16.9855733"><ele>326.0</ele><time>2026-03-28T15:48:48.396Z</time></trkpt><trkpt lat="39.31874" lon="16.9856467"><ele>326.0</ele><time>2026-03-28T15:48:49.396Z</time></trkpt><trkpt lat="39.3188167" lon="16.9857283"><ele>326.0</ele><time>2026-03-28T15:48:50.396Z</time></trkpt><trkpt lat="39.3188717" lon="16.9858333"><ele>326.0</ele><time>2026-03-28T15:48:51.397Z</time></trkpt><trkpt lat="39.318915" lon="16.985955"><ele>322.5</ele><time>2026-03-28T15:48:52.396Z</time></trkpt><trkpt lat="39.3189583" lon="16.9860817"><ele>319.0</ele><time>2026-03-28T15:48:53.396Z</time></trkpt><trkpt lat="39.3190117" lon="16.98621"><ele>315.5</ele><time>2026-03-28T15:48:54.396Z</time></trkpt><trkpt lat="39.31908" lon="16.9863333"><ele>312.0</ele><time>2026-03-28T15:48:55.396Z</time></trkpt><trkpt lat="39.3191567" lon="16.9864617"><ele>312.0</ele><time>2026-03-28T15:48:56.397Z</time></trkpt><trkpt lat="39.31923" lon="16.9865933"><ele>312.0</ele><time>2026-03-28T15:48:57.396Z</time></trkpt><trkpt lat="39.3193067" lon="16.9867317"><ele>312.0</ele><time>2026-03-28T15:48:58.396Z</time></trkpt><trkpt lat="39.31938" lon="16.986875"><ele>312.0</ele><time>2026-03-28T15:48:59.396Z</time></trkpt><trkpt lat="39.3194517" lon="16.9870133"><ele>309.5</ele><time>2026-03-28T15:49:00.396Z</time></trkpt><trkpt lat="39.3195167" lon="16.9871633"><ele>307.0</ele><time>2026-03-28T15:49:01.396Z</time></trkpt><trkpt lat="39.3195767" lon="16.987325"><ele>304.5</ele><time>2026-03-28T15:49:02.396Z</time></trkpt><trkpt lat="39.3196283" lon="16.987475"><ele>302.0</ele><time>2026-03-28T15:49:03.397Z</time></trkpt><trkpt lat="39.3196717" lon="16.9876483"><ele>300.25</ele><time>2026-03-28T15:49:04.396Z</time></trkpt><trkpt lat="39.3197133" lon="16.9878283"><ele>298.5</ele><time>2026-03-28T15:49:05.396Z</time></trkpt><trkpt lat="39.3197633" lon="16.9879933"><ele>296.75</ele><time>2026-03-28T15:49:06.396Z</time></trkpt><trkpt lat="39.3198183" lon="16.9881483"><ele>295.0</ele><time>2026-03-28T15:49:07.396Z</time></trkpt><trkpt lat="39.3198867" lon="16.9882967"><ele>292.0</ele><time>2026-03-28T15:49:08.397Z</time></trkpt><trkpt lat="39.3199633" lon="16.98845"><ele>289.0</ele><time>2026-03-28T15:49:09.396Z</time></trkpt><trkpt lat="39.320035" lon="16.9886083"><ele>286.0</ele><time>2026-03-28T15:49:10.396Z</time></trkpt><trkpt lat="39.3201083" lon="16.98877"><ele>283.0</ele><time>2026-03-28T15:49:11.396Z</time></trkpt><trkpt lat="39.3201767" lon="16.988935"><ele>283.0</ele><time>2026-03-28T15:49:12.396Z</time></trkpt><trkpt lat="39.320245" lon="16.9890967"><ele>283.0</ele><time>2026-03-28T15:49:13.396Z</time></trkpt><trkpt lat="39.3203133" lon="16.989265"><ele>283.0</ele><time>2026-03-28T15:49:14.396Z</time></trkpt><trkpt lat="39.3203633" lon="16.9894233"><ele>283.0</ele><time>2026-03-28T15:49:15.396Z</time></trkpt><trkpt lat="39.320395" lon="16.9895767"><ele>280.6</ele><time>2026-03-28T15:49:16.396Z</time></trkpt><trkpt lat="39.3204117" lon="16.98973"><ele>278.20000000000005</ele><time>2026-03-28T15:49:17.396Z</time></trkpt><trkpt lat="39.3204017" lon="16.9898683"><ele>275.8</ele><time>2026-03-28T15:49:18.396Z</time></trkpt><trkpt lat="39.3203983" lon="16.9899883"><ele>273.40000000000003</ele><time>2026-03-28T15:49:19.396Z</time></trkpt><trkpt lat="39.3204167" lon="16.990085"><ele>271.0</ele><time>2026-03-28T15:49:20.396Z</time></trkpt><trkpt lat="39.32046" lon="16.990165"><ele>269.8</ele><time>2026-03-28T15:49:21.396Z</time></trkpt><trkpt lat="39.3205183" lon="16.99024"><ele>268.6</ele><time>2026-03-28T15:49:22.396Z</time></trkpt><trkpt lat="39.320585" lon="16.9903183"><ele>267.4</ele><time>2026-03-28T15:49:23.396Z</time></trkpt><trkpt lat="39.320665" lon="16.9904133"><ele>266.2</ele><time>2026-03-28T15:49:24.396Z</time></trkpt><trkpt lat="39.3207533" lon="16.9905117"><ele>265.0</ele><time>2026-03-28T15:49:25.396Z</time></trkpt><trkpt lat="39.3208367" lon="16.9906067"><ele>265.0</ele><time>2026-03-28T15:49:26.396Z</time></trkpt><trkpt lat="39.3208883" lon="16.9907033"><ele>265.0</ele><time>2026-03-28T15:49:27.396Z</time></trkpt><trkpt lat="39.320925" lon="16.9908233"><ele>265.0</ele><time>2026-03-28T15:49:28.396Z</time></trkpt><trkpt lat="39.3209517" lon="16.990955"><ele>265.0</ele><time>2026-03-28T15:49:29.396Z</time></trkpt><trkpt lat="39.320975" lon="16.99109"><ele>265.0</ele><time>2026-03-28T15:49:30.396Z</time></trkpt><trkpt lat="39.3209983" lon="16.9912017"><ele>262.3333333333333</ele><time>2026-03-28T15:49:31.396Z</time></trkpt><trkpt lat="39.3210517" lon="16.991295"><ele>259.66666666666663</ele><time>2026-03-28T15:49:32.397Z</time></trkpt><trkpt lat="39.3211167" lon="16.9913767"><ele>257.0</ele><time>2026-03-28T15:49:33.396Z</time></trkpt><trkpt lat="39.321195" lon="16.9914367"><ele>254.33333333333331</ele><time>2026-03-28T15:49:34.396Z</time></trkpt><trkpt lat="39.321265" lon="16.9914917"><ele>251.66666666666666</ele><time>2026-03-28T15:49:35.396Z</time></trkpt><trkpt lat="39.32132" lon="16.9915617"><ele>249.0</ele><time>2026-03-28T15:49:36.396Z</time></trkpt><trkpt lat="39.32136" lon="16.99165"><ele>249.39999999999998</ele><time>2026-03-28T15:49:37.396Z</time></trkpt><trkpt lat="39.3213967" lon="16.991765"><ele>249.79999999999998</ele><time>2026-03-28T15:49:38.396Z</time></trkpt><trkpt lat="39.3214167" lon="16.9919133"><ele>250.20000000000002</ele><time>2026-03-28T15:49:39.396Z</time></trkpt><trkpt lat="39.321415" lon="16.9920533"><ele>250.60000000000002</ele><time>2026-03-28T15:49:40.396Z</time></trkpt><trkpt lat="39.321415" lon="16.9921817"><ele>251.0</ele><time>2026-03-28T15:49:41.396Z</time></trkpt><trkpt lat="39.3214233" lon="16.9922767"><ele>251.00000000000003</ele><time>2026-03-28T15:49:42.396Z</time></trkpt><trkpt lat="39.3214617" lon="16.9923567"><ele>251.0</ele><time>2026-03-28T15:49:43.397Z</time></trkpt><trkpt lat="39.321525" lon="16.9924233"><ele>251.0</ele><time>2026-03-28T15:49:44.397Z</time></trkpt><trkpt lat="39.321595" lon="16.9925017"><ele>251.0</ele><time>2026-03-28T15:49:45.396Z</time></trkpt><trkpt lat="39.321645" lon="16.9925933"><ele>251.00000000000003</ele><time>2026-03-28T15:49:46.396Z</time></trkpt><trkpt lat="39.3216783" lon="16.9926917"><ele>251.0</ele><time>2026-03-28T15:49:47.396Z</time></trkpt><trkpt lat="39.3217" lon="16.9927767"><ele>249.33333333333334</ele><time>2026-03-28T15:49:48.396Z</time></trkpt><trkpt lat="39.3217233" lon="16.9928533"><ele>247.66666666666669</ele><time>2026-03-28T15:49:49.396Z</time></trkpt><trkpt lat="39.3217567" lon="16.9929317"><ele>246.0</ele><time>2026-03-28T15:49:50.396Z</time></trkpt><trkpt lat="39.3217983" lon="16.9929933"><ele>244.33333333333331</ele><time>2026-03-28T15:49:51.396Z</time></trkpt><trkpt lat="39.32188" lon="16.9930983"><ele>242.66666666666666</ele><time>2026-03-28T15:49:53.396Z</time></trkpt><trkpt lat="39.3219283" lon="16.9931933"><ele>241.0</ele><time>2026-03-28T15:49:55.396Z</time></trkpt><trkpt lat="39.321985" lon="16.99332"><ele>237.66666666666666</ele><time>2026-03-28T15:49:57.396Z</time></trkpt><trkpt lat="39.3220467" lon="16.993455"><ele>234.33333333333331</ele><time>2026-03-28T15:49:59.396Z</time></trkpt><trkpt lat="39.32208" lon="16.993525"><ele>231.0</ele><time>2026-03-28T15:50:00.396Z</time></trkpt><trkpt lat="39.3221267" lon="16.9935883"><ele>227.66666666666669</ele><time>2026-03-28T15:50:01.397Z</time></trkpt><trkpt lat="39.3221933" lon="16.9936267"><ele>224.33333333333334</ele><time>2026-03-28T15:50:02.396Z</time></trkpt><trkpt lat="39.3222683" lon="16.99365"><ele>221.0</ele><time>2026-03-28T15:50:03.397Z</time></trkpt><trkpt lat="39.3223483" lon="16.993645"><ele>221.00000000000003</ele><time>2026-03-28T15:50:04.396Z</time></trkpt><trkpt lat="39.32242" lon="16.9936167"><ele>221.0</ele><time>2026-03-28T15:50:05.396Z</time></trkpt><trkpt lat="39.32249" lon="16.993575"><ele>221.0</ele><time>2026-03-28T15:50:06.396Z</time></trkpt><trkpt lat="39.32256" lon="16.9935233"><ele>221.0</ele><time>2026-03-28T15:50:07.396Z</time></trkpt><trkpt lat="39.3226267" lon="16.9934767"><ele>221.00000000000003</ele><time>2026-03-28T15:50:08.397Z</time></trkpt><trkpt lat="39.3227033" lon="16.9934283"><ele>221.0</ele><time>2026-03-28T15:50:09.396Z</time></trkpt><trkpt lat="39.3227833" lon="16.993385"><ele>223.50000000000003</ele><time>2026-03-28T15:50:10.396Z</time></trkpt><trkpt lat="39.322855" lon="16.9933367"><ele>226.0</ele><time>2026-03-28T15:50:11.396Z</time></trkpt><trkpt lat="39.3229317" lon="16.99331"><ele>228.5</ele><time>2026-03-28T15:50:12.396Z</time></trkpt><trkpt lat="39.323" lon="16.9933167"><ele>231.0</ele><time>2026-03-28T15:50:13.397Z</time></trkpt><trkpt lat="39.3231033" lon="16.9934067"><ele>233.50000000000003</ele><time>2026-03-28T15:50:15.396Z</time></trkpt><trkpt lat="39.32314" lon="16.993495"><ele>236.0</ele><time>2026-03-28T15:50:16.396Z</time></trkpt><trkpt lat="39.3231683" lon="16.9936033"><ele>228.5</ele><time>2026-03-28T15:50:17.396Z</time></trkpt><trkpt lat="39.323185" lon="16.9937467"><ele>221.0</ele><time>2026-03-28T15:50:18.397Z</time></trkpt><trkpt lat="39.3231967" lon="16.9939133"><ele>213.5</ele><time>2026-03-28T15:50:19.396Z</time></trkpt><trkpt lat="39.3232133" lon="16.994075"><ele>206.0</ele><time>2026-03-28T15:50:20.396Z</time></trkpt><trkpt lat="39.32323" lon="16.9942383"><ele>204.4</ele><time>2026-03-28T15:50:21.396Z</time></trkpt><trkpt lat="39.32324" lon="16.9943983"><ele>202.8</ele><time>2026-03-28T15:50:22.396Z</time></trkpt><trkpt lat="39.323255" lon="16.9945417"><ele>201.20000000000002</ele><time>2026-03-28T15:50:23.396Z</time></trkpt><trkpt lat="39.323265" lon="16.9946617"><ele>199.60000000000002</ele><time>2026-03-28T15:50:24.396Z</time></trkpt><trkpt lat="39.3232717" lon="16.9947617"><ele>198.0</ele><time>2026-03-28T15:50:25.396Z</time></trkpt><trkpt lat="39.323285" lon="16.994855"><ele>198.0</ele><time>2026-03-28T15:50:26.396Z</time></trkpt><trkpt lat="39.3233083" lon="16.9949367"><ele>198.0</ele><time>2026-03-28T15:50:27.396Z</time></trkpt><trkpt lat="39.323355" lon="16.9950167"><ele>198.0</ele><time>2026-03-28T15:50:28.397Z</time></trkpt><trkpt lat="39.3234167" lon="16.995075"><ele>198.0</ele><time>2026-03-28T15:50:29.396Z</time></trkpt><trkpt lat="39.32349" lon="16.9951183"><ele>198.0</ele><time>2026-03-28T15:50:30.396Z</time></trkpt><trkpt lat="39.3235783" lon="16.9951383"><ele>198.0</ele><time>2026-03-28T15:50:31.396Z</time></trkpt><trkpt lat="39.3236783" lon="16.9951367"><ele>195.0</ele><time>2026-03-28T15:50:32.396Z</time></trkpt><trkpt lat="39.3237867" lon="16.9951267"><ele>192.0</ele><time>2026-03-28T15:50:33.396Z</time></trkpt><trkpt lat="39.3239017" lon="16.99512"><ele>189.0</ele><time>2026-03-28T15:50:34.396Z</time></trkpt><trkpt lat="39.3240117" lon="16.99511"><ele>186.0</ele><time>2026-03-28T15:50:35.396Z</time></trkpt><trkpt lat="39.3241233" lon="16.9951017"><ele>183.0</ele><time>2026-03-28T15:50:36.396Z</time></trkpt><trkpt lat="39.324225" lon="16.9950783"><ele>183.0</ele><time>2026-03-28T15:50:37.396Z</time></trkpt><trkpt lat="39.324305" lon="16.9950467"><ele>183.0</ele><time>2026-03-28T15:50:38.397Z</time></trkpt><trkpt lat="39.3243817" lon="16.9949933"><ele>183.0</ele><time>2026-03-28T15:50:39.396Z</time></trkpt><trkpt lat="39.3244467" lon="16.9949333"><ele>183.0</ele><time>2026-03-28T15:50:40.397Z</time></trkpt><trkpt lat="39.324495" lon="16.9948617"><ele>183.0</ele><time>2026-03-28T15:50:41.396Z</time></trkpt><trkpt lat="39.324555" lon="16.9947817"><ele>183.0</ele><time>2026-03-28T15:50:42.396Z</time></trkpt><trkpt lat="39.324605" lon="16.9947133"><ele>183.5</ele><time>2026-03-28T15:50:43.396Z</time></trkpt><trkpt lat="39.324645" lon="16.9946433"><ele>184.0</ele><time>2026-03-28T15:50:44.396Z</time></trkpt><trkpt lat="39.3246733" lon="16.9944883"><ele>184.5</ele><time>2026-03-28T15:50:46.396Z</time></trkpt><trkpt lat="39.324665" lon="16.9943917"><ele>185.0</ele><time>2026-03-28T15:50:47.396Z</time></trkpt><trkpt lat="39.32466" lon="16.9942833"><ele>185.5</ele><time>2026-03-28T15:50:48.396Z</time></trkpt><trkpt lat="39.3246567" lon="16.99416"><ele>186.0</ele><time>2026-03-28T15:50:49.396Z</time></trkpt><trkpt lat="39.324635" lon="16.994045"><ele>186.20000000000002</ele><time>2026-03-28T15:50:50.396Z</time></trkpt><trkpt lat="39.3246033" lon="16.9939417"><ele>186.4</ele><time>2026-03-28T15:50:51.396Z</time></trkpt><trkpt lat="39.3245633" lon="16.9938017"><ele>186.6</ele><time>2026-03-28T15:50:53.397Z</time></trkpt><trkpt lat="39.3246433" lon="16.9938483"><ele>186.8</ele><time>2026-03-28T15:50:56.396Z</time></trkpt><trkpt lat="39.3247067" lon="16.9939017"><ele>187.0</ele><time>2026-03-28T15:50:57.396Z</time></trkpt><trkpt lat="39.3247867" lon="16.9939733"><ele>184.6</ele><time>2026-03-28T15:50:58.396Z</time></trkpt><trkpt lat="39.32487" lon="16.994035"><ele>182.2</ele><time>2026-03-28T15:50:59.397Z</time></trkpt><trkpt lat="39.3249583" lon="16.9940933"><ele>179.8</ele><time>2026-03-28T15:51:00.397Z</time></trkpt><trkpt lat="39.3250517" lon="16.9941767"><ele>177.4</ele><time>2026-03-28T15:51:01.396Z</time></trkpt><trkpt lat="39.3251417" lon="16.9942767"><ele>175.0</ele><time>2026-03-28T15:51:02.396Z</time></trkpt><trkpt lat="39.3252267" lon="16.9943267"><ele>174.8</ele><time>2026-03-28T15:51:03.397Z</time></trkpt><trkpt lat="39.32532" lon="16.9943567"><ele>174.6</ele><time>2026-03-28T15:51:04.396Z</time></trkpt><trkpt lat="39.325425" lon="16.9943717"><ele>174.39999999999998</ele><time>2026-03-28T15:51:05.396Z</time></trkpt><trkpt lat="39.32554" lon="16.99437"><ele>174.2</ele><time>2026-03-28T15:51:06.397Z</time></trkpt><trkpt lat="39.3256517" lon="16.9943667"><ele>174.0</ele><time>2026-03-28T15:51:07.396Z</time></trkpt><trkpt lat="39.3257717" lon="16.99436"><ele>174.0</ele><time>2026-03-28T15:51:08.397Z</time></trkpt><trkpt lat="39.3258767" lon="16.9943467"><ele>174.0</ele><time>2026-03-28T15:51:09.396Z</time></trkpt><trkpt lat="39.32597" lon="16.9943033"><ele>174.0</ele><time>2026-03-28T15:51:10.397Z</time></trkpt><trkpt lat="39.3260633" lon="16.9942333"><ele>174.0</ele><time>2026-03-28T15:51:11.397Z</time></trkpt><trkpt lat="39.3261583" lon="16.9941567"><ele>174.0</ele><time>2026-03-28T15:51:12.396Z</time></trkpt><trkpt lat="39.32625" lon="16.9940933"><ele>175.6</ele><time>2026-03-28T15:51:13.396Z</time></trkpt><trkpt lat="39.326325" lon="16.99402"><ele>177.2</ele><time>2026-03-28T15:51:14.396Z</time></trkpt><trkpt lat="39.3263817" lon="16.9939233"><ele>178.79999999999998</ele><time>2026-03-28T15:51:15.396Z</time></trkpt><trkpt lat="39.3264333" lon="16.9938083"><ele>180.39999999999998</ele><time>2026-03-28T15:51:16.396Z</time></trkpt><trkpt lat="39.3265017" lon="16.9937183"><ele>182.0</ele><time>2026-03-28T15:51:17.396Z</time></trkpt><trkpt lat="39.326585" lon="16.9936467"><ele>182.6</ele><time>2026-03-28T15:51:18.396Z</time></trkpt><trkpt lat="39.3266767" lon="16.993585"><ele>183.2</ele><time>2026-03-28T15:51:19.396Z</time></trkpt><trkpt lat="39.3267617" lon="16.99353"><ele>183.8</ele><time>2026-03-28T15:51:20.396Z</time></trkpt><trkpt lat="39.3268433" lon="16.993465"><ele>184.4</ele><time>2026-03-28T15:51:21.396Z</time></trkpt><trkpt lat="39.3269117" lon="16.9933917"><ele>185.0</ele><time>2026-03-28T15:51:22.397Z</time></trkpt><trkpt lat="39.3269567" lon="16.9933117"><ele>184.99999999999997</ele><time>2026-03-28T15:51:23.396Z</time></trkpt><trkpt lat="39.3269917" lon="16.9932333"><ele>185.0</ele><time>2026-03-28T15:51:24.396Z</time></trkpt><trkpt lat="39.327055" lon="16.9931783"><ele>185.0</ele><time>2026-03-28T15:51:26.396Z</time></trkpt><trkpt lat="39.3271133" lon="16.9932283"><ele>185.0</ele><time>2026-03-28T15:51:29.396Z</time></trkpt><trkpt lat="39.3271567" lon="16.9933033"><ele>185.0</ele><time>2026-03-28T15:51:34.397Z</time></trkpt><trkpt lat="39.3272117" lon="16.9933533"><ele>184.99999999999997</ele><time>2026-03-28T15:51:39.396Z</time></trkpt><trkpt lat="39.3272967" lon="16.9934017"><ele>185.0</ele><time>2026-03-28T15:52:05.396Z</time></trkpt><trkpt lat="39.3273733" lon="16.9934067"><ele>186.2</ele><time>2026-03-28T15:52:12.396Z</time></trkpt><trkpt lat="39.3274567" lon="16.99345"><ele>187.4</ele><time>2026-03-28T15:52:15.396Z</time></trkpt><trkpt lat="39.3274767" lon="16.9935283"><ele>188.60000000000002</ele><time>2026-03-28T15:52:17.396Z</time></trkpt><trkpt lat="39.3275017" lon="16.9936883"><ele>189.8</ele><time>2026-03-28T15:52:19.396Z</time></trkpt><trkpt lat="39.3275233" lon="16.9938233"><ele>191.0</ele><time>2026-03-28T15:52:20.396Z</time></trkpt><trkpt lat="39.3275467" lon="16.9939567"><ele>191.0</ele><time>2026-03-28T15:52:21.396Z</time></trkpt><trkpt lat="39.3275767" lon="16.9940917"><ele>191.0</ele><time>2026-03-28T15:52:22.396Z</time></trkpt><trkpt lat="39.3276133" lon="16.9942283"><ele>191.0</ele><time>2026-03-28T15:52:23.396Z</time></trkpt><trkpt lat="39.3276567" lon="16.9943717"><ele>191.0</ele><time>2026-03-28T15:52:24.396Z</time></trkpt><trkpt lat="39.3277067" lon="16.9945017"><ele>191.0</ele><time>2026-03-28T15:52:25.396Z</time></trkpt><trkpt lat="39.327755" lon="16.9946317"><ele>191.0</ele><time>2026-03-28T15:52:26.396Z</time></trkpt><trkpt lat="39.3277983" lon="16.99477"><ele>191.0</ele><time>2026-03-28T15:52:27.396Z</time></trkpt><trkpt lat="39.32783" lon="16.9949233"><ele>191.0</ele><time>2026-03-28T15:52:28.396Z</time></trkpt><trkpt lat="39.327845" lon="16.9950767"><ele>189.75</ele><time>2026-03-28T15:52:29.396Z</time></trkpt><trkpt lat="39.327835" lon="16.9952383"><ele>188.5</ele><time>2026-03-28T15:52:30.396Z</time></trkpt><trkpt lat="39.3278033" lon="16.9954"><ele>187.25</ele><time>2026-03-28T15:52:31.396Z</time></trkpt><trkpt lat="39.3277783" lon="16.9955567"><ele>186.0</ele><time>2026-03-28T15:52:32.396Z</time></trkpt><trkpt lat="39.327765" lon="16.995705"><ele>184.4</ele><time>2026-03-28T15:52:33.396Z</time></trkpt><trkpt lat="39.327745" lon="16.99584"><ele>182.8</ele><time>2026-03-28T15:52:34.396Z</time></trkpt><trkpt lat="39.3277217" lon="16.99596"><ele>181.20000000000002</ele><time>2026-03-28T15:52:35.396Z</time></trkpt><trkpt lat="39.3276917" lon="16.996075"><ele>179.60000000000002</ele><time>2026-03-28T15:52:36.396Z</time></trkpt><trkpt lat="39.3276483" lon="16.9961717"><ele>178.0</ele><time>2026-03-28T15:52:37.396Z</time></trkpt><trkpt lat="39.3275917" lon="16.9962483"><ele>178.0</ele><time>2026-03-28T15:52:38.396Z</time></trkpt><trkpt lat="39.3275233" lon="16.9962983"><ele>178.0</ele><time>2026-03-28T15:52:39.396Z</time></trkpt><trkpt lat="39.32743" lon="16.9963383"><ele>178.0</ele><time>2026-03-28T15:52:40.396Z</time></trkpt><trkpt lat="39.327305" lon="16.9963733"><ele>178.0</ele><time>2026-03-28T15:52:41.396Z</time></trkpt><trkpt lat="39.3271783" lon="16.9964"><ele>178.0</ele><time>2026-03-28T15:52:42.396Z</time></trkpt><trkpt lat="39.3270567" lon="16.99644"><ele>176.5</ele><time>2026-03-28T15:52:43.396Z</time></trkpt><trkpt lat="39.3269383" lon="16.9964767"><ele>175.0</ele><time>2026-03-28T15:52:44.396Z</time></trkpt><trkpt lat="39.3268083" lon="16.996515"><ele>173.5</ele><time>2026-03-28T15:52:45.396Z</time></trkpt><trkpt lat="39.3266933" lon="16.9965667"><ele>172.0</ele><time>2026-03-28T15:52:46.396Z</time></trkpt><trkpt lat="39.3265833" lon="16.9966217"><ele>169.2</ele><time>2026-03-28T15:52:47.397Z</time></trkpt><trkpt lat="39.32648" lon="16.99668"><ele>166.39999999999998</ele><time>2026-03-28T15:52:48.396Z</time></trkpt><trkpt lat="39.3263933" lon="16.9967333"><ele>163.60000000000002</ele><time>2026-03-28T15:52:49.396Z</time></trkpt><trkpt lat="39.3263267" lon="16.9968017"><ele>160.8</ele><time>2026-03-28T15:52:50.396Z</time></trkpt><trkpt lat="39.32627" lon="16.9968933"><ele>158.0</ele><time>2026-03-28T15:52:51.396Z</time></trkpt><trkpt lat="39.3262283" lon="16.9970033"><ele>158.0</ele><time>2026-03-28T15:52:52.396Z</time></trkpt><trkpt lat="39.3261867" lon="16.99713"><ele>158.0</ele><time>2026-03-28T15:52:53.397Z</time></trkpt><trkpt lat="39.326145" lon="16.9972517"><ele>158.0</ele><time>2026-03-28T15:52:54.396Z</time></trkpt><trkpt lat="39.3260867" lon="16.99738"><ele>158.0</ele><time>2026-03-28T15:52:55.396Z</time></trkpt><trkpt lat="39.3260383" lon="16.9975"><ele>158.0</ele><time>2026-03-28T15:52:56.396Z</time></trkpt><trkpt lat="39.3259917" lon="16.9976117"><ele>156.8</ele><time>2026-03-28T15:52:57.396Z</time></trkpt><trkpt lat="39.325955" lon="16.997695"><ele>155.60000000000002</ele><time>2026-03-28T15:52:58.397Z</time></trkpt><trkpt lat="39.3259017" lon="16.99781"><ele>154.39999999999998</ele><time>2026-03-28T15:53:00.397Z</time></trkpt><trkpt lat="39.3258667" lon="16.9979017"><ele>153.2</ele><time>2026-03-28T15:53:03.396Z</time></trkpt><trkpt lat="39.325835" lon="16.9980033"><ele>152.0</ele><time>2026-03-28T15:58:12.396Z</time></trkpt><trkpt lat="39.3257883" lon="16.99813"><ele>152.0</ele><time>2026-03-28T15:58:15.396Z</time></trkpt><trkpt lat="39.3257617" lon="16.9982067"><ele>152.0</ele><time>2026-03-28T15:58:16.396Z</time></trkpt><trkpt lat="39.3257317" lon="16.998295"><ele>152.0</ele><time>2026-03-28T15:58:17.396Z</time></trkpt><trkpt lat="39.3257033" lon="16.9983883"><ele>152.0</ele><time>2026-03-28T15:58:18.397Z</time></trkpt><trkpt lat="39.325675" lon="16.9984867"><ele>152.0</ele><time>2026-03-28T15:58:19.397Z</time></trkpt><trkpt lat="39.3256517" lon="16.9985817"><ele>152.0</ele><time>2026-03-28T15:58:20.396Z</time></trkpt><trkpt lat="39.3256583" lon="16.9986767"><ele>152.0</ele><time>2026-03-28T15:58:21.397Z</time></trkpt><trkpt lat="39.3256833" lon="16.9987567"><ele>148.83333333333331</ele><time>2026-03-28T15:58:22.396Z</time></trkpt><trkpt lat="39.3257767" lon="16.99885"><ele>145.66666666666666</ele><time>2026-03-28T15:58:24.396Z</time></trkpt><trkpt lat="39.325845" lon="16.99886"><ele>142.5</ele><time>2026-03-28T15:58:25.396Z</time></trkpt><trkpt lat="39.3259267" lon="16.9988433"><ele>139.33333333333334</ele><time>2026-03-28T15:58:26.396Z</time></trkpt><trkpt lat="39.326015" lon="16.9988117"><ele>136.16666666666669</ele><time>2026-03-28T15:58:27.396Z</time></trkpt><trkpt lat="39.326095" lon="16.9987667"><ele>133.0</ele><time>2026-03-28T15:58:28.397Z</time></trkpt><trkpt lat="39.3261633" lon="16.9986967"><ele>133.0</ele><time>2026-03-28T15:58:29.396Z</time></trkpt><trkpt lat="39.326225" lon="16.99861"><ele>133.0</ele><time>2026-03-28T15:58:30.396Z</time></trkpt><trkpt lat="39.3262783" lon="16.998505"><ele>133.0</ele><time>2026-03-28T15:58:31.396Z</time></trkpt><trkpt lat="39.32632" lon="16.99842"><ele>133.0</ele><time>2026-03-28T15:58:32.397Z</time></trkpt><trkpt lat="39.3264033" lon="16.9983317"><ele>133.0</ele><time>2026-03-28T15:58:34.396Z</time></trkpt><trkpt lat="39.3264467" lon="16.9984333"><ele>133.0</ele><time>2026-03-28T15:58:37.396Z</time></trkpt><trkpt lat="39.3264333" lon="16.9985167"><ele>133.0</ele><time>2026-03-28T15:58:38.396Z</time></trkpt><trkpt lat="39.3264067" lon="16.9986317"><ele>133.0</ele><time>2026-03-28T15:58:39.396Z</time></trkpt><trkpt lat="39.3263733" lon="16.9987533"><ele>133.0</ele><time>2026-03-28T15:58:40.396Z</time></trkpt><trkpt lat="39.326335" lon="16.9988733"><ele>133.0</ele><time>2026-03-28T15:58:41.396Z</time></trkpt><trkpt lat="39.32628" lon="16.9989883"><ele>133.0</ele><time>2026-03-28T15:58:42.396Z</time></trkpt><trkpt lat="39.32622" lon="16.9991033"><ele>133.0</ele><time>2026-03-28T15:58:43.396Z</time></trkpt><trkpt lat="39.3261533" lon="16.99921"><ele>133.0</ele><time>2026-03-28T15:58:44.396Z</time></trkpt><trkpt lat="39.3260767" lon="16.9993133"><ele>133.0</ele><time>2026-03-28T15:58:45.397Z</time></trkpt><trkpt lat="39.325985" lon="16.9994"><ele>133.0</ele><time>2026-03-28T15:58:46.396Z</time></trkpt><trkpt lat="39.3258967" lon="16.9994767"><ele>128.6</ele><time>2026-03-28T15:58:47.396Z</time></trkpt><trkpt lat="39.325815" lon="16.9995333"><ele>124.20000000000002</ele><time>2026-03-28T15:58:48.396Z</time></trkpt><trkpt lat="39.3257383" lon="16.9995667"><ele>119.8</ele><time>2026-03-28T15:58:49.397Z</time></trkpt><trkpt lat="39.3256733" lon="16.99961"><ele>115.4</ele><time>2026-03-28T15:58:50.396Z</time></trkpt><trkpt lat="39.3256333" lon="16.999735"><ele>111.0</ele><time>2026-03-28T15:58:52.396Z</time></trkpt><trkpt lat="39.32571" lon="16.9998517"><ele>111.0</ele><time>2026-03-28T15:58:54.396Z</time></trkpt><trkpt lat="39.3257867" lon="16.9999283"><ele>111.0</ele><time>2026-03-28T15:58:55.396Z</time></trkpt><trkpt lat="39.3258583" lon="17.0000467"><ele>111.0</ele><time>2026-03-28T15:58:56.396Z</time></trkpt><trkpt lat="39.325905" lon="17.0001783"><ele>111.0</ele><time>2026-03-28T15:58:57.396Z</time></trkpt><trkpt lat="39.3259233" lon="17.0003333"><ele>111.0</ele><time>2026-03-28T15:58:58.396Z</time></trkpt><trkpt lat="39.3259133" lon="17.0004833"><ele>111.0</ele><time>2026-03-28T15:58:59.397Z</time></trkpt><trkpt lat="39.3258833" lon="17.0006317"><ele>111.0</ele><time>2026-03-28T15:59:00.396Z</time></trkpt><trkpt lat="39.325845" lon="17.000755"><ele>111.0</ele><time>2026-03-28T15:59:01.396Z</time></trkpt><trkpt lat="39.3257767" lon="17.0008567"><ele>111.0</ele><time>2026-03-28T15:59:02.397Z</time></trkpt><trkpt lat="39.3256983" lon="17.0009467"><ele>111.0</ele><time>2026-03-28T15:59:03.396Z</time></trkpt><trkpt lat="39.325615" lon="17.0010383"><ele>111.4</ele><time>2026-03-28T15:59:04.396Z</time></trkpt><trkpt lat="39.3255617" lon="17.001145"><ele>111.8</ele><time>2026-03-28T15:59:05.396Z</time></trkpt><trkpt lat="39.3255317" lon="17.00126"><ele>112.20000000000002</ele><time>2026-03-28T15:59:06.396Z</time></trkpt><trkpt lat="39.3255083" lon="17.0013817"><ele>112.60000000000001</ele><time>2026-03-28T15:59:07.396Z</time></trkpt><trkpt lat="39.325495" lon="17.001515"><ele>113.0</ele><time>2026-03-28T15:59:08.397Z</time></trkpt><trkpt lat="39.3254917" lon="17.0016567"><ele>112.5</ele><time>2026-03-28T15:59:09.396Z</time></trkpt><trkpt lat="39.3255" lon="17.0018"><ele>112.0</ele><time>2026-03-28T15:59:10.396Z</time></trkpt><trkpt lat="39.3255233" lon="17.0019483"><ele>111.5</ele><time>2026-03-28T15:59:11.397Z</time></trkpt><trkpt lat="39.325545" lon="17.0020983"><ele>111.0</ele><time>2026-03-28T15:59:12.396Z</time></trkpt><trkpt lat="39.3255683" lon="17.00224"><ele>110.33333333333333</ele><time>2026-03-28T15:59:13.397Z</time></trkpt><trkpt lat="39.3255817" lon="17.0023767"><ele>109.66666666666666</ele><time>2026-03-28T15:59:14.397Z</time></trkpt><trkpt lat="39.3255933" lon="17.0024967"><ele>109.0</ele><time>2026-03-28T15:59:15.396Z</time></trkpt><trkpt lat="39.3256" lon="17.0026033"><ele>108.33333333333333</ele><time>2026-03-28T15:59:16.396Z</time></trkpt><trkpt lat="39.325605" lon="17.0026883"><ele>107.66666666666666</ele><time>2026-03-28T15:59:17.396Z</time></trkpt><trkpt lat="39.3255933" lon="17.0027817"><ele>107.0</ele><time>2026-03-28T15:59:18.396Z</time></trkpt><trkpt lat="39.3255717" lon="17.0028683"><ele>108.0</ele><time>2026-03-28T15:59:19.396Z</time></trkpt><trkpt lat="39.3255467" lon="17.0029533"><ele>108.99999999999999</ele><time>2026-03-28T15:59:20.396Z</time></trkpt><trkpt lat="39.32552" lon="17.00303"><ele>109.99999999999999</ele><time>2026-03-28T15:59:21.396Z</time></trkpt><trkpt lat="39.3254867" lon="17.0031117"><ele>111.0</ele><time>2026-03-28T15:59:22.396Z</time></trkpt><trkpt lat="39.32544" lon="17.003225"><ele>112.0</ele><time>2026-03-28T15:59:24.396Z</time></trkpt><trkpt lat="39.3253683" lon="17.0034217"><ele>112.00000000000001</ele><time>2026-03-28T15:59:56.396Z</time></trkpt><trkpt lat="39.3253233" lon="17.003545"><ele>112.0</ele><time>2026-03-28T16:00:10.396Z</time></trkpt><trkpt lat="39.32527" lon="17.0036033"><ele>112.0</ele><time>2026-03-28T16:00:13.396Z</time></trkpt><trkpt lat="39.32521" lon="17.0036867"><ele>112.0</ele><time>2026-03-28T16:00:16.396Z</time></trkpt><trkpt lat="39.3251717" lon="17.0037717"><ele>112.00000000000001</ele><time>2026-03-28T16:00:18.396Z</time></trkpt><trkpt lat="39.3251533" lon="17.003875"><ele>112.0</ele><time>2026-03-28T16:00:20.396Z</time></trkpt><trkpt lat="39.3251383" lon="17.003965"><ele>112.0</ele><time>2026-03-28T16:00:22.396Z</time></trkpt><trkpt lat="39.325155" lon="17.0040667"><ele>111.99999999999999</ele><time>2026-03-28T16:00:24.396Z</time></trkpt><trkpt lat="39.3251567" lon="17.0042017"><ele>111.99999999999999</ele><time>2026-03-28T16:00:26.397Z</time></trkpt><trkpt lat="39.3251767" lon="17.004345"><ele>112.0</ele><time>2026-03-28T16:00:28.396Z</time></trkpt><trkpt lat="39.3251883" lon="17.0044933"><ele>112.0</ele><time>2026-03-28T16:00:30.396Z</time></trkpt><trkpt lat="39.3251783" lon="17.0046617"><ele>111.16666666666667</ele><time>2026-03-28T16:00:32.396Z</time></trkpt><trkpt lat="39.325175" lon="17.0047567"><ele>110.33333333333334</ele><time>2026-03-28T16:00:33.396Z</time></trkpt><trkpt lat="39.325175" lon="17.00486"><ele>109.5</ele><time>2026-03-28T16:00:34.397Z</time></trkpt><trkpt lat="39.325175" lon="17.0049667"><ele>108.66666666666666</ele><time>2026-03-28T16:00:35.396Z</time></trkpt><trkpt lat="39.3251617" lon="17.0050767"><ele>107.83333333333333</ele><time>2026-03-28T16:00:36.396Z</time></trkpt><trkpt lat="39.3251467" lon="17.0051633"><ele>107.0</ele><time>2026-03-28T16:00:37.396Z</time></trkpt><trkpt lat="39.3251417" lon="17.0052867"><ele>106.8</ele><time>2026-03-28T16:00:39.396Z</time></trkpt><trkpt lat="39.325165" lon="17.00539"><ele>106.6</ele><time>2026-03-28T16:00:42.396Z</time></trkpt><trkpt lat="39.3251767" lon="17.0055033"><ele>106.39999999999999</ele><time>2026-03-28T16:00:44.396Z</time></trkpt><trkpt lat="39.32516" lon="17.0056467"><ele>106.19999999999999</ele><time>2026-03-28T16:00:46.396Z</time></trkpt><trkpt lat="39.3251617" lon="17.0058017"><ele>106.0</ele><time>2026-03-28T16:00:48.396Z</time></trkpt><trkpt lat="39.3251583" lon="17.005885"><ele>105.4</ele><time>2026-03-28T16:00:49.397Z</time></trkpt><trkpt lat="39.32516" lon="17.00603"><ele>104.8</ele><time>2026-03-28T16:00:51.397Z</time></trkpt><trkpt lat="39.32513" lon="17.0061417"><ele>104.2</ele><time>2026-03-28T16:00:53.396Z</time></trkpt><trkpt lat="39.325105" lon="17.00625"><ele>103.60000000000001</ele><time>2026-03-28T16:00:55.396Z</time></trkpt><trkpt lat="39.3251017" lon="17.0063833"><ele>103.0</ele><time>2026-03-28T16:00:57.396Z</time></trkpt><trkpt lat="39.3251033" lon="17.00651"><ele>103.00000000000001</ele><time>2026-03-28T16:00:59.396Z</time></trkpt><trkpt lat="39.3251083" lon="17.0066117"><ele>103.0</ele><time>2026-03-28T16:01:01.396Z</time></trkpt><trkpt lat="39.325135" lon="17.0067117"><ele>103.0</ele><time>2026-03-28T16:01:03.398Z</time></trkpt><trkpt lat="39.32516" lon="17.0068117"><ele>103.0</ele><time>2026-03-28T16:01:05.397Z</time></trkpt><trkpt lat="39.3251767" lon="17.0069183"><ele>103.00000000000001</ele><time>2026-03-28T16:01:07.397Z</time></trkpt><trkpt lat="39.3252133" lon="17.00699"><ele>103.0</ele><time>2026-03-28T16:01:09.397Z</time></trkpt><trkpt lat="39.3252633" lon="17.0070683"><ele>103.4</ele><time>2026-03-28T16:01:11.397Z</time></trkpt><trkpt lat="39.3253117" lon="17.007145"><ele>103.80000000000001</ele><time>2026-03-28T16:01:13.397Z</time></trkpt><trkpt lat="39.3253899" lon="17.0071891"><ele>104.2</ele><time>2026-03-28T16:01:15.397Z</time></trkpt><trkpt lat="39.3255038" lon="17.0071744"><ele>104.6</ele><time>2026-03-28T16:01:17.397Z</time></trkpt><trkpt lat="39.3256329" lon="17.0071571"><ele>105.0</ele><time>2026-03-28T16:01:19.397Z</time></trkpt><trkpt lat="39.325711" lon="17.0071544"><ele>103.66666666666667</ele><time>2026-03-28T16:01:20.397Z</time></trkpt><trkpt lat="39.3257901" lon="17.0071493"><ele>102.33333333333334</ele><time>2026-03-28T16:01:21.397Z</time></trkpt><trkpt lat="39.3258681" lon="17.0071496"><ele>101.0</ele><time>2026-03-28T16:01:22.398Z</time></trkpt><trkpt lat="39.3259459" lon="17.0071651"><ele>99.66666666666667</ele><time>2026-03-28T16:01:23.397Z</time></trkpt><trkpt lat="39.326026" lon="17.0071807"><ele>98.33333333333334</ele><time>2026-03-28T16:01:24.397Z</time></trkpt><trkpt lat="39.3260994" lon="17.0072002"><ele>97.0</ele><time>2026-03-28T16:01:25.397Z</time></trkpt><trkpt lat="39.3261659" lon="17.0072226"><ele>97.0</ele><time>2026-03-28T16:01:26.397Z</time></trkpt><trkpt lat="39.3262764" lon="17.0072879"><ele>97.0</ele><time>2026-03-28T16:01:28.397Z</time></trkpt><trkpt lat="39.3263598" lon="17.0073723"><ele>97.0</ele><time>2026-03-28T16:01:30.397Z</time></trkpt><trkpt lat="39.3264191" lon="17.0074425"><ele>97.0</ele><time>2026-03-28T16:01:32.397Z</time></trkpt><trkpt lat="39.3264792" lon="17.0075246"><ele>97.0</ele><time>2026-03-28T16:01:34.397Z</time></trkpt><trkpt lat="39.3265183" lon="17.0076327"><ele>96.6</ele><time>2026-03-28T16:01:36.397Z</time></trkpt><trkpt lat="39.3265631" lon="17.0077475"><ele>96.19999999999999</ele><time>2026-03-28T16:01:38.398Z</time></trkpt><trkpt lat="39.3266005" lon="17.007875"><ele>95.8</ele><time>2026-03-28T16:01:40.397Z</time></trkpt><trkpt lat="39.3266334" lon="17.00802"><ele>95.4</ele><time>2026-03-28T16:01:42.397Z</time></trkpt><trkpt lat="39.3266307" lon="17.008157"><ele>95.0</ele><time>2026-03-28T16:01:44.398Z</time></trkpt><trkpt lat="39.3265783" lon="17.008272"><ele>94.66666666666667</ele><time>2026-03-28T16:01:46.397Z</time></trkpt><trkpt lat="39.3265145" lon="17.0083811"><ele>94.33333333333334</ele><time>2026-03-28T16:01:48.397Z</time></trkpt><trkpt lat="39.3264626" lon="17.0084858"><ele>94.0</ele><time>2026-03-28T16:01:50.397Z</time></trkpt><trkpt lat="39.3264212" lon="17.0085755"><ele>93.66666666666667</ele><time>2026-03-28T16:01:52.397Z</time></trkpt><trkpt lat="39.3264144" lon="17.0086883"><ele>93.33333333333333</ele><time>2026-03-28T16:01:55.397Z</time></trkpt><trkpt lat="39.3264241" lon="17.0087744"><ele>93.0</ele><time>2026-03-28T16:01:57.397Z</time></trkpt><trkpt lat="39.326443" lon="17.0088847"><ele>93.0</ele><time>2026-03-28T16:01:59.397Z</time></trkpt><trkpt lat="39.3265013" lon="17.0090193"><ele>93.0</ele><time>2026-03-28T16:02:01.397Z</time></trkpt><trkpt lat="39.3265462" lon="17.0090817"><ele>93.0</ele><time>2026-03-28T16:02:02.397Z</time></trkpt><trkpt lat="39.3266011" lon="17.0091366"><ele>93.0</ele><time>2026-03-28T16:02:03.397Z</time></trkpt><trkpt lat="39.3266558" lon="17.0091812"><ele>93.0</ele><time>2026-03-28T16:02:04.398Z</time></trkpt><trkpt lat="39.3267625" lon="17.0092596"><ele>93.0</ele><time>2026-03-28T16:02:06.398Z</time></trkpt><trkpt lat="39.32687" lon="17.0092886"><ele>93.16666666666667</ele><time>2026-03-28T16:02:08.397Z</time></trkpt><trkpt lat="39.3269441" lon="17.0092918"><ele>93.33333333333333</ele><time>2026-03-28T16:02:12.397Z</time></trkpt><trkpt lat="39.3270217" lon="17.0093054"><ele>93.5</ele><time>2026-03-28T16:02:16.397Z</time></trkpt><trkpt lat="39.327094" lon="17.0093536"><ele>93.66666666666666</ele><time>2026-03-28T16:02:20.397Z</time></trkpt><trkpt lat="39.32714" lon="17.0094133"><ele>93.83333333333333</ele><time>2026-03-28T16:02:22.397Z</time></trkpt><trkpt lat="39.3272133" lon="17.0094883"><ele>94.0</ele><time>2026-03-28T16:02:24.397Z</time></trkpt><trkpt lat="39.3272917" lon="17.009535"><ele>94.0</ele><time>2026-03-28T16:02:26.397Z</time></trkpt><trkpt lat="39.3274" lon="17.009565"><ele>94.0</ele><time>2026-03-28T16:02:28.398Z</time></trkpt><trkpt lat="39.32746" lon="17.0095933"><ele>94.0</ele><time>2026-03-28T16:02:29.397Z</time></trkpt><trkpt lat="39.3275633" lon="17.0096917"><ele>94.0</ele><time>2026-03-28T16:02:31.397Z</time></trkpt><trkpt lat="39.3275833" lon="17.0097733"><ele>94.0</ele><time>2026-03-28T16:02:32.397Z</time></trkpt><trkpt lat="39.32758" lon="17.0098583"><ele>94.0</ele><time>2026-03-28T16:02:33.398Z</time></trkpt><trkpt lat="39.32755" lon="17.009945"><ele>93.16666666666666</ele><time>2026-03-28T16:02:34.397Z</time></trkpt><trkpt lat="39.3275183" lon="17.010025"><ele>92.33333333333333</ele><time>2026-03-28T16:02:35.397Z</time></trkpt><trkpt lat="39.32748" lon="17.0101367"><ele>91.5</ele><time>2026-03-28T16:02:37.398Z</time></trkpt><trkpt lat="39.3274617" lon="17.0102233"><ele>90.66666666666667</ele><time>2026-03-28T16:02:39.397Z</time></trkpt><trkpt lat="39.32741" lon="17.0103217"><ele>89.83333333333334</ele><time>2026-03-28T16:02:42.398Z</time></trkpt><trkpt lat="39.3273717" lon="17.0104"><ele>89.0</ele><time>2026-03-28T16:02:44.397Z</time></trkpt><trkpt lat="39.3273333" lon="17.0104767"><ele>89.0</ele><time>2026-03-28T16:02:47.397Z</time></trkpt><trkpt lat="39.3272983" lon="17.010565"><ele>89.0</ele><time>2026-03-28T16:02:50.398Z</time></trkpt><trkpt lat="39.3272817" lon="17.010685"><ele>89.0</ele><time>2026-03-28T16:02:53.397Z</time></trkpt><trkpt lat="39.327285" lon="17.010775"><ele>89.0</ele><time>2026-03-28T16:02:55.397Z</time></trkpt><trkpt lat="39.3273183" lon="17.0108617"><ele>89.0</ele><time>2026-03-28T16:02:58.397Z</time></trkpt><trkpt lat="39.327395" lon="17.0108883"><ele>89.0</ele><time>2026-03-28T16:03:01.397Z</time></trkpt><trkpt lat="39.3274617" lon="17.0109167"><ele>89.2</ele><time>2026-03-28T16:03:03.397Z</time></trkpt><trkpt lat="39.3275417" lon="17.0109717"><ele>89.4</ele><time>2026-03-28T16:03:05.397Z</time></trkpt><trkpt lat="39.32762" lon="17.011035"><ele>89.6</ele><time>2026-03-28T16:03:07.397Z</time></trkpt><trkpt lat="39.3277033" lon="17.0110867"><ele>89.8</ele><time>2026-03-28T16:03:09.397Z</time></trkpt><trkpt lat="39.327815" lon="17.0111683"><ele>90.0</ele><time>2026-03-28T16:03:11.397Z</time></trkpt><trkpt lat="39.327875" lon="17.0112133"><ele>90.0</ele><time>2026-03-28T16:03:12.398Z</time></trkpt><trkpt lat="39.327935" lon="17.0112617"><ele>90.0</ele><time>2026-03-28T16:03:13.397Z</time></trkpt><trkpt lat="39.3280133" lon="17.01137"><ele>90.0</ele><time>2026-03-28T16:03:15.397Z</time></trkpt><trkpt lat="39.32807" lon="17.0114567"><ele>90.0</ele><time>2026-03-28T16:03:17.397Z</time></trkpt><trkpt lat="39.3280933" lon="17.01154"><ele>90.0</ele><time>2026-03-28T16:03:19.397Z</time></trkpt><trkpt lat="39.3280567" lon="17.0116433"><ele>90.0</ele><time>2026-03-28T16:03:22.397Z</time></trkpt><trkpt lat="39.32799" lon="17.0116833"><ele>91.2</ele><time>2026-03-28T16:03:24.397Z</time></trkpt><trkpt lat="39.327925" lon="17.011735"><ele>92.4</ele><time>2026-03-28T16:03:26.397Z</time></trkpt><trkpt lat="39.327845" lon="17.011795"><ele>93.6</ele><time>2026-03-28T16:03:28.397Z</time></trkpt><trkpt lat="39.3277517" lon="17.0118867"><ele>94.8</ele><time>2026-03-28T16:03:30.397Z</time></trkpt><trkpt lat="39.3277117" lon="17.0119717"><ele>96.0</ele><time>2026-03-28T16:03:32.397Z</time></trkpt><trkpt lat="39.3277" lon="17.0120967"><ele>96.0</ele><time>2026-03-28T16:03:35.398Z</time></trkpt><trkpt lat="39.3276917" lon="17.0122183"><ele>96.0</ele><time>2026-03-28T16:03:37.397Z</time></trkpt><trkpt lat="39.3276883" lon="17.0123483"><ele>96.0</ele><time>2026-03-28T16:03:39.397Z</time></trkpt><trkpt lat="39.3277067" lon="17.0124483"><ele>96.0</ele><time>2026-03-28T16:03:41.397Z</time></trkpt><trkpt lat="39.32774" lon="17.01255"><ele>96.0</ele><time>2026-03-28T16:03:43.397Z</time></trkpt><trkpt lat="39.3277833" lon="17.0126567"><ele>95.66666666666667</ele><time>2026-03-28T16:03:45.397Z</time></trkpt><trkpt lat="39.3278233" lon="17.012725"><ele>95.33333333333333</ele><time>2026-03-28T16:03:47.398Z</time></trkpt><trkpt lat="39.32787" lon="17.0127817"><ele>95.0</ele><time>2026-03-28T16:03:49.397Z</time></trkpt><trkpt lat="39.3279533" lon="17.0128217"><ele>94.66666666666666</ele><time>2026-03-28T16:03:52.398Z</time></trkpt><trkpt lat="39.3280583" lon="17.0128117"><ele>94.33333333333333</ele><time>2026-03-28T16:03:54.397Z</time></trkpt><trkpt lat="39.328165" lon="17.0127683"><ele>94.0</ele><time>2026-03-28T16:03:56.397Z</time></trkpt><trkpt lat="39.3282767" lon="17.01273"><ele>92.80000000000001</ele><time>2026-03-28T16:03:58.397Z</time></trkpt><trkpt lat="39.3283783" lon="17.0127117"><ele>91.60000000000001</ele><time>2026-03-28T16:04:00.397Z</time></trkpt><trkpt lat="39.3284567" lon="17.0126967"><ele>90.4</ele><time>2026-03-28T16:04:03.397Z</time></trkpt><trkpt lat="39.32855" lon="17.0127"><ele>89.2</ele><time>2026-03-28T16:04:06.397Z</time></trkpt><trkpt lat="39.3286317" lon="17.0127033"><ele>88.0</ele><time>2026-03-28T16:04:08.397Z</time></trkpt><trkpt lat="39.3287283" lon="17.0127067"><ele>88.0</ele><time>2026-03-28T16:04:10.398Z</time></trkpt><trkpt lat="39.3288283" lon="17.0127367"><ele>88.0</ele><time>2026-03-28T16:04:12.398Z</time></trkpt><trkpt lat="39.3289283" lon="17.0127767"><ele>88.0</ele><time>2026-03-28T16:04:14.397Z</time></trkpt><trkpt lat="39.3289933" lon="17.0127967"><ele>88.0</ele><time>2026-03-28T16:04:15.397Z</time></trkpt><trkpt lat="39.3290567" lon="17.01283"><ele>88.0</ele><time>2026-03-28T16:04:16.397Z</time></trkpt><trkpt lat="39.329135" lon="17.01292"><ele>88.0</ele><time>2026-03-28T16:04:18.397Z</time></trkpt><trkpt lat="39.3291367" lon="17.0130033"><ele>88.0</ele><time>2026-03-28T16:04:20.397Z</time></trkpt><trkpt lat="39.3290717" lon="17.0130933"><ele>88.0</ele><time>2026-03-28T16:04:23.397Z</time></trkpt><trkpt lat="39.3289983" lon="17.0132183"><ele>88.0</ele><time>2026-03-28T16:04:25.397Z</time></trkpt><trkpt lat="39.328965" lon="17.0132917"><ele>88.0</ele><time>2026-03-28T16:04:26.397Z</time></trkpt><trkpt lat="39.32893" lon="17.01337"><ele>88.0</ele><time>2026-03-28T16:04:27.398Z</time></trkpt><trkpt lat="39.3289083" lon="17.0135167"><ele>88.0</ele><time>2026-03-28T16:04:29.398Z</time></trkpt><trkpt lat="39.3289317" lon="17.0136267"><ele>88.0</ele><time>2026-03-28T16:04:31.397Z</time></trkpt><trkpt lat="39.3289433" lon="17.0137317"><ele>88.0</ele><time>2026-03-28T16:04:33.397Z</time></trkpt><trkpt lat="39.32897" lon="17.01385"><ele>88.0</ele><time>2026-03-28T16:04:35.397Z</time></trkpt><trkpt lat="39.3290017" lon="17.0139767"><ele>88.0</ele><time>2026-03-28T16:04:37.397Z</time></trkpt><trkpt lat="39.3290067" lon="17.0141033"><ele>88.0</ele><time>2026-03-28T16:04:39.398Z</time></trkpt><trkpt lat="39.329025" lon="17.0141867"><ele>88.0</ele><time>2026-03-28T16:04:41.397Z</time></trkpt><trkpt lat="39.329045" lon="17.014305"><ele>88.0</ele><time>2026-03-28T16:04:43.397Z</time></trkpt><trkpt lat="39.3290517" lon="17.014415"><ele>88.0</ele><time>2026-03-28T16:04:45.398Z</time></trkpt><trkpt lat="39.3290567" lon="17.0145083"><ele>88.0</ele><time>2026-03-28T16:04:47.397Z</time></trkpt><trkpt lat="39.3290717" lon="17.014635"><ele>88.0</ele><time>2026-03-28T16:04:49.397Z</time></trkpt><trkpt lat="39.329085" lon="17.0147683"><ele>88.0</ele><time>2026-03-28T16:04:51.397Z</time></trkpt><trkpt lat="39.3290917" lon="17.0149017"><ele>88.0</ele><time>2026-03-28T16:04:53.398Z</time></trkpt><trkpt lat="39.3291" lon="17.0150133"><ele>88.0</ele><time>2026-03-28T16:04:55.397Z</time></trkpt><trkpt lat="39.3291083" lon="17.0151133"><ele>88.0</ele><time>2026-03-28T16:04:57.397Z</time></trkpt><trkpt lat="39.32911" lon="17.0152333"><ele>88.0</ele><time>2026-03-28T16:04:59.397Z</time></trkpt><trkpt lat="39.3291183" lon="17.01537"><ele>86.80000000000001</ele><time>2026-03-28T16:05:01.397Z</time></trkpt><trkpt lat="39.3291317" lon="17.0155"><ele>85.6</ele><time>2026-03-28T16:05:03.397Z</time></trkpt><trkpt lat="39.3291317" lon="17.01562"><ele>84.4</ele><time>2026-03-28T16:05:05.397Z</time></trkpt><trkpt lat="39.3291417" lon="17.0157567"><ele>83.19999999999999</ele><time>2026-03-28T16:05:07.397Z</time></trkpt><trkpt lat="39.329165" lon="17.0159083"><ele>82.0</ele><time>2026-03-28T16:05:09.397Z</time></trkpt><trkpt lat="39.3292067" lon="17.0160217"><ele>81.8</ele><time>2026-03-28T16:05:11.397Z</time></trkpt><trkpt lat="39.329245" lon="17.0161417"><ele>81.6</ele><time>2026-03-28T16:05:13.397Z</time></trkpt><trkpt lat="39.3292683" lon="17.016255"><ele>81.39999999999999</ele><time>2026-03-28T16:05:15.398Z</time></trkpt><trkpt lat="39.3293133" lon="17.0163967"><ele>81.19999999999999</ele><time>2026-03-28T16:05:17.398Z</time></trkpt><trkpt lat="39.3293467" lon="17.016495"><ele>81.0</ele><time>2026-03-28T16:05:18.398Z</time></trkpt><trkpt lat="39.32939" lon="17.0166017"><ele>81.4</ele><time>2026-03-28T16:05:19.397Z</time></trkpt><trkpt lat="39.329435" lon="17.016715"><ele>81.8</ele><time>2026-03-28T16:05:20.397Z</time></trkpt><trkpt lat="39.3294933" lon="17.01682"><ele>82.2</ele><time>2026-03-28T16:05:21.397Z</time></trkpt><trkpt lat="39.32957" lon="17.0169183"><ele>82.60000000000001</ele><time>2026-03-28T16:05:22.398Z</time></trkpt><trkpt lat="39.3296533" lon="17.0170167"><ele>83.0</ele><time>2026-03-28T16:05:23.397Z</time></trkpt><trkpt lat="39.3297233" lon="17.0171033"><ele>82.2</ele><time>2026-03-28T16:05:24.397Z</time></trkpt><trkpt lat="39.3297767" lon="17.017165"><ele>81.4</ele><time>2026-03-28T16:05:25.398Z</time></trkpt><trkpt lat="39.3298583" lon="17.017255"><ele>80.60000000000001</ele><time>2026-03-28T16:05:27.397Z</time></trkpt><trkpt lat="39.329925" lon="17.0173167"><ele>79.80000000000001</ele><time>2026-03-28T16:05:29.397Z</time></trkpt><trkpt lat="39.329995" lon="17.0174"><ele>79.0</ele><time>2026-03-28T16:05:31.397Z</time></trkpt><trkpt lat="39.3300667" lon="17.0175033"><ele>79.0</ele><time>2026-03-28T16:05:33.397Z</time></trkpt><trkpt lat="39.3301283" lon="17.0176133"><ele>79.0</ele><time>2026-03-28T16:05:35.397Z</time></trkpt><trkpt lat="39.3301833" lon="17.0177233"><ele>79.0</ele><time>2026-03-28T16:05:37.397Z</time></trkpt><trkpt lat="39.3302133" lon="17.0178433"><ele>79.0</ele><time>2026-03-28T16:05:39.397Z</time></trkpt><trkpt lat="39.3302383" lon="17.0179667"><ele>79.0</ele><time>2026-03-28T16:05:41.397Z</time></trkpt><trkpt lat="39.3302733" lon="17.0180783"><ele>79.0</ele><time>2026-03-28T16:05:43.397Z</time></trkpt><trkpt lat="39.3303" lon="17.0182017"><ele>79.0</ele><time>2026-03-28T16:05:45.397Z</time></trkpt><trkpt lat="39.3303083" lon="17.01833"><ele>79.0</ele><time>2026-03-28T16:05:47.398Z</time></trkpt><trkpt lat="39.3303067" lon="17.0184883"><ele>79.0</ele><time>2026-03-28T16:05:49.397Z</time></trkpt><trkpt lat="39.330305" lon="17.0185767"><ele>79.0</ele><time>2026-03-28T16:05:50.397Z</time></trkpt><trkpt lat="39.3302967" lon="17.0186667"><ele>78.83333333333333</ele><time>2026-03-28T16:05:51.397Z</time></trkpt><trkpt lat="39.3302767" lon="17.018755"><ele>78.66666666666666</ele><time>2026-03-28T16:05:52.397Z</time></trkpt><trkpt lat="39.33025" lon="17.0188433"><ele>78.5</ele><time>2026-03-28T16:05:53.398Z</time></trkpt><trkpt lat="39.330225" lon="17.018925"><ele>78.33333333333333</ele><time>2026-03-28T16:05:54.397Z</time></trkpt><trkpt lat="39.3301733" lon="17.0190533"><ele>78.16666666666667</ele><time>2026-03-28T16:05:56.397Z</time></trkpt><trkpt lat="39.3301083" lon="17.01919"><ele>78.0</ele><time>2026-03-28T16:05:58.397Z</time></trkpt><trkpt lat="39.33006" lon="17.0192633"><ele>77.16666666666667</ele><time>2026-03-28T16:05:59.397Z</time></trkpt><trkpt lat="39.330015" lon="17.0193417"><ele>76.33333333333333</ele><time>2026-03-28T16:06:00.397Z</time></trkpt><trkpt lat="39.3299717" lon="17.0194167"><ele>75.5</ele><time>2026-03-28T16:06:01.397Z</time></trkpt><trkpt lat="39.3299367" lon="17.0194917"><ele>74.66666666666666</ele><time>2026-03-28T16:06:02.397Z</time></trkpt><trkpt lat="39.3299067" lon="17.019575"><ele>73.83333333333333</ele><time>2026-03-28T16:06:03.397Z</time></trkpt><trkpt lat="39.3298683" lon="17.019675"><ele>73.0</ele><time>2026-03-28T16:06:04.397Z</time></trkpt><trkpt lat="39.3298217" lon="17.0197833"><ele>73.0</ele><time>2026-03-28T16:06:05.398Z</time></trkpt><trkpt lat="39.3297717" lon="17.019895"><ele>73.0</ele><time>2026-03-28T16:06:06.397Z</time></trkpt><trkpt lat="39.329725" lon="17.0200133"><ele>73.0</ele><time>2026-03-28T16:06:07.397Z</time></trkpt><trkpt lat="39.329695" lon="17.0201283"><ele>73.0</ele><time>2026-03-28T16:06:08.397Z</time></trkpt><trkpt lat="39.3296683" lon="17.0202433"><ele>73.0</ele><time>2026-03-28T16:06:09.398Z</time></trkpt><trkpt lat="39.329635" lon="17.02035"><ele>72.83333333333333</ele><time>2026-03-28T16:06:10.397Z</time></trkpt><trkpt lat="39.32961" lon="17.0204517"><ele>72.66666666666666</ele><time>2026-03-28T16:06:11.397Z</time></trkpt><trkpt lat="39.329595" lon="17.0205483"><ele>72.5</ele><time>2026-03-28T16:06:12.397Z</time></trkpt><trkpt lat="39.3295967" lon="17.02063"><ele>72.33333333333333</ele><time>2026-03-28T16:06:13.398Z</time></trkpt><trkpt lat="39.3296483" lon="17.0207167"><ele>72.16666666666667</ele><time>2026-03-28T16:06:15.397Z</time></trkpt><trkpt lat="39.32971" lon="17.02076"><ele>72.0</ele><time>2026-03-28T16:06:17.397Z</time></trkpt><trkpt lat="39.3297767" lon="17.0208517"><ele>72.0</ele><time>2026-03-28T16:06:19.397Z</time></trkpt><trkpt lat="39.3298583" lon="17.0209433"><ele>72.0</ele><time>2026-03-28T16:06:21.397Z</time></trkpt><trkpt lat="39.3299367" lon="17.021035"><ele>72.0</ele><time>2026-03-28T16:06:23.398Z</time></trkpt><trkpt lat="39.3299617" lon="17.0211583"><ele>72.0</ele><time>2026-03-28T16:06:25.398Z</time></trkpt><trkpt lat="39.329955" lon="17.0213317"><ele>72.0</ele><time>2026-03-28T16:06:27.398Z</time></trkpt><trkpt lat="39.32995" lon="17.021435"><ele>72.0</ele><time>2026-03-28T16:06:28.397Z</time></trkpt><trkpt lat="39.32994" lon="17.02153"><ele>72.0</ele><time>2026-03-28T16:06:29.397Z</time></trkpt><trkpt lat="39.3299333" lon="17.0216117"><ele>72.0</ele><time>2026-03-28T16:06:30.397Z</time></trkpt><trkpt lat="39.3299333" lon="17.02173"><ele>72.0</ele><time>2026-03-28T16:06:32.397Z</time></trkpt><trkpt lat="39.3299117" lon="17.0219017"><ele>72.0</ele><time>2026-03-28T16:06:34.397Z</time></trkpt><trkpt lat="39.3299017" lon="17.0219967"><ele>72.0</ele><time>2026-03-28T16:06:35.398Z</time></trkpt><trkpt lat="39.3299083" lon="17.022085"><ele>71.6</ele><time>2026-03-28T16:06:36.398Z</time></trkpt><trkpt lat="39.32993" lon="17.0221683"><ele>71.2</ele><time>2026-03-28T16:06:37.397Z</time></trkpt><trkpt lat="39.3299983" lon="17.022295"><ele>70.8</ele><time>2026-03-28T16:06:39.398Z</time></trkpt><trkpt lat="39.3300533" lon="17.0223967"><ele>70.4</ele><time>2026-03-28T16:06:41.397Z</time></trkpt><trkpt lat="39.3301367" lon="17.0224883"><ele>70.0</ele><time>2026-03-28T16:06:43.397Z</time></trkpt><trkpt lat="39.33023" lon="17.02256"><ele>70.16666666666666</ele><time>2026-03-28T16:06:45.397Z</time></trkpt><trkpt lat="39.3303383" lon="17.0226417"><ele>70.33333333333333</ele><time>2026-03-28T16:06:47.398Z</time></trkpt><trkpt lat="39.3303983" lon="17.0226933"><ele>70.5</ele><time>2026-03-28T16:06:48.397Z</time></trkpt><trkpt lat="39.33046" lon="17.0227483"><ele>70.66666666666667</ele><time>2026-03-28T16:06:49.397Z</time></trkpt><trkpt lat="39.3305267" lon="17.0227933"><ele>70.83333333333334</ele><time>2026-03-28T16:06:50.398Z</time></trkpt><trkpt lat="39.3305883" lon="17.0228417"><ele>71.0</ele><time>2026-03-28T16:06:51.397Z</time></trkpt><trkpt lat="39.3306517" lon="17.0228883"><ele>71.0</ele><time>2026-03-28T16:06:52.397Z</time></trkpt><trkpt lat="39.33072" lon="17.02295"><ele>71.0</ele><time>2026-03-28T16:06:53.397Z</time></trkpt><trkpt lat="39.3307967" lon="17.0230217"><ele>71.0</ele><time>2026-03-28T16:06:54.398Z</time></trkpt><trkpt lat="39.330885" lon="17.0231067"><ele>71.0</ele><time>2026-03-28T16:06:55.397Z</time></trkpt><trkpt lat="39.3309733" lon="17.023195"><ele>71.0</ele><time>2026-03-28T16:06:56.397Z</time></trkpt><trkpt lat="39.3310617" lon="17.02328"><ele>70.2</ele><time>2026-03-28T16:06:57.397Z</time></trkpt><trkpt lat="39.3311517" lon="17.023365"><ele>69.39999999999999</ele><time>2026-03-28T16:06:58.398Z</time></trkpt><trkpt lat="39.33125" lon="17.0234283"><ele>68.6</ele><time>2026-03-28T16:06:59.397Z</time></trkpt><trkpt lat="39.3313533" lon="17.023495"><ele>67.8</ele><time>2026-03-28T16:07:00.397Z</time></trkpt><trkpt lat="39.3314483" lon="17.0235567"><ele>67.0</ele><time>2026-03-28T16:07:01.398Z</time></trkpt><trkpt lat="39.3315367" lon="17.0236067"><ele>68.83333333333333</ele><time>2026-03-28T16:07:02.397Z</time></trkpt><trkpt lat="39.3316133" lon="17.0236517"><ele>70.66666666666666</ele><time>2026-03-28T16:07:03.397Z</time></trkpt><trkpt lat="39.331685" lon="17.0237117"><ele>72.5</ele><time>2026-03-28T16:07:04.397Z</time></trkpt><trkpt lat="39.3317467" lon="17.02377"><ele>74.33333333333333</ele><time>2026-03-28T16:07:05.397Z</time></trkpt><trkpt lat="39.33181" lon="17.0238283"><ele>76.16666666666667</ele><time>2026-03-28T16:07:06.397Z</time></trkpt><trkpt lat="39.331865" lon="17.0238883"><ele>78.0</ele><time>2026-03-28T16:07:07.397Z</time></trkpt><trkpt lat="39.3319083" lon="17.0239517"><ele>78.0</ele><time>2026-03-28T16:07:08.397Z</time></trkpt><trkpt lat="39.3319517" lon="17.0241"><ele>78.0</ele><time>2026-03-28T16:07:10.397Z</time></trkpt><trkpt lat="39.3319367" lon="17.0242483"><ele>78.0</ele><time>2026-03-28T16:07:12.397Z</time></trkpt><trkpt lat="39.3319" lon="17.0243217"><ele>78.0</ele><time>2026-03-28T16:07:13.398Z</time></trkpt><trkpt lat="39.3318583" lon="17.02439"><ele>78.0</ele><time>2026-03-28T16:07:14.397Z</time></trkpt><trkpt lat="39.3317533" lon="17.0244983"><ele>76.66666666666667</ele><time>2026-03-28T16:07:16.397Z</time></trkpt><trkpt lat="39.331685" lon="17.0245517"><ele>75.33333333333333</ele><time>2026-03-28T16:07:17.397Z</time></trkpt><trkpt lat="39.33156" lon="17.0245967"><ele>74.0</ele><time>2026-03-28T16:07:19.397Z</time></trkpt><trkpt lat="39.3315" lon="17.0246217"><ele>72.66666666666666</ele><time>2026-03-28T16:07:20.397Z</time></trkpt><trkpt lat="39.3314383" lon="17.0246483"><ele>71.33333333333333</ele><time>2026-03-28T16:07:21.397Z</time></trkpt><trkpt lat="39.3313717" lon="17.0246633"><ele>70.0</ele><time>2026-03-28T16:07:22.397Z</time></trkpt><trkpt lat="39.3313033" lon="17.0246833"><ele>69.16666666666666</ele><time>2026-03-28T16:07:23.397Z</time></trkpt><trkpt lat="39.3312333" lon="17.02471"><ele>68.33333333333333</ele><time>2026-03-28T16:07:24.398Z</time></trkpt><trkpt lat="39.3311667" lon="17.024755"><ele>67.5</ele><time>2026-03-28T16:07:25.398Z</time></trkpt><trkpt lat="39.3311133" lon="17.024815"><ele>66.66666666666667</ele><time>2026-03-28T16:07:26.397Z</time></trkpt><trkpt lat="39.331065" lon="17.0248683"><ele>65.83333333333334</ele><time>2026-03-28T16:07:27.397Z</time></trkpt><trkpt lat="39.330985" lon="17.024955"><ele>65.0</ele><time>2026-03-28T16:07:29.397Z</time></trkpt><trkpt lat="39.330925" lon="17.025045"><ele>64.8</ele><time>2026-03-28T16:07:31.397Z</time></trkpt><trkpt lat="39.3308917" lon="17.0251417"><ele>64.6</ele><time>2026-03-28T16:07:34.398Z</time></trkpt><trkpt lat="39.3308933" lon="17.0252233"><ele>64.4</ele><time>2026-03-28T16:07:37.397Z</time></trkpt><trkpt lat="39.3308667" lon="17.0253317"><ele>64.2</ele><time>2026-03-28T16:08:10.398Z</time></trkpt><trkpt lat="39.3308767" lon="17.0254833"><ele>64.0</ele><time>2026-03-28T16:08:12.397Z</time></trkpt><trkpt lat="39.330925" lon="17.02561"><ele>64.0</ele><time>2026-03-28T16:08:14.397Z</time></trkpt><trkpt lat="39.331015" lon="17.02568"><ele>64.0</ele><time>2026-03-28T16:08:16.397Z</time></trkpt><trkpt lat="39.3311083" lon="17.025735"><ele>64.0</ele><time>2026-03-28T16:08:18.398Z</time></trkpt><trkpt lat="39.33117" lon="17.0258133"><ele>64.0</ele><time>2026-03-28T16:08:20.398Z</time></trkpt><trkpt lat="39.3312067" lon="17.0259617"><ele>64.0</ele><time>2026-03-28T16:08:22.397Z</time></trkpt><trkpt lat="39.3312217" lon="17.0261283"><ele>63.57142857142857</ele><time>2026-03-28T16:08:24.398Z</time></trkpt><trkpt lat="39.3312283" lon="17.0262117"><ele>63.14285714285714</ele><time>2026-03-28T16:08:25.398Z</time></trkpt><trkpt lat="39.3312333" lon="17.026295"><ele>62.71428571428571</ele><time>2026-03-28T16:08:26.397Z</time></trkpt><trkpt lat="39.3312367" lon="17.0263817"><ele>62.28571428571428</ele><time>2026-03-28T16:08:27.397Z</time></trkpt><trkpt lat="39.3312333" lon="17.026475"><ele>61.857142857142854</ele><time>2026-03-28T16:08:28.397Z</time></trkpt><trkpt lat="39.3312233" lon="17.0265667"><ele>61.428571428571416</ele><time>2026-03-28T16:08:29.397Z</time></trkpt><trkpt lat="39.3312167" lon="17.026665"><ele>60.99999999999999</ele><time>2026-03-28T16:08:30.397Z</time></trkpt><trkpt lat="39.33121" lon="17.0267633"><ele>60.599999999999994</ele><time>2026-03-28T16:08:31.398Z</time></trkpt><trkpt lat="39.3311933" lon="17.0268717"><ele>60.199999999999996</ele><time>2026-03-28T16:08:32.398Z</time></trkpt><trkpt lat="39.3311733" lon="17.0269833"><ele>59.800000000000004</ele><time>2026-03-28T16:08:33.397Z</time></trkpt><trkpt lat="39.331145" lon="17.027105"><ele>59.400000000000006</ele><time>2026-03-28T16:08:34.397Z</time></trkpt><trkpt lat="39.3311317" lon="17.027235"><ele>59.0</ele><time>2026-03-28T16:08:35.397Z</time></trkpt><trkpt lat="39.3311433" lon="17.027365"><ele>59.400000000000006</ele><time>2026-03-28T16:08:36.397Z</time></trkpt><trkpt lat="39.3311717" lon="17.0275017"><ele>59.800000000000004</ele><time>2026-03-28T16:08:37.397Z</time></trkpt><trkpt lat="39.3312133" lon="17.0276433"><ele>60.199999999999996</ele><time>2026-03-28T16:08:38.397Z</time></trkpt><trkpt lat="39.331285" lon="17.027755"><ele>60.599999999999994</ele><time>2026-03-28T16:08:39.397Z</time></trkpt><trkpt lat="39.331375" lon="17.0278333"><ele>61.0</ele><time>2026-03-28T16:08:40.397Z</time></trkpt><trkpt lat="39.331485" lon="17.02789"><ele>61.0</ele><time>2026-03-28T16:08:41.397Z</time></trkpt><trkpt lat="39.3315917" lon="17.0279233"><ele>60.99999999999999</ele><time>2026-03-28T16:08:42.398Z</time></trkpt><trkpt lat="39.33167" lon="17.027965"><ele>60.99999999999999</ele><time>2026-03-28T16:08:43.398Z</time></trkpt><trkpt lat="39.3317483" lon="17.028015"><ele>61.0</ele><time>2026-03-28T16:08:44.397Z</time></trkpt><trkpt lat="39.3318133" lon="17.0280583"><ele>61.0</ele><time>2026-03-28T16:08:45.398Z</time></trkpt><trkpt lat="39.3319067" lon="17.0281167"><ele>61.0</ele><time>2026-03-28T16:08:47.398Z</time></trkpt><trkpt lat="39.33196" lon="17.0281717"><ele>60.99999999999999</ele><time>2026-03-28T16:08:50.397Z</time></trkpt><trkpt lat="39.3319983" lon="17.0282483"><ele>60.99999999999999</ele><time>2026-03-28T16:08:52.397Z</time></trkpt><trkpt lat="39.332065" lon="17.0283433"><ele>61.0</ele><time>2026-03-28T16:08:54.397Z</time></trkpt><trkpt lat="39.3321467" lon="17.0284467"><ele>61.0</ele><time>2026-03-28T16:08:56.397Z</time></trkpt><trkpt lat="39.3322267" lon="17.0285667"><ele>61.199999999999996</ele><time>2026-03-28T16:08:58.397Z</time></trkpt><trkpt lat="39.3322717" lon="17.02871"><ele>61.39999999999999</ele><time>2026-03-28T16:09:00.397Z</time></trkpt><trkpt lat="39.3322433" lon="17.0288683"><ele>61.6</ele><time>2026-03-28T16:09:02.398Z</time></trkpt><trkpt lat="39.3322433" lon="17.02896"><ele>61.8</ele><time>2026-03-28T16:09:03.398Z</time></trkpt><trkpt lat="39.33227" lon="17.0290733"><ele>62.0</ele><time>2026-03-28T16:09:04.397Z</time></trkpt><trkpt lat="39.33231" lon="17.0291933"><ele>62.0</ele><time>2026-03-28T16:09:05.397Z</time></trkpt><trkpt lat="39.3323483" lon="17.0293217"><ele>62.0</ele><time>2026-03-28T16:09:06.397Z</time></trkpt><trkpt lat="39.332385" lon="17.0294617"><ele>62.0</ele><time>2026-03-28T16:09:07.397Z</time></trkpt><trkpt lat="39.33242" lon="17.02959"><ele>62.0</ele><time>2026-03-28T16:09:08.398Z</time></trkpt><trkpt lat="39.3324517" lon="17.0297"><ele>62.0</ele><time>2026-03-28T16:09:09.397Z</time></trkpt><trkpt lat="39.3324717" lon="17.0297867"><ele>62.00000000000001</ele><time>2026-03-28T16:09:10.397Z</time></trkpt><trkpt lat="39.3325033" lon="17.0298917"><ele>62.0</ele><time>2026-03-28T16:09:12.397Z</time></trkpt><trkpt lat="39.3325583" lon="17.029955"><ele>62.0</ele><time>2026-03-28T16:09:15.398Z</time></trkpt><trkpt lat="39.33262" lon="17.0299783"><ele>62.0</ele><time>2026-03-28T16:09:18.398Z</time></trkpt><trkpt lat="39.33271" lon="17.0299867"><ele>62.00000000000001</ele><time>2026-03-28T16:09:21.397Z</time></trkpt><trkpt lat="39.3327767" lon="17.0299867"><ele>62.0</ele><time>2026-03-28T16:09:23.397Z</time></trkpt><trkpt lat="39.3328517" lon="17.03008"><ele>61.142857142857146</ele><time>2026-03-28T16:09:25.397Z</time></trkpt><trkpt lat="39.3328817" lon="17.0301567"><ele>60.28571428571429</ele><time>2026-03-28T16:09:26.397Z</time></trkpt><trkpt lat="39.332915" lon="17.0302317"><ele>59.42857142857143</ele><time>2026-03-28T16:09:27.397Z</time></trkpt><trkpt lat="39.3329533" lon="17.0302983"><ele>58.57142857142857</ele><time>2026-03-28T16:09:28.397Z</time></trkpt><trkpt lat="39.3329867" lon="17.0303717"><ele>57.714285714285715</ele><time>2026-03-28T16:09:29.397Z</time></trkpt><trkpt lat="39.3330217" lon="17.030445"><ele>56.85714285714286</ele><time>2026-03-28T16:09:30.397Z</time></trkpt><trkpt lat="39.33308" lon="17.0305617"><ele>56.0</ele><time>2026-03-28T16:09:32.397Z</time></trkpt><trkpt lat="39.3331267" lon="17.0306233"><ele>55.833333333333336</ele><time>2026-03-28T16:09:34.397Z</time></trkpt><trkpt lat="39.3331983" lon="17.0306467"><ele>55.66666666666667</ele><time>2026-03-28T16:09:38.397Z</time></trkpt><trkpt lat="39.333265" lon="17.0306783"><ele>55.5</ele><time>2026-03-28T16:09:41.397Z</time></trkpt><trkpt lat="39.3333283" lon="17.0307217"><ele>55.33333333333333</ele><time>2026-03-28T16:09:44.397Z</time></trkpt><trkpt lat="39.3333933" lon="17.0307633"><ele>55.166666666666664</ele><time>2026-03-28T16:09:47.398Z</time></trkpt><trkpt lat="39.33346" lon="17.0308"><ele>55.0</ele><time>2026-03-28T16:09:49.397Z</time></trkpt><trkpt lat="39.333545" lon="17.0308533"><ele>54.6</ele><time>2026-03-28T16:09:51.398Z</time></trkpt><trkpt lat="39.3336567" lon="17.03092"><ele>54.2</ele><time>2026-03-28T16:09:53.397Z</time></trkpt><trkpt lat="39.3337183" lon="17.0309583"><ele>53.8</ele><time>2026-03-28T16:09:54.397Z</time></trkpt><trkpt lat="39.3337933" lon="17.0310083"><ele>53.4</ele><time>2026-03-28T16:09:55.398Z</time></trkpt><trkpt lat="39.33389" lon="17.0310633"><ele>53.0</ele><time>2026-03-28T16:09:56.397Z</time></trkpt><trkpt lat="39.3340067" lon="17.03112"><ele>53.0</ele><time>2026-03-28T16:09:57.397Z</time></trkpt><trkpt lat="39.3341167" lon="17.0311867"><ele>53.0</ele><time>2026-03-28T16:09:58.397Z</time></trkpt><trkpt lat="39.3342017" lon="17.0312683"><ele>53.0</ele><time>2026-03-28T16:09:59.398Z</time></trkpt><trkpt lat="39.3342683" lon="17.031345"><ele>53.0</ele><time>2026-03-28T16:10:00.397Z</time></trkpt><trkpt lat="39.3343283" lon="17.03142"><ele>53.0</ele><time>2026-03-28T16:10:01.397Z</time></trkpt><trkpt lat="39.334385" lon="17.03148"><ele>53.0</ele><time>2026-03-28T16:10:02.397Z</time></trkpt><trkpt lat="39.3344433" lon="17.0315267"><ele>53.0</ele><time>2026-03-28T16:10:03.397Z</time></trkpt><trkpt lat="39.33453" lon="17.03161"><ele>53.0</ele><time>2026-03-28T16:10:05.397Z</time></trkpt><trkpt lat="39.3345733" lon="17.031695"><ele>53.0</ele><time>2026-03-28T16:10:07.398Z</time></trkpt><trkpt lat="39.3346117" lon="17.0318033"><ele>53.0</ele><time>2026-03-28T16:10:09.397Z</time></trkpt><trkpt lat="39.33467" lon="17.03192"><ele>52.599999999999994</ele><time>2026-03-28T16:10:11.397Z</time></trkpt><trkpt lat="39.3347383" lon="17.0320383"><ele>52.199999999999996</ele><time>2026-03-28T16:10:13.397Z</time></trkpt><trkpt lat="39.3348017" lon="17.0321733"><ele>51.8</ele><time>2026-03-28T16:10:15.397Z</time></trkpt><trkpt lat="39.3348667" lon="17.03231"><ele>51.4</ele><time>2026-03-28T16:10:17.397Z</time></trkpt><trkpt lat="39.334905" lon="17.0323867"><ele>51.0</ele><time>2026-03-28T16:10:18.397Z</time></trkpt><trkpt lat="39.3349583" lon="17.0324517"><ele>51.0</ele><time>2026-03-28T16:10:19.397Z</time></trkpt><trkpt lat="39.3350233" lon="17.03251"><ele>51.0</ele><time>2026-03-28T16:10:20.398Z</time></trkpt><trkpt lat="39.3350833" lon="17.0325517"><ele>51.0</ele><time>2026-03-28T16:10:21.397Z</time></trkpt><trkpt lat="39.3351417" lon="17.0325867"><ele>51.0</ele><time>2026-03-28T16:10:22.397Z</time></trkpt><trkpt lat="39.3352083" lon="17.0326067"><ele>51.0</ele><time>2026-03-28T16:10:23.397Z</time></trkpt><trkpt lat="39.33528" lon="17.0326333"><ele>51.0</ele><time>2026-03-28T16:10:24.397Z</time></trkpt><trkpt lat="39.3353583" lon="17.0326717"><ele>51.0</ele><time>2026-03-28T16:10:25.397Z</time></trkpt><trkpt lat="39.335425" lon="17.03272"><ele>51.0</ele><time>2026-03-28T16:10:26.397Z</time></trkpt><trkpt lat="39.3355033" lon="17.0327683"><ele>51.0</ele><time>2026-03-28T16:10:27.397Z</time></trkpt><trkpt lat="39.3355783" lon="17.0328233"><ele>51.0</ele><time>2026-03-28T16:10:28.397Z</time></trkpt><trkpt lat="39.3356417" lon="17.0328733"><ele>51.0</ele><time>2026-03-28T16:10:29.397Z</time></trkpt><trkpt lat="39.335755" lon="17.03294"><ele>51.0</ele><time>2026-03-28T16:10:31.397Z</time></trkpt><trkpt lat="39.335815" lon="17.0329733"><ele>51.0</ele><time>2026-03-28T16:10:32.397Z</time></trkpt><trkpt lat="39.3359" lon="17.033085"><ele>51.0</ele><time>2026-03-28T16:10:34.398Z</time></trkpt><trkpt lat="39.33596" lon="17.033225"><ele>51.0</ele><time>2026-03-28T16:10:36.397Z</time></trkpt><trkpt lat="39.3359733" lon="17.033365"><ele>51.0</ele><time>2026-03-28T16:10:38.398Z</time></trkpt><trkpt lat="39.3359667" lon="17.0335033"><ele>51.0</ele><time>2026-03-28T16:10:40.398Z</time></trkpt><trkpt lat="39.3359817" lon="17.03361"><ele>51.0</ele><time>2026-03-28T16:10:42.398Z</time></trkpt><trkpt lat="39.3359933" lon="17.0337017"><ele>50.599999999999994</ele><time>2026-03-28T16:10:44.397Z</time></trkpt><trkpt lat="39.3359867" lon="17.0338083"><ele>50.2</ele><time>2026-03-28T16:10:47.398Z</time></trkpt><trkpt lat="39.3359933" lon="17.0339367"><ele>49.8</ele><time>2026-03-28T16:10:50.397Z</time></trkpt><trkpt lat="39.3359517" lon="17.0340483"><ele>49.400000000000006</ele><time>2026-03-28T16:10:53.397Z</time></trkpt><trkpt lat="39.3359" lon="17.0341633"><ele>49.0</ele><time>2026-03-28T16:10:55.398Z</time></trkpt><trkpt lat="39.3358633" lon="17.0342383"><ele>48.83333333333333</ele><time>2026-03-28T16:10:57.397Z</time></trkpt><trkpt lat="39.3358217" lon="17.0343283"><ele>48.666666666666664</ele><time>2026-03-28T16:11:00.398Z</time></trkpt><trkpt lat="39.3358017" lon="17.03444"><ele>48.5</ele><time>2026-03-28T16:11:02.398Z</time></trkpt><trkpt lat="39.3358033" lon="17.034525"><ele>48.33333333333333</ele><time>2026-03-28T16:11:03.397Z</time></trkpt><trkpt lat="39.3358217" lon="17.0346317"><ele>48.166666666666664</ele><time>2026-03-28T16:11:04.397Z</time></trkpt><trkpt lat="39.3358467" lon="17.0347283"><ele>48.0</ele><time>2026-03-28T16:11:05.397Z</time></trkpt><trkpt lat="39.3358667" lon="17.03483"><ele>48.0</ele><time>2026-03-28T16:11:06.397Z</time></trkpt><trkpt lat="39.33588" lon="17.0349433"><ele>48.0</ele><time>2026-03-28T16:11:07.398Z</time></trkpt><trkpt lat="39.33589" lon="17.0350583"><ele>48.0</ele><time>2026-03-28T16:11:08.397Z</time></trkpt><trkpt lat="39.3358917" lon="17.0351733"><ele>48.0</ele><time>2026-03-28T16:11:09.397Z</time></trkpt><trkpt lat="39.33589" lon="17.0352817"><ele>48.0</ele><time>2026-03-28T16:11:10.397Z</time></trkpt><trkpt lat="39.3358817" lon="17.0353783"><ele>48.0</ele><time>2026-03-28T16:11:11.397Z</time></trkpt><trkpt lat="39.3358767" lon="17.035465"><ele>48.4</ele><time>2026-03-28T16:11:12.397Z</time></trkpt><trkpt lat="39.3358767" lon="17.035625"><ele>48.8</ele><time>2026-03-28T16:11:14.398Z</time></trkpt><trkpt lat="39.3358733" lon="17.0357133"><ele>49.2</ele><time>2026-03-28T16:11:15.398Z</time></trkpt><trkpt lat="39.3358733" lon="17.0358483"><ele>49.6</ele><time>2026-03-28T16:11:17.397Z</time></trkpt><trkpt lat="39.33587" lon="17.0359517"><ele>50.0</ele><time>2026-03-28T16:11:19.397Z</time></trkpt><trkpt lat="39.3358633" lon="17.03605"><ele>50.00000000000001</ele><time>2026-03-28T16:11:21.397Z</time></trkpt><trkpt lat="39.3358533" lon="17.0361683"><ele>50.0</ele><time>2026-03-28T16:11:23.398Z</time></trkpt><trkpt lat="39.3358317" lon="17.0363"><ele>50.0</ele><time>2026-03-28T16:11:25.397Z</time></trkpt><trkpt lat="39.3358083" lon="17.0364517"><ele>50.0</ele><time>2026-03-28T16:11:27.398Z</time></trkpt><trkpt lat="39.3358017" lon="17.0365333"><ele>50.00000000000001</ele><time>2026-03-28T16:11:28.398Z</time></trkpt><trkpt lat="39.335795" lon="17.0366183"><ele>50.0</ele><time>2026-03-28T16:11:29.397Z</time></trkpt><trkpt lat="39.3357683" lon="17.0367267"><ele>49.66666666666667</ele><time>2026-03-28T16:11:31.397Z</time></trkpt><trkpt lat="39.3357533" lon="17.0368433"><ele>49.333333333333336</ele><time>2026-03-28T16:11:33.397Z</time></trkpt><trkpt lat="39.3357567" lon="17.0370133"><ele>49.0</ele><time>2026-03-28T16:11:35.397Z</time></trkpt><trkpt lat="39.3357667" lon="17.0371117"><ele>48.66666666666667</ele><time>2026-03-28T16:11:36.397Z</time></trkpt><trkpt lat="39.3357767" lon="17.037205"><ele>48.333333333333336</ele><time>2026-03-28T16:11:37.397Z</time></trkpt><trkpt lat="39.3357867" lon="17.03729"><ele>48.0</ele><time>2026-03-28T16:11:38.397Z</time></trkpt><trkpt lat="39.335795" lon="17.0373833"><ele>47.833333333333336</ele><time>2026-03-28T16:11:39.398Z</time></trkpt><trkpt lat="39.3358017" lon="17.0374783"><ele>47.666666666666664</ele><time>2026-03-28T16:11:40.397Z</time></trkpt><trkpt lat="39.3358017" lon="17.037595"><ele>47.5</ele><time>2026-03-28T16:11:41.397Z</time></trkpt><trkpt lat="39.3358017" lon="17.0376883"><ele>47.33333333333333</ele><time>2026-03-28T16:11:42.397Z</time></trkpt><trkpt lat="39.3358117" lon="17.0378417"><ele>47.166666666666664</ele><time>2026-03-28T16:11:44.397Z</time></trkpt><trkpt lat="39.3358167" lon="17.0379317"><ele>47.0</ele><time>2026-03-28T16:11:45.397Z</time></trkpt><trkpt lat="39.3358333" lon="17.03802"><ele>47.0</ele><time>2026-03-28T16:11:46.398Z</time></trkpt><trkpt lat="39.33585" lon="17.0381183"><ele>47.0</ele><time>2026-03-28T16:11:47.397Z</time></trkpt><trkpt lat="39.335865" lon="17.03822"><ele>47.0</ele><time>2026-03-28T16:11:48.397Z</time></trkpt><trkpt lat="39.3358833" lon="17.038325"><ele>47.0</ele><time>2026-03-28T16:11:49.397Z</time></trkpt><trkpt lat="39.335905" lon="17.03843"><ele>47.0</ele><time>2026-03-28T16:11:50.398Z</time></trkpt><trkpt lat="39.3359183" lon="17.03854"><ele>47.0</ele><time>2026-03-28T16:11:51.398Z</time></trkpt><trkpt lat="39.3359133" lon="17.038645"><ele>46.83333333333333</ele><time>2026-03-28T16:11:52.397Z</time></trkpt><trkpt lat="39.3359" lon="17.0387567"><ele>46.666666666666664</ele><time>2026-03-28T16:11:53.398Z</time></trkpt><trkpt lat="39.3358867" lon="17.0388533"><ele>46.5</ele><time>2026-03-28T16:11:54.398Z</time></trkpt><trkpt lat="39.3358733" lon="17.0389467"><ele>46.333333333333336</ele><time>2026-03-28T16:11:55.397Z</time></trkpt><trkpt lat="39.3358567" lon="17.0390583"><ele>46.16666666666667</ele><time>2026-03-28T16:11:56.397Z</time></trkpt><trkpt lat="39.3358467" lon="17.0391717"><ele>46.0</ele><time>2026-03-28T16:11:57.397Z</time></trkpt><trkpt lat="39.3358267" lon="17.039305"><ele>46.0</ele><time>2026-03-28T16:11:58.397Z</time></trkpt><trkpt lat="39.335805" lon="17.0394533"><ele>46.0</ele><time>2026-03-28T16:11:59.397Z</time></trkpt><trkpt lat="39.3357867" lon="17.039605"><ele>46.0</ele><time>2026-03-28T16:12:00.397Z</time></trkpt><trkpt lat="39.3357633" lon="17.03977"><ele>46.0</ele><time>2026-03-28T16:12:01.397Z</time></trkpt><trkpt lat="39.335745" lon="17.0399267"><ele>45.833333333333336</ele><time>2026-03-28T16:12:02.397Z</time></trkpt><trkpt lat="39.335725" lon="17.040075"><ele>45.66666666666667</ele><time>2026-03-28T16:12:03.397Z</time></trkpt><trkpt lat="39.3357133" lon="17.04019"><ele>45.5</ele><time>2026-03-28T16:12:04.397Z</time></trkpt><trkpt lat="39.3357117" lon="17.0402817"><ele>45.333333333333336</ele><time>2026-03-28T16:12:05.397Z</time></trkpt><trkpt lat="39.33571" lon="17.0403667"><ele>45.166666666666664</ele><time>2026-03-28T16:12:06.397Z</time></trkpt><trkpt lat="39.3356967" lon="17.0404583"><ele>45.0</ele><time>2026-03-28T16:12:07.397Z</time></trkpt><trkpt lat="39.3356667" lon="17.0405567"><ele>45.0</ele><time>2026-03-28T16:12:08.398Z</time></trkpt><trkpt lat="39.335625" lon="17.0406683"><ele>45.0</ele><time>2026-03-28T16:12:09.397Z</time></trkpt><trkpt lat="39.3355833" lon="17.0407733"><ele>45.0</ele><time>2026-03-28T16:12:10.397Z</time></trkpt><trkpt lat="39.33555" lon="17.0408717"><ele>45.0</ele><time>2026-03-28T16:12:11.398Z</time></trkpt><trkpt lat="39.3355267" lon="17.0409633"><ele>45.0</ele><time>2026-03-28T16:12:12.397Z</time></trkpt><trkpt lat="39.3355117" lon="17.0410683"><ele>45.0</ele><time>2026-03-28T16:12:13.398Z</time></trkpt><trkpt lat="39.3355133" lon="17.0411733"><ele>45.5</ele><time>2026-03-28T16:12:14.398Z</time></trkpt><trkpt lat="39.3355433" lon="17.0412683"><ele>46.0</ele><time>2026-03-28T16:12:15.398Z</time></trkpt><trkpt lat="39.3356" lon="17.0413417"><ele>46.5</ele><time>2026-03-28T16:12:16.398Z</time></trkpt><trkpt lat="39.3356733" lon="17.041385"><ele>47.0</ele><time>2026-03-28T16:12:17.398Z</time></trkpt><trkpt lat="39.3357617" lon="17.0414133"><ele>47.5</ele><time>2026-03-28T16:12:18.397Z</time></trkpt><trkpt lat="39.3358583" lon="17.04143"><ele>48.0</ele><time>2026-03-28T16:12:19.397Z</time></trkpt><trkpt lat="39.3359583" lon="17.0414533"><ele>47.0</ele><time>2026-03-28T16:12:20.397Z</time></trkpt><trkpt lat="39.3360617" lon="17.0414633"><ele>46.0</ele><time>2026-03-28T16:12:21.397Z</time></trkpt><trkpt lat="39.3361583" lon="17.041475"><ele>45.0</ele><time>2026-03-28T16:12:22.397Z</time></trkpt><trkpt lat="39.3362517" lon="17.041485"><ele>44.0</ele><time>2026-03-28T16:12:23.398Z</time></trkpt><trkpt lat="39.3363361" lon="17.0414854"><ele>43.0</ele><time>2026-03-28T16:12:24.397Z</time></trkpt><trkpt lat="39.3364019" lon="17.0414834"><ele>42.0</ele><time>2026-03-28T16:12:25.397Z</time></trkpt><trkpt lat="39.3364998" lon="17.0414632"><ele>42.0</ele><time>2026-03-28T16:12:27.397Z</time></trkpt><trkpt lat="39.3365809" lon="17.0414581"><ele>42.0</ele><time>2026-03-28T16:12:29.398Z</time></trkpt><trkpt lat="39.3366472" lon="17.0415036"><ele>42.0</ele><time>2026-03-28T16:12:31.397Z</time></trkpt><trkpt lat="39.3366728" lon="17.0415911"><ele>42.0</ele><time>2026-03-28T16:12:35.397Z</time></trkpt><trkpt lat="39.336713" lon="17.0416738"><ele>42.0</ele><time>2026-03-28T16:12:44.397Z</time></trkpt><trkpt lat="39.3367383" lon="17.0417583"><ele>42.0</ele><time>2026-03-28T16:12:47.397Z</time></trkpt><trkpt lat="39.3367683" lon="17.0418367"><ele>42.0</ele><time>2026-03-28T16:12:49.397Z</time></trkpt><trkpt lat="39.3367933" lon="17.0419183"><ele>42.0</ele><time>2026-03-28T16:12:51.397Z</time></trkpt><trkpt lat="39.3368117" lon="17.0420167"><ele>42.0</ele><time>2026-03-28T16:12:53.398Z</time></trkpt><trkpt lat="39.33685" lon="17.0421333"><ele>42.0</ele><time>2026-03-28T16:12:55.397Z</time></trkpt><trkpt lat="39.3368767" lon="17.0422617"><ele>42.0</ele><time>2026-03-28T16:12:57.397Z</time></trkpt><trkpt lat="39.3368783" lon="17.042405"><ele>42.0</ele><time>2026-03-28T16:12:59.397Z</time></trkpt><trkpt lat="39.336875" lon="17.0424867"><ele>41.714285714285715</ele><time>2026-03-28T16:13:00.397Z</time></trkpt><trkpt lat="39.3368717" lon="17.042575"><ele>41.42857142857143</ele><time>2026-03-28T16:13:01.397Z</time></trkpt><trkpt lat="39.3368733" lon="17.04267"><ele>41.14285714285714</ele><time>2026-03-28T16:13:02.397Z</time></trkpt><trkpt lat="39.336885" lon="17.0427633"><ele>40.85714285714286</ele><time>2026-03-28T16:13:03.397Z</time></trkpt><trkpt lat="39.3369017" lon="17.0428517"><ele>40.57142857142857</ele><time>2026-03-28T16:13:04.397Z</time></trkpt><trkpt lat="39.3369167" lon="17.0429367"><ele>40.285714285714285</ele><time>2026-03-28T16:13:05.397Z</time></trkpt><trkpt lat="39.3369333" lon="17.0430217"><ele>40.0</ele><time>2026-03-28T16:13:06.397Z</time></trkpt><trkpt lat="39.3369517" lon="17.0431067"><ele>40.0</ele><time>2026-03-28T16:13:07.397Z</time></trkpt><trkpt lat="39.33698" lon="17.0431933"><ele>40.0</ele><time>2026-03-28T16:13:08.397Z</time></trkpt><trkpt lat="39.337" lon="17.0432733"><ele>40.0</ele><time>2026-03-28T16:13:09.397Z</time></trkpt><trkpt lat="39.3370117" lon="17.04341"><ele>40.0</ele><time>2026-03-28T16:13:11.397Z</time></trkpt><trkpt lat="39.3370017" lon="17.043495"><ele>40.0</ele><time>2026-03-28T16:13:12.398Z</time></trkpt><trkpt lat="39.33699" lon="17.043585"><ele>40.0</ele><time>2026-03-28T16:13:13.397Z</time></trkpt><trkpt lat="39.3369683" lon="17.0437283"><ele>40.4</ele><time>2026-03-28T16:13:15.397Z</time></trkpt><trkpt lat="39.3369367" lon="17.0438467"><ele>40.8</ele><time>2026-03-28T16:13:17.397Z</time></trkpt><trkpt lat="39.3369167" lon="17.043965"><ele>41.2</ele><time>2026-03-28T16:13:19.398Z</time></trkpt><trkpt lat="39.3369117" lon="17.044095"><ele>41.6</ele><time>2026-03-28T16:13:21.398Z</time></trkpt><trkpt lat="39.3369117" lon="17.0442233"><ele>42.0</ele><time>2026-03-28T16:13:23.397Z</time></trkpt><trkpt lat="39.336925" lon="17.0443733"><ele>42.0</ele><time>2026-03-28T16:13:25.397Z</time></trkpt><trkpt lat="39.33696" lon="17.0445483"><ele>42.0</ele><time>2026-03-28T16:13:27.397Z</time></trkpt><trkpt lat="39.33699" lon="17.04466"><ele>42.0</ele><time>2026-03-28T16:13:28.397Z</time></trkpt><trkpt lat="39.3370183" lon="17.0447683"><ele>42.0</ele><time>2026-03-28T16:13:29.397Z</time></trkpt><trkpt lat="39.3370417" lon="17.0448867"><ele>42.0</ele><time>2026-03-28T16:13:30.397Z</time></trkpt><trkpt lat="39.3370633" lon="17.0450033"><ele>42.0</ele><time>2026-03-28T16:13:31.397Z</time></trkpt><trkpt lat="39.3370833" lon="17.0451017"><ele>42.0</ele><time>2026-03-28T16:13:32.397Z</time></trkpt><trkpt lat="39.3370933" lon="17.0451883"><ele>42.0</ele><time>2026-03-28T16:13:33.398Z</time></trkpt><trkpt lat="39.33709" lon="17.0452917"><ele>42.0</ele><time>2026-03-28T16:13:35.397Z</time></trkpt><trkpt lat="39.337085" lon="17.0453817"><ele>42.0</ele><time>2026-03-28T16:13:38.397Z</time></trkpt><trkpt lat="39.3370733" lon="17.0454767"><ele>42.0</ele><time>2026-03-28T16:13:40.397Z</time></trkpt><trkpt lat="39.337085" lon="17.0456267"><ele>42.0</ele><time>2026-03-28T16:13:42.398Z</time></trkpt><trkpt lat="39.3370967" lon="17.045715"><ele>42.0</ele><time>2026-03-28T16:13:43.398Z</time></trkpt><trkpt lat="39.33711" lon="17.0458183"><ele>42.0</ele><time>2026-03-28T16:13:44.397Z</time></trkpt><trkpt lat="39.3371267" lon="17.0459333"><ele>42.0</ele><time>2026-03-28T16:13:45.397Z</time></trkpt><trkpt lat="39.337145" lon="17.0460517"><ele>42.0</ele><time>2026-03-28T16:13:46.397Z</time></trkpt><trkpt lat="39.3371667" lon="17.0461733"><ele>42.0</ele><time>2026-03-28T16:13:47.397Z</time></trkpt><trkpt lat="39.33718" lon="17.0462933"><ele>42.2</ele><time>2026-03-28T16:13:48.397Z</time></trkpt><trkpt lat="39.337185" lon="17.0464133"><ele>42.400000000000006</ele><time>2026-03-28T16:13:49.397Z</time></trkpt><trkpt lat="39.3371883" lon="17.046545"><ele>42.599999999999994</ele><time>2026-03-28T16:13:50.397Z</time></trkpt><trkpt lat="39.3371967" lon="17.046685"><ele>42.8</ele><time>2026-03-28T16:13:51.397Z</time></trkpt><trkpt lat="39.3372033" lon="17.0468433"><ele>43.0</ele><time>2026-03-28T16:13:52.397Z</time></trkpt><trkpt lat="39.3372" lon="17.046995"><ele>43.0</ele><time>2026-03-28T16:13:53.398Z</time></trkpt><trkpt lat="39.3371867" lon="17.04713"><ele>43.0</ele><time>2026-03-28T16:13:54.397Z</time></trkpt><trkpt lat="39.3371767" lon="17.0472667"><ele>43.0</ele><time>2026-03-28T16:13:55.398Z</time></trkpt><trkpt lat="39.3371617" lon="17.0473783"><ele>43.0</ele><time>2026-03-28T16:13:56.397Z</time></trkpt><trkpt lat="39.3370933" lon="17.04748"><ele>43.0</ele><time>2026-03-28T16:13:58.397Z</time></trkpt><trkpt lat="39.3369983" lon="17.0475033"><ele>42.4</ele><time>2026-03-28T16:14:00.397Z</time></trkpt><trkpt lat="39.3369183" lon="17.0475883"><ele>41.8</ele><time>2026-03-28T16:14:02.398Z</time></trkpt><trkpt lat="39.3368767" lon="17.0476783"><ele>41.2</ele><time>2026-03-28T16:14:04.397Z</time></trkpt><trkpt lat="39.3368533" lon="17.0477583"><ele>40.6</ele><time>2026-03-28T16:14:06.397Z</time></trkpt><trkpt lat="39.33684" lon="17.04788"><ele>40.0</ele><time>2026-03-28T16:14:08.397Z</time></trkpt><trkpt lat="39.3368433" lon="17.048025"><ele>40.0</ele><time>2026-03-28T16:14:10.397Z</time></trkpt><trkpt lat="39.336825" lon="17.04817"><ele>40.0</ele><time>2026-03-28T16:14:12.398Z</time></trkpt><trkpt lat="39.3368117" lon="17.048275"><ele>40.0</ele><time>2026-03-28T16:14:14.397Z</time></trkpt><trkpt lat="39.3368117" lon="17.0484"><ele>40.0</ele><time>2026-03-28T16:14:16.398Z</time></trkpt><trkpt lat="39.336825" lon="17.0485667"><ele>40.0</ele><time>2026-03-28T16:14:18.397Z</time></trkpt><trkpt lat="39.3368367" lon="17.0486517"><ele>40.14285714285714</ele><time>2026-03-28T16:14:19.397Z</time></trkpt><trkpt lat="39.3368483" lon="17.0487367"><ele>40.285714285714285</ele><time>2026-03-28T16:14:20.397Z</time></trkpt><trkpt lat="39.33686" lon="17.0488233"><ele>40.42857142857143</ele><time>2026-03-28T16:14:21.398Z</time></trkpt><trkpt lat="39.3368733" lon="17.0489083"><ele>40.57142857142857</ele><time>2026-03-28T16:14:22.397Z</time></trkpt><trkpt lat="39.3368883" lon="17.0489917"><ele>40.714285714285715</ele><time>2026-03-28T16:14:23.397Z</time></trkpt><trkpt lat="39.3368983" lon="17.0490933"><ele>40.857142857142854</ele><time>2026-03-28T16:14:24.397Z</time></trkpt><trkpt lat="39.3369133" lon="17.0492067"><ele>41.0</ele><time>2026-03-28T16:14:25.397Z</time></trkpt><trkpt lat="39.336925" lon="17.04933"><ele>41.0</ele><time>2026-03-28T16:14:26.397Z</time></trkpt><trkpt lat="39.3369367" lon="17.04945"><ele>41.0</ele><time>2026-03-28T16:14:27.397Z</time></trkpt><trkpt lat="39.3369583" lon="17.0495783"><ele>41.0</ele><time>2026-03-28T16:14:28.398Z</time></trkpt><trkpt lat="39.3369833" lon="17.0497067"><ele>41.0</ele><time>2026-03-28T16:14:29.397Z</time></trkpt><trkpt lat="39.3370033" lon="17.0498567"><ele>41.0</ele><time>2026-03-28T16:14:30.398Z</time></trkpt><trkpt lat="39.3370233" lon="17.0500067"><ele>40.599999999999994</ele><time>2026-03-28T16:14:31.397Z</time></trkpt><trkpt lat="39.337045" lon="17.0501533"><ele>40.199999999999996</ele><time>2026-03-28T16:14:32.397Z</time></trkpt><trkpt lat="39.3370633" lon="17.0503033"><ele>39.8</ele><time>2026-03-28T16:14:33.397Z</time></trkpt><trkpt lat="39.3370867" lon="17.0504467"><ele>39.4</ele><time>2026-03-28T16:14:34.397Z</time></trkpt><trkpt lat="39.3371017" lon="17.0505783"><ele>39.0</ele><time>2026-03-28T16:14:35.397Z</time></trkpt><trkpt lat="39.3371183" lon="17.0507083"><ele>39.166666666666664</ele><time>2026-03-28T16:14:36.397Z</time></trkpt><trkpt lat="39.3371367" lon="17.05082"><ele>39.333333333333336</ele><time>2026-03-28T16:14:37.397Z</time></trkpt><trkpt lat="39.3371517" lon="17.0509383"><ele>39.5</ele><time>2026-03-28T16:14:38.397Z</time></trkpt><trkpt lat="39.3371533" lon="17.051055"><ele>39.66666666666667</ele><time>2026-03-28T16:14:39.398Z</time></trkpt><trkpt lat="39.3371567" lon="17.0511683"><ele>39.833333333333336</ele><time>2026-03-28T16:14:40.397Z</time></trkpt><trkpt lat="39.33716" lon="17.051285"><ele>40.0</ele><time>2026-03-28T16:14:41.398Z</time></trkpt><trkpt lat="39.3371633" lon="17.051395"><ele>40.0</ele><time>2026-03-28T16:14:42.397Z</time></trkpt><trkpt lat="39.337165" lon="17.0515"><ele>40.0</ele><time>2026-03-28T16:14:43.397Z</time></trkpt><trkpt lat="39.3371617" lon="17.0516"><ele>40.0</ele><time>2026-03-28T16:14:44.397Z</time></trkpt><trkpt lat="39.33717" lon="17.05172"><ele>40.0</ele><time>2026-03-28T16:14:46.397Z</time></trkpt><trkpt lat="39.3371683" lon="17.05181"><ele>40.0</ele><time>2026-03-28T16:14:48.397Z</time></trkpt><trkpt lat="39.3371617" lon="17.0519483"><ele>40.0</ele><time>2026-03-28T16:14:50.397Z</time></trkpt><trkpt lat="39.33714" lon="17.0520967"><ele>39.833333333333336</ele><time>2026-03-28T16:14:52.397Z</time></trkpt><trkpt lat="39.3371283" lon="17.05218"><ele>39.66666666666667</ele><time>2026-03-28T16:14:53.397Z</time></trkpt><trkpt lat="39.3371167" lon="17.0522733"><ele>39.5</ele><time>2026-03-28T16:14:54.397Z</time></trkpt><trkpt lat="39.3371067" lon="17.0523733"><ele>39.333333333333336</ele><time>2026-03-28T16:14:55.398Z</time></trkpt><trkpt lat="39.337095" lon="17.052475"><ele>39.166666666666664</ele><time>2026-03-28T16:14:56.397Z</time></trkpt><trkpt lat="39.3370833" lon="17.0525783"><ele>39.0</ele><time>2026-03-28T16:14:57.397Z</time></trkpt><trkpt lat="39.33706" lon="17.0526917"><ele>38.8</ele><time>2026-03-28T16:14:58.397Z</time></trkpt><trkpt lat="39.33703" lon="17.0528017"><ele>38.599999999999994</ele><time>2026-03-28T16:14:59.398Z</time></trkpt><trkpt lat="39.3369933" lon="17.0529"><ele>38.4</ele><time>2026-03-28T16:15:00.398Z</time></trkpt><trkpt lat="39.3369567" lon="17.0529867"><ele>38.199999999999996</ele><time>2026-03-28T16:15:01.398Z</time></trkpt><trkpt lat="39.336965" lon="17.0531283"><ele>38.0</ele><time>2026-03-28T16:15:03.397Z</time></trkpt><trkpt lat="39.3370567" lon="17.0531533"><ele>38.0</ele><time>2026-03-28T16:15:05.397Z</time></trkpt><trkpt lat="39.3371233" lon="17.0531117"><ele>38.0</ele><time>2026-03-28T16:15:06.397Z</time></trkpt><trkpt lat="39.3372" lon="17.053055"><ele>38.0</ele><time>2026-03-28T16:15:07.397Z</time></trkpt><trkpt lat="39.3372767" lon="17.053015"><ele>38.0</ele><time>2026-03-28T16:15:08.397Z</time></trkpt><trkpt lat="39.337345" lon="17.053025"><ele>38.0</ele><time>2026-03-28T16:15:09.398Z</time></trkpt><trkpt lat="39.337405" lon="17.0530567"><ele>38.0</ele><time>2026-03-28T16:15:10.397Z</time></trkpt><trkpt lat="39.3375017" lon="17.0531033"><ele>37.83333333333333</ele><time>2026-03-28T16:15:12.397Z</time></trkpt><trkpt lat="39.337565" lon="17.05316"><ele>37.666666666666664</ele><time>2026-03-28T16:15:15.397Z</time></trkpt><trkpt lat="39.3376183" lon="17.0532367"><ele>37.5</ele><time>2026-03-28T16:15:18.397Z</time></trkpt><trkpt lat="39.3376633" lon="17.0533067"><ele>37.333333333333336</ele><time>2026-03-28T16:15:21.397Z</time></trkpt><trkpt lat="39.3377" lon="17.0533917"><ele>37.16666666666667</ele><time>2026-03-28T16:15:24.397Z</time></trkpt><trkpt lat="39.3377383" lon="17.0534733"><ele>37.0</ele><time>2026-03-28T16:15:27.398Z</time></trkpt><trkpt lat="39.3376883" lon="17.053555"><ele>37.0</ele><time>2026-03-28T16:15:35.397Z</time></trkpt><trkpt lat="39.3376283" lon="17.0535267"><ele>37.0</ele><time>2026-03-28T16:15:37.397Z</time></trkpt><trkpt lat="39.33764" lon="17.0534317"><ele>37.0</ele><time>2026-03-28T16:15:41.397Z</time></trkpt><trkpt lat="39.3376583" lon="17.0533467"><ele>37.0</ele><time>2026-03-28T16:16:00.398Z</time></trkpt><trkpt lat="39.33772" lon="17.0532783"><ele>37.0</ele><time>2026-03-28T16:16:07.399Z</time></trkpt><trkpt lat="39.337775" lon="17.0532267"><ele>37.0</ele><time>2026-03-28T16:16:12.398Z</time></trkpt><trkpt lat="39.3378233" lon="17.05317"><ele>37.0</ele><time>2026-03-28T16:16:17.398Z</time></trkpt><trkpt lat="39.3378733" lon="17.0530867"><ele>37.0</ele><time>2026-03-28T16:16:21.398Z</time></trkpt><trkpt lat="39.33782" lon="17.0530117"><ele>37.0</ele><time>2026-03-28T16:16:24.398Z</time></trkpt><trkpt lat="39.3377383" lon="17.0529733"><ele>37.0</ele><time>2026-03-28T16:16:26.398Z</time></trkpt><trkpt lat="39.3376617" lon="17.0529633"><ele>37.0</ele><time>2026-03-28T16:16:28.399Z</time></trkpt><trkpt lat="39.337635" lon="17.0530667"><ele>37.0</ele><time>2026-03-28T16:17:01.399Z</time></trkpt><trkpt lat="39.337545" lon="17.0531067"><ele>37.0</ele><time>2026-03-28T16:17:04.398Z</time></trkpt><trkpt lat="39.3374817" lon="17.0530483"><ele>37.0</ele><time>2026-03-28T16:17:06.398Z</time></trkpt><trkpt lat="39.3374783" lon="17.05292"><ele>37.0</ele><time>2026-03-28T16:17:08.398Z</time></trkpt><trkpt lat="39.33753" lon="17.0528517"><ele>37.0</ele><time>2026-03-28T16:17:10.398Z</time></trkpt><trkpt lat="39.3375833" lon="17.0529617"><ele>37.0</ele><time>2026-03-28T16:17:20.398Z</time></trkpt><trkpt lat="39.3376167" lon="17.053055"><ele>37.0</ele><time>2026-03-28T16:17:56.398Z</time></trkpt><trkpt lat="39.3376167" lon="17.0531467"><ele>37.0</ele><time>2026-03-28T16:17:59.398Z</time></trkpt><trkpt lat="39.3376233" lon="17.05325"><ele>37.333333333333336</ele><time>2026-03-28T16:18:02.398Z</time></trkpt><trkpt lat="39.337665" lon="17.0533417"><ele>37.66666666666667</ele><time>2026-03-28T16:18:05.398Z</time></trkpt><trkpt lat="39.3376967" lon="17.053445"><ele>38.0</ele><time>2026-03-28T16:18:08.398Z</time></trkpt><trkpt lat="39.3377367" lon="17.053515"><ele>38.333333333333336</ele><time>2026-03-28T16:18:10.398Z</time></trkpt><trkpt lat="39.3378117" lon="17.053565"><ele>38.666666666666664</ele><time>2026-03-28T16:18:12.399Z</time></trkpt><trkpt lat="39.3378817" lon="17.05369"><ele>39.0</ele><time>2026-03-28T16:18:14.398Z</time></trkpt><trkpt lat="39.33792" lon="17.053765"><ele>39.0</ele><time>2026-03-28T16:18:15.398Z</time></trkpt><trkpt lat="39.33795" lon="17.0538617"><ele>39.0</ele><time>2026-03-28T16:18:17.398Z</time></trkpt><trkpt lat="39.3379933" lon="17.0539367"><ele>39.0</ele><time>2026-03-28T16:18:20.399Z</time></trkpt><trkpt lat="39.33797" lon="17.0538567"><ele>39.0</ele><time>2026-03-28T16:18:33.398Z</time></trkpt><trkpt lat="39.337915" lon="17.0537267"><ele>39.0</ele><time>2026-03-28T16:18:35.398Z</time></trkpt><trkpt lat="39.3378433" lon="17.05361"><ele>39.0</ele><time>2026-03-28T16:18:37.398Z</time></trkpt><trkpt lat="39.3378" lon="17.053535"><ele>39.0</ele><time>2026-03-28T16:18:39.398Z</time></trkpt><trkpt lat="39.3377533" lon="17.0534483"><ele>39.0</ele><time>2026-03-28T16:19:09.399Z</time></trkpt><trkpt lat="39.337765" lon="17.0533617"><ele>39.0</ele><time>2026-03-28T16:19:14.398Z</time></trkpt><trkpt lat="39.33779" lon="17.053275"><ele>39.0</ele><time>2026-03-28T16:19:19.398Z</time></trkpt><trkpt lat="39.3378217" lon="17.0531917"><ele>39.0</ele><time>2026-03-28T16:19:40.398Z</time></trkpt><trkpt lat="39.3378733" lon="17.0531083"><ele>39.0</ele><time>2026-03-28T16:19:43.398Z</time></trkpt><trkpt lat="39.33785" lon="17.053015"><ele>38.666666666666664</ele><time>2026-03-28T16:19:52.399Z</time></trkpt><trkpt lat="39.3378017" lon="17.0529367"><ele>38.333333333333336</ele><time>2026-03-28T16:19:55.398Z</time></trkpt><trkpt lat="39.33775" lon="17.0530167"><ele>38.0</ele><time>2026-03-28T16:19:58.398Z</time></trkpt><trkpt lat="39.33772" lon="17.0531067"><ele>37.66666666666667</ele><time>2026-03-28T16:20:39.398Z</time></trkpt><trkpt lat="39.3376533" lon="17.0531317"><ele>37.333333333333336</ele><time>2026-03-28T16:20:41.398Z</time></trkpt><trkpt lat="39.33758" lon="17.0531133"><ele>37.0</ele><time>2026-03-28T16:20:44.398Z</time></trkpt><trkpt lat="39.337515" lon="17.053185"><ele>37.0</ele><time>2026-03-28T16:20:47.398Z</time></trkpt><trkpt lat="39.337575" lon="17.0532467"><ele>37.0</ele><time>2026-03-28T16:21:36.398Z</time></trkpt><trkpt lat="39.33763" lon="17.0532933"><ele>37.0</ele><time>2026-03-28T16:21:40.398Z</time></trkpt><trkpt lat="39.3376783" lon="17.0533833"><ele>37.0</ele><time>2026-03-28T16:21:46.399Z</time></trkpt><trkpt lat="39.3377183" lon="17.0534667"><ele>37.0</ele><time>2026-03-28T16:21:50.399Z</time></trkpt><trkpt lat="39.337735" lon="17.053565"><ele>37.0</ele><time>2026-03-28T16:22:17.398Z</time></trkpt><trkpt lat="39.33781" lon="17.0536033"><ele>37.333333333333336</ele><time>2026-03-28T16:22:22.398Z</time></trkpt><trkpt lat="39.337855" lon="17.05368"><ele>37.66666666666667</ele><time>2026-03-28T16:22:25.398Z</time></trkpt><trkpt lat="39.337895" lon="17.0537533"><ele>38.0</ele><time>2026-03-28T16:22:27.398Z</time></trkpt><trkpt lat="39.3379467" lon="17.0538533"><ele>38.333333333333336</ele><time>2026-03-28T16:22:35.398Z</time></trkpt><trkpt lat="39.33796" lon="17.0539533"><ele>38.666666666666664</ele><time>2026-03-28T16:22:38.398Z</time></trkpt><trkpt lat="39.3379417" lon="17.05387"><ele>39.0</ele><time>2026-03-28T16:24:05.398Z</time></trkpt><trkpt lat="39.3379833" lon="17.0538"><ele>39.0</ele><time>2026-03-28T16:24:28.398Z</time></trkpt><trkpt lat="39.3379333" lon="17.0538533"><ele>39.0</ele><time>2026-03-28T16:24:48.399Z</time></trkpt><trkpt lat="39.3379983" lon="17.0538583"><ele>39.0</ele><time>2026-03-28T16:28:12.398Z</time></trkpt><trkpt lat="39.33806" lon="17.0538883"><ele>39.0</ele><time>2026-03-28T16:28:15.398Z</time></trkpt><trkpt lat="39.3381167" lon="17.05398"><ele>39.0</ele><time>2026-03-28T16:29:05.398Z</time></trkpt><trkpt lat="39.3382167" lon="17.0540583"><ele>39.0</ele><time>2026-03-28T16:29:07.398Z</time></trkpt><trkpt lat="39.33828" lon="17.0540717"><ele>39.0</ele><time>2026-03-28T16:29:08.398Z</time></trkpt><trkpt lat="39.33834" lon="17.0541067"><ele>39.0</ele><time>2026-03-28T16:29:09.398Z</time></trkpt><trkpt lat="39.3383917" lon="17.05418"><ele>39.0</ele><time>2026-03-28T16:29:10.399Z</time></trkpt><trkpt lat="39.3384367" lon="17.0542767"><ele>39.0</ele><time>2026-03-28T16:29:11.398Z</time></trkpt><trkpt lat="39.3384717" lon="17.0543783"><ele>39.0</ele><time>2026-03-28T16:29:12.399Z</time></trkpt><trkpt lat="39.338495" lon="17.054475"><ele>39.0</ele><time>2026-03-28T16:29:13.398Z</time></trkpt><trkpt lat="39.3385117" lon="17.054565"><ele>39.0</ele><time>2026-03-28T16:29:14.398Z</time></trkpt><trkpt lat="39.338515" lon="17.0546633"><ele>39.0</ele><time>2026-03-28T16:29:15.399Z</time></trkpt><trkpt lat="39.3385167" lon="17.0547633"><ele>39.0</ele><time>2026-03-28T16:29:16.398Z</time></trkpt><trkpt lat="39.3385267" lon="17.054865"><ele>39.0</ele><time>2026-03-28T16:29:17.399Z</time></trkpt><trkpt lat="39.338545" lon="17.054965"><ele>39.0</ele><time>2026-03-28T16:29:18.398Z</time></trkpt><trkpt lat="39.3385667" lon="17.0550633"><ele>39.0</ele><time>2026-03-28T16:29:19.399Z</time></trkpt><trkpt lat="39.33859" lon="17.05516"><ele>39.166666666666664</ele><time>2026-03-28T16:29:20.399Z</time></trkpt><trkpt lat="39.3386167" lon="17.0552517"><ele>39.333333333333336</ele><time>2026-03-28T16:29:21.398Z</time></trkpt><trkpt lat="39.3386433" lon="17.0553367"><ele>39.5</ele><time>2026-03-28T16:29:22.398Z</time></trkpt><trkpt lat="39.3386733" lon="17.0554133"><ele>39.66666666666667</ele><time>2026-03-28T16:29:23.398Z</time></trkpt><trkpt lat="39.3387217" lon="17.055535"><ele>39.833333333333336</ele><time>2026-03-28T16:29:25.398Z</time></trkpt><trkpt lat="39.33877" lon="17.05565"><ele>40.0</ele><time>2026-03-28T16:29:27.398Z</time></trkpt><trkpt lat="39.3388033" lon="17.055775"><ele>39.6</ele><time>2026-03-28T16:29:29.398Z</time></trkpt><trkpt lat="39.3388333" lon="17.0559067"><ele>39.2</ele><time>2026-03-28T16:29:31.399Z</time></trkpt><trkpt lat="39.33887" lon="17.056045"><ele>38.8</ele><time>2026-03-28T16:29:33.399Z</time></trkpt><trkpt lat="39.3389033" lon="17.0562067"><ele>38.4</ele><time>2026-03-28T16:29:35.398Z</time></trkpt><trkpt lat="39.33893" lon="17.056305"><ele>38.0</ele><time>2026-03-28T16:29:36.398Z</time></trkpt><trkpt lat="39.33896" lon="17.05642"><ele>38.8</ele><time>2026-03-28T16:29:37.398Z</time></trkpt><trkpt lat="39.33899" lon="17.056535"><ele>39.599999999999994</ele><time>2026-03-28T16:29:38.398Z</time></trkpt><trkpt lat="39.339015" lon="17.056655"><ele>40.400000000000006</ele><time>2026-03-28T16:29:39.399Z</time></trkpt><trkpt lat="39.3390367" lon="17.056775"><ele>41.2</ele><time>2026-03-28T16:29:40.398Z</time></trkpt><trkpt lat="39.3390467" lon="17.0568983"><ele>42.0</ele><time>2026-03-28T16:29:41.398Z</time></trkpt><trkpt lat="39.33905" lon="17.0570267"><ele>42.0</ele><time>2026-03-28T16:29:42.398Z</time></trkpt><trkpt lat="39.3390483" lon="17.0571567"><ele>42.0</ele><time>2026-03-28T16:29:43.398Z</time></trkpt><trkpt lat="39.3390383" lon="17.057295"><ele>42.0</ele><time>2026-03-28T16:29:44.398Z</time></trkpt><trkpt lat="39.3390267" lon="17.057415"><ele>42.0</ele><time>2026-03-28T16:29:45.398Z</time></trkpt><trkpt lat="39.3390167" lon="17.05752"><ele>42.0</ele><time>2026-03-28T16:29:46.398Z</time></trkpt><trkpt lat="39.3390083" lon="17.0576133"><ele>42.400000000000006</ele><time>2026-03-28T16:29:47.398Z</time></trkpt><trkpt lat="39.339" lon="17.0577617"><ele>42.800000000000004</ele><time>2026-03-28T16:29:49.398Z</time></trkpt><trkpt lat="39.3390033" lon="17.0579317"><ele>43.2</ele><time>2026-03-28T16:29:51.399Z</time></trkpt><trkpt lat="39.33901" lon="17.0580283"><ele>43.6</ele><time>2026-03-28T16:29:52.398Z</time></trkpt><trkpt lat="39.33902" lon="17.0581183"><ele>44.0</ele><time>2026-03-28T16:29:53.398Z</time></trkpt><trkpt lat="39.3390283" lon="17.0582117"><ele>43.666666666666664</ele><time>2026-03-28T16:29:54.398Z</time></trkpt><trkpt lat="39.3390483" lon="17.0582967"><ele>43.33333333333333</ele><time>2026-03-28T16:29:55.398Z</time></trkpt><trkpt lat="39.33907" lon="17.0583767"><ele>43.0</ele><time>2026-03-28T16:29:56.399Z</time></trkpt><trkpt lat="39.3390933" lon="17.0584633"><ele>42.666666666666664</ele><time>2026-03-28T16:29:57.398Z</time></trkpt><trkpt lat="39.3391233" lon="17.0585567"><ele>42.333333333333336</ele><time>2026-03-28T16:29:58.398Z</time></trkpt><trkpt lat="39.339155" lon="17.0586633"><ele>42.0</ele><time>2026-03-28T16:29:59.398Z</time></trkpt><trkpt lat="39.3391867" lon="17.0587783"><ele>42.0</ele><time>2026-03-28T16:30:00.398Z</time></trkpt><trkpt lat="39.33922" lon="17.0588833"><ele>42.0</ele><time>2026-03-28T16:30:01.398Z</time></trkpt><trkpt lat="39.3392517" lon="17.0589783"><ele>42.0</ele><time>2026-03-28T16:30:02.399Z</time></trkpt><trkpt lat="39.3392817" lon="17.0590683"><ele>42.0</ele><time>2026-03-28T16:30:03.399Z</time></trkpt><trkpt lat="39.339315" lon="17.0591583"><ele>42.0</ele><time>2026-03-28T16:30:04.398Z</time></trkpt><trkpt lat="39.339345" lon="17.0592483"><ele>42.0</ele><time>2026-03-28T16:30:05.399Z</time></trkpt><trkpt lat="39.3393717" lon="17.059335"><ele>41.857142857142854</ele><time>2026-03-28T16:30:06.398Z</time></trkpt><trkpt lat="39.339395" lon="17.0594217"><ele>41.714285714285715</ele><time>2026-03-28T16:30:07.398Z</time></trkpt><trkpt lat="39.33942" lon="17.05951"><ele>41.57142857142857</ele><time>2026-03-28T16:30:08.398Z</time></trkpt><trkpt lat="39.339445" lon="17.0595983"><ele>41.42857142857143</ele><time>2026-03-28T16:30:09.398Z</time></trkpt><trkpt lat="39.3394717" lon="17.0596833"><ele>41.285714285714285</ele><time>2026-03-28T16:30:10.398Z</time></trkpt><trkpt lat="39.3395" lon="17.059765"><ele>41.14285714285714</ele><time>2026-03-28T16:30:11.399Z</time></trkpt><trkpt lat="39.3395267" lon="17.0598467"><ele>41.0</ele><time>2026-03-28T16:30:12.399Z</time></trkpt><trkpt lat="39.3395533" lon="17.05993"><ele>40.199999999999996</ele><time>2026-03-28T16:30:13.398Z</time></trkpt><trkpt lat="39.3395817" lon="17.0600083"><ele>39.4</ele><time>2026-03-28T16:30:14.398Z</time></trkpt><trkpt lat="39.33963" lon="17.0601683"><ele>38.6</ele><time>2026-03-28T16:30:16.398Z</time></trkpt><trkpt lat="39.3396467" lon="17.0602483"><ele>37.8</ele><time>2026-03-28T16:30:17.399Z</time></trkpt><trkpt lat="39.339665" lon="17.0603283"><ele>37.0</ele><time>2026-03-28T16:30:18.4Z</time></trkpt><trkpt lat="39.3397" lon="17.06052"><ele>37.0</ele><time>2026-03-28T16:30:20.4Z</time></trkpt><trkpt lat="39.3397167" lon="17.0606267"><ele>37.0</ele><time>2026-03-28T16:30:21.399Z</time></trkpt><trkpt lat="39.3397317" lon="17.06074"><ele>37.0</ele><time>2026-03-28T16:30:22.399Z</time></trkpt><trkpt lat="39.3397417" lon="17.0608633"><ele>37.0</ele><time>2026-03-28T16:30:23.399Z</time></trkpt><trkpt lat="39.339755" lon="17.0610017"><ele>37.0</ele><time>2026-03-28T16:30:24.399Z</time></trkpt><trkpt lat="39.339765" lon="17.06115"><ele>38.66666666666667</ele><time>2026-03-28T16:30:25.399Z</time></trkpt><trkpt lat="39.3397733" lon="17.0612767"><ele>40.333333333333336</ele><time>2026-03-28T16:30:26.399Z</time></trkpt><trkpt lat="39.3397833" lon="17.0613933"><ele>42.0</ele><time>2026-03-28T16:30:27.399Z</time></trkpt><trkpt lat="39.3397883" lon="17.0615033"><ele>43.666666666666664</ele><time>2026-03-28T16:30:28.399Z</time></trkpt><trkpt lat="39.33979" lon="17.061605"><ele>45.33333333333333</ele><time>2026-03-28T16:30:29.399Z</time></trkpt><trkpt lat="39.3397933" lon="17.0617"><ele>47.0</ele><time>2026-03-28T16:30:30.399Z</time></trkpt><trkpt lat="39.3398017" lon="17.0617867"><ele>47.33333333333333</ele><time>2026-03-28T16:30:31.399Z</time></trkpt><trkpt lat="39.33981" lon="17.06188"><ele>47.666666666666664</ele><time>2026-03-28T16:30:32.399Z</time></trkpt><trkpt lat="39.339815" lon="17.0619767"><ele>48.0</ele><time>2026-03-28T16:30:33.399Z</time></trkpt><trkpt lat="39.33982" lon="17.062085"><ele>48.33333333333333</ele><time>2026-03-28T16:30:34.399Z</time></trkpt><trkpt lat="39.339825" lon="17.0621917"><ele>48.666666666666664</ele><time>2026-03-28T16:30:35.4Z</time></trkpt><trkpt lat="39.3398283" lon="17.0622967"><ele>49.0</ele><time>2026-03-28T16:30:36.4Z</time></trkpt><trkpt lat="39.3398467" lon="17.0624067"><ele>48.33333333333333</ele><time>2026-03-28T16:30:37.4Z</time></trkpt><trkpt lat="39.339865" lon="17.0625083"><ele>47.666666666666664</ele><time>2026-03-28T16:30:38.4Z</time></trkpt><trkpt lat="39.3398833" lon="17.062605"><ele>47.0</ele><time>2026-03-28T16:30:39.399Z</time></trkpt><trkpt lat="39.33991" lon="17.0626983"><ele>46.33333333333333</ele><time>2026-03-28T16:30:40.399Z</time></trkpt><trkpt lat="39.339935" lon="17.0627983"><ele>45.666666666666664</ele><time>2026-03-28T16:30:41.399Z</time></trkpt><trkpt lat="39.3399633" lon="17.0628983"><ele>45.0</ele><time>2026-03-28T16:30:42.399Z</time></trkpt><trkpt lat="39.3399917" lon="17.062995"><ele>45.0</ele><time>2026-03-28T16:30:43.399Z</time></trkpt><trkpt lat="39.3400117" lon="17.0630867"><ele>45.0</ele><time>2026-03-28T16:30:44.4Z</time></trkpt><trkpt lat="39.340035" lon="17.063185"><ele>45.0</ele><time>2026-03-28T16:30:45.399Z</time></trkpt><trkpt lat="39.340065" lon="17.063295"><ele>45.0</ele><time>2026-03-28T16:30:46.399Z</time></trkpt><trkpt lat="39.3401033" lon="17.0634117"><ele>45.0</ele><time>2026-03-28T16:30:47.399Z</time></trkpt><trkpt lat="39.3401333" lon="17.0635283"><ele>45.0</ele><time>2026-03-28T16:30:48.4Z</time></trkpt><trkpt lat="39.34017" lon="17.0636467"><ele>43.8</ele><time>2026-03-28T16:30:49.399Z</time></trkpt><trkpt lat="39.3402167" lon="17.0637633"><ele>42.6</ele><time>2026-03-28T16:30:50.399Z</time></trkpt><trkpt lat="39.340265" lon="17.0638767"><ele>41.4</ele><time>2026-03-28T16:30:51.399Z</time></trkpt><trkpt lat="39.3403117" lon="17.0639817"><ele>40.2</ele><time>2026-03-28T16:30:52.399Z</time></trkpt><trkpt lat="39.3403667" lon="17.06408"><ele>39.0</ele><time>2026-03-28T16:30:53.4Z</time></trkpt><trkpt lat="39.3404233" lon="17.0641783"><ele>38.666666666666664</ele><time>2026-03-28T16:30:54.399Z</time></trkpt><trkpt lat="39.3404817" lon="17.0642767"><ele>38.333333333333336</ele><time>2026-03-28T16:30:55.399Z</time></trkpt><trkpt lat="39.3405367" lon="17.0643767"><ele>38.0</ele><time>2026-03-28T16:30:56.399Z</time></trkpt><trkpt lat="39.34059" lon="17.064465"><ele>37.66666666666667</ele><time>2026-03-28T16:30:57.399Z</time></trkpt><trkpt lat="39.3406383" lon="17.0645517"><ele>37.333333333333336</ele><time>2026-03-28T16:30:58.399Z</time></trkpt><trkpt lat="39.340685" lon="17.06463"><ele>37.0</ele><time>2026-03-28T16:30:59.399Z</time></trkpt><trkpt lat="39.3407367" lon="17.0647167"><ele>38.833333333333336</ele><time>2026-03-28T16:31:00.399Z</time></trkpt><trkpt lat="39.3407817" lon="17.0648117"><ele>40.66666666666667</ele><time>2026-03-28T16:31:01.399Z</time></trkpt><trkpt lat="39.3408233" lon="17.0649217"><ele>42.5</ele><time>2026-03-28T16:31:02.4Z</time></trkpt><trkpt lat="39.3408583" lon="17.0650267"><ele>44.333333333333336</ele><time>2026-03-28T16:31:03.4Z</time></trkpt><trkpt lat="39.3408833" lon="17.0651283"><ele>46.166666666666664</ele><time>2026-03-28T16:31:04.399Z</time></trkpt><trkpt lat="39.3409" lon="17.0652267"><ele>48.0</ele><time>2026-03-28T16:31:05.399Z</time></trkpt><trkpt lat="39.3409133" lon="17.065335"><ele>48.0</ele><time>2026-03-28T16:31:06.399Z</time></trkpt><trkpt lat="39.3409117" lon="17.0654433"><ele>48.0</ele><time>2026-03-28T16:31:07.399Z</time></trkpt><trkpt lat="39.3409033" lon="17.065545"><ele>48.0</ele><time>2026-03-28T16:31:08.399Z</time></trkpt><trkpt lat="39.340895" lon="17.0656517"><ele>48.0</ele><time>2026-03-28T16:31:09.4Z</time></trkpt><trkpt lat="39.3408817" lon="17.0657667"><ele>48.0</ele><time>2026-03-28T16:31:10.399Z</time></trkpt><trkpt lat="39.3408683" lon="17.0658867"><ele>48.0</ele><time>2026-03-28T16:31:11.399Z</time></trkpt><trkpt lat="39.3408533" lon="17.0660067"><ele>47.333333333333336</ele><time>2026-03-28T16:31:12.4Z</time></trkpt><trkpt lat="39.3408383" lon="17.0661233"><ele>46.666666666666664</ele><time>2026-03-28T16:31:13.399Z</time></trkpt><trkpt lat="39.340825" lon="17.0662383"><ele>46.0</ele><time>2026-03-28T16:31:14.399Z</time></trkpt><trkpt lat="39.3408133" lon="17.0663533"><ele>45.33333333333333</ele><time>2026-03-28T16:31:15.399Z</time></trkpt><trkpt lat="39.3408133" lon="17.0664667"><ele>44.666666666666664</ele><time>2026-03-28T16:31:16.399Z</time></trkpt><trkpt lat="39.3408233" lon="17.0665817"><ele>44.0</ele><time>2026-03-28T16:31:17.399Z</time></trkpt><trkpt lat="39.3408433" lon="17.066695"><ele>43.33333333333333</ele><time>2026-03-28T16:31:18.399Z</time></trkpt><trkpt lat="39.340865" lon="17.06681"><ele>42.666666666666664</ele><time>2026-03-28T16:31:19.4Z</time></trkpt><trkpt lat="39.3408917" lon="17.0669167"><ele>42.0</ele><time>2026-03-28T16:31:20.399Z</time></trkpt><trkpt lat="39.3409167" lon="17.0670217"><ele>41.333333333333336</ele><time>2026-03-28T16:31:21.399Z</time></trkpt><trkpt lat="39.34094" lon="17.067125"><ele>40.66666666666667</ele><time>2026-03-28T16:31:22.399Z</time></trkpt><trkpt lat="39.3409633" lon="17.0672383"><ele>40.0</ele><time>2026-03-28T16:31:23.399Z</time></trkpt><trkpt lat="39.3409867" lon="17.0673433"><ele>39.833333333333336</ele><time>2026-03-28T16:31:24.399Z</time></trkpt><trkpt lat="39.34101" lon="17.0674467"><ele>39.66666666666667</ele><time>2026-03-28T16:31:25.399Z</time></trkpt><trkpt lat="39.3410333" lon="17.0675467"><ele>39.5</ele><time>2026-03-28T16:31:26.399Z</time></trkpt><trkpt lat="39.3410583" lon="17.06764"><ele>39.333333333333336</ele><time>2026-03-28T16:31:27.399Z</time></trkpt><trkpt lat="39.3410833" lon="17.0677283"><ele>39.166666666666664</ele><time>2026-03-28T16:31:28.399Z</time></trkpt><trkpt lat="39.3411117" lon="17.0678133"><ele>39.0</ele><time>2026-03-28T16:31:29.399Z</time></trkpt><trkpt lat="39.34114" lon="17.0678983"><ele>39.0</ele><time>2026-03-28T16:31:30.4Z</time></trkpt><trkpt lat="39.3411733" lon="17.06798"><ele>39.0</ele><time>2026-03-28T16:31:31.399Z</time></trkpt><trkpt lat="39.3412183" lon="17.0680517"><ele>39.0</ele><time>2026-03-28T16:31:32.399Z</time></trkpt><trkpt lat="39.341265" lon="17.0681183"><ele>39.0</ele><time>2026-03-28T16:31:33.4Z</time></trkpt><trkpt lat="39.3413233" lon="17.0681717"><ele>39.0</ele><time>2026-03-28T16:31:34.399Z</time></trkpt><trkpt lat="39.3413883" lon="17.068215"><ele>39.0</ele><time>2026-03-28T16:31:35.399Z</time></trkpt><trkpt lat="39.3414567" lon="17.0682483"><ele>39.0</ele><time>2026-03-28T16:31:36.399Z</time></trkpt><trkpt lat="39.3415283" lon="17.0682683"><ele>38.85714285714286</ele><time>2026-03-28T16:31:37.399Z</time></trkpt><trkpt lat="39.3416" lon="17.0682783"><ele>38.71428571428571</ele><time>2026-03-28T16:31:38.4Z</time></trkpt><trkpt lat="39.3416733" lon="17.0682833"><ele>38.57142857142857</ele><time>2026-03-28T16:31:39.399Z</time></trkpt><trkpt lat="39.3417533" lon="17.068275"><ele>38.42857142857143</ele><time>2026-03-28T16:31:40.399Z</time></trkpt><trkpt lat="39.3418217" lon="17.0682883"><ele>38.28571428571429</ele><time>2026-03-28T16:31:41.4Z</time></trkpt><trkpt lat="39.34189" lon="17.0683"><ele>38.14285714285714</ele><time>2026-03-28T16:31:42.4Z</time></trkpt><trkpt lat="39.3419567" lon="17.0683067"><ele>38.0</ele><time>2026-03-28T16:31:43.4Z</time></trkpt><trkpt lat="39.3420733" lon="17.0683317"><ele>38.0</ele><time>2026-03-28T16:31:45.4Z</time></trkpt><trkpt lat="39.3421867" lon="17.06839"><ele>38.0</ele><time>2026-03-28T16:31:47.399Z</time></trkpt><trkpt lat="39.342245" lon="17.0684317"><ele>38.0</ele><time>2026-03-28T16:31:48.399Z</time></trkpt><trkpt lat="39.3423117" lon="17.068485"><ele>38.0</ele><time>2026-03-28T16:31:49.399Z</time></trkpt><trkpt lat="39.342385" lon="17.0685517"><ele>38.0</ele><time>2026-03-28T16:31:50.4Z</time></trkpt><trkpt lat="39.34246" lon="17.0686233"><ele>39.75</ele><time>2026-03-28T16:31:51.399Z</time></trkpt><trkpt lat="39.342545" lon="17.0687033"><ele>41.5</ele><time>2026-03-28T16:31:52.4Z</time></trkpt><trkpt lat="39.342635" lon="17.0687883"><ele>43.25</ele><time>2026-03-28T16:31:53.4Z</time></trkpt><trkpt lat="39.3427333" lon="17.068895"><ele>45.0</ele><time>2026-03-28T16:31:54.4Z</time></trkpt><trkpt lat="39.342825" lon="17.0690183"><ele>44.75</ele><time>2026-03-28T16:31:55.399Z</time></trkpt><trkpt lat="39.3429083" lon="17.0691467"><ele>44.5</ele><time>2026-03-28T16:31:56.4Z</time></trkpt><trkpt lat="39.3429933" lon="17.0692733"><ele>44.25</ele><time>2026-03-28T16:31:57.399Z</time></trkpt><trkpt lat="39.3430733" lon="17.06939"><ele>44.0</ele><time>2026-03-28T16:31:58.399Z</time></trkpt><trkpt lat="39.3431533" lon="17.0694967"><ele>44.0</ele><time>2026-03-28T16:31:59.399Z</time></trkpt><trkpt lat="39.3432383" lon="17.0695967"><ele>44.0</ele><time>2026-03-28T16:32:00.4Z</time></trkpt><trkpt lat="39.3433183" lon="17.0696933"><ele>44.0</ele><time>2026-03-28T16:32:01.4Z</time></trkpt><trkpt lat="39.3433983" lon="17.069775"><ele>44.0</ele><time>2026-03-28T16:32:02.399Z</time></trkpt><trkpt lat="39.3434783" lon="17.0698517"><ele>44.0</ele><time>2026-03-28T16:32:03.4Z</time></trkpt><trkpt lat="39.34356" lon="17.0699383"><ele>44.0</ele><time>2026-03-28T16:32:04.399Z</time></trkpt><trkpt lat="39.3436467" lon="17.0700317"><ele>44.0</ele><time>2026-03-28T16:32:05.4Z</time></trkpt><trkpt lat="39.3437417" lon="17.0701317"><ele>44.0</ele><time>2026-03-28T16:32:06.399Z</time></trkpt><trkpt lat="39.3438383" lon="17.0702367"><ele>44.0</ele><time>2026-03-28T16:32:07.399Z</time></trkpt><trkpt lat="39.3439317" lon="17.0703367"><ele>44.0</ele><time>2026-03-28T16:32:08.4Z</time></trkpt><trkpt lat="39.3440217" lon="17.0704233"><ele>44.0</ele><time>2026-03-28T16:32:09.399Z</time></trkpt><trkpt lat="39.3441017" lon="17.0705117"><ele>44.0</ele><time>2026-03-28T16:32:10.399Z</time></trkpt><trkpt lat="39.3441767" lon="17.0705983"><ele>44.0</ele><time>2026-03-28T16:32:11.399Z</time></trkpt><trkpt lat="39.3442533" lon="17.0706833"><ele>44.0</ele><time>2026-03-28T16:32:12.399Z</time></trkpt><trkpt lat="39.344335" lon="17.0707617"><ele>42.6</ele><time>2026-03-28T16:32:13.399Z</time></trkpt><trkpt lat="39.344435" lon="17.0708267"><ele>41.2</ele><time>2026-03-28T16:32:14.399Z</time></trkpt><trkpt lat="39.3445383" lon="17.0708767"><ele>39.800000000000004</ele><time>2026-03-28T16:32:15.4Z</time></trkpt><trkpt lat="39.3446333" lon="17.07092"><ele>38.400000000000006</ele><time>2026-03-28T16:32:16.4Z</time></trkpt><trkpt lat="39.344715" lon="17.0709467"><ele>37.0</ele><time>2026-03-28T16:32:17.399Z</time></trkpt><trkpt lat="39.3447883" lon="17.0709633"><ele>37.0</ele><time>2026-03-28T16:32:18.399Z</time></trkpt><trkpt lat="39.3448683" lon="17.0709783"><ele>37.0</ele><time>2026-03-28T16:32:19.399Z</time></trkpt><trkpt lat="39.3449467" lon="17.07099"><ele>37.0</ele><time>2026-03-28T16:32:20.399Z</time></trkpt><trkpt lat="39.345025" lon="17.0710033"><ele>37.0</ele><time>2026-03-28T16:32:21.399Z</time></trkpt><trkpt lat="39.3450967" lon="17.0710183"><ele>37.0</ele><time>2026-03-28T16:32:22.399Z</time></trkpt><trkpt lat="39.345175" lon="17.0710283"><ele>37.0</ele><time>2026-03-28T16:32:23.399Z</time></trkpt><trkpt lat="39.3452517" lon="17.07104"><ele>37.0</ele><time>2026-03-28T16:32:24.399Z</time></trkpt><trkpt lat="39.3453233" lon="17.0710667"><ele>37.0</ele><time>2026-03-28T16:32:25.399Z</time></trkpt><trkpt lat="39.3453967" lon="17.071115"><ele>37.0</ele><time>2026-03-28T16:32:26.399Z</time></trkpt><trkpt lat="39.34546" lon="17.0711833"><ele>37.0</ele><time>2026-03-28T16:32:27.399Z</time></trkpt><trkpt lat="39.3455067" lon="17.07127"><ele>37.0</ele><time>2026-03-28T16:32:28.399Z</time></trkpt><trkpt lat="39.3455333" lon="17.071365"><ele>37.0</ele><time>2026-03-28T16:32:29.399Z</time></trkpt><trkpt lat="39.345545" lon="17.0714867"><ele>35.6</ele><time>2026-03-28T16:32:30.4Z</time></trkpt><trkpt lat="39.34556" lon="17.071625"><ele>34.2</ele><time>2026-03-28T16:32:31.399Z</time></trkpt><trkpt lat="39.3455767" lon="17.0717617"><ele>32.8</ele><time>2026-03-28T16:32:32.399Z</time></trkpt><trkpt lat="39.34559" lon="17.071885"><ele>31.4</ele><time>2026-03-28T16:32:33.399Z</time></trkpt><trkpt lat="39.3456083" lon="17.0719967"><ele>30.0</ele><time>2026-03-28T16:32:34.399Z</time></trkpt><trkpt lat="39.345625" lon="17.07211"><ele>30.0</ele><time>2026-03-28T16:32:35.399Z</time></trkpt><trkpt lat="39.3456383" lon="17.0722217"><ele>30.0</ele><time>2026-03-28T16:32:36.399Z</time></trkpt><trkpt lat="39.3456483" lon="17.0723233"><ele>30.0</ele><time>2026-03-28T16:32:37.399Z</time></trkpt><trkpt lat="39.34566" lon="17.072405"><ele>30.0</ele><time>2026-03-28T16:32:38.399Z</time></trkpt><trkpt lat="39.3456817" lon="17.0725383"><ele>30.0</ele><time>2026-03-28T16:32:40.4Z</time></trkpt><trkpt lat="39.3457" lon="17.0726783"><ele>30.0</ele><time>2026-03-28T16:32:42.399Z</time></trkpt><trkpt lat="39.3457217" lon="17.072815"><ele>29.8</ele><time>2026-03-28T16:32:44.399Z</time></trkpt><trkpt lat="39.3457467" lon="17.0729433"><ele>29.6</ele><time>2026-03-28T16:32:46.4Z</time></trkpt><trkpt lat="39.345755" lon="17.0730467"><ele>29.4</ele><time>2026-03-28T16:32:48.399Z</time></trkpt><trkpt lat="39.3457733" lon="17.0731667"><ele>29.2</ele><time>2026-03-28T16:32:50.399Z</time></trkpt><trkpt lat="39.3457933" lon="17.07332"><ele>29.0</ele><time>2026-03-28T16:32:52.399Z</time></trkpt><trkpt lat="39.34581" lon="17.0734133"><ele>28.666666666666664</ele><time>2026-03-28T16:32:53.399Z</time></trkpt><trkpt lat="39.345825" lon="17.0735067"><ele>28.333333333333332</ele><time>2026-03-28T16:32:54.4Z</time></trkpt><trkpt lat="39.3458383" lon="17.0736133"><ele>28.0</ele><time>2026-03-28T16:32:55.399Z</time></trkpt><trkpt lat="39.3458583" lon="17.073725"><ele>27.666666666666664</ele><time>2026-03-28T16:32:56.399Z</time></trkpt><trkpt lat="39.34588" lon="17.073835"><ele>27.333333333333332</ele><time>2026-03-28T16:32:57.399Z</time></trkpt><trkpt lat="39.345895" lon="17.0739467"><ele>27.0</ele><time>2026-03-28T16:32:58.399Z</time></trkpt><trkpt lat="39.34591" lon="17.0740517"><ele>27.0</ele><time>2026-03-28T16:32:59.399Z</time></trkpt><trkpt lat="39.3459283" lon="17.0741583"><ele>27.000000000000004</ele><time>2026-03-28T16:33:00.399Z</time></trkpt><trkpt lat="39.3459467" lon="17.0742717"><ele>27.000000000000004</ele><time>2026-03-28T16:33:01.399Z</time></trkpt><trkpt lat="39.3459617" lon="17.0743883"><ele>27.0</ele><time>2026-03-28T16:33:02.4Z</time></trkpt><trkpt lat="39.34598" lon="17.074505"><ele>27.0</ele><time>2026-03-28T16:33:03.4Z</time></trkpt><trkpt lat="39.3459983" lon="17.0746217"><ele>27.0</ele><time>2026-03-28T16:33:04.399Z</time></trkpt><trkpt lat="39.3460183" lon="17.0747383"><ele>27.0</ele><time>2026-03-28T16:33:05.399Z</time></trkpt><trkpt lat="39.3460367" lon="17.0748467"><ele>27.0</ele><time>2026-03-28T16:33:06.4Z</time></trkpt><trkpt lat="39.3460567" lon="17.0749533"><ele>27.0</ele><time>2026-03-28T16:33:07.399Z</time></trkpt><trkpt lat="39.346075" lon="17.075065"><ele>27.0</ele><time>2026-03-28T16:33:08.4Z</time></trkpt><trkpt lat="39.3460917" lon="17.0751683"><ele>27.0</ele><time>2026-03-28T16:33:09.399Z</time></trkpt><trkpt lat="39.3461083" lon="17.0752683"><ele>27.0</ele><time>2026-03-28T16:33:10.399Z</time></trkpt><trkpt lat="39.346125" lon="17.075375"><ele>27.0</ele><time>2026-03-28T16:33:11.4Z</time></trkpt><trkpt lat="39.3461417" lon="17.07548"><ele>27.0</ele><time>2026-03-28T16:33:12.4Z</time></trkpt><trkpt lat="39.3461633" lon="17.075585"><ele>27.0</ele><time>2026-03-28T16:33:13.399Z</time></trkpt><trkpt lat="39.34619" lon="17.0756917"><ele>27.0</ele><time>2026-03-28T16:33:14.399Z</time></trkpt><trkpt lat="39.346215" lon="17.07579"><ele>27.0</ele><time>2026-03-28T16:33:15.4Z</time></trkpt><trkpt lat="39.3462467" lon="17.0758917"><ele>26.833333333333332</ele><time>2026-03-28T16:33:16.399Z</time></trkpt><trkpt lat="39.346285" lon="17.0759933"><ele>26.666666666666664</ele><time>2026-03-28T16:33:17.399Z</time></trkpt><trkpt lat="39.3463183" lon="17.0760917"><ele>26.5</ele><time>2026-03-28T16:33:18.399Z</time></trkpt><trkpt lat="39.346355" lon="17.0761817"><ele>26.333333333333332</ele><time>2026-03-28T16:33:19.399Z</time></trkpt><trkpt lat="39.3463933" lon="17.076265"><ele>26.166666666666664</ele><time>2026-03-28T16:33:20.399Z</time></trkpt><trkpt lat="39.346435" lon="17.0763567"><ele>26.0</ele><time>2026-03-28T16:33:21.399Z</time></trkpt><trkpt lat="39.3464767" lon="17.076445"><ele>25.999999999999996</ele><time>2026-03-28T16:33:22.4Z</time></trkpt><trkpt lat="39.3465183" lon="17.0765283"><ele>26.0</ele><time>2026-03-28T16:33:23.399Z</time></trkpt><trkpt lat="39.3465617" lon="17.0766133"><ele>26.0</ele><time>2026-03-28T16:33:24.399Z</time></trkpt><trkpt lat="39.3466" lon="17.0767"><ele>26.0</ele><time>2026-03-28T16:33:25.4Z</time></trkpt><trkpt lat="39.346645" lon="17.0767817"><ele>25.999999999999996</ele><time>2026-03-28T16:33:26.399Z</time></trkpt><trkpt lat="39.346695" lon="17.0768633"><ele>26.0</ele><time>2026-03-28T16:33:27.399Z</time></trkpt><trkpt lat="39.3467483" lon="17.07696"><ele>26.4</ele><time>2026-03-28T16:33:28.4Z</time></trkpt><trkpt lat="39.3468083" lon="17.0770617"><ele>26.8</ele><time>2026-03-28T16:33:29.4Z</time></trkpt><trkpt lat="39.346865" lon="17.0771667"><ele>27.199999999999996</ele><time>2026-03-28T16:33:30.4Z</time></trkpt><trkpt lat="39.3469233" lon="17.0772717"><ele>27.599999999999998</ele><time>2026-03-28T16:33:31.4Z</time></trkpt><trkpt lat="39.3469733" lon="17.0773883"><ele>28.0</ele><time>2026-03-28T16:33:32.4Z</time></trkpt><trkpt lat="39.3470183" lon="17.0775"><ele>28.0</ele><time>2026-03-28T16:33:33.399Z</time></trkpt><trkpt lat="39.3470433" lon="17.0776183"><ele>27.999999999999996</ele><time>2026-03-28T16:33:34.399Z</time></trkpt><trkpt lat="39.3470517" lon="17.0777367"><ele>27.999999999999996</ele><time>2026-03-28T16:33:35.399Z</time></trkpt><trkpt lat="39.3470483" lon="17.0778683"><ele>28.0</ele><time>2026-03-28T16:33:36.399Z</time></trkpt><trkpt lat="39.3470317" lon="17.0780067"><ele>28.0</ele><time>2026-03-28T16:33:37.399Z</time></trkpt><trkpt lat="39.3470117" lon="17.078145"><ele>28.0</ele><time>2026-03-28T16:33:38.399Z</time></trkpt><trkpt lat="39.3470067" lon="17.078295"><ele>28.0</ele><time>2026-03-28T16:33:39.399Z</time></trkpt><trkpt lat="39.347015" lon="17.0784483"><ele>28.0</ele><time>2026-03-28T16:33:40.399Z</time></trkpt><trkpt lat="39.3470067" lon="17.0786167"><ele>28.0</ele><time>2026-03-28T16:33:41.399Z</time></trkpt><trkpt lat="39.347" lon="17.07877"><ele>28.0</ele><time>2026-03-28T16:33:42.399Z</time></trkpt><trkpt lat="39.34699" lon="17.078915"><ele>27.999999999999996</ele><time>2026-03-28T16:33:43.399Z</time></trkpt><trkpt lat="39.34697" lon="17.0790567"><ele>27.999999999999996</ele><time>2026-03-28T16:33:44.4Z</time></trkpt><trkpt lat="39.3469533" lon="17.0791883"><ele>28.0</ele><time>2026-03-28T16:33:45.399Z</time></trkpt><trkpt lat="39.3469367" lon="17.079325"><ele>28.0</ele><time>2026-03-28T16:33:46.4Z</time></trkpt><trkpt lat="39.34692" lon="17.0794633"><ele>27.799999999999997</ele><time>2026-03-28T16:33:47.399Z</time></trkpt><trkpt lat="39.3468967" lon="17.0796067"><ele>27.599999999999998</ele><time>2026-03-28T16:33:48.399Z</time></trkpt><trkpt lat="39.34688" lon="17.0797417"><ele>27.400000000000002</ele><time>2026-03-28T16:33:49.399Z</time></trkpt><trkpt lat="39.3468583" lon="17.0798817"><ele>27.200000000000003</ele><time>2026-03-28T16:33:50.399Z</time></trkpt><trkpt lat="39.3468417" lon="17.0800233"><ele>27.0</ele><time>2026-03-28T16:33:51.399Z</time></trkpt><trkpt lat="39.3468267" lon="17.080165"><ele>27.0</ele><time>2026-03-28T16:33:52.399Z</time></trkpt><trkpt lat="39.346815" lon="17.080305"><ele>27.0</ele><time>2026-03-28T16:33:53.399Z</time></trkpt><trkpt lat="39.3468217" lon="17.080445"><ele>27.0</ele><time>2026-03-28T16:33:54.399Z</time></trkpt><trkpt lat="39.3468433" lon="17.0805967"><ele>27.0</ele><time>2026-03-28T16:33:55.4Z</time></trkpt><trkpt lat="39.3468833" lon="17.0807467"><ele>26.25</ele><time>2026-03-28T16:33:56.399Z</time></trkpt><trkpt lat="39.3469367" lon="17.080895"><ele>25.5</ele><time>2026-03-28T16:33:57.4Z</time></trkpt><trkpt lat="39.347005" lon="17.0810267"><ele>24.75</ele><time>2026-03-28T16:33:58.399Z</time></trkpt><trkpt lat="39.3470817" lon="17.0811417"><ele>24.0</ele><time>2026-03-28T16:33:59.399Z</time></trkpt><trkpt lat="39.3471517" lon="17.081245"><ele>24.5</ele><time>2026-03-28T16:34:00.399Z</time></trkpt><trkpt lat="39.3472133" lon="17.081335"><ele>25.0</ele><time>2026-03-28T16:34:01.4Z</time></trkpt><trkpt lat="39.3472633" lon="17.0814233"><ele>25.5</ele><time>2026-03-28T16:34:02.4Z</time></trkpt><trkpt lat="39.34731" lon="17.0814933"><ele>26.0</ele><time>2026-03-28T16:34:03.4Z</time></trkpt><trkpt lat="39.3473633" lon="17.0815667"><ele>26.5</ele><time>2026-03-28T16:34:04.399Z</time></trkpt><trkpt lat="39.3474167" lon="17.0816483"><ele>27.0</ele><time>2026-03-28T16:34:05.399Z</time></trkpt><trkpt lat="39.3474733" lon="17.0817483"><ele>27.0</ele><time>2026-03-28T16:34:06.399Z</time></trkpt><trkpt lat="39.3475383" lon="17.081855"><ele>27.0</ele><time>2026-03-28T16:34:07.399Z</time></trkpt><trkpt lat="39.34761" lon="17.0819633"><ele>27.0</ele><time>2026-03-28T16:34:08.399Z</time></trkpt><trkpt lat="39.3476883" lon="17.0820867"><ele>27.0</ele><time>2026-03-28T16:34:09.399Z</time></trkpt><trkpt lat="39.3477667" lon="17.0822167"><ele>27.0</ele><time>2026-03-28T16:34:10.4Z</time></trkpt><trkpt lat="39.34784" lon="17.082345"><ele>27.0</ele><time>2026-03-28T16:34:11.399Z</time></trkpt><trkpt lat="39.34792" lon="17.0824633"><ele>27.0</ele><time>2026-03-28T16:34:12.399Z</time></trkpt><trkpt lat="39.3479983" lon="17.082585"><ele>27.0</ele><time>2026-03-28T16:34:13.399Z</time></trkpt><trkpt lat="39.348085" lon="17.082715"><ele>26.0</ele><time>2026-03-28T16:34:14.399Z</time></trkpt><trkpt lat="39.3481817" lon="17.0828717"><ele>25.0</ele><time>2026-03-28T16:34:15.4Z</time></trkpt><trkpt lat="39.3482983" lon="17.0830417"><ele>24.0</ele><time>2026-03-28T16:34:16.399Z</time></trkpt><trkpt lat="39.348425" lon="17.0832233"><ele>22.666666666666668</ele><time>2026-03-28T16:34:17.399Z</time></trkpt><trkpt lat="39.34854" lon="17.0834133"><ele>21.333333333333336</ele><time>2026-03-28T16:34:18.399Z</time></trkpt><trkpt lat="39.34864" lon="17.0835783"><ele>20.0</ele><time>2026-03-28T16:34:19.399Z</time></trkpt><trkpt lat="39.3487367" lon="17.0837217"><ele>20.0</ele><time>2026-03-28T16:34:20.399Z</time></trkpt><trkpt lat="39.34883" lon="17.083865"><ele>20.0</ele><time>2026-03-28T16:34:21.399Z</time></trkpt><trkpt lat="39.3489183" lon="17.0840133"><ele>20.0</ele><time>2026-03-28T16:34:22.399Z</time></trkpt><trkpt lat="39.3490083" lon="17.0841567"><ele>20.0</ele><time>2026-03-28T16:34:23.399Z</time></trkpt><trkpt lat="39.34909" lon="17.0842983"><ele>20.5</ele><time>2026-03-28T16:34:24.399Z</time></trkpt><trkpt lat="39.3491717" lon="17.0844433"><ele>21.0</ele><time>2026-03-28T16:34:25.4Z</time></trkpt><trkpt lat="39.349255" lon="17.084595"><ele>21.5</ele><time>2026-03-28T16:34:26.4Z</time></trkpt><trkpt lat="39.3493383" lon="17.0847367"><ele>22.0</ele><time>2026-03-28T16:34:27.399Z</time></trkpt><trkpt lat="39.3494183" lon="17.084885"><ele>21.0</ele><time>2026-03-28T16:34:28.399Z</time></trkpt><trkpt lat="39.3494933" lon="17.0850317"><ele>20.0</ele><time>2026-03-28T16:34:29.399Z</time></trkpt><trkpt lat="39.3495683" lon="17.085185"><ele>19.0</ele><time>2026-03-28T16:34:30.399Z</time></trkpt><trkpt lat="39.3496417" lon="17.0853417"><ele>18.0</ele><time>2026-03-28T16:34:31.399Z</time></trkpt><trkpt lat="39.3496967" lon="17.0855"><ele>18.0</ele><time>2026-03-28T16:34:32.399Z</time></trkpt><trkpt lat="39.3497367" lon="17.0856633"><ele>18.0</ele><time>2026-03-28T16:34:33.4Z</time></trkpt><trkpt lat="39.34978" lon="17.085815"><ele>18.0</ele><time>2026-03-28T16:34:34.399Z</time></trkpt><trkpt lat="39.3498167" lon="17.08597"><ele>18.0</ele><time>2026-03-28T16:34:35.399Z</time></trkpt><trkpt lat="39.3498567" lon="17.0861283"><ele>18.25</ele><time>2026-03-28T16:34:36.4Z</time></trkpt><trkpt lat="39.3498933" lon="17.0862867"><ele>18.5</ele><time>2026-03-28T16:34:37.399Z</time></trkpt><trkpt lat="39.349935" lon="17.086445"><ele>18.75</ele><time>2026-03-28T16:34:38.4Z</time></trkpt><trkpt lat="39.3499783" lon="17.0866083"><ele>19.0</ele><time>2026-03-28T16:34:39.4Z</time></trkpt><trkpt lat="39.350025" lon="17.0867633"><ele>19.0</ele><time>2026-03-28T16:34:40.399Z</time></trkpt><trkpt lat="39.3500783" lon="17.086925"><ele>19.0</ele><time>2026-03-28T16:34:41.399Z</time></trkpt><trkpt lat="39.35014" lon="17.08709"><ele>19.0</ele><time>2026-03-28T16:34:42.399Z</time></trkpt><trkpt lat="39.350205" lon="17.0872617"><ele>19.0</ele><time>2026-03-28T16:34:43.4Z</time></trkpt><trkpt lat="39.350265" lon="17.087435"><ele>19.0</ele><time>2026-03-28T16:34:44.399Z</time></trkpt><trkpt lat="39.3503317" lon="17.0876117"><ele>19.0</ele><time>2026-03-28T16:34:45.399Z</time></trkpt><trkpt lat="39.3504" lon="17.0877833"><ele>19.0</ele><time>2026-03-28T16:34:46.4Z</time></trkpt><trkpt lat="39.3504683" lon="17.0879583"><ele>19.0</ele><time>2026-03-28T16:34:47.399Z</time></trkpt><trkpt lat="39.35054" lon="17.0881283"><ele>19.0</ele><time>2026-03-28T16:34:48.399Z</time></trkpt><trkpt lat="39.3506067" lon="17.08831"><ele>19.0</ele><time>2026-03-28T16:34:49.4Z</time></trkpt><trkpt lat="39.350675" lon="17.088485"><ele>18.666666666666664</ele><time>2026-03-28T16:34:50.399Z</time></trkpt><trkpt lat="39.350745" lon="17.08866"><ele>18.333333333333332</ele><time>2026-03-28T16:34:51.399Z</time></trkpt><trkpt lat="39.3508167" lon="17.0888383"><ele>18.0</ele><time>2026-03-28T16:34:52.4Z</time></trkpt><trkpt lat="39.35089" lon="17.0890233"><ele>17.666666666666668</ele><time>2026-03-28T16:34:53.4Z</time></trkpt><trkpt lat="39.350965" lon="17.0892133"><ele>17.333333333333336</ele><time>2026-03-28T16:34:54.399Z</time></trkpt><trkpt lat="39.3510433" lon="17.08941"><ele>17.0</ele><time>2026-03-28T16:34:55.399Z</time></trkpt><trkpt lat="39.3511217" lon="17.0896117"><ele>17.0</ele><time>2026-03-28T16:34:56.399Z</time></trkpt><trkpt lat="39.3512" lon="17.0898133"><ele>17.0</ele><time>2026-03-28T16:34:57.4Z</time></trkpt><trkpt lat="39.351285" lon="17.09002"><ele>17.0</ele><time>2026-03-28T16:34:58.399Z</time></trkpt><trkpt lat="39.3513717" lon="17.09023"><ele>17.666666666666668</ele><time>2026-03-28T16:34:59.399Z</time></trkpt><trkpt lat="39.3514583" lon="17.09044"><ele>18.333333333333332</ele><time>2026-03-28T16:35:00.399Z</time></trkpt><trkpt lat="39.3515483" lon="17.090665"><ele>19.0</ele><time>2026-03-28T16:35:01.399Z</time></trkpt><trkpt lat="39.35164" lon="17.0908867"><ele>19.0</ele><time>2026-03-28T16:35:02.399Z</time></trkpt><trkpt lat="39.351735" lon="17.0911117"><ele>19.0</ele><time>2026-03-28T16:35:03.399Z</time></trkpt><trkpt lat="39.3518367" lon="17.091335"><ele>19.0</ele><time>2026-03-28T16:35:04.399Z</time></trkpt><trkpt lat="39.35193" lon="17.0915717"><ele>19.333333333333332</ele><time>2026-03-28T16:35:05.399Z</time></trkpt><trkpt lat="39.3520217" lon="17.0918117"><ele>19.666666666666668</ele><time>2026-03-28T16:35:06.399Z</time></trkpt><trkpt lat="39.35212" lon="17.0920517"><ele>20.0</ele><time>2026-03-28T16:35:07.399Z</time></trkpt><trkpt lat="39.3522217" lon="17.0922983"><ele>18.5</ele><time>2026-03-28T16:35:08.399Z</time></trkpt><trkpt lat="39.3523333" lon="17.0925683"><ele>17.0</ele><time>2026-03-28T16:35:09.399Z</time></trkpt><trkpt lat="39.352445" lon="17.09284"><ele>17.0</ele><time>2026-03-28T16:35:10.399Z</time></trkpt><trkpt lat="39.352565" lon="17.0931233"><ele>17.0</ele><time>2026-03-28T16:35:11.399Z</time></trkpt><trkpt lat="39.3526867" lon="17.0934167"><ele>16.0</ele><time>2026-03-28T16:35:12.399Z</time></trkpt><trkpt lat="39.352805" lon="17.0937017"><ele>15.0</ele><time>2026-03-28T16:35:13.399Z</time></trkpt><trkpt lat="39.352915" lon="17.0939683"><ele>15.0</ele><time>2026-03-28T16:35:14.399Z</time></trkpt><trkpt lat="39.35301" lon="17.0942183"><ele>15.0</ele><time>2026-03-28T16:35:15.399Z</time></trkpt><trkpt lat="39.3531067" lon="17.09445"><ele>15.0</ele><time>2026-03-28T16:35:16.399Z</time></trkpt><trkpt lat="39.3532017" lon="17.09467"><ele>15.0</ele><time>2026-03-28T16:35:17.399Z</time></trkpt><trkpt lat="39.3533017" lon="17.094865"><ele>15.0</ele><time>2026-03-28T16:35:18.399Z</time></trkpt><trkpt lat="39.353425" lon="17.09503"><ele>15.0</ele><time>2026-03-28T16:35:19.4Z</time></trkpt><trkpt lat="39.35356" lon="17.0951783"><ele>15.0</ele><time>2026-03-28T16:35:20.399Z</time></trkpt><trkpt lat="39.353725" lon="17.0953133"><ele>15.0</ele><time>2026-03-28T16:35:21.399Z</time></trkpt><trkpt lat="39.3539017" lon="17.095445"><ele>15.0</ele><time>2026-03-28T16:35:22.399Z</time></trkpt><trkpt lat="39.3540967" lon="17.0955783"><ele>15.0</ele><time>2026-03-28T16:35:23.399Z</time></trkpt><trkpt lat="39.3542867" lon="17.0957017"><ele>15.0</ele><time>2026-03-28T16:35:24.399Z</time></trkpt><trkpt lat="39.35446" lon="17.0958267"><ele>15.0</ele><time>2026-03-28T16:35:25.399Z</time></trkpt><trkpt lat="39.3546183" lon="17.0959517"><ele>16.333333333333332</ele><time>2026-03-28T16:35:26.399Z</time></trkpt><trkpt lat="39.35477" lon="17.0960667"><ele>17.666666666666664</ele><time>2026-03-28T16:35:27.399Z</time></trkpt><trkpt lat="39.35493" lon="17.09618"><ele>19.0</ele><time>2026-03-28T16:35:28.399Z</time></trkpt><trkpt lat="39.35508" lon="17.096295"><ele>19.0</ele><time>2026-03-28T16:35:29.399Z</time></trkpt><trkpt lat="39.3552317" lon="17.0964017"><ele>19.0</ele><time>2026-03-28T16:35:30.399Z</time></trkpt><trkpt lat="39.3553767" lon="17.09651"><ele>19.0</ele><time>2026-03-28T16:35:31.399Z</time></trkpt><trkpt lat="39.35551" lon="17.0966167"><ele>20.333333333333332</ele><time>2026-03-28T16:35:32.399Z</time></trkpt><trkpt lat="39.355645" lon="17.0967167"><ele>21.666666666666668</ele><time>2026-03-28T16:35:33.399Z</time></trkpt><trkpt lat="39.3557633" lon="17.0968183"><ele>23.0</ele><time>2026-03-28T16:35:34.399Z</time></trkpt><trkpt lat="39.3558883" lon="17.0969383"><ele>23.0</ele><time>2026-03-28T16:35:35.399Z</time></trkpt><trkpt lat="39.356" lon="17.0970667"><ele>23.0</ele><time>2026-03-28T16:35:36.399Z</time></trkpt><trkpt lat="39.3561233" lon="17.0971983"><ele>23.0</ele><time>2026-03-28T16:35:37.399Z</time></trkpt><trkpt lat="39.3562467" lon="17.0973367"><ele>22.5</ele><time>2026-03-28T16:35:38.399Z</time></trkpt><trkpt lat="39.35636" lon="17.09748"><ele>22.0</ele><time>2026-03-28T16:35:39.399Z</time></trkpt><trkpt lat="39.35647" lon="17.097605"><ele>21.5</ele><time>2026-03-28T16:35:40.399Z</time></trkpt><trkpt lat="39.3565733" lon="17.0977333"><ele>21.0</ele><time>2026-03-28T16:35:41.399Z</time></trkpt><trkpt lat="39.356675" lon="17.0978633"><ele>21.5</ele><time>2026-03-28T16:35:42.399Z</time></trkpt><trkpt lat="39.356775" lon="17.097985"><ele>22.0</ele><time>2026-03-28T16:35:43.399Z</time></trkpt><trkpt lat="39.3568767" lon="17.0981067"><ele>22.5</ele><time>2026-03-28T16:35:44.4Z</time></trkpt><trkpt lat="39.35698" lon="17.0982317"><ele>23.0</ele><time>2026-03-28T16:35:45.399Z</time></trkpt><trkpt lat="39.357075" lon="17.0983567"><ele>23.0</ele><time>2026-03-28T16:35:46.399Z</time></trkpt><trkpt lat="39.3571617" lon="17.0984767"><ele>23.0</ele><time>2026-03-28T16:35:47.399Z</time></trkpt><trkpt lat="39.35722" lon="17.0986183"><ele>23.0</ele><time>2026-03-28T16:35:48.399Z</time></trkpt><trkpt lat="39.35726" lon="17.0987683"><ele>23.0</ele><time>2026-03-28T16:35:49.399Z</time></trkpt><trkpt lat="39.35728" lon="17.09892"><ele>24.25</ele><time>2026-03-28T16:35:50.399Z</time></trkpt><trkpt lat="39.357295" lon="17.09908"><ele>25.5</ele><time>2026-03-28T16:35:51.399Z</time></trkpt><trkpt lat="39.3573083" lon="17.09925"><ele>26.75</ele><time>2026-03-28T16:35:52.4Z</time></trkpt><trkpt lat="39.3573233" lon="17.09943"><ele>28.0</ele><time>2026-03-28T16:35:53.399Z</time></trkpt><trkpt lat="39.3573417" lon="17.0996183"><ele>28.0</ele><time>2026-03-28T16:35:54.399Z</time></trkpt><trkpt lat="39.35737" lon="17.0998083"><ele>28.0</ele><time>2026-03-28T16:35:55.399Z</time></trkpt><trkpt lat="39.3574" lon="17.099995"><ele>28.0</ele><time>2026-03-28T16:35:56.4Z</time></trkpt><trkpt lat="39.3574367" lon="17.1001717"><ele>28.0</ele><time>2026-03-28T16:35:57.399Z</time></trkpt><trkpt lat="39.3574733" lon="17.1003633"><ele>27.0</ele><time>2026-03-28T16:35:58.399Z</time></trkpt><trkpt lat="39.3575133" lon="17.1005483"><ele>26.0</ele><time>2026-03-28T16:35:59.399Z</time></trkpt><trkpt lat="39.35755" lon="17.1007367"><ele>25.0</ele><time>2026-03-28T16:36:00.399Z</time></trkpt><trkpt lat="39.3575883" lon="17.10092"><ele>24.0</ele><time>2026-03-28T16:36:01.399Z</time></trkpt><trkpt lat="39.3576233" lon="17.1011017"><ele>23.5</ele><time>2026-03-28T16:36:02.399Z</time></trkpt><trkpt lat="39.3576517" lon="17.1012783"><ele>23.0</ele><time>2026-03-28T16:36:03.399Z</time></trkpt><trkpt lat="39.3576817" lon="17.1014633"><ele>22.5</ele><time>2026-03-28T16:36:04.399Z</time></trkpt><trkpt lat="39.3577083" lon="17.10164"><ele>22.0</ele><time>2026-03-28T16:36:05.399Z</time></trkpt><trkpt lat="39.3577367" lon="17.10182"><ele>22.0</ele><time>2026-03-28T16:36:06.399Z</time></trkpt><trkpt lat="39.3577583" lon="17.1020033"><ele>22.0</ele><time>2026-03-28T16:36:07.399Z</time></trkpt><trkpt lat="39.3577833" lon="17.1021867"><ele>22.0</ele><time>2026-03-28T16:36:08.399Z</time></trkpt><trkpt lat="39.3578067" lon="17.1023767"><ele>22.0</ele><time>2026-03-28T16:36:09.399Z</time></trkpt><trkpt lat="39.3578333" lon="17.10257"><ele>21.666666666666664</ele><time>2026-03-28T16:36:10.399Z</time></trkpt><trkpt lat="39.3578633" lon="17.1027617"><ele>21.333333333333332</ele><time>2026-03-28T16:36:11.4Z</time></trkpt><trkpt lat="39.3578933" lon="17.102945"><ele>21.0</ele><time>2026-03-28T16:36:12.399Z</time></trkpt><trkpt lat="39.3579217" lon="17.1031417"><ele>21.666666666666668</ele><time>2026-03-28T16:36:13.399Z</time></trkpt><trkpt lat="39.357935" lon="17.103335"><ele>22.333333333333336</ele><time>2026-03-28T16:36:14.4Z</time></trkpt><trkpt lat="39.357955" lon="17.103535"><ele>23.0</ele><time>2026-03-28T16:36:15.4Z</time></trkpt><trkpt lat="39.357975" lon="17.1037317"><ele>23.0</ele><time>2026-03-28T16:36:16.4Z</time></trkpt><trkpt lat="39.3579867" lon="17.1039283"><ele>23.0</ele><time>2026-03-28T16:36:17.399Z</time></trkpt><trkpt lat="39.3580017" lon="17.1041183"><ele>23.0</ele><time>2026-03-28T16:36:18.399Z</time></trkpt><trkpt lat="39.3580167" lon="17.1043067"><ele>23.0</ele><time>2026-03-28T16:36:19.399Z</time></trkpt><trkpt lat="39.3580267" lon="17.1045"><ele>23.25</ele><time>2026-03-28T16:36:20.4Z</time></trkpt><trkpt lat="39.358035" lon="17.104695"><ele>23.5</ele><time>2026-03-28T16:36:21.399Z</time></trkpt><trkpt lat="39.35805" lon="17.1048817"><ele>23.75</ele><time>2026-03-28T16:36:22.399Z</time></trkpt><trkpt lat="39.3580567" lon="17.105065"><ele>24.0</ele><time>2026-03-28T16:36:23.399Z</time></trkpt><trkpt lat="39.3580717" lon="17.105245"><ele>24.0</ele><time>2026-03-28T16:36:24.399Z</time></trkpt><trkpt lat="39.358085" lon="17.10543"><ele>24.0</ele><time>2026-03-28T16:36:25.399Z</time></trkpt><trkpt lat="39.3581017" lon="17.1056133"><ele>24.0</ele><time>2026-03-28T16:36:26.399Z</time></trkpt><trkpt lat="39.3581233" lon="17.1057783"><ele>24.0</ele><time>2026-03-28T16:36:27.399Z</time></trkpt><trkpt lat="39.3581467" lon="17.1059417"><ele>23.75</ele><time>2026-03-28T16:36:28.399Z</time></trkpt><trkpt lat="39.3581683" lon="17.1061067"><ele>23.5</ele><time>2026-03-28T16:36:29.399Z</time></trkpt><trkpt lat="39.3581983" lon="17.1062667"><ele>23.25</ele><time>2026-03-28T16:36:30.399Z</time></trkpt><trkpt lat="39.358235" lon="17.1064183"><ele>23.0</ele><time>2026-03-28T16:36:31.399Z</time></trkpt><trkpt lat="39.358285" lon="17.1065667"><ele>23.0</ele><time>2026-03-28T16:36:32.4Z</time></trkpt><trkpt lat="39.3583467" lon="17.1067133"><ele>23.0</ele><time>2026-03-28T16:36:33.4Z</time></trkpt><trkpt lat="39.3584083" lon="17.10686"><ele>23.0</ele><time>2026-03-28T16:36:34.4Z</time></trkpt><trkpt lat="39.3584633" lon="17.10701"><ele>23.0</ele><time>2026-03-28T16:36:35.399Z</time></trkpt><trkpt lat="39.358515" lon="17.1071583"><ele>23.0</ele><time>2026-03-28T16:36:36.399Z</time></trkpt><trkpt lat="39.3585633" lon="17.1073033"><ele>23.0</ele><time>2026-03-28T16:36:37.399Z</time></trkpt><trkpt lat="39.3586083" lon="17.1074367"><ele>23.0</ele><time>2026-03-28T16:36:38.399Z</time></trkpt><trkpt lat="39.3586483" lon="17.1075717"><ele>23.0</ele><time>2026-03-28T16:36:39.399Z</time></trkpt><trkpt lat="39.3586867" lon="17.1077117"><ele>23.25</ele><time>2026-03-28T16:36:40.4Z</time></trkpt><trkpt lat="39.3587217" lon="17.1078683"><ele>23.5</ele><time>2026-03-28T16:36:41.4Z</time></trkpt><trkpt lat="39.3587683" lon="17.1080233"><ele>23.75</ele><time>2026-03-28T16:36:42.4Z</time></trkpt><trkpt lat="39.35882" lon="17.1081767"><ele>24.0</ele><time>2026-03-28T16:36:43.399Z</time></trkpt><trkpt lat="39.3588767" lon="17.1083283"><ele>24.0</ele><time>2026-03-28T16:36:44.399Z</time></trkpt><trkpt lat="39.3589317" lon="17.1084767"><ele>24.0</ele><time>2026-03-28T16:36:45.399Z</time></trkpt><trkpt lat="39.3589783" lon="17.108615"><ele>24.0</ele><time>2026-03-28T16:36:46.399Z</time></trkpt><trkpt lat="39.359025" lon="17.1087383"><ele>24.0</ele><time>2026-03-28T16:36:47.399Z</time></trkpt><trkpt lat="39.359065" lon="17.10885"><ele>24.0</ele><time>2026-03-28T16:36:48.399Z</time></trkpt><trkpt lat="39.3591017" lon="17.1089483"><ele>24.0</ele><time>2026-03-28T16:36:49.399Z</time></trkpt><trkpt lat="39.3591333" lon="17.1090417"><ele>24.0</ele><time>2026-03-28T16:36:50.399Z</time></trkpt><trkpt lat="39.35917" lon="17.1091833"><ele>24.0</ele><time>2026-03-28T16:36:52.399Z</time></trkpt><trkpt lat="39.3591983" lon="17.1093"><ele>24.0</ele><time>2026-03-28T16:36:54.399Z</time></trkpt><trkpt lat="39.3592067" lon="17.1094117"><ele>24.0</ele><time>2026-03-28T16:36:56.399Z</time></trkpt><trkpt lat="39.3592083" lon="17.1095083"><ele>23.4</ele><time>2026-03-28T16:36:58.399Z</time></trkpt><trkpt lat="39.35922" lon="17.10962"><ele>22.799999999999997</ele><time>2026-03-28T16:37:00.399Z</time></trkpt><trkpt lat="39.35925" lon="17.1097667"><ele>22.200000000000003</ele><time>2026-03-28T16:37:02.399Z</time></trkpt><trkpt lat="39.35929" lon="17.1099183"><ele>21.6</ele><time>2026-03-28T16:37:04.399Z</time></trkpt><trkpt lat="39.3593167" lon="17.110005"><ele>21.0</ele><time>2026-03-28T16:37:05.399Z</time></trkpt><trkpt lat="39.3593483" lon="17.1100933"><ele>21.0</ele><time>2026-03-28T16:37:06.399Z</time></trkpt><trkpt lat="39.3593717" lon="17.1101917"><ele>21.0</ele><time>2026-03-28T16:37:07.399Z</time></trkpt><trkpt lat="39.3593933" lon="17.110295"><ele>21.0</ele><time>2026-03-28T16:37:08.399Z</time></trkpt><trkpt lat="39.35941" lon="17.1103967"><ele>21.0</ele><time>2026-03-28T16:37:09.399Z</time></trkpt><trkpt lat="39.3594167" lon="17.1105"><ele>21.0</ele><time>2026-03-28T16:37:10.399Z</time></trkpt><trkpt lat="39.3594267" lon="17.1105967"><ele>21.0</ele><time>2026-03-28T16:37:11.4Z</time></trkpt><trkpt lat="39.3594267" lon="17.11068"><ele>21.0</ele><time>2026-03-28T16:37:12.399Z</time></trkpt><trkpt lat="39.3594217" lon="17.1108083"><ele>21.0</ele><time>2026-03-28T16:37:14.399Z</time></trkpt><trkpt lat="39.3594117" lon="17.1109017"><ele>21.0</ele><time>2026-03-28T16:37:30.399Z</time></trkpt><trkpt lat="39.3594517" lon="17.1109767"><ele>21.0</ele><time>2026-03-28T16:37:34.399Z</time></trkpt><trkpt lat="39.3595383" lon="17.1110233"><ele>21.0</ele><time>2026-03-28T16:37:37.4Z</time></trkpt><trkpt lat="39.3596317" lon="17.1111183"><ele>21.0</ele><time>2026-03-28T16:37:39.399Z</time></trkpt><trkpt lat="39.359675" lon="17.11118"><ele>21.0</ele><time>2026-03-28T16:37:40.399Z</time></trkpt><trkpt lat="39.359725" lon="17.1113167"><ele>21.0</ele><time>2026-03-28T16:37:42.399Z</time></trkpt><trkpt lat="39.3597033" lon="17.1114567"><ele>21.0</ele><time>2026-03-28T16:37:44.399Z</time></trkpt><trkpt lat="39.359675" lon="17.1115317"><ele>21.0</ele><time>2026-03-28T16:37:45.399Z</time></trkpt><trkpt lat="39.35963" lon="17.1116683"><ele>20.400000000000002</ele><time>2026-03-28T16:37:47.399Z</time></trkpt><trkpt lat="39.3596033" lon="17.111805"><ele>19.8</ele><time>2026-03-28T16:37:49.399Z</time></trkpt><trkpt lat="39.3596283" lon="17.1119133"><ele>19.200000000000003</ele><time>2026-03-28T16:37:51.399Z</time></trkpt><trkpt lat="39.3597017" lon="17.1120033"><ele>18.6</ele><time>2026-03-28T16:37:53.399Z</time></trkpt><trkpt lat="39.3597733" lon="17.1120383"><ele>18.0</ele><time>2026-03-28T16:37:54.399Z</time></trkpt><trkpt lat="39.3598633" lon="17.11207"><ele>18.0</ele><time>2026-03-28T16:37:55.399Z</time></trkpt><trkpt lat="39.3599783" lon="17.1121017"><ele>18.0</ele><time>2026-03-28T16:37:56.399Z</time></trkpt><trkpt lat="39.3601283" lon="17.1121317"><ele>18.0</ele><time>2026-03-28T16:37:57.399Z</time></trkpt><trkpt lat="39.3602867" lon="17.1121817"><ele>18.0</ele><time>2026-03-28T16:37:58.4Z</time></trkpt><trkpt lat="39.3604533" lon="17.1122417"><ele>19.666666666666668</ele><time>2026-03-28T16:37:59.399Z</time></trkpt><trkpt lat="39.36061" lon="17.1122983"><ele>21.333333333333336</ele><time>2026-03-28T16:38:00.4Z</time></trkpt><trkpt lat="39.3607617" lon="17.1123467"><ele>23.0</ele><time>2026-03-28T16:38:01.399Z</time></trkpt><trkpt lat="39.3609067" lon="17.11239"><ele>22.25</ele><time>2026-03-28T16:38:02.399Z</time></trkpt><trkpt lat="39.3610433" lon="17.112465"><ele>21.5</ele><time>2026-03-28T16:38:03.399Z</time></trkpt><trkpt lat="39.3611833" lon="17.1124983"><ele>20.75</ele><time>2026-03-28T16:38:04.399Z</time></trkpt><trkpt lat="39.3613117" lon="17.1125367"><ele>20.0</ele><time>2026-03-28T16:38:05.399Z</time></trkpt><trkpt lat="39.3614383" lon="17.11258"><ele>19.75</ele><time>2026-03-28T16:38:06.399Z</time></trkpt><trkpt lat="39.3615567" lon="17.11261"><ele>19.5</ele><time>2026-03-28T16:38:07.399Z</time></trkpt><trkpt lat="39.36167" lon="17.1126417"><ele>19.25</ele><time>2026-03-28T16:38:08.399Z</time></trkpt><trkpt lat="39.3617783" lon="17.1126733"><ele>19.0</ele><time>2026-03-28T16:38:09.399Z</time></trkpt><trkpt lat="39.3618883" lon="17.112705"><ele>19.0</ele><time>2026-03-28T16:38:10.399Z</time></trkpt><trkpt lat="39.3619917" lon="17.1127317"><ele>19.0</ele><time>2026-03-28T16:38:11.399Z</time></trkpt><trkpt lat="39.3620933" lon="17.1127617"><ele>19.0</ele><time>2026-03-28T16:38:12.399Z</time></trkpt><trkpt lat="39.3621883" lon="17.1128"><ele>19.0</ele><time>2026-03-28T16:38:13.399Z</time></trkpt><trkpt lat="39.36228" lon="17.1128317"><ele>19.0</ele><time>2026-03-28T16:38:14.399Z</time></trkpt><trkpt lat="39.3623717" lon="17.1128617"><ele>19.4</ele><time>2026-03-28T16:38:15.399Z</time></trkpt><trkpt lat="39.3624583" lon="17.1128867"><ele>19.799999999999997</ele><time>2026-03-28T16:38:16.399Z</time></trkpt><trkpt lat="39.3625517" lon="17.112915"><ele>20.200000000000003</ele><time>2026-03-28T16:38:17.399Z</time></trkpt><trkpt lat="39.3626533" lon="17.1129567"><ele>20.6</ele><time>2026-03-28T16:38:18.4Z</time></trkpt><trkpt lat="39.3627433" lon="17.1129883"><ele>21.0</ele><time>2026-03-28T16:38:19.399Z</time></trkpt><trkpt lat="39.3628183" lon="17.1130183"><ele>21.0</ele><time>2026-03-28T16:38:20.399Z</time></trkpt><trkpt lat="39.3628867" lon="17.11304"><ele>21.0</ele><time>2026-03-28T16:38:21.4Z</time></trkpt><trkpt lat="39.3629883" lon="17.11306"><ele>21.0</ele><time>2026-03-28T16:38:23.399Z</time></trkpt><trkpt lat="39.3630733" lon="17.1130767"><ele>21.0</ele><time>2026-03-28T16:38:25.4Z</time></trkpt><trkpt lat="39.36318" lon="17.1130883"><ele>21.0</ele><time>2026-03-28T16:38:27.399Z</time></trkpt><trkpt lat="39.363245" lon="17.1131217"><ele>21.0</ele><time>2026-03-28T16:38:28.399Z</time></trkpt><trkpt lat="39.36331" lon="17.1131533"><ele>20.666666666666668</ele><time>2026-03-28T16:38:29.4Z</time></trkpt><trkpt lat="39.36338" lon="17.1131783"><ele>20.333333333333332</ele><time>2026-03-28T16:38:30.399Z</time></trkpt><trkpt lat="39.3634567" lon="17.113205"><ele>20.0</ele><time>2026-03-28T16:38:31.399Z</time></trkpt><trkpt lat="39.363535" lon="17.1132317"><ele>19.666666666666664</ele><time>2026-03-28T16:38:32.399Z</time></trkpt><trkpt lat="39.3636067" lon="17.1132567"><ele>19.333333333333332</ele><time>2026-03-28T16:38:33.399Z</time></trkpt><trkpt lat="39.3636833" lon="17.1132867"><ele>19.0</ele><time>2026-03-28T16:38:34.399Z</time></trkpt><trkpt lat="39.36377" lon="17.1133167"><ele>19.0</ele><time>2026-03-28T16:38:35.4Z</time></trkpt><trkpt lat="39.3638583" lon="17.1133467"><ele>19.0</ele><time>2026-03-28T16:38:36.399Z</time></trkpt><trkpt lat="39.36395" lon="17.113375"><ele>19.0</ele><time>2026-03-28T16:38:37.399Z</time></trkpt><trkpt lat="39.3640383" lon="17.1134067"><ele>19.0</ele><time>2026-03-28T16:38:38.399Z</time></trkpt><trkpt lat="39.364135" lon="17.1134383"><ele>19.0</ele><time>2026-03-28T16:38:39.399Z</time></trkpt><trkpt lat="39.364235" lon="17.11347"><ele>19.799999999999997</ele><time>2026-03-28T16:38:40.4Z</time></trkpt><trkpt lat="39.3643383" lon="17.1134983"><ele>20.599999999999998</ele><time>2026-03-28T16:38:41.399Z</time></trkpt><trkpt lat="39.3644417" lon="17.1135317"><ele>21.4</ele><time>2026-03-28T16:38:42.399Z</time></trkpt><trkpt lat="39.36454" lon="17.113575"><ele>22.2</ele><time>2026-03-28T16:38:43.399Z</time></trkpt><trkpt lat="39.364635" lon="17.1136217"><ele>23.0</ele><time>2026-03-28T16:38:44.399Z</time></trkpt><trkpt lat="39.364725" lon="17.1136767"><ele>24.0</ele><time>2026-03-28T16:38:45.399Z</time></trkpt><trkpt lat="39.36483" lon="17.1137333"><ele>25.0</ele><time>2026-03-28T16:38:46.399Z</time></trkpt><trkpt lat="39.36494" lon="17.1137933"><ele>26.0</ele><time>2026-03-28T16:38:47.4Z</time></trkpt><trkpt lat="39.36505" lon="17.1138583"><ele>27.0</ele><time>2026-03-28T16:38:48.399Z</time></trkpt><trkpt lat="39.36516" lon="17.113915"><ele>27.0</ele><time>2026-03-28T16:38:49.399Z</time></trkpt><trkpt lat="39.36527" lon="17.1139567"><ele>27.0</ele><time>2026-03-28T16:38:50.399Z</time></trkpt><trkpt lat="39.3653783" lon="17.114005"><ele>27.0</ele><time>2026-03-28T16:38:51.399Z</time></trkpt><trkpt lat="39.365495" lon="17.1140617"><ele>27.0</ele><time>2026-03-28T16:38:52.399Z</time></trkpt><trkpt lat="39.365605" lon="17.11412"><ele>26.200000000000003</ele><time>2026-03-28T16:38:53.399Z</time></trkpt><trkpt lat="39.36571" lon="17.1141883"><ele>25.400000000000002</ele><time>2026-03-28T16:38:54.399Z</time></trkpt><trkpt lat="39.365815" lon="17.1142467"><ele>24.6</ele><time>2026-03-28T16:38:55.399Z</time></trkpt><trkpt lat="39.3659117" lon="17.1142983"><ele>23.799999999999997</ele><time>2026-03-28T16:38:56.399Z</time></trkpt><trkpt lat="39.3660183" lon="17.11434"><ele>23.0</ele><time>2026-03-28T16:38:57.399Z</time></trkpt><trkpt lat="39.3661183" lon="17.1144"><ele>23.0</ele><time>2026-03-28T16:38:58.399Z</time></trkpt><trkpt lat="39.3662183" lon="17.1144533"><ele>23.0</ele><time>2026-03-28T16:38:59.399Z</time></trkpt><trkpt lat="39.3663217" lon="17.1144983"><ele>23.0</ele><time>2026-03-28T16:39:00.399Z</time></trkpt><trkpt lat="39.3664267" lon="17.11454"><ele>23.0</ele><time>2026-03-28T16:39:01.399Z</time></trkpt><trkpt lat="39.36653" lon="17.1145783"><ele>23.0</ele><time>2026-03-28T16:39:02.399Z</time></trkpt><trkpt lat="39.3666183" lon="17.11462"><ele>22.833333333333336</ele><time>2026-03-28T16:39:03.399Z</time></trkpt><trkpt lat="39.3667083" lon="17.1146633"><ele>22.666666666666668</ele><time>2026-03-28T16:39:04.399Z</time></trkpt><trkpt lat="39.3667883" lon="17.114705"><ele>22.5</ele><time>2026-03-28T16:39:05.399Z</time></trkpt><trkpt lat="39.366855" lon="17.114735"><ele>22.333333333333332</ele><time>2026-03-28T16:39:06.399Z</time></trkpt><trkpt lat="39.36695" lon="17.1147733"><ele>22.166666666666664</ele><time>2026-03-28T16:39:08.399Z</time></trkpt><trkpt lat="39.3670117" lon="17.1148117"><ele>22.0</ele><time>2026-03-28T16:39:10.399Z</time></trkpt><trkpt lat="39.3670733" lon="17.114835"><ele>22.0</ele><time>2026-03-28T16:39:12.399Z</time></trkpt><trkpt lat="39.3671417" lon="17.11486"><ele>22.0</ele><time>2026-03-28T16:39:15.399Z</time></trkpt><trkpt lat="39.3672217" lon="17.1148933"><ele>22.0</ele><time>2026-03-28T16:39:32.399Z</time></trkpt><trkpt lat="39.367325" lon="17.1149383"><ele>22.0</ele><time>2026-03-28T16:39:53.4Z</time></trkpt><trkpt lat="39.3673967" lon="17.114985"><ele>22.0</ele><time>2026-03-28T16:39:56.399Z</time></trkpt><trkpt lat="39.3674533" lon="17.1150733"><ele>22.0</ele><time>2026-03-28T16:39:59.399Z</time></trkpt><trkpt lat="39.3674017" lon="17.115185"><ele>22.0</ele><time>2026-03-28T16:40:02.4Z</time></trkpt><trkpt lat="39.3673017" lon="17.1152833"><ele>22.0</ele><time>2026-03-28T16:40:04.399Z</time></trkpt><trkpt lat="39.3672217" lon="17.1153883"><ele>22.0</ele><time>2026-03-28T16:40:06.399Z</time></trkpt><trkpt lat="39.3671483" lon="17.1154817"><ele>22.0</ele><time>2026-03-28T16:40:08.399Z</time></trkpt><trkpt lat="39.367065" lon="17.1155833"><ele>21.6</ele><time>2026-03-28T16:40:10.399Z</time></trkpt><trkpt lat="39.3669783" lon="17.1157067"><ele>21.200000000000003</ele><time>2026-03-28T16:40:12.399Z</time></trkpt><trkpt lat="39.366945" lon="17.11578"><ele>20.8</ele><time>2026-03-28T16:40:13.399Z</time></trkpt><trkpt lat="39.3668717" lon="17.1158983"><ele>20.4</ele><time>2026-03-28T16:40:15.399Z</time></trkpt><trkpt lat="39.3667967" lon="17.1160167"><ele>20.0</ele><time>2026-03-28T16:40:17.399Z</time></trkpt><trkpt lat="39.3667317" lon="17.1161567"><ele>19.333333333333336</ele><time>2026-03-28T16:40:19.4Z</time></trkpt><trkpt lat="39.3666967" lon="17.1162467"><ele>18.666666666666668</ele><time>2026-03-28T16:40:20.4Z</time></trkpt><trkpt lat="39.3666667" lon="17.11635"><ele>18.0</ele><time>2026-03-28T16:40:21.399Z</time></trkpt><trkpt lat="39.366645" lon="17.116455"><ele>17.333333333333332</ele><time>2026-03-28T16:40:22.399Z</time></trkpt><trkpt lat="39.36664" lon="17.1165483"><ele>16.666666666666664</ele><time>2026-03-28T16:40:23.399Z</time></trkpt><trkpt lat="39.3666533" lon="17.1166383"><ele>16.0</ele><time>2026-03-28T16:40:24.399Z</time></trkpt><trkpt lat="39.36668" lon="17.1167183"><ele>15.600000000000001</ele><time>2026-03-28T16:40:25.399Z</time></trkpt><trkpt lat="39.3667217" lon="17.1168517"><ele>15.200000000000001</ele><time>2026-03-28T16:40:27.399Z</time></trkpt><trkpt lat="39.3667633" lon="17.1169783"><ele>14.799999999999999</ele><time>2026-03-28T16:40:29.399Z</time></trkpt><trkpt lat="39.3668133" lon="17.1171217"><ele>14.399999999999999</ele><time>2026-03-28T16:40:31.4Z</time></trkpt><trkpt lat="39.36684" lon="17.1171983"><ele>14.0</ele><time>2026-03-28T16:40:32.399Z</time></trkpt><trkpt lat="39.3668967" lon="17.11736"><ele>13.833333333333334</ele><time>2026-03-28T16:40:34.399Z</time></trkpt><trkpt lat="39.3669133" lon="17.1174667"><ele>13.666666666666668</ele><time>2026-03-28T16:40:35.399Z</time></trkpt><trkpt lat="39.366935" lon="17.1175783"><ele>13.5</ele><time>2026-03-28T16:40:36.399Z</time></trkpt><trkpt lat="39.3669483" lon="17.1176967"><ele>13.333333333333332</ele><time>2026-03-28T16:40:37.399Z</time></trkpt><trkpt lat="39.3669617" lon="17.11781"><ele>13.166666666666666</ele><time>2026-03-28T16:40:38.399Z</time></trkpt><trkpt lat="39.366975" lon="17.1179133"><ele>13.0</ele><time>2026-03-28T16:40:39.399Z</time></trkpt><trkpt lat="39.3669883" lon="17.118015"><ele>12.999999999999998</ele><time>2026-03-28T16:40:40.399Z</time></trkpt><trkpt lat="39.3670083" lon="17.1181117"><ele>13.0</ele><time>2026-03-28T16:40:41.399Z</time></trkpt><trkpt lat="39.3670283" lon="17.1182167"><ele>13.0</ele><time>2026-03-28T16:40:42.399Z</time></trkpt><trkpt lat="39.367045" lon="17.1183183"><ele>13.0</ele><time>2026-03-28T16:40:43.4Z</time></trkpt><trkpt lat="39.3670683" lon="17.1184167"><ele>12.999999999999998</ele><time>2026-03-28T16:40:44.399Z</time></trkpt><trkpt lat="39.3670883" lon="17.1185117"><ele>13.0</ele><time>2026-03-28T16:40:45.399Z</time></trkpt><trkpt lat="39.3671017" lon="17.1185983"><ele>12.999999999999998</ele><time>2026-03-28T16:40:46.399Z</time></trkpt><trkpt lat="39.3671267" lon="17.118755"><ele>13.0</ele><time>2026-03-28T16:40:48.399Z</time></trkpt><trkpt lat="39.3671367" lon="17.1188383"><ele>13.0</ele><time>2026-03-28T16:40:49.4Z</time></trkpt><trkpt lat="39.3671483" lon="17.1189267"><ele>13.0</ele><time>2026-03-28T16:40:50.399Z</time></trkpt><trkpt lat="39.3671617" lon="17.1190133"><ele>12.999999999999998</ele><time>2026-03-28T16:40:51.399Z</time></trkpt><trkpt lat="39.3671817" lon="17.1191667"><ele>13.0</ele><time>2026-03-28T16:40:53.399Z</time></trkpt><trkpt lat="39.3672033" lon="17.1192967"><ele>13.0</ele><time>2026-03-28T16:40:55.399Z</time></trkpt><trkpt lat="39.3672267" lon="17.1194433"><ele>13.0</ele><time>2026-03-28T16:40:57.399Z</time></trkpt><trkpt lat="39.36725" lon="17.1195983"><ele>13.0</ele><time>2026-03-28T16:40:59.399Z</time></trkpt><trkpt lat="39.3672567" lon="17.1197433"><ele>13.0</ele><time>2026-03-28T16:41:01.399Z</time></trkpt><trkpt lat="39.3672683" lon="17.1198883"><ele>12.4</ele><time>2026-03-28T16:41:03.399Z</time></trkpt><trkpt lat="39.3672983" lon="17.120045"><ele>11.8</ele><time>2026-03-28T16:41:05.399Z</time></trkpt><trkpt lat="39.3673167" lon="17.120145"><ele>11.2</ele><time>2026-03-28T16:41:06.4Z</time></trkpt><trkpt lat="39.367335" lon="17.1202533"><ele>10.6</ele><time>2026-03-28T16:41:07.399Z</time></trkpt><trkpt lat="39.367355" lon="17.1203667"><ele>10.0</ele><time>2026-03-28T16:41:08.399Z</time></trkpt><trkpt lat="39.3673683" lon="17.1204833"><ele>10.0</ele><time>2026-03-28T16:41:09.4Z</time></trkpt><trkpt lat="39.367385" lon="17.120595"><ele>10.0</ele><time>2026-03-28T16:41:10.399Z</time></trkpt><trkpt lat="39.3673967" lon="17.120695"><ele>10.0</ele><time>2026-03-28T16:41:11.399Z</time></trkpt><trkpt lat="39.36741" lon="17.1207833"><ele>10.0</ele><time>2026-03-28T16:41:12.399Z</time></trkpt><trkpt lat="39.3674283" lon="17.1209317"><ele>10.0</ele><time>2026-03-28T16:41:14.399Z</time></trkpt><trkpt lat="39.3674467" lon="17.1210117"><ele>10.0</ele><time>2026-03-28T16:41:15.399Z</time></trkpt><trkpt lat="39.36747" lon="17.1211583"><ele>9.8</ele><time>2026-03-28T16:41:17.399Z</time></trkpt><trkpt lat="39.3674917" lon="17.1212817"><ele>9.6</ele><time>2026-03-28T16:41:19.399Z</time></trkpt><trkpt lat="39.3675217" lon="17.1214083"><ele>9.4</ele><time>2026-03-28T16:41:21.4Z</time></trkpt><trkpt lat="39.3675483" lon="17.1215333"><ele>9.2</ele><time>2026-03-28T16:41:23.399Z</time></trkpt><trkpt lat="39.36757" lon="17.1216417"><ele>9.0</ele><time>2026-03-28T16:41:25.399Z</time></trkpt><trkpt lat="39.3675983" lon="17.12172"><ele>9.0</ele><time>2026-03-28T16:41:27.399Z</time></trkpt><trkpt lat="39.3676267" lon="17.1218183"><ele>9.0</ele><time>2026-03-28T16:41:30.399Z</time></trkpt><trkpt lat="39.3676367" lon="17.1219017"><ele>9.0</ele><time>2026-03-28T16:41:32.399Z</time></trkpt><trkpt lat="39.3676433" lon="17.1220267"><ele>9.0</ele><time>2026-03-28T16:41:35.399Z</time></trkpt><trkpt lat="39.3676417" lon="17.122115"><ele>9.0</ele><time>2026-03-28T16:41:37.399Z</time></trkpt><trkpt lat="39.3676367" lon="17.1222017"><ele>9.0</ele><time>2026-03-28T16:41:39.4Z</time></trkpt><trkpt lat="39.3676483" lon="17.1223017"><ele>9.000000000000002</ele><time>2026-03-28T16:41:41.399Z</time></trkpt><trkpt lat="39.3676533" lon="17.1223917"><ele>9.0</ele><time>2026-03-28T16:41:43.399Z</time></trkpt><trkpt lat="39.3676783" lon="17.1224717"><ele>9.0</ele><time>2026-03-28T16:41:45.399Z</time></trkpt><trkpt lat="39.3676967" lon="17.1225667"><ele>9.0</ele><time>2026-03-28T16:41:48.399Z</time></trkpt><trkpt lat="39.36771" lon="17.1226633"><ele>9.0</ele><time>2026-03-28T16:41:50.399Z</time></trkpt><trkpt lat="39.3677167" lon="17.12275"><ele>9.000000000000002</ele><time>2026-03-28T16:41:52.4Z</time></trkpt><trkpt lat="39.3677233" lon="17.122835"><ele>9.0</ele><time>2026-03-28T16:41:54.399Z</time></trkpt><trkpt lat="39.367735" lon="17.1229483"><ele>9.166666666666666</ele><time>2026-03-28T16:41:57.399Z</time></trkpt><trkpt lat="39.3677483" lon="17.1230617"><ele>9.333333333333334</ele><time>2026-03-28T16:42:00.4Z</time></trkpt><trkpt lat="39.3677583" lon="17.1231433"><ele>9.5</ele><time>2026-03-28T16:42:02.4Z</time></trkpt><trkpt lat="39.36777" lon="17.1232417"><ele>9.666666666666668</ele><time>2026-03-28T16:42:04.4Z</time></trkpt><trkpt lat="39.3677783" lon="17.1233517"><ele>9.833333333333334</ele><time>2026-03-28T16:42:06.399Z</time></trkpt><trkpt lat="39.3677817" lon="17.1234433"><ele>10.0</ele><time>2026-03-28T16:42:08.399Z</time></trkpt><trkpt lat="39.36781" lon="17.1235367"><ele>10.0</ele><time>2026-03-28T16:42:12.399Z</time></trkpt><trkpt lat="39.3678333" lon="17.1236267"><ele>10.0</ele><time>2026-03-28T16:42:15.399Z</time></trkpt><trkpt lat="39.3678483" lon="17.1237183"><ele>10.0</ele><time>2026-03-28T16:42:17.399Z</time></trkpt><trkpt lat="39.3678617" lon="17.1238567"><ele>10.0</ele><time>2026-03-28T16:42:19.399Z</time></trkpt><trkpt lat="39.3678817" lon="17.123945"><ele>10.0</ele><time>2026-03-28T16:42:20.4Z</time></trkpt><trkpt lat="39.3679017" lon="17.124045"><ele>10.0</ele><time>2026-03-28T16:42:21.399Z</time></trkpt><trkpt lat="39.3679167" lon="17.124155"><ele>9.666666666666668</ele><time>2026-03-28T16:42:22.399Z</time></trkpt><trkpt lat="39.367925" lon="17.1242533"><ele>9.333333333333334</ele><time>2026-03-28T16:42:23.399Z</time></trkpt><trkpt lat="39.3679217" lon="17.1243583"><ele>9.0</ele><time>2026-03-28T16:42:25.4Z</time></trkpt><trkpt lat="39.3679367" lon="17.12445"><ele>8.666666666666666</ele><time>2026-03-28T16:42:28.399Z</time></trkpt><trkpt lat="39.367965" lon="17.1245517"><ele>8.333333333333332</ele><time>2026-03-28T16:42:31.399Z</time></trkpt><trkpt lat="39.3679967" lon="17.1246367"><ele>8.0</ele><time>2026-03-28T16:42:34.399Z</time></trkpt><trkpt lat="39.368005" lon="17.1247267"><ele>8.0</ele><time>2026-03-28T16:42:38.4Z</time></trkpt><trkpt lat="39.3680183" lon="17.1248683"><ele>8.0</ele><time>2026-03-28T16:42:57.399Z</time></trkpt><trkpt lat="39.3680333" lon="17.1250183"><ele>8.0</ele><time>2026-03-28T16:42:59.399Z</time></trkpt><trkpt lat="39.3680717" lon="17.1251967"><ele>8.0</ele><time>2026-03-28T16:43:01.399Z</time></trkpt><trkpt lat="39.3680883" lon="17.1253117"><ele>8.4</ele><time>2026-03-28T16:43:02.399Z</time></trkpt><trkpt lat="39.3681" lon="17.12544"><ele>8.8</ele><time>2026-03-28T16:43:03.4Z</time></trkpt><trkpt lat="39.36812" lon="17.1255633"><ele>9.2</ele><time>2026-03-28T16:43:04.4Z</time></trkpt><trkpt lat="39.3681417" lon="17.1257017"><ele>9.6</ele><time>2026-03-28T16:43:05.4Z</time></trkpt><trkpt lat="39.368165" lon="17.1258383"><ele>10.0</ele><time>2026-03-28T16:43:06.399Z</time></trkpt><trkpt lat="39.36819" lon="17.1259883"><ele>10.0</ele><time>2026-03-28T16:43:07.399Z</time></trkpt><trkpt lat="39.3682117" lon="17.1261133"><ele>10.0</ele><time>2026-03-28T16:43:08.399Z</time></trkpt><trkpt lat="39.36822" lon="17.1262067"><ele>10.0</ele><time>2026-03-28T16:43:09.399Z</time></trkpt><trkpt lat="39.368225" lon="17.1263017"><ele>10.0</ele><time>2026-03-28T16:43:11.399Z</time></trkpt><trkpt lat="39.3682267" lon="17.1263917"><ele>10.0</ele><time>2026-03-28T16:43:15.399Z</time></trkpt><trkpt lat="39.368245" lon="17.1264833"><ele>10.0</ele><time>2026-03-28T16:43:18.399Z</time></trkpt><trkpt lat="39.3682667" lon="17.1265983"><ele>9.857142857142858</ele><time>2026-03-28T16:43:21.399Z</time></trkpt><trkpt lat="39.3682783" lon="17.1266833"><ele>9.714285714285715</ele><time>2026-03-28T16:43:23.4Z</time></trkpt><trkpt lat="39.3682883" lon="17.12677"><ele>9.571428571428573</ele><time>2026-03-28T16:43:25.399Z</time></trkpt><trkpt lat="39.3682983" lon="17.1268533"><ele>9.428571428571429</ele><time>2026-03-28T16:43:27.4Z</time></trkpt><trkpt lat="39.368305" lon="17.126955"><ele>9.285714285714286</ele><time>2026-03-28T16:43:30.4Z</time></trkpt><trkpt lat="39.3683117" lon="17.1270417"><ele>9.142857142857144</ele><time>2026-03-28T16:43:32.399Z</time></trkpt><trkpt lat="39.368325" lon="17.1271483"><ele>9.0</ele><time>2026-03-28T16:43:34.4Z</time></trkpt><trkpt lat="39.36834" lon="17.1272633"><ele>9.0</ele><time>2026-03-28T16:43:36.399Z</time></trkpt><trkpt lat="39.3683533" lon="17.1273833"><ele>9.0</ele><time>2026-03-28T16:43:38.4Z</time></trkpt><trkpt lat="39.3683717" lon="17.1274983"><ele>9.0</ele><time>2026-03-28T16:43:40.399Z</time></trkpt><trkpt lat="39.3683867" lon="17.1276017"><ele>9.0</ele><time>2026-03-28T16:43:42.399Z</time></trkpt><trkpt lat="39.368395" lon="17.12769"><ele>9.0</ele><time>2026-03-28T16:43:44.4Z</time></trkpt><trkpt lat="39.36841" lon="17.1277817"><ele>9.0</ele><time>2026-03-28T16:43:46.399Z</time></trkpt><trkpt lat="39.3684233" lon="17.1278783"><ele>9.0</ele><time>2026-03-28T16:43:48.399Z</time></trkpt><trkpt lat="39.3684283" lon="17.1279817"><ele>9.0</ele><time>2026-03-28T16:43:50.4Z</time></trkpt><trkpt lat="39.3684517" lon="17.1281083"><ele>9.0</ele><time>2026-03-28T16:43:52.4Z</time></trkpt><trkpt lat="39.36847" lon="17.12823"><ele>9.0</ele><time>2026-03-28T16:43:54.4Z</time></trkpt><trkpt lat="39.3684917" lon="17.1283583"><ele>9.0</ele><time>2026-03-28T16:43:56.4Z</time></trkpt><trkpt lat="39.3685017" lon="17.12848"><ele>8.833333333333334</ele><time>2026-03-28T16:43:58.4Z</time></trkpt><trkpt lat="39.368515" lon="17.12861"><ele>8.666666666666666</ele><time>2026-03-28T16:44:00.399Z</time></trkpt><trkpt lat="39.3685267" lon="17.1287033"><ele>8.5</ele><time>2026-03-28T16:44:02.4Z</time></trkpt><trkpt lat="39.3685383" lon="17.1288267"><ele>8.333333333333332</ele><time>2026-03-28T16:44:05.399Z</time></trkpt><trkpt lat="39.36856" lon="17.1289333"><ele>8.166666666666666</ele><time>2026-03-28T16:44:07.399Z</time></trkpt><trkpt lat="39.3685783" lon="17.1290417"><ele>8.0</ele><time>2026-03-28T16:44:09.399Z</time></trkpt><trkpt lat="39.3685967" lon="17.1291517"><ele>8.0</ele><time>2026-03-28T16:44:11.399Z</time></trkpt><trkpt lat="39.3686117" lon="17.129235"><ele>8.0</ele><time>2026-03-28T16:44:13.4Z</time></trkpt><trkpt lat="39.36864" lon="17.1293767"><ele>8.0</ele><time>2026-03-28T16:44:16.399Z</time></trkpt><trkpt lat="39.3686683" lon="17.1294783"><ele>8.0</ele><time>2026-03-28T16:44:17.399Z</time></trkpt><trkpt lat="39.3686983" lon="17.129615"><ele>8.0</ele><time>2026-03-28T16:44:18.4Z</time></trkpt><trkpt lat="39.3687333" lon="17.129795"><ele>7.5</ele><time>2026-03-28T16:44:19.399Z</time></trkpt><trkpt lat="39.3687567" lon="17.1299783"><ele>7.0</ele><time>2026-03-28T16:44:20.399Z</time></trkpt><trkpt lat="39.368775" lon="17.1301367"><ele>6.5</ele><time>2026-03-28T16:44:21.399Z</time></trkpt><trkpt lat="39.3687767" lon="17.1302633"><ele>6.0</ele><time>2026-03-28T16:44:22.4Z</time></trkpt><trkpt lat="39.36877" lon="17.1303783"><ele>6.0</ele><time>2026-03-28T16:44:23.399Z</time></trkpt><trkpt lat="39.3687733" lon="17.1304617"><ele>6.0</ele><time>2026-03-28T16:44:24.4Z</time></trkpt><trkpt lat="39.368795" lon="17.1305767"><ele>6.0</ele><time>2026-03-28T16:44:26.4Z</time></trkpt><trkpt lat="39.36883" lon="17.130655"><ele>6.0</ele><time>2026-03-28T16:44:29.4Z</time></trkpt><trkpt lat="39.36886" lon="17.1308067"><ele>6.0</ele><time>2026-03-28T16:44:41.399Z</time></trkpt><trkpt lat="39.3688867" lon="17.1309317"><ele>6.0</ele><time>2026-03-28T16:44:43.399Z</time></trkpt><trkpt lat="39.36891" lon="17.1310467"><ele>6.0</ele><time>2026-03-28T16:44:44.399Z</time></trkpt><trkpt lat="39.3689317" lon="17.1311867"><ele>6.0</ele><time>2026-03-28T16:44:45.399Z</time></trkpt><trkpt lat="39.3689467" lon="17.1313467"><ele>6.0</ele><time>2026-03-28T16:44:46.4Z</time></trkpt><trkpt lat="39.3689567" lon="17.1314817"><ele>6.0</ele><time>2026-03-28T16:44:47.4Z</time></trkpt><trkpt lat="39.36897" lon="17.131595"><ele>6.0</ele><time>2026-03-28T16:44:48.4Z</time></trkpt><trkpt lat="39.368975" lon="17.1316933"><ele>6.0</ele><time>2026-03-28T16:44:49.4Z</time></trkpt><trkpt lat="39.3689817" lon="17.13182"><ele>6.0</ele><time>2026-03-28T16:44:51.4Z</time></trkpt><trkpt lat="39.3689983" lon="17.131935"><ele>6.0</ele><time>2026-03-28T16:44:54.4Z</time></trkpt><trkpt lat="39.369" lon="17.1320433"><ele>6.0</ele><time>2026-03-28T16:44:56.4Z</time></trkpt><trkpt lat="39.3690033" lon="17.132145"><ele>6.0</ele><time>2026-03-28T16:44:58.4Z</time></trkpt><trkpt lat="39.36901" lon="17.132255"><ele>6.0</ele><time>2026-03-28T16:45:01.4Z</time></trkpt><trkpt lat="39.368985" lon="17.132365"><ele>6.333333333333333</ele><time>2026-03-28T16:45:07.401Z</time></trkpt><trkpt lat="39.3689817" lon="17.13251"><ele>6.666666666666666</ele><time>2026-03-28T16:45:23.4Z</time></trkpt><trkpt lat="39.36904" lon="17.1326067"><ele>7.0</ele><time>2026-03-28T16:45:26.401Z</time></trkpt><trkpt lat="39.369095" lon="17.1326517"><ele>7.333333333333333</ele><time>2026-03-28T16:45:28.4Z</time></trkpt><trkpt lat="39.3691617" lon="17.1326767"><ele>7.666666666666666</ele><time>2026-03-28T16:45:30.4Z</time></trkpt><trkpt lat="39.3692333" lon="17.1327017"><ele>8.0</ele><time>2026-03-28T16:45:32.4Z</time></trkpt><trkpt lat="39.369305" lon="17.13275"><ele>7.999999999999999</ele><time>2026-03-28T16:45:34.4Z</time></trkpt><trkpt lat="39.3693367" lon="17.13286"><ele>8.0</ele><time>2026-03-28T16:45:37.401Z</time></trkpt><trkpt lat="39.369335" lon="17.1329417"><ele>8.0</ele><time>2026-03-28T16:45:39.4Z</time></trkpt><trkpt lat="39.3693317" lon="17.13305"><ele>8.0</ele><time>2026-03-28T16:45:43.4Z</time></trkpt><trkpt lat="39.369315" lon="17.13315"><ele>7.999999999999999</ele><time>2026-03-28T16:45:46.4Z</time></trkpt><trkpt lat="39.3692433" lon="17.1332033"><ele>8.0</ele><time>2026-03-28T16:45:48.4Z</time></trkpt><trkpt lat="39.3691167" lon="17.1332017"><ele>8.0</ele><time>2026-03-28T16:45:50.4Z</time></trkpt><trkpt lat="39.3690333" lon="17.1331817"><ele>8.0</ele><time>2026-03-28T16:45:51.4Z</time></trkpt><trkpt lat="39.36893" lon="17.1331633"><ele>8.0</ele><time>2026-03-28T16:45:52.4Z</time></trkpt><trkpt lat="39.368805" lon="17.13314"><ele>8.0</ele><time>2026-03-28T16:45:53.4Z</time></trkpt><trkpt lat="39.3686867" lon="17.13311"><ele>8.0</ele><time>2026-03-28T16:45:54.4Z</time></trkpt><trkpt lat="39.3685967" lon="17.1330933"><ele>8.0</ele><time>2026-03-28T16:45:55.401Z</time></trkpt><trkpt lat="39.3685" lon="17.1330783"><ele>8.0</ele><time>2026-03-28T16:45:57.4Z</time></trkpt><trkpt lat="39.3684" lon="17.1330667"><ele>8.0</ele><time>2026-03-28T16:45:59.4Z</time></trkpt><trkpt lat="39.368335" lon="17.1330517"><ele>8.0</ele><time>2026-03-28T16:46:00.4Z</time></trkpt><trkpt lat="39.3682367" lon="17.1330467"><ele>8.0</ele><time>2026-03-28T16:46:02.4Z</time></trkpt><trkpt lat="39.3681283" lon="17.1330333"><ele>7.999999999999999</ele><time>2026-03-28T16:46:04.401Z</time></trkpt><trkpt lat="39.3680483" lon="17.13304"><ele>8.0</ele><time>2026-03-28T16:46:06.4Z</time></trkpt><trkpt lat="39.367975" lon="17.1330267"><ele>8.0</ele><time>2026-03-28T16:46:08.4Z</time></trkpt><trkpt lat="39.3678817" lon="17.1330233"><ele>8.0</ele><time>2026-03-28T16:46:10.4Z</time></trkpt><trkpt lat="39.36777" lon="17.13302"><ele>7.999999999999999</ele><time>2026-03-28T16:46:12.4Z</time></trkpt><trkpt lat="39.3676983" lon="17.1330267"><ele>8.0</ele><time>2026-03-28T16:46:13.401Z</time></trkpt><trkpt lat="39.3676133" lon="17.1330267"><ele>7.999999999999999</ele><time>2026-03-28T16:46:14.4Z</time></trkpt><trkpt lat="39.3675183" lon="17.1330233"><ele>8.0</ele><time>2026-03-28T16:46:15.4Z</time></trkpt><trkpt lat="39.367425" lon="17.1330283"><ele>8.0</ele><time>2026-03-28T16:46:16.4Z</time></trkpt><trkpt lat="39.36734" lon="17.1330317"><ele>8.0</ele><time>2026-03-28T16:46:17.4Z</time></trkpt><trkpt lat="39.3672683" lon="17.1330367"><ele>7.999999999999999</ele><time>2026-03-28T16:46:18.401Z</time></trkpt><trkpt lat="39.3671917" lon="17.1330217"><ele>8.0</ele><time>2026-03-28T16:46:19.4Z</time></trkpt><trkpt lat="39.3671067" lon="17.1330217"><ele>7.999999999999999</ele><time>2026-03-28T16:46:20.4Z</time></trkpt><trkpt lat="39.367025" lon="17.1330183"><ele>8.0</ele><time>2026-03-28T16:46:21.4Z</time></trkpt><trkpt lat="39.3669567" lon="17.1330217"><ele>8.0</ele><time>2026-03-28T16:46:22.4Z</time></trkpt><trkpt lat="39.36686" lon="17.13301"><ele>8.0</ele><time>2026-03-28T16:46:24.4Z</time></trkpt><trkpt lat="39.3667933" lon="17.1329983"><ele>7.999999999999999</ele><time>2026-03-28T16:46:26.4Z</time></trkpt><trkpt lat="39.3667133" lon="17.132995"><ele>8.0</ele><time>2026-03-28T16:46:29.401Z</time></trkpt><trkpt lat="39.36665" lon="17.1329933"><ele>8.0</ele><time>2026-03-28T16:46:31.4Z</time></trkpt><trkpt lat="39.3665583" lon="17.1329967"><ele>8.0</ele><time>2026-03-28T16:46:33.401Z</time></trkpt><trkpt lat="39.36644" lon="17.1330067"><ele>8.0</ele><time>2026-03-28T16:46:35.4Z</time></trkpt><trkpt lat="39.36632" lon="17.1330067"><ele>8.0</ele><time>2026-03-28T16:46:37.4Z</time></trkpt><trkpt lat="39.366255" lon="17.133005"><ele>8.0</ele><time>2026-03-28T16:46:38.4Z</time></trkpt><trkpt lat="39.3661917" lon="17.1330033"><ele>7.499999999999999</ele><time>2026-03-28T16:46:39.4Z</time></trkpt><trkpt lat="39.3660717" lon="17.133005"><ele>7.0</ele><time>2026-03-28T16:46:41.4Z</time></trkpt><trkpt lat="39.36596" lon="17.132995"><ele>6.5</ele><time>2026-03-28T16:46:43.4Z</time></trkpt><trkpt lat="39.3658967" lon="17.1329867"><ele>6.0</ele><time>2026-03-28T16:46:44.4Z</time></trkpt><trkpt lat="39.36583" lon="17.132975"><ele>5.5</ele><time>2026-03-28T16:46:45.4Z</time></trkpt><trkpt lat="39.3657517" lon="17.13298"><ele>5.0</ele><time>2026-03-28T16:46:46.4Z</time></trkpt><trkpt lat="39.3656733" lon="17.132975"><ele>5.0</ele><time>2026-03-28T16:46:47.401Z</time></trkpt><trkpt lat="39.3655967" lon="17.1329617"><ele>5.0</ele><time>2026-03-28T16:46:48.4Z</time></trkpt><trkpt lat="39.36551" lon="17.1329583"><ele>5.0</ele><time>2026-03-28T16:46:49.4Z</time></trkpt><trkpt lat="39.3654183" lon="17.1329533"><ele>5.0</ele><time>2026-03-28T16:46:50.401Z</time></trkpt><trkpt lat="39.3653283" lon="17.1329433"><ele>5.0</ele><time>2026-03-28T16:46:51.4Z</time></trkpt><trkpt lat="39.3652383" lon="17.13293"><ele>5.0</ele><time>2026-03-28T16:46:52.4Z</time></trkpt><trkpt lat="39.3651417" lon="17.1329233"><ele>5.0</ele><time>2026-03-28T16:46:53.4Z</time></trkpt><trkpt lat="39.3650517" lon="17.132905"><ele>5.0</ele><time>2026-03-28T16:46:54.4Z</time></trkpt><trkpt lat="39.3649617" lon="17.132895"><ele>5.0</ele><time>2026-03-28T16:46:55.4Z</time></trkpt><trkpt lat="39.364875" lon="17.1328983"><ele>5.0</ele><time>2026-03-28T16:46:56.4Z</time></trkpt><trkpt lat="39.364795" lon="17.1328883"><ele>5.0</ele><time>2026-03-28T16:46:57.4Z</time></trkpt><trkpt lat="39.364715" lon="17.1328767"><ele>5.0</ele><time>2026-03-28T16:46:58.4Z</time></trkpt><trkpt lat="39.3646383" lon="17.132865"><ele>4.833333333333334</ele><time>2026-03-28T16:46:59.401Z</time></trkpt><trkpt lat="39.36456" lon="17.1328533"><ele>4.666666666666667</ele><time>2026-03-28T16:47:00.4Z</time></trkpt><trkpt lat="39.3644783" lon="17.13284"><ele>4.5</ele><time>2026-03-28T16:47:01.4Z</time></trkpt><trkpt lat="39.3644017" lon="17.13283"><ele>4.333333333333333</ele><time>2026-03-28T16:47:02.4Z</time></trkpt><trkpt lat="39.3643283" lon="17.1328183"><ele>4.166666666666666</ele><time>2026-03-28T16:47:03.4Z</time></trkpt><trkpt lat="39.3642517" lon="17.13281"><ele>4.0</ele><time>2026-03-28T16:47:04.4Z</time></trkpt><trkpt lat="39.3641717" lon="17.1327967"><ele>4.0</ele><time>2026-03-28T16:47:05.401Z</time></trkpt><trkpt lat="39.3641033" lon="17.13279"><ele>4.0</ele><time>2026-03-28T16:47:06.4Z</time></trkpt><trkpt lat="39.364" lon="17.1327667"><ele>4.0</ele><time>2026-03-28T16:47:08.4Z</time></trkpt><trkpt lat="39.3639133" lon="17.1327267"><ele>4.0</ele><time>2026-03-28T16:47:10.401Z</time></trkpt><trkpt lat="39.3638567" lon="17.1326283"><ele>4.0</ele><time>2026-03-28T16:47:12.401Z</time></trkpt><trkpt lat="39.363835" lon="17.1325017"><ele>4.0</ele><time>2026-03-28T16:47:14.4Z</time></trkpt><trkpt lat="39.3638167" lon="17.13241"><ele>3.9999999999999996</ele><time>2026-03-28T16:47:16.4Z</time></trkpt><trkpt lat="39.363785" lon="17.1323267"><ele>4.0</ele><time>2026-03-28T16:47:18.401Z</time></trkpt><trkpt lat="39.363755" lon="17.1322367"><ele>4.0</ele><time>2026-03-28T16:47:20.4Z</time></trkpt><trkpt lat="39.3637267" lon="17.1321467"><ele>3.9999999999999996</ele><time>2026-03-28T16:47:22.4Z</time></trkpt><trkpt lat="39.3637067" lon="17.1320683"><ele>4.0</ele><time>2026-03-28T16:47:24.4Z</time></trkpt><trkpt lat="39.3636833" lon="17.1319633"><ele>4.0</ele><time>2026-03-28T16:47:26.4Z</time></trkpt><trkpt lat="39.3636067" lon="17.131885"><ele>4.4</ele><time>2026-03-28T16:47:28.401Z</time></trkpt><trkpt lat="39.363545" lon="17.1318683"><ele>4.800000000000001</ele><time>2026-03-28T16:47:29.4Z</time></trkpt><trkpt lat="39.3634717" lon="17.1318667"><ele>5.199999999999999</ele><time>2026-03-28T16:47:30.4Z</time></trkpt><trkpt lat="39.3633917" lon="17.131855"><ele>5.6</ele><time>2026-03-28T16:47:31.4Z</time></trkpt><trkpt lat="39.3632717" lon="17.1318733"><ele>6.0</ele><time>2026-03-28T16:47:32.4Z</time></trkpt><trkpt lat="39.363155" lon="17.1318833"><ele>6.0</ele><time>2026-03-28T16:47:33.4Z</time></trkpt><trkpt lat="39.36304" lon="17.1318933"><ele>6.0</ele><time>2026-03-28T16:47:34.4Z</time></trkpt><trkpt lat="39.3629383" lon="17.1318983"><ele>6.0</ele><time>2026-03-28T16:47:35.4Z</time></trkpt><trkpt lat="39.362845" lon="17.1318983"><ele>6.0</ele><time>2026-03-28T16:47:36.4Z</time></trkpt><trkpt lat="39.3627467" lon="17.1318917"><ele>6.0</ele><time>2026-03-28T16:47:37.401Z</time></trkpt><trkpt lat="39.3626567" lon="17.1318817"><ele>5.6</ele><time>2026-03-28T16:47:38.4Z</time></trkpt><trkpt lat="39.36257" lon="17.1318717"><ele>5.199999999999999</ele><time>2026-03-28T16:47:39.4Z</time></trkpt><trkpt lat="39.3624967" lon="17.13185"><ele>4.800000000000001</ele><time>2026-03-28T16:47:40.4Z</time></trkpt><trkpt lat="39.3624283" lon="17.13184"><ele>4.4</ele><time>2026-03-28T16:47:41.401Z</time></trkpt><trkpt lat="39.3623117" lon="17.1318167"><ele>4.0</ele><time>2026-03-28T16:47:43.4Z</time></trkpt><trkpt lat="39.3622067" lon="17.1317917"><ele>4.4</ele><time>2026-03-28T16:47:45.401Z</time></trkpt><trkpt lat="39.3620867" lon="17.131775"><ele>4.800000000000001</ele><time>2026-03-28T16:47:47.4Z</time></trkpt><trkpt lat="39.3620183" lon="17.1317667"><ele>5.199999999999999</ele><time>2026-03-28T16:47:48.4Z</time></trkpt><trkpt lat="39.3619533" lon="17.1317533"><ele>5.6</ele><time>2026-03-28T16:47:49.4Z</time></trkpt><trkpt lat="39.361825" lon="17.13172"><ele>6.0</ele><time>2026-03-28T16:47:51.4Z</time></trkpt><trkpt lat="39.3617583" lon="17.1317067"><ele>6.0</ele><time>2026-03-28T16:47:52.4Z</time></trkpt><trkpt lat="39.36169" lon="17.1316933"><ele>6.0</ele><time>2026-03-28T16:47:53.4Z</time></trkpt><trkpt lat="39.3616133" lon="17.13168"><ele>6.0</ele><time>2026-03-28T16:47:54.401Z</time></trkpt><trkpt lat="39.361545" lon="17.1316733"><ele>6.0</ele><time>2026-03-28T16:47:55.4Z</time></trkpt><trkpt lat="39.3614367" lon="17.1316517"><ele>6.0</ele><time>2026-03-28T16:47:57.4Z</time></trkpt><trkpt lat="39.3613233" lon="17.1316267"><ele>6.0</ele><time>2026-03-28T16:47:59.401Z</time></trkpt><trkpt lat="39.3612567" lon="17.1316233"><ele>5.666666666666667</ele><time>2026-03-28T16:48:00.4Z</time></trkpt><trkpt lat="39.36119" lon="17.1316083"><ele>5.333333333333333</ele><time>2026-03-28T16:48:01.4Z</time></trkpt><trkpt lat="39.3611217" lon="17.131595"><ele>5.0</ele><time>2026-03-28T16:48:02.401Z</time></trkpt><trkpt lat="39.3610517" lon="17.1315883"><ele>4.666666666666666</ele><time>2026-03-28T16:48:03.4Z</time></trkpt><trkpt lat="39.3609367" lon="17.13157"><ele>4.333333333333333</ele><time>2026-03-28T16:48:05.401Z</time></trkpt><trkpt lat="39.3608667" lon="17.1315683"><ele>4.0</ele><time>2026-03-28T16:48:07.4Z</time></trkpt><trkpt lat="39.3607983" lon="17.13156"><ele>3.9999999999999996</ele><time>2026-03-28T16:48:09.4Z</time></trkpt><trkpt lat="39.3607233" lon="17.1315483"><ele>4.0</ele><time>2026-03-28T16:48:11.4Z</time></trkpt><trkpt lat="39.360655" lon="17.13155"><ele>4.0</ele><time>2026-03-28T16:48:13.4Z</time></trkpt><trkpt lat="39.3606083" lon="17.13161"><ele>4.0</ele><time>2026-03-28T16:48:15.401Z</time></trkpt><trkpt lat="39.3606267" lon="17.1317183"><ele>3.9999999999999996</ele><time>2026-03-28T16:48:17.4Z</time></trkpt><trkpt lat="39.3607517" lon="17.1318"><ele>4.0</ele><time>2026-03-28T16:48:19.4Z</time></trkpt><trkpt lat="39.3608667" lon="17.1318283"><ele>4.0</ele><time>2026-03-28T16:48:20.4Z</time></trkpt><trkpt lat="39.3609917" lon="17.1318467"><ele>4.0</ele><time>2026-03-28T16:48:21.4Z</time></trkpt><trkpt lat="39.3611" lon="17.1318567"><ele>4.0</ele><time>2026-03-28T16:48:22.4Z</time></trkpt><trkpt lat="39.3612017" lon="17.1318783"><ele>4.0</ele><time>2026-03-28T16:48:23.401Z</time></trkpt><trkpt lat="39.361305" lon="17.131895"><ele>4.0</ele><time>2026-03-28T16:48:24.4Z</time></trkpt><trkpt lat="39.36143" lon="17.131915"><ele>4.4</ele><time>2026-03-28T16:48:25.4Z</time></trkpt><trkpt lat="39.3615533" lon="17.1319317"><ele>4.800000000000001</ele><time>2026-03-28T16:48:26.401Z</time></trkpt><trkpt lat="39.3616633" lon="17.1319417"><ele>5.199999999999999</ele><time>2026-03-28T16:48:27.4Z</time></trkpt><trkpt lat="39.3617617" lon="17.1319533"><ele>5.6</ele><time>2026-03-28T16:48:28.4Z</time></trkpt><trkpt lat="39.3618517" lon="17.1319683"><ele>6.0</ele><time>2026-03-28T16:48:29.4Z</time></trkpt><trkpt lat="39.3619383" lon="17.1319783"><ele>5.999999999999999</ele><time>2026-03-28T16:48:30.4Z</time></trkpt><trkpt lat="39.362015" lon="17.1319967"><ele>6.0</ele><time>2026-03-28T16:48:31.401Z</time></trkpt><trkpt lat="39.3620833" lon="17.1320117"><ele>6.0</ele><time>2026-03-28T16:48:32.401Z</time></trkpt><trkpt lat="39.3621533" lon="17.1320283"><ele>6.0</ele><time>2026-03-28T16:48:33.4Z</time></trkpt><trkpt lat="39.3622217" lon="17.132055"><ele>6.0</ele><time>2026-03-28T16:48:34.4Z</time></trkpt><trkpt lat="39.36229" lon="17.1320717"><ele>5.999999999999999</ele><time>2026-03-28T16:48:35.4Z</time></trkpt><trkpt lat="39.3623617" lon="17.1320817"><ele>6.0</ele><time>2026-03-28T16:48:36.401Z</time></trkpt><trkpt lat="39.3624367" lon="17.1320783"><ele>5.6</ele><time>2026-03-28T16:48:37.401Z</time></trkpt><trkpt lat="39.3625517" lon="17.13211"><ele>5.199999999999999</ele><time>2026-03-28T16:48:39.401Z</time></trkpt><trkpt lat="39.3626633" lon="17.132135"><ele>4.800000000000001</ele><time>2026-03-28T16:48:41.4Z</time></trkpt><trkpt lat="39.3627683" lon="17.13216"><ele>4.4</ele><time>2026-03-28T16:48:43.4Z</time></trkpt><trkpt lat="39.3628617" lon="17.132185"><ele>4.0</ele><time>2026-03-28T16:48:45.4Z</time></trkpt><trkpt lat="39.3629733" lon="17.1322067"><ele>4.4</ele><time>2026-03-28T16:48:47.4Z</time></trkpt><trkpt lat="39.3630467" lon="17.1322233"><ele>4.800000000000001</ele><time>2026-03-28T16:48:48.4Z</time></trkpt><trkpt lat="39.3631167" lon="17.1322333"><ele>5.199999999999999</ele><time>2026-03-28T16:48:49.4Z</time></trkpt><trkpt lat="39.3632333" lon="17.1322467"><ele>5.6</ele><time>2026-03-28T16:48:51.4Z</time></trkpt><trkpt lat="39.3633483" lon="17.1322667"><ele>6.0</ele><time>2026-03-28T16:48:53.4Z</time></trkpt><trkpt lat="39.3634417" lon="17.132285"><ele>6.0</ele><time>2026-03-28T16:48:55.401Z</time></trkpt><trkpt lat="39.363505" lon="17.1323"><ele>6.0</ele><time>2026-03-28T16:48:57.4Z</time></trkpt><trkpt lat="39.36357" lon="17.1323367"><ele>6.0</ele><time>2026-03-28T16:49:01.4Z</time></trkpt><trkpt lat="39.36363" lon="17.1323883"><ele>6.0</ele><time>2026-03-28T16:49:04.401Z</time></trkpt><trkpt lat="39.3637017" lon="17.1324683"><ele>6.0</ele><time>2026-03-28T16:49:06.401Z</time></trkpt><trkpt lat="39.3637483" lon="17.1325817"><ele>6.0</ele><time>2026-03-28T16:49:08.4Z</time></trkpt><trkpt lat="39.363775" lon="17.1327233"><ele>5.666666666666667</ele><time>2026-03-28T16:49:10.4Z</time></trkpt><trkpt lat="39.3638267" lon="17.13285"><ele>5.333333333333333</ele><time>2026-03-28T16:49:12.4Z</time></trkpt><trkpt lat="39.3639117" lon="17.1329417"><ele>5.0</ele><time>2026-03-28T16:49:14.4Z</time></trkpt><trkpt lat="39.3639717" lon="17.1329783"><ele>4.666666666666666</ele><time>2026-03-28T16:49:15.4Z</time></trkpt><trkpt lat="39.364045" lon="17.1330017"><ele>4.333333333333333</ele><time>2026-03-28T16:49:16.4Z</time></trkpt><trkpt lat="39.3641083" lon="17.1330267"><ele>4.0</ele><time>2026-03-28T16:49:17.4Z</time></trkpt><trkpt lat="39.3641733" lon="17.1330433"><ele>4.0</ele><time>2026-03-28T16:49:18.4Z</time></trkpt><trkpt lat="39.3642417" lon="17.1330483"><ele>3.9999999999999996</ele><time>2026-03-28T16:49:19.4Z</time></trkpt><trkpt lat="39.3643083" lon="17.133055"><ele>4.0</ele><time>2026-03-28T16:49:20.4Z</time></trkpt><trkpt lat="39.364375" lon="17.133065"><ele>4.0</ele><time>2026-03-28T16:49:21.401Z</time></trkpt><trkpt lat="39.36445" lon="17.1330717"><ele>3.9999999999999996</ele><time>2026-03-28T16:49:22.4Z</time></trkpt><trkpt lat="39.364525" lon="17.1330817"><ele>4.0</ele><time>2026-03-28T16:49:23.4Z</time></trkpt><trkpt lat="39.364595" lon="17.13309"><ele>4.0</ele><time>2026-03-28T16:49:24.4Z</time></trkpt><trkpt lat="39.3646633" lon="17.1330917"><ele>4.166666666666666</ele><time>2026-03-28T16:49:25.4Z</time></trkpt><trkpt lat="39.364735" lon="17.1330933"><ele>4.333333333333333</ele><time>2026-03-28T16:49:26.4Z</time></trkpt><trkpt lat="39.364815" lon="17.1331017"><ele>4.5</ele><time>2026-03-28T16:49:27.4Z</time></trkpt><trkpt lat="39.3649017" lon="17.1331133"><ele>4.666666666666667</ele><time>2026-03-28T16:49:28.4Z</time></trkpt><trkpt lat="39.3649733" lon="17.1331267"><ele>4.833333333333334</ele><time>2026-03-28T16:49:29.401Z</time></trkpt><trkpt lat="39.3651" lon="17.1331367"><ele>5.0</ele><time>2026-03-28T16:49:31.401Z</time></trkpt><trkpt lat="39.3651717" lon="17.1331433"><ele>5.0</ele><time>2026-03-28T16:49:32.4Z</time></trkpt><trkpt lat="39.365245" lon="17.1331583"><ele>5.0</ele><time>2026-03-28T16:49:33.4Z</time></trkpt><trkpt lat="39.36532" lon="17.13317"><ele>5.0</ele><time>2026-03-28T16:49:34.4Z</time></trkpt><trkpt lat="39.3653983" lon="17.1331783"><ele>5.0</ele><time>2026-03-28T16:49:35.4Z</time></trkpt><trkpt lat="39.3654783" lon="17.13318"><ele>5.0</ele><time>2026-03-28T16:49:36.4Z</time></trkpt><trkpt lat="39.3655617" lon="17.133185"><ele>5.0</ele><time>2026-03-28T16:49:37.4Z</time></trkpt><trkpt lat="39.3656433" lon="17.1331917"><ele>5.0</ele><time>2026-03-28T16:49:38.4Z</time></trkpt><trkpt lat="39.3657183" lon="17.1331933"><ele>5.0</ele><time>2026-03-28T16:49:39.401Z</time></trkpt><trkpt lat="39.3657817" lon="17.13319"><ele>5.0</ele><time>2026-03-28T16:49:40.4Z</time></trkpt><trkpt lat="39.36589" lon="17.1332033"><ele>5.0</ele><time>2026-03-28T16:49:42.4Z</time></trkpt><trkpt lat="39.3659817" lon="17.13322"><ele>5.0</ele><time>2026-03-28T16:49:44.4Z</time></trkpt><trkpt lat="39.3660767" lon="17.1332533"><ele>5.0</ele><time>2026-03-28T16:49:46.4Z</time></trkpt><trkpt lat="39.3661717" lon="17.133265"><ele>5.5</ele><time>2026-03-28T16:49:48.4Z</time></trkpt><trkpt lat="39.3662683" lon="17.1332717"><ele>6.0</ele><time>2026-03-28T16:49:50.4Z</time></trkpt><trkpt lat="39.3663517" lon="17.13328"><ele>6.5</ele><time>2026-03-28T16:49:52.401Z</time></trkpt><trkpt lat="39.3664183" lon="17.13327"><ele>7.0</ele><time>2026-03-28T16:49:54.4Z</time></trkpt><trkpt lat="39.366475" lon="17.1332033"><ele>7.499999999999999</ele><time>2026-03-28T16:49:56.4Z</time></trkpt><trkpt lat="39.3665417" lon="17.13312"><ele>8.0</ele><time>2026-03-28T16:49:58.4Z</time></trkpt><trkpt lat="39.36664" lon="17.133055"><ele>7.999999999999999</ele><time>2026-03-28T16:50:00.4Z</time></trkpt><trkpt lat="39.3667067" lon="17.1330467"><ele>8.0</ele><time>2026-03-28T16:50:01.4Z</time></trkpt><trkpt lat="39.36678" lon="17.1330467"><ele>8.0</ele><time>2026-03-28T16:50:02.4Z</time></trkpt><trkpt lat="39.366875" lon="17.1330533"><ele>8.0</ele><time>2026-03-28T16:50:04.4Z</time></trkpt><trkpt lat="39.3669717" lon="17.1330567"><ele>7.999999999999999</ele><time>2026-03-28T16:50:06.4Z</time></trkpt><trkpt lat="39.3670517" lon="17.1330583"><ele>8.0</ele><time>2026-03-28T16:50:08.4Z</time></trkpt><trkpt lat="39.36715" lon="17.1330617"><ele>7.999999999999999</ele><time>2026-03-28T16:50:10.4Z</time></trkpt><trkpt lat="39.3672517" lon="17.1330633"><ele>8.0</ele><time>2026-03-28T16:50:12.401Z</time></trkpt><trkpt lat="39.3673167" lon="17.13306"><ele>8.0</ele><time>2026-03-28T16:50:13.4Z</time></trkpt><trkpt lat="39.36738" lon="17.1330583"><ele>8.0</ele><time>2026-03-28T16:50:14.401Z</time></trkpt><trkpt lat="39.367455" lon="17.133055"><ele>7.999999999999999</ele><time>2026-03-28T16:50:16.4Z</time></trkpt><trkpt lat="39.3675183" lon="17.1330583"><ele>8.0</ele><time>2026-03-28T16:50:19.4Z</time></trkpt><trkpt lat="39.3676217" lon="17.13307"><ele>8.0</ele><time>2026-03-28T16:50:22.4Z</time></trkpt><trkpt lat="39.3677033" lon="17.1330683"><ele>8.0</ele><time>2026-03-28T16:50:24.4Z</time></trkpt><trkpt lat="39.36781" lon="17.1330617"><ele>8.0</ele><time>2026-03-28T16:50:26.4Z</time></trkpt><trkpt lat="39.3678733" lon="17.1330667"><ele>8.0</ele><time>2026-03-28T16:50:27.401Z</time></trkpt><trkpt lat="39.3679817" lon="17.1330833"><ele>8.0</ele><time>2026-03-28T16:50:29.4Z</time></trkpt><trkpt lat="39.3680817" lon="17.1330983"><ele>8.0</ele><time>2026-03-28T16:50:31.4Z</time></trkpt><trkpt lat="39.3681933" lon="17.1331067"><ele>8.0</ele><time>2026-03-28T16:50:33.401Z</time></trkpt><trkpt lat="39.36829" lon="17.1331167"><ele>8.0</ele><time>2026-03-28T16:50:35.4Z</time></trkpt><trkpt lat="39.368395" lon="17.1331217"><ele>8.0</ele><time>2026-03-28T16:50:37.401Z</time></trkpt><trkpt lat="39.3685067" lon="17.13314"><ele>8.0</ele><time>2026-03-28T16:50:39.401Z</time></trkpt><trkpt lat="39.3686117" lon="17.133155"><ele>7.999999999999999</ele><time>2026-03-28T16:50:41.4Z</time></trkpt><trkpt lat="39.3687117" lon="17.1331717"><ele>8.0</ele><time>2026-03-28T16:50:43.4Z</time></trkpt><trkpt lat="39.3687933" lon="17.1331783"><ele>8.0</ele><time>2026-03-28T16:50:45.401Z</time></trkpt><trkpt lat="39.3688683" lon="17.133185"><ele>8.0</ele><time>2026-03-28T16:50:47.4Z</time></trkpt><trkpt lat="39.368935" lon="17.1331917"><ele>7.999999999999999</ele><time>2026-03-28T16:50:49.401Z</time></trkpt><trkpt lat="39.36901" lon="17.1332133"><ele>8.0</ele><time>2026-03-28T16:50:52.4Z</time></trkpt><trkpt lat="39.3691083" lon="17.1332417"><ele>7.4</ele><time>2026-03-28T16:50:55.401Z</time></trkpt><trkpt lat="39.3691967" lon="17.1332667"><ele>6.800000000000001</ele><time>2026-03-28T16:50:57.4Z</time></trkpt><trkpt lat="39.36929" lon="17.133305"><ele>6.2</ele><time>2026-03-28T16:50:59.4Z</time></trkpt><trkpt lat="39.3693967" lon="17.1333433"><ele>5.6</ele><time>2026-03-28T16:51:01.4Z</time></trkpt><trkpt lat="39.3695117" lon="17.133385"><ele>5.0</ele><time>2026-03-28T16:51:03.401Z</time></trkpt><trkpt lat="39.3696233" lon="17.1334283"><ele>5.75</ele><time>2026-03-28T16:51:05.4Z</time></trkpt><trkpt lat="39.3697233" lon="17.1334767"><ele>6.5</ele><time>2026-03-28T16:51:07.4Z</time></trkpt><trkpt lat="39.369825" lon="17.1335233"><ele>7.25</ele><time>2026-03-28T16:51:09.4Z</time></trkpt><trkpt lat="39.3699367" lon="17.13358"><ele>8.0</ele><time>2026-03-28T16:51:11.4Z</time></trkpt><trkpt lat="39.3700617" lon="17.1336283"><ele>8.0</ele><time>2026-03-28T16:51:13.4Z</time></trkpt><trkpt lat="39.3701283" lon="17.13365"><ele>8.0</ele><time>2026-03-28T16:51:14.4Z</time></trkpt><trkpt lat="39.370195" lon="17.1336683"><ele>8.0</ele><time>2026-03-28T16:51:15.4Z</time></trkpt><trkpt lat="39.3703183" lon="17.1336983"><ele>8.0</ele><time>2026-03-28T16:51:17.401Z</time></trkpt><trkpt lat="39.3704383" lon="17.13372"><ele>8.0</ele><time>2026-03-28T16:51:19.4Z</time></trkpt><trkpt lat="39.3705367" lon="17.13375"><ele>7.999999999999999</ele><time>2026-03-28T16:51:21.401Z</time></trkpt><trkpt lat="39.3706333" lon="17.1337683"><ele>8.0</ele><time>2026-03-28T16:51:23.4Z</time></trkpt><trkpt lat="39.37072" lon="17.1337817"><ele>8.0</ele><time>2026-03-28T16:51:25.401Z</time></trkpt><trkpt lat="39.3707967" lon="17.1337967"><ele>8.0</ele><time>2026-03-28T16:51:27.4Z</time></trkpt><trkpt lat="39.3708583" lon="17.1338183"><ele>7.999999999999999</ele><time>2026-03-28T16:51:29.401Z</time></trkpt><trkpt lat="39.3709267" lon="17.1338483"><ele>8.0</ele><time>2026-03-28T16:51:32.4Z</time></trkpt><trkpt lat="39.3710167" lon="17.1338783"><ele>7.999999999999999</ele><time>2026-03-28T16:51:35.401Z</time></trkpt><trkpt lat="39.3711167" lon="17.133915"><ele>8.0</ele><time>2026-03-28T16:51:37.4Z</time></trkpt><trkpt lat="39.371225" lon="17.1339517"><ele>8.0</ele><time>2026-03-28T16:51:39.4Z</time></trkpt><trkpt lat="39.3712867" lon="17.1339717"><ele>8.0</ele><time>2026-03-28T16:51:40.401Z</time></trkpt><trkpt lat="39.3713517" lon="17.134"><ele>7.999999999999999</ele><time>2026-03-28T16:51:41.4Z</time></trkpt><trkpt lat="39.3714217" lon="17.13403"><ele>8.0</ele><time>2026-03-28T16:51:42.4Z</time></trkpt><trkpt lat="39.3714967" lon="17.1340633"><ele>7.166666666666666</ele><time>2026-03-28T16:51:43.401Z</time></trkpt><trkpt lat="39.3715717" lon="17.1340967"><ele>6.333333333333333</ele><time>2026-03-28T16:51:44.401Z</time></trkpt><trkpt lat="39.3716517" lon="17.1341333"><ele>5.5</ele><time>2026-03-28T16:51:45.4Z</time></trkpt><trkpt lat="39.37173" lon="17.1341633"><ele>4.666666666666666</ele><time>2026-03-28T16:51:46.4Z</time></trkpt><trkpt lat="39.3718033" lon="17.13419"><ele>3.833333333333333</ele><time>2026-03-28T16:51:47.401Z</time></trkpt><trkpt lat="39.3718733" lon="17.13422"><ele>3.0</ele><time>2026-03-28T16:51:48.401Z</time></trkpt><trkpt lat="39.3719433" lon="17.1342467"><ele>3.0</ele><time>2026-03-28T16:51:49.4Z</time></trkpt><trkpt lat="39.372015" lon="17.1342717"><ele>3.0</ele><time>2026-03-28T16:51:50.401Z</time></trkpt><trkpt lat="39.37208" lon="17.1343017"><ele>3.0</ele><time>2026-03-28T16:51:51.4Z</time></trkpt><trkpt lat="39.3721467" lon="17.13433"><ele>3.0</ele><time>2026-03-28T16:51:52.4Z</time></trkpt><trkpt lat="39.3722117" lon="17.1343567"><ele>3.0</ele><time>2026-03-28T16:51:53.4Z</time></trkpt><trkpt lat="39.372275" lon="17.1343833"><ele>3.0</ele><time>2026-03-28T16:51:54.4Z</time></trkpt><trkpt lat="39.372385" lon="17.13443"><ele>3.75</ele><time>2026-03-28T16:51:56.4Z</time></trkpt><trkpt lat="39.3724983" lon="17.134475"><ele>4.5</ele><time>2026-03-28T16:51:58.401Z</time></trkpt><trkpt lat="39.3726133" lon="17.1345133"><ele>5.25</ele><time>2026-03-28T16:52:00.4Z</time></trkpt><trkpt lat="39.3727317" lon="17.1345583"><ele>6.0</ele><time>2026-03-28T16:52:02.4Z</time></trkpt><trkpt lat="39.37285" lon="17.1345967"><ele>6.0</ele><time>2026-03-28T16:52:04.4Z</time></trkpt><trkpt lat="39.3729117" lon="17.1346217"><ele>6.0</ele><time>2026-03-28T16:52:05.4Z</time></trkpt><trkpt lat="39.3730283" lon="17.1346783"><ele>6.0</ele><time>2026-03-28T16:52:07.4Z</time></trkpt><trkpt lat="39.37309" lon="17.1347133"><ele>6.0</ele><time>2026-03-28T16:52:08.4Z</time></trkpt><trkpt lat="39.3731517" lon="17.134745"><ele>6.0</ele><time>2026-03-28T16:52:09.4Z</time></trkpt><trkpt lat="39.3732133" lon="17.1347833"><ele>6.0</ele><time>2026-03-28T16:52:10.4Z</time></trkpt><trkpt lat="39.37328" lon="17.1348183"><ele>6.142857142857142</ele><time>2026-03-28T16:52:11.4Z</time></trkpt><trkpt lat="39.3733433" lon="17.13485"><ele>6.285714285714286</ele><time>2026-03-28T16:52:12.401Z</time></trkpt><trkpt lat="39.373415" lon="17.1348933"><ele>6.428571428571429</ele><time>2026-03-28T16:52:13.4Z</time></trkpt><trkpt lat="39.3734783" lon="17.1349317"><ele>6.571428571428571</ele><time>2026-03-28T16:52:14.4Z</time></trkpt><trkpt lat="39.3735433" lon="17.1349633"><ele>6.714285714285714</ele><time>2026-03-28T16:52:15.4Z</time></trkpt><trkpt lat="39.3736067" lon="17.1350017"><ele>6.857142857142857</ele><time>2026-03-28T16:52:16.4Z</time></trkpt><trkpt lat="39.3736683" lon="17.1350333"><ele>7.0</ele><time>2026-03-28T16:52:17.4Z</time></trkpt><trkpt lat="39.3737317" lon="17.1350617"><ele>6.6</ele><time>2026-03-28T16:52:18.4Z</time></trkpt><trkpt lat="39.373835" lon="17.135115"><ele>6.199999999999999</ele><time>2026-03-28T16:52:20.4Z</time></trkpt><trkpt lat="39.3739333" lon="17.1351633"><ele>5.8</ele><time>2026-03-28T16:52:22.4Z</time></trkpt><trkpt lat="39.3740367" lon="17.13521"><ele>5.4</ele><time>2026-03-28T16:52:24.4Z</time></trkpt><trkpt lat="39.3741" lon="17.13524"><ele>5.0</ele><time>2026-03-28T16:52:25.4Z</time></trkpt><trkpt lat="39.37417" lon="17.1352717"><ele>5.0</ele><time>2026-03-28T16:52:26.4Z</time></trkpt><trkpt lat="39.3742467" lon="17.1353017"><ele>5.0</ele><time>2026-03-28T16:52:27.4Z</time></trkpt><trkpt lat="39.3743333" lon="17.135335"><ele>5.0</ele><time>2026-03-28T16:52:28.4Z</time></trkpt><trkpt lat="39.37442" lon="17.135365"><ele>5.0</ele><time>2026-03-28T16:52:29.4Z</time></trkpt><trkpt lat="39.3745017" lon="17.1353967"><ele>5.0</ele><time>2026-03-28T16:52:30.4Z</time></trkpt><trkpt lat="39.3745817" lon="17.1354283"><ele>5.0</ele><time>2026-03-28T16:52:31.4Z</time></trkpt><trkpt lat="39.3746617" lon="17.135465"><ele>5.666666666666667</ele><time>2026-03-28T16:52:32.401Z</time></trkpt><trkpt lat="39.37474" lon="17.1354933"><ele>6.333333333333334</ele><time>2026-03-28T16:52:33.4Z</time></trkpt><trkpt lat="39.3748183" lon="17.135525"><ele>7.0</ele><time>2026-03-28T16:52:34.4Z</time></trkpt><trkpt lat="39.3748933" lon="17.1355533"><ele>7.666666666666667</ele><time>2026-03-28T16:52:35.4Z</time></trkpt><trkpt lat="39.3749667" lon="17.1355767"><ele>8.333333333333334</ele><time>2026-03-28T16:52:36.4Z</time></trkpt><trkpt lat="39.3750383" lon="17.1356017"><ele>9.0</ele><time>2026-03-28T16:52:37.401Z</time></trkpt><trkpt lat="39.375155" lon="17.1356467"><ele>9.0</ele><time>2026-03-28T16:52:39.4Z</time></trkpt><trkpt lat="39.37527" lon="17.1356867"><ele>9.0</ele><time>2026-03-28T16:52:41.401Z</time></trkpt><trkpt lat="39.3753783" lon="17.13574"><ele>9.0</ele><time>2026-03-28T16:52:43.401Z</time></trkpt><trkpt lat="39.3754433" lon="17.135765"><ele>9.0</ele><time>2026-03-28T16:52:44.4Z</time></trkpt><trkpt lat="39.37552" lon="17.1357917"><ele>9.0</ele><time>2026-03-28T16:52:45.401Z</time></trkpt><trkpt lat="39.3755967" lon="17.13582"><ele>8.428571428571429</ele><time>2026-03-28T16:52:46.4Z</time></trkpt><trkpt lat="39.3756733" lon="17.135845"><ele>7.857142857142858</ele><time>2026-03-28T16:52:47.4Z</time></trkpt><trkpt lat="39.37574" lon="17.135875"><ele>7.2857142857142865</ele><time>2026-03-28T16:52:48.401Z</time></trkpt><trkpt lat="39.3758033" lon="17.1359083"><ele>6.714285714285715</ele><time>2026-03-28T16:52:49.4Z</time></trkpt><trkpt lat="39.3758633" lon="17.1359433"><ele>6.142857142857143</ele><time>2026-03-28T16:52:50.4Z</time></trkpt><trkpt lat="39.3759267" lon="17.1359783"><ele>5.571428571428571</ele><time>2026-03-28T16:52:51.4Z</time></trkpt><trkpt lat="39.3759933" lon="17.1360083"><ele>5.0</ele><time>2026-03-28T16:52:52.4Z</time></trkpt><trkpt lat="39.37606" lon="17.1360433"><ele>5.0</ele><time>2026-03-28T16:52:53.4Z</time></trkpt><trkpt lat="39.376125" lon="17.1360833"><ele>5.0</ele><time>2026-03-28T16:52:54.4Z</time></trkpt><trkpt lat="39.3761833" lon="17.1361217"><ele>5.0</ele><time>2026-03-28T16:52:55.4Z</time></trkpt><trkpt lat="39.37628" lon="17.1361883"><ele>5.0</ele><time>2026-03-28T16:52:57.4Z</time></trkpt><trkpt lat="39.3763917" lon="17.1362583"><ele>5.0</ele><time>2026-03-28T16:52:59.4Z</time></trkpt><trkpt lat="39.3764617" lon="17.1362933"><ele>5.0</ele><time>2026-03-28T16:53:00.4Z</time></trkpt><trkpt lat="39.37653" lon="17.1363367"><ele>5.0</ele><time>2026-03-28T16:53:01.4Z</time></trkpt><trkpt lat="39.3765983" lon="17.13639"><ele>5.0</ele><time>2026-03-28T16:53:02.401Z</time></trkpt><trkpt lat="39.37667" lon="17.13644"><ele>5.0</ele><time>2026-03-28T16:53:03.4Z</time></trkpt><trkpt lat="39.37673" lon="17.1364867"><ele>5.0</ele><time>2026-03-28T16:53:04.4Z</time></trkpt><trkpt lat="39.376795" lon="17.1365317"><ele>5.0</ele><time>2026-03-28T16:53:05.4Z</time></trkpt><trkpt lat="39.376865" lon="17.13659"><ele>5.0</ele><time>2026-03-28T16:53:06.4Z</time></trkpt><trkpt lat="39.3769317" lon="17.136645"><ele>5.0</ele><time>2026-03-28T16:53:07.401Z</time></trkpt><trkpt lat="39.3769967" lon="17.1367"><ele>5.0</ele><time>2026-03-28T16:53:08.4Z</time></trkpt><trkpt lat="39.377065" lon="17.136755"><ele>5.0</ele><time>2026-03-28T16:53:09.401Z</time></trkpt><trkpt lat="39.3771333" lon="17.1368117"><ele>5.0</ele><time>2026-03-28T16:53:10.4Z</time></trkpt><trkpt lat="39.3771983" lon="17.1368733"><ele>5.0</ele><time>2026-03-28T16:53:11.4Z</time></trkpt><trkpt lat="39.37726" lon="17.1369283"><ele>5.0</ele><time>2026-03-28T16:53:12.4Z</time></trkpt><trkpt lat="39.3773217" lon="17.13698"><ele>5.2</ele><time>2026-03-28T16:53:13.401Z</time></trkpt><trkpt lat="39.377375" lon="17.137025"><ele>5.4</ele><time>2026-03-28T16:53:14.4Z</time></trkpt><trkpt lat="39.377475" lon="17.137095"><ele>5.6</ele><time>2026-03-28T16:53:16.4Z</time></trkpt><trkpt lat="39.377575" lon="17.1371667"><ele>5.8</ele><time>2026-03-28T16:53:18.4Z</time></trkpt><trkpt lat="39.3776883" lon="17.1372617"><ele>6.0</ele><time>2026-03-28T16:53:20.401Z</time></trkpt><trkpt lat="39.3777517" lon="17.137315"><ele>6.0</ele><time>2026-03-28T16:53:21.401Z</time></trkpt><trkpt lat="39.3778083" lon="17.13737"><ele>6.0</ele><time>2026-03-28T16:53:22.4Z</time></trkpt><trkpt lat="39.3778617" lon="17.1374133"><ele>6.0</ele><time>2026-03-28T16:53:23.401Z</time></trkpt><trkpt lat="39.3779433" lon="17.1374867"><ele>6.0</ele><time>2026-03-28T16:53:25.401Z</time></trkpt><trkpt lat="39.378015" lon="17.13755"><ele>6.0</ele><time>2026-03-28T16:53:27.4Z</time></trkpt><trkpt lat="39.37808" lon="17.1375183"><ele>6.0</ele><time>2026-03-28T16:53:37.4Z</time></trkpt><trkpt lat="39.3780233" lon="17.1374383"><ele>6.0</ele><time>2026-03-28T16:53:40.4Z</time></trkpt><trkpt lat="39.3779467" lon="17.1373833"><ele>6.0</ele><time>2026-03-28T16:53:42.4Z</time></trkpt><trkpt lat="39.37784" lon="17.1373067"><ele>6.0</ele><time>2026-03-28T16:53:44.4Z</time></trkpt><trkpt lat="39.3777533" lon="17.1372517"><ele>6.0</ele><time>2026-03-28T16:53:46.4Z</time></trkpt><trkpt lat="39.377685" lon="17.1372083"><ele>6.0</ele><time>2026-03-28T16:53:48.4Z</time></trkpt><trkpt lat="39.3776033" lon="17.13715"><ele>6.0</ele><time>2026-03-28T16:53:51.401Z</time></trkpt><trkpt lat="39.37755" lon="17.1370917"><ele>6.0</ele><time>2026-03-28T16:53:53.401Z</time></trkpt><trkpt lat="39.3774833" lon="17.13702"><ele>6.0</ele><time>2026-03-28T16:53:55.4Z</time></trkpt><trkpt lat="39.3773867" lon="17.1369367"><ele>6.0</ele><time>2026-03-28T16:53:57.401Z</time></trkpt><trkpt lat="39.377325" lon="17.1368817"><ele>6.0</ele><time>2026-03-28T16:53:58.4Z</time></trkpt><trkpt lat="39.37726" lon="17.1368283"><ele>6.0</ele><time>2026-03-28T16:53:59.4Z</time></trkpt><trkpt lat="39.3771917" lon="17.1367883"><ele>6.0</ele><time>2026-03-28T16:54:00.401Z</time></trkpt><trkpt lat="39.3771167" lon="17.1367383"><ele>6.0</ele><time>2026-03-28T16:54:01.4Z</time></trkpt><trkpt lat="39.37705" lon="17.1366833"><ele>6.0</ele><time>2026-03-28T16:54:02.401Z</time></trkpt><trkpt lat="39.37699" lon="17.13663"><ele>6.0</ele><time>2026-03-28T16:54:03.4Z</time></trkpt><trkpt lat="39.376925" lon="17.1365883"><ele>6.0</ele><time>2026-03-28T16:54:04.4Z</time></trkpt><trkpt lat="39.3768617" lon="17.1365367"><ele>6.0</ele><time>2026-03-28T16:54:05.4Z</time></trkpt><trkpt lat="39.376805" lon="17.13649"><ele>6.0</ele><time>2026-03-28T16:54:06.4Z</time></trkpt><trkpt lat="39.37674" lon="17.13646"><ele>6.0</ele><time>2026-03-28T16:54:07.4Z</time></trkpt><trkpt lat="39.376645" lon="17.1364033"><ele>6.0</ele><time>2026-03-28T16:54:09.4Z</time></trkpt><trkpt lat="39.3765467" lon="17.13633"><ele>6.0</ele><time>2026-03-28T16:54:11.4Z</time></trkpt><trkpt lat="39.37645" lon="17.136255"><ele>6.0</ele><time>2026-03-28T16:54:13.4Z</time></trkpt><trkpt lat="39.376355" lon="17.1362"><ele>5.833333333333333</ele><time>2026-03-28T16:54:15.401Z</time></trkpt><trkpt lat="39.3762583" lon="17.13613"><ele>5.666666666666667</ele><time>2026-03-28T16:54:17.4Z</time></trkpt><trkpt lat="39.3762033" lon="17.1360833"><ele>5.5</ele><time>2026-03-28T16:54:18.4Z</time></trkpt><trkpt lat="39.376145" lon="17.1360333"><ele>5.333333333333334</ele><time>2026-03-28T16:54:19.4Z</time></trkpt><trkpt lat="39.3760767" lon="17.1359883"><ele>5.166666666666667</ele><time>2026-03-28T16:54:20.401Z</time></trkpt><trkpt lat="39.3760133" lon="17.1359467"><ele>5.0</ele><time>2026-03-28T16:54:21.4Z</time></trkpt><trkpt lat="39.3759483" lon="17.1359117"><ele>5.0</ele><time>2026-03-28T16:54:22.4Z</time></trkpt><trkpt lat="39.37588" lon="17.1358783"><ele>5.0</ele><time>2026-03-28T16:54:23.4Z</time></trkpt><trkpt lat="39.37582" lon="17.13584"><ele>5.0</ele><time>2026-03-28T16:54:24.4Z</time></trkpt><trkpt lat="39.3757133" lon="17.1357767"><ele>5.0</ele><time>2026-03-28T16:54:26.4Z</time></trkpt><trkpt lat="39.3756117" lon="17.135735"><ele>5.0</ele><time>2026-03-28T16:54:28.4Z</time></trkpt><trkpt lat="39.3755133" lon="17.1356917"><ele>5.8</ele><time>2026-03-28T16:54:30.4Z</time></trkpt><trkpt lat="39.37541" lon="17.1356583"><ele>6.6</ele><time>2026-03-28T16:54:32.401Z</time></trkpt><trkpt lat="39.3753117" lon="17.1356233"><ele>7.4</ele><time>2026-03-28T16:54:34.4Z</time></trkpt><trkpt lat="39.3752167" lon="17.1355833"><ele>8.2</ele><time>2026-03-28T16:54:36.401Z</time></trkpt><trkpt lat="39.3750983" lon="17.1355417"><ele>9.0</ele><time>2026-03-28T16:54:38.4Z</time></trkpt><trkpt lat="39.3750367" lon="17.1355217"><ele>9.0</ele><time>2026-03-28T16:54:39.4Z</time></trkpt><trkpt lat="39.3749183" lon="17.1354717"><ele>9.0</ele><time>2026-03-28T16:54:41.401Z</time></trkpt><trkpt lat="39.374795" lon="17.1354333"><ele>9.0</ele><time>2026-03-28T16:54:43.4Z</time></trkpt><trkpt lat="39.374725" lon="17.135405"><ele>9.0</ele><time>2026-03-28T16:54:44.4Z</time></trkpt><trkpt lat="39.3746583" lon="17.135375"><ele>9.0</ele><time>2026-03-28T16:54:45.4Z</time></trkpt><trkpt lat="39.3745867" lon="17.13535"><ele>8.333333333333334</ele><time>2026-03-28T16:54:46.4Z</time></trkpt><trkpt lat="39.3745067" lon="17.1353233"><ele>7.666666666666667</ele><time>2026-03-28T16:54:47.4Z</time></trkpt><trkpt lat="39.374435" lon="17.135285"><ele>7.0</ele><time>2026-03-28T16:54:48.4Z</time></trkpt><trkpt lat="39.3743633" lon="17.1352517"><ele>6.333333333333334</ele><time>2026-03-28T16:54:49.4Z</time></trkpt><trkpt lat="39.374295" lon="17.1352333"><ele>5.666666666666667</ele><time>2026-03-28T16:54:50.4Z</time></trkpt><trkpt lat="39.374225" lon="17.1352083"><ele>5.0</ele><time>2026-03-28T16:54:51.4Z</time></trkpt><trkpt lat="39.3741567" lon="17.1351817"><ele>5.0</ele><time>2026-03-28T16:54:52.4Z</time></trkpt><trkpt lat="39.3740917" lon="17.1351567"><ele>5.0</ele><time>2026-03-28T16:54:53.4Z</time></trkpt><trkpt lat="39.3740283" lon="17.13513"><ele>5.0</ele><time>2026-03-28T16:54:54.4Z</time></trkpt><trkpt lat="39.3739117" lon="17.1350683"><ele>5.0</ele><time>2026-03-28T16:54:56.4Z</time></trkpt><trkpt lat="39.373795" lon="17.1350283"><ele>5.0</ele><time>2026-03-28T16:54:58.4Z</time></trkpt><trkpt lat="39.373735" lon="17.1349967"><ele>5.0</ele><time>2026-03-28T16:54:59.401Z</time></trkpt><trkpt lat="39.3736717" lon="17.1349617"><ele>5.0</ele><time>2026-03-28T16:55:00.4Z</time></trkpt><trkpt lat="39.3736017" lon="17.1349183"><ele>5.0</ele><time>2026-03-28T16:55:01.401Z</time></trkpt><trkpt lat="39.37353" lon="17.1348733"><ele>5.0</ele><time>2026-03-28T16:55:02.401Z</time></trkpt><trkpt lat="39.37347" lon="17.1348367"><ele>5.0</ele><time>2026-03-28T16:55:03.4Z</time></trkpt><trkpt lat="39.3733883" lon="17.1347817"><ele>5.0</ele><time>2026-03-28T16:55:05.401Z</time></trkpt><trkpt lat="39.3733217" lon="17.1347217"><ele>5.0</ele><time>2026-03-28T16:55:19.4Z</time></trkpt><trkpt lat="39.3732367" lon="17.13469"><ele>5.285714285714286</ele><time>2026-03-28T16:55:22.401Z</time></trkpt><trkpt lat="39.3731733" lon="17.1346483"><ele>5.571428571428571</ele><time>2026-03-28T16:55:25.4Z</time></trkpt><trkpt lat="39.3731533" lon="17.1345683"><ele>5.857142857142858</ele><time>2026-03-28T16:55:29.4Z</time></trkpt><trkpt lat="39.37317" lon="17.1344667"><ele>6.142857142857142</ele><time>2026-03-28T16:55:32.4Z</time></trkpt><trkpt lat="39.3731967" lon="17.1343667"><ele>6.428571428571429</ele><time>2026-03-28T16:55:35.4Z</time></trkpt><trkpt lat="39.3732233" lon="17.1342767"><ele>6.714285714285714</ele><time>2026-03-28T16:55:38.4Z</time></trkpt><trkpt lat="39.3732383" lon="17.1341933"><ele>7.0</ele><time>2026-03-28T16:55:42.4Z</time></trkpt><trkpt lat="39.3732617" lon="17.1340917"><ele>7.000000000000001</ele><time>2026-03-28T16:55:45.4Z</time></trkpt><trkpt lat="39.3732417" lon="17.1340017"><ele>7.0</ele><time>2026-03-28T16:55:47.4Z</time></trkpt><trkpt lat="39.3731483" lon="17.133945"><ele>7.0</ele><time>2026-03-28T16:55:49.401Z</time></trkpt><trkpt lat="39.3730667" lon="17.1339183"><ele>7.0</ele><time>2026-03-28T16:55:50.4Z</time></trkpt><trkpt lat="39.3729817" lon="17.1338883"><ele>7.000000000000001</ele><time>2026-03-28T16:55:51.4Z</time></trkpt><trkpt lat="39.3728917" lon="17.1338567"><ele>7.0</ele><time>2026-03-28T16:55:52.4Z</time></trkpt><trkpt lat="39.3728083" lon="17.1338233"><ele>7.166666666666667</ele><time>2026-03-28T16:55:53.4Z</time></trkpt><trkpt lat="39.372725" lon="17.1337883"><ele>7.333333333333334</ele><time>2026-03-28T16:55:54.4Z</time></trkpt><trkpt lat="39.37264" lon="17.1337583"><ele>7.5</ele><time>2026-03-28T16:55:55.4Z</time></trkpt><trkpt lat="39.3725583" lon="17.1337333"><ele>7.666666666666666</ele><time>2026-03-28T16:55:56.401Z</time></trkpt><trkpt lat="39.3724733" lon="17.133705"><ele>7.833333333333333</ele><time>2026-03-28T16:55:57.4Z</time></trkpt><trkpt lat="39.3723917" lon="17.1336717"><ele>8.0</ele><time>2026-03-28T16:55:58.4Z</time></trkpt><trkpt lat="39.3723083" lon="17.13365"><ele>8.0</ele><time>2026-03-28T16:55:59.4Z</time></trkpt><trkpt lat="39.3722283" lon="17.133635"><ele>7.999999999999999</ele><time>2026-03-28T16:56:00.4Z</time></trkpt><trkpt lat="39.3721583" lon="17.133615"><ele>8.0</ele><time>2026-03-28T16:56:01.4Z</time></trkpt><trkpt lat="39.37209" lon="17.1335917"><ele>8.0</ele><time>2026-03-28T16:56:02.401Z</time></trkpt><trkpt lat="39.37202" lon="17.1335783"><ele>7.999999999999999</ele><time>2026-03-28T16:56:03.4Z</time></trkpt><trkpt lat="39.3719533" lon="17.1335533"><ele>8.0</ele><time>2026-03-28T16:56:04.4Z</time></trkpt><trkpt lat="39.3718817" lon="17.1335483"><ele>8.0</ele><time>2026-03-28T16:56:05.401Z</time></trkpt><trkpt lat="39.371805" lon="17.1335183"><ele>7.999999999999999</ele><time>2026-03-28T16:56:06.4Z</time></trkpt><trkpt lat="39.3717217" lon="17.13351"><ele>8.0</ele><time>2026-03-28T16:56:07.4Z</time></trkpt><trkpt lat="39.3716317" lon="17.1334883"><ele>8.0</ele><time>2026-03-28T16:56:08.4Z</time></trkpt><trkpt lat="39.3715567" lon="17.133465"><ele>8.0</ele><time>2026-03-28T16:56:09.4Z</time></trkpt><trkpt lat="39.3714867" lon="17.1334517"><ele>7.999999999999999</ele><time>2026-03-28T16:56:10.4Z</time></trkpt><trkpt lat="39.371425" lon="17.1334267"><ele>8.0</ele><time>2026-03-28T16:56:11.4Z</time></trkpt><trkpt lat="39.371355" lon="17.1334083"><ele>7.999999999999999</ele><time>2026-03-28T16:56:12.4Z</time></trkpt><trkpt lat="39.3712883" lon="17.1333767"><ele>8.0</ele><time>2026-03-28T16:56:13.4Z</time></trkpt><trkpt lat="39.3712183" lon="17.1333467"><ele>8.0</ele><time>2026-03-28T16:56:14.4Z</time></trkpt><trkpt lat="39.3711383" lon="17.13332"><ele>8.0</ele><time>2026-03-28T16:56:15.401Z</time></trkpt><trkpt lat="39.37105" lon="17.1332933"><ele>7.999999999999999</ele><time>2026-03-28T16:56:16.4Z</time></trkpt><trkpt lat="39.37098" lon="17.1332933"><ele>8.0</ele><time>2026-03-28T16:56:17.401Z</time></trkpt><trkpt lat="39.3708917" lon="17.1332683"><ele>7.999999999999999</ele><time>2026-03-28T16:56:18.4Z</time></trkpt><trkpt lat="39.3708083" lon="17.13325"><ele>8.0</ele><time>2026-03-28T16:56:19.4Z</time></trkpt><trkpt lat="39.3707267" lon="17.1332417"><ele>8.0</ele><time>2026-03-28T16:56:20.4Z</time></trkpt><trkpt lat="39.370655" lon="17.13324"><ele>8.0</ele><time>2026-03-28T16:56:21.401Z</time></trkpt><trkpt lat="39.37059" lon="17.1332367"><ele>7.999999999999999</ele><time>2026-03-28T16:56:22.4Z</time></trkpt><trkpt lat="39.3704717" lon="17.133185"><ele>8.0</ele><time>2026-03-28T16:56:24.4Z</time></trkpt><trkpt lat="39.3703583" lon="17.1331633"><ele>8.200000000000001</ele><time>2026-03-28T16:56:26.4Z</time></trkpt><trkpt lat="39.3702383" lon="17.1331283"><ele>8.4</ele><time>2026-03-28T16:56:28.4Z</time></trkpt><trkpt lat="39.3701433" lon="17.133065"><ele>8.600000000000001</ele><time>2026-03-28T16:56:30.4Z</time></trkpt><trkpt lat="39.37004" lon="17.1329967"><ele>8.8</ele><time>2026-03-28T16:56:32.4Z</time></trkpt><trkpt lat="39.3699783" lon="17.1329633"><ele>9.0</ele><time>2026-03-28T16:56:33.4Z</time></trkpt><trkpt lat="39.3699167" lon="17.1329383"><ele>9.0</ele><time>2026-03-28T16:56:34.4Z</time></trkpt><trkpt lat="39.3698533" lon="17.1329183"><ele>9.0</ele><time>2026-03-28T16:56:35.4Z</time></trkpt><trkpt lat="39.3697933" lon="17.13289"><ele>9.0</ele><time>2026-03-28T16:56:36.4Z</time></trkpt><trkpt lat="39.369735" lon="17.1328583"><ele>9.0</ele><time>2026-03-28T16:56:37.4Z</time></trkpt><trkpt lat="39.3696367" lon="17.1328183"><ele>9.0</ele><time>2026-03-28T16:56:39.401Z</time></trkpt><trkpt lat="39.3695617" lon="17.1328"><ele>9.0</ele><time>2026-03-28T16:56:41.4Z</time></trkpt><trkpt lat="39.36949" lon="17.13276"><ele>8.833333333333334</ele><time>2026-03-28T16:56:44.4Z</time></trkpt><trkpt lat="39.369415" lon="17.13271"><ele>8.666666666666666</ele><time>2026-03-28T16:56:47.401Z</time></trkpt><trkpt lat="39.3693983" lon="17.1326133"><ele>8.5</ele><time>2026-03-28T16:56:50.4Z</time></trkpt><trkpt lat="39.36942" lon="17.13253"><ele>8.333333333333332</ele><time>2026-03-28T16:56:53.4Z</time></trkpt><trkpt lat="39.3694633" lon="17.1324167"><ele>8.166666666666666</ele><time>2026-03-28T16:56:56.4Z</time></trkpt><trkpt lat="39.3694867" lon="17.13233"><ele>8.0</ele><time>2026-03-28T16:56:58.4Z</time></trkpt><trkpt lat="39.3695083" lon="17.132235"><ele>7.666666666666666</ele><time>2026-03-28T16:57:00.401Z</time></trkpt><trkpt lat="39.3695333" lon="17.1321383"><ele>7.333333333333333</ele><time>2026-03-28T16:57:02.401Z</time></trkpt><trkpt lat="39.3695567" lon="17.1320383"><ele>7.0</ele><time>2026-03-28T16:57:04.401Z</time></trkpt><trkpt lat="39.3695883" lon="17.131895"><ele>6.666666666666666</ele><time>2026-03-28T16:57:06.401Z</time></trkpt><trkpt lat="39.3695967" lon="17.1318017"><ele>6.333333333333333</ele><time>2026-03-28T16:57:07.401Z</time></trkpt><trkpt lat="39.3696117" lon="17.1316917"><ele>6.0</ele><time>2026-03-28T16:57:08.4Z</time></trkpt><trkpt lat="39.369615" lon="17.13157"><ele>6.5</ele><time>2026-03-28T16:57:09.4Z</time></trkpt><trkpt lat="39.3696283" lon="17.1314133"><ele>7.0</ele><time>2026-03-28T16:57:10.4Z</time></trkpt><trkpt lat="39.369655" lon="17.1312533"><ele>7.5</ele><time>2026-03-28T16:57:11.4Z</time></trkpt><trkpt lat="39.369675" lon="17.1310833"><ele>8.0</ele><time>2026-03-28T16:57:12.4Z</time></trkpt><trkpt lat="39.3696833" lon="17.130905"><ele>8.0</ele><time>2026-03-28T16:57:13.4Z</time></trkpt><trkpt lat="39.3697" lon="17.1307483"><ele>8.0</ele><time>2026-03-28T16:57:14.4Z</time></trkpt><trkpt lat="39.3697183" lon="17.130605"><ele>8.0</ele><time>2026-03-28T16:57:15.4Z</time></trkpt><trkpt lat="39.3697383" lon="17.1304867"><ele>8.0</ele><time>2026-03-28T16:57:16.4Z</time></trkpt><trkpt lat="39.3697583" lon="17.13039"><ele>8.0</ele><time>2026-03-28T16:57:17.401Z</time></trkpt><trkpt lat="39.369775" lon="17.13031"><ele>7.833333333333333</ele><time>2026-03-28T16:57:18.401Z</time></trkpt><trkpt lat="39.3698" lon="17.13018"><ele>7.666666666666666</ele><time>2026-03-28T16:57:20.401Z</time></trkpt><trkpt lat="39.36981" lon="17.1300583"><ele>7.5</ele><time>2026-03-28T16:57:22.4Z</time></trkpt><trkpt lat="39.3698183" lon="17.1299517"><ele>7.333333333333334</ele><time>2026-03-28T16:57:24.4Z</time></trkpt><trkpt lat="39.3698083" lon="17.1298583"><ele>7.166666666666667</ele><time>2026-03-28T16:57:27.4Z</time></trkpt><trkpt lat="39.3698183" lon="17.1297683"><ele>7.0</ele><time>2026-03-28T16:57:37.4Z</time></trkpt><trkpt lat="39.3698267" lon="17.1296767"><ele>7.0</ele><time>2026-03-28T16:57:39.4Z</time></trkpt><trkpt lat="39.3698283" lon="17.129525"><ele>6.999999999999999</ele><time>2026-03-28T16:57:41.4Z</time></trkpt><trkpt lat="39.36981" lon="17.12944"><ele>6.999999999999999</ele><time>2026-03-28T16:57:42.4Z</time></trkpt><trkpt lat="39.3697617" lon="17.1293117"><ele>7.0</ele><time>2026-03-28T16:57:44.401Z</time></trkpt><trkpt lat="39.3696767" lon="17.12925"><ele>7.0</ele><time>2026-03-28T16:57:46.4Z</time></trkpt><trkpt lat="39.3695433" lon="17.129215"><ele>7.333333333333334</ele><time>2026-03-28T16:57:48.4Z</time></trkpt><trkpt lat="39.36945" lon="17.129205"><ele>7.666666666666667</ele><time>2026-03-28T16:57:49.4Z</time></trkpt><trkpt lat="39.3693733" lon="17.1292033"><ele>8.0</ele><time>2026-03-28T16:57:50.4Z</time></trkpt><trkpt lat="39.3692817" lon="17.1291933"><ele>8.333333333333334</ele><time>2026-03-28T16:57:51.4Z</time></trkpt><trkpt lat="39.3691917" lon="17.129175"><ele>8.666666666666666</ele><time>2026-03-28T16:57:52.4Z</time></trkpt><trkpt lat="39.3691183" lon="17.1291367"><ele>9.0</ele><time>2026-03-28T16:57:53.4Z</time></trkpt><trkpt lat="39.3690283" lon="17.1290983"><ele>8.833333333333334</ele><time>2026-03-28T16:57:55.4Z</time></trkpt><trkpt lat="39.368955" lon="17.129055"><ele>8.666666666666666</ele><time>2026-03-28T16:58:10.4Z</time></trkpt><trkpt lat="39.36886" lon="17.1290283"><ele>8.5</ele><time>2026-03-28T16:58:13.4Z</time></trkpt><trkpt lat="39.3687883" lon="17.1290133"><ele>8.333333333333332</ele><time>2026-03-28T16:58:15.4Z</time></trkpt><trkpt lat="39.3687083" lon="17.12899"><ele>8.166666666666666</ele><time>2026-03-28T16:58:18.4Z</time></trkpt><trkpt lat="39.368625" lon="17.128995"><ele>8.0</ele><time>2026-03-28T16:58:24.4Z</time></trkpt><trkpt lat="39.3685767" lon="17.1289067"><ele>7.800000000000001</ele><time>2026-03-28T16:58:28.4Z</time></trkpt><trkpt lat="39.368565" lon="17.1288217"><ele>7.6000000000000005</ele><time>2026-03-28T16:58:30.4Z</time></trkpt><trkpt lat="39.3685633" lon="17.1287183"><ele>7.3999999999999995</ele><time>2026-03-28T16:58:32.4Z</time></trkpt><trkpt lat="39.3685533" lon="17.1285983"><ele>7.199999999999999</ele><time>2026-03-28T16:58:34.4Z</time></trkpt><trkpt lat="39.36854" lon="17.12846"><ele>7.0</ele><time>2026-03-28T16:58:36.4Z</time></trkpt><trkpt lat="39.3685283" lon="17.128315"><ele>7.3999999999999995</ele><time>2026-03-28T16:58:38.4Z</time></trkpt><trkpt lat="39.3685033" lon="17.1281767"><ele>7.799999999999999</ele><time>2026-03-28T16:58:40.4Z</time></trkpt><trkpt lat="39.36848" lon="17.128075"><ele>8.2</ele><time>2026-03-28T16:58:42.4Z</time></trkpt><trkpt lat="39.3684583" lon="17.127965"><ele>8.6</ele><time>2026-03-28T16:58:45.4Z</time></trkpt><trkpt lat="39.3684367" lon="17.12786"><ele>9.0</ele><time>2026-03-28T16:58:47.401Z</time></trkpt><trkpt lat="39.36842" lon="17.1276933"><ele>9.0</ele><time>2026-03-28T16:58:49.401Z</time></trkpt><trkpt lat="39.3684117" lon="17.12759"><ele>9.0</ele><time>2026-03-28T16:58:50.4Z</time></trkpt><trkpt lat="39.3684" lon="17.1274867"><ele>9.0</ele><time>2026-03-28T16:58:51.4Z</time></trkpt><trkpt lat="39.3683867" lon="17.1273983"><ele>9.0</ele><time>2026-03-28T16:58:52.4Z</time></trkpt><trkpt lat="39.3683667" lon="17.1272917"><ele>9.0</ele><time>2026-03-28T16:58:54.401Z</time></trkpt><trkpt lat="39.36835" lon="17.1271867"><ele>9.0</ele><time>2026-03-28T16:58:56.4Z</time></trkpt><trkpt lat="39.3683333" lon="17.127065"><ele>9.0</ele><time>2026-03-28T16:58:58.4Z</time></trkpt><trkpt lat="39.3683183" lon="17.1269433"><ele>9.0</ele><time>2026-03-28T16:59:00.4Z</time></trkpt><trkpt lat="39.3683117" lon="17.12684"><ele>9.0</ele><time>2026-03-28T16:59:02.4Z</time></trkpt><trkpt lat="39.3683033" lon="17.12672"><ele>9.0</ele><time>2026-03-28T16:59:04.4Z</time></trkpt><trkpt lat="39.3682967" lon="17.1265683"><ele>9.0</ele><time>2026-03-28T16:59:06.4Z</time></trkpt><trkpt lat="39.36829" lon="17.126485"><ele>9.142857142857144</ele><time>2026-03-28T16:59:07.4Z</time></trkpt><trkpt lat="39.3682883" lon="17.1264033"><ele>9.285714285714286</ele><time>2026-03-28T16:59:08.4Z</time></trkpt><trkpt lat="39.3682733" lon="17.12628"><ele>9.428571428571429</ele><time>2026-03-28T16:59:10.4Z</time></trkpt><trkpt lat="39.368255" lon="17.1261917"><ele>9.571428571428573</ele><time>2026-03-28T16:59:13.4Z</time></trkpt><trkpt lat="39.36823" lon="17.1261083"><ele>9.714285714285715</ele><time>2026-03-28T16:59:16.4Z</time></trkpt><trkpt lat="39.3682117" lon="17.1260017"><ele>9.857142857142858</ele><time>2026-03-28T16:59:19.401Z</time></trkpt><trkpt lat="39.368195" lon="17.12592"><ele>10.0</ele><time>2026-03-28T16:59:21.401Z</time></trkpt><trkpt lat="39.368175" lon="17.1258267"><ele>10.0</ele><time>2026-03-28T16:59:23.4Z</time></trkpt><trkpt lat="39.3681617" lon="17.125725"><ele>10.0</ele><time>2026-03-28T16:59:25.401Z</time></trkpt><trkpt lat="39.36815" lon="17.12563"><ele>10.0</ele><time>2026-03-28T16:59:27.4Z</time></trkpt><trkpt lat="39.3681383" lon="17.12554"><ele>10.0</ele><time>2026-03-28T16:59:29.401Z</time></trkpt><trkpt lat="39.3681233" lon="17.1254567"><ele>10.0</ele><time>2026-03-28T16:59:31.4Z</time></trkpt><trkpt lat="39.368115" lon="17.125355"><ele>10.0</ele><time>2026-03-28T16:59:34.4Z</time></trkpt><trkpt lat="39.3681033" lon="17.12527"><ele>10.0</ele><time>2026-03-28T16:59:37.4Z</time></trkpt><trkpt lat="39.3680917" lon="17.1251583"><ele>10.0</ele><time>2026-03-28T16:59:40.4Z</time></trkpt><trkpt lat="39.3680733" lon="17.125065"><ele>10.0</ele><time>2026-03-28T16:59:42.4Z</time></trkpt><trkpt lat="39.368075" lon="17.1249533"><ele>10.0</ele><time>2026-03-28T16:59:44.4Z</time></trkpt><trkpt lat="39.3680633" lon="17.1248317"><ele>10.0</ele><time>2026-03-28T16:59:46.4Z</time></trkpt><trkpt lat="39.3680483" lon="17.1246833"><ele>10.0</ele><time>2026-03-28T16:59:48.401Z</time></trkpt><trkpt lat="39.3680317" lon="17.1245317"><ele>10.0</ele><time>2026-03-28T16:59:50.401Z</time></trkpt><trkpt lat="39.3680167" lon="17.12441"><ele>10.0</ele><time>2026-03-28T16:59:52.401Z</time></trkpt><trkpt lat="39.36801" lon="17.1243033"><ele>10.0</ele><time>2026-03-28T16:59:56.4Z</time></trkpt><trkpt lat="39.3679933" lon="17.1241917"><ele>10.0</ele><time>2026-03-28T16:59:59.4Z</time></trkpt><trkpt lat="39.3679783" lon="17.1240933"><ele>10.0</ele><time>2026-03-28T17:00:01.401Z</time></trkpt><trkpt lat="39.3679617" lon="17.123985"><ele>10.0</ele><time>2026-03-28T17:00:03.4Z</time></trkpt><trkpt lat="39.36794" lon="17.1238567"><ele>10.0</ele><time>2026-03-28T17:00:05.4Z</time></trkpt><trkpt lat="39.367915" lon="17.1237067"><ele>10.0</ele><time>2026-03-28T17:00:07.4Z</time></trkpt><trkpt lat="39.3679017" lon="17.1236267"><ele>10.0</ele><time>2026-03-28T17:00:08.4Z</time></trkpt><trkpt lat="39.3678833" lon="17.1234683"><ele>10.0</ele><time>2026-03-28T17:00:10.4Z</time></trkpt><trkpt lat="39.3678733" lon="17.1233817"><ele>10.0</ele><time>2026-03-28T17:00:11.4Z</time></trkpt><trkpt lat="39.3678733" lon="17.1232817"><ele>10.5</ele><time>2026-03-28T17:00:12.4Z</time></trkpt><trkpt lat="39.3678717" lon="17.12318"><ele>11.0</ele><time>2026-03-28T17:00:13.4Z</time></trkpt><trkpt lat="39.3678583" lon="17.1230817"><ele>11.5</ele><time>2026-03-28T17:00:14.4Z</time></trkpt><trkpt lat="39.367845" lon="17.12299"><ele>12.0</ele><time>2026-03-28T17:00:15.4Z</time></trkpt><trkpt lat="39.367825" lon="17.1228983"><ele>12.499999999999998</ele><time>2026-03-28T17:00:16.4Z</time></trkpt><trkpt lat="39.3678033" lon="17.1227433"><ele>13.0</ele><time>2026-03-28T17:00:18.4Z</time></trkpt><trkpt lat="39.3677817" lon="17.1226033"><ele>13.0</ele><time>2026-03-28T17:00:20.4Z</time></trkpt><trkpt lat="39.36776" lon="17.1224433"><ele>13.0</ele><time>2026-03-28T17:00:22.4Z</time></trkpt><trkpt lat="39.36774" lon="17.1222983"><ele>13.0</ele><time>2026-03-28T17:00:24.4Z</time></trkpt><trkpt lat="39.3677217" lon="17.1221567"><ele>13.0</ele><time>2026-03-28T17:00:26.4Z</time></trkpt><trkpt lat="39.3676867" lon="17.1219917"><ele>12.428571428571429</ele><time>2026-03-28T17:00:28.4Z</time></trkpt><trkpt lat="39.3676733" lon="17.1219017"><ele>11.857142857142858</ele><time>2026-03-28T17:00:29.4Z</time></trkpt><trkpt lat="39.36766" lon="17.12181"><ele>11.285714285714286</ele><time>2026-03-28T17:00:30.401Z</time></trkpt><trkpt lat="39.3676517" lon="17.12172"><ele>10.714285714285715</ele><time>2026-03-28T17:00:31.4Z</time></trkpt><trkpt lat="39.3676417" lon="17.1216317"><ele>10.142857142857142</ele><time>2026-03-28T17:00:32.4Z</time></trkpt><trkpt lat="39.36763" lon="17.1215483"><ele>9.571428571428573</ele><time>2026-03-28T17:00:33.4Z</time></trkpt><trkpt lat="39.3676183" lon="17.1214567"><ele>9.0</ele><time>2026-03-28T17:00:34.4Z</time></trkpt><trkpt lat="39.36761" lon="17.1213633"><ele>8.833333333333334</ele><time>2026-03-28T17:00:35.4Z</time></trkpt><trkpt lat="39.3675967" lon="17.121265"><ele>8.666666666666666</ele><time>2026-03-28T17:00:36.4Z</time></trkpt><trkpt lat="39.367585" lon="17.1211667"><ele>8.5</ele><time>2026-03-28T17:00:37.4Z</time></trkpt><trkpt lat="39.3675717" lon="17.1210667"><ele>8.333333333333332</ele><time>2026-03-28T17:00:38.4Z</time></trkpt><trkpt lat="39.3675517" lon="17.1209717"><ele>8.166666666666666</ele><time>2026-03-28T17:00:39.4Z</time></trkpt><trkpt lat="39.367535" lon="17.1208733"><ele>8.0</ele><time>2026-03-28T17:00:40.4Z</time></trkpt><trkpt lat="39.3675217" lon="17.1207817"><ele>8.333333333333332</ele><time>2026-03-28T17:00:41.4Z</time></trkpt><trkpt lat="39.367505" lon="17.1206983"><ele>8.666666666666666</ele><time>2026-03-28T17:00:42.4Z</time></trkpt><trkpt lat="39.3674833" lon="17.1205833"><ele>9.0</ele><time>2026-03-28T17:00:44.4Z</time></trkpt><trkpt lat="39.3674383" lon="17.1204617"><ele>9.333333333333334</ele><time>2026-03-28T17:01:05.401Z</time></trkpt><trkpt lat="39.3674083" lon="17.1203783"><ele>9.666666666666668</ele><time>2026-03-28T17:01:10.402Z</time></trkpt><trkpt lat="39.3674" lon="17.12024"><ele>10.0</ele><time>2026-03-28T17:01:34.401Z</time></trkpt><trkpt lat="39.3673967" lon="17.120135"><ele>10.0</ele><time>2026-03-28T17:02:30.401Z</time></trkpt></trkseg></trk></gpx>